<?xml version="1.0" encoding="UTF-8" standalone="no" ?>
<gpx xmlns="http://www.topografix.com/GPX/1/1" xmlns:xsi="http://www.w3.org/2001/XMLSchema-instance" xsi:schemaLocation="http://www.topografix.com/GPX/1/1 http://www.topografix.com/GPX/1/1/gpx.xsd" version="1.1" creator="VisuGPX - https://www.visugpx.com">
  <metadata>
    <name>Rando autour du Rocher des Princes</name>
    <desc><![CDATA[Balade du jeudi 20 juillet 2023, animateur André, 10 participants 
]]></desc>
  </metadata>
  <trk>
    <name><![CDATA[Rando autour du Rocher des Princes_1]]></name>
    <trkseg>
      <trkpt lat="48.37286" lon="2.74928">
        <ele>89</ele>
        <time>2023-07-20T06:58:51Z</time>
      </trkpt>
      <trkpt lat="48.37289" lon="2.74929">
        <ele>89</ele>
        <time>2023-07-20T06:58:52Z</time>
      </trkpt>
      <trkpt lat="48.37287" lon="2.74929">
        <ele>89</ele>
        <time>2023-07-20T06:58:53Z</time>
      </trkpt>
      <trkpt lat="48.37287" lon="2.74928">
        <ele>89</ele>
        <time>2023-07-20T06:58:54Z</time>
      </trkpt>
      <trkpt lat="48.37288" lon="2.74931">
        <ele>89</ele>
        <time>2023-07-20T06:58:55Z</time>
      </trkpt>
      <trkpt lat="48.37287" lon="2.74933">
        <ele>89</ele>
        <time>2023-07-20T06:58:56Z</time>
      </trkpt>
      <trkpt lat="48.37286" lon="2.74933">
        <ele>89</ele>
        <time>2023-07-20T06:58:57Z</time>
      </trkpt>
      <trkpt lat="48.37285" lon="2.74933">
        <ele>89</ele>
        <time>2023-07-20T06:58:58Z</time>
      </trkpt>
      <trkpt lat="48.37284" lon="2.74933">
        <ele>89</ele>
        <time>2023-07-20T06:58:59Z</time>
      </trkpt>
      <trkpt lat="48.37283" lon="2.74932">
        <ele>89</ele>
        <time>2023-07-20T06:59:00Z</time>
      </trkpt>
      <trkpt lat="48.37282" lon="2.74932">
        <ele>89</ele>
        <time>2023-07-20T06:59:01Z</time>
      </trkpt>
      <trkpt lat="48.37282" lon="2.74933">
        <ele>89</ele>
        <time>2023-07-20T06:59:02Z</time>
      </trkpt>
      <trkpt lat="48.37281" lon="2.74933">
        <ele>89</ele>
        <time>2023-07-20T06:59:03Z</time>
      </trkpt>
      <trkpt lat="48.37281" lon="2.74934">
        <ele>89</ele>
        <time>2023-07-20T06:59:04Z</time>
      </trkpt>
      <trkpt lat="48.3728" lon="2.74934">
        <ele>89</ele>
        <time>2023-07-20T06:59:05Z</time>
      </trkpt>
      <trkpt lat="48.3728" lon="2.74934">
        <ele>89</ele>
        <time>2023-07-20T06:59:06Z</time>
      </trkpt>
      <trkpt lat="48.3728" lon="2.74935">
        <ele>89</ele>
        <time>2023-07-20T06:59:07Z</time>
      </trkpt>
      <trkpt lat="48.3728" lon="2.74935">
        <ele>89</ele>
        <time>2023-07-20T06:59:08Z</time>
      </trkpt>
      <trkpt lat="48.3728" lon="2.74935">
        <ele>89</ele>
        <time>2023-07-20T06:59:09Z</time>
      </trkpt>
      <trkpt lat="48.3728" lon="2.74934">
        <ele>89</ele>
        <time>2023-07-20T06:59:10Z</time>
      </trkpt>
      <trkpt lat="48.3728" lon="2.74934">
        <ele>89</ele>
        <time>2023-07-20T06:59:11Z</time>
      </trkpt>
      <trkpt lat="48.37281" lon="2.74935">
        <ele>89</ele>
        <time>2023-07-20T06:59:12Z</time>
      </trkpt>
      <trkpt lat="48.37281" lon="2.74935">
        <ele>89</ele>
        <time>2023-07-20T06:59:13Z</time>
      </trkpt>
      <trkpt lat="48.37281" lon="2.74936">
        <ele>89</ele>
        <time>2023-07-20T06:59:14Z</time>
      </trkpt>
      <trkpt lat="48.3728" lon="2.74939">
        <ele>89</ele>
        <time>2023-07-20T06:59:15Z</time>
      </trkpt>
      <trkpt lat="48.3728" lon="2.74941">
        <ele>89</ele>
        <time>2023-07-20T06:59:16Z</time>
      </trkpt>
      <trkpt lat="48.3728" lon="2.74941">
        <ele>89</ele>
        <time>2023-07-20T06:59:17Z</time>
      </trkpt>
      <trkpt lat="48.3728" lon="2.74939">
        <ele>89</ele>
        <time>2023-07-20T06:59:18Z</time>
      </trkpt>
      <trkpt lat="48.3728" lon="2.74938">
        <ele>89</ele>
        <time>2023-07-20T06:59:19Z</time>
      </trkpt>
      <trkpt lat="48.3728" lon="2.74938">
        <ele>89</ele>
        <time>2023-07-20T06:59:20Z</time>
      </trkpt>
      <trkpt lat="48.3728" lon="2.74937">
        <ele>89</ele>
        <time>2023-07-20T06:59:21Z</time>
      </trkpt>
      <trkpt lat="48.3728" lon="2.74938">
        <ele>89</ele>
        <time>2023-07-20T06:59:22Z</time>
      </trkpt>
      <trkpt lat="48.3728" lon="2.74938">
        <ele>89</ele>
        <time>2023-07-20T06:59:23Z</time>
      </trkpt>
      <trkpt lat="48.3728" lon="2.74937">
        <ele>89</ele>
        <time>2023-07-20T06:59:24Z</time>
      </trkpt>
      <trkpt lat="48.3728" lon="2.74937">
        <ele>89</ele>
        <time>2023-07-20T06:59:25Z</time>
      </trkpt>
      <trkpt lat="48.3728" lon="2.74937">
        <ele>89</ele>
        <time>2023-07-20T06:59:26Z</time>
      </trkpt>
      <trkpt lat="48.3728" lon="2.74937">
        <ele>89</ele>
        <time>2023-07-20T06:59:27Z</time>
      </trkpt>
      <trkpt lat="48.3728" lon="2.74937">
        <ele>89</ele>
        <time>2023-07-20T06:59:28Z</time>
      </trkpt>
      <trkpt lat="48.3728" lon="2.74937">
        <ele>89</ele>
        <time>2023-07-20T06:59:29Z</time>
      </trkpt>
      <trkpt lat="48.3728" lon="2.74937">
        <ele>89</ele>
        <time>2023-07-20T06:59:30Z</time>
      </trkpt>
      <trkpt lat="48.3728" lon="2.74937">
        <ele>89</ele>
        <time>2023-07-20T06:59:31Z</time>
      </trkpt>
      <trkpt lat="48.3728" lon="2.74937">
        <ele>89</ele>
        <time>2023-07-20T06:59:32Z</time>
      </trkpt>
      <trkpt lat="48.3728" lon="2.74937">
        <ele>89</ele>
        <time>2023-07-20T06:59:33Z</time>
      </trkpt>
      <trkpt lat="48.3728" lon="2.74937">
        <ele>89</ele>
        <time>2023-07-20T06:59:34Z</time>
      </trkpt>
      <trkpt lat="48.3728" lon="2.74937">
        <ele>89</ele>
        <time>2023-07-20T06:59:35Z</time>
      </trkpt>
      <trkpt lat="48.3728" lon="2.74937">
        <ele>89</ele>
        <time>2023-07-20T06:59:36Z</time>
      </trkpt>
      <trkpt lat="48.3728" lon="2.74937">
        <ele>89</ele>
        <time>2023-07-20T06:59:37Z</time>
      </trkpt>
      <trkpt lat="48.3728" lon="2.74937">
        <ele>89</ele>
        <time>2023-07-20T06:59:38Z</time>
      </trkpt>
      <trkpt lat="48.3728" lon="2.74937">
        <ele>89</ele>
        <time>2023-07-20T06:59:39Z</time>
      </trkpt>
      <trkpt lat="48.3728" lon="2.74937">
        <ele>89</ele>
        <time>2023-07-20T06:59:40Z</time>
      </trkpt>
      <trkpt lat="48.3728" lon="2.74937">
        <ele>89</ele>
        <time>2023-07-20T06:59:41Z</time>
      </trkpt>
      <trkpt lat="48.3728" lon="2.74937">
        <ele>89</ele>
        <time>2023-07-20T06:59:42Z</time>
      </trkpt>
      <trkpt lat="48.3728" lon="2.74937">
        <ele>89</ele>
        <time>2023-07-20T06:59:43Z</time>
      </trkpt>
      <trkpt lat="48.3728" lon="2.74937">
        <ele>89</ele>
        <time>2023-07-20T06:59:44Z</time>
      </trkpt>
      <trkpt lat="48.3728" lon="2.74937">
        <ele>89</ele>
        <time>2023-07-20T06:59:46Z</time>
      </trkpt>
      <trkpt lat="48.3728" lon="2.74937">
        <ele>89</ele>
        <time>2023-07-20T06:59:47Z</time>
      </trkpt>
      <trkpt lat="48.3728" lon="2.74937">
        <ele>89</ele>
        <time>2023-07-20T06:59:48Z</time>
      </trkpt>
      <trkpt lat="48.3728" lon="2.74937">
        <ele>89</ele>
        <time>2023-07-20T06:59:49Z</time>
      </trkpt>
      <trkpt lat="48.3728" lon="2.74937">
        <ele>89</ele>
        <time>2023-07-20T06:59:50Z</time>
      </trkpt>
      <trkpt lat="48.3728" lon="2.74937">
        <ele>89</ele>
        <time>2023-07-20T06:59:51Z</time>
      </trkpt>
      <trkpt lat="48.3728" lon="2.74937">
        <ele>89</ele>
        <time>2023-07-20T06:59:52Z</time>
      </trkpt>
      <trkpt lat="48.3728" lon="2.74936">
        <ele>89</ele>
        <time>2023-07-20T06:59:53Z</time>
      </trkpt>
      <trkpt lat="48.3728" lon="2.74937">
        <ele>89</ele>
        <time>2023-07-20T06:59:54Z</time>
      </trkpt>
      <trkpt lat="48.3728" lon="2.74936">
        <ele>89</ele>
        <time>2023-07-20T06:59:55Z</time>
      </trkpt>
      <trkpt lat="48.3728" lon="2.74936">
        <ele>89</ele>
        <time>2023-07-20T06:59:56Z</time>
      </trkpt>
      <trkpt lat="48.3728" lon="2.74936">
        <ele>89</ele>
        <time>2023-07-20T06:59:57Z</time>
      </trkpt>
      <trkpt lat="48.3728" lon="2.74936">
        <ele>89</ele>
        <time>2023-07-20T06:59:58Z</time>
      </trkpt>
      <trkpt lat="48.3728" lon="2.74936">
        <ele>89</ele>
        <time>2023-07-20T06:59:59Z</time>
      </trkpt>
      <trkpt lat="48.37281" lon="2.74935">
        <ele>89</ele>
        <time>2023-07-20T07:00:00Z</time>
      </trkpt>
      <trkpt lat="48.37281" lon="2.74934">
        <ele>89</ele>
        <time>2023-07-20T07:00:01Z</time>
      </trkpt>
      <trkpt lat="48.37282" lon="2.74933">
        <ele>89</ele>
        <time>2023-07-20T07:00:02Z</time>
      </trkpt>
      <trkpt lat="48.37282" lon="2.74932">
        <ele>89</ele>
        <time>2023-07-20T07:00:03Z</time>
      </trkpt>
      <trkpt lat="48.37282" lon="2.74932">
        <ele>89</ele>
        <time>2023-07-20T07:00:04Z</time>
      </trkpt>
      <trkpt lat="48.37282" lon="2.74932">
        <ele>89</ele>
        <time>2023-07-20T07:00:05Z</time>
      </trkpt>
      <trkpt lat="48.37282" lon="2.74932">
        <ele>89</ele>
        <time>2023-07-20T07:00:06Z</time>
      </trkpt>
      <trkpt lat="48.37282" lon="2.74932">
        <ele>89</ele>
        <time>2023-07-20T07:00:07Z</time>
      </trkpt>
      <trkpt lat="48.37282" lon="2.74932">
        <ele>89</ele>
        <time>2023-07-20T07:00:08Z</time>
      </trkpt>
      <trkpt lat="48.37282" lon="2.74932">
        <ele>89</ele>
        <time>2023-07-20T07:00:09Z</time>
      </trkpt>
      <trkpt lat="48.37282" lon="2.74932">
        <ele>89</ele>
        <time>2023-07-20T07:00:10Z</time>
      </trkpt>
      <trkpt lat="48.37282" lon="2.74932">
        <ele>89</ele>
        <time>2023-07-20T07:00:11Z</time>
      </trkpt>
      <trkpt lat="48.37282" lon="2.74932">
        <ele>89</ele>
        <time>2023-07-20T07:00:12Z</time>
      </trkpt>
      <trkpt lat="48.37282" lon="2.74932">
        <ele>89</ele>
        <time>2023-07-20T07:00:13Z</time>
      </trkpt>
      <trkpt lat="48.37282" lon="2.74932">
        <ele>89</ele>
        <time>2023-07-20T07:00:14Z</time>
      </trkpt>
      <trkpt lat="48.37282" lon="2.74932">
        <ele>89</ele>
        <time>2023-07-20T07:00:15Z</time>
      </trkpt>
      <trkpt lat="48.37282" lon="2.74932">
        <ele>89</ele>
        <time>2023-07-20T07:00:16Z</time>
      </trkpt>
      <trkpt lat="48.37282" lon="2.74932">
        <ele>89</ele>
        <time>2023-07-20T07:00:17Z</time>
      </trkpt>
      <trkpt lat="48.37282" lon="2.74932">
        <ele>89</ele>
        <time>2023-07-20T07:00:18Z</time>
      </trkpt>
      <trkpt lat="48.37282" lon="2.74932">
        <ele>89</ele>
        <time>2023-07-20T07:00:19Z</time>
      </trkpt>
      <trkpt lat="48.37282" lon="2.74932">
        <ele>89</ele>
        <time>2023-07-20T07:00:20Z</time>
      </trkpt>
      <trkpt lat="48.37282" lon="2.74932">
        <ele>89</ele>
        <time>2023-07-20T07:00:21Z</time>
      </trkpt>
      <trkpt lat="48.37282" lon="2.74932">
        <ele>89</ele>
        <time>2023-07-20T07:00:22Z</time>
      </trkpt>
      <trkpt lat="48.37282" lon="2.74932">
        <ele>89</ele>
        <time>2023-07-20T07:00:23Z</time>
      </trkpt>
      <trkpt lat="48.37282" lon="2.74932">
        <ele>89</ele>
        <time>2023-07-20T07:00:24Z</time>
      </trkpt>
      <trkpt lat="48.37282" lon="2.74932">
        <ele>89</ele>
        <time>2023-07-20T07:00:25Z</time>
      </trkpt>
      <trkpt lat="48.37282" lon="2.74932">
        <ele>89</ele>
        <time>2023-07-20T07:00:26Z</time>
      </trkpt>
      <trkpt lat="48.37282" lon="2.74932">
        <ele>89</ele>
        <time>2023-07-20T07:00:27Z</time>
      </trkpt>
      <trkpt lat="48.37282" lon="2.74932">
        <ele>89</ele>
        <time>2023-07-20T07:00:28Z</time>
      </trkpt>
      <trkpt lat="48.37282" lon="2.74932">
        <ele>89</ele>
        <time>2023-07-20T07:00:29Z</time>
      </trkpt>
      <trkpt lat="48.37282" lon="2.74932">
        <ele>89</ele>
        <time>2023-07-20T07:00:30Z</time>
      </trkpt>
      <trkpt lat="48.37282" lon="2.74932">
        <ele>89</ele>
        <time>2023-07-20T07:00:31Z</time>
      </trkpt>
      <trkpt lat="48.37282" lon="2.74932">
        <ele>89</ele>
        <time>2023-07-20T07:00:32Z</time>
      </trkpt>
      <trkpt lat="48.37282" lon="2.74932">
        <ele>89</ele>
        <time>2023-07-20T07:00:33Z</time>
      </trkpt>
      <trkpt lat="48.37282" lon="2.74932">
        <ele>89</ele>
        <time>2023-07-20T07:00:34Z</time>
      </trkpt>
      <trkpt lat="48.37282" lon="2.74932">
        <ele>89</ele>
        <time>2023-07-20T07:00:35Z</time>
      </trkpt>
      <trkpt lat="48.37283" lon="2.74932">
        <ele>89</ele>
        <time>2023-07-20T07:00:36Z</time>
      </trkpt>
      <trkpt lat="48.37283" lon="2.74932">
        <ele>89</ele>
        <time>2023-07-20T07:00:37Z</time>
      </trkpt>
      <trkpt lat="48.37283" lon="2.74932">
        <ele>89</ele>
        <time>2023-07-20T07:00:38Z</time>
      </trkpt>
      <trkpt lat="48.37283" lon="2.74932">
        <ele>89</ele>
        <time>2023-07-20T07:00:39Z</time>
      </trkpt>
      <trkpt lat="48.37283" lon="2.74932">
        <ele>89</ele>
        <time>2023-07-20T07:00:40Z</time>
      </trkpt>
      <trkpt lat="48.37283" lon="2.74932">
        <ele>89</ele>
        <time>2023-07-20T07:00:41Z</time>
      </trkpt>
      <trkpt lat="48.37283" lon="2.74932">
        <ele>89</ele>
        <time>2023-07-20T07:00:42Z</time>
      </trkpt>
      <trkpt lat="48.37283" lon="2.74932">
        <ele>89</ele>
        <time>2023-07-20T07:00:43Z</time>
      </trkpt>
      <trkpt lat="48.37283" lon="2.74932">
        <ele>89</ele>
        <time>2023-07-20T07:00:44Z</time>
      </trkpt>
      <trkpt lat="48.37283" lon="2.74932">
        <ele>89</ele>
        <time>2023-07-20T07:00:45Z</time>
      </trkpt>
      <trkpt lat="48.37283" lon="2.74932">
        <ele>89</ele>
        <time>2023-07-20T07:00:46Z</time>
      </trkpt>
      <trkpt lat="48.37283" lon="2.74932">
        <ele>89</ele>
        <time>2023-07-20T07:00:47Z</time>
      </trkpt>
      <trkpt lat="48.37283" lon="2.74932">
        <ele>89</ele>
        <time>2023-07-20T07:00:48Z</time>
      </trkpt>
      <trkpt lat="48.37283" lon="2.74932">
        <ele>89</ele>
        <time>2023-07-20T07:00:49Z</time>
      </trkpt>
      <trkpt lat="48.37283" lon="2.74932">
        <ele>89</ele>
        <time>2023-07-20T07:00:50Z</time>
      </trkpt>
      <trkpt lat="48.37283" lon="2.74932">
        <ele>89</ele>
        <time>2023-07-20T07:00:51Z</time>
      </trkpt>
      <trkpt lat="48.37283" lon="2.74932">
        <ele>89</ele>
        <time>2023-07-20T07:00:52Z</time>
      </trkpt>
      <trkpt lat="48.37283" lon="2.74932">
        <ele>89</ele>
        <time>2023-07-20T07:00:53Z</time>
      </trkpt>
      <trkpt lat="48.37283" lon="2.74932">
        <ele>89</ele>
        <time>2023-07-20T07:00:54Z</time>
      </trkpt>
      <trkpt lat="48.37283" lon="2.74931">
        <ele>89</ele>
        <time>2023-07-20T07:00:55Z</time>
      </trkpt>
      <trkpt lat="48.37283" lon="2.74931">
        <ele>89</ele>
        <time>2023-07-20T07:00:56Z</time>
      </trkpt>
      <trkpt lat="48.37283" lon="2.74931">
        <ele>89</ele>
        <time>2023-07-20T07:00:57Z</time>
      </trkpt>
      <trkpt lat="48.37283" lon="2.74931">
        <ele>89</ele>
        <time>2023-07-20T07:00:58Z</time>
      </trkpt>
      <trkpt lat="48.37283" lon="2.74931">
        <ele>89</ele>
        <time>2023-07-20T07:00:59Z</time>
      </trkpt>
      <trkpt lat="48.37283" lon="2.74931">
        <ele>89</ele>
        <time>2023-07-20T07:01:00Z</time>
      </trkpt>
      <trkpt lat="48.37283" lon="2.74931">
        <ele>89</ele>
        <time>2023-07-20T07:01:01Z</time>
      </trkpt>
      <trkpt lat="48.37283" lon="2.74931">
        <ele>89</ele>
        <time>2023-07-20T07:01:02Z</time>
      </trkpt>
      <trkpt lat="48.37283" lon="2.74931">
        <ele>89</ele>
        <time>2023-07-20T07:01:03Z</time>
      </trkpt>
      <trkpt lat="48.37283" lon="2.74931">
        <ele>89</ele>
        <time>2023-07-20T07:01:04Z</time>
      </trkpt>
      <trkpt lat="48.37283" lon="2.74931">
        <ele>89</ele>
        <time>2023-07-20T07:01:05Z</time>
      </trkpt>
      <trkpt lat="48.37283" lon="2.74931">
        <ele>89</ele>
        <time>2023-07-20T07:01:06Z</time>
      </trkpt>
      <trkpt lat="48.37283" lon="2.74931">
        <ele>89</ele>
        <time>2023-07-20T07:01:07Z</time>
      </trkpt>
      <trkpt lat="48.37283" lon="2.74931">
        <ele>89</ele>
        <time>2023-07-20T07:01:08Z</time>
      </trkpt>
      <trkpt lat="48.37283" lon="2.74931">
        <ele>89</ele>
        <time>2023-07-20T07:01:09Z</time>
      </trkpt>
      <trkpt lat="48.37283" lon="2.74931">
        <ele>89</ele>
        <time>2023-07-20T07:01:10Z</time>
      </trkpt>
      <trkpt lat="48.37283" lon="2.74931">
        <ele>89</ele>
        <time>2023-07-20T07:01:11Z</time>
      </trkpt>
      <trkpt lat="48.37283" lon="2.74931">
        <ele>89</ele>
        <time>2023-07-20T07:01:12Z</time>
      </trkpt>
      <trkpt lat="48.37283" lon="2.74931">
        <ele>89</ele>
        <time>2023-07-20T07:01:13Z</time>
      </trkpt>
      <trkpt lat="48.37283" lon="2.74931">
        <ele>89</ele>
        <time>2023-07-20T07:01:14Z</time>
      </trkpt>
      <trkpt lat="48.37283" lon="2.74931">
        <ele>89</ele>
        <time>2023-07-20T07:01:15Z</time>
      </trkpt>
      <trkpt lat="48.37283" lon="2.74931">
        <ele>89</ele>
        <time>2023-07-20T07:01:16Z</time>
      </trkpt>
      <trkpt lat="48.37283" lon="2.74931">
        <ele>89</ele>
        <time>2023-07-20T07:01:17Z</time>
      </trkpt>
      <trkpt lat="48.37283" lon="2.74931">
        <ele>89</ele>
        <time>2023-07-20T07:01:18Z</time>
      </trkpt>
      <trkpt lat="48.37283" lon="2.74931">
        <ele>89</ele>
        <time>2023-07-20T07:01:19Z</time>
      </trkpt>
      <trkpt lat="48.37283" lon="2.74931">
        <ele>89</ele>
        <time>2023-07-20T07:01:20Z</time>
      </trkpt>
      <trkpt lat="48.37283" lon="2.74931">
        <ele>89</ele>
        <time>2023-07-20T07:01:21Z</time>
      </trkpt>
      <trkpt lat="48.37283" lon="2.74931">
        <ele>89</ele>
        <time>2023-07-20T07:01:22Z</time>
      </trkpt>
      <trkpt lat="48.37283" lon="2.74931">
        <ele>89</ele>
        <time>2023-07-20T07:01:23Z</time>
      </trkpt>
      <trkpt lat="48.37283" lon="2.74931">
        <ele>89</ele>
        <time>2023-07-20T07:01:24Z</time>
      </trkpt>
      <trkpt lat="48.37283" lon="2.74931">
        <ele>89</ele>
        <time>2023-07-20T07:01:25Z</time>
      </trkpt>
      <trkpt lat="48.37283" lon="2.74931">
        <ele>89</ele>
        <time>2023-07-20T07:01:26Z</time>
      </trkpt>
      <trkpt lat="48.37283" lon="2.74931">
        <ele>89</ele>
        <time>2023-07-20T07:01:27Z</time>
      </trkpt>
      <trkpt lat="48.37283" lon="2.74931">
        <ele>89</ele>
        <time>2023-07-20T07:01:28Z</time>
      </trkpt>
      <trkpt lat="48.37283" lon="2.74931">
        <ele>89</ele>
        <time>2023-07-20T07:01:29Z</time>
      </trkpt>
      <trkpt lat="48.37283" lon="2.74931">
        <ele>89</ele>
        <time>2023-07-20T07:01:30Z</time>
      </trkpt>
      <trkpt lat="48.37283" lon="2.74931">
        <ele>89</ele>
        <time>2023-07-20T07:01:31Z</time>
      </trkpt>
      <trkpt lat="48.37283" lon="2.74931">
        <ele>89</ele>
        <time>2023-07-20T07:01:32Z</time>
      </trkpt>
      <trkpt lat="48.37283" lon="2.74931">
        <ele>89</ele>
        <time>2023-07-20T07:01:33Z</time>
      </trkpt>
      <trkpt lat="48.37283" lon="2.74931">
        <ele>89</ele>
        <time>2023-07-20T07:01:34Z</time>
      </trkpt>
      <trkpt lat="48.37283" lon="2.74931">
        <ele>89</ele>
        <time>2023-07-20T07:01:35Z</time>
      </trkpt>
      <trkpt lat="48.37284" lon="2.74931">
        <ele>89</ele>
        <time>2023-07-20T07:01:36Z</time>
      </trkpt>
      <trkpt lat="48.37284" lon="2.74931">
        <ele>89</ele>
        <time>2023-07-20T07:01:37Z</time>
      </trkpt>
      <trkpt lat="48.37284" lon="2.74931">
        <ele>89</ele>
        <time>2023-07-20T07:01:38Z</time>
      </trkpt>
      <trkpt lat="48.37284" lon="2.74931">
        <ele>89</ele>
        <time>2023-07-20T07:01:39Z</time>
      </trkpt>
      <trkpt lat="48.37284" lon="2.74931">
        <ele>89</ele>
        <time>2023-07-20T07:01:40Z</time>
      </trkpt>
      <trkpt lat="48.37284" lon="2.74931">
        <ele>89</ele>
        <time>2023-07-20T07:01:41Z</time>
      </trkpt>
      <trkpt lat="48.37284" lon="2.74931">
        <ele>89</ele>
        <time>2023-07-20T07:01:42Z</time>
      </trkpt>
      <trkpt lat="48.37284" lon="2.74931">
        <ele>89</ele>
        <time>2023-07-20T07:01:43Z</time>
      </trkpt>
      <trkpt lat="48.37284" lon="2.74931">
        <ele>89</ele>
        <time>2023-07-20T07:01:44Z</time>
      </trkpt>
      <trkpt lat="48.37284" lon="2.74931">
        <ele>89</ele>
        <time>2023-07-20T07:01:45Z</time>
      </trkpt>
      <trkpt lat="48.37284" lon="2.74931">
        <ele>89</ele>
        <time>2023-07-20T07:01:46Z</time>
      </trkpt>
      <trkpt lat="48.37284" lon="2.74931">
        <ele>89</ele>
        <time>2023-07-20T07:01:47Z</time>
      </trkpt>
      <trkpt lat="48.37284" lon="2.74931">
        <ele>89</ele>
        <time>2023-07-20T07:01:48Z</time>
      </trkpt>
      <trkpt lat="48.37284" lon="2.74931">
        <ele>89</ele>
        <time>2023-07-20T07:01:49Z</time>
      </trkpt>
      <trkpt lat="48.37284" lon="2.74931">
        <ele>89</ele>
        <time>2023-07-20T07:01:50Z</time>
      </trkpt>
      <trkpt lat="48.37284" lon="2.74931">
        <ele>89</ele>
        <time>2023-07-20T07:01:51Z</time>
      </trkpt>
      <trkpt lat="48.37284" lon="2.74931">
        <ele>89</ele>
        <time>2023-07-20T07:01:52Z</time>
      </trkpt>
      <trkpt lat="48.37284" lon="2.74931">
        <ele>89</ele>
        <time>2023-07-20T07:01:53Z</time>
      </trkpt>
      <trkpt lat="48.37284" lon="2.74931">
        <ele>89</ele>
        <time>2023-07-20T07:01:54Z</time>
      </trkpt>
      <trkpt lat="48.37284" lon="2.74931">
        <ele>89</ele>
        <time>2023-07-20T07:01:55Z</time>
      </trkpt>
      <trkpt lat="48.37284" lon="2.74931">
        <ele>89</ele>
        <time>2023-07-20T07:01:56Z</time>
      </trkpt>
      <trkpt lat="48.37284" lon="2.74931">
        <ele>89</ele>
        <time>2023-07-20T07:01:57Z</time>
      </trkpt>
      <trkpt lat="48.37284" lon="2.74931">
        <ele>89</ele>
        <time>2023-07-20T07:01:58Z</time>
      </trkpt>
      <trkpt lat="48.37284" lon="2.74931">
        <ele>89</ele>
        <time>2023-07-20T07:01:59Z</time>
      </trkpt>
      <trkpt lat="48.37284" lon="2.74931">
        <ele>89</ele>
        <time>2023-07-20T07:02:00Z</time>
      </trkpt>
      <trkpt lat="48.37284" lon="2.74931">
        <ele>89</ele>
        <time>2023-07-20T07:02:01Z</time>
      </trkpt>
      <trkpt lat="48.37284" lon="2.74931">
        <ele>89</ele>
        <time>2023-07-20T07:02:02Z</time>
      </trkpt>
      <trkpt lat="48.37284" lon="2.74931">
        <ele>89</ele>
        <time>2023-07-20T07:02:03Z</time>
      </trkpt>
      <trkpt lat="48.37284" lon="2.74931">
        <ele>89</ele>
        <time>2023-07-20T07:02:04Z</time>
      </trkpt>
      <trkpt lat="48.37284" lon="2.74931">
        <ele>89</ele>
        <time>2023-07-20T07:02:05Z</time>
      </trkpt>
      <trkpt lat="48.37284" lon="2.74931">
        <ele>89</ele>
        <time>2023-07-20T07:02:06Z</time>
      </trkpt>
      <trkpt lat="48.37284" lon="2.74931">
        <ele>89</ele>
        <time>2023-07-20T07:02:07Z</time>
      </trkpt>
      <trkpt lat="48.37284" lon="2.74931">
        <ele>89</ele>
        <time>2023-07-20T07:02:08Z</time>
      </trkpt>
      <trkpt lat="48.37284" lon="2.74931">
        <ele>89</ele>
        <time>2023-07-20T07:02:09Z</time>
      </trkpt>
      <trkpt lat="48.37284" lon="2.7493">
        <ele>89</ele>
        <time>2023-07-20T07:02:10Z</time>
      </trkpt>
      <trkpt lat="48.37284" lon="2.7493">
        <ele>89</ele>
        <time>2023-07-20T07:02:11Z</time>
      </trkpt>
      <trkpt lat="48.37284" lon="2.7493">
        <ele>89</ele>
        <time>2023-07-20T07:02:12Z</time>
      </trkpt>
      <trkpt lat="48.37284" lon="2.7493">
        <ele>89</ele>
        <time>2023-07-20T07:02:13Z</time>
      </trkpt>
      <trkpt lat="48.37284" lon="2.7493">
        <ele>89</ele>
        <time>2023-07-20T07:02:14Z</time>
      </trkpt>
      <trkpt lat="48.37284" lon="2.7493">
        <ele>89</ele>
        <time>2023-07-20T07:02:15Z</time>
      </trkpt>
      <trkpt lat="48.37284" lon="2.7493">
        <ele>89</ele>
        <time>2023-07-20T07:02:16Z</time>
      </trkpt>
      <trkpt lat="48.37284" lon="2.7493">
        <ele>89</ele>
        <time>2023-07-20T07:02:17Z</time>
      </trkpt>
      <trkpt lat="48.37284" lon="2.7493">
        <ele>89</ele>
        <time>2023-07-20T07:02:18Z</time>
      </trkpt>
      <trkpt lat="48.37284" lon="2.7493">
        <ele>89</ele>
        <time>2023-07-20T07:02:19Z</time>
      </trkpt>
      <trkpt lat="48.37284" lon="2.7493">
        <ele>89</ele>
        <time>2023-07-20T07:02:20Z</time>
      </trkpt>
      <trkpt lat="48.37284" lon="2.7493">
        <ele>89</ele>
        <time>2023-07-20T07:02:21Z</time>
      </trkpt>
      <trkpt lat="48.37284" lon="2.7493">
        <ele>89</ele>
        <time>2023-07-20T07:02:22Z</time>
      </trkpt>
      <trkpt lat="48.37284" lon="2.7493">
        <ele>89</ele>
        <time>2023-07-20T07:02:23Z</time>
      </trkpt>
      <trkpt lat="48.37284" lon="2.7493">
        <ele>89</ele>
        <time>2023-07-20T07:02:24Z</time>
      </trkpt>
      <trkpt lat="48.37284" lon="2.7493">
        <ele>89</ele>
        <time>2023-07-20T07:02:25Z</time>
      </trkpt>
      <trkpt lat="48.37284" lon="2.7493">
        <ele>89</ele>
        <time>2023-07-20T07:02:26Z</time>
      </trkpt>
      <trkpt lat="48.37284" lon="2.7493">
        <ele>89</ele>
        <time>2023-07-20T07:02:27Z</time>
      </trkpt>
      <trkpt lat="48.37284" lon="2.7493">
        <ele>89</ele>
        <time>2023-07-20T07:02:28Z</time>
      </trkpt>
      <trkpt lat="48.37284" lon="2.7493">
        <ele>89</ele>
        <time>2023-07-20T07:02:29Z</time>
      </trkpt>
      <trkpt lat="48.37284" lon="2.7493">
        <ele>89</ele>
        <time>2023-07-20T07:02:30Z</time>
      </trkpt>
      <trkpt lat="48.37284" lon="2.7493">
        <ele>89</ele>
        <time>2023-07-20T07:02:31Z</time>
      </trkpt>
      <trkpt lat="48.37284" lon="2.7493">
        <ele>89</ele>
        <time>2023-07-20T07:02:32Z</time>
      </trkpt>
      <trkpt lat="48.37284" lon="2.7493">
        <ele>89</ele>
        <time>2023-07-20T07:02:33Z</time>
      </trkpt>
      <trkpt lat="48.37284" lon="2.7493">
        <ele>89</ele>
        <time>2023-07-20T07:02:34Z</time>
      </trkpt>
      <trkpt lat="48.37285" lon="2.7493">
        <ele>89</ele>
        <time>2023-07-20T07:02:35Z</time>
      </trkpt>
      <trkpt lat="48.37285" lon="2.7493">
        <ele>89</ele>
        <time>2023-07-20T07:02:36Z</time>
      </trkpt>
      <trkpt lat="48.37285" lon="2.7493">
        <ele>89</ele>
        <time>2023-07-20T07:02:37Z</time>
      </trkpt>
      <trkpt lat="48.37285" lon="2.7493">
        <ele>89</ele>
        <time>2023-07-20T07:02:38Z</time>
      </trkpt>
      <trkpt lat="48.37285" lon="2.7493">
        <ele>89</ele>
        <time>2023-07-20T07:02:39Z</time>
      </trkpt>
      <trkpt lat="48.37285" lon="2.7493">
        <ele>89</ele>
        <time>2023-07-20T07:02:40Z</time>
      </trkpt>
      <trkpt lat="48.37285" lon="2.7493">
        <ele>89</ele>
        <time>2023-07-20T07:02:41Z</time>
      </trkpt>
      <trkpt lat="48.37285" lon="2.7493">
        <ele>89</ele>
        <time>2023-07-20T07:02:42Z</time>
      </trkpt>
      <trkpt lat="48.37285" lon="2.7493">
        <ele>89</ele>
        <time>2023-07-20T07:02:43Z</time>
      </trkpt>
      <trkpt lat="48.37285" lon="2.7493">
        <ele>89</ele>
        <time>2023-07-20T07:02:44Z</time>
      </trkpt>
      <trkpt lat="48.37285" lon="2.7493">
        <ele>89</ele>
        <time>2023-07-20T07:02:45Z</time>
      </trkpt>
      <trkpt lat="48.37285" lon="2.7493">
        <ele>89</ele>
        <time>2023-07-20T07:02:46Z</time>
      </trkpt>
      <trkpt lat="48.37285" lon="2.7493">
        <ele>89</ele>
        <time>2023-07-20T07:02:47Z</time>
      </trkpt>
      <trkpt lat="48.37285" lon="2.7493">
        <ele>89</ele>
        <time>2023-07-20T07:02:48Z</time>
      </trkpt>
      <trkpt lat="48.37285" lon="2.7493">
        <ele>89</ele>
        <time>2023-07-20T07:02:49Z</time>
      </trkpt>
      <trkpt lat="48.37285" lon="2.7493">
        <ele>89</ele>
        <time>2023-07-20T07:02:50Z</time>
      </trkpt>
      <trkpt lat="48.37285" lon="2.7493">
        <ele>89</ele>
        <time>2023-07-20T07:02:51Z</time>
      </trkpt>
      <trkpt lat="48.37285" lon="2.7493">
        <ele>89</ele>
        <time>2023-07-20T07:02:52Z</time>
      </trkpt>
      <trkpt lat="48.37285" lon="2.7493">
        <ele>89</ele>
        <time>2023-07-20T07:02:53Z</time>
      </trkpt>
      <trkpt lat="48.37285" lon="2.7493">
        <ele>89</ele>
        <time>2023-07-20T07:02:54Z</time>
      </trkpt>
      <trkpt lat="48.37285" lon="2.7493">
        <ele>89</ele>
        <time>2023-07-20T07:02:55Z</time>
      </trkpt>
      <trkpt lat="48.37285" lon="2.7493">
        <ele>89</ele>
        <time>2023-07-20T07:02:56Z</time>
      </trkpt>
      <trkpt lat="48.37285" lon="2.7493">
        <ele>89</ele>
        <time>2023-07-20T07:02:57Z</time>
      </trkpt>
      <trkpt lat="48.37285" lon="2.7493">
        <ele>89</ele>
        <time>2023-07-20T07:02:58Z</time>
      </trkpt>
      <trkpt lat="48.37285" lon="2.7493">
        <ele>89</ele>
        <time>2023-07-20T07:02:59Z</time>
      </trkpt>
      <trkpt lat="48.37285" lon="2.7493">
        <ele>89</ele>
        <time>2023-07-20T07:03:00Z</time>
      </trkpt>
      <trkpt lat="48.37285" lon="2.7493">
        <ele>89</ele>
        <time>2023-07-20T07:03:01Z</time>
      </trkpt>
      <trkpt lat="48.37285" lon="2.7493">
        <ele>89</ele>
        <time>2023-07-20T07:03:02Z</time>
      </trkpt>
      <trkpt lat="48.37285" lon="2.7493">
        <ele>89</ele>
        <time>2023-07-20T07:03:03Z</time>
      </trkpt>
      <trkpt lat="48.37285" lon="2.7493">
        <ele>89</ele>
        <time>2023-07-20T07:03:04Z</time>
      </trkpt>
      <trkpt lat="48.37285" lon="2.7493">
        <ele>89</ele>
        <time>2023-07-20T07:03:05Z</time>
      </trkpt>
      <trkpt lat="48.37285" lon="2.7493">
        <ele>89</ele>
        <time>2023-07-20T07:03:06Z</time>
      </trkpt>
      <trkpt lat="48.37285" lon="2.7493">
        <ele>89</ele>
        <time>2023-07-20T07:03:07Z</time>
      </trkpt>
      <trkpt lat="48.37285" lon="2.7493">
        <ele>89</ele>
        <time>2023-07-20T07:03:08Z</time>
      </trkpt>
      <trkpt lat="48.37285" lon="2.7493">
        <ele>89</ele>
        <time>2023-07-20T07:03:09Z</time>
      </trkpt>
      <trkpt lat="48.37285" lon="2.7493">
        <ele>89</ele>
        <time>2023-07-20T07:03:10Z</time>
      </trkpt>
      <trkpt lat="48.37285" lon="2.7493">
        <ele>89</ele>
        <time>2023-07-20T07:03:11Z</time>
      </trkpt>
      <trkpt lat="48.37285" lon="2.7493">
        <ele>89</ele>
        <time>2023-07-20T07:03:12Z</time>
      </trkpt>
      <trkpt lat="48.37285" lon="2.7493">
        <ele>89</ele>
        <time>2023-07-20T07:03:13Z</time>
      </trkpt>
      <trkpt lat="48.37285" lon="2.7493">
        <ele>89</ele>
        <time>2023-07-20T07:03:14Z</time>
      </trkpt>
      <trkpt lat="48.37285" lon="2.7493">
        <ele>89</ele>
        <time>2023-07-20T07:03:15Z</time>
      </trkpt>
      <trkpt lat="48.37285" lon="2.7493">
        <ele>89</ele>
        <time>2023-07-20T07:03:16Z</time>
      </trkpt>
      <trkpt lat="48.37285" lon="2.7493">
        <ele>89</ele>
        <time>2023-07-20T07:03:17Z</time>
      </trkpt>
      <trkpt lat="48.37285" lon="2.7493">
        <ele>89</ele>
        <time>2023-07-20T07:03:18Z</time>
      </trkpt>
      <trkpt lat="48.37285" lon="2.7493">
        <ele>89</ele>
        <time>2023-07-20T07:03:19Z</time>
      </trkpt>
      <trkpt lat="48.37285" lon="2.7493">
        <ele>89</ele>
        <time>2023-07-20T07:03:20Z</time>
      </trkpt>
      <trkpt lat="48.37285" lon="2.7493">
        <ele>89</ele>
        <time>2023-07-20T07:03:21Z</time>
      </trkpt>
      <trkpt lat="48.37285" lon="2.7493">
        <ele>89</ele>
        <time>2023-07-20T07:03:22Z</time>
      </trkpt>
      <trkpt lat="48.37285" lon="2.7493">
        <ele>89</ele>
        <time>2023-07-20T07:03:23Z</time>
      </trkpt>
      <trkpt lat="48.37285" lon="2.74929">
        <ele>89</ele>
        <time>2023-07-20T07:03:24Z</time>
      </trkpt>
      <trkpt lat="48.37285" lon="2.74929">
        <ele>89</ele>
        <time>2023-07-20T07:03:25Z</time>
      </trkpt>
      <trkpt lat="48.37285" lon="2.74929">
        <ele>89</ele>
        <time>2023-07-20T07:03:26Z</time>
      </trkpt>
      <trkpt lat="48.37285" lon="2.74929">
        <ele>89</ele>
        <time>2023-07-20T07:03:27Z</time>
      </trkpt>
      <trkpt lat="48.37285" lon="2.74929">
        <ele>89</ele>
        <time>2023-07-20T07:03:28Z</time>
      </trkpt>
      <trkpt lat="48.37285" lon="2.74929">
        <ele>89</ele>
        <time>2023-07-20T07:03:29Z</time>
      </trkpt>
      <trkpt lat="48.37285" lon="2.74929">
        <ele>89</ele>
        <time>2023-07-20T07:03:30Z</time>
      </trkpt>
      <trkpt lat="48.37285" lon="2.74929">
        <ele>89</ele>
        <time>2023-07-20T07:03:31Z</time>
      </trkpt>
      <trkpt lat="48.37285" lon="2.74929">
        <ele>89</ele>
        <time>2023-07-20T07:03:32Z</time>
      </trkpt>
      <trkpt lat="48.37285" lon="2.74929">
        <ele>89</ele>
        <time>2023-07-20T07:03:33Z</time>
      </trkpt>
      <trkpt lat="48.37286" lon="2.74929">
        <ele>89</ele>
        <time>2023-07-20T07:03:34Z</time>
      </trkpt>
      <trkpt lat="48.37286" lon="2.74929">
        <ele>89</ele>
        <time>2023-07-20T07:03:35Z</time>
      </trkpt>
      <trkpt lat="48.37286" lon="2.74929">
        <ele>89</ele>
        <time>2023-07-20T07:03:36Z</time>
      </trkpt>
      <trkpt lat="48.37286" lon="2.74929">
        <ele>89</ele>
        <time>2023-07-20T07:03:37Z</time>
      </trkpt>
      <trkpt lat="48.37286" lon="2.74929">
        <ele>89</ele>
        <time>2023-07-20T07:03:38Z</time>
      </trkpt>
      <trkpt lat="48.37286" lon="2.74929">
        <ele>89</ele>
        <time>2023-07-20T07:03:39Z</time>
      </trkpt>
      <trkpt lat="48.37286" lon="2.74929">
        <ele>89</ele>
        <time>2023-07-20T07:03:40Z</time>
      </trkpt>
      <trkpt lat="48.37286" lon="2.74929">
        <ele>89</ele>
        <time>2023-07-20T07:03:41Z</time>
      </trkpt>
      <trkpt lat="48.37286" lon="2.74929">
        <ele>89</ele>
        <time>2023-07-20T07:03:42Z</time>
      </trkpt>
      <trkpt lat="48.37286" lon="2.74929">
        <ele>89</ele>
        <time>2023-07-20T07:03:43Z</time>
      </trkpt>
      <trkpt lat="48.37286" lon="2.74929">
        <ele>89</ele>
        <time>2023-07-20T07:03:44Z</time>
      </trkpt>
      <trkpt lat="48.37286" lon="2.74929">
        <ele>89</ele>
        <time>2023-07-20T07:03:45Z</time>
      </trkpt>
      <trkpt lat="48.37286" lon="2.74929">
        <ele>89</ele>
        <time>2023-07-20T07:03:46Z</time>
      </trkpt>
      <trkpt lat="48.37286" lon="2.74929">
        <ele>89</ele>
        <time>2023-07-20T07:03:47Z</time>
      </trkpt>
      <trkpt lat="48.37286" lon="2.74929">
        <ele>89</ele>
        <time>2023-07-20T07:03:48Z</time>
      </trkpt>
      <trkpt lat="48.37286" lon="2.74929">
        <ele>89</ele>
        <time>2023-07-20T07:03:49Z</time>
      </trkpt>
      <trkpt lat="48.37286" lon="2.74929">
        <ele>89</ele>
        <time>2023-07-20T07:03:50Z</time>
      </trkpt>
      <trkpt lat="48.37286" lon="2.74929">
        <ele>89</ele>
        <time>2023-07-20T07:03:51Z</time>
      </trkpt>
      <trkpt lat="48.37286" lon="2.74929">
        <ele>89</ele>
        <time>2023-07-20T07:03:52Z</time>
      </trkpt>
      <trkpt lat="48.37286" lon="2.74929">
        <ele>89</ele>
        <time>2023-07-20T07:03:53Z</time>
      </trkpt>
      <trkpt lat="48.37286" lon="2.74929">
        <ele>89</ele>
        <time>2023-07-20T07:03:54Z</time>
      </trkpt>
      <trkpt lat="48.37286" lon="2.74929">
        <ele>89</ele>
        <time>2023-07-20T07:03:55Z</time>
      </trkpt>
      <trkpt lat="48.37286" lon="2.74929">
        <ele>89</ele>
        <time>2023-07-20T07:03:56Z</time>
      </trkpt>
      <trkpt lat="48.37286" lon="2.74929">
        <ele>89</ele>
        <time>2023-07-20T07:03:57Z</time>
      </trkpt>
      <trkpt lat="48.37286" lon="2.74929">
        <ele>89</ele>
        <time>2023-07-20T07:03:58Z</time>
      </trkpt>
      <trkpt lat="48.37286" lon="2.74929">
        <ele>89</ele>
        <time>2023-07-20T07:03:59Z</time>
      </trkpt>
      <trkpt lat="48.37286" lon="2.74929">
        <ele>89</ele>
        <time>2023-07-20T07:04:00Z</time>
      </trkpt>
      <trkpt lat="48.37286" lon="2.74929">
        <ele>89</ele>
        <time>2023-07-20T07:04:01Z</time>
      </trkpt>
      <trkpt lat="48.37286" lon="2.74929">
        <ele>89</ele>
        <time>2023-07-20T07:04:02Z</time>
      </trkpt>
      <trkpt lat="48.37286" lon="2.74929">
        <ele>89</ele>
        <time>2023-07-20T07:04:03Z</time>
      </trkpt>
      <trkpt lat="48.37286" lon="2.74929">
        <ele>89</ele>
        <time>2023-07-20T07:04:04Z</time>
      </trkpt>
      <trkpt lat="48.37286" lon="2.74929">
        <ele>89</ele>
        <time>2023-07-20T07:04:05Z</time>
      </trkpt>
      <trkpt lat="48.37286" lon="2.74929">
        <ele>89</ele>
        <time>2023-07-20T07:04:06Z</time>
      </trkpt>
      <trkpt lat="48.37286" lon="2.74929">
        <ele>89</ele>
        <time>2023-07-20T07:04:07Z</time>
      </trkpt>
      <trkpt lat="48.37286" lon="2.74929">
        <ele>89</ele>
        <time>2023-07-20T07:04:08Z</time>
      </trkpt>
      <trkpt lat="48.37286" lon="2.74929">
        <ele>89</ele>
        <time>2023-07-20T07:04:09Z</time>
      </trkpt>
      <trkpt lat="48.37286" lon="2.74929">
        <ele>89</ele>
        <time>2023-07-20T07:04:10Z</time>
      </trkpt>
      <trkpt lat="48.37286" lon="2.74929">
        <ele>89</ele>
        <time>2023-07-20T07:04:11Z</time>
      </trkpt>
      <trkpt lat="48.37286" lon="2.74929">
        <ele>89</ele>
        <time>2023-07-20T07:04:12Z</time>
      </trkpt>
      <trkpt lat="48.37286" lon="2.74929">
        <ele>89</ele>
        <time>2023-07-20T07:04:13Z</time>
      </trkpt>
      <trkpt lat="48.37286" lon="2.74929">
        <ele>89</ele>
        <time>2023-07-20T07:04:14Z</time>
      </trkpt>
      <trkpt lat="48.37286" lon="2.74929">
        <ele>89</ele>
        <time>2023-07-20T07:04:15Z</time>
      </trkpt>
      <trkpt lat="48.37286" lon="2.74929">
        <ele>89</ele>
        <time>2023-07-20T07:04:16Z</time>
      </trkpt>
      <trkpt lat="48.37286" lon="2.74929">
        <ele>89</ele>
        <time>2023-07-20T07:04:17Z</time>
      </trkpt>
      <trkpt lat="48.37286" lon="2.74929">
        <ele>89</ele>
        <time>2023-07-20T07:04:18Z</time>
      </trkpt>
      <trkpt lat="48.37286" lon="2.74929">
        <ele>89</ele>
        <time>2023-07-20T07:04:19Z</time>
      </trkpt>
      <trkpt lat="48.37286" lon="2.74929">
        <ele>89</ele>
        <time>2023-07-20T07:04:20Z</time>
      </trkpt>
      <trkpt lat="48.37286" lon="2.74929">
        <ele>89</ele>
        <time>2023-07-20T07:04:21Z</time>
      </trkpt>
      <trkpt lat="48.37286" lon="2.74929">
        <ele>89</ele>
        <time>2023-07-20T07:04:22Z</time>
      </trkpt>
      <trkpt lat="48.37286" lon="2.74929">
        <ele>89</ele>
        <time>2023-07-20T07:04:23Z</time>
      </trkpt>
      <trkpt lat="48.37286" lon="2.74929">
        <ele>89</ele>
        <time>2023-07-20T07:04:24Z</time>
      </trkpt>
      <trkpt lat="48.37286" lon="2.74929">
        <ele>89</ele>
        <time>2023-07-20T07:04:25Z</time>
      </trkpt>
      <trkpt lat="48.37286" lon="2.74929">
        <ele>89</ele>
        <time>2023-07-20T07:04:26Z</time>
      </trkpt>
      <trkpt lat="48.37286" lon="2.74929">
        <ele>89</ele>
        <time>2023-07-20T07:04:27Z</time>
      </trkpt>
      <trkpt lat="48.37286" lon="2.74929">
        <ele>89</ele>
        <time>2023-07-20T07:04:28Z</time>
      </trkpt>
      <trkpt lat="48.37286" lon="2.74929">
        <ele>89</ele>
        <time>2023-07-20T07:04:29Z</time>
      </trkpt>
      <trkpt lat="48.37286" lon="2.74929">
        <ele>89</ele>
        <time>2023-07-20T07:04:30Z</time>
      </trkpt>
      <trkpt lat="48.37286" lon="2.74929">
        <ele>89</ele>
        <time>2023-07-20T07:04:31Z</time>
      </trkpt>
      <trkpt lat="48.37286" lon="2.74929">
        <ele>89</ele>
        <time>2023-07-20T07:04:32Z</time>
      </trkpt>
      <trkpt lat="48.37287" lon="2.74929">
        <ele>89</ele>
        <time>2023-07-20T07:04:33Z</time>
      </trkpt>
      <trkpt lat="48.37287" lon="2.74929">
        <ele>89</ele>
        <time>2023-07-20T07:04:34Z</time>
      </trkpt>
      <trkpt lat="48.37287" lon="2.74929">
        <ele>89</ele>
        <time>2023-07-20T07:04:35Z</time>
      </trkpt>
      <trkpt lat="48.37287" lon="2.74929">
        <ele>89</ele>
        <time>2023-07-20T07:04:36Z</time>
      </trkpt>
      <trkpt lat="48.37287" lon="2.74929">
        <ele>89</ele>
        <time>2023-07-20T07:04:37Z</time>
      </trkpt>
      <trkpt lat="48.37287" lon="2.74929">
        <ele>89</ele>
        <time>2023-07-20T07:04:38Z</time>
      </trkpt>
      <trkpt lat="48.37287" lon="2.74928">
        <ele>89</ele>
        <time>2023-07-20T07:04:39Z</time>
      </trkpt>
      <trkpt lat="48.37287" lon="2.74928">
        <ele>89</ele>
        <time>2023-07-20T07:04:40Z</time>
      </trkpt>
      <trkpt lat="48.37287" lon="2.74928">
        <ele>89</ele>
        <time>2023-07-20T07:04:41Z</time>
      </trkpt>
      <trkpt lat="48.37287" lon="2.74928">
        <ele>89</ele>
        <time>2023-07-20T07:04:42Z</time>
      </trkpt>
      <trkpt lat="48.37287" lon="2.74928">
        <ele>89</ele>
        <time>2023-07-20T07:04:43Z</time>
      </trkpt>
      <trkpt lat="48.37287" lon="2.74928">
        <ele>89</ele>
        <time>2023-07-20T07:04:44Z</time>
      </trkpt>
      <trkpt lat="48.37287" lon="2.74928">
        <ele>89</ele>
        <time>2023-07-20T07:04:45Z</time>
      </trkpt>
      <trkpt lat="48.37287" lon="2.74928">
        <ele>89</ele>
        <time>2023-07-20T07:04:46Z</time>
      </trkpt>
      <trkpt lat="48.37287" lon="2.74928">
        <ele>89</ele>
        <time>2023-07-20T07:04:47Z</time>
      </trkpt>
      <trkpt lat="48.37287" lon="2.74928">
        <ele>89</ele>
        <time>2023-07-20T07:04:48Z</time>
      </trkpt>
      <trkpt lat="48.37287" lon="2.74928">
        <ele>89</ele>
        <time>2023-07-20T07:04:49Z</time>
      </trkpt>
      <trkpt lat="48.37287" lon="2.74928">
        <ele>89</ele>
        <time>2023-07-20T07:04:50Z</time>
      </trkpt>
      <trkpt lat="48.37287" lon="2.74928">
        <ele>89</ele>
        <time>2023-07-20T07:04:51Z</time>
      </trkpt>
      <trkpt lat="48.37287" lon="2.74928">
        <ele>89</ele>
        <time>2023-07-20T07:04:52Z</time>
      </trkpt>
      <trkpt lat="48.37287" lon="2.74928">
        <ele>89</ele>
        <time>2023-07-20T07:04:53Z</time>
      </trkpt>
      <trkpt lat="48.37287" lon="2.74928">
        <ele>89</ele>
        <time>2023-07-20T07:04:54Z</time>
      </trkpt>
      <trkpt lat="48.37287" lon="2.74928">
        <ele>89</ele>
        <time>2023-07-20T07:04:55Z</time>
      </trkpt>
      <trkpt lat="48.37287" lon="2.74928">
        <ele>89</ele>
        <time>2023-07-20T07:04:56Z</time>
      </trkpt>
      <trkpt lat="48.37287" lon="2.74928">
        <ele>89</ele>
        <time>2023-07-20T07:04:57Z</time>
      </trkpt>
      <trkpt lat="48.37287" lon="2.74928">
        <ele>89</ele>
        <time>2023-07-20T07:04:58Z</time>
      </trkpt>
      <trkpt lat="48.37287" lon="2.74928">
        <ele>89</ele>
        <time>2023-07-20T07:04:59Z</time>
      </trkpt>
      <trkpt lat="48.37287" lon="2.74928">
        <ele>89</ele>
        <time>2023-07-20T07:05:00Z</time>
      </trkpt>
      <trkpt lat="48.37287" lon="2.74928">
        <ele>89</ele>
        <time>2023-07-20T07:05:01Z</time>
      </trkpt>
      <trkpt lat="48.37287" lon="2.74928">
        <ele>89</ele>
        <time>2023-07-20T07:05:02Z</time>
      </trkpt>
      <trkpt lat="48.37287" lon="2.74928">
        <ele>89</ele>
        <time>2023-07-20T07:05:03Z</time>
      </trkpt>
      <trkpt lat="48.37287" lon="2.74928">
        <ele>89</ele>
        <time>2023-07-20T07:05:04Z</time>
      </trkpt>
      <trkpt lat="48.37287" lon="2.74928">
        <ele>89</ele>
        <time>2023-07-20T07:05:05Z</time>
      </trkpt>
      <trkpt lat="48.37287" lon="2.74928">
        <ele>89</ele>
        <time>2023-07-20T07:05:06Z</time>
      </trkpt>
      <trkpt lat="48.37287" lon="2.74928">
        <ele>89</ele>
        <time>2023-07-20T07:05:07Z</time>
      </trkpt>
      <trkpt lat="48.37287" lon="2.74928">
        <ele>89</ele>
        <time>2023-07-20T07:05:08Z</time>
      </trkpt>
      <trkpt lat="48.37287" lon="2.74928">
        <ele>89</ele>
        <time>2023-07-20T07:05:09Z</time>
      </trkpt>
      <trkpt lat="48.37287" lon="2.74928">
        <ele>89</ele>
        <time>2023-07-20T07:05:10Z</time>
      </trkpt>
      <trkpt lat="48.37287" lon="2.74928">
        <ele>89</ele>
        <time>2023-07-20T07:05:11Z</time>
      </trkpt>
      <trkpt lat="48.37287" lon="2.74928">
        <ele>89</ele>
        <time>2023-07-20T07:05:12Z</time>
      </trkpt>
      <trkpt lat="48.37287" lon="2.74928">
        <ele>89</ele>
        <time>2023-07-20T07:05:13Z</time>
      </trkpt>
      <trkpt lat="48.37287" lon="2.74928">
        <ele>89</ele>
        <time>2023-07-20T07:05:14Z</time>
      </trkpt>
      <trkpt lat="48.37287" lon="2.74928">
        <ele>89</ele>
        <time>2023-07-20T07:05:15Z</time>
      </trkpt>
      <trkpt lat="48.37287" lon="2.74928">
        <ele>89</ele>
        <time>2023-07-20T07:05:16Z</time>
      </trkpt>
      <trkpt lat="48.37287" lon="2.74928">
        <ele>89</ele>
        <time>2023-07-20T07:05:17Z</time>
      </trkpt>
      <trkpt lat="48.37287" lon="2.74928">
        <ele>89</ele>
        <time>2023-07-20T07:05:18Z</time>
      </trkpt>
      <trkpt lat="48.37287" lon="2.74928">
        <ele>89</ele>
        <time>2023-07-20T07:05:19Z</time>
      </trkpt>
      <trkpt lat="48.37287" lon="2.74928">
        <ele>89</ele>
        <time>2023-07-20T07:05:20Z</time>
      </trkpt>
      <trkpt lat="48.37287" lon="2.74928">
        <ele>89</ele>
        <time>2023-07-20T07:05:21Z</time>
      </trkpt>
      <trkpt lat="48.37287" lon="2.74928">
        <ele>89</ele>
        <time>2023-07-20T07:05:22Z</time>
      </trkpt>
      <trkpt lat="48.37287" lon="2.74928">
        <ele>89</ele>
        <time>2023-07-20T07:05:23Z</time>
      </trkpt>
      <trkpt lat="48.37287" lon="2.74928">
        <ele>89</ele>
        <time>2023-07-20T07:05:24Z</time>
      </trkpt>
      <trkpt lat="48.37287" lon="2.74928">
        <ele>89</ele>
        <time>2023-07-20T07:05:25Z</time>
      </trkpt>
      <trkpt lat="48.37287" lon="2.74928">
        <ele>89</ele>
        <time>2023-07-20T07:05:26Z</time>
      </trkpt>
      <trkpt lat="48.37287" lon="2.74928">
        <ele>89</ele>
        <time>2023-07-20T07:05:27Z</time>
      </trkpt>
      <trkpt lat="48.37287" lon="2.74928">
        <ele>89</ele>
        <time>2023-07-20T07:05:28Z</time>
      </trkpt>
      <trkpt lat="48.37287" lon="2.74928">
        <ele>89</ele>
        <time>2023-07-20T07:05:29Z</time>
      </trkpt>
      <trkpt lat="48.37287" lon="2.74928">
        <ele>89</ele>
        <time>2023-07-20T07:05:30Z</time>
      </trkpt>
      <trkpt lat="48.37287" lon="2.74928">
        <ele>89</ele>
        <time>2023-07-20T07:05:31Z</time>
      </trkpt>
      <trkpt lat="48.37288" lon="2.74928">
        <ele>89</ele>
        <time>2023-07-20T07:05:32Z</time>
      </trkpt>
      <trkpt lat="48.37288" lon="2.74928">
        <ele>89</ele>
        <time>2023-07-20T07:05:33Z</time>
      </trkpt>
      <trkpt lat="48.37288" lon="2.74928">
        <ele>89</ele>
        <time>2023-07-20T07:05:34Z</time>
      </trkpt>
      <trkpt lat="48.37288" lon="2.74928">
        <ele>89</ele>
        <time>2023-07-20T07:05:35Z</time>
      </trkpt>
      <trkpt lat="48.37288" lon="2.74928">
        <ele>89</ele>
        <time>2023-07-20T07:05:36Z</time>
      </trkpt>
      <trkpt lat="48.37288" lon="2.74928">
        <ele>89</ele>
        <time>2023-07-20T07:05:37Z</time>
      </trkpt>
      <trkpt lat="48.37288" lon="2.74928">
        <ele>89</ele>
        <time>2023-07-20T07:05:38Z</time>
      </trkpt>
      <trkpt lat="48.37288" lon="2.74928">
        <ele>89</ele>
        <time>2023-07-20T07:05:39Z</time>
      </trkpt>
      <trkpt lat="48.37288" lon="2.74928">
        <ele>89</ele>
        <time>2023-07-20T07:05:40Z</time>
      </trkpt>
      <trkpt lat="48.37288" lon="2.74928">
        <ele>89</ele>
        <time>2023-07-20T07:05:41Z</time>
      </trkpt>
      <trkpt lat="48.37288" lon="2.74928">
        <ele>89</ele>
        <time>2023-07-20T07:05:42Z</time>
      </trkpt>
      <trkpt lat="48.37288" lon="2.74928">
        <ele>89</ele>
        <time>2023-07-20T07:05:43Z</time>
      </trkpt>
      <trkpt lat="48.37288" lon="2.74928">
        <ele>89</ele>
        <time>2023-07-20T07:05:44Z</time>
      </trkpt>
      <trkpt lat="48.37288" lon="2.74928">
        <ele>89</ele>
        <time>2023-07-20T07:05:45Z</time>
      </trkpt>
      <trkpt lat="48.37288" lon="2.74928">
        <ele>89</ele>
        <time>2023-07-20T07:05:46Z</time>
      </trkpt>
      <trkpt lat="48.37288" lon="2.74928">
        <ele>89</ele>
        <time>2023-07-20T07:05:47Z</time>
      </trkpt>
      <trkpt lat="48.37288" lon="2.74928">
        <ele>89</ele>
        <time>2023-07-20T07:05:48Z</time>
      </trkpt>
      <trkpt lat="48.37288" lon="2.74928">
        <ele>89</ele>
        <time>2023-07-20T07:05:49Z</time>
      </trkpt>
      <trkpt lat="48.37288" lon="2.74928">
        <ele>89</ele>
        <time>2023-07-20T07:05:50Z</time>
      </trkpt>
      <trkpt lat="48.37288" lon="2.74928">
        <ele>89</ele>
        <time>2023-07-20T07:05:51Z</time>
      </trkpt>
      <trkpt lat="48.37288" lon="2.74928">
        <ele>89</ele>
        <time>2023-07-20T07:05:52Z</time>
      </trkpt>
      <trkpt lat="48.37288" lon="2.74928">
        <ele>89</ele>
        <time>2023-07-20T07:05:53Z</time>
      </trkpt>
      <trkpt lat="48.37288" lon="2.74927">
        <ele>89</ele>
        <time>2023-07-20T07:05:54Z</time>
      </trkpt>
      <trkpt lat="48.37288" lon="2.74927">
        <ele>89</ele>
        <time>2023-07-20T07:05:55Z</time>
      </trkpt>
      <trkpt lat="48.37288" lon="2.74927">
        <ele>89</ele>
        <time>2023-07-20T07:05:56Z</time>
      </trkpt>
      <trkpt lat="48.37288" lon="2.74927">
        <ele>89</ele>
        <time>2023-07-20T07:05:57Z</time>
      </trkpt>
      <trkpt lat="48.37288" lon="2.74927">
        <ele>89</ele>
        <time>2023-07-20T07:05:58Z</time>
      </trkpt>
      <trkpt lat="48.37288" lon="2.74927">
        <ele>89</ele>
        <time>2023-07-20T07:05:59Z</time>
      </trkpt>
      <trkpt lat="48.37288" lon="2.74927">
        <ele>89</ele>
        <time>2023-07-20T07:06:00Z</time>
      </trkpt>
      <trkpt lat="48.37288" lon="2.74927">
        <ele>89</ele>
        <time>2023-07-20T07:06:01Z</time>
      </trkpt>
      <trkpt lat="48.37288" lon="2.74927">
        <ele>89</ele>
        <time>2023-07-20T07:06:02Z</time>
      </trkpt>
      <trkpt lat="48.37288" lon="2.74927">
        <ele>89</ele>
        <time>2023-07-20T07:06:03Z</time>
      </trkpt>
      <trkpt lat="48.37288" lon="2.74927">
        <ele>89</ele>
        <time>2023-07-20T07:06:04Z</time>
      </trkpt>
      <trkpt lat="48.37288" lon="2.74927">
        <ele>89</ele>
        <time>2023-07-20T07:06:05Z</time>
      </trkpt>
      <trkpt lat="48.37288" lon="2.74927">
        <ele>89</ele>
        <time>2023-07-20T07:06:06Z</time>
      </trkpt>
      <trkpt lat="48.37288" lon="2.74927">
        <ele>89</ele>
        <time>2023-07-20T07:06:07Z</time>
      </trkpt>
      <trkpt lat="48.37288" lon="2.74927">
        <ele>89</ele>
        <time>2023-07-20T07:06:08Z</time>
      </trkpt>
      <trkpt lat="48.37288" lon="2.74927">
        <ele>89</ele>
        <time>2023-07-20T07:06:09Z</time>
      </trkpt>
      <trkpt lat="48.37288" lon="2.74927">
        <ele>89</ele>
        <time>2023-07-20T07:06:10Z</time>
      </trkpt>
      <trkpt lat="48.37288" lon="2.74927">
        <ele>89</ele>
        <time>2023-07-20T07:06:11Z</time>
      </trkpt>
      <trkpt lat="48.37288" lon="2.74927">
        <ele>89</ele>
        <time>2023-07-20T07:06:12Z</time>
      </trkpt>
      <trkpt lat="48.37288" lon="2.74927">
        <ele>89</ele>
        <time>2023-07-20T07:06:13Z</time>
      </trkpt>
      <trkpt lat="48.37288" lon="2.74927">
        <ele>89</ele>
        <time>2023-07-20T07:06:14Z</time>
      </trkpt>
      <trkpt lat="48.37288" lon="2.74927">
        <ele>89</ele>
        <time>2023-07-20T07:06:15Z</time>
      </trkpt>
      <trkpt lat="48.37288" lon="2.74927">
        <ele>89</ele>
        <time>2023-07-20T07:06:16Z</time>
      </trkpt>
      <trkpt lat="48.37288" lon="2.74927">
        <ele>89</ele>
        <time>2023-07-20T07:06:17Z</time>
      </trkpt>
      <trkpt lat="48.37288" lon="2.74927">
        <ele>89</ele>
        <time>2023-07-20T07:06:18Z</time>
      </trkpt>
      <trkpt lat="48.37288" lon="2.74927">
        <ele>89</ele>
        <time>2023-07-20T07:06:19Z</time>
      </trkpt>
      <trkpt lat="48.37288" lon="2.74927">
        <ele>89</ele>
        <time>2023-07-20T07:06:20Z</time>
      </trkpt>
      <trkpt lat="48.37288" lon="2.74927">
        <ele>89</ele>
        <time>2023-07-20T07:06:21Z</time>
      </trkpt>
      <trkpt lat="48.37288" lon="2.74927">
        <ele>89</ele>
        <time>2023-07-20T07:06:22Z</time>
      </trkpt>
      <trkpt lat="48.37288" lon="2.74927">
        <ele>89</ele>
        <time>2023-07-20T07:06:23Z</time>
      </trkpt>
      <trkpt lat="48.37288" lon="2.74927">
        <ele>89</ele>
        <time>2023-07-20T07:06:24Z</time>
      </trkpt>
      <trkpt lat="48.37288" lon="2.74927">
        <ele>89</ele>
        <time>2023-07-20T07:06:25Z</time>
      </trkpt>
      <trkpt lat="48.37288" lon="2.74927">
        <ele>89</ele>
        <time>2023-07-20T07:06:26Z</time>
      </trkpt>
      <trkpt lat="48.37288" lon="2.74927">
        <ele>89</ele>
        <time>2023-07-20T07:06:27Z</time>
      </trkpt>
      <trkpt lat="48.37288" lon="2.74927">
        <ele>89</ele>
        <time>2023-07-20T07:06:28Z</time>
      </trkpt>
      <trkpt lat="48.37288" lon="2.74927">
        <ele>89</ele>
        <time>2023-07-20T07:06:29Z</time>
      </trkpt>
      <trkpt lat="48.37289" lon="2.74925">
        <ele>89</ele>
        <time>2023-07-20T07:06:30Z</time>
      </trkpt>
      <trkpt lat="48.3729" lon="2.74923">
        <ele>89</ele>
        <time>2023-07-20T07:06:31Z</time>
      </trkpt>
      <trkpt lat="48.37291" lon="2.74921">
        <ele>89</ele>
        <time>2023-07-20T07:06:32Z</time>
      </trkpt>
      <trkpt lat="48.37291" lon="2.7492">
        <ele>89</ele>
        <time>2023-07-20T07:06:33Z</time>
      </trkpt>
      <trkpt lat="48.37291" lon="2.74919">
        <ele>89</ele>
        <time>2023-07-20T07:06:34Z</time>
      </trkpt>
      <trkpt lat="48.37292" lon="2.74918">
        <ele>89</ele>
        <time>2023-07-20T07:06:35Z</time>
      </trkpt>
      <trkpt lat="48.37292" lon="2.74915">
        <ele>89.1</ele>
        <time>2023-07-20T07:06:36Z</time>
      </trkpt>
      <trkpt lat="48.37293" lon="2.74913">
        <ele>89.1</ele>
        <time>2023-07-20T07:06:37Z</time>
      </trkpt>
      <trkpt lat="48.37293" lon="2.74911">
        <ele>89.1</ele>
        <time>2023-07-20T07:06:38Z</time>
      </trkpt>
      <trkpt lat="48.37293" lon="2.74908">
        <ele>89.2</ele>
        <time>2023-07-20T07:06:39Z</time>
      </trkpt>
      <trkpt lat="48.37293" lon="2.74906">
        <ele>89.2</ele>
        <time>2023-07-20T07:06:40Z</time>
      </trkpt>
      <trkpt lat="48.37292" lon="2.74905">
        <ele>89.2</ele>
        <time>2023-07-20T07:06:41Z</time>
      </trkpt>
      <trkpt lat="48.37291" lon="2.74904">
        <ele>89.2</ele>
        <time>2023-07-20T07:06:42Z</time>
      </trkpt>
      <trkpt lat="48.37291" lon="2.74903">
        <ele>89.2</ele>
        <time>2023-07-20T07:06:43Z</time>
      </trkpt>
      <trkpt lat="48.37291" lon="2.74902">
        <ele>89.3</ele>
        <time>2023-07-20T07:06:44Z</time>
      </trkpt>
      <trkpt lat="48.3729" lon="2.74902">
        <ele>89.3</ele>
        <time>2023-07-20T07:06:45Z</time>
      </trkpt>
      <trkpt lat="48.3729" lon="2.749">
        <ele>89.3</ele>
        <time>2023-07-20T07:06:46Z</time>
      </trkpt>
      <trkpt lat="48.3729" lon="2.749">
        <ele>89.3</ele>
        <time>2023-07-20T07:06:47Z</time>
      </trkpt>
      <trkpt lat="48.3729" lon="2.74899">
        <ele>89.3</ele>
        <time>2023-07-20T07:06:48Z</time>
      </trkpt>
      <trkpt lat="48.3729" lon="2.74898">
        <ele>89.3</ele>
        <time>2023-07-20T07:06:49Z</time>
      </trkpt>
      <trkpt lat="48.3729" lon="2.74897">
        <ele>89.3</ele>
        <time>2023-07-20T07:06:50Z</time>
      </trkpt>
      <trkpt lat="48.37289" lon="2.74895">
        <ele>89.3</ele>
        <time>2023-07-20T07:06:51Z</time>
      </trkpt>
      <trkpt lat="48.37289" lon="2.74893">
        <ele>89.4</ele>
        <time>2023-07-20T07:06:52Z</time>
      </trkpt>
      <trkpt lat="48.37288" lon="2.74892">
        <ele>89.4</ele>
        <time>2023-07-20T07:06:53Z</time>
      </trkpt>
      <trkpt lat="48.37287" lon="2.74892">
        <ele>89.4</ele>
        <time>2023-07-20T07:06:54Z</time>
      </trkpt>
      <trkpt lat="48.37287" lon="2.74891">
        <ele>89.4</ele>
        <time>2023-07-20T07:06:55Z</time>
      </trkpt>
      <trkpt lat="48.37286" lon="2.74891">
        <ele>89.4</ele>
        <time>2023-07-20T07:06:56Z</time>
      </trkpt>
      <trkpt lat="48.37286" lon="2.7489">
        <ele>89.4</ele>
        <time>2023-07-20T07:06:57Z</time>
      </trkpt>
      <trkpt lat="48.37286" lon="2.74889">
        <ele>89.4</ele>
        <time>2023-07-20T07:06:58Z</time>
      </trkpt>
      <trkpt lat="48.37286" lon="2.74888">
        <ele>89.4</ele>
        <time>2023-07-20T07:06:59Z</time>
      </trkpt>
      <trkpt lat="48.37285" lon="2.7489">
        <ele>89.5</ele>
        <time>2023-07-20T07:07:00Z</time>
      </trkpt>
      <trkpt lat="48.37284" lon="2.74891">
        <ele>89.5</ele>
        <time>2023-07-20T07:07:01Z</time>
      </trkpt>
      <trkpt lat="48.37284" lon="2.74892">
        <ele>89.5</ele>
        <time>2023-07-20T07:07:02Z</time>
      </trkpt>
      <trkpt lat="48.37283" lon="2.74894">
        <ele>89.5</ele>
        <time>2023-07-20T07:07:03Z</time>
      </trkpt>
      <trkpt lat="48.37282" lon="2.74895">
        <ele>89.5</ele>
        <time>2023-07-20T07:07:04Z</time>
      </trkpt>
      <trkpt lat="48.37282" lon="2.74896">
        <ele>89.5</ele>
        <time>2023-07-20T07:07:05Z</time>
      </trkpt>
      <trkpt lat="48.37281" lon="2.74898">
        <ele>89.6</ele>
        <time>2023-07-20T07:07:06Z</time>
      </trkpt>
      <trkpt lat="48.37281" lon="2.74899">
        <ele>89.6</ele>
        <time>2023-07-20T07:07:07Z</time>
      </trkpt>
      <trkpt lat="48.3728" lon="2.749">
        <ele>89.6</ele>
        <time>2023-07-20T07:07:08Z</time>
      </trkpt>
      <trkpt lat="48.37279" lon="2.74902">
        <ele>89.6</ele>
        <time>2023-07-20T07:07:09Z</time>
      </trkpt>
      <trkpt lat="48.37279" lon="2.74903">
        <ele>89.6</ele>
        <time>2023-07-20T07:07:10Z</time>
      </trkpt>
      <trkpt lat="48.37278" lon="2.74904">
        <ele>89.6</ele>
        <time>2023-07-20T07:07:11Z</time>
      </trkpt>
      <trkpt lat="48.37277" lon="2.74906">
        <ele>89.7</ele>
        <time>2023-07-20T07:07:12Z</time>
      </trkpt>
      <trkpt lat="48.3728" lon="2.74901">
        <ele>89.7</ele>
        <time>2023-07-20T07:07:13Z</time>
      </trkpt>
      <trkpt lat="48.37282" lon="2.74899">
        <ele>89.8</ele>
        <time>2023-07-20T07:07:14Z</time>
      </trkpt>
      <trkpt lat="48.37286" lon="2.74892">
        <ele>89.9</ele>
        <time>2023-07-20T07:07:15Z</time>
      </trkpt>
      <trkpt lat="48.37288" lon="2.74885">
        <ele>90</ele>
        <time>2023-07-20T07:07:16Z</time>
      </trkpt>
      <trkpt lat="48.37289" lon="2.74886">
        <ele>90.1</ele>
        <time>2023-07-20T07:07:17Z</time>
      </trkpt>
      <trkpt lat="48.3729" lon="2.74889">
        <ele>90.1</ele>
        <time>2023-07-20T07:07:18Z</time>
      </trkpt>
      <trkpt lat="48.37291" lon="2.74886">
        <ele>90.2</ele>
        <time>2023-07-20T07:07:19Z</time>
      </trkpt>
      <trkpt lat="48.37293" lon="2.74882">
        <ele>90.2</ele>
        <time>2023-07-20T07:07:20Z</time>
      </trkpt>
      <trkpt lat="48.37295" lon="2.74877">
        <ele>90.3</ele>
        <time>2023-07-20T07:07:21Z</time>
      </trkpt>
      <trkpt lat="48.37294" lon="2.74874">
        <ele>90.3</ele>
        <time>2023-07-20T07:07:22Z</time>
      </trkpt>
      <trkpt lat="48.37293" lon="2.74873">
        <ele>90.4</ele>
        <time>2023-07-20T07:07:23Z</time>
      </trkpt>
      <trkpt lat="48.37293" lon="2.74872">
        <ele>90.4</ele>
        <time>2023-07-20T07:07:24Z</time>
      </trkpt>
      <trkpt lat="48.37292" lon="2.74868">
        <ele>90.4</ele>
        <time>2023-07-20T07:07:25Z</time>
      </trkpt>
      <trkpt lat="48.37292" lon="2.74866">
        <ele>90.5</ele>
        <time>2023-07-20T07:07:26Z</time>
      </trkpt>
      <trkpt lat="48.37291" lon="2.74864">
        <ele>90.5</ele>
        <time>2023-07-20T07:07:27Z</time>
      </trkpt>
      <trkpt lat="48.3729" lon="2.74861">
        <ele>90.5</ele>
        <time>2023-07-20T07:07:28Z</time>
      </trkpt>
      <trkpt lat="48.3729" lon="2.74859">
        <ele>90.5</ele>
        <time>2023-07-20T07:07:29Z</time>
      </trkpt>
      <trkpt lat="48.3729" lon="2.74857">
        <ele>90.6</ele>
        <time>2023-07-20T07:07:30Z</time>
      </trkpt>
      <trkpt lat="48.37289" lon="2.74855">
        <ele>90.6</ele>
        <time>2023-07-20T07:07:31Z</time>
      </trkpt>
      <trkpt lat="48.37289" lon="2.74852">
        <ele>90.6</ele>
        <time>2023-07-20T07:07:32Z</time>
      </trkpt>
      <trkpt lat="48.37288" lon="2.7485">
        <ele>90.7</ele>
        <time>2023-07-20T07:07:33Z</time>
      </trkpt>
      <trkpt lat="48.37288" lon="2.74848">
        <ele>90.7</ele>
        <time>2023-07-20T07:07:34Z</time>
      </trkpt>
      <trkpt lat="48.37288" lon="2.74847">
        <ele>90.7</ele>
        <time>2023-07-20T07:07:35Z</time>
      </trkpt>
      <trkpt lat="48.37287" lon="2.74846">
        <ele>90.7</ele>
        <time>2023-07-20T07:07:36Z</time>
      </trkpt>
      <trkpt lat="48.37287" lon="2.74845">
        <ele>90.7</ele>
        <time>2023-07-20T07:07:37Z</time>
      </trkpt>
      <trkpt lat="48.37286" lon="2.74843">
        <ele>90.7</ele>
        <time>2023-07-20T07:07:38Z</time>
      </trkpt>
      <trkpt lat="48.37286" lon="2.74841">
        <ele>90.8</ele>
        <time>2023-07-20T07:07:39Z</time>
      </trkpt>
      <trkpt lat="48.37287" lon="2.7484">
        <ele>90.8</ele>
        <time>2023-07-20T07:07:40Z</time>
      </trkpt>
      <trkpt lat="48.37287" lon="2.74837">
        <ele>90.8</ele>
        <time>2023-07-20T07:07:41Z</time>
      </trkpt>
      <trkpt lat="48.37287" lon="2.74836">
        <ele>90.8</ele>
        <time>2023-07-20T07:07:42Z</time>
      </trkpt>
      <trkpt lat="48.37287" lon="2.74835">
        <ele>90.8</ele>
        <time>2023-07-20T07:07:43Z</time>
      </trkpt>
      <trkpt lat="48.37287" lon="2.74833">
        <ele>90.8</ele>
        <time>2023-07-20T07:07:44Z</time>
      </trkpt>
      <trkpt lat="48.37287" lon="2.74831">
        <ele>90.8</ele>
        <time>2023-07-20T07:07:45Z</time>
      </trkpt>
      <trkpt lat="48.37287" lon="2.74829">
        <ele>90.9</ele>
        <time>2023-07-20T07:07:46Z</time>
      </trkpt>
      <trkpt lat="48.37287" lon="2.74828">
        <ele>90.9</ele>
        <time>2023-07-20T07:07:47Z</time>
      </trkpt>
      <trkpt lat="48.37287" lon="2.74827">
        <ele>90.9</ele>
        <time>2023-07-20T07:07:48Z</time>
      </trkpt>
      <trkpt lat="48.37287" lon="2.74825">
        <ele>90.9</ele>
        <time>2023-07-20T07:07:49Z</time>
      </trkpt>
      <trkpt lat="48.37288" lon="2.74821">
        <ele>90.9</ele>
        <time>2023-07-20T07:07:50Z</time>
      </trkpt>
      <trkpt lat="48.37288" lon="2.7482">
        <ele>90.9</ele>
        <time>2023-07-20T07:07:51Z</time>
      </trkpt>
      <trkpt lat="48.37289" lon="2.74818">
        <ele>90.9</ele>
        <time>2023-07-20T07:07:52Z</time>
      </trkpt>
      <trkpt lat="48.37289" lon="2.74817">
        <ele>91</ele>
        <time>2023-07-20T07:07:53Z</time>
      </trkpt>
      <trkpt lat="48.37289" lon="2.74815">
        <ele>91</ele>
        <time>2023-07-20T07:07:54Z</time>
      </trkpt>
      <trkpt lat="48.37289" lon="2.74813">
        <ele>91</ele>
        <time>2023-07-20T07:07:55Z</time>
      </trkpt>
      <trkpt lat="48.37289" lon="2.74813">
        <ele>91</ele>
        <time>2023-07-20T07:07:56Z</time>
      </trkpt>
      <trkpt lat="48.37289" lon="2.74812">
        <ele>91</ele>
        <time>2023-07-20T07:07:57Z</time>
      </trkpt>
      <trkpt lat="48.3729" lon="2.7481">
        <ele>91</ele>
        <time>2023-07-20T07:07:58Z</time>
      </trkpt>
      <trkpt lat="48.3729" lon="2.74808">
        <ele>91</ele>
        <time>2023-07-20T07:07:59Z</time>
      </trkpt>
      <trkpt lat="48.3729" lon="2.74806">
        <ele>91</ele>
        <time>2023-07-20T07:08:00Z</time>
      </trkpt>
      <trkpt lat="48.3729" lon="2.74805">
        <ele>91.1</ele>
        <time>2023-07-20T07:08:01Z</time>
      </trkpt>
      <trkpt lat="48.37291" lon="2.74804">
        <ele>91.1</ele>
        <time>2023-07-20T07:08:02Z</time>
      </trkpt>
      <trkpt lat="48.3729" lon="2.74803">
        <ele>91.1</ele>
        <time>2023-07-20T07:08:03Z</time>
      </trkpt>
      <trkpt lat="48.3729" lon="2.74803">
        <ele>91.1</ele>
        <time>2023-07-20T07:08:04Z</time>
      </trkpt>
      <trkpt lat="48.37289" lon="2.74802">
        <ele>91.1</ele>
        <time>2023-07-20T07:08:05Z</time>
      </trkpt>
      <trkpt lat="48.37289" lon="2.74801">
        <ele>91.1</ele>
        <time>2023-07-20T07:08:06Z</time>
      </trkpt>
      <trkpt lat="48.37289" lon="2.748">
        <ele>91.1</ele>
        <time>2023-07-20T07:08:07Z</time>
      </trkpt>
      <trkpt lat="48.37289" lon="2.74798">
        <ele>91.1</ele>
        <time>2023-07-20T07:08:08Z</time>
      </trkpt>
      <trkpt lat="48.37289" lon="2.74796">
        <ele>91.1</ele>
        <time>2023-07-20T07:08:09Z</time>
      </trkpt>
      <trkpt lat="48.37289" lon="2.74794">
        <ele>91.2</ele>
        <time>2023-07-20T07:08:10Z</time>
      </trkpt>
      <trkpt lat="48.37289" lon="2.74792">
        <ele>91.2</ele>
        <time>2023-07-20T07:08:11Z</time>
      </trkpt>
      <trkpt lat="48.37289" lon="2.74791">
        <ele>91.2</ele>
        <time>2023-07-20T07:08:12Z</time>
      </trkpt>
      <trkpt lat="48.3729" lon="2.74789">
        <ele>91.2</ele>
        <time>2023-07-20T07:08:13Z</time>
      </trkpt>
      <trkpt lat="48.3729" lon="2.74787">
        <ele>91.2</ele>
        <time>2023-07-20T07:08:14Z</time>
      </trkpt>
      <trkpt lat="48.3729" lon="2.74786">
        <ele>91.2</ele>
        <time>2023-07-20T07:08:15Z</time>
      </trkpt>
      <trkpt lat="48.3729" lon="2.74784">
        <ele>91.3</ele>
        <time>2023-07-20T07:08:16Z</time>
      </trkpt>
      <trkpt lat="48.37289" lon="2.74783">
        <ele>91.3</ele>
        <time>2023-07-20T07:08:17Z</time>
      </trkpt>
      <trkpt lat="48.37289" lon="2.74782">
        <ele>91.3</ele>
        <time>2023-07-20T07:08:18Z</time>
      </trkpt>
      <trkpt lat="48.37289" lon="2.7478">
        <ele>91.3</ele>
        <time>2023-07-20T07:08:19Z</time>
      </trkpt>
      <trkpt lat="48.37288" lon="2.74778">
        <ele>91.3</ele>
        <time>2023-07-20T07:08:20Z</time>
      </trkpt>
      <trkpt lat="48.37287" lon="2.74777">
        <ele>91.3</ele>
        <time>2023-07-20T07:08:21Z</time>
      </trkpt>
      <trkpt lat="48.37287" lon="2.74776">
        <ele>91.3</ele>
        <time>2023-07-20T07:08:22Z</time>
      </trkpt>
      <trkpt lat="48.37287" lon="2.74774">
        <ele>91.4</ele>
        <time>2023-07-20T07:08:23Z</time>
      </trkpt>
      <trkpt lat="48.37286" lon="2.74773">
        <ele>91.4</ele>
        <time>2023-07-20T07:08:24Z</time>
      </trkpt>
      <trkpt lat="48.37286" lon="2.74771">
        <ele>91.4</ele>
        <time>2023-07-20T07:08:25Z</time>
      </trkpt>
      <trkpt lat="48.37287" lon="2.74771">
        <ele>91.4</ele>
        <time>2023-07-20T07:08:26Z</time>
      </trkpt>
      <trkpt lat="48.37287" lon="2.74769">
        <ele>91.4</ele>
        <time>2023-07-20T07:08:27Z</time>
      </trkpt>
      <trkpt lat="48.37287" lon="2.74767">
        <ele>91.4</ele>
        <time>2023-07-20T07:08:28Z</time>
      </trkpt>
      <trkpt lat="48.37287" lon="2.74765">
        <ele>91.5</ele>
        <time>2023-07-20T07:08:29Z</time>
      </trkpt>
      <trkpt lat="48.37287" lon="2.74764">
        <ele>91.5</ele>
        <time>2023-07-20T07:08:30Z</time>
      </trkpt>
      <trkpt lat="48.37286" lon="2.74764">
        <ele>91.5</ele>
        <time>2023-07-20T07:08:31Z</time>
      </trkpt>
      <trkpt lat="48.37286" lon="2.74763">
        <ele>91.5</ele>
        <time>2023-07-20T07:08:32Z</time>
      </trkpt>
      <trkpt lat="48.37286" lon="2.74761">
        <ele>91.5</ele>
        <time>2023-07-20T07:08:33Z</time>
      </trkpt>
      <trkpt lat="48.37286" lon="2.7476">
        <ele>91.5</ele>
        <time>2023-07-20T07:08:34Z</time>
      </trkpt>
      <trkpt lat="48.37286" lon="2.74759">
        <ele>91.5</ele>
        <time>2023-07-20T07:08:35Z</time>
      </trkpt>
      <trkpt lat="48.37287" lon="2.74758">
        <ele>91.6</ele>
        <time>2023-07-20T07:08:36Z</time>
      </trkpt>
      <trkpt lat="48.37286" lon="2.74756">
        <ele>91.6</ele>
        <time>2023-07-20T07:08:37Z</time>
      </trkpt>
      <trkpt lat="48.37286" lon="2.74755">
        <ele>91.6</ele>
        <time>2023-07-20T07:08:38Z</time>
      </trkpt>
      <trkpt lat="48.37286" lon="2.74754">
        <ele>91.6</ele>
        <time>2023-07-20T07:08:39Z</time>
      </trkpt>
      <trkpt lat="48.37286" lon="2.74752">
        <ele>91.6</ele>
        <time>2023-07-20T07:08:40Z</time>
      </trkpt>
      <trkpt lat="48.37286" lon="2.74751">
        <ele>91.6</ele>
        <time>2023-07-20T07:08:41Z</time>
      </trkpt>
      <trkpt lat="48.37286" lon="2.7475">
        <ele>91.7</ele>
        <time>2023-07-20T07:08:42Z</time>
      </trkpt>
      <trkpt lat="48.37287" lon="2.74748">
        <ele>91.7</ele>
        <time>2023-07-20T07:08:43Z</time>
      </trkpt>
      <trkpt lat="48.37287" lon="2.74747">
        <ele>91.7</ele>
        <time>2023-07-20T07:08:44Z</time>
      </trkpt>
      <trkpt lat="48.37287" lon="2.74746">
        <ele>91.7</ele>
        <time>2023-07-20T07:08:45Z</time>
      </trkpt>
      <trkpt lat="48.37287" lon="2.74744">
        <ele>91.7</ele>
        <time>2023-07-20T07:08:46Z</time>
      </trkpt>
      <trkpt lat="48.37287" lon="2.74742">
        <ele>91.8</ele>
        <time>2023-07-20T07:08:47Z</time>
      </trkpt>
      <trkpt lat="48.37287" lon="2.74741">
        <ele>91.8</ele>
        <time>2023-07-20T07:08:48Z</time>
      </trkpt>
      <trkpt lat="48.37287" lon="2.74738">
        <ele>91.8</ele>
        <time>2023-07-20T07:08:49Z</time>
      </trkpt>
      <trkpt lat="48.37287" lon="2.74736">
        <ele>91.8</ele>
        <time>2023-07-20T07:08:50Z</time>
      </trkpt>
      <trkpt lat="48.37286" lon="2.74735">
        <ele>91.8</ele>
        <time>2023-07-20T07:08:51Z</time>
      </trkpt>
      <trkpt lat="48.37287" lon="2.74735">
        <ele>91.9</ele>
        <time>2023-07-20T07:08:52Z</time>
      </trkpt>
      <trkpt lat="48.37287" lon="2.74733">
        <ele>91.9</ele>
        <time>2023-07-20T07:08:53Z</time>
      </trkpt>
      <trkpt lat="48.37287" lon="2.7473">
        <ele>91.9</ele>
        <time>2023-07-20T07:08:54Z</time>
      </trkpt>
      <trkpt lat="48.37287" lon="2.74729">
        <ele>91.9</ele>
        <time>2023-07-20T07:08:55Z</time>
      </trkpt>
      <trkpt lat="48.37287" lon="2.74727">
        <ele>92</ele>
        <time>2023-07-20T07:08:56Z</time>
      </trkpt>
      <trkpt lat="48.37287" lon="2.74726">
        <ele>92</ele>
        <time>2023-07-20T07:08:57Z</time>
      </trkpt>
      <trkpt lat="48.37288" lon="2.74725">
        <ele>92</ele>
        <time>2023-07-20T07:08:58Z</time>
      </trkpt>
      <trkpt lat="48.37288" lon="2.74723">
        <ele>92</ele>
        <time>2023-07-20T07:08:59Z</time>
      </trkpt>
      <trkpt lat="48.37288" lon="2.74722">
        <ele>92</ele>
        <time>2023-07-20T07:09:00Z</time>
      </trkpt>
      <trkpt lat="48.37289" lon="2.74721">
        <ele>92.1</ele>
        <time>2023-07-20T07:09:01Z</time>
      </trkpt>
      <trkpt lat="48.37289" lon="2.7472">
        <ele>92.1</ele>
        <time>2023-07-20T07:09:02Z</time>
      </trkpt>
      <trkpt lat="48.37289" lon="2.74719">
        <ele>92.1</ele>
        <time>2023-07-20T07:09:03Z</time>
      </trkpt>
      <trkpt lat="48.37289" lon="2.74716">
        <ele>92.1</ele>
        <time>2023-07-20T07:09:04Z</time>
      </trkpt>
      <trkpt lat="48.37289" lon="2.74715">
        <ele>92.2</ele>
        <time>2023-07-20T07:09:05Z</time>
      </trkpt>
      <trkpt lat="48.37289" lon="2.74713">
        <ele>92.2</ele>
        <time>2023-07-20T07:09:06Z</time>
      </trkpt>
      <trkpt lat="48.37289" lon="2.74711">
        <ele>92.2</ele>
        <time>2023-07-20T07:09:07Z</time>
      </trkpt>
      <trkpt lat="48.37288" lon="2.74709">
        <ele>92.2</ele>
        <time>2023-07-20T07:09:08Z</time>
      </trkpt>
      <trkpt lat="48.37288" lon="2.74708">
        <ele>92.3</ele>
        <time>2023-07-20T07:09:09Z</time>
      </trkpt>
      <trkpt lat="48.37288" lon="2.74707">
        <ele>92.3</ele>
        <time>2023-07-20T07:09:10Z</time>
      </trkpt>
      <trkpt lat="48.37289" lon="2.74705">
        <ele>92.3</ele>
        <time>2023-07-20T07:09:11Z</time>
      </trkpt>
      <trkpt lat="48.37289" lon="2.74704">
        <ele>92.3</ele>
        <time>2023-07-20T07:09:12Z</time>
      </trkpt>
      <trkpt lat="48.37289" lon="2.74703">
        <ele>92.3</ele>
        <time>2023-07-20T07:09:13Z</time>
      </trkpt>
      <trkpt lat="48.37289" lon="2.74703">
        <ele>92.4</ele>
        <time>2023-07-20T07:09:14Z</time>
      </trkpt>
      <trkpt lat="48.37289" lon="2.747">
        <ele>92.4</ele>
        <time>2023-07-20T07:09:15Z</time>
      </trkpt>
      <trkpt lat="48.3729" lon="2.74699">
        <ele>92.4</ele>
        <time>2023-07-20T07:09:16Z</time>
      </trkpt>
      <trkpt lat="48.3729" lon="2.74698">
        <ele>92.4</ele>
        <time>2023-07-20T07:09:17Z</time>
      </trkpt>
      <trkpt lat="48.3729" lon="2.74697">
        <ele>92.5</ele>
        <time>2023-07-20T07:09:18Z</time>
      </trkpt>
      <trkpt lat="48.3729" lon="2.74696">
        <ele>92.5</ele>
        <time>2023-07-20T07:09:19Z</time>
      </trkpt>
      <trkpt lat="48.3729" lon="2.74694">
        <ele>92.5</ele>
        <time>2023-07-20T07:09:20Z</time>
      </trkpt>
      <trkpt lat="48.3729" lon="2.74693">
        <ele>92.5</ele>
        <time>2023-07-20T07:09:21Z</time>
      </trkpt>
      <trkpt lat="48.37289" lon="2.74691">
        <ele>92.6</ele>
        <time>2023-07-20T07:09:22Z</time>
      </trkpt>
      <trkpt lat="48.37289" lon="2.7469">
        <ele>92.6</ele>
        <time>2023-07-20T07:09:23Z</time>
      </trkpt>
      <trkpt lat="48.37289" lon="2.74688">
        <ele>92.6</ele>
        <time>2023-07-20T07:09:24Z</time>
      </trkpt>
      <trkpt lat="48.37289" lon="2.74686">
        <ele>92.7</ele>
        <time>2023-07-20T07:09:25Z</time>
      </trkpt>
      <trkpt lat="48.37289" lon="2.74685">
        <ele>92.7</ele>
        <time>2023-07-20T07:09:26Z</time>
      </trkpt>
      <trkpt lat="48.37289" lon="2.74684">
        <ele>92.7</ele>
        <time>2023-07-20T07:09:27Z</time>
      </trkpt>
      <trkpt lat="48.3729" lon="2.74682">
        <ele>92.8</ele>
        <time>2023-07-20T07:09:28Z</time>
      </trkpt>
      <trkpt lat="48.3729" lon="2.74681">
        <ele>92.8</ele>
        <time>2023-07-20T07:09:29Z</time>
      </trkpt>
      <trkpt lat="48.37291" lon="2.7468">
        <ele>92.8</ele>
        <time>2023-07-20T07:09:30Z</time>
      </trkpt>
      <trkpt lat="48.37291" lon="2.7468">
        <ele>92.8</ele>
        <time>2023-07-20T07:09:31Z</time>
      </trkpt>
      <trkpt lat="48.37291" lon="2.74678">
        <ele>92.9</ele>
        <time>2023-07-20T07:09:32Z</time>
      </trkpt>
      <trkpt lat="48.37291" lon="2.74675">
        <ele>92.9</ele>
        <time>2023-07-20T07:09:33Z</time>
      </trkpt>
      <trkpt lat="48.37291" lon="2.74674">
        <ele>92.9</ele>
        <time>2023-07-20T07:09:34Z</time>
      </trkpt>
      <trkpt lat="48.37291" lon="2.74673">
        <ele>92.9</ele>
        <time>2023-07-20T07:09:35Z</time>
      </trkpt>
      <trkpt lat="48.37291" lon="2.74671">
        <ele>92.9</ele>
        <time>2023-07-20T07:09:36Z</time>
      </trkpt>
      <trkpt lat="48.37291" lon="2.74669">
        <ele>92.9</ele>
        <time>2023-07-20T07:09:37Z</time>
      </trkpt>
      <trkpt lat="48.37292" lon="2.74668">
        <ele>92.9</ele>
        <time>2023-07-20T07:09:38Z</time>
      </trkpt>
      <trkpt lat="48.37292" lon="2.74666">
        <ele>92.9</ele>
        <time>2023-07-20T07:09:39Z</time>
      </trkpt>
      <trkpt lat="48.37292" lon="2.74664">
        <ele>92.9</ele>
        <time>2023-07-20T07:09:40Z</time>
      </trkpt>
      <trkpt lat="48.37292" lon="2.74663">
        <ele>92.9</ele>
        <time>2023-07-20T07:09:41Z</time>
      </trkpt>
      <trkpt lat="48.37292" lon="2.7466">
        <ele>92.9</ele>
        <time>2023-07-20T07:09:42Z</time>
      </trkpt>
      <trkpt lat="48.37292" lon="2.74659">
        <ele>92.9</ele>
        <time>2023-07-20T07:09:43Z</time>
      </trkpt>
      <trkpt lat="48.37292" lon="2.74658">
        <ele>92.8</ele>
        <time>2023-07-20T07:09:44Z</time>
      </trkpt>
      <trkpt lat="48.37292" lon="2.74656">
        <ele>92.8</ele>
        <time>2023-07-20T07:09:45Z</time>
      </trkpt>
      <trkpt lat="48.37292" lon="2.74654">
        <ele>92.8</ele>
        <time>2023-07-20T07:09:46Z</time>
      </trkpt>
      <trkpt lat="48.37292" lon="2.74652">
        <ele>92.8</ele>
        <time>2023-07-20T07:09:47Z</time>
      </trkpt>
      <trkpt lat="48.37292" lon="2.74651">
        <ele>92.8</ele>
        <time>2023-07-20T07:09:48Z</time>
      </trkpt>
      <trkpt lat="48.37292" lon="2.7465">
        <ele>92.8</ele>
        <time>2023-07-20T07:09:49Z</time>
      </trkpt>
      <trkpt lat="48.37291" lon="2.7465">
        <ele>92.8</ele>
        <time>2023-07-20T07:09:50Z</time>
      </trkpt>
      <trkpt lat="48.37292" lon="2.74649">
        <ele>92.8</ele>
        <time>2023-07-20T07:09:51Z</time>
      </trkpt>
      <trkpt lat="48.37292" lon="2.74648">
        <ele>92.8</ele>
        <time>2023-07-20T07:09:52Z</time>
      </trkpt>
      <trkpt lat="48.37292" lon="2.74646">
        <ele>92.8</ele>
        <time>2023-07-20T07:09:53Z</time>
      </trkpt>
      <trkpt lat="48.37292" lon="2.74644">
        <ele>92.8</ele>
        <time>2023-07-20T07:09:54Z</time>
      </trkpt>
      <trkpt lat="48.37292" lon="2.74643">
        <ele>92.8</ele>
        <time>2023-07-20T07:09:55Z</time>
      </trkpt>
      <trkpt lat="48.37292" lon="2.74641">
        <ele>92.8</ele>
        <time>2023-07-20T07:09:56Z</time>
      </trkpt>
      <trkpt lat="48.37293" lon="2.7464">
        <ele>92.8</ele>
        <time>2023-07-20T07:09:57Z</time>
      </trkpt>
      <trkpt lat="48.37293" lon="2.74639">
        <ele>92.8</ele>
        <time>2023-07-20T07:09:58Z</time>
      </trkpt>
      <trkpt lat="48.37293" lon="2.74638">
        <ele>92.8</ele>
        <time>2023-07-20T07:09:59Z</time>
      </trkpt>
      <trkpt lat="48.37293" lon="2.74637">
        <ele>92.8</ele>
        <time>2023-07-20T07:10:00Z</time>
      </trkpt>
      <trkpt lat="48.37294" lon="2.74636">
        <ele>92.8</ele>
        <time>2023-07-20T07:10:01Z</time>
      </trkpt>
      <trkpt lat="48.37294" lon="2.74635">
        <ele>92.8</ele>
        <time>2023-07-20T07:10:02Z</time>
      </trkpt>
      <trkpt lat="48.37295" lon="2.74635">
        <ele>92.8</ele>
        <time>2023-07-20T07:10:03Z</time>
      </trkpt>
      <trkpt lat="48.37295" lon="2.74633">
        <ele>92.8</ele>
        <time>2023-07-20T07:10:04Z</time>
      </trkpt>
      <trkpt lat="48.37295" lon="2.74632">
        <ele>92.8</ele>
        <time>2023-07-20T07:10:05Z</time>
      </trkpt>
      <trkpt lat="48.37295" lon="2.74632">
        <ele>92.8</ele>
        <time>2023-07-20T07:10:06Z</time>
      </trkpt>
      <trkpt lat="48.37295" lon="2.74631">
        <ele>92.8</ele>
        <time>2023-07-20T07:10:07Z</time>
      </trkpt>
      <trkpt lat="48.37295" lon="2.7463">
        <ele>92.8</ele>
        <time>2023-07-20T07:10:08Z</time>
      </trkpt>
      <trkpt lat="48.37295" lon="2.74628">
        <ele>92.8</ele>
        <time>2023-07-20T07:10:09Z</time>
      </trkpt>
      <trkpt lat="48.37295" lon="2.74626">
        <ele>92.7</ele>
        <time>2023-07-20T07:10:10Z</time>
      </trkpt>
      <trkpt lat="48.37296" lon="2.74625">
        <ele>92.7</ele>
        <time>2023-07-20T07:10:11Z</time>
      </trkpt>
      <trkpt lat="48.37296" lon="2.74623">
        <ele>92.7</ele>
        <time>2023-07-20T07:10:12Z</time>
      </trkpt>
      <trkpt lat="48.37296" lon="2.7462">
        <ele>92.7</ele>
        <time>2023-07-20T07:10:13Z</time>
      </trkpt>
      <trkpt lat="48.37297" lon="2.74619">
        <ele>92.7</ele>
        <time>2023-07-20T07:10:14Z</time>
      </trkpt>
      <trkpt lat="48.37297" lon="2.74617">
        <ele>92.7</ele>
        <time>2023-07-20T07:10:15Z</time>
      </trkpt>
      <trkpt lat="48.37297" lon="2.74615">
        <ele>92.7</ele>
        <time>2023-07-20T07:10:16Z</time>
      </trkpt>
      <trkpt lat="48.37297" lon="2.74613">
        <ele>92.7</ele>
        <time>2023-07-20T07:10:17Z</time>
      </trkpt>
      <trkpt lat="48.37297" lon="2.74612">
        <ele>92.7</ele>
        <time>2023-07-20T07:10:18Z</time>
      </trkpt>
      <trkpt lat="48.37297" lon="2.7461">
        <ele>92.7</ele>
        <time>2023-07-20T07:10:19Z</time>
      </trkpt>
      <trkpt lat="48.37297" lon="2.74608">
        <ele>92.7</ele>
        <time>2023-07-20T07:10:20Z</time>
      </trkpt>
      <trkpt lat="48.37296" lon="2.74607">
        <ele>92.6</ele>
        <time>2023-07-20T07:10:21Z</time>
      </trkpt>
      <trkpt lat="48.37296" lon="2.74606">
        <ele>92.6</ele>
        <time>2023-07-20T07:10:22Z</time>
      </trkpt>
      <trkpt lat="48.37296" lon="2.74605">
        <ele>92.6</ele>
        <time>2023-07-20T07:10:23Z</time>
      </trkpt>
      <trkpt lat="48.37296" lon="2.74604">
        <ele>92.6</ele>
        <time>2023-07-20T07:10:24Z</time>
      </trkpt>
      <trkpt lat="48.37296" lon="2.74603">
        <ele>92.6</ele>
        <time>2023-07-20T07:10:25Z</time>
      </trkpt>
      <trkpt lat="48.37296" lon="2.74601">
        <ele>92.6</ele>
        <time>2023-07-20T07:10:26Z</time>
      </trkpt>
      <trkpt lat="48.37297" lon="2.746">
        <ele>92.6</ele>
        <time>2023-07-20T07:10:27Z</time>
      </trkpt>
      <trkpt lat="48.37297" lon="2.74599">
        <ele>92.6</ele>
        <time>2023-07-20T07:10:28Z</time>
      </trkpt>
      <trkpt lat="48.37297" lon="2.74597">
        <ele>92.6</ele>
        <time>2023-07-20T07:10:29Z</time>
      </trkpt>
      <trkpt lat="48.37297" lon="2.74595">
        <ele>92.5</ele>
        <time>2023-07-20T07:10:30Z</time>
      </trkpt>
      <trkpt lat="48.37297" lon="2.74594">
        <ele>92.5</ele>
        <time>2023-07-20T07:10:31Z</time>
      </trkpt>
      <trkpt lat="48.37297" lon="2.74592">
        <ele>92.5</ele>
        <time>2023-07-20T07:10:32Z</time>
      </trkpt>
      <trkpt lat="48.37297" lon="2.7459">
        <ele>92.5</ele>
        <time>2023-07-20T07:10:33Z</time>
      </trkpt>
      <trkpt lat="48.37297" lon="2.74589">
        <ele>92.5</ele>
        <time>2023-07-20T07:10:34Z</time>
      </trkpt>
      <trkpt lat="48.37297" lon="2.74587">
        <ele>92.5</ele>
        <time>2023-07-20T07:10:35Z</time>
      </trkpt>
      <trkpt lat="48.37297" lon="2.74585">
        <ele>92.5</ele>
        <time>2023-07-20T07:10:36Z</time>
      </trkpt>
      <trkpt lat="48.37297" lon="2.74583">
        <ele>92.5</ele>
        <time>2023-07-20T07:10:37Z</time>
      </trkpt>
      <trkpt lat="48.37298" lon="2.74581">
        <ele>92.4</ele>
        <time>2023-07-20T07:10:38Z</time>
      </trkpt>
      <trkpt lat="48.37298" lon="2.7458">
        <ele>92.4</ele>
        <time>2023-07-20T07:10:39Z</time>
      </trkpt>
      <trkpt lat="48.37298" lon="2.74578">
        <ele>92.4</ele>
        <time>2023-07-20T07:10:40Z</time>
      </trkpt>
      <trkpt lat="48.37297" lon="2.74576">
        <ele>92.4</ele>
        <time>2023-07-20T07:10:41Z</time>
      </trkpt>
      <trkpt lat="48.37297" lon="2.74573">
        <ele>92.4</ele>
        <time>2023-07-20T07:10:42Z</time>
      </trkpt>
      <trkpt lat="48.37297" lon="2.74571">
        <ele>92.4</ele>
        <time>2023-07-20T07:10:43Z</time>
      </trkpt>
      <trkpt lat="48.37298" lon="2.7457">
        <ele>92.4</ele>
        <time>2023-07-20T07:10:44Z</time>
      </trkpt>
      <trkpt lat="48.37297" lon="2.74569">
        <ele>92.4</ele>
        <time>2023-07-20T07:10:45Z</time>
      </trkpt>
      <trkpt lat="48.37297" lon="2.74567">
        <ele>92.4</ele>
        <time>2023-07-20T07:10:46Z</time>
      </trkpt>
      <trkpt lat="48.37296" lon="2.74564">
        <ele>92.3</ele>
        <time>2023-07-20T07:10:47Z</time>
      </trkpt>
      <trkpt lat="48.37296" lon="2.74562">
        <ele>92.3</ele>
        <time>2023-07-20T07:10:48Z</time>
      </trkpt>
      <trkpt lat="48.37296" lon="2.74558">
        <ele>92.3</ele>
        <time>2023-07-20T07:10:49Z</time>
      </trkpt>
      <trkpt lat="48.37296" lon="2.74556">
        <ele>92.3</ele>
        <time>2023-07-20T07:10:50Z</time>
      </trkpt>
      <trkpt lat="48.37296" lon="2.74554">
        <ele>92.3</ele>
        <time>2023-07-20T07:10:51Z</time>
      </trkpt>
      <trkpt lat="48.37296" lon="2.74553">
        <ele>92.3</ele>
        <time>2023-07-20T07:10:52Z</time>
      </trkpt>
      <trkpt lat="48.37296" lon="2.74551">
        <ele>92.3</ele>
        <time>2023-07-20T07:10:53Z</time>
      </trkpt>
      <trkpt lat="48.37297" lon="2.7455">
        <ele>92.3</ele>
        <time>2023-07-20T07:10:54Z</time>
      </trkpt>
      <trkpt lat="48.37297" lon="2.74548">
        <ele>92.3</ele>
        <time>2023-07-20T07:10:55Z</time>
      </trkpt>
      <trkpt lat="48.37297" lon="2.74546">
        <ele>92.2</ele>
        <time>2023-07-20T07:10:56Z</time>
      </trkpt>
      <trkpt lat="48.37298" lon="2.74546">
        <ele>92.2</ele>
        <time>2023-07-20T07:10:57Z</time>
      </trkpt>
      <trkpt lat="48.37298" lon="2.74546">
        <ele>92.2</ele>
        <time>2023-07-20T07:10:58Z</time>
      </trkpt>
      <trkpt lat="48.37299" lon="2.74545">
        <ele>92.2</ele>
        <time>2023-07-20T07:10:59Z</time>
      </trkpt>
      <trkpt lat="48.37299" lon="2.74544">
        <ele>92.2</ele>
        <time>2023-07-20T07:11:00Z</time>
      </trkpt>
      <trkpt lat="48.37299" lon="2.74542">
        <ele>92.2</ele>
        <time>2023-07-20T07:11:01Z</time>
      </trkpt>
      <trkpt lat="48.37299" lon="2.7454">
        <ele>92.2</ele>
        <time>2023-07-20T07:11:02Z</time>
      </trkpt>
      <trkpt lat="48.37299" lon="2.74538">
        <ele>92.2</ele>
        <time>2023-07-20T07:11:03Z</time>
      </trkpt>
      <trkpt lat="48.373" lon="2.74537">
        <ele>92.2</ele>
        <time>2023-07-20T07:11:04Z</time>
      </trkpt>
      <trkpt lat="48.37299" lon="2.74536">
        <ele>92.2</ele>
        <time>2023-07-20T07:11:05Z</time>
      </trkpt>
      <trkpt lat="48.37299" lon="2.74535">
        <ele>92.2</ele>
        <time>2023-07-20T07:11:06Z</time>
      </trkpt>
      <trkpt lat="48.37299" lon="2.74535">
        <ele>92.2</ele>
        <time>2023-07-20T07:11:07Z</time>
      </trkpt>
      <trkpt lat="48.37299" lon="2.74534">
        <ele>92.2</ele>
        <time>2023-07-20T07:11:08Z</time>
      </trkpt>
      <trkpt lat="48.37299" lon="2.74532">
        <ele>92.2</ele>
        <time>2023-07-20T07:11:09Z</time>
      </trkpt>
      <trkpt lat="48.37299" lon="2.74531">
        <ele>92.1</ele>
        <time>2023-07-20T07:11:10Z</time>
      </trkpt>
      <trkpt lat="48.37299" lon="2.7453">
        <ele>92.1</ele>
        <time>2023-07-20T07:11:11Z</time>
      </trkpt>
      <trkpt lat="48.37299" lon="2.74529">
        <ele>92.1</ele>
        <time>2023-07-20T07:11:12Z</time>
      </trkpt>
      <trkpt lat="48.37299" lon="2.74528">
        <ele>92.1</ele>
        <time>2023-07-20T07:11:13Z</time>
      </trkpt>
      <trkpt lat="48.373" lon="2.74526">
        <ele>92.1</ele>
        <time>2023-07-20T07:11:14Z</time>
      </trkpt>
      <trkpt lat="48.37301" lon="2.74524">
        <ele>92.1</ele>
        <time>2023-07-20T07:11:15Z</time>
      </trkpt>
      <trkpt lat="48.37301" lon="2.74521">
        <ele>92.1</ele>
        <time>2023-07-20T07:11:16Z</time>
      </trkpt>
      <trkpt lat="48.37301" lon="2.7452">
        <ele>92.1</ele>
        <time>2023-07-20T07:11:17Z</time>
      </trkpt>
      <trkpt lat="48.37301" lon="2.74518">
        <ele>92.1</ele>
        <time>2023-07-20T07:11:18Z</time>
      </trkpt>
      <trkpt lat="48.37302" lon="2.74516">
        <ele>92.1</ele>
        <time>2023-07-20T07:11:19Z</time>
      </trkpt>
      <trkpt lat="48.37302" lon="2.74514">
        <ele>92.1</ele>
        <time>2023-07-20T07:11:20Z</time>
      </trkpt>
      <trkpt lat="48.37302" lon="2.74512">
        <ele>92.1</ele>
        <time>2023-07-20T07:11:21Z</time>
      </trkpt>
      <trkpt lat="48.37302" lon="2.7451">
        <ele>92.1</ele>
        <time>2023-07-20T07:11:22Z</time>
      </trkpt>
      <trkpt lat="48.37302" lon="2.74509">
        <ele>92.1</ele>
        <time>2023-07-20T07:11:23Z</time>
      </trkpt>
      <trkpt lat="48.37303" lon="2.74508">
        <ele>92.1</ele>
        <time>2023-07-20T07:11:24Z</time>
      </trkpt>
      <trkpt lat="48.37303" lon="2.74506">
        <ele>92.1</ele>
        <time>2023-07-20T07:11:25Z</time>
      </trkpt>
      <trkpt lat="48.37303" lon="2.74504">
        <ele>92.1</ele>
        <time>2023-07-20T07:11:26Z</time>
      </trkpt>
      <trkpt lat="48.37303" lon="2.74502">
        <ele>92.1</ele>
        <time>2023-07-20T07:11:27Z</time>
      </trkpt>
      <trkpt lat="48.37303" lon="2.74499">
        <ele>92.1</ele>
        <time>2023-07-20T07:11:28Z</time>
      </trkpt>
      <trkpt lat="48.37303" lon="2.74498">
        <ele>92.1</ele>
        <time>2023-07-20T07:11:29Z</time>
      </trkpt>
      <trkpt lat="48.37303" lon="2.74496">
        <ele>92.1</ele>
        <time>2023-07-20T07:11:30Z</time>
      </trkpt>
      <trkpt lat="48.37302" lon="2.74495">
        <ele>92.2</ele>
        <time>2023-07-20T07:11:31Z</time>
      </trkpt>
      <trkpt lat="48.37302" lon="2.74494">
        <ele>92.2</ele>
        <time>2023-07-20T07:11:32Z</time>
      </trkpt>
      <trkpt lat="48.37302" lon="2.74492">
        <ele>92.2</ele>
        <time>2023-07-20T07:11:33Z</time>
      </trkpt>
      <trkpt lat="48.37302" lon="2.74492">
        <ele>92.2</ele>
        <time>2023-07-20T07:11:34Z</time>
      </trkpt>
      <trkpt lat="48.37302" lon="2.7449">
        <ele>92.2</ele>
        <time>2023-07-20T07:11:35Z</time>
      </trkpt>
      <trkpt lat="48.37301" lon="2.74488">
        <ele>92.2</ele>
        <time>2023-07-20T07:11:36Z</time>
      </trkpt>
      <trkpt lat="48.37301" lon="2.74487">
        <ele>92.2</ele>
        <time>2023-07-20T07:11:37Z</time>
      </trkpt>
      <trkpt lat="48.37301" lon="2.74486">
        <ele>92.2</ele>
        <time>2023-07-20T07:11:38Z</time>
      </trkpt>
      <trkpt lat="48.373" lon="2.74485">
        <ele>92.2</ele>
        <time>2023-07-20T07:11:39Z</time>
      </trkpt>
      <trkpt lat="48.373" lon="2.74485">
        <ele>92.2</ele>
        <time>2023-07-20T07:11:40Z</time>
      </trkpt>
      <trkpt lat="48.37301" lon="2.74483">
        <ele>92.2</ele>
        <time>2023-07-20T07:11:41Z</time>
      </trkpt>
      <trkpt lat="48.37301" lon="2.74482">
        <ele>92.2</ele>
        <time>2023-07-20T07:11:42Z</time>
      </trkpt>
      <trkpt lat="48.37301" lon="2.74481">
        <ele>92.2</ele>
        <time>2023-07-20T07:11:43Z</time>
      </trkpt>
      <trkpt lat="48.37301" lon="2.74478">
        <ele>92.2</ele>
        <time>2023-07-20T07:11:44Z</time>
      </trkpt>
      <trkpt lat="48.37302" lon="2.74476">
        <ele>92.2</ele>
        <time>2023-07-20T07:11:45Z</time>
      </trkpt>
      <trkpt lat="48.37302" lon="2.74473">
        <ele>92.2</ele>
        <time>2023-07-20T07:11:46Z</time>
      </trkpt>
      <trkpt lat="48.37302" lon="2.74471">
        <ele>92.2</ele>
        <time>2023-07-20T07:11:47Z</time>
      </trkpt>
      <trkpt lat="48.37302" lon="2.7447">
        <ele>92.2</ele>
        <time>2023-07-20T07:11:48Z</time>
      </trkpt>
      <trkpt lat="48.37303" lon="2.74469">
        <ele>92.2</ele>
        <time>2023-07-20T07:11:49Z</time>
      </trkpt>
      <trkpt lat="48.37303" lon="2.74467">
        <ele>92.2</ele>
        <time>2023-07-20T07:11:50Z</time>
      </trkpt>
      <trkpt lat="48.37304" lon="2.74466">
        <ele>92.2</ele>
        <time>2023-07-20T07:11:51Z</time>
      </trkpt>
      <trkpt lat="48.37303" lon="2.74464">
        <ele>92.2</ele>
        <time>2023-07-20T07:11:52Z</time>
      </trkpt>
      <trkpt lat="48.37303" lon="2.74463">
        <ele>92.2</ele>
        <time>2023-07-20T07:11:53Z</time>
      </trkpt>
      <trkpt lat="48.37303" lon="2.74461">
        <ele>92.2</ele>
        <time>2023-07-20T07:11:54Z</time>
      </trkpt>
      <trkpt lat="48.37303" lon="2.74459">
        <ele>92.2</ele>
        <time>2023-07-20T07:11:55Z</time>
      </trkpt>
      <trkpt lat="48.37304" lon="2.74457">
        <ele>92.2</ele>
        <time>2023-07-20T07:11:56Z</time>
      </trkpt>
      <trkpt lat="48.37304" lon="2.74456">
        <ele>92.2</ele>
        <time>2023-07-20T07:11:57Z</time>
      </trkpt>
      <trkpt lat="48.37305" lon="2.74454">
        <ele>92.2</ele>
        <time>2023-07-20T07:11:58Z</time>
      </trkpt>
      <trkpt lat="48.37306" lon="2.74453">
        <ele>92.2</ele>
        <time>2023-07-20T07:11:59Z</time>
      </trkpt>
      <trkpt lat="48.37306" lon="2.74449">
        <ele>92.2</ele>
        <time>2023-07-20T07:12:00Z</time>
      </trkpt>
      <trkpt lat="48.37306" lon="2.74448">
        <ele>92.2</ele>
        <time>2023-07-20T07:12:01Z</time>
      </trkpt>
      <trkpt lat="48.37306" lon="2.74447">
        <ele>92.2</ele>
        <time>2023-07-20T07:12:02Z</time>
      </trkpt>
      <trkpt lat="48.37307" lon="2.74446">
        <ele>92.2</ele>
        <time>2023-07-20T07:12:03Z</time>
      </trkpt>
      <trkpt lat="48.37307" lon="2.74445">
        <ele>92.2</ele>
        <time>2023-07-20T07:12:04Z</time>
      </trkpt>
      <trkpt lat="48.37307" lon="2.74444">
        <ele>92.2</ele>
        <time>2023-07-20T07:12:05Z</time>
      </trkpt>
      <trkpt lat="48.37307" lon="2.74443">
        <ele>92.2</ele>
        <time>2023-07-20T07:12:06Z</time>
      </trkpt>
      <trkpt lat="48.37308" lon="2.74442">
        <ele>92.2</ele>
        <time>2023-07-20T07:12:07Z</time>
      </trkpt>
      <trkpt lat="48.37308" lon="2.7444">
        <ele>92.2</ele>
        <time>2023-07-20T07:12:08Z</time>
      </trkpt>
      <trkpt lat="48.37307" lon="2.74439">
        <ele>92.2</ele>
        <time>2023-07-20T07:12:09Z</time>
      </trkpt>
      <trkpt lat="48.37307" lon="2.74437">
        <ele>92.2</ele>
        <time>2023-07-20T07:12:10Z</time>
      </trkpt>
      <trkpt lat="48.37308" lon="2.74436">
        <ele>92.2</ele>
        <time>2023-07-20T07:12:11Z</time>
      </trkpt>
      <trkpt lat="48.37308" lon="2.74435">
        <ele>92.2</ele>
        <time>2023-07-20T07:12:12Z</time>
      </trkpt>
      <trkpt lat="48.37308" lon="2.74434">
        <ele>92.2</ele>
        <time>2023-07-20T07:12:13Z</time>
      </trkpt>
      <trkpt lat="48.37308" lon="2.74432">
        <ele>92.2</ele>
        <time>2023-07-20T07:12:14Z</time>
      </trkpt>
      <trkpt lat="48.37308" lon="2.7443">
        <ele>92.2</ele>
        <time>2023-07-20T07:12:15Z</time>
      </trkpt>
      <trkpt lat="48.37308" lon="2.74428">
        <ele>92.2</ele>
        <time>2023-07-20T07:12:16Z</time>
      </trkpt>
      <trkpt lat="48.37308" lon="2.74428">
        <ele>92.2</ele>
        <time>2023-07-20T07:12:17Z</time>
      </trkpt>
      <trkpt lat="48.37308" lon="2.74427">
        <ele>92.2</ele>
        <time>2023-07-20T07:12:18Z</time>
      </trkpt>
      <trkpt lat="48.37308" lon="2.74425">
        <ele>92.2</ele>
        <time>2023-07-20T07:12:19Z</time>
      </trkpt>
      <trkpt lat="48.37309" lon="2.74423">
        <ele>92.2</ele>
        <time>2023-07-20T07:12:20Z</time>
      </trkpt>
      <trkpt lat="48.37309" lon="2.74422">
        <ele>92.2</ele>
        <time>2023-07-20T07:12:21Z</time>
      </trkpt>
      <trkpt lat="48.37309" lon="2.74421">
        <ele>92.2</ele>
        <time>2023-07-20T07:12:22Z</time>
      </trkpt>
      <trkpt lat="48.3731" lon="2.7442">
        <ele>92.2</ele>
        <time>2023-07-20T07:12:23Z</time>
      </trkpt>
      <trkpt lat="48.3731" lon="2.74418">
        <ele>92.2</ele>
        <time>2023-07-20T07:12:24Z</time>
      </trkpt>
      <trkpt lat="48.3731" lon="2.74418">
        <ele>92.2</ele>
        <time>2023-07-20T07:12:25Z</time>
      </trkpt>
      <trkpt lat="48.3731" lon="2.74417">
        <ele>92.2</ele>
        <time>2023-07-20T07:12:26Z</time>
      </trkpt>
      <trkpt lat="48.3731" lon="2.74417">
        <ele>92.2</ele>
        <time>2023-07-20T07:12:27Z</time>
      </trkpt>
      <trkpt lat="48.3731" lon="2.74416">
        <ele>92.2</ele>
        <time>2023-07-20T07:12:28Z</time>
      </trkpt>
      <trkpt lat="48.3731" lon="2.74414">
        <ele>92.2</ele>
        <time>2023-07-20T07:12:29Z</time>
      </trkpt>
      <trkpt lat="48.3731" lon="2.74413">
        <ele>92.2</ele>
        <time>2023-07-20T07:12:30Z</time>
      </trkpt>
      <trkpt lat="48.3731" lon="2.74411">
        <ele>92.2</ele>
        <time>2023-07-20T07:12:31Z</time>
      </trkpt>
      <trkpt lat="48.3731" lon="2.7441">
        <ele>92.2</ele>
        <time>2023-07-20T07:12:32Z</time>
      </trkpt>
      <trkpt lat="48.3731" lon="2.74409">
        <ele>92.2</ele>
        <time>2023-07-20T07:12:33Z</time>
      </trkpt>
      <trkpt lat="48.37311" lon="2.74408">
        <ele>92.2</ele>
        <time>2023-07-20T07:12:34Z</time>
      </trkpt>
      <trkpt lat="48.37311" lon="2.74407">
        <ele>92.2</ele>
        <time>2023-07-20T07:12:35Z</time>
      </trkpt>
      <trkpt lat="48.37311" lon="2.74406">
        <ele>92.2</ele>
        <time>2023-07-20T07:12:36Z</time>
      </trkpt>
      <trkpt lat="48.37311" lon="2.74403">
        <ele>92.2</ele>
        <time>2023-07-20T07:12:37Z</time>
      </trkpt>
      <trkpt lat="48.37311" lon="2.74401">
        <ele>92.2</ele>
        <time>2023-07-20T07:12:38Z</time>
      </trkpt>
      <trkpt lat="48.37311" lon="2.744">
        <ele>92.2</ele>
        <time>2023-07-20T07:12:39Z</time>
      </trkpt>
      <trkpt lat="48.3731" lon="2.74398">
        <ele>92.2</ele>
        <time>2023-07-20T07:12:40Z</time>
      </trkpt>
      <trkpt lat="48.3731" lon="2.74396">
        <ele>92.2</ele>
        <time>2023-07-20T07:12:41Z</time>
      </trkpt>
      <trkpt lat="48.3731" lon="2.74394">
        <ele>92.2</ele>
        <time>2023-07-20T07:12:42Z</time>
      </trkpt>
      <trkpt lat="48.37309" lon="2.74393">
        <ele>92.2</ele>
        <time>2023-07-20T07:12:43Z</time>
      </trkpt>
      <trkpt lat="48.37308" lon="2.74392">
        <ele>92.2</ele>
        <time>2023-07-20T07:12:44Z</time>
      </trkpt>
      <trkpt lat="48.37307" lon="2.74392">
        <ele>92.2</ele>
        <time>2023-07-20T07:12:45Z</time>
      </trkpt>
      <trkpt lat="48.37307" lon="2.74392">
        <ele>92.2</ele>
        <time>2023-07-20T07:12:46Z</time>
      </trkpt>
      <trkpt lat="48.37306" lon="2.74392">
        <ele>92.2</ele>
        <time>2023-07-20T07:12:47Z</time>
      </trkpt>
      <trkpt lat="48.37304" lon="2.74392">
        <ele>92.2</ele>
        <time>2023-07-20T07:12:48Z</time>
      </trkpt>
      <trkpt lat="48.37303" lon="2.74393">
        <ele>92.2</ele>
        <time>2023-07-20T07:12:49Z</time>
      </trkpt>
      <trkpt lat="48.37302" lon="2.74393">
        <ele>92.3</ele>
        <time>2023-07-20T07:12:50Z</time>
      </trkpt>
      <trkpt lat="48.373" lon="2.74392">
        <ele>92.3</ele>
        <time>2023-07-20T07:12:51Z</time>
      </trkpt>
      <trkpt lat="48.37298" lon="2.74392">
        <ele>92.4</ele>
        <time>2023-07-20T07:12:52Z</time>
      </trkpt>
      <trkpt lat="48.37296" lon="2.74392">
        <ele>92.4</ele>
        <time>2023-07-20T07:12:53Z</time>
      </trkpt>
      <trkpt lat="48.37295" lon="2.74392">
        <ele>92.4</ele>
        <time>2023-07-20T07:12:54Z</time>
      </trkpt>
      <trkpt lat="48.37294" lon="2.74392">
        <ele>92.4</ele>
        <time>2023-07-20T07:12:55Z</time>
      </trkpt>
      <trkpt lat="48.37293" lon="2.74392">
        <ele>92.5</ele>
        <time>2023-07-20T07:12:56Z</time>
      </trkpt>
      <trkpt lat="48.37291" lon="2.74393">
        <ele>92.5</ele>
        <time>2023-07-20T07:12:57Z</time>
      </trkpt>
      <trkpt lat="48.37289" lon="2.74394">
        <ele>92.5</ele>
        <time>2023-07-20T07:12:58Z</time>
      </trkpt>
      <trkpt lat="48.37288" lon="2.74395">
        <ele>92.5</ele>
        <time>2023-07-20T07:12:59Z</time>
      </trkpt>
      <trkpt lat="48.37288" lon="2.74395">
        <ele>92.5</ele>
        <time>2023-07-20T07:13:00Z</time>
      </trkpt>
      <trkpt lat="48.37287" lon="2.74396">
        <ele>92.6</ele>
        <time>2023-07-20T07:13:01Z</time>
      </trkpt>
      <trkpt lat="48.37286" lon="2.74396">
        <ele>92.6</ele>
        <time>2023-07-20T07:13:02Z</time>
      </trkpt>
      <trkpt lat="48.37286" lon="2.74396">
        <ele>92.6</ele>
        <time>2023-07-20T07:13:03Z</time>
      </trkpt>
      <trkpt lat="48.37285" lon="2.74396">
        <ele>92.6</ele>
        <time>2023-07-20T07:13:04Z</time>
      </trkpt>
      <trkpt lat="48.37284" lon="2.74396">
        <ele>92.6</ele>
        <time>2023-07-20T07:13:05Z</time>
      </trkpt>
      <trkpt lat="48.37283" lon="2.74397">
        <ele>92.7</ele>
        <time>2023-07-20T07:13:06Z</time>
      </trkpt>
      <trkpt lat="48.37282" lon="2.74397">
        <ele>92.7</ele>
        <time>2023-07-20T07:13:07Z</time>
      </trkpt>
      <trkpt lat="48.3728" lon="2.74398">
        <ele>92.7</ele>
        <time>2023-07-20T07:13:08Z</time>
      </trkpt>
      <trkpt lat="48.37279" lon="2.74397">
        <ele>92.7</ele>
        <time>2023-07-20T07:13:09Z</time>
      </trkpt>
      <trkpt lat="48.37278" lon="2.74397">
        <ele>92.8</ele>
        <time>2023-07-20T07:13:10Z</time>
      </trkpt>
      <trkpt lat="48.37276" lon="2.74396">
        <ele>92.8</ele>
        <time>2023-07-20T07:13:11Z</time>
      </trkpt>
      <trkpt lat="48.37275" lon="2.74396">
        <ele>92.8</ele>
        <time>2023-07-20T07:13:12Z</time>
      </trkpt>
      <trkpt lat="48.37274" lon="2.74397">
        <ele>92.8</ele>
        <time>2023-07-20T07:13:13Z</time>
      </trkpt>
      <trkpt lat="48.37271" lon="2.74398">
        <ele>92.9</ele>
        <time>2023-07-20T07:13:14Z</time>
      </trkpt>
      <trkpt lat="48.37271" lon="2.74398">
        <ele>92.9</ele>
        <time>2023-07-20T07:13:15Z</time>
      </trkpt>
      <trkpt lat="48.3727" lon="2.74399">
        <ele>92.9</ele>
        <time>2023-07-20T07:13:16Z</time>
      </trkpt>
      <trkpt lat="48.37268" lon="2.74399">
        <ele>93</ele>
        <time>2023-07-20T07:13:17Z</time>
      </trkpt>
      <trkpt lat="48.37267" lon="2.744">
        <ele>93</ele>
        <time>2023-07-20T07:13:18Z</time>
      </trkpt>
      <trkpt lat="48.37265" lon="2.74402">
        <ele>93</ele>
        <time>2023-07-20T07:13:19Z</time>
      </trkpt>
      <trkpt lat="48.37265" lon="2.74402">
        <ele>93.1</ele>
        <time>2023-07-20T07:13:20Z</time>
      </trkpt>
      <trkpt lat="48.37264" lon="2.74403">
        <ele>93.1</ele>
        <time>2023-07-20T07:13:21Z</time>
      </trkpt>
      <trkpt lat="48.37263" lon="2.74404">
        <ele>93.1</ele>
        <time>2023-07-20T07:13:22Z</time>
      </trkpt>
      <trkpt lat="48.37262" lon="2.74405">
        <ele>93.2</ele>
        <time>2023-07-20T07:13:23Z</time>
      </trkpt>
      <trkpt lat="48.3726" lon="2.74406">
        <ele>93.2</ele>
        <time>2023-07-20T07:13:24Z</time>
      </trkpt>
      <trkpt lat="48.37259" lon="2.74406">
        <ele>93.3</ele>
        <time>2023-07-20T07:13:25Z</time>
      </trkpt>
      <trkpt lat="48.37258" lon="2.74407">
        <ele>93.3</ele>
        <time>2023-07-20T07:13:26Z</time>
      </trkpt>
      <trkpt lat="48.37258" lon="2.74408">
        <ele>93.3</ele>
        <time>2023-07-20T07:13:27Z</time>
      </trkpt>
      <trkpt lat="48.37257" lon="2.74409">
        <ele>93.4</ele>
        <time>2023-07-20T07:13:28Z</time>
      </trkpt>
      <trkpt lat="48.37256" lon="2.7441">
        <ele>93.4</ele>
        <time>2023-07-20T07:13:29Z</time>
      </trkpt>
      <trkpt lat="48.37255" lon="2.74411">
        <ele>93.5</ele>
        <time>2023-07-20T07:13:30Z</time>
      </trkpt>
      <trkpt lat="48.37254" lon="2.74412">
        <ele>93.5</ele>
        <time>2023-07-20T07:13:31Z</time>
      </trkpt>
      <trkpt lat="48.37253" lon="2.74413">
        <ele>93.6</ele>
        <time>2023-07-20T07:13:32Z</time>
      </trkpt>
      <trkpt lat="48.37251" lon="2.74414">
        <ele>93.6</ele>
        <time>2023-07-20T07:13:33Z</time>
      </trkpt>
      <trkpt lat="48.37251" lon="2.74415">
        <ele>93.7</ele>
        <time>2023-07-20T07:13:34Z</time>
      </trkpt>
      <trkpt lat="48.37249" lon="2.74416">
        <ele>93.7</ele>
        <time>2023-07-20T07:13:35Z</time>
      </trkpt>
      <trkpt lat="48.37248" lon="2.74416">
        <ele>93.8</ele>
        <time>2023-07-20T07:13:36Z</time>
      </trkpt>
      <trkpt lat="48.37247" lon="2.74417">
        <ele>93.9</ele>
        <time>2023-07-20T07:13:37Z</time>
      </trkpt>
      <trkpt lat="48.37246" lon="2.74417">
        <ele>93.9</ele>
        <time>2023-07-20T07:13:38Z</time>
      </trkpt>
      <trkpt lat="48.37245" lon="2.74418">
        <ele>93.9</ele>
        <time>2023-07-20T07:13:39Z</time>
      </trkpt>
      <trkpt lat="48.37245" lon="2.74418">
        <ele>94</ele>
        <time>2023-07-20T07:13:40Z</time>
      </trkpt>
      <trkpt lat="48.37244" lon="2.74419">
        <ele>94</ele>
        <time>2023-07-20T07:13:41Z</time>
      </trkpt>
      <trkpt lat="48.37243" lon="2.7442">
        <ele>94.1</ele>
        <time>2023-07-20T07:13:42Z</time>
      </trkpt>
      <trkpt lat="48.37242" lon="2.7442">
        <ele>94.1</ele>
        <time>2023-07-20T07:13:43Z</time>
      </trkpt>
      <trkpt lat="48.37242" lon="2.74421">
        <ele>94.1</ele>
        <time>2023-07-20T07:13:44Z</time>
      </trkpt>
      <trkpt lat="48.37241" lon="2.74421">
        <ele>94.2</ele>
        <time>2023-07-20T07:13:45Z</time>
      </trkpt>
      <trkpt lat="48.37241" lon="2.74423">
        <ele>94.2</ele>
        <time>2023-07-20T07:13:46Z</time>
      </trkpt>
      <trkpt lat="48.37241" lon="2.74424">
        <ele>94.2</ele>
        <time>2023-07-20T07:13:47Z</time>
      </trkpt>
      <trkpt lat="48.37239" lon="2.74426">
        <ele>94.3</ele>
        <time>2023-07-20T07:13:48Z</time>
      </trkpt>
      <trkpt lat="48.37238" lon="2.74427">
        <ele>94.4</ele>
        <time>2023-07-20T07:13:49Z</time>
      </trkpt>
      <trkpt lat="48.37237" lon="2.74428">
        <ele>94.5</ele>
        <time>2023-07-20T07:13:50Z</time>
      </trkpt>
      <trkpt lat="48.37237" lon="2.74429">
        <ele>94.5</ele>
        <time>2023-07-20T07:13:51Z</time>
      </trkpt>
      <trkpt lat="48.37236" lon="2.7443">
        <ele>94.5</ele>
        <time>2023-07-20T07:13:52Z</time>
      </trkpt>
      <trkpt lat="48.37234" lon="2.74431">
        <ele>94.6</ele>
        <time>2023-07-20T07:13:53Z</time>
      </trkpt>
      <trkpt lat="48.37233" lon="2.74432">
        <ele>94.7</ele>
        <time>2023-07-20T07:13:54Z</time>
      </trkpt>
      <trkpt lat="48.37233" lon="2.74432">
        <ele>94.7</ele>
        <time>2023-07-20T07:13:55Z</time>
      </trkpt>
      <trkpt lat="48.37233" lon="2.74433">
        <ele>94.7</ele>
        <time>2023-07-20T07:13:56Z</time>
      </trkpt>
      <trkpt lat="48.37233" lon="2.74434">
        <ele>94.8</ele>
        <time>2023-07-20T07:13:57Z</time>
      </trkpt>
      <trkpt lat="48.37232" lon="2.74435">
        <ele>94.8</ele>
        <time>2023-07-20T07:13:58Z</time>
      </trkpt>
      <trkpt lat="48.37231" lon="2.74435">
        <ele>94.9</ele>
        <time>2023-07-20T07:13:59Z</time>
      </trkpt>
      <trkpt lat="48.37231" lon="2.74436">
        <ele>94.9</ele>
        <time>2023-07-20T07:14:00Z</time>
      </trkpt>
      <trkpt lat="48.37229" lon="2.74437">
        <ele>95</ele>
        <time>2023-07-20T07:14:01Z</time>
      </trkpt>
      <trkpt lat="48.37229" lon="2.74438">
        <ele>95</ele>
        <time>2023-07-20T07:14:02Z</time>
      </trkpt>
      <trkpt lat="48.37228" lon="2.74439">
        <ele>95.1</ele>
        <time>2023-07-20T07:14:03Z</time>
      </trkpt>
      <trkpt lat="48.37228" lon="2.74441">
        <ele>95.1</ele>
        <time>2023-07-20T07:14:04Z</time>
      </trkpt>
      <trkpt lat="48.37226" lon="2.74442">
        <ele>95.2</ele>
        <time>2023-07-20T07:14:05Z</time>
      </trkpt>
      <trkpt lat="48.37225" lon="2.74442">
        <ele>95.2</ele>
        <time>2023-07-20T07:14:06Z</time>
      </trkpt>
      <trkpt lat="48.37224" lon="2.74443">
        <ele>95.3</ele>
        <time>2023-07-20T07:14:07Z</time>
      </trkpt>
      <trkpt lat="48.37223" lon="2.74443">
        <ele>95.3</ele>
        <time>2023-07-20T07:14:08Z</time>
      </trkpt>
      <trkpt lat="48.37223" lon="2.74444">
        <ele>95.4</ele>
        <time>2023-07-20T07:14:09Z</time>
      </trkpt>
      <trkpt lat="48.37222" lon="2.74445">
        <ele>95.4</ele>
        <time>2023-07-20T07:14:10Z</time>
      </trkpt>
      <trkpt lat="48.37221" lon="2.74447">
        <ele>95.5</ele>
        <time>2023-07-20T07:14:11Z</time>
      </trkpt>
      <trkpt lat="48.37221" lon="2.74448">
        <ele>95.5</ele>
        <time>2023-07-20T07:14:12Z</time>
      </trkpt>
      <trkpt lat="48.3722" lon="2.74449">
        <ele>95.6</ele>
        <time>2023-07-20T07:14:13Z</time>
      </trkpt>
      <trkpt lat="48.3722" lon="2.7445">
        <ele>95.6</ele>
        <time>2023-07-20T07:14:14Z</time>
      </trkpt>
      <trkpt lat="48.3722" lon="2.74451">
        <ele>95.6</ele>
        <time>2023-07-20T07:14:15Z</time>
      </trkpt>
      <trkpt lat="48.37219" lon="2.74452">
        <ele>95.7</ele>
        <time>2023-07-20T07:14:16Z</time>
      </trkpt>
      <trkpt lat="48.37219" lon="2.74452">
        <ele>95.7</ele>
        <time>2023-07-20T07:14:17Z</time>
      </trkpt>
      <trkpt lat="48.37218" lon="2.74452">
        <ele>95.7</ele>
        <time>2023-07-20T07:14:18Z</time>
      </trkpt>
      <trkpt lat="48.37218" lon="2.74452">
        <ele>95.7</ele>
        <time>2023-07-20T07:14:19Z</time>
      </trkpt>
      <trkpt lat="48.37217" lon="2.74453">
        <ele>95.8</ele>
        <time>2023-07-20T07:14:20Z</time>
      </trkpt>
      <trkpt lat="48.37216" lon="2.74453">
        <ele>95.8</ele>
        <time>2023-07-20T07:14:21Z</time>
      </trkpt>
      <trkpt lat="48.37215" lon="2.74454">
        <ele>95.9</ele>
        <time>2023-07-20T07:14:22Z</time>
      </trkpt>
      <trkpt lat="48.37214" lon="2.74455">
        <ele>96</ele>
        <time>2023-07-20T07:14:23Z</time>
      </trkpt>
      <trkpt lat="48.37213" lon="2.74456">
        <ele>96</ele>
        <time>2023-07-20T07:14:24Z</time>
      </trkpt>
      <trkpt lat="48.37213" lon="2.74456">
        <ele>96.1</ele>
        <time>2023-07-20T07:14:25Z</time>
      </trkpt>
      <trkpt lat="48.37212" lon="2.74456">
        <ele>96.1</ele>
        <time>2023-07-20T07:14:26Z</time>
      </trkpt>
      <trkpt lat="48.37211" lon="2.74457">
        <ele>96.2</ele>
        <time>2023-07-20T07:14:27Z</time>
      </trkpt>
      <trkpt lat="48.3721" lon="2.74458">
        <ele>96.2</ele>
        <time>2023-07-20T07:14:28Z</time>
      </trkpt>
      <trkpt lat="48.37209" lon="2.74458">
        <ele>96.5</ele>
        <time>2023-07-20T07:14:29Z</time>
      </trkpt>
      <trkpt lat="48.37208" lon="2.74458">
        <ele>96.5</ele>
        <time>2023-07-20T07:14:30Z</time>
      </trkpt>
      <trkpt lat="48.37206" lon="2.74459">
        <ele>96.6</ele>
        <time>2023-07-20T07:14:31Z</time>
      </trkpt>
      <trkpt lat="48.37205" lon="2.74458">
        <ele>96.6</ele>
        <time>2023-07-20T07:14:32Z</time>
      </trkpt>
      <trkpt lat="48.37205" lon="2.74458">
        <ele>96.6</ele>
        <time>2023-07-20T07:14:33Z</time>
      </trkpt>
      <trkpt lat="48.37204" lon="2.74458">
        <ele>96.7</ele>
        <time>2023-07-20T07:14:34Z</time>
      </trkpt>
      <trkpt lat="48.37203" lon="2.74457">
        <ele>96.7</ele>
        <time>2023-07-20T07:14:35Z</time>
      </trkpt>
      <trkpt lat="48.37202" lon="2.74456">
        <ele>96.7</ele>
        <time>2023-07-20T07:14:36Z</time>
      </trkpt>
      <trkpt lat="48.37202" lon="2.74456">
        <ele>96.8</ele>
        <time>2023-07-20T07:14:37Z</time>
      </trkpt>
      <trkpt lat="48.37202" lon="2.74456">
        <ele>96.8</ele>
        <time>2023-07-20T07:14:38Z</time>
      </trkpt>
      <trkpt lat="48.37201" lon="2.74456">
        <ele>96.8</ele>
        <time>2023-07-20T07:14:39Z</time>
      </trkpt>
      <trkpt lat="48.372" lon="2.74456">
        <ele>96.8</ele>
        <time>2023-07-20T07:14:40Z</time>
      </trkpt>
      <trkpt lat="48.372" lon="2.74456">
        <ele>96.9</ele>
        <time>2023-07-20T07:14:41Z</time>
      </trkpt>
      <trkpt lat="48.372" lon="2.74455">
        <ele>96.9</ele>
        <time>2023-07-20T07:14:42Z</time>
      </trkpt>
      <trkpt lat="48.372" lon="2.74454">
        <ele>96.9</ele>
        <time>2023-07-20T07:14:43Z</time>
      </trkpt>
      <trkpt lat="48.37199" lon="2.74451">
        <ele>97</ele>
        <time>2023-07-20T07:14:44Z</time>
      </trkpt>
      <trkpt lat="48.37199" lon="2.74451">
        <ele>97</ele>
        <time>2023-07-20T07:14:45Z</time>
      </trkpt>
      <trkpt lat="48.37198" lon="2.74451">
        <ele>97.1</ele>
        <time>2023-07-20T07:14:46Z</time>
      </trkpt>
      <trkpt lat="48.37198" lon="2.7445">
        <ele>97.1</ele>
        <time>2023-07-20T07:14:47Z</time>
      </trkpt>
      <trkpt lat="48.37197" lon="2.74451">
        <ele>97.2</ele>
        <time>2023-07-20T07:14:48Z</time>
      </trkpt>
      <trkpt lat="48.37196" lon="2.7445">
        <ele>97.2</ele>
        <time>2023-07-20T07:14:49Z</time>
      </trkpt>
      <trkpt lat="48.37196" lon="2.74451">
        <ele>97.3</ele>
        <time>2023-07-20T07:14:50Z</time>
      </trkpt>
      <trkpt lat="48.37195" lon="2.74451">
        <ele>97.3</ele>
        <time>2023-07-20T07:14:51Z</time>
      </trkpt>
      <trkpt lat="48.37194" lon="2.74452">
        <ele>97.3</ele>
        <time>2023-07-20T07:14:52Z</time>
      </trkpt>
      <trkpt lat="48.37194" lon="2.74451">
        <ele>97.4</ele>
        <time>2023-07-20T07:14:53Z</time>
      </trkpt>
      <trkpt lat="48.37194" lon="2.74451">
        <ele>97.4</ele>
        <time>2023-07-20T07:14:54Z</time>
      </trkpt>
      <trkpt lat="48.37193" lon="2.74451">
        <ele>97.4</ele>
        <time>2023-07-20T07:14:56Z</time>
      </trkpt>
      <trkpt lat="48.37193" lon="2.74451">
        <ele>97.5</ele>
        <time>2023-07-20T07:14:57Z</time>
      </trkpt>
      <trkpt lat="48.37192" lon="2.74451">
        <ele>97.5</ele>
        <time>2023-07-20T07:14:58Z</time>
      </trkpt>
      <trkpt lat="48.37191" lon="2.74451">
        <ele>97.6</ele>
        <time>2023-07-20T07:14:59Z</time>
      </trkpt>
      <trkpt lat="48.37191" lon="2.74451">
        <ele>97.6</ele>
        <time>2023-07-20T07:15:00Z</time>
      </trkpt>
      <trkpt lat="48.37191" lon="2.7445">
        <ele>97.7</ele>
        <time>2023-07-20T07:15:01Z</time>
      </trkpt>
      <trkpt lat="48.37191" lon="2.7445">
        <ele>97.7</ele>
        <time>2023-07-20T07:15:02Z</time>
      </trkpt>
      <trkpt lat="48.3719" lon="2.74449">
        <ele>97.8</ele>
        <time>2023-07-20T07:15:03Z</time>
      </trkpt>
      <trkpt lat="48.37189" lon="2.74448">
        <ele>97.9</ele>
        <time>2023-07-20T07:15:04Z</time>
      </trkpt>
      <trkpt lat="48.37189" lon="2.74447">
        <ele>97.9</ele>
        <time>2023-07-20T07:15:05Z</time>
      </trkpt>
      <trkpt lat="48.37188" lon="2.74447">
        <ele>98</ele>
        <time>2023-07-20T07:15:06Z</time>
      </trkpt>
      <trkpt lat="48.37188" lon="2.74446">
        <ele>98</ele>
        <time>2023-07-20T07:15:07Z</time>
      </trkpt>
      <trkpt lat="48.37188" lon="2.74445">
        <ele>98.1</ele>
        <time>2023-07-20T07:15:08Z</time>
      </trkpt>
      <trkpt lat="48.37187" lon="2.74444">
        <ele>98.2</ele>
        <time>2023-07-20T07:15:09Z</time>
      </trkpt>
      <trkpt lat="48.37187" lon="2.74443">
        <ele>98.3</ele>
        <time>2023-07-20T07:15:10Z</time>
      </trkpt>
      <trkpt lat="48.37186" lon="2.74443">
        <ele>98.3</ele>
        <time>2023-07-20T07:15:11Z</time>
      </trkpt>
      <trkpt lat="48.37185" lon="2.74443">
        <ele>98.4</ele>
        <time>2023-07-20T07:15:12Z</time>
      </trkpt>
      <trkpt lat="48.37185" lon="2.74442">
        <ele>98.5</ele>
        <time>2023-07-20T07:15:13Z</time>
      </trkpt>
      <trkpt lat="48.37184" lon="2.74441">
        <ele>98.5</ele>
        <time>2023-07-20T07:15:14Z</time>
      </trkpt>
      <trkpt lat="48.37184" lon="2.7444">
        <ele>98.6</ele>
        <time>2023-07-20T07:15:15Z</time>
      </trkpt>
      <trkpt lat="48.37184" lon="2.7444">
        <ele>98.7</ele>
        <time>2023-07-20T07:15:16Z</time>
      </trkpt>
      <trkpt lat="48.37184" lon="2.7444">
        <ele>98.7</ele>
        <time>2023-07-20T07:15:17Z</time>
      </trkpt>
      <trkpt lat="48.37183" lon="2.74439">
        <ele>98.8</ele>
        <time>2023-07-20T07:15:18Z</time>
      </trkpt>
      <trkpt lat="48.37182" lon="2.74439">
        <ele>98.9</ele>
        <time>2023-07-20T07:15:19Z</time>
      </trkpt>
      <trkpt lat="48.37181" lon="2.74438">
        <ele>99</ele>
        <time>2023-07-20T07:15:20Z</time>
      </trkpt>
      <trkpt lat="48.3718" lon="2.74436">
        <ele>99.2</ele>
        <time>2023-07-20T07:15:21Z</time>
      </trkpt>
      <trkpt lat="48.3718" lon="2.74435">
        <ele>99.3</ele>
        <time>2023-07-20T07:15:22Z</time>
      </trkpt>
      <trkpt lat="48.37179" lon="2.74435">
        <ele>99.4</ele>
        <time>2023-07-20T07:15:23Z</time>
      </trkpt>
      <trkpt lat="48.37179" lon="2.74434">
        <ele>99.5</ele>
        <time>2023-07-20T07:15:24Z</time>
      </trkpt>
      <trkpt lat="48.37179" lon="2.74434">
        <ele>99.5</ele>
        <time>2023-07-20T07:15:25Z</time>
      </trkpt>
      <trkpt lat="48.37178" lon="2.74433">
        <ele>99.6</ele>
        <time>2023-07-20T07:15:26Z</time>
      </trkpt>
      <trkpt lat="48.37177" lon="2.74433">
        <ele>99.8</ele>
        <time>2023-07-20T07:15:27Z</time>
      </trkpt>
      <trkpt lat="48.37176" lon="2.74433">
        <ele>99.9</ele>
        <time>2023-07-20T07:15:28Z</time>
      </trkpt>
      <trkpt lat="48.37175" lon="2.74433">
        <ele>100</ele>
        <time>2023-07-20T07:15:29Z</time>
      </trkpt>
      <trkpt lat="48.37174" lon="2.74433">
        <ele>100.2</ele>
        <time>2023-07-20T07:15:30Z</time>
      </trkpt>
      <trkpt lat="48.37172" lon="2.74434">
        <ele>100.5</ele>
        <time>2023-07-20T07:15:31Z</time>
      </trkpt>
      <trkpt lat="48.37171" lon="2.74435">
        <ele>100.6</ele>
        <time>2023-07-20T07:15:32Z</time>
      </trkpt>
      <trkpt lat="48.37171" lon="2.74436">
        <ele>100.7</ele>
        <time>2023-07-20T07:15:33Z</time>
      </trkpt>
      <trkpt lat="48.3717" lon="2.74437">
        <ele>100.9</ele>
        <time>2023-07-20T07:15:34Z</time>
      </trkpt>
      <trkpt lat="48.37169" lon="2.74437">
        <ele>101</ele>
        <time>2023-07-20T07:15:35Z</time>
      </trkpt>
      <trkpt lat="48.37168" lon="2.74438">
        <ele>101.1</ele>
        <time>2023-07-20T07:15:36Z</time>
      </trkpt>
      <trkpt lat="48.37167" lon="2.74439">
        <ele>101.3</ele>
        <time>2023-07-20T07:15:37Z</time>
      </trkpt>
      <trkpt lat="48.37166" lon="2.74439">
        <ele>101.4</ele>
        <time>2023-07-20T07:15:38Z</time>
      </trkpt>
      <trkpt lat="48.37165" lon="2.7444">
        <ele>101.5</ele>
        <time>2023-07-20T07:15:39Z</time>
      </trkpt>
      <trkpt lat="48.37164" lon="2.7444">
        <ele>101.7</ele>
        <time>2023-07-20T07:15:40Z</time>
      </trkpt>
      <trkpt lat="48.37163" lon="2.74441">
        <ele>101.9</ele>
        <time>2023-07-20T07:15:41Z</time>
      </trkpt>
      <trkpt lat="48.37163" lon="2.74441">
        <ele>102</ele>
        <time>2023-07-20T07:15:42Z</time>
      </trkpt>
      <trkpt lat="48.37161" lon="2.74443">
        <ele>102.2</ele>
        <time>2023-07-20T07:15:43Z</time>
      </trkpt>
      <trkpt lat="48.3716" lon="2.74444">
        <ele>102.4</ele>
        <time>2023-07-20T07:15:44Z</time>
      </trkpt>
      <trkpt lat="48.3716" lon="2.74445">
        <ele>102.5</ele>
        <time>2023-07-20T07:15:45Z</time>
      </trkpt>
      <trkpt lat="48.37159" lon="2.74445">
        <ele>102.6</ele>
        <time>2023-07-20T07:15:46Z</time>
      </trkpt>
      <trkpt lat="48.37158" lon="2.74446">
        <ele>102.7</ele>
        <time>2023-07-20T07:15:47Z</time>
      </trkpt>
      <trkpt lat="48.37157" lon="2.74446">
        <ele>102.8</ele>
        <time>2023-07-20T07:15:48Z</time>
      </trkpt>
      <trkpt lat="48.37157" lon="2.74446">
        <ele>102.8</ele>
        <time>2023-07-20T07:15:49Z</time>
      </trkpt>
      <trkpt lat="48.37157" lon="2.74445">
        <ele>102.9</ele>
        <time>2023-07-20T07:15:50Z</time>
      </trkpt>
      <trkpt lat="48.37156" lon="2.74445">
        <ele>103</ele>
        <time>2023-07-20T07:15:51Z</time>
      </trkpt>
      <trkpt lat="48.37155" lon="2.74446">
        <ele>103.1</ele>
        <time>2023-07-20T07:15:52Z</time>
      </trkpt>
      <trkpt lat="48.37154" lon="2.74446">
        <ele>103.2</ele>
        <time>2023-07-20T07:15:53Z</time>
      </trkpt>
      <trkpt lat="48.37154" lon="2.74447">
        <ele>103.3</ele>
        <time>2023-07-20T07:15:54Z</time>
      </trkpt>
      <trkpt lat="48.37154" lon="2.74447">
        <ele>103.3</ele>
        <time>2023-07-20T07:15:55Z</time>
      </trkpt>
      <trkpt lat="48.37153" lon="2.74447">
        <ele>103.3</ele>
        <time>2023-07-20T07:15:56Z</time>
      </trkpt>
      <trkpt lat="48.37153" lon="2.74446">
        <ele>103.4</ele>
        <time>2023-07-20T07:15:57Z</time>
      </trkpt>
      <trkpt lat="48.37152" lon="2.74446">
        <ele>103.5</ele>
        <time>2023-07-20T07:15:58Z</time>
      </trkpt>
      <trkpt lat="48.37151" lon="2.74446">
        <ele>103.7</ele>
        <time>2023-07-20T07:15:59Z</time>
      </trkpt>
      <trkpt lat="48.3715" lon="2.74446">
        <ele>103.8</ele>
        <time>2023-07-20T07:16:00Z</time>
      </trkpt>
      <trkpt lat="48.37148" lon="2.74446">
        <ele>104</ele>
        <time>2023-07-20T07:16:01Z</time>
      </trkpt>
      <trkpt lat="48.37147" lon="2.74446">
        <ele>104.1</ele>
        <time>2023-07-20T07:16:02Z</time>
      </trkpt>
      <trkpt lat="48.37146" lon="2.74446">
        <ele>104.3</ele>
        <time>2023-07-20T07:16:03Z</time>
      </trkpt>
      <trkpt lat="48.37145" lon="2.74445">
        <ele>104.4</ele>
        <time>2023-07-20T07:16:04Z</time>
      </trkpt>
      <trkpt lat="48.37144" lon="2.74444">
        <ele>104.6</ele>
        <time>2023-07-20T07:16:05Z</time>
      </trkpt>
      <trkpt lat="48.37143" lon="2.74443">
        <ele>104.7</ele>
        <time>2023-07-20T07:16:06Z</time>
      </trkpt>
      <trkpt lat="48.37142" lon="2.74442">
        <ele>104.9</ele>
        <time>2023-07-20T07:16:07Z</time>
      </trkpt>
      <trkpt lat="48.37141" lon="2.74442">
        <ele>105</ele>
        <time>2023-07-20T07:16:08Z</time>
      </trkpt>
      <trkpt lat="48.3714" lon="2.74442">
        <ele>105.1</ele>
        <time>2023-07-20T07:16:09Z</time>
      </trkpt>
      <trkpt lat="48.37138" lon="2.74442">
        <ele>105.3</ele>
        <time>2023-07-20T07:16:10Z</time>
      </trkpt>
      <trkpt lat="48.37138" lon="2.74442">
        <ele>105.4</ele>
        <time>2023-07-20T07:16:11Z</time>
      </trkpt>
      <trkpt lat="48.37138" lon="2.74442">
        <ele>105.4</ele>
        <time>2023-07-20T07:16:12Z</time>
      </trkpt>
      <trkpt lat="48.37137" lon="2.74442">
        <ele>105.5</ele>
        <time>2023-07-20T07:16:13Z</time>
      </trkpt>
      <trkpt lat="48.37136" lon="2.74442">
        <ele>105.5</ele>
        <time>2023-07-20T07:16:14Z</time>
      </trkpt>
      <trkpt lat="48.37136" lon="2.74443">
        <ele>105.6</ele>
        <time>2023-07-20T07:16:15Z</time>
      </trkpt>
      <trkpt lat="48.37135" lon="2.74443">
        <ele>105.7</ele>
        <time>2023-07-20T07:16:16Z</time>
      </trkpt>
      <trkpt lat="48.37134" lon="2.74443">
        <ele>105.8</ele>
        <time>2023-07-20T07:16:17Z</time>
      </trkpt>
      <trkpt lat="48.37132" lon="2.74445">
        <ele>106</ele>
        <time>2023-07-20T07:16:18Z</time>
      </trkpt>
      <trkpt lat="48.37131" lon="2.74445">
        <ele>106.1</ele>
        <time>2023-07-20T07:16:19Z</time>
      </trkpt>
      <trkpt lat="48.37129" lon="2.74445">
        <ele>106.2</ele>
        <time>2023-07-20T07:16:20Z</time>
      </trkpt>
      <trkpt lat="48.37128" lon="2.74446">
        <ele>106.3</ele>
        <time>2023-07-20T07:16:21Z</time>
      </trkpt>
      <trkpt lat="48.37126" lon="2.74446">
        <ele>106.4</ele>
        <time>2023-07-20T07:16:22Z</time>
      </trkpt>
      <trkpt lat="48.37125" lon="2.74446">
        <ele>106.5</ele>
        <time>2023-07-20T07:16:23Z</time>
      </trkpt>
      <trkpt lat="48.37125" lon="2.74446">
        <ele>106.5</ele>
        <time>2023-07-20T07:16:24Z</time>
      </trkpt>
      <trkpt lat="48.37125" lon="2.74447">
        <ele>106.5</ele>
        <time>2023-07-20T07:16:25Z</time>
      </trkpt>
      <trkpt lat="48.37124" lon="2.74447">
        <ele>106.5</ele>
        <time>2023-07-20T07:16:26Z</time>
      </trkpt>
      <trkpt lat="48.37123" lon="2.74447">
        <ele>106.6</ele>
        <time>2023-07-20T07:16:27Z</time>
      </trkpt>
      <trkpt lat="48.37123" lon="2.74447">
        <ele>106.6</ele>
        <time>2023-07-20T07:16:28Z</time>
      </trkpt>
      <trkpt lat="48.37122" lon="2.74447">
        <ele>106.7</ele>
        <time>2023-07-20T07:16:29Z</time>
      </trkpt>
      <trkpt lat="48.37121" lon="2.74446">
        <ele>106.7</ele>
        <time>2023-07-20T07:16:30Z</time>
      </trkpt>
      <trkpt lat="48.37121" lon="2.74446">
        <ele>106.7</ele>
        <time>2023-07-20T07:16:31Z</time>
      </trkpt>
      <trkpt lat="48.37121" lon="2.74445">
        <ele>106.7</ele>
        <time>2023-07-20T07:16:32Z</time>
      </trkpt>
      <trkpt lat="48.3712" lon="2.74445">
        <ele>106.7</ele>
        <time>2023-07-20T07:16:33Z</time>
      </trkpt>
      <trkpt lat="48.37118" lon="2.74444">
        <ele>106.8</ele>
        <time>2023-07-20T07:16:34Z</time>
      </trkpt>
      <trkpt lat="48.37117" lon="2.74444">
        <ele>106.8</ele>
        <time>2023-07-20T07:16:35Z</time>
      </trkpt>
      <trkpt lat="48.37116" lon="2.74444">
        <ele>106.8</ele>
        <time>2023-07-20T07:16:36Z</time>
      </trkpt>
      <trkpt lat="48.37116" lon="2.74444">
        <ele>106.8</ele>
        <time>2023-07-20T07:16:37Z</time>
      </trkpt>
      <trkpt lat="48.37115" lon="2.74444">
        <ele>106.8</ele>
        <time>2023-07-20T07:16:38Z</time>
      </trkpt>
      <trkpt lat="48.37114" lon="2.74444">
        <ele>106.9</ele>
        <time>2023-07-20T07:16:39Z</time>
      </trkpt>
      <trkpt lat="48.37113" lon="2.74443">
        <ele>106.9</ele>
        <time>2023-07-20T07:16:40Z</time>
      </trkpt>
      <trkpt lat="48.37112" lon="2.74443">
        <ele>106.9</ele>
        <time>2023-07-20T07:16:41Z</time>
      </trkpt>
      <trkpt lat="48.37112" lon="2.74443">
        <ele>106.9</ele>
        <time>2023-07-20T07:16:42Z</time>
      </trkpt>
      <trkpt lat="48.37111" lon="2.74442">
        <ele>106.9</ele>
        <time>2023-07-20T07:16:43Z</time>
      </trkpt>
      <trkpt lat="48.37111" lon="2.74442">
        <ele>106.9</ele>
        <time>2023-07-20T07:16:44Z</time>
      </trkpt>
      <trkpt lat="48.3711" lon="2.74442">
        <ele>107</ele>
        <time>2023-07-20T07:16:45Z</time>
      </trkpt>
      <trkpt lat="48.3711" lon="2.74443">
        <ele>107</ele>
        <time>2023-07-20T07:16:46Z</time>
      </trkpt>
      <trkpt lat="48.3711" lon="2.74442">
        <ele>107</ele>
        <time>2023-07-20T07:16:47Z</time>
      </trkpt>
      <trkpt lat="48.37109" lon="2.7444">
        <ele>107</ele>
        <time>2023-07-20T07:16:48Z</time>
      </trkpt>
      <trkpt lat="48.37108" lon="2.74439">
        <ele>107</ele>
        <time>2023-07-20T07:16:49Z</time>
      </trkpt>
      <trkpt lat="48.37107" lon="2.74437">
        <ele>107.1</ele>
        <time>2023-07-20T07:16:50Z</time>
      </trkpt>
      <trkpt lat="48.37106" lon="2.74437">
        <ele>107.1</ele>
        <time>2023-07-20T07:16:51Z</time>
      </trkpt>
      <trkpt lat="48.37104" lon="2.74437">
        <ele>107.1</ele>
        <time>2023-07-20T07:16:52Z</time>
      </trkpt>
      <trkpt lat="48.37102" lon="2.74437">
        <ele>107.2</ele>
        <time>2023-07-20T07:16:53Z</time>
      </trkpt>
      <trkpt lat="48.37101" lon="2.74437">
        <ele>107.2</ele>
        <time>2023-07-20T07:16:54Z</time>
      </trkpt>
      <trkpt lat="48.371" lon="2.74438">
        <ele>107.3</ele>
        <time>2023-07-20T07:16:55Z</time>
      </trkpt>
      <trkpt lat="48.371" lon="2.74438">
        <ele>107.3</ele>
        <time>2023-07-20T07:16:56Z</time>
      </trkpt>
      <trkpt lat="48.37099" lon="2.74438">
        <ele>107.3</ele>
        <time>2023-07-20T07:16:57Z</time>
      </trkpt>
      <trkpt lat="48.37099" lon="2.74439">
        <ele>107.4</ele>
        <time>2023-07-20T07:16:58Z</time>
      </trkpt>
      <trkpt lat="48.37098" lon="2.74439">
        <ele>107.4</ele>
        <time>2023-07-20T07:16:59Z</time>
      </trkpt>
      <trkpt lat="48.37096" lon="2.7444">
        <ele>107.5</ele>
        <time>2023-07-20T07:17:00Z</time>
      </trkpt>
      <trkpt lat="48.37095" lon="2.7444">
        <ele>107.5</ele>
        <time>2023-07-20T07:17:01Z</time>
      </trkpt>
      <trkpt lat="48.37094" lon="2.74441">
        <ele>107.6</ele>
        <time>2023-07-20T07:17:02Z</time>
      </trkpt>
      <trkpt lat="48.37093" lon="2.74441">
        <ele>107.7</ele>
        <time>2023-07-20T07:17:03Z</time>
      </trkpt>
      <trkpt lat="48.37092" lon="2.74442">
        <ele>107.7</ele>
        <time>2023-07-20T07:17:04Z</time>
      </trkpt>
      <trkpt lat="48.37091" lon="2.74442">
        <ele>107.8</ele>
        <time>2023-07-20T07:17:05Z</time>
      </trkpt>
      <trkpt lat="48.3709" lon="2.74443">
        <ele>107.9</ele>
        <time>2023-07-20T07:17:06Z</time>
      </trkpt>
      <trkpt lat="48.37088" lon="2.74443">
        <ele>108</ele>
        <time>2023-07-20T07:17:07Z</time>
      </trkpt>
      <trkpt lat="48.37087" lon="2.74444">
        <ele>108.2</ele>
        <time>2023-07-20T07:17:08Z</time>
      </trkpt>
      <trkpt lat="48.37086" lon="2.74444">
        <ele>108.2</ele>
        <time>2023-07-20T07:17:09Z</time>
      </trkpt>
      <trkpt lat="48.37085" lon="2.74444">
        <ele>108.3</ele>
        <time>2023-07-20T07:17:10Z</time>
      </trkpt>
      <trkpt lat="48.37084" lon="2.74444">
        <ele>108.4</ele>
        <time>2023-07-20T07:17:11Z</time>
      </trkpt>
      <trkpt lat="48.37083" lon="2.74444">
        <ele>108.5</ele>
        <time>2023-07-20T07:17:12Z</time>
      </trkpt>
      <trkpt lat="48.37083" lon="2.74443">
        <ele>108.5</ele>
        <time>2023-07-20T07:17:13Z</time>
      </trkpt>
      <trkpt lat="48.37083" lon="2.74443">
        <ele>108.5</ele>
        <time>2023-07-20T07:17:14Z</time>
      </trkpt>
      <trkpt lat="48.37082" lon="2.74443">
        <ele>108.6</ele>
        <time>2023-07-20T07:17:15Z</time>
      </trkpt>
      <trkpt lat="48.37082" lon="2.74444">
        <ele>108.6</ele>
        <time>2023-07-20T07:17:16Z</time>
      </trkpt>
      <trkpt lat="48.37081" lon="2.74445">
        <ele>108.7</ele>
        <time>2023-07-20T07:17:17Z</time>
      </trkpt>
      <trkpt lat="48.3708" lon="2.74445">
        <ele>108.8</ele>
        <time>2023-07-20T07:17:18Z</time>
      </trkpt>
      <trkpt lat="48.37079" lon="2.74446">
        <ele>108.9</ele>
        <time>2023-07-20T07:17:19Z</time>
      </trkpt>
      <trkpt lat="48.37079" lon="2.74446">
        <ele>109</ele>
        <time>2023-07-20T07:17:20Z</time>
      </trkpt>
      <trkpt lat="48.37078" lon="2.74447">
        <ele>109.1</ele>
        <time>2023-07-20T07:17:21Z</time>
      </trkpt>
      <trkpt lat="48.37077" lon="2.74448">
        <ele>109.3</ele>
        <time>2023-07-20T07:17:22Z</time>
      </trkpt>
      <trkpt lat="48.37076" lon="2.74449">
        <ele>109.4</ele>
        <time>2023-07-20T07:17:23Z</time>
      </trkpt>
      <trkpt lat="48.37075" lon="2.74449">
        <ele>109.5</ele>
        <time>2023-07-20T07:17:24Z</time>
      </trkpt>
      <trkpt lat="48.37074" lon="2.7445">
        <ele>109.6</ele>
        <time>2023-07-20T07:17:25Z</time>
      </trkpt>
      <trkpt lat="48.37073" lon="2.7445">
        <ele>109.7</ele>
        <time>2023-07-20T07:17:26Z</time>
      </trkpt>
      <trkpt lat="48.37073" lon="2.74451">
        <ele>109.8</ele>
        <time>2023-07-20T07:17:27Z</time>
      </trkpt>
      <trkpt lat="48.37073" lon="2.74452">
        <ele>109.9</ele>
        <time>2023-07-20T07:17:28Z</time>
      </trkpt>
      <trkpt lat="48.37072" lon="2.74453">
        <ele>110</ele>
        <time>2023-07-20T07:17:29Z</time>
      </trkpt>
      <trkpt lat="48.37072" lon="2.74452">
        <ele>110.1</ele>
        <time>2023-07-20T07:17:30Z</time>
      </trkpt>
      <trkpt lat="48.37071" lon="2.74452">
        <ele>110.2</ele>
        <time>2023-07-20T07:17:31Z</time>
      </trkpt>
      <trkpt lat="48.3707" lon="2.74453">
        <ele>110.4</ele>
        <time>2023-07-20T07:17:32Z</time>
      </trkpt>
      <trkpt lat="48.37069" lon="2.74453">
        <ele>110.5</ele>
        <time>2023-07-20T07:17:33Z</time>
      </trkpt>
      <trkpt lat="48.37068" lon="2.74453">
        <ele>110.6</ele>
        <time>2023-07-20T07:17:34Z</time>
      </trkpt>
      <trkpt lat="48.37068" lon="2.74453">
        <ele>110.6</ele>
        <time>2023-07-20T07:17:35Z</time>
      </trkpt>
      <trkpt lat="48.37068" lon="2.74453">
        <ele>110.7</ele>
        <time>2023-07-20T07:17:36Z</time>
      </trkpt>
      <trkpt lat="48.37067" lon="2.74453">
        <ele>110.7</ele>
        <time>2023-07-20T07:17:37Z</time>
      </trkpt>
      <trkpt lat="48.37067" lon="2.74453">
        <ele>110.7</ele>
        <time>2023-07-20T07:17:38Z</time>
      </trkpt>
      <trkpt lat="48.37067" lon="2.74453">
        <ele>110.8</ele>
        <time>2023-07-20T07:17:39Z</time>
      </trkpt>
      <trkpt lat="48.37067" lon="2.74453">
        <ele>110.8</ele>
        <time>2023-07-20T07:17:40Z</time>
      </trkpt>
      <trkpt lat="48.37066" lon="2.74453">
        <ele>110.9</ele>
        <time>2023-07-20T07:17:41Z</time>
      </trkpt>
      <trkpt lat="48.37066" lon="2.74453">
        <ele>110.9</ele>
        <time>2023-07-20T07:17:42Z</time>
      </trkpt>
      <trkpt lat="48.37066" lon="2.74453">
        <ele>111</ele>
        <time>2023-07-20T07:17:43Z</time>
      </trkpt>
      <trkpt lat="48.37066" lon="2.74453">
        <ele>111</ele>
        <time>2023-07-20T07:17:44Z</time>
      </trkpt>
      <trkpt lat="48.37065" lon="2.74453">
        <ele>111</ele>
        <time>2023-07-20T07:17:45Z</time>
      </trkpt>
      <trkpt lat="48.37065" lon="2.74453">
        <ele>111.1</ele>
        <time>2023-07-20T07:17:46Z</time>
      </trkpt>
      <trkpt lat="48.37065" lon="2.74453">
        <ele>111.1</ele>
        <time>2023-07-20T07:17:47Z</time>
      </trkpt>
      <trkpt lat="48.37064" lon="2.74454">
        <ele>111.3</ele>
        <time>2023-07-20T07:17:48Z</time>
      </trkpt>
      <trkpt lat="48.37062" lon="2.74455">
        <ele>111.6</ele>
        <time>2023-07-20T07:17:49Z</time>
      </trkpt>
      <trkpt lat="48.3706" lon="2.74455">
        <ele>111.9</ele>
        <time>2023-07-20T07:17:50Z</time>
      </trkpt>
      <trkpt lat="48.37059" lon="2.74456">
        <ele>112</ele>
        <time>2023-07-20T07:17:51Z</time>
      </trkpt>
      <trkpt lat="48.37059" lon="2.74456">
        <ele>112.1</ele>
        <time>2023-07-20T07:17:52Z</time>
      </trkpt>
      <trkpt lat="48.37059" lon="2.74455">
        <ele>112.3</ele>
        <time>2023-07-20T07:17:53Z</time>
      </trkpt>
      <trkpt lat="48.37058" lon="2.74454">
        <ele>112.4</ele>
        <time>2023-07-20T07:17:54Z</time>
      </trkpt>
      <trkpt lat="48.37058" lon="2.74453">
        <ele>112.4</ele>
        <time>2023-07-20T07:17:55Z</time>
      </trkpt>
      <trkpt lat="48.37058" lon="2.74454">
        <ele>112.5</ele>
        <time>2023-07-20T07:17:56Z</time>
      </trkpt>
      <trkpt lat="48.37058" lon="2.74454">
        <ele>112.6</ele>
        <time>2023-07-20T07:17:57Z</time>
      </trkpt>
      <trkpt lat="48.37057" lon="2.74454">
        <ele>112.6</ele>
        <time>2023-07-20T07:17:58Z</time>
      </trkpt>
      <trkpt lat="48.37056" lon="2.74455">
        <ele>112.8</ele>
        <time>2023-07-20T07:17:59Z</time>
      </trkpt>
      <trkpt lat="48.37056" lon="2.74456">
        <ele>113</ele>
        <time>2023-07-20T07:18:00Z</time>
      </trkpt>
      <trkpt lat="48.37055" lon="2.74456">
        <ele>113.2</ele>
        <time>2023-07-20T07:18:01Z</time>
      </trkpt>
      <trkpt lat="48.37054" lon="2.74457">
        <ele>113.3</ele>
        <time>2023-07-20T07:18:02Z</time>
      </trkpt>
      <trkpt lat="48.37054" lon="2.74458">
        <ele>113.5</ele>
        <time>2023-07-20T07:18:03Z</time>
      </trkpt>
      <trkpt lat="48.37053" lon="2.74459">
        <ele>113.6</ele>
        <time>2023-07-20T07:18:04Z</time>
      </trkpt>
      <trkpt lat="48.37052" lon="2.7446">
        <ele>113.8</ele>
        <time>2023-07-20T07:18:05Z</time>
      </trkpt>
      <trkpt lat="48.37052" lon="2.7446">
        <ele>113.8</ele>
        <time>2023-07-20T07:18:06Z</time>
      </trkpt>
      <trkpt lat="48.37051" lon="2.7446">
        <ele>113.9</ele>
        <time>2023-07-20T07:18:07Z</time>
      </trkpt>
      <trkpt lat="48.37051" lon="2.7446">
        <ele>114</ele>
        <time>2023-07-20T07:18:08Z</time>
      </trkpt>
      <trkpt lat="48.37051" lon="2.7446">
        <ele>114.1</ele>
        <time>2023-07-20T07:18:09Z</time>
      </trkpt>
      <trkpt lat="48.37051" lon="2.74459">
        <ele>114.2</ele>
        <time>2023-07-20T07:18:10Z</time>
      </trkpt>
      <trkpt lat="48.37051" lon="2.74458">
        <ele>114.3</ele>
        <time>2023-07-20T07:18:11Z</time>
      </trkpt>
      <trkpt lat="48.37051" lon="2.74456">
        <ele>114.5</ele>
        <time>2023-07-20T07:18:12Z</time>
      </trkpt>
      <trkpt lat="48.37051" lon="2.74456">
        <ele>114.6</ele>
        <time>2023-07-20T07:18:13Z</time>
      </trkpt>
      <trkpt lat="48.3705" lon="2.74455">
        <ele>114.8</ele>
        <time>2023-07-20T07:18:14Z</time>
      </trkpt>
      <trkpt lat="48.37049" lon="2.74455">
        <ele>114.9</ele>
        <time>2023-07-20T07:18:15Z</time>
      </trkpt>
      <trkpt lat="48.37048" lon="2.74456">
        <ele>115.1</ele>
        <time>2023-07-20T07:18:16Z</time>
      </trkpt>
      <trkpt lat="48.37048" lon="2.74457">
        <ele>115.3</ele>
        <time>2023-07-20T07:18:17Z</time>
      </trkpt>
      <trkpt lat="48.37048" lon="2.74456">
        <ele>115.4</ele>
        <time>2023-07-20T07:18:18Z</time>
      </trkpt>
      <trkpt lat="48.37047" lon="2.74456">
        <ele>115.5</ele>
        <time>2023-07-20T07:18:19Z</time>
      </trkpt>
      <trkpt lat="48.37047" lon="2.74456">
        <ele>115.6</ele>
        <time>2023-07-20T07:18:20Z</time>
      </trkpt>
      <trkpt lat="48.37046" lon="2.74456">
        <ele>115.7</ele>
        <time>2023-07-20T07:18:21Z</time>
      </trkpt>
      <trkpt lat="48.37045" lon="2.74456">
        <ele>115.9</ele>
        <time>2023-07-20T07:18:22Z</time>
      </trkpt>
      <trkpt lat="48.37045" lon="2.74455">
        <ele>115.9</ele>
        <time>2023-07-20T07:18:23Z</time>
      </trkpt>
      <trkpt lat="48.37045" lon="2.74455">
        <ele>116.1</ele>
        <time>2023-07-20T07:18:24Z</time>
      </trkpt>
      <trkpt lat="48.37044" lon="2.74453">
        <ele>116.4</ele>
        <time>2023-07-20T07:18:25Z</time>
      </trkpt>
      <trkpt lat="48.37043" lon="2.74451">
        <ele>116.7</ele>
        <time>2023-07-20T07:18:26Z</time>
      </trkpt>
      <trkpt lat="48.37042" lon="2.74451">
        <ele>117.1</ele>
        <time>2023-07-20T07:18:27Z</time>
      </trkpt>
      <trkpt lat="48.3704" lon="2.7445">
        <ele>117.3</ele>
        <time>2023-07-20T07:18:28Z</time>
      </trkpt>
      <trkpt lat="48.3704" lon="2.74449">
        <ele>117.6</ele>
        <time>2023-07-20T07:18:29Z</time>
      </trkpt>
      <trkpt lat="48.37039" lon="2.74446">
        <ele>118</ele>
        <time>2023-07-20T07:18:30Z</time>
      </trkpt>
      <trkpt lat="48.37038" lon="2.74444">
        <ele>118.4</ele>
        <time>2023-07-20T07:18:31Z</time>
      </trkpt>
      <trkpt lat="48.37038" lon="2.74443">
        <ele>118.7</ele>
        <time>2023-07-20T07:18:32Z</time>
      </trkpt>
      <trkpt lat="48.37037" lon="2.74442">
        <ele>118.7</ele>
        <time>2023-07-20T07:18:33Z</time>
      </trkpt>
      <trkpt lat="48.37037" lon="2.74441">
        <ele>119</ele>
        <time>2023-07-20T07:18:34Z</time>
      </trkpt>
      <trkpt lat="48.37036" lon="2.74442">
        <ele>119.2</ele>
        <time>2023-07-20T07:18:35Z</time>
      </trkpt>
      <trkpt lat="48.37035" lon="2.74441">
        <ele>119.4</ele>
        <time>2023-07-20T07:18:36Z</time>
      </trkpt>
      <trkpt lat="48.37034" lon="2.74439">
        <ele>119.8</ele>
        <time>2023-07-20T07:18:37Z</time>
      </trkpt>
      <trkpt lat="48.37034" lon="2.74438">
        <ele>120</ele>
        <time>2023-07-20T07:18:38Z</time>
      </trkpt>
      <trkpt lat="48.37033" lon="2.74438">
        <ele>120.2</ele>
        <time>2023-07-20T07:18:39Z</time>
      </trkpt>
      <trkpt lat="48.37033" lon="2.74437">
        <ele>120.4</ele>
        <time>2023-07-20T07:18:40Z</time>
      </trkpt>
      <trkpt lat="48.37032" lon="2.74436">
        <ele>120.5</ele>
        <time>2023-07-20T07:18:41Z</time>
      </trkpt>
      <trkpt lat="48.37032" lon="2.74436">
        <ele>120.7</ele>
        <time>2023-07-20T07:18:42Z</time>
      </trkpt>
      <trkpt lat="48.37032" lon="2.74435">
        <ele>120.8</ele>
        <time>2023-07-20T07:18:43Z</time>
      </trkpt>
      <trkpt lat="48.37031" lon="2.74435">
        <ele>120.9</ele>
        <time>2023-07-20T07:18:44Z</time>
      </trkpt>
      <trkpt lat="48.37031" lon="2.74434">
        <ele>121.1</ele>
        <time>2023-07-20T07:18:45Z</time>
      </trkpt>
      <trkpt lat="48.3703" lon="2.74434">
        <ele>121.2</ele>
        <time>2023-07-20T07:18:46Z</time>
      </trkpt>
      <trkpt lat="48.3703" lon="2.74434">
        <ele>121.3</ele>
        <time>2023-07-20T07:18:47Z</time>
      </trkpt>
      <trkpt lat="48.37029" lon="2.74433">
        <ele>121.5</ele>
        <time>2023-07-20T07:18:48Z</time>
      </trkpt>
      <trkpt lat="48.37029" lon="2.74433">
        <ele>121.6</ele>
        <time>2023-07-20T07:18:49Z</time>
      </trkpt>
      <trkpt lat="48.37029" lon="2.74433">
        <ele>121.7</ele>
        <time>2023-07-20T07:18:50Z</time>
      </trkpt>
      <trkpt lat="48.37028" lon="2.74433">
        <ele>121.8</ele>
        <time>2023-07-20T07:18:51Z</time>
      </trkpt>
      <trkpt lat="48.37028" lon="2.74433">
        <ele>121.9</ele>
        <time>2023-07-20T07:18:52Z</time>
      </trkpt>
      <trkpt lat="48.37028" lon="2.74433">
        <ele>122</ele>
        <time>2023-07-20T07:18:53Z</time>
      </trkpt>
      <trkpt lat="48.37027" lon="2.74433">
        <ele>122</ele>
        <time>2023-07-20T07:18:54Z</time>
      </trkpt>
      <trkpt lat="48.37027" lon="2.74433">
        <ele>122.2</ele>
        <time>2023-07-20T07:18:55Z</time>
      </trkpt>
      <trkpt lat="48.37027" lon="2.74433">
        <ele>122.3</ele>
        <time>2023-07-20T07:18:56Z</time>
      </trkpt>
      <trkpt lat="48.37028" lon="2.74433">
        <ele>122.6</ele>
        <time>2023-07-20T07:18:57Z</time>
      </trkpt>
      <trkpt lat="48.37028" lon="2.74432">
        <ele>122.7</ele>
        <time>2023-07-20T07:18:58Z</time>
      </trkpt>
      <trkpt lat="48.37028" lon="2.7443">
        <ele>123</ele>
        <time>2023-07-20T07:18:59Z</time>
      </trkpt>
      <trkpt lat="48.37028" lon="2.74429">
        <ele>123.2</ele>
        <time>2023-07-20T07:19:00Z</time>
      </trkpt>
      <trkpt lat="48.37027" lon="2.74428">
        <ele>123.5</ele>
        <time>2023-07-20T07:19:01Z</time>
      </trkpt>
      <trkpt lat="48.37028" lon="2.74428">
        <ele>123.7</ele>
        <time>2023-07-20T07:19:02Z</time>
      </trkpt>
      <trkpt lat="48.37028" lon="2.74427">
        <ele>123.8</ele>
        <time>2023-07-20T07:19:03Z</time>
      </trkpt>
      <trkpt lat="48.37028" lon="2.74427">
        <ele>123.9</ele>
        <time>2023-07-20T07:19:04Z</time>
      </trkpt>
      <trkpt lat="48.37027" lon="2.74428">
        <ele>124.2</ele>
        <time>2023-07-20T07:19:05Z</time>
      </trkpt>
      <trkpt lat="48.37026" lon="2.74429">
        <ele>124.4</ele>
        <time>2023-07-20T07:19:06Z</time>
      </trkpt>
      <trkpt lat="48.37025" lon="2.74429">
        <ele>124.7</ele>
        <time>2023-07-20T07:19:07Z</time>
      </trkpt>
      <trkpt lat="48.37024" lon="2.74431">
        <ele>125.1</ele>
        <time>2023-07-20T07:19:08Z</time>
      </trkpt>
      <trkpt lat="48.37024" lon="2.74431">
        <ele>125.2</ele>
        <time>2023-07-20T07:19:09Z</time>
      </trkpt>
      <trkpt lat="48.37023" lon="2.74431">
        <ele>125.4</ele>
        <time>2023-07-20T07:19:10Z</time>
      </trkpt>
      <trkpt lat="48.37022" lon="2.74431">
        <ele>125.6</ele>
        <time>2023-07-20T07:19:11Z</time>
      </trkpt>
      <trkpt lat="48.37022" lon="2.74431">
        <ele>125.7</ele>
        <time>2023-07-20T07:19:12Z</time>
      </trkpt>
      <trkpt lat="48.37021" lon="2.74432">
        <ele>125.9</ele>
        <time>2023-07-20T07:19:13Z</time>
      </trkpt>
      <trkpt lat="48.37021" lon="2.74434">
        <ele>126.2</ele>
        <time>2023-07-20T07:19:14Z</time>
      </trkpt>
      <trkpt lat="48.37021" lon="2.74435">
        <ele>126.4</ele>
        <time>2023-07-20T07:19:15Z</time>
      </trkpt>
      <trkpt lat="48.37021" lon="2.74436">
        <ele>126.7</ele>
        <time>2023-07-20T07:19:16Z</time>
      </trkpt>
      <trkpt lat="48.37019" lon="2.74438">
        <ele>127.4</ele>
        <time>2023-07-20T07:19:17Z</time>
      </trkpt>
      <trkpt lat="48.37018" lon="2.74439">
        <ele>127.7</ele>
        <time>2023-07-20T07:19:18Z</time>
      </trkpt>
      <trkpt lat="48.37017" lon="2.7444">
        <ele>127.9</ele>
        <time>2023-07-20T07:19:19Z</time>
      </trkpt>
      <trkpt lat="48.37016" lon="2.74441">
        <ele>128.1</ele>
        <time>2023-07-20T07:19:20Z</time>
      </trkpt>
      <trkpt lat="48.37015" lon="2.7444">
        <ele>128.3</ele>
        <time>2023-07-20T07:19:21Z</time>
      </trkpt>
      <trkpt lat="48.37015" lon="2.74442">
        <ele>128.6</ele>
        <time>2023-07-20T07:19:22Z</time>
      </trkpt>
      <trkpt lat="48.37015" lon="2.74444">
        <ele>128.9</ele>
        <time>2023-07-20T07:19:23Z</time>
      </trkpt>
      <trkpt lat="48.37014" lon="2.74445">
        <ele>129.2</ele>
        <time>2023-07-20T07:19:24Z</time>
      </trkpt>
      <trkpt lat="48.37013" lon="2.74447">
        <ele>129.5</ele>
        <time>2023-07-20T07:19:25Z</time>
      </trkpt>
      <trkpt lat="48.37013" lon="2.74447">
        <ele>129.5</ele>
        <time>2023-07-20T07:19:26Z</time>
      </trkpt>
      <trkpt lat="48.37013" lon="2.74447">
        <ele>129.5</ele>
        <time>2023-07-20T07:19:27Z</time>
      </trkpt>
      <trkpt lat="48.37013" lon="2.74447">
        <ele>129.6</ele>
        <time>2023-07-20T07:19:28Z</time>
      </trkpt>
      <trkpt lat="48.37013" lon="2.74449">
        <ele>129.8</ele>
        <time>2023-07-20T07:19:29Z</time>
      </trkpt>
      <trkpt lat="48.37012" lon="2.7445">
        <ele>130</ele>
        <time>2023-07-20T07:19:30Z</time>
      </trkpt>
      <trkpt lat="48.37011" lon="2.7445">
        <ele>130.2</ele>
        <time>2023-07-20T07:19:31Z</time>
      </trkpt>
      <trkpt lat="48.3701" lon="2.74451">
        <ele>130.3</ele>
        <time>2023-07-20T07:19:32Z</time>
      </trkpt>
      <trkpt lat="48.3701" lon="2.74451">
        <ele>130.4</ele>
        <time>2023-07-20T07:19:33Z</time>
      </trkpt>
      <trkpt lat="48.37009" lon="2.74452">
        <ele>130.6</ele>
        <time>2023-07-20T07:19:34Z</time>
      </trkpt>
      <trkpt lat="48.37008" lon="2.74453">
        <ele>130.7</ele>
        <time>2023-07-20T07:19:35Z</time>
      </trkpt>
      <trkpt lat="48.37008" lon="2.74455">
        <ele>130.8</ele>
        <time>2023-07-20T07:19:36Z</time>
      </trkpt>
      <trkpt lat="48.37007" lon="2.74456">
        <ele>131</ele>
        <time>2023-07-20T07:19:37Z</time>
      </trkpt>
      <trkpt lat="48.37006" lon="2.74457">
        <ele>131.1</ele>
        <time>2023-07-20T07:19:38Z</time>
      </trkpt>
      <trkpt lat="48.37005" lon="2.74458">
        <ele>131.3</ele>
        <time>2023-07-20T07:19:39Z</time>
      </trkpt>
      <trkpt lat="48.37004" lon="2.74458">
        <ele>131.3</ele>
        <time>2023-07-20T07:19:40Z</time>
      </trkpt>
      <trkpt lat="48.37003" lon="2.74459">
        <ele>131.4</ele>
        <time>2023-07-20T07:19:41Z</time>
      </trkpt>
      <trkpt lat="48.37003" lon="2.74459">
        <ele>131.4</ele>
        <time>2023-07-20T07:19:42Z</time>
      </trkpt>
      <trkpt lat="48.37002" lon="2.74459">
        <ele>131.5</ele>
        <time>2023-07-20T07:19:43Z</time>
      </trkpt>
      <trkpt lat="48.37001" lon="2.74459">
        <ele>131.6</ele>
        <time>2023-07-20T07:19:44Z</time>
      </trkpt>
      <trkpt lat="48.37001" lon="2.7446">
        <ele>131.6</ele>
        <time>2023-07-20T07:19:45Z</time>
      </trkpt>
      <trkpt lat="48.37" lon="2.74459">
        <ele>131.7</ele>
        <time>2023-07-20T07:19:46Z</time>
      </trkpt>
      <trkpt lat="48.36999" lon="2.74459">
        <ele>131.7</ele>
        <time>2023-07-20T07:19:47Z</time>
      </trkpt>
      <trkpt lat="48.36998" lon="2.74459">
        <ele>131.8</ele>
        <time>2023-07-20T07:19:48Z</time>
      </trkpt>
      <trkpt lat="48.36997" lon="2.74459">
        <ele>131.8</ele>
        <time>2023-07-20T07:19:49Z</time>
      </trkpt>
      <trkpt lat="48.36996" lon="2.74458">
        <ele>131.9</ele>
        <time>2023-07-20T07:19:50Z</time>
      </trkpt>
      <trkpt lat="48.36995" lon="2.74458">
        <ele>131.9</ele>
        <time>2023-07-20T07:19:51Z</time>
      </trkpt>
      <trkpt lat="48.36995" lon="2.74458">
        <ele>132</ele>
        <time>2023-07-20T07:19:52Z</time>
      </trkpt>
      <trkpt lat="48.36994" lon="2.74459">
        <ele>132</ele>
        <time>2023-07-20T07:19:53Z</time>
      </trkpt>
      <trkpt lat="48.36992" lon="2.74459">
        <ele>132.1</ele>
        <time>2023-07-20T07:19:54Z</time>
      </trkpt>
      <trkpt lat="48.36991" lon="2.74459">
        <ele>132.1</ele>
        <time>2023-07-20T07:19:55Z</time>
      </trkpt>
      <trkpt lat="48.3699" lon="2.74459">
        <ele>132.1</ele>
        <time>2023-07-20T07:19:56Z</time>
      </trkpt>
      <trkpt lat="48.36989" lon="2.74459">
        <ele>132.2</ele>
        <time>2023-07-20T07:19:57Z</time>
      </trkpt>
      <trkpt lat="48.36988" lon="2.74459">
        <ele>132.2</ele>
        <time>2023-07-20T07:19:58Z</time>
      </trkpt>
      <trkpt lat="48.36987" lon="2.74459">
        <ele>132.2</ele>
        <time>2023-07-20T07:19:59Z</time>
      </trkpt>
      <trkpt lat="48.36987" lon="2.74459">
        <ele>132.2</ele>
        <time>2023-07-20T07:20:00Z</time>
      </trkpt>
      <trkpt lat="48.36985" lon="2.7446">
        <ele>132.3</ele>
        <time>2023-07-20T07:20:01Z</time>
      </trkpt>
      <trkpt lat="48.36984" lon="2.74459">
        <ele>132.3</ele>
        <time>2023-07-20T07:20:02Z</time>
      </trkpt>
      <trkpt lat="48.36983" lon="2.74459">
        <ele>132.3</ele>
        <time>2023-07-20T07:20:03Z</time>
      </trkpt>
      <trkpt lat="48.36982" lon="2.74459">
        <ele>132.3</ele>
        <time>2023-07-20T07:20:04Z</time>
      </trkpt>
      <trkpt lat="48.36981" lon="2.74459">
        <ele>132.4</ele>
        <time>2023-07-20T07:20:05Z</time>
      </trkpt>
      <trkpt lat="48.3698" lon="2.7446">
        <ele>132.4</ele>
        <time>2023-07-20T07:20:06Z</time>
      </trkpt>
      <trkpt lat="48.36979" lon="2.74461">
        <ele>132.4</ele>
        <time>2023-07-20T07:20:07Z</time>
      </trkpt>
      <trkpt lat="48.36978" lon="2.74461">
        <ele>132.4</ele>
        <time>2023-07-20T07:20:08Z</time>
      </trkpt>
      <trkpt lat="48.36977" lon="2.74462">
        <ele>132.4</ele>
        <time>2023-07-20T07:20:09Z</time>
      </trkpt>
      <trkpt lat="48.36977" lon="2.74462">
        <ele>132.5</ele>
        <time>2023-07-20T07:20:10Z</time>
      </trkpt>
      <trkpt lat="48.36976" lon="2.74462">
        <ele>132.5</ele>
        <time>2023-07-20T07:20:11Z</time>
      </trkpt>
      <trkpt lat="48.36975" lon="2.74462">
        <ele>132.5</ele>
        <time>2023-07-20T07:20:12Z</time>
      </trkpt>
      <trkpt lat="48.36975" lon="2.74463">
        <ele>132.5</ele>
        <time>2023-07-20T07:20:13Z</time>
      </trkpt>
      <trkpt lat="48.36975" lon="2.74464">
        <ele>132.5</ele>
        <time>2023-07-20T07:20:14Z</time>
      </trkpt>
      <trkpt lat="48.36974" lon="2.74464">
        <ele>132.5</ele>
        <time>2023-07-20T07:20:15Z</time>
      </trkpt>
      <trkpt lat="48.36974" lon="2.74465">
        <ele>132.5</ele>
        <time>2023-07-20T07:20:16Z</time>
      </trkpt>
      <trkpt lat="48.36973" lon="2.74466">
        <ele>132.5</ele>
        <time>2023-07-20T07:20:17Z</time>
      </trkpt>
      <trkpt lat="48.36972" lon="2.74466">
        <ele>132.5</ele>
        <time>2023-07-20T07:20:18Z</time>
      </trkpt>
      <trkpt lat="48.36971" lon="2.74466">
        <ele>132.6</ele>
        <time>2023-07-20T07:20:19Z</time>
      </trkpt>
      <trkpt lat="48.36971" lon="2.74466">
        <ele>132.6</ele>
        <time>2023-07-20T07:20:20Z</time>
      </trkpt>
      <trkpt lat="48.3697" lon="2.74466">
        <ele>132.6</ele>
        <time>2023-07-20T07:20:21Z</time>
      </trkpt>
      <trkpt lat="48.3697" lon="2.74466">
        <ele>132.6</ele>
        <time>2023-07-20T07:20:22Z</time>
      </trkpt>
      <trkpt lat="48.36969" lon="2.74467">
        <ele>132.6</ele>
        <time>2023-07-20T07:20:23Z</time>
      </trkpt>
      <trkpt lat="48.36968" lon="2.74467">
        <ele>132.6</ele>
        <time>2023-07-20T07:20:24Z</time>
      </trkpt>
      <trkpt lat="48.36967" lon="2.74467">
        <ele>132.6</ele>
        <time>2023-07-20T07:20:25Z</time>
      </trkpt>
      <trkpt lat="48.36966" lon="2.74467">
        <ele>132.6</ele>
        <time>2023-07-20T07:20:26Z</time>
      </trkpt>
      <trkpt lat="48.36966" lon="2.74467">
        <ele>132.6</ele>
        <time>2023-07-20T07:20:27Z</time>
      </trkpt>
      <trkpt lat="48.36966" lon="2.74467">
        <ele>132.6</ele>
        <time>2023-07-20T07:20:28Z</time>
      </trkpt>
      <trkpt lat="48.36965" lon="2.74467">
        <ele>132.6</ele>
        <time>2023-07-20T07:20:29Z</time>
      </trkpt>
      <trkpt lat="48.36965" lon="2.74467">
        <ele>132.6</ele>
        <time>2023-07-20T07:20:30Z</time>
      </trkpt>
      <trkpt lat="48.36964" lon="2.74467">
        <ele>132.6</ele>
        <time>2023-07-20T07:20:31Z</time>
      </trkpt>
      <trkpt lat="48.36963" lon="2.74467">
        <ele>132.6</ele>
        <time>2023-07-20T07:20:32Z</time>
      </trkpt>
      <trkpt lat="48.36963" lon="2.74469">
        <ele>132.6</ele>
        <time>2023-07-20T07:20:33Z</time>
      </trkpt>
      <trkpt lat="48.36962" lon="2.7447">
        <ele>132.6</ele>
        <time>2023-07-20T07:20:34Z</time>
      </trkpt>
      <trkpt lat="48.36962" lon="2.74471">
        <ele>132.6</ele>
        <time>2023-07-20T07:20:35Z</time>
      </trkpt>
      <trkpt lat="48.36961" lon="2.74471">
        <ele>132.6</ele>
        <time>2023-07-20T07:20:36Z</time>
      </trkpt>
      <trkpt lat="48.3696" lon="2.74472">
        <ele>132.6</ele>
        <time>2023-07-20T07:20:37Z</time>
      </trkpt>
      <trkpt lat="48.36959" lon="2.74472">
        <ele>132.6</ele>
        <time>2023-07-20T07:20:38Z</time>
      </trkpt>
      <trkpt lat="48.36958" lon="2.74472">
        <ele>132.6</ele>
        <time>2023-07-20T07:20:39Z</time>
      </trkpt>
      <trkpt lat="48.36958" lon="2.74473">
        <ele>132.6</ele>
        <time>2023-07-20T07:20:40Z</time>
      </trkpt>
      <trkpt lat="48.36956" lon="2.74473">
        <ele>132.6</ele>
        <time>2023-07-20T07:20:41Z</time>
      </trkpt>
      <trkpt lat="48.36956" lon="2.74472">
        <ele>132.6</ele>
        <time>2023-07-20T07:20:42Z</time>
      </trkpt>
      <trkpt lat="48.36955" lon="2.74473">
        <ele>132.6</ele>
        <time>2023-07-20T07:20:43Z</time>
      </trkpt>
      <trkpt lat="48.36952" lon="2.74473">
        <ele>132.6</ele>
        <time>2023-07-20T07:20:44Z</time>
      </trkpt>
      <trkpt lat="48.36952" lon="2.74473">
        <ele>132.6</ele>
        <time>2023-07-20T07:20:45Z</time>
      </trkpt>
      <trkpt lat="48.36951" lon="2.74473">
        <ele>132.6</ele>
        <time>2023-07-20T07:20:46Z</time>
      </trkpt>
      <trkpt lat="48.3695" lon="2.74474">
        <ele>132.6</ele>
        <time>2023-07-20T07:20:47Z</time>
      </trkpt>
      <trkpt lat="48.36949" lon="2.74473">
        <ele>132.6</ele>
        <time>2023-07-20T07:20:48Z</time>
      </trkpt>
      <trkpt lat="48.36949" lon="2.74473">
        <ele>132.6</ele>
        <time>2023-07-20T07:20:49Z</time>
      </trkpt>
      <trkpt lat="48.36948" lon="2.74473">
        <ele>132.6</ele>
        <time>2023-07-20T07:20:50Z</time>
      </trkpt>
      <trkpt lat="48.36947" lon="2.74473">
        <ele>132.6</ele>
        <time>2023-07-20T07:20:51Z</time>
      </trkpt>
      <trkpt lat="48.36946" lon="2.74473">
        <ele>132.6</ele>
        <time>2023-07-20T07:20:52Z</time>
      </trkpt>
      <trkpt lat="48.36945" lon="2.74473">
        <ele>132.6</ele>
        <time>2023-07-20T07:20:53Z</time>
      </trkpt>
      <trkpt lat="48.36944" lon="2.74473">
        <ele>132.6</ele>
        <time>2023-07-20T07:20:54Z</time>
      </trkpt>
      <trkpt lat="48.36943" lon="2.74473">
        <ele>132.6</ele>
        <time>2023-07-20T07:20:55Z</time>
      </trkpt>
      <trkpt lat="48.36942" lon="2.74473">
        <ele>132.5</ele>
        <time>2023-07-20T07:20:56Z</time>
      </trkpt>
      <trkpt lat="48.36941" lon="2.74472">
        <ele>132.5</ele>
        <time>2023-07-20T07:20:57Z</time>
      </trkpt>
      <trkpt lat="48.36939" lon="2.74472">
        <ele>132.5</ele>
        <time>2023-07-20T07:20:58Z</time>
      </trkpt>
      <trkpt lat="48.36938" lon="2.74472">
        <ele>132.5</ele>
        <time>2023-07-20T07:20:59Z</time>
      </trkpt>
      <trkpt lat="48.36937" lon="2.74472">
        <ele>132.5</ele>
        <time>2023-07-20T07:21:00Z</time>
      </trkpt>
      <trkpt lat="48.36935" lon="2.74472">
        <ele>132.5</ele>
        <time>2023-07-20T07:21:01Z</time>
      </trkpt>
      <trkpt lat="48.36935" lon="2.74472">
        <ele>132.4</ele>
        <time>2023-07-20T07:21:02Z</time>
      </trkpt>
      <trkpt lat="48.36934" lon="2.74473">
        <ele>132.4</ele>
        <time>2023-07-20T07:21:03Z</time>
      </trkpt>
      <trkpt lat="48.36934" lon="2.74472">
        <ele>132.4</ele>
        <time>2023-07-20T07:21:04Z</time>
      </trkpt>
      <trkpt lat="48.36933" lon="2.74472">
        <ele>132.4</ele>
        <time>2023-07-20T07:21:05Z</time>
      </trkpt>
      <trkpt lat="48.36931" lon="2.74472">
        <ele>132.4</ele>
        <time>2023-07-20T07:21:06Z</time>
      </trkpt>
      <trkpt lat="48.36931" lon="2.74473">
        <ele>132.4</ele>
        <time>2023-07-20T07:21:07Z</time>
      </trkpt>
      <trkpt lat="48.36931" lon="2.74474">
        <ele>132.4</ele>
        <time>2023-07-20T07:21:08Z</time>
      </trkpt>
      <trkpt lat="48.36931" lon="2.74474">
        <ele>132.4</ele>
        <time>2023-07-20T07:21:09Z</time>
      </trkpt>
      <trkpt lat="48.3693" lon="2.74474">
        <ele>132.4</ele>
        <time>2023-07-20T07:21:10Z</time>
      </trkpt>
      <trkpt lat="48.3693" lon="2.74474">
        <ele>132.4</ele>
        <time>2023-07-20T07:21:11Z</time>
      </trkpt>
      <trkpt lat="48.3693" lon="2.74474">
        <ele>132.4</ele>
        <time>2023-07-20T07:21:12Z</time>
      </trkpt>
      <trkpt lat="48.36929" lon="2.74474">
        <ele>132.4</ele>
        <time>2023-07-20T07:21:13Z</time>
      </trkpt>
      <trkpt lat="48.36929" lon="2.74474">
        <ele>132.4</ele>
        <time>2023-07-20T07:21:14Z</time>
      </trkpt>
      <trkpt lat="48.36929" lon="2.74474">
        <ele>132.4</ele>
        <time>2023-07-20T07:21:15Z</time>
      </trkpt>
      <trkpt lat="48.36929" lon="2.74474">
        <ele>132.4</ele>
        <time>2023-07-20T07:21:16Z</time>
      </trkpt>
      <trkpt lat="48.36929" lon="2.74474">
        <ele>132.4</ele>
        <time>2023-07-20T07:21:17Z</time>
      </trkpt>
      <trkpt lat="48.36929" lon="2.74474">
        <ele>132.4</ele>
        <time>2023-07-20T07:21:18Z</time>
      </trkpt>
      <trkpt lat="48.36929" lon="2.74474">
        <ele>132.4</ele>
        <time>2023-07-20T07:21:19Z</time>
      </trkpt>
      <trkpt lat="48.36929" lon="2.74474">
        <ele>132.4</ele>
        <time>2023-07-20T07:21:20Z</time>
      </trkpt>
      <trkpt lat="48.36929" lon="2.74473">
        <ele>132.3</ele>
        <time>2023-07-20T07:21:21Z</time>
      </trkpt>
      <trkpt lat="48.36929" lon="2.74473">
        <ele>132.3</ele>
        <time>2023-07-20T07:21:22Z</time>
      </trkpt>
      <trkpt lat="48.36929" lon="2.74472">
        <ele>132.3</ele>
        <time>2023-07-20T07:21:23Z</time>
      </trkpt>
      <trkpt lat="48.36929" lon="2.74472">
        <ele>132.3</ele>
        <time>2023-07-20T07:21:24Z</time>
      </trkpt>
      <trkpt lat="48.36929" lon="2.74471">
        <ele>132.3</ele>
        <time>2023-07-20T07:21:25Z</time>
      </trkpt>
      <trkpt lat="48.36929" lon="2.74471">
        <ele>132.3</ele>
        <time>2023-07-20T07:21:26Z</time>
      </trkpt>
      <trkpt lat="48.36929" lon="2.7447">
        <ele>132.3</ele>
        <time>2023-07-20T07:21:27Z</time>
      </trkpt>
      <trkpt lat="48.36929" lon="2.7447">
        <ele>132.3</ele>
        <time>2023-07-20T07:21:28Z</time>
      </trkpt>
      <trkpt lat="48.36928" lon="2.7447">
        <ele>132.3</ele>
        <time>2023-07-20T07:21:29Z</time>
      </trkpt>
      <trkpt lat="48.36929" lon="2.74471">
        <ele>132.3</ele>
        <time>2023-07-20T07:21:30Z</time>
      </trkpt>
      <trkpt lat="48.36929" lon="2.74471">
        <ele>132.3</ele>
        <time>2023-07-20T07:21:31Z</time>
      </trkpt>
      <trkpt lat="48.36929" lon="2.74471">
        <ele>132.3</ele>
        <time>2023-07-20T07:21:32Z</time>
      </trkpt>
      <trkpt lat="48.36929" lon="2.7447">
        <ele>132.3</ele>
        <time>2023-07-20T07:21:33Z</time>
      </trkpt>
      <trkpt lat="48.36929" lon="2.7447">
        <ele>132.3</ele>
        <time>2023-07-20T07:21:34Z</time>
      </trkpt>
      <trkpt lat="48.36928" lon="2.74469">
        <ele>132.3</ele>
        <time>2023-07-20T07:21:35Z</time>
      </trkpt>
      <trkpt lat="48.36928" lon="2.74469">
        <ele>132.3</ele>
        <time>2023-07-20T07:21:36Z</time>
      </trkpt>
      <trkpt lat="48.36928" lon="2.74469">
        <ele>132.3</ele>
        <time>2023-07-20T07:21:37Z</time>
      </trkpt>
      <trkpt lat="48.36928" lon="2.74469">
        <ele>132.3</ele>
        <time>2023-07-20T07:21:38Z</time>
      </trkpt>
      <trkpt lat="48.36928" lon="2.74469">
        <ele>132.3</ele>
        <time>2023-07-20T07:21:39Z</time>
      </trkpt>
      <trkpt lat="48.36928" lon="2.74469">
        <ele>132.3</ele>
        <time>2023-07-20T07:21:40Z</time>
      </trkpt>
      <trkpt lat="48.36928" lon="2.74469">
        <ele>132.3</ele>
        <time>2023-07-20T07:21:41Z</time>
      </trkpt>
      <trkpt lat="48.36928" lon="2.74468">
        <ele>132.3</ele>
        <time>2023-07-20T07:21:42Z</time>
      </trkpt>
      <trkpt lat="48.36928" lon="2.74468">
        <ele>132.3</ele>
        <time>2023-07-20T07:21:43Z</time>
      </trkpt>
      <trkpt lat="48.36928" lon="2.74468">
        <ele>132.3</ele>
        <time>2023-07-20T07:21:44Z</time>
      </trkpt>
      <trkpt lat="48.36928" lon="2.74468">
        <ele>132.3</ele>
        <time>2023-07-20T07:21:45Z</time>
      </trkpt>
      <trkpt lat="48.36928" lon="2.74468">
        <ele>132.3</ele>
        <time>2023-07-20T07:21:46Z</time>
      </trkpt>
      <trkpt lat="48.36928" lon="2.74468">
        <ele>132.3</ele>
        <time>2023-07-20T07:21:47Z</time>
      </trkpt>
      <trkpt lat="48.36928" lon="2.74468">
        <ele>132.3</ele>
        <time>2023-07-20T07:21:48Z</time>
      </trkpt>
      <trkpt lat="48.36927" lon="2.74468">
        <ele>132.3</ele>
        <time>2023-07-20T07:21:49Z</time>
      </trkpt>
      <trkpt lat="48.36927" lon="2.74468">
        <ele>132.3</ele>
        <time>2023-07-20T07:21:50Z</time>
      </trkpt>
      <trkpt lat="48.36927" lon="2.74468">
        <ele>132.3</ele>
        <time>2023-07-20T07:21:51Z</time>
      </trkpt>
      <trkpt lat="48.36927" lon="2.74468">
        <ele>132.3</ele>
        <time>2023-07-20T07:21:52Z</time>
      </trkpt>
      <trkpt lat="48.36927" lon="2.74468">
        <ele>132.3</ele>
        <time>2023-07-20T07:21:53Z</time>
      </trkpt>
      <trkpt lat="48.36927" lon="2.74468">
        <ele>132.3</ele>
        <time>2023-07-20T07:21:54Z</time>
      </trkpt>
      <trkpt lat="48.36927" lon="2.74467">
        <ele>132.3</ele>
        <time>2023-07-20T07:21:55Z</time>
      </trkpt>
      <trkpt lat="48.36927" lon="2.74467">
        <ele>132.3</ele>
        <time>2023-07-20T07:21:56Z</time>
      </trkpt>
      <trkpt lat="48.36927" lon="2.74467">
        <ele>132.3</ele>
        <time>2023-07-20T07:21:57Z</time>
      </trkpt>
      <trkpt lat="48.36927" lon="2.74467">
        <ele>132.3</ele>
        <time>2023-07-20T07:21:58Z</time>
      </trkpt>
      <trkpt lat="48.36927" lon="2.74467">
        <ele>132.3</ele>
        <time>2023-07-20T07:21:59Z</time>
      </trkpt>
      <trkpt lat="48.36927" lon="2.74466">
        <ele>132.3</ele>
        <time>2023-07-20T07:22:00Z</time>
      </trkpt>
      <trkpt lat="48.36927" lon="2.74466">
        <ele>132.3</ele>
        <time>2023-07-20T07:22:01Z</time>
      </trkpt>
      <trkpt lat="48.36927" lon="2.74466">
        <ele>132.3</ele>
        <time>2023-07-20T07:22:02Z</time>
      </trkpt>
      <trkpt lat="48.36927" lon="2.74466">
        <ele>132.3</ele>
        <time>2023-07-20T07:22:03Z</time>
      </trkpt>
      <trkpt lat="48.36927" lon="2.74466">
        <ele>132.3</ele>
        <time>2023-07-20T07:22:04Z</time>
      </trkpt>
      <trkpt lat="48.36927" lon="2.74466">
        <ele>132.2</ele>
        <time>2023-07-20T07:22:05Z</time>
      </trkpt>
      <trkpt lat="48.36925" lon="2.74464">
        <ele>132.2</ele>
        <time>2023-07-20T07:22:06Z</time>
      </trkpt>
      <trkpt lat="48.36924" lon="2.74465">
        <ele>132.2</ele>
        <time>2023-07-20T07:22:07Z</time>
      </trkpt>
      <trkpt lat="48.36924" lon="2.74465">
        <ele>132.2</ele>
        <time>2023-07-20T07:22:08Z</time>
      </trkpt>
      <trkpt lat="48.36923" lon="2.74465">
        <ele>132.2</ele>
        <time>2023-07-20T07:22:09Z</time>
      </trkpt>
      <trkpt lat="48.36923" lon="2.74464">
        <ele>132.2</ele>
        <time>2023-07-20T07:22:10Z</time>
      </trkpt>
      <trkpt lat="48.36922" lon="2.74464">
        <ele>132.2</ele>
        <time>2023-07-20T07:22:11Z</time>
      </trkpt>
      <trkpt lat="48.36921" lon="2.74464">
        <ele>132.2</ele>
        <time>2023-07-20T07:22:12Z</time>
      </trkpt>
      <trkpt lat="48.36921" lon="2.74464">
        <ele>132.2</ele>
        <time>2023-07-20T07:22:13Z</time>
      </trkpt>
      <trkpt lat="48.3692" lon="2.74464">
        <ele>132.2</ele>
        <time>2023-07-20T07:22:14Z</time>
      </trkpt>
      <trkpt lat="48.36919" lon="2.74464">
        <ele>132.2</ele>
        <time>2023-07-20T07:22:15Z</time>
      </trkpt>
      <trkpt lat="48.36919" lon="2.74464">
        <ele>132.2</ele>
        <time>2023-07-20T07:22:16Z</time>
      </trkpt>
      <trkpt lat="48.36918" lon="2.74463">
        <ele>132.2</ele>
        <time>2023-07-20T07:22:17Z</time>
      </trkpt>
      <trkpt lat="48.36918" lon="2.74462">
        <ele>132.1</ele>
        <time>2023-07-20T07:22:18Z</time>
      </trkpt>
      <trkpt lat="48.36917" lon="2.74462">
        <ele>132.1</ele>
        <time>2023-07-20T07:22:19Z</time>
      </trkpt>
      <trkpt lat="48.36916" lon="2.74462">
        <ele>132.1</ele>
        <time>2023-07-20T07:22:20Z</time>
      </trkpt>
      <trkpt lat="48.36915" lon="2.74461">
        <ele>132.1</ele>
        <time>2023-07-20T07:22:21Z</time>
      </trkpt>
      <trkpt lat="48.36914" lon="2.7446">
        <ele>132.1</ele>
        <time>2023-07-20T07:22:22Z</time>
      </trkpt>
      <trkpt lat="48.36914" lon="2.74459">
        <ele>132.1</ele>
        <time>2023-07-20T07:22:23Z</time>
      </trkpt>
      <trkpt lat="48.36914" lon="2.74459">
        <ele>132.1</ele>
        <time>2023-07-20T07:22:24Z</time>
      </trkpt>
      <trkpt lat="48.36913" lon="2.7446">
        <ele>132.1</ele>
        <time>2023-07-20T07:22:25Z</time>
      </trkpt>
      <trkpt lat="48.36913" lon="2.7446">
        <ele>132.1</ele>
        <time>2023-07-20T07:22:26Z</time>
      </trkpt>
      <trkpt lat="48.36912" lon="2.7446">
        <ele>132.1</ele>
        <time>2023-07-20T07:22:27Z</time>
      </trkpt>
      <trkpt lat="48.36912" lon="2.7446">
        <ele>132.1</ele>
        <time>2023-07-20T07:22:28Z</time>
      </trkpt>
      <trkpt lat="48.36911" lon="2.7446">
        <ele>132.1</ele>
        <time>2023-07-20T07:22:29Z</time>
      </trkpt>
      <trkpt lat="48.3691" lon="2.74461">
        <ele>132.1</ele>
        <time>2023-07-20T07:22:30Z</time>
      </trkpt>
      <trkpt lat="48.36909" lon="2.74461">
        <ele>132.1</ele>
        <time>2023-07-20T07:22:31Z</time>
      </trkpt>
      <trkpt lat="48.36908" lon="2.74461">
        <ele>132</ele>
        <time>2023-07-20T07:22:32Z</time>
      </trkpt>
      <trkpt lat="48.36908" lon="2.74461">
        <ele>132</ele>
        <time>2023-07-20T07:22:33Z</time>
      </trkpt>
      <trkpt lat="48.36907" lon="2.74461">
        <ele>132</ele>
        <time>2023-07-20T07:22:34Z</time>
      </trkpt>
      <trkpt lat="48.36907" lon="2.7446">
        <ele>132</ele>
        <time>2023-07-20T07:22:35Z</time>
      </trkpt>
      <trkpt lat="48.36906" lon="2.7446">
        <ele>132</ele>
        <time>2023-07-20T07:22:36Z</time>
      </trkpt>
      <trkpt lat="48.36905" lon="2.7446">
        <ele>132</ele>
        <time>2023-07-20T07:22:37Z</time>
      </trkpt>
      <trkpt lat="48.36905" lon="2.7446">
        <ele>132</ele>
        <time>2023-07-20T07:22:38Z</time>
      </trkpt>
      <trkpt lat="48.36904" lon="2.74459">
        <ele>132</ele>
        <time>2023-07-20T07:22:39Z</time>
      </trkpt>
      <trkpt lat="48.36904" lon="2.74459">
        <ele>132</ele>
        <time>2023-07-20T07:22:40Z</time>
      </trkpt>
      <trkpt lat="48.36903" lon="2.74459">
        <ele>132</ele>
        <time>2023-07-20T07:22:41Z</time>
      </trkpt>
      <trkpt lat="48.36902" lon="2.74458">
        <ele>132</ele>
        <time>2023-07-20T07:22:42Z</time>
      </trkpt>
      <trkpt lat="48.36902" lon="2.74458">
        <ele>132</ele>
        <time>2023-07-20T07:22:43Z</time>
      </trkpt>
      <trkpt lat="48.36901" lon="2.74458">
        <ele>132</ele>
        <time>2023-07-20T07:22:44Z</time>
      </trkpt>
      <trkpt lat="48.369" lon="2.74458">
        <ele>132</ele>
        <time>2023-07-20T07:22:45Z</time>
      </trkpt>
      <trkpt lat="48.36899" lon="2.74459">
        <ele>132</ele>
        <time>2023-07-20T07:22:46Z</time>
      </trkpt>
      <trkpt lat="48.36897" lon="2.74459">
        <ele>132</ele>
        <time>2023-07-20T07:22:47Z</time>
      </trkpt>
      <trkpt lat="48.36897" lon="2.74458">
        <ele>132</ele>
        <time>2023-07-20T07:22:48Z</time>
      </trkpt>
      <trkpt lat="48.36896" lon="2.74457">
        <ele>132</ele>
        <time>2023-07-20T07:22:49Z</time>
      </trkpt>
      <trkpt lat="48.36895" lon="2.74456">
        <ele>132</ele>
        <time>2023-07-20T07:22:50Z</time>
      </trkpt>
      <trkpt lat="48.36894" lon="2.74456">
        <ele>132</ele>
        <time>2023-07-20T07:22:51Z</time>
      </trkpt>
      <trkpt lat="48.36893" lon="2.74455">
        <ele>132</ele>
        <time>2023-07-20T07:22:52Z</time>
      </trkpt>
      <trkpt lat="48.36892" lon="2.74455">
        <ele>132</ele>
        <time>2023-07-20T07:22:53Z</time>
      </trkpt>
      <trkpt lat="48.3689" lon="2.74451">
        <ele>132</ele>
        <time>2023-07-20T07:22:54Z</time>
      </trkpt>
      <trkpt lat="48.36889" lon="2.7445">
        <ele>132</ele>
        <time>2023-07-20T07:22:55Z</time>
      </trkpt>
      <trkpt lat="48.36889" lon="2.7445">
        <ele>132</ele>
        <time>2023-07-20T07:22:56Z</time>
      </trkpt>
      <trkpt lat="48.36888" lon="2.7445">
        <ele>132</ele>
        <time>2023-07-20T07:22:57Z</time>
      </trkpt>
      <trkpt lat="48.36887" lon="2.74449">
        <ele>132</ele>
        <time>2023-07-20T07:22:58Z</time>
      </trkpt>
      <trkpt lat="48.36887" lon="2.74448">
        <ele>132</ele>
        <time>2023-07-20T07:22:59Z</time>
      </trkpt>
      <trkpt lat="48.36887" lon="2.74447">
        <ele>132</ele>
        <time>2023-07-20T07:23:00Z</time>
      </trkpt>
      <trkpt lat="48.36886" lon="2.74446">
        <ele>132</ele>
        <time>2023-07-20T07:23:01Z</time>
      </trkpt>
      <trkpt lat="48.36885" lon="2.74446">
        <ele>132</ele>
        <time>2023-07-20T07:23:02Z</time>
      </trkpt>
      <trkpt lat="48.36884" lon="2.74446">
        <ele>131.9</ele>
        <time>2023-07-20T07:23:03Z</time>
      </trkpt>
      <trkpt lat="48.36884" lon="2.74445">
        <ele>131.9</ele>
        <time>2023-07-20T07:23:04Z</time>
      </trkpt>
      <trkpt lat="48.36884" lon="2.74445">
        <ele>131.9</ele>
        <time>2023-07-20T07:23:05Z</time>
      </trkpt>
      <trkpt lat="48.36883" lon="2.74444">
        <ele>131.9</ele>
        <time>2023-07-20T07:23:06Z</time>
      </trkpt>
      <trkpt lat="48.36882" lon="2.74443">
        <ele>131.9</ele>
        <time>2023-07-20T07:23:07Z</time>
      </trkpt>
      <trkpt lat="48.36882" lon="2.74442">
        <ele>131.9</ele>
        <time>2023-07-20T07:23:08Z</time>
      </trkpt>
      <trkpt lat="48.36881" lon="2.74442">
        <ele>131.9</ele>
        <time>2023-07-20T07:23:09Z</time>
      </trkpt>
      <trkpt lat="48.3688" lon="2.74441">
        <ele>131.9</ele>
        <time>2023-07-20T07:23:10Z</time>
      </trkpt>
      <trkpt lat="48.36879" lon="2.7444">
        <ele>131.9</ele>
        <time>2023-07-20T07:23:11Z</time>
      </trkpt>
      <trkpt lat="48.36878" lon="2.74441">
        <ele>131.9</ele>
        <time>2023-07-20T07:23:12Z</time>
      </trkpt>
      <trkpt lat="48.36878" lon="2.7444">
        <ele>131.9</ele>
        <time>2023-07-20T07:23:13Z</time>
      </trkpt>
      <trkpt lat="48.36878" lon="2.74439">
        <ele>131.9</ele>
        <time>2023-07-20T07:23:14Z</time>
      </trkpt>
      <trkpt lat="48.36878" lon="2.74438">
        <ele>131.8</ele>
        <time>2023-07-20T07:23:15Z</time>
      </trkpt>
      <trkpt lat="48.36877" lon="2.74438">
        <ele>131.8</ele>
        <time>2023-07-20T07:23:16Z</time>
      </trkpt>
      <trkpt lat="48.36877" lon="2.74437">
        <ele>131.8</ele>
        <time>2023-07-20T07:23:17Z</time>
      </trkpt>
      <trkpt lat="48.36876" lon="2.74436">
        <ele>131.8</ele>
        <time>2023-07-20T07:23:18Z</time>
      </trkpt>
      <trkpt lat="48.36876" lon="2.74435">
        <ele>131.8</ele>
        <time>2023-07-20T07:23:19Z</time>
      </trkpt>
      <trkpt lat="48.36875" lon="2.74432">
        <ele>131.8</ele>
        <time>2023-07-20T07:23:20Z</time>
      </trkpt>
      <trkpt lat="48.36875" lon="2.7443">
        <ele>131.7</ele>
        <time>2023-07-20T07:23:21Z</time>
      </trkpt>
      <trkpt lat="48.36874" lon="2.74428">
        <ele>131.7</ele>
        <time>2023-07-20T07:23:22Z</time>
      </trkpt>
      <trkpt lat="48.36873" lon="2.74428">
        <ele>131.7</ele>
        <time>2023-07-20T07:23:23Z</time>
      </trkpt>
      <trkpt lat="48.36873" lon="2.74426">
        <ele>131.7</ele>
        <time>2023-07-20T07:23:24Z</time>
      </trkpt>
      <trkpt lat="48.36873" lon="2.74426">
        <ele>131.7</ele>
        <time>2023-07-20T07:23:25Z</time>
      </trkpt>
      <trkpt lat="48.36873" lon="2.74425">
        <ele>131.7</ele>
        <time>2023-07-20T07:23:26Z</time>
      </trkpt>
      <trkpt lat="48.36873" lon="2.74424">
        <ele>131.7</ele>
        <time>2023-07-20T07:23:27Z</time>
      </trkpt>
      <trkpt lat="48.36872" lon="2.74423">
        <ele>131.7</ele>
        <time>2023-07-20T07:23:28Z</time>
      </trkpt>
      <trkpt lat="48.36872" lon="2.74423">
        <ele>131.6</ele>
        <time>2023-07-20T07:23:29Z</time>
      </trkpt>
      <trkpt lat="48.36871" lon="2.74421">
        <ele>131.6</ele>
        <time>2023-07-20T07:23:30Z</time>
      </trkpt>
      <trkpt lat="48.3687" lon="2.7442">
        <ele>131.6</ele>
        <time>2023-07-20T07:23:31Z</time>
      </trkpt>
      <trkpt lat="48.36869" lon="2.74419">
        <ele>131.6</ele>
        <time>2023-07-20T07:23:32Z</time>
      </trkpt>
      <trkpt lat="48.36869" lon="2.74418">
        <ele>131.6</ele>
        <time>2023-07-20T07:23:33Z</time>
      </trkpt>
      <trkpt lat="48.36869" lon="2.74418">
        <ele>131.6</ele>
        <time>2023-07-20T07:23:34Z</time>
      </trkpt>
      <trkpt lat="48.36869" lon="2.74417">
        <ele>131.6</ele>
        <time>2023-07-20T07:23:35Z</time>
      </trkpt>
      <trkpt lat="48.36868" lon="2.74415">
        <ele>131.6</ele>
        <time>2023-07-20T07:23:36Z</time>
      </trkpt>
      <trkpt lat="48.36868" lon="2.74414">
        <ele>131.6</ele>
        <time>2023-07-20T07:23:37Z</time>
      </trkpt>
      <trkpt lat="48.36867" lon="2.74412">
        <ele>131.6</ele>
        <time>2023-07-20T07:23:38Z</time>
      </trkpt>
      <trkpt lat="48.36867" lon="2.7441">
        <ele>131.6</ele>
        <time>2023-07-20T07:23:39Z</time>
      </trkpt>
      <trkpt lat="48.36866" lon="2.74408">
        <ele>131.6</ele>
        <time>2023-07-20T07:23:40Z</time>
      </trkpt>
      <trkpt lat="48.36865" lon="2.74407">
        <ele>131.5</ele>
        <time>2023-07-20T07:23:41Z</time>
      </trkpt>
      <trkpt lat="48.36865" lon="2.74405">
        <ele>131.5</ele>
        <time>2023-07-20T07:23:42Z</time>
      </trkpt>
      <trkpt lat="48.36864" lon="2.74404">
        <ele>131.5</ele>
        <time>2023-07-20T07:23:43Z</time>
      </trkpt>
      <trkpt lat="48.36864" lon="2.74403">
        <ele>131.5</ele>
        <time>2023-07-20T07:23:44Z</time>
      </trkpt>
      <trkpt lat="48.36864" lon="2.74401">
        <ele>131.5</ele>
        <time>2023-07-20T07:23:45Z</time>
      </trkpt>
      <trkpt lat="48.36864" lon="2.744">
        <ele>131.5</ele>
        <time>2023-07-20T07:23:46Z</time>
      </trkpt>
      <trkpt lat="48.36863" lon="2.744">
        <ele>131.5</ele>
        <time>2023-07-20T07:23:47Z</time>
      </trkpt>
      <trkpt lat="48.36863" lon="2.74397">
        <ele>131.5</ele>
        <time>2023-07-20T07:23:48Z</time>
      </trkpt>
      <trkpt lat="48.36862" lon="2.74396">
        <ele>131.5</ele>
        <time>2023-07-20T07:23:49Z</time>
      </trkpt>
      <trkpt lat="48.36862" lon="2.74394">
        <ele>131.5</ele>
        <time>2023-07-20T07:23:50Z</time>
      </trkpt>
      <trkpt lat="48.36862" lon="2.7439">
        <ele>131.5</ele>
        <time>2023-07-20T07:23:51Z</time>
      </trkpt>
      <trkpt lat="48.36862" lon="2.74389">
        <ele>131.5</ele>
        <time>2023-07-20T07:23:52Z</time>
      </trkpt>
      <trkpt lat="48.36862" lon="2.74383">
        <ele>131.5</ele>
        <time>2023-07-20T07:23:53Z</time>
      </trkpt>
      <trkpt lat="48.36862" lon="2.74382">
        <ele>131.5</ele>
        <time>2023-07-20T07:23:54Z</time>
      </trkpt>
      <trkpt lat="48.36861" lon="2.7438">
        <ele>131.5</ele>
        <time>2023-07-20T07:23:55Z</time>
      </trkpt>
      <trkpt lat="48.36861" lon="2.74377">
        <ele>131.5</ele>
        <time>2023-07-20T07:23:56Z</time>
      </trkpt>
      <trkpt lat="48.3686" lon="2.74375">
        <ele>131.5</ele>
        <time>2023-07-20T07:23:57Z</time>
      </trkpt>
      <trkpt lat="48.3686" lon="2.74374">
        <ele>131.5</ele>
        <time>2023-07-20T07:23:58Z</time>
      </trkpt>
      <trkpt lat="48.36859" lon="2.74373">
        <ele>131.5</ele>
        <time>2023-07-20T07:23:59Z</time>
      </trkpt>
      <trkpt lat="48.36859" lon="2.74372">
        <ele>131.6</ele>
        <time>2023-07-20T07:24:00Z</time>
      </trkpt>
      <trkpt lat="48.36858" lon="2.7437">
        <ele>131.6</ele>
        <time>2023-07-20T07:24:01Z</time>
      </trkpt>
      <trkpt lat="48.36858" lon="2.7437">
        <ele>131.6</ele>
        <time>2023-07-20T07:24:02Z</time>
      </trkpt>
      <trkpt lat="48.36858" lon="2.74369">
        <ele>131.6</ele>
        <time>2023-07-20T07:24:03Z</time>
      </trkpt>
      <trkpt lat="48.36858" lon="2.74369">
        <ele>131.6</ele>
        <time>2023-07-20T07:24:04Z</time>
      </trkpt>
      <trkpt lat="48.36858" lon="2.74369">
        <ele>131.6</ele>
        <time>2023-07-20T07:24:05Z</time>
      </trkpt>
      <trkpt lat="48.36857" lon="2.74367">
        <ele>131.6</ele>
        <time>2023-07-20T07:24:06Z</time>
      </trkpt>
      <trkpt lat="48.36857" lon="2.74366">
        <ele>131.6</ele>
        <time>2023-07-20T07:24:07Z</time>
      </trkpt>
      <trkpt lat="48.36857" lon="2.74365">
        <ele>131.6</ele>
        <time>2023-07-20T07:24:08Z</time>
      </trkpt>
      <trkpt lat="48.36857" lon="2.74364">
        <ele>131.6</ele>
        <time>2023-07-20T07:24:09Z</time>
      </trkpt>
      <trkpt lat="48.36856" lon="2.74363">
        <ele>131.6</ele>
        <time>2023-07-20T07:24:10Z</time>
      </trkpt>
      <trkpt lat="48.36856" lon="2.74362">
        <ele>131.6</ele>
        <time>2023-07-20T07:24:11Z</time>
      </trkpt>
      <trkpt lat="48.36856" lon="2.74361">
        <ele>131.6</ele>
        <time>2023-07-20T07:24:12Z</time>
      </trkpt>
      <trkpt lat="48.36856" lon="2.7436">
        <ele>131.6</ele>
        <time>2023-07-20T07:24:13Z</time>
      </trkpt>
      <trkpt lat="48.36856" lon="2.74359">
        <ele>131.6</ele>
        <time>2023-07-20T07:24:14Z</time>
      </trkpt>
      <trkpt lat="48.36855" lon="2.74357">
        <ele>131.6</ele>
        <time>2023-07-20T07:24:15Z</time>
      </trkpt>
      <trkpt lat="48.36854" lon="2.74355">
        <ele>131.6</ele>
        <time>2023-07-20T07:24:16Z</time>
      </trkpt>
      <trkpt lat="48.36854" lon="2.74354">
        <ele>131.6</ele>
        <time>2023-07-20T07:24:17Z</time>
      </trkpt>
      <trkpt lat="48.36854" lon="2.74353">
        <ele>131.6</ele>
        <time>2023-07-20T07:24:18Z</time>
      </trkpt>
      <trkpt lat="48.36853" lon="2.74351">
        <ele>131.6</ele>
        <time>2023-07-20T07:24:19Z</time>
      </trkpt>
      <trkpt lat="48.36852" lon="2.74349">
        <ele>131.6</ele>
        <time>2023-07-20T07:24:20Z</time>
      </trkpt>
      <trkpt lat="48.36851" lon="2.74348">
        <ele>131.6</ele>
        <time>2023-07-20T07:24:21Z</time>
      </trkpt>
      <trkpt lat="48.36851" lon="2.74347">
        <ele>131.7</ele>
        <time>2023-07-20T07:24:22Z</time>
      </trkpt>
      <trkpt lat="48.3685" lon="2.74346">
        <ele>131.7</ele>
        <time>2023-07-20T07:24:23Z</time>
      </trkpt>
      <trkpt lat="48.36849" lon="2.74344">
        <ele>131.7</ele>
        <time>2023-07-20T07:24:24Z</time>
      </trkpt>
      <trkpt lat="48.36849" lon="2.74343">
        <ele>131.7</ele>
        <time>2023-07-20T07:24:25Z</time>
      </trkpt>
      <trkpt lat="48.36848" lon="2.74341">
        <ele>131.7</ele>
        <time>2023-07-20T07:24:26Z</time>
      </trkpt>
      <trkpt lat="48.36847" lon="2.7434">
        <ele>131.7</ele>
        <time>2023-07-20T07:24:27Z</time>
      </trkpt>
      <trkpt lat="48.36846" lon="2.74339">
        <ele>131.7</ele>
        <time>2023-07-20T07:24:28Z</time>
      </trkpt>
      <trkpt lat="48.36846" lon="2.74338">
        <ele>131.7</ele>
        <time>2023-07-20T07:24:29Z</time>
      </trkpt>
      <trkpt lat="48.36846" lon="2.74338">
        <ele>131.7</ele>
        <time>2023-07-20T07:24:30Z</time>
      </trkpt>
      <trkpt lat="48.36845" lon="2.74338">
        <ele>131.7</ele>
        <time>2023-07-20T07:24:31Z</time>
      </trkpt>
      <trkpt lat="48.36845" lon="2.74337">
        <ele>131.7</ele>
        <time>2023-07-20T07:24:32Z</time>
      </trkpt>
      <trkpt lat="48.36845" lon="2.74337">
        <ele>131.7</ele>
        <time>2023-07-20T07:24:33Z</time>
      </trkpt>
      <trkpt lat="48.36845" lon="2.74337">
        <ele>131.7</ele>
        <time>2023-07-20T07:24:34Z</time>
      </trkpt>
      <trkpt lat="48.36846" lon="2.74335">
        <ele>131.7</ele>
        <time>2023-07-20T07:24:35Z</time>
      </trkpt>
      <trkpt lat="48.36846" lon="2.74334">
        <ele>131.7</ele>
        <time>2023-07-20T07:24:36Z</time>
      </trkpt>
      <trkpt lat="48.36846" lon="2.74331">
        <ele>131.7</ele>
        <time>2023-07-20T07:24:37Z</time>
      </trkpt>
      <trkpt lat="48.36846" lon="2.74329">
        <ele>131.7</ele>
        <time>2023-07-20T07:24:38Z</time>
      </trkpt>
      <trkpt lat="48.36846" lon="2.74328">
        <ele>131.7</ele>
        <time>2023-07-20T07:24:39Z</time>
      </trkpt>
      <trkpt lat="48.36847" lon="2.74326">
        <ele>131.7</ele>
        <time>2023-07-20T07:24:40Z</time>
      </trkpt>
      <trkpt lat="48.36847" lon="2.74324">
        <ele>131.8</ele>
        <time>2023-07-20T07:24:41Z</time>
      </trkpt>
      <trkpt lat="48.36847" lon="2.74322">
        <ele>131.8</ele>
        <time>2023-07-20T07:24:42Z</time>
      </trkpt>
      <trkpt lat="48.36846" lon="2.74319">
        <ele>131.8</ele>
        <time>2023-07-20T07:24:43Z</time>
      </trkpt>
      <trkpt lat="48.36846" lon="2.74317">
        <ele>131.8</ele>
        <time>2023-07-20T07:24:44Z</time>
      </trkpt>
      <trkpt lat="48.36846" lon="2.74314">
        <ele>131.8</ele>
        <time>2023-07-20T07:24:45Z</time>
      </trkpt>
      <trkpt lat="48.36845" lon="2.74311">
        <ele>131.8</ele>
        <time>2023-07-20T07:24:46Z</time>
      </trkpt>
      <trkpt lat="48.36845" lon="2.74309">
        <ele>131.9</ele>
        <time>2023-07-20T07:24:47Z</time>
      </trkpt>
      <trkpt lat="48.36845" lon="2.74308">
        <ele>131.9</ele>
        <time>2023-07-20T07:24:48Z</time>
      </trkpt>
      <trkpt lat="48.36845" lon="2.74306">
        <ele>131.9</ele>
        <time>2023-07-20T07:24:49Z</time>
      </trkpt>
      <trkpt lat="48.36846" lon="2.74304">
        <ele>131.9</ele>
        <time>2023-07-20T07:24:50Z</time>
      </trkpt>
      <trkpt lat="48.36846" lon="2.74304">
        <ele>131.9</ele>
        <time>2023-07-20T07:24:51Z</time>
      </trkpt>
      <trkpt lat="48.36846" lon="2.74302">
        <ele>132</ele>
        <time>2023-07-20T07:24:52Z</time>
      </trkpt>
      <trkpt lat="48.36846" lon="2.74301">
        <ele>132</ele>
        <time>2023-07-20T07:24:53Z</time>
      </trkpt>
      <trkpt lat="48.36847" lon="2.74301">
        <ele>132</ele>
        <time>2023-07-20T07:24:54Z</time>
      </trkpt>
      <trkpt lat="48.36847" lon="2.74299">
        <ele>132</ele>
        <time>2023-07-20T07:24:55Z</time>
      </trkpt>
      <trkpt lat="48.36847" lon="2.74297">
        <ele>132</ele>
        <time>2023-07-20T07:24:56Z</time>
      </trkpt>
      <trkpt lat="48.36847" lon="2.74296">
        <ele>132</ele>
        <time>2023-07-20T07:24:57Z</time>
      </trkpt>
      <trkpt lat="48.36846" lon="2.74294">
        <ele>132.1</ele>
        <time>2023-07-20T07:24:58Z</time>
      </trkpt>
      <trkpt lat="48.36846" lon="2.74292">
        <ele>132.1</ele>
        <time>2023-07-20T07:24:59Z</time>
      </trkpt>
      <trkpt lat="48.36846" lon="2.7429">
        <ele>132.1</ele>
        <time>2023-07-20T07:25:00Z</time>
      </trkpt>
      <trkpt lat="48.36845" lon="2.74287">
        <ele>132.2</ele>
        <time>2023-07-20T07:25:01Z</time>
      </trkpt>
      <trkpt lat="48.36844" lon="2.74287">
        <ele>132.2</ele>
        <time>2023-07-20T07:25:02Z</time>
      </trkpt>
      <trkpt lat="48.36844" lon="2.74286">
        <ele>132.2</ele>
        <time>2023-07-20T07:25:03Z</time>
      </trkpt>
      <trkpt lat="48.36844" lon="2.74285">
        <ele>132.2</ele>
        <time>2023-07-20T07:25:04Z</time>
      </trkpt>
      <trkpt lat="48.36844" lon="2.74283">
        <ele>132.2</ele>
        <time>2023-07-20T07:25:05Z</time>
      </trkpt>
      <trkpt lat="48.36843" lon="2.74281">
        <ele>132.3</ele>
        <time>2023-07-20T07:25:06Z</time>
      </trkpt>
      <trkpt lat="48.36843" lon="2.7428">
        <ele>132.3</ele>
        <time>2023-07-20T07:25:07Z</time>
      </trkpt>
      <trkpt lat="48.36843" lon="2.74279">
        <ele>132.3</ele>
        <time>2023-07-20T07:25:08Z</time>
      </trkpt>
      <trkpt lat="48.36843" lon="2.74277">
        <ele>132.3</ele>
        <time>2023-07-20T07:25:09Z</time>
      </trkpt>
      <trkpt lat="48.36843" lon="2.74276">
        <ele>132.3</ele>
        <time>2023-07-20T07:25:10Z</time>
      </trkpt>
      <trkpt lat="48.36844" lon="2.74274">
        <ele>132.4</ele>
        <time>2023-07-20T07:25:11Z</time>
      </trkpt>
      <trkpt lat="48.36844" lon="2.74274">
        <ele>132.4</ele>
        <time>2023-07-20T07:25:12Z</time>
      </trkpt>
      <trkpt lat="48.36845" lon="2.74274">
        <ele>132.4</ele>
        <time>2023-07-20T07:25:13Z</time>
      </trkpt>
      <trkpt lat="48.36845" lon="2.74272">
        <ele>132.4</ele>
        <time>2023-07-20T07:25:14Z</time>
      </trkpt>
      <trkpt lat="48.36845" lon="2.7427">
        <ele>132.5</ele>
        <time>2023-07-20T07:25:15Z</time>
      </trkpt>
      <trkpt lat="48.36846" lon="2.74268">
        <ele>132.5</ele>
        <time>2023-07-20T07:25:16Z</time>
      </trkpt>
      <trkpt lat="48.36848" lon="2.74266">
        <ele>132.5</ele>
        <time>2023-07-20T07:25:17Z</time>
      </trkpt>
      <trkpt lat="48.36848" lon="2.74265">
        <ele>132.6</ele>
        <time>2023-07-20T07:25:18Z</time>
      </trkpt>
      <trkpt lat="48.36848" lon="2.74263">
        <ele>132.6</ele>
        <time>2023-07-20T07:25:19Z</time>
      </trkpt>
      <trkpt lat="48.36848" lon="2.74262">
        <ele>132.6</ele>
        <time>2023-07-20T07:25:20Z</time>
      </trkpt>
      <trkpt lat="48.36849" lon="2.7426">
        <ele>132.6</ele>
        <time>2023-07-20T07:25:21Z</time>
      </trkpt>
      <trkpt lat="48.36849" lon="2.74258">
        <ele>132.7</ele>
        <time>2023-07-20T07:25:22Z</time>
      </trkpt>
      <trkpt lat="48.3685" lon="2.74257">
        <ele>132.7</ele>
        <time>2023-07-20T07:25:23Z</time>
      </trkpt>
      <trkpt lat="48.3685" lon="2.74257">
        <ele>132.7</ele>
        <time>2023-07-20T07:25:24Z</time>
      </trkpt>
      <trkpt lat="48.3685" lon="2.74256">
        <ele>132.7</ele>
        <time>2023-07-20T07:25:25Z</time>
      </trkpt>
      <trkpt lat="48.36851" lon="2.74255">
        <ele>132.7</ele>
        <time>2023-07-20T07:25:26Z</time>
      </trkpt>
      <trkpt lat="48.36851" lon="2.74254">
        <ele>132.7</ele>
        <time>2023-07-20T07:25:27Z</time>
      </trkpt>
      <trkpt lat="48.36852" lon="2.74252">
        <ele>132.7</ele>
        <time>2023-07-20T07:25:28Z</time>
      </trkpt>
      <trkpt lat="48.36852" lon="2.74251">
        <ele>132.7</ele>
        <time>2023-07-20T07:25:29Z</time>
      </trkpt>
      <trkpt lat="48.36853" lon="2.7425">
        <ele>132.8</ele>
        <time>2023-07-20T07:25:30Z</time>
      </trkpt>
      <trkpt lat="48.36854" lon="2.74249">
        <ele>132.8</ele>
        <time>2023-07-20T07:25:31Z</time>
      </trkpt>
      <trkpt lat="48.36854" lon="2.74247">
        <ele>132.8</ele>
        <time>2023-07-20T07:25:32Z</time>
      </trkpt>
      <trkpt lat="48.36855" lon="2.74246">
        <ele>132.8</ele>
        <time>2023-07-20T07:25:33Z</time>
      </trkpt>
      <trkpt lat="48.36855" lon="2.74246">
        <ele>132.8</ele>
        <time>2023-07-20T07:25:34Z</time>
      </trkpt>
      <trkpt lat="48.36856" lon="2.74245">
        <ele>132.8</ele>
        <time>2023-07-20T07:25:35Z</time>
      </trkpt>
      <trkpt lat="48.36856" lon="2.74243">
        <ele>132.8</ele>
        <time>2023-07-20T07:25:36Z</time>
      </trkpt>
      <trkpt lat="48.36856" lon="2.74242">
        <ele>132.8</ele>
        <time>2023-07-20T07:25:37Z</time>
      </trkpt>
      <trkpt lat="48.36856" lon="2.74241">
        <ele>132.8</ele>
        <time>2023-07-20T07:25:38Z</time>
      </trkpt>
      <trkpt lat="48.36857" lon="2.7424">
        <ele>132.8</ele>
        <time>2023-07-20T07:25:39Z</time>
      </trkpt>
      <trkpt lat="48.36857" lon="2.74237">
        <ele>132.9</ele>
        <time>2023-07-20T07:25:40Z</time>
      </trkpt>
      <trkpt lat="48.36857" lon="2.74235">
        <ele>132.9</ele>
        <time>2023-07-20T07:25:41Z</time>
      </trkpt>
      <trkpt lat="48.36857" lon="2.74234">
        <ele>132.9</ele>
        <time>2023-07-20T07:25:42Z</time>
      </trkpt>
      <trkpt lat="48.36858" lon="2.74232">
        <ele>132.9</ele>
        <time>2023-07-20T07:25:43Z</time>
      </trkpt>
      <trkpt lat="48.36858" lon="2.74232">
        <ele>132.9</ele>
        <time>2023-07-20T07:25:44Z</time>
      </trkpt>
      <trkpt lat="48.36858" lon="2.7423">
        <ele>132.9</ele>
        <time>2023-07-20T07:25:45Z</time>
      </trkpt>
      <trkpt lat="48.36858" lon="2.7423">
        <ele>132.9</ele>
        <time>2023-07-20T07:25:46Z</time>
      </trkpt>
      <trkpt lat="48.36858" lon="2.74228">
        <ele>132.9</ele>
        <time>2023-07-20T07:25:47Z</time>
      </trkpt>
      <trkpt lat="48.36859" lon="2.74227">
        <ele>132.9</ele>
        <time>2023-07-20T07:25:48Z</time>
      </trkpt>
      <trkpt lat="48.3686" lon="2.74226">
        <ele>132.9</ele>
        <time>2023-07-20T07:25:49Z</time>
      </trkpt>
      <trkpt lat="48.3686" lon="2.74224">
        <ele>132.9</ele>
        <time>2023-07-20T07:25:50Z</time>
      </trkpt>
      <trkpt lat="48.3686" lon="2.74223">
        <ele>132.9</ele>
        <time>2023-07-20T07:25:51Z</time>
      </trkpt>
      <trkpt lat="48.36861" lon="2.74222">
        <ele>132.9</ele>
        <time>2023-07-20T07:25:52Z</time>
      </trkpt>
      <trkpt lat="48.36861" lon="2.74221">
        <ele>132.9</ele>
        <time>2023-07-20T07:25:53Z</time>
      </trkpt>
      <trkpt lat="48.36862" lon="2.74219">
        <ele>132.9</ele>
        <time>2023-07-20T07:25:54Z</time>
      </trkpt>
      <trkpt lat="48.36862" lon="2.74218">
        <ele>133</ele>
        <time>2023-07-20T07:25:55Z</time>
      </trkpt>
      <trkpt lat="48.36862" lon="2.74217">
        <ele>133</ele>
        <time>2023-07-20T07:25:56Z</time>
      </trkpt>
      <trkpt lat="48.36863" lon="2.74215">
        <ele>133</ele>
        <time>2023-07-20T07:25:57Z</time>
      </trkpt>
      <trkpt lat="48.36863" lon="2.74215">
        <ele>133</ele>
        <time>2023-07-20T07:25:58Z</time>
      </trkpt>
      <trkpt lat="48.36863" lon="2.74213">
        <ele>133</ele>
        <time>2023-07-20T07:25:59Z</time>
      </trkpt>
      <trkpt lat="48.36863" lon="2.74211">
        <ele>133</ele>
        <time>2023-07-20T07:26:00Z</time>
      </trkpt>
      <trkpt lat="48.36863" lon="2.74209">
        <ele>133</ele>
        <time>2023-07-20T07:26:01Z</time>
      </trkpt>
      <trkpt lat="48.36864" lon="2.74209">
        <ele>133</ele>
        <time>2023-07-20T07:26:02Z</time>
      </trkpt>
      <trkpt lat="48.36865" lon="2.74208">
        <ele>133</ele>
        <time>2023-07-20T07:26:03Z</time>
      </trkpt>
      <trkpt lat="48.36866" lon="2.74207">
        <ele>133</ele>
        <time>2023-07-20T07:26:04Z</time>
      </trkpt>
      <trkpt lat="48.36867" lon="2.74205">
        <ele>133</ele>
        <time>2023-07-20T07:26:05Z</time>
      </trkpt>
      <trkpt lat="48.36867" lon="2.74204">
        <ele>133</ele>
        <time>2023-07-20T07:26:06Z</time>
      </trkpt>
      <trkpt lat="48.36868" lon="2.74203">
        <ele>133</ele>
        <time>2023-07-20T07:26:07Z</time>
      </trkpt>
      <trkpt lat="48.36869" lon="2.74202">
        <ele>133</ele>
        <time>2023-07-20T07:26:08Z</time>
      </trkpt>
      <trkpt lat="48.36869" lon="2.74201">
        <ele>133</ele>
        <time>2023-07-20T07:26:09Z</time>
      </trkpt>
      <trkpt lat="48.36869" lon="2.742">
        <ele>133</ele>
        <time>2023-07-20T07:26:10Z</time>
      </trkpt>
      <trkpt lat="48.36869" lon="2.74198">
        <ele>133.1</ele>
        <time>2023-07-20T07:26:11Z</time>
      </trkpt>
      <trkpt lat="48.36869" lon="2.74196">
        <ele>133.1</ele>
        <time>2023-07-20T07:26:12Z</time>
      </trkpt>
      <trkpt lat="48.36869" lon="2.74195">
        <ele>133.1</ele>
        <time>2023-07-20T07:26:13Z</time>
      </trkpt>
      <trkpt lat="48.36869" lon="2.74193">
        <ele>133.1</ele>
        <time>2023-07-20T07:26:14Z</time>
      </trkpt>
      <trkpt lat="48.36869" lon="2.74191">
        <ele>133.1</ele>
        <time>2023-07-20T07:26:15Z</time>
      </trkpt>
      <trkpt lat="48.36869" lon="2.74191">
        <ele>133.1</ele>
        <time>2023-07-20T07:26:16Z</time>
      </trkpt>
      <trkpt lat="48.36869" lon="2.74189">
        <ele>133.1</ele>
        <time>2023-07-20T07:26:17Z</time>
      </trkpt>
      <trkpt lat="48.36869" lon="2.74187">
        <ele>133.1</ele>
        <time>2023-07-20T07:26:18Z</time>
      </trkpt>
      <trkpt lat="48.36869" lon="2.74185">
        <ele>133.1</ele>
        <time>2023-07-20T07:26:19Z</time>
      </trkpt>
      <trkpt lat="48.36869" lon="2.74183">
        <ele>133.1</ele>
        <time>2023-07-20T07:26:20Z</time>
      </trkpt>
      <trkpt lat="48.3687" lon="2.74182">
        <ele>133.1</ele>
        <time>2023-07-20T07:26:21Z</time>
      </trkpt>
      <trkpt lat="48.3687" lon="2.7418">
        <ele>133.1</ele>
        <time>2023-07-20T07:26:22Z</time>
      </trkpt>
      <trkpt lat="48.3687" lon="2.74178">
        <ele>133.1</ele>
        <time>2023-07-20T07:26:23Z</time>
      </trkpt>
      <trkpt lat="48.36871" lon="2.74177">
        <ele>133.1</ele>
        <time>2023-07-20T07:26:24Z</time>
      </trkpt>
      <trkpt lat="48.36871" lon="2.74175">
        <ele>133.1</ele>
        <time>2023-07-20T07:26:25Z</time>
      </trkpt>
      <trkpt lat="48.3687" lon="2.74174">
        <ele>133.1</ele>
        <time>2023-07-20T07:26:26Z</time>
      </trkpt>
      <trkpt lat="48.36871" lon="2.74173">
        <ele>133.1</ele>
        <time>2023-07-20T07:26:27Z</time>
      </trkpt>
      <trkpt lat="48.36871" lon="2.74172">
        <ele>133.2</ele>
        <time>2023-07-20T07:26:28Z</time>
      </trkpt>
      <trkpt lat="48.36871" lon="2.7417">
        <ele>133.2</ele>
        <time>2023-07-20T07:26:29Z</time>
      </trkpt>
      <trkpt lat="48.36871" lon="2.74169">
        <ele>133.2</ele>
        <time>2023-07-20T07:26:30Z</time>
      </trkpt>
      <trkpt lat="48.36871" lon="2.74167">
        <ele>133.2</ele>
        <time>2023-07-20T07:26:31Z</time>
      </trkpt>
      <trkpt lat="48.36871" lon="2.74166">
        <ele>133.2</ele>
        <time>2023-07-20T07:26:32Z</time>
      </trkpt>
      <trkpt lat="48.36872" lon="2.74165">
        <ele>133.2</ele>
        <time>2023-07-20T07:26:33Z</time>
      </trkpt>
      <trkpt lat="48.36872" lon="2.74164">
        <ele>133.2</ele>
        <time>2023-07-20T07:26:34Z</time>
      </trkpt>
      <trkpt lat="48.36872" lon="2.74162">
        <ele>133.2</ele>
        <time>2023-07-20T07:26:35Z</time>
      </trkpt>
      <trkpt lat="48.36872" lon="2.74161">
        <ele>133.2</ele>
        <time>2023-07-20T07:26:36Z</time>
      </trkpt>
      <trkpt lat="48.36872" lon="2.74159">
        <ele>133.2</ele>
        <time>2023-07-20T07:26:37Z</time>
      </trkpt>
      <trkpt lat="48.36872" lon="2.74157">
        <ele>133.2</ele>
        <time>2023-07-20T07:26:38Z</time>
      </trkpt>
      <trkpt lat="48.36872" lon="2.74155">
        <ele>133.2</ele>
        <time>2023-07-20T07:26:39Z</time>
      </trkpt>
      <trkpt lat="48.36873" lon="2.74154">
        <ele>133.2</ele>
        <time>2023-07-20T07:26:40Z</time>
      </trkpt>
      <trkpt lat="48.36873" lon="2.74152">
        <ele>133.2</ele>
        <time>2023-07-20T07:26:41Z</time>
      </trkpt>
      <trkpt lat="48.36874" lon="2.7415">
        <ele>133.3</ele>
        <time>2023-07-20T07:26:42Z</time>
      </trkpt>
      <trkpt lat="48.36874" lon="2.7415">
        <ele>133.3</ele>
        <time>2023-07-20T07:26:43Z</time>
      </trkpt>
      <trkpt lat="48.36875" lon="2.74149">
        <ele>133.3</ele>
        <time>2023-07-20T07:26:44Z</time>
      </trkpt>
      <trkpt lat="48.36875" lon="2.74148">
        <ele>133.3</ele>
        <time>2023-07-20T07:26:45Z</time>
      </trkpt>
      <trkpt lat="48.36876" lon="2.74147">
        <ele>133.3</ele>
        <time>2023-07-20T07:26:46Z</time>
      </trkpt>
      <trkpt lat="48.36876" lon="2.74146">
        <ele>133.3</ele>
        <time>2023-07-20T07:26:47Z</time>
      </trkpt>
      <trkpt lat="48.36876" lon="2.74144">
        <ele>133.3</ele>
        <time>2023-07-20T07:26:48Z</time>
      </trkpt>
      <trkpt lat="48.36877" lon="2.74141">
        <ele>133.3</ele>
        <time>2023-07-20T07:26:49Z</time>
      </trkpt>
      <trkpt lat="48.36877" lon="2.7414">
        <ele>133.3</ele>
        <time>2023-07-20T07:26:50Z</time>
      </trkpt>
      <trkpt lat="48.36877" lon="2.74139">
        <ele>133.3</ele>
        <time>2023-07-20T07:26:51Z</time>
      </trkpt>
      <trkpt lat="48.36877" lon="2.74138">
        <ele>133.3</ele>
        <time>2023-07-20T07:26:52Z</time>
      </trkpt>
      <trkpt lat="48.36878" lon="2.74138">
        <ele>133.3</ele>
        <time>2023-07-20T07:26:53Z</time>
      </trkpt>
      <trkpt lat="48.36878" lon="2.74137">
        <ele>133.3</ele>
        <time>2023-07-20T07:26:54Z</time>
      </trkpt>
      <trkpt lat="48.36879" lon="2.74136">
        <ele>133.3</ele>
        <time>2023-07-20T07:26:55Z</time>
      </trkpt>
      <trkpt lat="48.36879" lon="2.74136">
        <ele>133.3</ele>
        <time>2023-07-20T07:26:56Z</time>
      </trkpt>
      <trkpt lat="48.3688" lon="2.74135">
        <ele>133.3</ele>
        <time>2023-07-20T07:26:57Z</time>
      </trkpt>
      <trkpt lat="48.3688" lon="2.74134">
        <ele>133.4</ele>
        <time>2023-07-20T07:26:58Z</time>
      </trkpt>
      <trkpt lat="48.36881" lon="2.74132">
        <ele>133.4</ele>
        <time>2023-07-20T07:26:59Z</time>
      </trkpt>
      <trkpt lat="48.36881" lon="2.74131">
        <ele>133.4</ele>
        <time>2023-07-20T07:27:00Z</time>
      </trkpt>
      <trkpt lat="48.36881" lon="2.7413">
        <ele>133.4</ele>
        <time>2023-07-20T07:27:01Z</time>
      </trkpt>
      <trkpt lat="48.36881" lon="2.74128">
        <ele>133.4</ele>
        <time>2023-07-20T07:27:02Z</time>
      </trkpt>
      <trkpt lat="48.36881" lon="2.74128">
        <ele>133.4</ele>
        <time>2023-07-20T07:27:03Z</time>
      </trkpt>
      <trkpt lat="48.36882" lon="2.74127">
        <ele>133.4</ele>
        <time>2023-07-20T07:27:04Z</time>
      </trkpt>
      <trkpt lat="48.36882" lon="2.74125">
        <ele>133.4</ele>
        <time>2023-07-20T07:27:05Z</time>
      </trkpt>
      <trkpt lat="48.36882" lon="2.74124">
        <ele>133.4</ele>
        <time>2023-07-20T07:27:06Z</time>
      </trkpt>
      <trkpt lat="48.36882" lon="2.74123">
        <ele>133.4</ele>
        <time>2023-07-20T07:27:07Z</time>
      </trkpt>
      <trkpt lat="48.36882" lon="2.74121">
        <ele>133.4</ele>
        <time>2023-07-20T07:27:08Z</time>
      </trkpt>
      <trkpt lat="48.36883" lon="2.7412">
        <ele>133.4</ele>
        <time>2023-07-20T07:27:09Z</time>
      </trkpt>
      <trkpt lat="48.36882" lon="2.74119">
        <ele>133.4</ele>
        <time>2023-07-20T07:27:10Z</time>
      </trkpt>
      <trkpt lat="48.36883" lon="2.74117">
        <ele>133.4</ele>
        <time>2023-07-20T07:27:11Z</time>
      </trkpt>
      <trkpt lat="48.36882" lon="2.74116">
        <ele>133.4</ele>
        <time>2023-07-20T07:27:12Z</time>
      </trkpt>
      <trkpt lat="48.36882" lon="2.74114">
        <ele>133.4</ele>
        <time>2023-07-20T07:27:13Z</time>
      </trkpt>
      <trkpt lat="48.36883" lon="2.74113">
        <ele>133.4</ele>
        <time>2023-07-20T07:27:14Z</time>
      </trkpt>
      <trkpt lat="48.36884" lon="2.74112">
        <ele>133.4</ele>
        <time>2023-07-20T07:27:15Z</time>
      </trkpt>
      <trkpt lat="48.36884" lon="2.74109">
        <ele>133.5</ele>
        <time>2023-07-20T07:27:16Z</time>
      </trkpt>
      <trkpt lat="48.36885" lon="2.74106">
        <ele>133.5</ele>
        <time>2023-07-20T07:27:17Z</time>
      </trkpt>
      <trkpt lat="48.36885" lon="2.74105">
        <ele>133.5</ele>
        <time>2023-07-20T07:27:18Z</time>
      </trkpt>
      <trkpt lat="48.36886" lon="2.74104">
        <ele>133.5</ele>
        <time>2023-07-20T07:27:19Z</time>
      </trkpt>
      <trkpt lat="48.36886" lon="2.74102">
        <ele>133.5</ele>
        <time>2023-07-20T07:27:20Z</time>
      </trkpt>
      <trkpt lat="48.36886" lon="2.74101">
        <ele>133.5</ele>
        <time>2023-07-20T07:27:21Z</time>
      </trkpt>
      <trkpt lat="48.36886" lon="2.741">
        <ele>133.5</ele>
        <time>2023-07-20T07:27:22Z</time>
      </trkpt>
      <trkpt lat="48.36886" lon="2.74099">
        <ele>133.5</ele>
        <time>2023-07-20T07:27:23Z</time>
      </trkpt>
      <trkpt lat="48.36886" lon="2.74098">
        <ele>133.5</ele>
        <time>2023-07-20T07:27:24Z</time>
      </trkpt>
      <trkpt lat="48.36887" lon="2.74098">
        <ele>133.5</ele>
        <time>2023-07-20T07:27:25Z</time>
      </trkpt>
      <trkpt lat="48.36888" lon="2.74097">
        <ele>133.5</ele>
        <time>2023-07-20T07:27:26Z</time>
      </trkpt>
      <trkpt lat="48.36889" lon="2.74096">
        <ele>133.5</ele>
        <time>2023-07-20T07:27:27Z</time>
      </trkpt>
      <trkpt lat="48.36889" lon="2.74092">
        <ele>133.5</ele>
        <time>2023-07-20T07:27:28Z</time>
      </trkpt>
      <trkpt lat="48.3689" lon="2.74092">
        <ele>133.5</ele>
        <time>2023-07-20T07:27:29Z</time>
      </trkpt>
      <trkpt lat="48.3689" lon="2.74091">
        <ele>133.5</ele>
        <time>2023-07-20T07:27:30Z</time>
      </trkpt>
      <trkpt lat="48.3689" lon="2.7409">
        <ele>133.5</ele>
        <time>2023-07-20T07:27:31Z</time>
      </trkpt>
      <trkpt lat="48.3689" lon="2.74089">
        <ele>133.5</ele>
        <time>2023-07-20T07:27:32Z</time>
      </trkpt>
      <trkpt lat="48.3689" lon="2.74088">
        <ele>133.5</ele>
        <time>2023-07-20T07:27:33Z</time>
      </trkpt>
      <trkpt lat="48.36891" lon="2.74088">
        <ele>133.5</ele>
        <time>2023-07-20T07:27:34Z</time>
      </trkpt>
      <trkpt lat="48.36891" lon="2.74087">
        <ele>133.5</ele>
        <time>2023-07-20T07:27:35Z</time>
      </trkpt>
      <trkpt lat="48.36891" lon="2.74084">
        <ele>133.5</ele>
        <time>2023-07-20T07:27:36Z</time>
      </trkpt>
      <trkpt lat="48.36891" lon="2.74083">
        <ele>133.5</ele>
        <time>2023-07-20T07:27:37Z</time>
      </trkpt>
      <trkpt lat="48.36891" lon="2.74082">
        <ele>133.5</ele>
        <time>2023-07-20T07:27:38Z</time>
      </trkpt>
      <trkpt lat="48.36892" lon="2.74081">
        <ele>133.5</ele>
        <time>2023-07-20T07:27:39Z</time>
      </trkpt>
      <trkpt lat="48.36892" lon="2.74079">
        <ele>133.6</ele>
        <time>2023-07-20T07:27:40Z</time>
      </trkpt>
      <trkpt lat="48.36893" lon="2.74078">
        <ele>133.6</ele>
        <time>2023-07-20T07:27:41Z</time>
      </trkpt>
      <trkpt lat="48.36893" lon="2.74076">
        <ele>133.6</ele>
        <time>2023-07-20T07:27:42Z</time>
      </trkpt>
      <trkpt lat="48.36893" lon="2.74074">
        <ele>133.6</ele>
        <time>2023-07-20T07:27:43Z</time>
      </trkpt>
      <trkpt lat="48.36894" lon="2.74073">
        <ele>133.6</ele>
        <time>2023-07-20T07:27:44Z</time>
      </trkpt>
      <trkpt lat="48.36894" lon="2.74072">
        <ele>133.6</ele>
        <time>2023-07-20T07:27:45Z</time>
      </trkpt>
      <trkpt lat="48.36894" lon="2.74072">
        <ele>133.6</ele>
        <time>2023-07-20T07:27:46Z</time>
      </trkpt>
      <trkpt lat="48.36895" lon="2.7407">
        <ele>133.6</ele>
        <time>2023-07-20T07:27:47Z</time>
      </trkpt>
      <trkpt lat="48.36895" lon="2.74069">
        <ele>133.6</ele>
        <time>2023-07-20T07:27:48Z</time>
      </trkpt>
      <trkpt lat="48.36896" lon="2.74067">
        <ele>133.6</ele>
        <time>2023-07-20T07:27:49Z</time>
      </trkpt>
      <trkpt lat="48.36896" lon="2.74066">
        <ele>133.6</ele>
        <time>2023-07-20T07:27:50Z</time>
      </trkpt>
      <trkpt lat="48.36896" lon="2.74064">
        <ele>133.6</ele>
        <time>2023-07-20T07:27:51Z</time>
      </trkpt>
      <trkpt lat="48.36896" lon="2.74063">
        <ele>133.6</ele>
        <time>2023-07-20T07:27:52Z</time>
      </trkpt>
      <trkpt lat="48.36896" lon="2.74061">
        <ele>133.6</ele>
        <time>2023-07-20T07:27:53Z</time>
      </trkpt>
      <trkpt lat="48.36896" lon="2.7406">
        <ele>133.6</ele>
        <time>2023-07-20T07:27:54Z</time>
      </trkpt>
      <trkpt lat="48.36896" lon="2.74059">
        <ele>133.6</ele>
        <time>2023-07-20T07:27:55Z</time>
      </trkpt>
      <trkpt lat="48.36897" lon="2.74058">
        <ele>133.6</ele>
        <time>2023-07-20T07:27:56Z</time>
      </trkpt>
      <trkpt lat="48.36897" lon="2.74056">
        <ele>133.6</ele>
        <time>2023-07-20T07:27:57Z</time>
      </trkpt>
      <trkpt lat="48.36897" lon="2.74055">
        <ele>133.6</ele>
        <time>2023-07-20T07:27:58Z</time>
      </trkpt>
      <trkpt lat="48.36897" lon="2.74054">
        <ele>133.6</ele>
        <time>2023-07-20T07:27:59Z</time>
      </trkpt>
      <trkpt lat="48.36897" lon="2.74052">
        <ele>133.6</ele>
        <time>2023-07-20T07:28:00Z</time>
      </trkpt>
      <trkpt lat="48.36898" lon="2.74051">
        <ele>133.5</ele>
        <time>2023-07-20T07:28:01Z</time>
      </trkpt>
      <trkpt lat="48.36898" lon="2.74049">
        <ele>133.5</ele>
        <time>2023-07-20T07:28:02Z</time>
      </trkpt>
      <trkpt lat="48.36899" lon="2.74048">
        <ele>133.5</ele>
        <time>2023-07-20T07:28:03Z</time>
      </trkpt>
      <trkpt lat="48.36899" lon="2.74047">
        <ele>133.5</ele>
        <time>2023-07-20T07:28:04Z</time>
      </trkpt>
      <trkpt lat="48.36899" lon="2.74046">
        <ele>133.5</ele>
        <time>2023-07-20T07:28:05Z</time>
      </trkpt>
      <trkpt lat="48.369" lon="2.74045">
        <ele>133.5</ele>
        <time>2023-07-20T07:28:06Z</time>
      </trkpt>
      <trkpt lat="48.369" lon="2.74043">
        <ele>133.5</ele>
        <time>2023-07-20T07:28:07Z</time>
      </trkpt>
      <trkpt lat="48.36901" lon="2.74043">
        <ele>133.5</ele>
        <time>2023-07-20T07:28:08Z</time>
      </trkpt>
      <trkpt lat="48.36901" lon="2.74042">
        <ele>133.5</ele>
        <time>2023-07-20T07:28:09Z</time>
      </trkpt>
      <trkpt lat="48.36901" lon="2.74041">
        <ele>133.5</ele>
        <time>2023-07-20T07:28:10Z</time>
      </trkpt>
      <trkpt lat="48.36902" lon="2.7404">
        <ele>133.5</ele>
        <time>2023-07-20T07:28:11Z</time>
      </trkpt>
      <trkpt lat="48.36902" lon="2.74038">
        <ele>133.5</ele>
        <time>2023-07-20T07:28:12Z</time>
      </trkpt>
      <trkpt lat="48.36903" lon="2.74036">
        <ele>133.5</ele>
        <time>2023-07-20T07:28:13Z</time>
      </trkpt>
      <trkpt lat="48.36902" lon="2.74034">
        <ele>133.5</ele>
        <time>2023-07-20T07:28:14Z</time>
      </trkpt>
      <trkpt lat="48.36902" lon="2.74033">
        <ele>133.5</ele>
        <time>2023-07-20T07:28:15Z</time>
      </trkpt>
      <trkpt lat="48.36903" lon="2.74029">
        <ele>133.5</ele>
        <time>2023-07-20T07:28:16Z</time>
      </trkpt>
      <trkpt lat="48.36904" lon="2.74028">
        <ele>133.5</ele>
        <time>2023-07-20T07:28:17Z</time>
      </trkpt>
      <trkpt lat="48.36904" lon="2.74026">
        <ele>133.5</ele>
        <time>2023-07-20T07:28:18Z</time>
      </trkpt>
      <trkpt lat="48.36904" lon="2.74024">
        <ele>133.5</ele>
        <time>2023-07-20T07:28:19Z</time>
      </trkpt>
      <trkpt lat="48.36904" lon="2.74023">
        <ele>133.5</ele>
        <time>2023-07-20T07:28:20Z</time>
      </trkpt>
      <trkpt lat="48.36905" lon="2.74022">
        <ele>133.5</ele>
        <time>2023-07-20T07:28:21Z</time>
      </trkpt>
      <trkpt lat="48.36905" lon="2.7402">
        <ele>133.5</ele>
        <time>2023-07-20T07:28:22Z</time>
      </trkpt>
      <trkpt lat="48.36904" lon="2.74019">
        <ele>133.5</ele>
        <time>2023-07-20T07:28:23Z</time>
      </trkpt>
      <trkpt lat="48.36904" lon="2.74016">
        <ele>133.5</ele>
        <time>2023-07-20T07:28:24Z</time>
      </trkpt>
      <trkpt lat="48.36904" lon="2.74015">
        <ele>133.5</ele>
        <time>2023-07-20T07:28:25Z</time>
      </trkpt>
      <trkpt lat="48.36905" lon="2.74014">
        <ele>133.5</ele>
        <time>2023-07-20T07:28:26Z</time>
      </trkpt>
      <trkpt lat="48.36905" lon="2.74012">
        <ele>133.5</ele>
        <time>2023-07-20T07:28:27Z</time>
      </trkpt>
      <trkpt lat="48.36904" lon="2.74011">
        <ele>133.5</ele>
        <time>2023-07-20T07:28:28Z</time>
      </trkpt>
      <trkpt lat="48.36904" lon="2.7401">
        <ele>133.5</ele>
        <time>2023-07-20T07:28:29Z</time>
      </trkpt>
      <trkpt lat="48.36905" lon="2.7401">
        <ele>133.5</ele>
        <time>2023-07-20T07:28:30Z</time>
      </trkpt>
      <trkpt lat="48.36905" lon="2.74008">
        <ele>133.5</ele>
        <time>2023-07-20T07:28:31Z</time>
      </trkpt>
      <trkpt lat="48.36905" lon="2.74006">
        <ele>133.5</ele>
        <time>2023-07-20T07:28:32Z</time>
      </trkpt>
      <trkpt lat="48.36905" lon="2.74005">
        <ele>133.5</ele>
        <time>2023-07-20T07:28:33Z</time>
      </trkpt>
      <trkpt lat="48.36905" lon="2.74004">
        <ele>133.5</ele>
        <time>2023-07-20T07:28:34Z</time>
      </trkpt>
      <trkpt lat="48.36905" lon="2.74001">
        <ele>133.5</ele>
        <time>2023-07-20T07:28:35Z</time>
      </trkpt>
      <trkpt lat="48.36905" lon="2.74">
        <ele>133.5</ele>
        <time>2023-07-20T07:28:36Z</time>
      </trkpt>
      <trkpt lat="48.36905" lon="2.73998">
        <ele>133.5</ele>
        <time>2023-07-20T07:28:37Z</time>
      </trkpt>
      <trkpt lat="48.36906" lon="2.73996">
        <ele>133.5</ele>
        <time>2023-07-20T07:28:38Z</time>
      </trkpt>
      <trkpt lat="48.36906" lon="2.73994">
        <ele>133.6</ele>
        <time>2023-07-20T07:28:39Z</time>
      </trkpt>
      <trkpt lat="48.36906" lon="2.73993">
        <ele>133.6</ele>
        <time>2023-07-20T07:28:40Z</time>
      </trkpt>
      <trkpt lat="48.36907" lon="2.73992">
        <ele>133.6</ele>
        <time>2023-07-20T07:28:41Z</time>
      </trkpt>
      <trkpt lat="48.36907" lon="2.7399">
        <ele>133.6</ele>
        <time>2023-07-20T07:28:42Z</time>
      </trkpt>
      <trkpt lat="48.36908" lon="2.73988">
        <ele>133.6</ele>
        <time>2023-07-20T07:28:43Z</time>
      </trkpt>
      <trkpt lat="48.36908" lon="2.73988">
        <ele>133.6</ele>
        <time>2023-07-20T07:28:44Z</time>
      </trkpt>
      <trkpt lat="48.36908" lon="2.73987">
        <ele>133.6</ele>
        <time>2023-07-20T07:28:45Z</time>
      </trkpt>
      <trkpt lat="48.36908" lon="2.73986">
        <ele>133.6</ele>
        <time>2023-07-20T07:28:46Z</time>
      </trkpt>
      <trkpt lat="48.36909" lon="2.73985">
        <ele>133.6</ele>
        <time>2023-07-20T07:28:47Z</time>
      </trkpt>
      <trkpt lat="48.36908" lon="2.73984">
        <ele>133.6</ele>
        <time>2023-07-20T07:28:48Z</time>
      </trkpt>
      <trkpt lat="48.36909" lon="2.73982">
        <ele>133.6</ele>
        <time>2023-07-20T07:28:49Z</time>
      </trkpt>
      <trkpt lat="48.36909" lon="2.73981">
        <ele>133.7</ele>
        <time>2023-07-20T07:28:50Z</time>
      </trkpt>
      <trkpt lat="48.3691" lon="2.73979">
        <ele>133.7</ele>
        <time>2023-07-20T07:28:51Z</time>
      </trkpt>
      <trkpt lat="48.36911" lon="2.73978">
        <ele>133.7</ele>
        <time>2023-07-20T07:28:52Z</time>
      </trkpt>
      <trkpt lat="48.36911" lon="2.73977">
        <ele>133.7</ele>
        <time>2023-07-20T07:28:53Z</time>
      </trkpt>
      <trkpt lat="48.36912" lon="2.73976">
        <ele>133.7</ele>
        <time>2023-07-20T07:28:54Z</time>
      </trkpt>
      <trkpt lat="48.36913" lon="2.73976">
        <ele>133.7</ele>
        <time>2023-07-20T07:28:55Z</time>
      </trkpt>
      <trkpt lat="48.36913" lon="2.73976">
        <ele>133.7</ele>
        <time>2023-07-20T07:28:56Z</time>
      </trkpt>
      <trkpt lat="48.36913" lon="2.73976">
        <ele>133.7</ele>
        <time>2023-07-20T07:28:57Z</time>
      </trkpt>
      <trkpt lat="48.36913" lon="2.73975">
        <ele>133.7</ele>
        <time>2023-07-20T07:28:58Z</time>
      </trkpt>
      <trkpt lat="48.36914" lon="2.73973">
        <ele>133.7</ele>
        <time>2023-07-20T07:28:59Z</time>
      </trkpt>
      <trkpt lat="48.36913" lon="2.73973">
        <ele>133.7</ele>
        <time>2023-07-20T07:29:00Z</time>
      </trkpt>
      <trkpt lat="48.36913" lon="2.73972">
        <ele>133.7</ele>
        <time>2023-07-20T07:29:01Z</time>
      </trkpt>
      <trkpt lat="48.36913" lon="2.73971">
        <ele>133.7</ele>
        <time>2023-07-20T07:29:02Z</time>
      </trkpt>
      <trkpt lat="48.36913" lon="2.73969">
        <ele>133.7</ele>
        <time>2023-07-20T07:29:03Z</time>
      </trkpt>
      <trkpt lat="48.36913" lon="2.73969">
        <ele>133.7</ele>
        <time>2023-07-20T07:29:04Z</time>
      </trkpt>
      <trkpt lat="48.36914" lon="2.73968">
        <ele>133.7</ele>
        <time>2023-07-20T07:29:05Z</time>
      </trkpt>
      <trkpt lat="48.36914" lon="2.73968">
        <ele>133.7</ele>
        <time>2023-07-20T07:29:06Z</time>
      </trkpt>
      <trkpt lat="48.36914" lon="2.73968">
        <ele>133.7</ele>
        <time>2023-07-20T07:29:07Z</time>
      </trkpt>
      <trkpt lat="48.36914" lon="2.73967">
        <ele>133.7</ele>
        <time>2023-07-20T07:29:08Z</time>
      </trkpt>
      <trkpt lat="48.36914" lon="2.73967">
        <ele>133.7</ele>
        <time>2023-07-20T07:29:09Z</time>
      </trkpt>
      <trkpt lat="48.36914" lon="2.73967">
        <ele>133.7</ele>
        <time>2023-07-20T07:29:10Z</time>
      </trkpt>
      <trkpt lat="48.36914" lon="2.73966">
        <ele>133.7</ele>
        <time>2023-07-20T07:29:11Z</time>
      </trkpt>
      <trkpt lat="48.36914" lon="2.73966">
        <ele>133.7</ele>
        <time>2023-07-20T07:29:12Z</time>
      </trkpt>
      <trkpt lat="48.36914" lon="2.73966">
        <ele>133.7</ele>
        <time>2023-07-20T07:29:13Z</time>
      </trkpt>
      <trkpt lat="48.36913" lon="2.73964">
        <ele>133.7</ele>
        <time>2023-07-20T07:29:14Z</time>
      </trkpt>
      <trkpt lat="48.36913" lon="2.73965">
        <ele>133.7</ele>
        <time>2023-07-20T07:29:15Z</time>
      </trkpt>
      <trkpt lat="48.36913" lon="2.73966">
        <ele>133.7</ele>
        <time>2023-07-20T07:29:16Z</time>
      </trkpt>
      <trkpt lat="48.36912" lon="2.73966">
        <ele>133.7</ele>
        <time>2023-07-20T07:29:17Z</time>
      </trkpt>
      <trkpt lat="48.36912" lon="2.73966">
        <ele>133.7</ele>
        <time>2023-07-20T07:29:18Z</time>
      </trkpt>
      <trkpt lat="48.36912" lon="2.73965">
        <ele>133.7</ele>
        <time>2023-07-20T07:29:19Z</time>
      </trkpt>
      <trkpt lat="48.36912" lon="2.73965">
        <ele>133.7</ele>
        <time>2023-07-20T07:29:20Z</time>
      </trkpt>
      <trkpt lat="48.36912" lon="2.73964">
        <ele>133.7</ele>
        <time>2023-07-20T07:29:21Z</time>
      </trkpt>
      <trkpt lat="48.36912" lon="2.73963">
        <ele>133.8</ele>
        <time>2023-07-20T07:29:22Z</time>
      </trkpt>
      <trkpt lat="48.36913" lon="2.73962">
        <ele>133.8</ele>
        <time>2023-07-20T07:29:23Z</time>
      </trkpt>
      <trkpt lat="48.36912" lon="2.73961">
        <ele>133.8</ele>
        <time>2023-07-20T07:29:24Z</time>
      </trkpt>
      <trkpt lat="48.36911" lon="2.7396">
        <ele>133.8</ele>
        <time>2023-07-20T07:29:25Z</time>
      </trkpt>
      <trkpt lat="48.36911" lon="2.7396">
        <ele>133.8</ele>
        <time>2023-07-20T07:29:26Z</time>
      </trkpt>
      <trkpt lat="48.36911" lon="2.73958">
        <ele>133.8</ele>
        <time>2023-07-20T07:29:27Z</time>
      </trkpt>
      <trkpt lat="48.36911" lon="2.73957">
        <ele>133.8</ele>
        <time>2023-07-20T07:29:28Z</time>
      </trkpt>
      <trkpt lat="48.36911" lon="2.73957">
        <ele>133.8</ele>
        <time>2023-07-20T07:29:29Z</time>
      </trkpt>
      <trkpt lat="48.36911" lon="2.73956">
        <ele>133.8</ele>
        <time>2023-07-20T07:29:30Z</time>
      </trkpt>
      <trkpt lat="48.3691" lon="2.73955">
        <ele>133.8</ele>
        <time>2023-07-20T07:29:31Z</time>
      </trkpt>
      <trkpt lat="48.3691" lon="2.73954">
        <ele>133.8</ele>
        <time>2023-07-20T07:29:32Z</time>
      </trkpt>
      <trkpt lat="48.36909" lon="2.73953">
        <ele>133.8</ele>
        <time>2023-07-20T07:29:33Z</time>
      </trkpt>
      <trkpt lat="48.36909" lon="2.73952">
        <ele>133.8</ele>
        <time>2023-07-20T07:29:34Z</time>
      </trkpt>
      <trkpt lat="48.36909" lon="2.73951">
        <ele>133.8</ele>
        <time>2023-07-20T07:29:35Z</time>
      </trkpt>
      <trkpt lat="48.36908" lon="2.7395">
        <ele>133.8</ele>
        <time>2023-07-20T07:29:36Z</time>
      </trkpt>
      <trkpt lat="48.36908" lon="2.7395">
        <ele>133.8</ele>
        <time>2023-07-20T07:29:37Z</time>
      </trkpt>
      <trkpt lat="48.36908" lon="2.73949">
        <ele>133.8</ele>
        <time>2023-07-20T07:29:38Z</time>
      </trkpt>
      <trkpt lat="48.36908" lon="2.73949">
        <ele>133.8</ele>
        <time>2023-07-20T07:29:39Z</time>
      </trkpt>
      <trkpt lat="48.36908" lon="2.73949">
        <ele>133.8</ele>
        <time>2023-07-20T07:29:40Z</time>
      </trkpt>
      <trkpt lat="48.36908" lon="2.73949">
        <ele>133.8</ele>
        <time>2023-07-20T07:29:41Z</time>
      </trkpt>
      <trkpt lat="48.36908" lon="2.73949">
        <ele>133.8</ele>
        <time>2023-07-20T07:29:42Z</time>
      </trkpt>
      <trkpt lat="48.36908" lon="2.73949">
        <ele>133.8</ele>
        <time>2023-07-20T07:29:43Z</time>
      </trkpt>
      <trkpt lat="48.36907" lon="2.73949">
        <ele>133.8</ele>
        <time>2023-07-20T07:29:44Z</time>
      </trkpt>
      <trkpt lat="48.36907" lon="2.73948">
        <ele>133.8</ele>
        <time>2023-07-20T07:29:45Z</time>
      </trkpt>
      <trkpt lat="48.36906" lon="2.73947">
        <ele>133.8</ele>
        <time>2023-07-20T07:29:46Z</time>
      </trkpt>
      <trkpt lat="48.36906" lon="2.73946">
        <ele>133.8</ele>
        <time>2023-07-20T07:29:47Z</time>
      </trkpt>
      <trkpt lat="48.36905" lon="2.73946">
        <ele>133.8</ele>
        <time>2023-07-20T07:29:48Z</time>
      </trkpt>
      <trkpt lat="48.36904" lon="2.73944">
        <ele>133.8</ele>
        <time>2023-07-20T07:29:49Z</time>
      </trkpt>
      <trkpt lat="48.36903" lon="2.73943">
        <ele>133.8</ele>
        <time>2023-07-20T07:29:50Z</time>
      </trkpt>
      <trkpt lat="48.36903" lon="2.73942">
        <ele>133.8</ele>
        <time>2023-07-20T07:29:51Z</time>
      </trkpt>
      <trkpt lat="48.36902" lon="2.7394">
        <ele>133.8</ele>
        <time>2023-07-20T07:29:52Z</time>
      </trkpt>
      <trkpt lat="48.36902" lon="2.7394">
        <ele>133.8</ele>
        <time>2023-07-20T07:29:53Z</time>
      </trkpt>
      <trkpt lat="48.36901" lon="2.73938">
        <ele>133.8</ele>
        <time>2023-07-20T07:29:54Z</time>
      </trkpt>
      <trkpt lat="48.36901" lon="2.73936">
        <ele>133.8</ele>
        <time>2023-07-20T07:29:55Z</time>
      </trkpt>
      <trkpt lat="48.36901" lon="2.73935">
        <ele>133.9</ele>
        <time>2023-07-20T07:29:56Z</time>
      </trkpt>
      <trkpt lat="48.36901" lon="2.73934">
        <ele>133.9</ele>
        <time>2023-07-20T07:29:57Z</time>
      </trkpt>
      <trkpt lat="48.369" lon="2.73933">
        <ele>133.9</ele>
        <time>2023-07-20T07:29:58Z</time>
      </trkpt>
      <trkpt lat="48.369" lon="2.73932">
        <ele>133.9</ele>
        <time>2023-07-20T07:29:59Z</time>
      </trkpt>
      <trkpt lat="48.369" lon="2.7393">
        <ele>133.9</ele>
        <time>2023-07-20T07:30:00Z</time>
      </trkpt>
      <trkpt lat="48.36899" lon="2.73929">
        <ele>133.9</ele>
        <time>2023-07-20T07:30:01Z</time>
      </trkpt>
      <trkpt lat="48.36899" lon="2.73928">
        <ele>133.9</ele>
        <time>2023-07-20T07:30:02Z</time>
      </trkpt>
      <trkpt lat="48.36898" lon="2.73927">
        <ele>133.9</ele>
        <time>2023-07-20T07:30:03Z</time>
      </trkpt>
      <trkpt lat="48.36898" lon="2.73927">
        <ele>133.9</ele>
        <time>2023-07-20T07:30:04Z</time>
      </trkpt>
      <trkpt lat="48.36898" lon="2.73927">
        <ele>133.9</ele>
        <time>2023-07-20T07:30:05Z</time>
      </trkpt>
      <trkpt lat="48.36897" lon="2.73925">
        <ele>133.9</ele>
        <time>2023-07-20T07:30:06Z</time>
      </trkpt>
      <trkpt lat="48.36896" lon="2.73924">
        <ele>133.9</ele>
        <time>2023-07-20T07:30:07Z</time>
      </trkpt>
      <trkpt lat="48.36895" lon="2.73922">
        <ele>134</ele>
        <time>2023-07-20T07:30:08Z</time>
      </trkpt>
      <trkpt lat="48.36895" lon="2.73921">
        <ele>134</ele>
        <time>2023-07-20T07:30:09Z</time>
      </trkpt>
      <trkpt lat="48.36895" lon="2.7392">
        <ele>134</ele>
        <time>2023-07-20T07:30:10Z</time>
      </trkpt>
      <trkpt lat="48.36895" lon="2.73918">
        <ele>134</ele>
        <time>2023-07-20T07:30:11Z</time>
      </trkpt>
      <trkpt lat="48.36895" lon="2.73917">
        <ele>134</ele>
        <time>2023-07-20T07:30:12Z</time>
      </trkpt>
      <trkpt lat="48.36895" lon="2.73917">
        <ele>134</ele>
        <time>2023-07-20T07:30:13Z</time>
      </trkpt>
      <trkpt lat="48.36895" lon="2.73917">
        <ele>134</ele>
        <time>2023-07-20T07:30:14Z</time>
      </trkpt>
      <trkpt lat="48.36895" lon="2.73916">
        <ele>134</ele>
        <time>2023-07-20T07:30:15Z</time>
      </trkpt>
      <trkpt lat="48.36895" lon="2.73916">
        <ele>134</ele>
        <time>2023-07-20T07:30:16Z</time>
      </trkpt>
      <trkpt lat="48.36895" lon="2.73916">
        <ele>134</ele>
        <time>2023-07-20T07:30:17Z</time>
      </trkpt>
      <trkpt lat="48.36895" lon="2.73915">
        <ele>134</ele>
        <time>2023-07-20T07:30:18Z</time>
      </trkpt>
      <trkpt lat="48.36895" lon="2.73915">
        <ele>134</ele>
        <time>2023-07-20T07:30:19Z</time>
      </trkpt>
      <trkpt lat="48.36895" lon="2.73914">
        <ele>134</ele>
        <time>2023-07-20T07:30:20Z</time>
      </trkpt>
      <trkpt lat="48.36895" lon="2.73912">
        <ele>134.1</ele>
        <time>2023-07-20T07:30:21Z</time>
      </trkpt>
      <trkpt lat="48.36895" lon="2.73912">
        <ele>134.1</ele>
        <time>2023-07-20T07:30:22Z</time>
      </trkpt>
      <trkpt lat="48.36894" lon="2.73911">
        <ele>134.1</ele>
        <time>2023-07-20T07:30:23Z</time>
      </trkpt>
      <trkpt lat="48.36894" lon="2.73909">
        <ele>134.1</ele>
        <time>2023-07-20T07:30:24Z</time>
      </trkpt>
      <trkpt lat="48.36894" lon="2.73907">
        <ele>134.1</ele>
        <time>2023-07-20T07:30:25Z</time>
      </trkpt>
      <trkpt lat="48.36894" lon="2.73906">
        <ele>134.1</ele>
        <time>2023-07-20T07:30:26Z</time>
      </trkpt>
      <trkpt lat="48.36894" lon="2.73906">
        <ele>134.1</ele>
        <time>2023-07-20T07:30:27Z</time>
      </trkpt>
      <trkpt lat="48.36893" lon="2.73905">
        <ele>134.1</ele>
        <time>2023-07-20T07:30:28Z</time>
      </trkpt>
      <trkpt lat="48.36893" lon="2.73905">
        <ele>134.2</ele>
        <time>2023-07-20T07:30:29Z</time>
      </trkpt>
      <trkpt lat="48.36894" lon="2.73904">
        <ele>134.2</ele>
        <time>2023-07-20T07:30:30Z</time>
      </trkpt>
      <trkpt lat="48.36894" lon="2.73903">
        <ele>134.2</ele>
        <time>2023-07-20T07:30:31Z</time>
      </trkpt>
      <trkpt lat="48.36894" lon="2.73901">
        <ele>134.2</ele>
        <time>2023-07-20T07:30:32Z</time>
      </trkpt>
      <trkpt lat="48.36894" lon="2.73898">
        <ele>134.2</ele>
        <time>2023-07-20T07:30:33Z</time>
      </trkpt>
      <trkpt lat="48.36894" lon="2.73897">
        <ele>134.2</ele>
        <time>2023-07-20T07:30:34Z</time>
      </trkpt>
      <trkpt lat="48.36894" lon="2.73896">
        <ele>134.3</ele>
        <time>2023-07-20T07:30:35Z</time>
      </trkpt>
      <trkpt lat="48.36894" lon="2.73894">
        <ele>134.3</ele>
        <time>2023-07-20T07:30:36Z</time>
      </trkpt>
      <trkpt lat="48.36894" lon="2.73893">
        <ele>134.3</ele>
        <time>2023-07-20T07:30:37Z</time>
      </trkpt>
      <trkpt lat="48.36893" lon="2.73893">
        <ele>134.3</ele>
        <time>2023-07-20T07:30:38Z</time>
      </trkpt>
      <trkpt lat="48.36893" lon="2.73892">
        <ele>134.3</ele>
        <time>2023-07-20T07:30:39Z</time>
      </trkpt>
      <trkpt lat="48.36893" lon="2.73891">
        <ele>134.3</ele>
        <time>2023-07-20T07:30:40Z</time>
      </trkpt>
      <trkpt lat="48.36893" lon="2.7389">
        <ele>134.3</ele>
        <time>2023-07-20T07:30:41Z</time>
      </trkpt>
      <trkpt lat="48.36894" lon="2.73888">
        <ele>134.3</ele>
        <time>2023-07-20T07:30:42Z</time>
      </trkpt>
      <trkpt lat="48.36894" lon="2.73887">
        <ele>134.3</ele>
        <time>2023-07-20T07:30:43Z</time>
      </trkpt>
      <trkpt lat="48.36895" lon="2.73886">
        <ele>134.3</ele>
        <time>2023-07-20T07:30:44Z</time>
      </trkpt>
      <trkpt lat="48.36895" lon="2.73885">
        <ele>134.3</ele>
        <time>2023-07-20T07:30:45Z</time>
      </trkpt>
      <trkpt lat="48.36896" lon="2.73884">
        <ele>134.4</ele>
        <time>2023-07-20T07:30:46Z</time>
      </trkpt>
      <trkpt lat="48.36897" lon="2.73883">
        <ele>134.4</ele>
        <time>2023-07-20T07:30:47Z</time>
      </trkpt>
      <trkpt lat="48.36897" lon="2.73881">
        <ele>134.4</ele>
        <time>2023-07-20T07:30:48Z</time>
      </trkpt>
      <trkpt lat="48.36897" lon="2.73879">
        <ele>134.4</ele>
        <time>2023-07-20T07:30:49Z</time>
      </trkpt>
      <trkpt lat="48.36897" lon="2.73878">
        <ele>134.4</ele>
        <time>2023-07-20T07:30:50Z</time>
      </trkpt>
      <trkpt lat="48.36897" lon="2.73876">
        <ele>134.4</ele>
        <time>2023-07-20T07:30:51Z</time>
      </trkpt>
      <trkpt lat="48.36897" lon="2.73876">
        <ele>134.4</ele>
        <time>2023-07-20T07:30:52Z</time>
      </trkpt>
      <trkpt lat="48.36897" lon="2.73875">
        <ele>134.4</ele>
        <time>2023-07-20T07:30:53Z</time>
      </trkpt>
      <trkpt lat="48.36898" lon="2.73872">
        <ele>134.4</ele>
        <time>2023-07-20T07:30:54Z</time>
      </trkpt>
      <trkpt lat="48.36898" lon="2.73871">
        <ele>134.4</ele>
        <time>2023-07-20T07:30:55Z</time>
      </trkpt>
      <trkpt lat="48.36898" lon="2.7387">
        <ele>134.4</ele>
        <time>2023-07-20T07:30:56Z</time>
      </trkpt>
      <trkpt lat="48.36899" lon="2.73869">
        <ele>134.4</ele>
        <time>2023-07-20T07:30:57Z</time>
      </trkpt>
      <trkpt lat="48.36899" lon="2.73868">
        <ele>134.4</ele>
        <time>2023-07-20T07:30:58Z</time>
      </trkpt>
      <trkpt lat="48.369" lon="2.73866">
        <ele>134.4</ele>
        <time>2023-07-20T07:30:59Z</time>
      </trkpt>
      <trkpt lat="48.369" lon="2.73864">
        <ele>134.4</ele>
        <time>2023-07-20T07:31:00Z</time>
      </trkpt>
      <trkpt lat="48.36901" lon="2.73864">
        <ele>134.4</ele>
        <time>2023-07-20T07:31:01Z</time>
      </trkpt>
      <trkpt lat="48.36901" lon="2.73863">
        <ele>134.4</ele>
        <time>2023-07-20T07:31:02Z</time>
      </trkpt>
      <trkpt lat="48.36902" lon="2.73862">
        <ele>134.4</ele>
        <time>2023-07-20T07:31:03Z</time>
      </trkpt>
      <trkpt lat="48.36902" lon="2.73862">
        <ele>134.4</ele>
        <time>2023-07-20T07:31:04Z</time>
      </trkpt>
      <trkpt lat="48.36902" lon="2.73861">
        <ele>134.4</ele>
        <time>2023-07-20T07:31:05Z</time>
      </trkpt>
      <trkpt lat="48.36902" lon="2.7386">
        <ele>134.4</ele>
        <time>2023-07-20T07:31:06Z</time>
      </trkpt>
      <trkpt lat="48.36903" lon="2.73858">
        <ele>134.4</ele>
        <time>2023-07-20T07:31:07Z</time>
      </trkpt>
      <trkpt lat="48.36903" lon="2.73857">
        <ele>134.4</ele>
        <time>2023-07-20T07:31:08Z</time>
      </trkpt>
      <trkpt lat="48.36903" lon="2.73856">
        <ele>134.4</ele>
        <time>2023-07-20T07:31:09Z</time>
      </trkpt>
      <trkpt lat="48.36904" lon="2.73856">
        <ele>134.4</ele>
        <time>2023-07-20T07:31:10Z</time>
      </trkpt>
      <trkpt lat="48.36904" lon="2.73855">
        <ele>134.4</ele>
        <time>2023-07-20T07:31:11Z</time>
      </trkpt>
      <trkpt lat="48.36904" lon="2.73853">
        <ele>134.4</ele>
        <time>2023-07-20T07:31:12Z</time>
      </trkpt>
      <trkpt lat="48.36904" lon="2.73852">
        <ele>134.4</ele>
        <time>2023-07-20T07:31:13Z</time>
      </trkpt>
      <trkpt lat="48.36904" lon="2.73851">
        <ele>134.4</ele>
        <time>2023-07-20T07:31:14Z</time>
      </trkpt>
      <trkpt lat="48.36905" lon="2.73849">
        <ele>134.4</ele>
        <time>2023-07-20T07:31:15Z</time>
      </trkpt>
      <trkpt lat="48.36905" lon="2.73849">
        <ele>134.4</ele>
        <time>2023-07-20T07:31:16Z</time>
      </trkpt>
      <trkpt lat="48.36905" lon="2.73848">
        <ele>134.4</ele>
        <time>2023-07-20T07:31:17Z</time>
      </trkpt>
      <trkpt lat="48.36905" lon="2.73845">
        <ele>134.3</ele>
        <time>2023-07-20T07:31:18Z</time>
      </trkpt>
      <trkpt lat="48.36905" lon="2.73844">
        <ele>134.3</ele>
        <time>2023-07-20T07:31:19Z</time>
      </trkpt>
      <trkpt lat="48.36906" lon="2.73843">
        <ele>134.3</ele>
        <time>2023-07-20T07:31:20Z</time>
      </trkpt>
      <trkpt lat="48.36906" lon="2.73842">
        <ele>134.3</ele>
        <time>2023-07-20T07:31:21Z</time>
      </trkpt>
      <trkpt lat="48.36906" lon="2.7384">
        <ele>134.3</ele>
        <time>2023-07-20T07:31:22Z</time>
      </trkpt>
      <trkpt lat="48.36906" lon="2.7384">
        <ele>134.3</ele>
        <time>2023-07-20T07:31:23Z</time>
      </trkpt>
      <trkpt lat="48.36906" lon="2.73839">
        <ele>134.3</ele>
        <time>2023-07-20T07:31:24Z</time>
      </trkpt>
      <trkpt lat="48.36907" lon="2.73838">
        <ele>134.3</ele>
        <time>2023-07-20T07:31:25Z</time>
      </trkpt>
      <trkpt lat="48.36907" lon="2.73838">
        <ele>134.3</ele>
        <time>2023-07-20T07:31:26Z</time>
      </trkpt>
      <trkpt lat="48.36907" lon="2.73837">
        <ele>134.3</ele>
        <time>2023-07-20T07:31:27Z</time>
      </trkpt>
      <trkpt lat="48.36908" lon="2.73835">
        <ele>134.2</ele>
        <time>2023-07-20T07:31:28Z</time>
      </trkpt>
      <trkpt lat="48.36908" lon="2.73833">
        <ele>134.2</ele>
        <time>2023-07-20T07:31:29Z</time>
      </trkpt>
      <trkpt lat="48.36908" lon="2.73831">
        <ele>134.2</ele>
        <time>2023-07-20T07:31:30Z</time>
      </trkpt>
      <trkpt lat="48.36907" lon="2.7383">
        <ele>134.2</ele>
        <time>2023-07-20T07:31:31Z</time>
      </trkpt>
      <trkpt lat="48.36907" lon="2.73828">
        <ele>134.2</ele>
        <time>2023-07-20T07:31:32Z</time>
      </trkpt>
      <trkpt lat="48.36907" lon="2.73827">
        <ele>134.1</ele>
        <time>2023-07-20T07:31:33Z</time>
      </trkpt>
      <trkpt lat="48.36907" lon="2.73826">
        <ele>134.1</ele>
        <time>2023-07-20T07:31:34Z</time>
      </trkpt>
      <trkpt lat="48.36907" lon="2.73824">
        <ele>134.1</ele>
        <time>2023-07-20T07:31:35Z</time>
      </trkpt>
      <trkpt lat="48.36907" lon="2.73822">
        <ele>134.1</ele>
        <time>2023-07-20T07:31:36Z</time>
      </trkpt>
      <trkpt lat="48.36906" lon="2.73821">
        <ele>134</ele>
        <time>2023-07-20T07:31:37Z</time>
      </trkpt>
      <trkpt lat="48.36906" lon="2.7382">
        <ele>134</ele>
        <time>2023-07-20T07:31:38Z</time>
      </trkpt>
      <trkpt lat="48.36906" lon="2.73819">
        <ele>134</ele>
        <time>2023-07-20T07:31:39Z</time>
      </trkpt>
      <trkpt lat="48.36906" lon="2.73818">
        <ele>134</ele>
        <time>2023-07-20T07:31:40Z</time>
      </trkpt>
      <trkpt lat="48.36906" lon="2.73817">
        <ele>134</ele>
        <time>2023-07-20T07:31:41Z</time>
      </trkpt>
      <trkpt lat="48.36906" lon="2.73817">
        <ele>129.3</ele>
        <time>2023-07-20T07:31:42Z</time>
      </trkpt>
      <trkpt lat="48.36906" lon="2.73816">
        <ele>129.1</ele>
        <time>2023-07-20T07:31:43Z</time>
      </trkpt>
      <trkpt lat="48.36906" lon="2.73815">
        <ele>129</ele>
        <time>2023-07-20T07:31:44Z</time>
      </trkpt>
      <trkpt lat="48.36906" lon="2.73815">
        <ele>128.9</ele>
        <time>2023-07-20T07:31:45Z</time>
      </trkpt>
      <trkpt lat="48.36906" lon="2.73815">
        <ele>128.8</ele>
        <time>2023-07-20T07:31:46Z</time>
      </trkpt>
      <trkpt lat="48.36906" lon="2.73812">
        <ele>128.5</ele>
        <time>2023-07-20T07:31:47Z</time>
      </trkpt>
      <trkpt lat="48.36906" lon="2.73811">
        <ele>128.3</ele>
        <time>2023-07-20T07:31:48Z</time>
      </trkpt>
      <trkpt lat="48.36906" lon="2.7381">
        <ele>128</ele>
        <time>2023-07-20T07:31:49Z</time>
      </trkpt>
      <trkpt lat="48.36906" lon="2.73808">
        <ele>127.8</ele>
        <time>2023-07-20T07:31:50Z</time>
      </trkpt>
      <trkpt lat="48.36905" lon="2.73807">
        <ele>127.6</ele>
        <time>2023-07-20T07:31:51Z</time>
      </trkpt>
      <trkpt lat="48.36905" lon="2.73805">
        <ele>127.1</ele>
        <time>2023-07-20T07:31:52Z</time>
      </trkpt>
      <trkpt lat="48.36905" lon="2.73802">
        <ele>126.8</ele>
        <time>2023-07-20T07:31:53Z</time>
      </trkpt>
      <trkpt lat="48.36904" lon="2.73801">
        <ele>126.5</ele>
        <time>2023-07-20T07:31:54Z</time>
      </trkpt>
      <trkpt lat="48.36904" lon="2.73801">
        <ele>126.5</ele>
        <time>2023-07-20T07:31:55Z</time>
      </trkpt>
      <trkpt lat="48.36904" lon="2.73801">
        <ele>126.4</ele>
        <time>2023-07-20T07:31:56Z</time>
      </trkpt>
      <trkpt lat="48.36904" lon="2.73801">
        <ele>126.3</ele>
        <time>2023-07-20T07:31:57Z</time>
      </trkpt>
      <trkpt lat="48.36904" lon="2.738">
        <ele>126.1</ele>
        <time>2023-07-20T07:31:58Z</time>
      </trkpt>
      <trkpt lat="48.36904" lon="2.73799">
        <ele>126</ele>
        <time>2023-07-20T07:31:59Z</time>
      </trkpt>
      <trkpt lat="48.36904" lon="2.73798">
        <ele>125.9</ele>
        <time>2023-07-20T07:32:00Z</time>
      </trkpt>
      <trkpt lat="48.36904" lon="2.73798">
        <ele>125.8</ele>
        <time>2023-07-20T07:32:01Z</time>
      </trkpt>
      <trkpt lat="48.36904" lon="2.73797">
        <ele>125.7</ele>
        <time>2023-07-20T07:32:02Z</time>
      </trkpt>
      <trkpt lat="48.36904" lon="2.73795">
        <ele>125.4</ele>
        <time>2023-07-20T07:32:03Z</time>
      </trkpt>
      <trkpt lat="48.36903" lon="2.73794">
        <ele>125.2</ele>
        <time>2023-07-20T07:32:04Z</time>
      </trkpt>
      <trkpt lat="48.36904" lon="2.73793">
        <ele>124.9</ele>
        <time>2023-07-20T07:32:05Z</time>
      </trkpt>
      <trkpt lat="48.36904" lon="2.73791">
        <ele>124.6</ele>
        <time>2023-07-20T07:32:06Z</time>
      </trkpt>
      <trkpt lat="48.36905" lon="2.73789">
        <ele>124.3</ele>
        <time>2023-07-20T07:32:07Z</time>
      </trkpt>
      <trkpt lat="48.36905" lon="2.73788">
        <ele>124.2</ele>
        <time>2023-07-20T07:32:08Z</time>
      </trkpt>
      <trkpt lat="48.36905" lon="2.73788">
        <ele>124</ele>
        <time>2023-07-20T07:32:09Z</time>
      </trkpt>
      <trkpt lat="48.36905" lon="2.73788">
        <ele>124</ele>
        <time>2023-07-20T07:32:10Z</time>
      </trkpt>
      <trkpt lat="48.36905" lon="2.73787">
        <ele>123.9</ele>
        <time>2023-07-20T07:32:11Z</time>
      </trkpt>
      <trkpt lat="48.36905" lon="2.73786">
        <ele>123.7</ele>
        <time>2023-07-20T07:32:12Z</time>
      </trkpt>
      <trkpt lat="48.36905" lon="2.73785">
        <ele>123.5</ele>
        <time>2023-07-20T07:32:13Z</time>
      </trkpt>
      <trkpt lat="48.36905" lon="2.73784">
        <ele>123.4</ele>
        <time>2023-07-20T07:32:14Z</time>
      </trkpt>
      <trkpt lat="48.36906" lon="2.73782">
        <ele>123.1</ele>
        <time>2023-07-20T07:32:15Z</time>
      </trkpt>
      <trkpt lat="48.36906" lon="2.73779">
        <ele>122.7</ele>
        <time>2023-07-20T07:32:16Z</time>
      </trkpt>
      <trkpt lat="48.36906" lon="2.73778">
        <ele>122.5</ele>
        <time>2023-07-20T07:32:17Z</time>
      </trkpt>
      <trkpt lat="48.36906" lon="2.73776">
        <ele>122.2</ele>
        <time>2023-07-20T07:32:18Z</time>
      </trkpt>
      <trkpt lat="48.36906" lon="2.73776">
        <ele>122.1</ele>
        <time>2023-07-20T07:32:19Z</time>
      </trkpt>
      <trkpt lat="48.36907" lon="2.73773">
        <ele>121.7</ele>
        <time>2023-07-20T07:32:20Z</time>
      </trkpt>
      <trkpt lat="48.36907" lon="2.73772">
        <ele>121.5</ele>
        <time>2023-07-20T07:32:21Z</time>
      </trkpt>
      <trkpt lat="48.36906" lon="2.73769">
        <ele>121.1</ele>
        <time>2023-07-20T07:32:22Z</time>
      </trkpt>
      <trkpt lat="48.36906" lon="2.73768">
        <ele>120.9</ele>
        <time>2023-07-20T07:32:23Z</time>
      </trkpt>
      <trkpt lat="48.36906" lon="2.73767">
        <ele>120.7</ele>
        <time>2023-07-20T07:32:24Z</time>
      </trkpt>
      <trkpt lat="48.36905" lon="2.73765">
        <ele>120.4</ele>
        <time>2023-07-20T07:32:25Z</time>
      </trkpt>
      <trkpt lat="48.36905" lon="2.73763">
        <ele>120.1</ele>
        <time>2023-07-20T07:32:26Z</time>
      </trkpt>
      <trkpt lat="48.36905" lon="2.73762">
        <ele>119.9</ele>
        <time>2023-07-20T07:32:27Z</time>
      </trkpt>
      <trkpt lat="48.36905" lon="2.7376">
        <ele>119.6</ele>
        <time>2023-07-20T07:32:28Z</time>
      </trkpt>
      <trkpt lat="48.36905" lon="2.73759">
        <ele>119.5</ele>
        <time>2023-07-20T07:32:29Z</time>
      </trkpt>
      <trkpt lat="48.36904" lon="2.73758">
        <ele>119.3</ele>
        <time>2023-07-20T07:32:30Z</time>
      </trkpt>
      <trkpt lat="48.36904" lon="2.73757">
        <ele>119.1</ele>
        <time>2023-07-20T07:32:31Z</time>
      </trkpt>
      <trkpt lat="48.36904" lon="2.73756">
        <ele>119</ele>
        <time>2023-07-20T07:32:32Z</time>
      </trkpt>
      <trkpt lat="48.36904" lon="2.73755">
        <ele>118.8</ele>
        <time>2023-07-20T07:32:33Z</time>
      </trkpt>
      <trkpt lat="48.36904" lon="2.73754">
        <ele>118.7</ele>
        <time>2023-07-20T07:32:34Z</time>
      </trkpt>
      <trkpt lat="48.36904" lon="2.73753">
        <ele>118.5</ele>
        <time>2023-07-20T07:32:35Z</time>
      </trkpt>
      <trkpt lat="48.36904" lon="2.73751">
        <ele>118.3</ele>
        <time>2023-07-20T07:32:36Z</time>
      </trkpt>
      <trkpt lat="48.36904" lon="2.7375">
        <ele>118.1</ele>
        <time>2023-07-20T07:32:37Z</time>
      </trkpt>
      <trkpt lat="48.36904" lon="2.73749">
        <ele>118</ele>
        <time>2023-07-20T07:32:38Z</time>
      </trkpt>
      <trkpt lat="48.36905" lon="2.73748">
        <ele>117.8</ele>
        <time>2023-07-20T07:32:39Z</time>
      </trkpt>
      <trkpt lat="48.36905" lon="2.73748">
        <ele>117.8</ele>
        <time>2023-07-20T07:32:40Z</time>
      </trkpt>
      <trkpt lat="48.36905" lon="2.73748">
        <ele>117.8</ele>
        <time>2023-07-20T07:32:41Z</time>
      </trkpt>
      <trkpt lat="48.36906" lon="2.73746">
        <ele>117.5</ele>
        <time>2023-07-20T07:32:42Z</time>
      </trkpt>
      <trkpt lat="48.36906" lon="2.73744">
        <ele>117.3</ele>
        <time>2023-07-20T07:32:43Z</time>
      </trkpt>
      <trkpt lat="48.36906" lon="2.73743">
        <ele>117.1</ele>
        <time>2023-07-20T07:32:44Z</time>
      </trkpt>
      <trkpt lat="48.36906" lon="2.73743">
        <ele>117</ele>
        <time>2023-07-20T07:32:45Z</time>
      </trkpt>
      <trkpt lat="48.36907" lon="2.73742">
        <ele>116.9</ele>
        <time>2023-07-20T07:32:46Z</time>
      </trkpt>
      <trkpt lat="48.36907" lon="2.73741">
        <ele>116.8</ele>
        <time>2023-07-20T07:32:47Z</time>
      </trkpt>
      <trkpt lat="48.36907" lon="2.73739">
        <ele>116.5</ele>
        <time>2023-07-20T07:32:48Z</time>
      </trkpt>
      <trkpt lat="48.36907" lon="2.73738">
        <ele>116.3</ele>
        <time>2023-07-20T07:32:49Z</time>
      </trkpt>
      <trkpt lat="48.36907" lon="2.73736">
        <ele>116.2</ele>
        <time>2023-07-20T07:32:50Z</time>
      </trkpt>
      <trkpt lat="48.36908" lon="2.73736">
        <ele>116.1</ele>
        <time>2023-07-20T07:32:51Z</time>
      </trkpt>
      <trkpt lat="48.36908" lon="2.73734">
        <ele>115.9</ele>
        <time>2023-07-20T07:32:52Z</time>
      </trkpt>
      <trkpt lat="48.36908" lon="2.73733">
        <ele>115.7</ele>
        <time>2023-07-20T07:32:53Z</time>
      </trkpt>
      <trkpt lat="48.36909" lon="2.73731">
        <ele>115.5</ele>
        <time>2023-07-20T07:32:54Z</time>
      </trkpt>
      <trkpt lat="48.36909" lon="2.7373">
        <ele>115.4</ele>
        <time>2023-07-20T07:32:55Z</time>
      </trkpt>
      <trkpt lat="48.36909" lon="2.73729">
        <ele>115.3</ele>
        <time>2023-07-20T07:32:56Z</time>
      </trkpt>
      <trkpt lat="48.36909" lon="2.73727">
        <ele>115.1</ele>
        <time>2023-07-20T07:32:57Z</time>
      </trkpt>
      <trkpt lat="48.36909" lon="2.73726">
        <ele>114.9</ele>
        <time>2023-07-20T07:32:58Z</time>
      </trkpt>
      <trkpt lat="48.36909" lon="2.73724">
        <ele>114.7</ele>
        <time>2023-07-20T07:32:59Z</time>
      </trkpt>
      <trkpt lat="48.36909" lon="2.73724">
        <ele>114.6</ele>
        <time>2023-07-20T07:33:00Z</time>
      </trkpt>
      <trkpt lat="48.36909" lon="2.73724">
        <ele>114.6</ele>
        <time>2023-07-20T07:33:01Z</time>
      </trkpt>
      <trkpt lat="48.3691" lon="2.73724">
        <ele>114.6</ele>
        <time>2023-07-20T07:33:02Z</time>
      </trkpt>
      <trkpt lat="48.36911" lon="2.73724">
        <ele>114.4</ele>
        <time>2023-07-20T07:33:03Z</time>
      </trkpt>
      <trkpt lat="48.36911" lon="2.73724">
        <ele>114.4</ele>
        <time>2023-07-20T07:33:04Z</time>
      </trkpt>
      <trkpt lat="48.36911" lon="2.73723">
        <ele>114.3</ele>
        <time>2023-07-20T07:33:05Z</time>
      </trkpt>
      <trkpt lat="48.36911" lon="2.73721">
        <ele>114.1</ele>
        <time>2023-07-20T07:33:06Z</time>
      </trkpt>
      <trkpt lat="48.3691" lon="2.7372">
        <ele>113.9</ele>
        <time>2023-07-20T07:33:07Z</time>
      </trkpt>
      <trkpt lat="48.3691" lon="2.73719">
        <ele>113.8</ele>
        <time>2023-07-20T07:33:08Z</time>
      </trkpt>
      <trkpt lat="48.3691" lon="2.73718">
        <ele>113.7</ele>
        <time>2023-07-20T07:33:09Z</time>
      </trkpt>
      <trkpt lat="48.3691" lon="2.73717">
        <ele>113.6</ele>
        <time>2023-07-20T07:33:10Z</time>
      </trkpt>
      <trkpt lat="48.3691" lon="2.73716">
        <ele>113.5</ele>
        <time>2023-07-20T07:33:11Z</time>
      </trkpt>
      <trkpt lat="48.3691" lon="2.73714">
        <ele>113.3</ele>
        <time>2023-07-20T07:33:12Z</time>
      </trkpt>
      <trkpt lat="48.36911" lon="2.73712">
        <ele>113.1</ele>
        <time>2023-07-20T07:33:13Z</time>
      </trkpt>
      <trkpt lat="48.36911" lon="2.73711">
        <ele>112.9</ele>
        <time>2023-07-20T07:33:14Z</time>
      </trkpt>
      <trkpt lat="48.36911" lon="2.73709">
        <ele>112.8</ele>
        <time>2023-07-20T07:33:15Z</time>
      </trkpt>
      <trkpt lat="48.3691" lon="2.73709">
        <ele>112.7</ele>
        <time>2023-07-20T07:33:16Z</time>
      </trkpt>
      <trkpt lat="48.36911" lon="2.73708">
        <ele>112.5</ele>
        <time>2023-07-20T07:33:17Z</time>
      </trkpt>
      <trkpt lat="48.36911" lon="2.73706">
        <ele>112.3</ele>
        <time>2023-07-20T07:33:18Z</time>
      </trkpt>
      <trkpt lat="48.36911" lon="2.73704">
        <ele>112.1</ele>
        <time>2023-07-20T07:33:19Z</time>
      </trkpt>
      <trkpt lat="48.3691" lon="2.73704">
        <ele>112</ele>
        <time>2023-07-20T07:33:20Z</time>
      </trkpt>
      <trkpt lat="48.3691" lon="2.73703">
        <ele>111.8</ele>
        <time>2023-07-20T07:33:21Z</time>
      </trkpt>
      <trkpt lat="48.3691" lon="2.73703">
        <ele>111.8</ele>
        <time>2023-07-20T07:33:22Z</time>
      </trkpt>
      <trkpt lat="48.3691" lon="2.73701">
        <ele>111.6</ele>
        <time>2023-07-20T07:33:23Z</time>
      </trkpt>
      <trkpt lat="48.3691" lon="2.737">
        <ele>111.5</ele>
        <time>2023-07-20T07:33:24Z</time>
      </trkpt>
      <trkpt lat="48.36911" lon="2.73698">
        <ele>111.2</ele>
        <time>2023-07-20T07:33:25Z</time>
      </trkpt>
      <trkpt lat="48.36911" lon="2.73696">
        <ele>111.1</ele>
        <time>2023-07-20T07:33:26Z</time>
      </trkpt>
      <trkpt lat="48.36912" lon="2.73695">
        <ele>110.9</ele>
        <time>2023-07-20T07:33:27Z</time>
      </trkpt>
      <trkpt lat="48.36912" lon="2.73693">
        <ele>110.7</ele>
        <time>2023-07-20T07:33:28Z</time>
      </trkpt>
      <trkpt lat="48.36912" lon="2.73693">
        <ele>110.6</ele>
        <time>2023-07-20T07:33:29Z</time>
      </trkpt>
      <trkpt lat="48.36911" lon="2.73693">
        <ele>110.5</ele>
        <time>2023-07-20T07:33:30Z</time>
      </trkpt>
      <trkpt lat="48.36911" lon="2.73692">
        <ele>110.3</ele>
        <time>2023-07-20T07:33:31Z</time>
      </trkpt>
      <trkpt lat="48.3691" lon="2.73692">
        <ele>110.2</ele>
        <time>2023-07-20T07:33:32Z</time>
      </trkpt>
      <trkpt lat="48.36909" lon="2.73692">
        <ele>110.1</ele>
        <time>2023-07-20T07:33:33Z</time>
      </trkpt>
      <trkpt lat="48.36909" lon="2.73691">
        <ele>110.1</ele>
        <time>2023-07-20T07:33:34Z</time>
      </trkpt>
      <trkpt lat="48.36909" lon="2.7369">
        <ele>109.9</ele>
        <time>2023-07-20T07:33:35Z</time>
      </trkpt>
      <trkpt lat="48.36909" lon="2.7369">
        <ele>109.8</ele>
        <time>2023-07-20T07:33:36Z</time>
      </trkpt>
      <trkpt lat="48.36909" lon="2.7369">
        <ele>109.8</ele>
        <time>2023-07-20T07:33:37Z</time>
      </trkpt>
      <trkpt lat="48.36909" lon="2.73689">
        <ele>109.7</ele>
        <time>2023-07-20T07:33:38Z</time>
      </trkpt>
      <trkpt lat="48.36909" lon="2.73689">
        <ele>109.6</ele>
        <time>2023-07-20T07:33:39Z</time>
      </trkpt>
      <trkpt lat="48.36909" lon="2.73688">
        <ele>109.6</ele>
        <time>2023-07-20T07:33:40Z</time>
      </trkpt>
      <trkpt lat="48.36909" lon="2.73688">
        <ele>109.5</ele>
        <time>2023-07-20T07:33:41Z</time>
      </trkpt>
      <trkpt lat="48.36909" lon="2.73688">
        <ele>109.5</ele>
        <time>2023-07-20T07:33:42Z</time>
      </trkpt>
      <trkpt lat="48.36908" lon="2.73688">
        <ele>109.5</ele>
        <time>2023-07-20T07:33:43Z</time>
      </trkpt>
      <trkpt lat="48.36908" lon="2.73686">
        <ele>109.4</ele>
        <time>2023-07-20T07:33:44Z</time>
      </trkpt>
      <trkpt lat="48.36907" lon="2.73684">
        <ele>109.2</ele>
        <time>2023-07-20T07:33:45Z</time>
      </trkpt>
      <trkpt lat="48.36906" lon="2.73684">
        <ele>109.1</ele>
        <time>2023-07-20T07:33:46Z</time>
      </trkpt>
      <trkpt lat="48.36906" lon="2.73685">
        <ele>109.1</ele>
        <time>2023-07-20T07:33:47Z</time>
      </trkpt>
      <trkpt lat="48.36905" lon="2.73684">
        <ele>109</ele>
        <time>2023-07-20T07:33:48Z</time>
      </trkpt>
      <trkpt lat="48.36904" lon="2.73683">
        <ele>108.9</ele>
        <time>2023-07-20T07:33:49Z</time>
      </trkpt>
      <trkpt lat="48.36904" lon="2.73682">
        <ele>108.8</ele>
        <time>2023-07-20T07:33:50Z</time>
      </trkpt>
      <trkpt lat="48.36903" lon="2.7368">
        <ele>108.7</ele>
        <time>2023-07-20T07:33:51Z</time>
      </trkpt>
      <trkpt lat="48.36902" lon="2.73679">
        <ele>108.5</ele>
        <time>2023-07-20T07:33:52Z</time>
      </trkpt>
      <trkpt lat="48.369" lon="2.73677">
        <ele>108.3</ele>
        <time>2023-07-20T07:33:53Z</time>
      </trkpt>
      <trkpt lat="48.36899" lon="2.73676">
        <ele>108.2</ele>
        <time>2023-07-20T07:33:54Z</time>
      </trkpt>
      <trkpt lat="48.36898" lon="2.73674">
        <ele>108</ele>
        <time>2023-07-20T07:33:55Z</time>
      </trkpt>
      <trkpt lat="48.36897" lon="2.73673">
        <ele>107.9</ele>
        <time>2023-07-20T07:33:56Z</time>
      </trkpt>
      <trkpt lat="48.36896" lon="2.73672">
        <ele>107.8</ele>
        <time>2023-07-20T07:33:57Z</time>
      </trkpt>
      <trkpt lat="48.36895" lon="2.73672">
        <ele>107.7</ele>
        <time>2023-07-20T07:33:58Z</time>
      </trkpt>
      <trkpt lat="48.36894" lon="2.73671">
        <ele>107.6</ele>
        <time>2023-07-20T07:33:59Z</time>
      </trkpt>
      <trkpt lat="48.36893" lon="2.73669">
        <ele>107.4</ele>
        <time>2023-07-20T07:34:00Z</time>
      </trkpt>
      <trkpt lat="48.36892" lon="2.73668">
        <ele>107.3</ele>
        <time>2023-07-20T07:34:01Z</time>
      </trkpt>
      <trkpt lat="48.36891" lon="2.73664">
        <ele>107.1</ele>
        <time>2023-07-20T07:34:02Z</time>
      </trkpt>
      <trkpt lat="48.36888" lon="2.7366">
        <ele>106.8</ele>
        <time>2023-07-20T07:34:03Z</time>
      </trkpt>
      <trkpt lat="48.36888" lon="2.73659">
        <ele>106.8</ele>
        <time>2023-07-20T07:34:04Z</time>
      </trkpt>
      <trkpt lat="48.36888" lon="2.73657">
        <ele>106.7</ele>
        <time>2023-07-20T07:34:05Z</time>
      </trkpt>
      <trkpt lat="48.36887" lon="2.73656">
        <ele>106.6</ele>
        <time>2023-07-20T07:34:06Z</time>
      </trkpt>
      <trkpt lat="48.36887" lon="2.73655">
        <ele>106.6</ele>
        <time>2023-07-20T07:34:07Z</time>
      </trkpt>
      <trkpt lat="48.36888" lon="2.73655">
        <ele>106.6</ele>
        <time>2023-07-20T07:34:08Z</time>
      </trkpt>
      <trkpt lat="48.36888" lon="2.73655">
        <ele>106.5</ele>
        <time>2023-07-20T07:34:09Z</time>
      </trkpt>
      <trkpt lat="48.36887" lon="2.73655">
        <ele>106.5</ele>
        <time>2023-07-20T07:34:10Z</time>
      </trkpt>
      <trkpt lat="48.36886" lon="2.73655">
        <ele>106.4</ele>
        <time>2023-07-20T07:34:11Z</time>
      </trkpt>
      <trkpt lat="48.36885" lon="2.73656">
        <ele>106.3</ele>
        <time>2023-07-20T07:34:12Z</time>
      </trkpt>
      <trkpt lat="48.36884" lon="2.73656">
        <ele>106.3</ele>
        <time>2023-07-20T07:34:13Z</time>
      </trkpt>
      <trkpt lat="48.36883" lon="2.73655">
        <ele>106.2</ele>
        <time>2023-07-20T07:34:14Z</time>
      </trkpt>
      <trkpt lat="48.36883" lon="2.73655">
        <ele>106.2</ele>
        <time>2023-07-20T07:34:15Z</time>
      </trkpt>
      <trkpt lat="48.36882" lon="2.73654">
        <ele>106.1</ele>
        <time>2023-07-20T07:34:16Z</time>
      </trkpt>
      <trkpt lat="48.36881" lon="2.73654">
        <ele>106</ele>
        <time>2023-07-20T07:34:17Z</time>
      </trkpt>
      <trkpt lat="48.36881" lon="2.73654">
        <ele>106</ele>
        <time>2023-07-20T07:34:18Z</time>
      </trkpt>
      <trkpt lat="48.3688" lon="2.73653">
        <ele>106</ele>
        <time>2023-07-20T07:34:19Z</time>
      </trkpt>
      <trkpt lat="48.36879" lon="2.73653">
        <ele>105.9</ele>
        <time>2023-07-20T07:34:20Z</time>
      </trkpt>
      <trkpt lat="48.36876" lon="2.73652">
        <ele>105.7</ele>
        <time>2023-07-20T07:34:21Z</time>
      </trkpt>
      <trkpt lat="48.36875" lon="2.73652">
        <ele>105.7</ele>
        <time>2023-07-20T07:34:22Z</time>
      </trkpt>
      <trkpt lat="48.36874" lon="2.73649">
        <ele>105.6</ele>
        <time>2023-07-20T07:34:23Z</time>
      </trkpt>
      <trkpt lat="48.36874" lon="2.73647">
        <ele>105.5</ele>
        <time>2023-07-20T07:34:24Z</time>
      </trkpt>
      <trkpt lat="48.36873" lon="2.73644">
        <ele>105.4</ele>
        <time>2023-07-20T07:34:25Z</time>
      </trkpt>
      <trkpt lat="48.36872" lon="2.73643">
        <ele>105.4</ele>
        <time>2023-07-20T07:34:26Z</time>
      </trkpt>
      <trkpt lat="48.3687" lon="2.73643">
        <ele>105.3</ele>
        <time>2023-07-20T07:34:27Z</time>
      </trkpt>
      <trkpt lat="48.36869" lon="2.73643">
        <ele>105.2</ele>
        <time>2023-07-20T07:34:28Z</time>
      </trkpt>
      <trkpt lat="48.36868" lon="2.73641">
        <ele>105.2</ele>
        <time>2023-07-20T07:34:29Z</time>
      </trkpt>
      <trkpt lat="48.36868" lon="2.73638">
        <ele>105.1</ele>
        <time>2023-07-20T07:34:30Z</time>
      </trkpt>
      <trkpt lat="48.36868" lon="2.73636">
        <ele>105</ele>
        <time>2023-07-20T07:34:31Z</time>
      </trkpt>
      <trkpt lat="48.36867" lon="2.73635">
        <ele>105</ele>
        <time>2023-07-20T07:34:32Z</time>
      </trkpt>
      <trkpt lat="48.36867" lon="2.73635">
        <ele>104.9</ele>
        <time>2023-07-20T07:34:33Z</time>
      </trkpt>
      <trkpt lat="48.36867" lon="2.73634">
        <ele>104.9</ele>
        <time>2023-07-20T07:34:34Z</time>
      </trkpt>
      <trkpt lat="48.36867" lon="2.73633">
        <ele>104.9</ele>
        <time>2023-07-20T07:34:35Z</time>
      </trkpt>
      <trkpt lat="48.36867" lon="2.73633">
        <ele>104.9</ele>
        <time>2023-07-20T07:34:36Z</time>
      </trkpt>
      <trkpt lat="48.36867" lon="2.73631">
        <ele>104.8</ele>
        <time>2023-07-20T07:34:37Z</time>
      </trkpt>
      <trkpt lat="48.36867" lon="2.7363">
        <ele>104.8</ele>
        <time>2023-07-20T07:34:38Z</time>
      </trkpt>
      <trkpt lat="48.36866" lon="2.7363">
        <ele>104.8</ele>
        <time>2023-07-20T07:34:39Z</time>
      </trkpt>
      <trkpt lat="48.36866" lon="2.73628">
        <ele>104.7</ele>
        <time>2023-07-20T07:34:40Z</time>
      </trkpt>
      <trkpt lat="48.36865" lon="2.73627">
        <ele>104.7</ele>
        <time>2023-07-20T07:34:41Z</time>
      </trkpt>
      <trkpt lat="48.36864" lon="2.73625">
        <ele>104.6</ele>
        <time>2023-07-20T07:34:42Z</time>
      </trkpt>
      <trkpt lat="48.36864" lon="2.73623">
        <ele>104.5</ele>
        <time>2023-07-20T07:34:43Z</time>
      </trkpt>
      <trkpt lat="48.36863" lon="2.73622">
        <ele>104.5</ele>
        <time>2023-07-20T07:34:44Z</time>
      </trkpt>
      <trkpt lat="48.36863" lon="2.73621">
        <ele>104.4</ele>
        <time>2023-07-20T07:34:45Z</time>
      </trkpt>
      <trkpt lat="48.36863" lon="2.7362">
        <ele>104.4</ele>
        <time>2023-07-20T07:34:46Z</time>
      </trkpt>
      <trkpt lat="48.36862" lon="2.73616">
        <ele>104.3</ele>
        <time>2023-07-20T07:34:47Z</time>
      </trkpt>
      <trkpt lat="48.36862" lon="2.73614">
        <ele>104.2</ele>
        <time>2023-07-20T07:34:48Z</time>
      </trkpt>
      <trkpt lat="48.36862" lon="2.73611">
        <ele>104.1</ele>
        <time>2023-07-20T07:34:49Z</time>
      </trkpt>
      <trkpt lat="48.36861" lon="2.73608">
        <ele>104</ele>
        <time>2023-07-20T07:34:50Z</time>
      </trkpt>
      <trkpt lat="48.3686" lon="2.73608">
        <ele>103.9</ele>
        <time>2023-07-20T07:34:51Z</time>
      </trkpt>
      <trkpt lat="48.3686" lon="2.73609">
        <ele>103.9</ele>
        <time>2023-07-20T07:34:52Z</time>
      </trkpt>
      <trkpt lat="48.36859" lon="2.73608">
        <ele>103.8</ele>
        <time>2023-07-20T07:34:53Z</time>
      </trkpt>
      <trkpt lat="48.36858" lon="2.73608">
        <ele>103.8</ele>
        <time>2023-07-20T07:34:54Z</time>
      </trkpt>
      <trkpt lat="48.36858" lon="2.73606">
        <ele>103.7</ele>
        <time>2023-07-20T07:34:55Z</time>
      </trkpt>
      <trkpt lat="48.36857" lon="2.73605">
        <ele>103.7</ele>
        <time>2023-07-20T07:34:56Z</time>
      </trkpt>
      <trkpt lat="48.36857" lon="2.73604">
        <ele>103.6</ele>
        <time>2023-07-20T07:34:57Z</time>
      </trkpt>
      <trkpt lat="48.36856" lon="2.73604">
        <ele>103.6</ele>
        <time>2023-07-20T07:34:58Z</time>
      </trkpt>
      <trkpt lat="48.36855" lon="2.73603">
        <ele>103.5</ele>
        <time>2023-07-20T07:34:59Z</time>
      </trkpt>
      <trkpt lat="48.36855" lon="2.73601">
        <ele>103.5</ele>
        <time>2023-07-20T07:35:00Z</time>
      </trkpt>
      <trkpt lat="48.36854" lon="2.736">
        <ele>103.4</ele>
        <time>2023-07-20T07:35:01Z</time>
      </trkpt>
      <trkpt lat="48.36853" lon="2.736">
        <ele>103.3</ele>
        <time>2023-07-20T07:35:02Z</time>
      </trkpt>
      <trkpt lat="48.36852" lon="2.73599">
        <ele>103.3</ele>
        <time>2023-07-20T07:35:03Z</time>
      </trkpt>
      <trkpt lat="48.36851" lon="2.73599">
        <ele>103.3</ele>
        <time>2023-07-20T07:35:04Z</time>
      </trkpt>
      <trkpt lat="48.36851" lon="2.73599">
        <ele>103.2</ele>
        <time>2023-07-20T07:35:05Z</time>
      </trkpt>
      <trkpt lat="48.36849" lon="2.73599">
        <ele>103.1</ele>
        <time>2023-07-20T07:35:06Z</time>
      </trkpt>
      <trkpt lat="48.36848" lon="2.73598">
        <ele>103.1</ele>
        <time>2023-07-20T07:35:07Z</time>
      </trkpt>
      <trkpt lat="48.36846" lon="2.73597">
        <ele>103</ele>
        <time>2023-07-20T07:35:08Z</time>
      </trkpt>
      <trkpt lat="48.36846" lon="2.73596">
        <ele>102.9</ele>
        <time>2023-07-20T07:35:09Z</time>
      </trkpt>
      <trkpt lat="48.36845" lon="2.73596">
        <ele>102.9</ele>
        <time>2023-07-20T07:35:10Z</time>
      </trkpt>
      <trkpt lat="48.36844" lon="2.73593">
        <ele>102.8</ele>
        <time>2023-07-20T07:35:11Z</time>
      </trkpt>
      <trkpt lat="48.36843" lon="2.73593">
        <ele>102.7</ele>
        <time>2023-07-20T07:35:12Z</time>
      </trkpt>
      <trkpt lat="48.36842" lon="2.73592">
        <ele>102.7</ele>
        <time>2023-07-20T07:35:13Z</time>
      </trkpt>
      <trkpt lat="48.36841" lon="2.73591">
        <ele>102.6</ele>
        <time>2023-07-20T07:35:14Z</time>
      </trkpt>
      <trkpt lat="48.3684" lon="2.7359">
        <ele>102.6</ele>
        <time>2023-07-20T07:35:15Z</time>
      </trkpt>
      <trkpt lat="48.3684" lon="2.73589">
        <ele>102.5</ele>
        <time>2023-07-20T07:35:16Z</time>
      </trkpt>
      <trkpt lat="48.36839" lon="2.73588">
        <ele>102.5</ele>
        <time>2023-07-20T07:35:17Z</time>
      </trkpt>
      <trkpt lat="48.36839" lon="2.73588">
        <ele>102.5</ele>
        <time>2023-07-20T07:35:18Z</time>
      </trkpt>
      <trkpt lat="48.36838" lon="2.73587">
        <ele>102.4</ele>
        <time>2023-07-20T07:35:19Z</time>
      </trkpt>
      <trkpt lat="48.36838" lon="2.73586">
        <ele>102.4</ele>
        <time>2023-07-20T07:35:20Z</time>
      </trkpt>
      <trkpt lat="48.36837" lon="2.73586">
        <ele>102.3</ele>
        <time>2023-07-20T07:35:21Z</time>
      </trkpt>
      <trkpt lat="48.36835" lon="2.73586">
        <ele>102.2</ele>
        <time>2023-07-20T07:35:22Z</time>
      </trkpt>
      <trkpt lat="48.36834" lon="2.73585">
        <ele>102.2</ele>
        <time>2023-07-20T07:35:23Z</time>
      </trkpt>
      <trkpt lat="48.36833" lon="2.73584">
        <ele>102.1</ele>
        <time>2023-07-20T07:35:24Z</time>
      </trkpt>
      <trkpt lat="48.36832" lon="2.73581">
        <ele>102</ele>
        <time>2023-07-20T07:35:25Z</time>
      </trkpt>
      <trkpt lat="48.36832" lon="2.7358">
        <ele>101.9</ele>
        <time>2023-07-20T07:35:26Z</time>
      </trkpt>
      <trkpt lat="48.36831" lon="2.73579">
        <ele>101.9</ele>
        <time>2023-07-20T07:35:27Z</time>
      </trkpt>
      <trkpt lat="48.36831" lon="2.73577">
        <ele>101.8</ele>
        <time>2023-07-20T07:35:28Z</time>
      </trkpt>
      <trkpt lat="48.3683" lon="2.73576">
        <ele>101.7</ele>
        <time>2023-07-20T07:35:29Z</time>
      </trkpt>
      <trkpt lat="48.36829" lon="2.73576">
        <ele>101.7</ele>
        <time>2023-07-20T07:35:30Z</time>
      </trkpt>
      <trkpt lat="48.36829" lon="2.73575">
        <ele>101.6</ele>
        <time>2023-07-20T07:35:31Z</time>
      </trkpt>
      <trkpt lat="48.36828" lon="2.73574">
        <ele>101.6</ele>
        <time>2023-07-20T07:35:32Z</time>
      </trkpt>
      <trkpt lat="48.36827" lon="2.73572">
        <ele>101.5</ele>
        <time>2023-07-20T07:35:33Z</time>
      </trkpt>
      <trkpt lat="48.36826" lon="2.73571">
        <ele>101.4</ele>
        <time>2023-07-20T07:35:34Z</time>
      </trkpt>
      <trkpt lat="48.36826" lon="2.7357">
        <ele>101.4</ele>
        <time>2023-07-20T07:35:35Z</time>
      </trkpt>
      <trkpt lat="48.36826" lon="2.73568">
        <ele>101.3</ele>
        <time>2023-07-20T07:35:36Z</time>
      </trkpt>
      <trkpt lat="48.36825" lon="2.73567">
        <ele>101.3</ele>
        <time>2023-07-20T07:35:37Z</time>
      </trkpt>
      <trkpt lat="48.36824" lon="2.73566">
        <ele>101.2</ele>
        <time>2023-07-20T07:35:38Z</time>
      </trkpt>
      <trkpt lat="48.36824" lon="2.73565">
        <ele>101.2</ele>
        <time>2023-07-20T07:35:39Z</time>
      </trkpt>
      <trkpt lat="48.36823" lon="2.73564">
        <ele>101.2</ele>
        <time>2023-07-20T07:35:40Z</time>
      </trkpt>
      <trkpt lat="48.36823" lon="2.73564">
        <ele>101.1</ele>
        <time>2023-07-20T07:35:41Z</time>
      </trkpt>
      <trkpt lat="48.36823" lon="2.73563">
        <ele>101.1</ele>
        <time>2023-07-20T07:35:42Z</time>
      </trkpt>
      <trkpt lat="48.36822" lon="2.73562">
        <ele>101</ele>
        <time>2023-07-20T07:35:43Z</time>
      </trkpt>
      <trkpt lat="48.36822" lon="2.73561">
        <ele>101</ele>
        <time>2023-07-20T07:35:44Z</time>
      </trkpt>
      <trkpt lat="48.36821" lon="2.73561">
        <ele>101</ele>
        <time>2023-07-20T07:35:45Z</time>
      </trkpt>
      <trkpt lat="48.3682" lon="2.7356">
        <ele>100.9</ele>
        <time>2023-07-20T07:35:46Z</time>
      </trkpt>
      <trkpt lat="48.36818" lon="2.73559">
        <ele>100.8</ele>
        <time>2023-07-20T07:35:47Z</time>
      </trkpt>
      <trkpt lat="48.36817" lon="2.73558">
        <ele>100.8</ele>
        <time>2023-07-20T07:35:48Z</time>
      </trkpt>
      <trkpt lat="48.36816" lon="2.73558">
        <ele>100.7</ele>
        <time>2023-07-20T07:35:49Z</time>
      </trkpt>
      <trkpt lat="48.36815" lon="2.73558">
        <ele>100.7</ele>
        <time>2023-07-20T07:35:50Z</time>
      </trkpt>
      <trkpt lat="48.36814" lon="2.73557">
        <ele>100.6</ele>
        <time>2023-07-20T07:35:51Z</time>
      </trkpt>
      <trkpt lat="48.36814" lon="2.73556">
        <ele>100.6</ele>
        <time>2023-07-20T07:35:52Z</time>
      </trkpt>
      <trkpt lat="48.36813" lon="2.73555">
        <ele>100.5</ele>
        <time>2023-07-20T07:35:53Z</time>
      </trkpt>
      <trkpt lat="48.36812" lon="2.73555">
        <ele>100.5</ele>
        <time>2023-07-20T07:35:54Z</time>
      </trkpt>
      <trkpt lat="48.36812" lon="2.73554">
        <ele>100.4</ele>
        <time>2023-07-20T07:35:55Z</time>
      </trkpt>
      <trkpt lat="48.36812" lon="2.73552">
        <ele>100.4</ele>
        <time>2023-07-20T07:35:56Z</time>
      </trkpt>
      <trkpt lat="48.36812" lon="2.73551">
        <ele>100.3</ele>
        <time>2023-07-20T07:35:57Z</time>
      </trkpt>
      <trkpt lat="48.36811" lon="2.7355">
        <ele>100.3</ele>
        <time>2023-07-20T07:35:58Z</time>
      </trkpt>
      <trkpt lat="48.36811" lon="2.73549">
        <ele>100.3</ele>
        <time>2023-07-20T07:35:59Z</time>
      </trkpt>
      <trkpt lat="48.36811" lon="2.73548">
        <ele>100.2</ele>
        <time>2023-07-20T07:36:00Z</time>
      </trkpt>
      <trkpt lat="48.3681" lon="2.73545">
        <ele>100.1</ele>
        <time>2023-07-20T07:36:01Z</time>
      </trkpt>
      <trkpt lat="48.3681" lon="2.73544">
        <ele>100.1</ele>
        <time>2023-07-20T07:36:02Z</time>
      </trkpt>
      <trkpt lat="48.36809" lon="2.73543">
        <ele>100</ele>
        <time>2023-07-20T07:36:03Z</time>
      </trkpt>
      <trkpt lat="48.36808" lon="2.73541">
        <ele>99.9</ele>
        <time>2023-07-20T07:36:04Z</time>
      </trkpt>
      <trkpt lat="48.36807" lon="2.7354">
        <ele>99.9</ele>
        <time>2023-07-20T07:36:05Z</time>
      </trkpt>
      <trkpt lat="48.36807" lon="2.73541">
        <ele>99.8</ele>
        <time>2023-07-20T07:36:06Z</time>
      </trkpt>
      <trkpt lat="48.36806" lon="2.73541">
        <ele>99.8</ele>
        <time>2023-07-20T07:36:07Z</time>
      </trkpt>
      <trkpt lat="48.36805" lon="2.7354">
        <ele>99.7</ele>
        <time>2023-07-20T07:36:08Z</time>
      </trkpt>
      <trkpt lat="48.36804" lon="2.7354">
        <ele>99.7</ele>
        <time>2023-07-20T07:36:09Z</time>
      </trkpt>
      <trkpt lat="48.36803" lon="2.7354">
        <ele>99.6</ele>
        <time>2023-07-20T07:36:10Z</time>
      </trkpt>
      <trkpt lat="48.368" lon="2.7354">
        <ele>99.5</ele>
        <time>2023-07-20T07:36:11Z</time>
      </trkpt>
      <trkpt lat="48.36797" lon="2.73542">
        <ele>99.3</ele>
        <time>2023-07-20T07:36:12Z</time>
      </trkpt>
      <trkpt lat="48.36797" lon="2.73543">
        <ele>99.3</ele>
        <time>2023-07-20T07:36:13Z</time>
      </trkpt>
      <trkpt lat="48.36797" lon="2.73544">
        <ele>99.3</ele>
        <time>2023-07-20T07:36:14Z</time>
      </trkpt>
      <trkpt lat="48.36796" lon="2.73544">
        <ele>99.2</ele>
        <time>2023-07-20T07:36:15Z</time>
      </trkpt>
      <trkpt lat="48.36796" lon="2.73543">
        <ele>99.2</ele>
        <time>2023-07-20T07:36:16Z</time>
      </trkpt>
      <trkpt lat="48.36796" lon="2.73543">
        <ele>99.2</ele>
        <time>2023-07-20T07:36:17Z</time>
      </trkpt>
      <trkpt lat="48.36796" lon="2.73543">
        <ele>99.2</ele>
        <time>2023-07-20T07:36:18Z</time>
      </trkpt>
      <trkpt lat="48.36796" lon="2.73543">
        <ele>99.2</ele>
        <time>2023-07-20T07:36:19Z</time>
      </trkpt>
      <trkpt lat="48.36796" lon="2.73543">
        <ele>99.2</ele>
        <time>2023-07-20T07:36:20Z</time>
      </trkpt>
      <trkpt lat="48.36796" lon="2.73543">
        <ele>99.2</ele>
        <time>2023-07-20T07:36:21Z</time>
      </trkpt>
      <trkpt lat="48.36795" lon="2.73541">
        <ele>99.1</ele>
        <time>2023-07-20T07:36:22Z</time>
      </trkpt>
      <trkpt lat="48.36795" lon="2.7354">
        <ele>99.1</ele>
        <time>2023-07-20T07:36:23Z</time>
      </trkpt>
      <trkpt lat="48.36795" lon="2.73539">
        <ele>99.1</ele>
        <time>2023-07-20T07:36:24Z</time>
      </trkpt>
      <trkpt lat="48.36794" lon="2.73538">
        <ele>99</ele>
        <time>2023-07-20T07:36:25Z</time>
      </trkpt>
      <trkpt lat="48.36794" lon="2.73537">
        <ele>99</ele>
        <time>2023-07-20T07:36:26Z</time>
      </trkpt>
      <trkpt lat="48.36793" lon="2.73537">
        <ele>99</ele>
        <time>2023-07-20T07:36:27Z</time>
      </trkpt>
      <trkpt lat="48.36793" lon="2.73536">
        <ele>99</ele>
        <time>2023-07-20T07:36:28Z</time>
      </trkpt>
      <trkpt lat="48.36792" lon="2.73535">
        <ele>98.9</ele>
        <time>2023-07-20T07:36:29Z</time>
      </trkpt>
      <trkpt lat="48.36791" lon="2.73534">
        <ele>98.9</ele>
        <time>2023-07-20T07:36:30Z</time>
      </trkpt>
      <trkpt lat="48.3679" lon="2.73534">
        <ele>98.9</ele>
        <time>2023-07-20T07:36:31Z</time>
      </trkpt>
      <trkpt lat="48.36788" lon="2.73533">
        <ele>98.8</ele>
        <time>2023-07-20T07:36:32Z</time>
      </trkpt>
      <trkpt lat="48.36787" lon="2.73531">
        <ele>98.7</ele>
        <time>2023-07-20T07:36:33Z</time>
      </trkpt>
      <trkpt lat="48.36785" lon="2.73528">
        <ele>98.7</ele>
        <time>2023-07-20T07:36:34Z</time>
      </trkpt>
      <trkpt lat="48.36785" lon="2.73526">
        <ele>98.6</ele>
        <time>2023-07-20T07:36:35Z</time>
      </trkpt>
      <trkpt lat="48.36784" lon="2.73525">
        <ele>98.6</ele>
        <time>2023-07-20T07:36:36Z</time>
      </trkpt>
      <trkpt lat="48.36784" lon="2.73523">
        <ele>98.5</ele>
        <time>2023-07-20T07:36:37Z</time>
      </trkpt>
      <trkpt lat="48.36783" lon="2.73522">
        <ele>98.5</ele>
        <time>2023-07-20T07:36:38Z</time>
      </trkpt>
      <trkpt lat="48.36783" lon="2.73521">
        <ele>98.5</ele>
        <time>2023-07-20T07:36:39Z</time>
      </trkpt>
      <trkpt lat="48.36782" lon="2.73519">
        <ele>98.5</ele>
        <time>2023-07-20T07:36:40Z</time>
      </trkpt>
      <trkpt lat="48.36782" lon="2.73518">
        <ele>98.4</ele>
        <time>2023-07-20T07:36:41Z</time>
      </trkpt>
      <trkpt lat="48.36782" lon="2.73517">
        <ele>98.4</ele>
        <time>2023-07-20T07:36:42Z</time>
      </trkpt>
      <trkpt lat="48.36782" lon="2.73515">
        <ele>98.4</ele>
        <time>2023-07-20T07:36:43Z</time>
      </trkpt>
      <trkpt lat="48.36782" lon="2.73513">
        <ele>98.3</ele>
        <time>2023-07-20T07:36:44Z</time>
      </trkpt>
      <trkpt lat="48.36782" lon="2.73513">
        <ele>98.3</ele>
        <time>2023-07-20T07:36:45Z</time>
      </trkpt>
      <trkpt lat="48.36782" lon="2.73512">
        <ele>98.3</ele>
        <time>2023-07-20T07:36:46Z</time>
      </trkpt>
      <trkpt lat="48.36781" lon="2.73512">
        <ele>97.6</ele>
        <time>2023-07-20T07:36:47Z</time>
      </trkpt>
      <trkpt lat="48.3678" lon="2.73511">
        <ele>97.5</ele>
        <time>2023-07-20T07:36:48Z</time>
      </trkpt>
      <trkpt lat="48.36779" lon="2.73512">
        <ele>97.5</ele>
        <time>2023-07-20T07:36:49Z</time>
      </trkpt>
      <trkpt lat="48.36778" lon="2.7351">
        <ele>97.4</ele>
        <time>2023-07-20T07:36:50Z</time>
      </trkpt>
      <trkpt lat="48.36778" lon="2.73509">
        <ele>97.4</ele>
        <time>2023-07-20T07:36:51Z</time>
      </trkpt>
      <trkpt lat="48.36777" lon="2.73508">
        <ele>97.3</ele>
        <time>2023-07-20T07:36:52Z</time>
      </trkpt>
      <trkpt lat="48.36777" lon="2.73507">
        <ele>97.3</ele>
        <time>2023-07-20T07:36:53Z</time>
      </trkpt>
      <trkpt lat="48.36777" lon="2.73506">
        <ele>97.2</ele>
        <time>2023-07-20T07:36:54Z</time>
      </trkpt>
      <trkpt lat="48.36776" lon="2.73505">
        <ele>97.2</ele>
        <time>2023-07-20T07:36:55Z</time>
      </trkpt>
      <trkpt lat="48.36776" lon="2.73504">
        <ele>97.2</ele>
        <time>2023-07-20T07:36:56Z</time>
      </trkpt>
      <trkpt lat="48.36776" lon="2.73504">
        <ele>97.2</ele>
        <time>2023-07-20T07:36:57Z</time>
      </trkpt>
      <trkpt lat="48.36776" lon="2.73502">
        <ele>97.1</ele>
        <time>2023-07-20T07:36:58Z</time>
      </trkpt>
      <trkpt lat="48.36775" lon="2.73502">
        <ele>97.1</ele>
        <time>2023-07-20T07:36:59Z</time>
      </trkpt>
      <trkpt lat="48.36775" lon="2.73501">
        <ele>97</ele>
        <time>2023-07-20T07:37:00Z</time>
      </trkpt>
      <trkpt lat="48.36775" lon="2.735">
        <ele>97</ele>
        <time>2023-07-20T07:37:01Z</time>
      </trkpt>
      <trkpt lat="48.36775" lon="2.73499">
        <ele>97</ele>
        <time>2023-07-20T07:37:02Z</time>
      </trkpt>
      <trkpt lat="48.36776" lon="2.73497">
        <ele>96.9</ele>
        <time>2023-07-20T07:37:03Z</time>
      </trkpt>
      <trkpt lat="48.36775" lon="2.73496">
        <ele>96.9</ele>
        <time>2023-07-20T07:37:04Z</time>
      </trkpt>
      <trkpt lat="48.36775" lon="2.73495">
        <ele>96.9</ele>
        <time>2023-07-20T07:37:05Z</time>
      </trkpt>
      <trkpt lat="48.36776" lon="2.73494">
        <ele>96.9</ele>
        <time>2023-07-20T07:37:06Z</time>
      </trkpt>
      <trkpt lat="48.36776" lon="2.73492">
        <ele>96.8</ele>
        <time>2023-07-20T07:37:07Z</time>
      </trkpt>
      <trkpt lat="48.36776" lon="2.73491">
        <ele>96.8</ele>
        <time>2023-07-20T07:37:08Z</time>
      </trkpt>
      <trkpt lat="48.36776" lon="2.7349">
        <ele>96.8</ele>
        <time>2023-07-20T07:37:09Z</time>
      </trkpt>
      <trkpt lat="48.36776" lon="2.73488">
        <ele>96.7</ele>
        <time>2023-07-20T07:37:10Z</time>
      </trkpt>
      <trkpt lat="48.36776" lon="2.73486">
        <ele>96.7</ele>
        <time>2023-07-20T07:37:11Z</time>
      </trkpt>
      <trkpt lat="48.36776" lon="2.73485">
        <ele>96.7</ele>
        <time>2023-07-20T07:37:12Z</time>
      </trkpt>
      <trkpt lat="48.36777" lon="2.73484">
        <ele>96.7</ele>
        <time>2023-07-20T07:37:13Z</time>
      </trkpt>
      <trkpt lat="48.36776" lon="2.73483">
        <ele>96.6</ele>
        <time>2023-07-20T07:37:14Z</time>
      </trkpt>
      <trkpt lat="48.36776" lon="2.73482">
        <ele>96.6</ele>
        <time>2023-07-20T07:37:15Z</time>
      </trkpt>
      <trkpt lat="48.36776" lon="2.73481">
        <ele>96.6</ele>
        <time>2023-07-20T07:37:16Z</time>
      </trkpt>
      <trkpt lat="48.36776" lon="2.7348">
        <ele>96.6</ele>
        <time>2023-07-20T07:37:17Z</time>
      </trkpt>
      <trkpt lat="48.36775" lon="2.73479">
        <ele>96.6</ele>
        <time>2023-07-20T07:37:18Z</time>
      </trkpt>
      <trkpt lat="48.36775" lon="2.73478">
        <ele>96.5</ele>
        <time>2023-07-20T07:37:19Z</time>
      </trkpt>
      <trkpt lat="48.36775" lon="2.73477">
        <ele>96.5</ele>
        <time>2023-07-20T07:37:20Z</time>
      </trkpt>
      <trkpt lat="48.36774" lon="2.73475">
        <ele>96.5</ele>
        <time>2023-07-20T07:37:21Z</time>
      </trkpt>
      <trkpt lat="48.36774" lon="2.73474">
        <ele>96.5</ele>
        <time>2023-07-20T07:37:22Z</time>
      </trkpt>
      <trkpt lat="48.36774" lon="2.73472">
        <ele>96.4</ele>
        <time>2023-07-20T07:37:23Z</time>
      </trkpt>
      <trkpt lat="48.36774" lon="2.73471">
        <ele>96.4</ele>
        <time>2023-07-20T07:37:24Z</time>
      </trkpt>
      <trkpt lat="48.36774" lon="2.7347">
        <ele>96.4</ele>
        <time>2023-07-20T07:37:25Z</time>
      </trkpt>
      <trkpt lat="48.36774" lon="2.7347">
        <ele>96.4</ele>
        <time>2023-07-20T07:37:26Z</time>
      </trkpt>
      <trkpt lat="48.36773" lon="2.73466">
        <ele>96.3</ele>
        <time>2023-07-20T07:37:27Z</time>
      </trkpt>
      <trkpt lat="48.36773" lon="2.73464">
        <ele>96.3</ele>
        <time>2023-07-20T07:37:28Z</time>
      </trkpt>
      <trkpt lat="48.36773" lon="2.73463">
        <ele>96.3</ele>
        <time>2023-07-20T07:37:29Z</time>
      </trkpt>
      <trkpt lat="48.36773" lon="2.73461">
        <ele>96.3</ele>
        <time>2023-07-20T07:37:30Z</time>
      </trkpt>
      <trkpt lat="48.36774" lon="2.7346">
        <ele>96.3</ele>
        <time>2023-07-20T07:37:31Z</time>
      </trkpt>
      <trkpt lat="48.36774" lon="2.73458">
        <ele>96.3</ele>
        <time>2023-07-20T07:37:32Z</time>
      </trkpt>
      <trkpt lat="48.36774" lon="2.73456">
        <ele>96.2</ele>
        <time>2023-07-20T07:37:33Z</time>
      </trkpt>
      <trkpt lat="48.36774" lon="2.73454">
        <ele>96.2</ele>
        <time>2023-07-20T07:37:34Z</time>
      </trkpt>
      <trkpt lat="48.36774" lon="2.73453">
        <ele>96.2</ele>
        <time>2023-07-20T07:37:35Z</time>
      </trkpt>
      <trkpt lat="48.36772" lon="2.73452">
        <ele>96.2</ele>
        <time>2023-07-20T07:37:36Z</time>
      </trkpt>
      <trkpt lat="48.36772" lon="2.73451">
        <ele>96.2</ele>
        <time>2023-07-20T07:37:37Z</time>
      </trkpt>
      <trkpt lat="48.36772" lon="2.73449">
        <ele>96.2</ele>
        <time>2023-07-20T07:37:38Z</time>
      </trkpt>
      <trkpt lat="48.36772" lon="2.73447">
        <ele>96.2</ele>
        <time>2023-07-20T07:37:39Z</time>
      </trkpt>
      <trkpt lat="48.36772" lon="2.73445">
        <ele>96.2</ele>
        <time>2023-07-20T07:37:40Z</time>
      </trkpt>
      <trkpt lat="48.36772" lon="2.73444">
        <ele>96.2</ele>
        <time>2023-07-20T07:37:41Z</time>
      </trkpt>
      <trkpt lat="48.36773" lon="2.73442">
        <ele>96.2</ele>
        <time>2023-07-20T07:37:42Z</time>
      </trkpt>
      <trkpt lat="48.36773" lon="2.73441">
        <ele>96.2</ele>
        <time>2023-07-20T07:37:43Z</time>
      </trkpt>
      <trkpt lat="48.36773" lon="2.73438">
        <ele>96.2</ele>
        <time>2023-07-20T07:37:44Z</time>
      </trkpt>
      <trkpt lat="48.36772" lon="2.73436">
        <ele>96.2</ele>
        <time>2023-07-20T07:37:45Z</time>
      </trkpt>
      <trkpt lat="48.36772" lon="2.73435">
        <ele>96.2</ele>
        <time>2023-07-20T07:37:46Z</time>
      </trkpt>
      <trkpt lat="48.36772" lon="2.73433">
        <ele>96.2</ele>
        <time>2023-07-20T07:37:47Z</time>
      </trkpt>
      <trkpt lat="48.36771" lon="2.73431">
        <ele>96.2</ele>
        <time>2023-07-20T07:37:48Z</time>
      </trkpt>
      <trkpt lat="48.36771" lon="2.7343">
        <ele>96.2</ele>
        <time>2023-07-20T07:37:49Z</time>
      </trkpt>
      <trkpt lat="48.36771" lon="2.73427">
        <ele>96.3</ele>
        <time>2023-07-20T07:37:50Z</time>
      </trkpt>
      <trkpt lat="48.36771" lon="2.73426">
        <ele>96.3</ele>
        <time>2023-07-20T07:37:51Z</time>
      </trkpt>
      <trkpt lat="48.36771" lon="2.73424">
        <ele>96.3</ele>
        <time>2023-07-20T07:37:52Z</time>
      </trkpt>
      <trkpt lat="48.36771" lon="2.73423">
        <ele>96.3</ele>
        <time>2023-07-20T07:37:53Z</time>
      </trkpt>
      <trkpt lat="48.36771" lon="2.73422">
        <ele>96.3</ele>
        <time>2023-07-20T07:37:54Z</time>
      </trkpt>
      <trkpt lat="48.36771" lon="2.7342">
        <ele>96.3</ele>
        <time>2023-07-20T07:37:55Z</time>
      </trkpt>
      <trkpt lat="48.36771" lon="2.73419">
        <ele>96.3</ele>
        <time>2023-07-20T07:37:56Z</time>
      </trkpt>
      <trkpt lat="48.36771" lon="2.73417">
        <ele>96.3</ele>
        <time>2023-07-20T07:37:57Z</time>
      </trkpt>
      <trkpt lat="48.36771" lon="2.73416">
        <ele>96.3</ele>
        <time>2023-07-20T07:37:58Z</time>
      </trkpt>
      <trkpt lat="48.36771" lon="2.73415">
        <ele>96.3</ele>
        <time>2023-07-20T07:37:59Z</time>
      </trkpt>
      <trkpt lat="48.36771" lon="2.73414">
        <ele>96.3</ele>
        <time>2023-07-20T07:38:00Z</time>
      </trkpt>
      <trkpt lat="48.36771" lon="2.73413">
        <ele>96.3</ele>
        <time>2023-07-20T07:38:01Z</time>
      </trkpt>
      <trkpt lat="48.36771" lon="2.73412">
        <ele>96.3</ele>
        <time>2023-07-20T07:38:02Z</time>
      </trkpt>
      <trkpt lat="48.36771" lon="2.73412">
        <ele>96.3</ele>
        <time>2023-07-20T07:38:03Z</time>
      </trkpt>
      <trkpt lat="48.36771" lon="2.7341">
        <ele>96.3</ele>
        <time>2023-07-20T07:38:04Z</time>
      </trkpt>
      <trkpt lat="48.36772" lon="2.73409">
        <ele>96.3</ele>
        <time>2023-07-20T07:38:05Z</time>
      </trkpt>
      <trkpt lat="48.36773" lon="2.73407">
        <ele>96.3</ele>
        <time>2023-07-20T07:38:06Z</time>
      </trkpt>
      <trkpt lat="48.36772" lon="2.73405">
        <ele>96.3</ele>
        <time>2023-07-20T07:38:07Z</time>
      </trkpt>
      <trkpt lat="48.36773" lon="2.73404">
        <ele>96.3</ele>
        <time>2023-07-20T07:38:08Z</time>
      </trkpt>
      <trkpt lat="48.36773" lon="2.73404">
        <ele>96.3</ele>
        <time>2023-07-20T07:38:09Z</time>
      </trkpt>
      <trkpt lat="48.36773" lon="2.73403">
        <ele>96.3</ele>
        <time>2023-07-20T07:38:10Z</time>
      </trkpt>
      <trkpt lat="48.36773" lon="2.73401">
        <ele>96.3</ele>
        <time>2023-07-20T07:38:11Z</time>
      </trkpt>
      <trkpt lat="48.36773" lon="2.734">
        <ele>96.3</ele>
        <time>2023-07-20T07:38:12Z</time>
      </trkpt>
      <trkpt lat="48.36773" lon="2.73398">
        <ele>96.3</ele>
        <time>2023-07-20T07:38:13Z</time>
      </trkpt>
      <trkpt lat="48.36773" lon="2.73397">
        <ele>96.3</ele>
        <time>2023-07-20T07:38:14Z</time>
      </trkpt>
      <trkpt lat="48.36773" lon="2.73396">
        <ele>96.3</ele>
        <time>2023-07-20T07:38:15Z</time>
      </trkpt>
      <trkpt lat="48.36773" lon="2.73394">
        <ele>96.3</ele>
        <time>2023-07-20T07:38:16Z</time>
      </trkpt>
      <trkpt lat="48.36773" lon="2.73392">
        <ele>96.2</ele>
        <time>2023-07-20T07:38:17Z</time>
      </trkpt>
      <trkpt lat="48.36773" lon="2.7339">
        <ele>96.2</ele>
        <time>2023-07-20T07:38:18Z</time>
      </trkpt>
      <trkpt lat="48.36774" lon="2.73389">
        <ele>96.2</ele>
        <time>2023-07-20T07:38:19Z</time>
      </trkpt>
      <trkpt lat="48.36774" lon="2.73389">
        <ele>96.2</ele>
        <time>2023-07-20T07:38:20Z</time>
      </trkpt>
      <trkpt lat="48.36774" lon="2.73388">
        <ele>96.2</ele>
        <time>2023-07-20T07:38:21Z</time>
      </trkpt>
      <trkpt lat="48.36774" lon="2.73387">
        <ele>96.2</ele>
        <time>2023-07-20T07:38:22Z</time>
      </trkpt>
      <trkpt lat="48.36774" lon="2.73386">
        <ele>96.1</ele>
        <time>2023-07-20T07:38:23Z</time>
      </trkpt>
      <trkpt lat="48.36774" lon="2.73384">
        <ele>96.1</ele>
        <time>2023-07-20T07:38:24Z</time>
      </trkpt>
      <trkpt lat="48.36775" lon="2.73382">
        <ele>96.1</ele>
        <time>2023-07-20T07:38:25Z</time>
      </trkpt>
      <trkpt lat="48.36775" lon="2.7338">
        <ele>96</ele>
        <time>2023-07-20T07:38:26Z</time>
      </trkpt>
      <trkpt lat="48.36774" lon="2.73379">
        <ele>96</ele>
        <time>2023-07-20T07:38:27Z</time>
      </trkpt>
      <trkpt lat="48.36774" lon="2.73378">
        <ele>96</ele>
        <time>2023-07-20T07:38:28Z</time>
      </trkpt>
      <trkpt lat="48.36774" lon="2.73376">
        <ele>96</ele>
        <time>2023-07-20T07:38:29Z</time>
      </trkpt>
      <trkpt lat="48.36774" lon="2.73373">
        <ele>95.9</ele>
        <time>2023-07-20T07:38:30Z</time>
      </trkpt>
      <trkpt lat="48.36774" lon="2.73371">
        <ele>95.8</ele>
        <time>2023-07-20T07:38:31Z</time>
      </trkpt>
      <trkpt lat="48.36774" lon="2.7337">
        <ele>95.8</ele>
        <time>2023-07-20T07:38:32Z</time>
      </trkpt>
      <trkpt lat="48.36774" lon="2.73369">
        <ele>95.8</ele>
        <time>2023-07-20T07:38:33Z</time>
      </trkpt>
      <trkpt lat="48.36774" lon="2.73367">
        <ele>95.7</ele>
        <time>2023-07-20T07:38:34Z</time>
      </trkpt>
      <trkpt lat="48.36774" lon="2.73365">
        <ele>95.7</ele>
        <time>2023-07-20T07:38:35Z</time>
      </trkpt>
      <trkpt lat="48.36774" lon="2.73364">
        <ele>95.7</ele>
        <time>2023-07-20T07:38:36Z</time>
      </trkpt>
      <trkpt lat="48.36774" lon="2.73362">
        <ele>95.6</ele>
        <time>2023-07-20T07:38:37Z</time>
      </trkpt>
      <trkpt lat="48.36774" lon="2.73361">
        <ele>95.6</ele>
        <time>2023-07-20T07:38:38Z</time>
      </trkpt>
      <trkpt lat="48.36774" lon="2.7336">
        <ele>95.5</ele>
        <time>2023-07-20T07:38:39Z</time>
      </trkpt>
      <trkpt lat="48.36774" lon="2.73358">
        <ele>95.5</ele>
        <time>2023-07-20T07:38:40Z</time>
      </trkpt>
      <trkpt lat="48.36774" lon="2.73356">
        <ele>95.4</ele>
        <time>2023-07-20T07:38:41Z</time>
      </trkpt>
      <trkpt lat="48.36775" lon="2.73355">
        <ele>95.4</ele>
        <time>2023-07-20T07:38:42Z</time>
      </trkpt>
      <trkpt lat="48.36774" lon="2.73353">
        <ele>95.4</ele>
        <time>2023-07-20T07:38:43Z</time>
      </trkpt>
      <trkpt lat="48.36775" lon="2.73351">
        <ele>95.3</ele>
        <time>2023-07-20T07:38:44Z</time>
      </trkpt>
      <trkpt lat="48.36775" lon="2.7335">
        <ele>95.3</ele>
        <time>2023-07-20T07:38:45Z</time>
      </trkpt>
      <trkpt lat="48.36774" lon="2.73348">
        <ele>95.2</ele>
        <time>2023-07-20T07:38:46Z</time>
      </trkpt>
      <trkpt lat="48.36774" lon="2.73347">
        <ele>95.2</ele>
        <time>2023-07-20T07:38:47Z</time>
      </trkpt>
      <trkpt lat="48.36774" lon="2.73345">
        <ele>95.2</ele>
        <time>2023-07-20T07:38:48Z</time>
      </trkpt>
      <trkpt lat="48.36774" lon="2.73344">
        <ele>95.1</ele>
        <time>2023-07-20T07:38:49Z</time>
      </trkpt>
      <trkpt lat="48.36775" lon="2.73341">
        <ele>95</ele>
        <time>2023-07-20T07:38:50Z</time>
      </trkpt>
      <trkpt lat="48.36775" lon="2.73339">
        <ele>95</ele>
        <time>2023-07-20T07:38:51Z</time>
      </trkpt>
      <trkpt lat="48.36775" lon="2.73338">
        <ele>95</ele>
        <time>2023-07-20T07:38:52Z</time>
      </trkpt>
      <trkpt lat="48.36776" lon="2.73337">
        <ele>94.9</ele>
        <time>2023-07-20T07:38:53Z</time>
      </trkpt>
      <trkpt lat="48.36776" lon="2.73336">
        <ele>94.9</ele>
        <time>2023-07-20T07:38:54Z</time>
      </trkpt>
      <trkpt lat="48.36776" lon="2.73335">
        <ele>94.9</ele>
        <time>2023-07-20T07:38:55Z</time>
      </trkpt>
      <trkpt lat="48.36776" lon="2.73334">
        <ele>94.9</ele>
        <time>2023-07-20T07:38:56Z</time>
      </trkpt>
      <trkpt lat="48.36776" lon="2.73332">
        <ele>94.8</ele>
        <time>2023-07-20T07:38:57Z</time>
      </trkpt>
      <trkpt lat="48.36775" lon="2.7333">
        <ele>94.8</ele>
        <time>2023-07-20T07:38:58Z</time>
      </trkpt>
      <trkpt lat="48.36775" lon="2.7333">
        <ele>94.8</ele>
        <time>2023-07-20T07:38:59Z</time>
      </trkpt>
      <trkpt lat="48.36776" lon="2.73327">
        <ele>94.7</ele>
        <time>2023-07-20T07:39:00Z</time>
      </trkpt>
      <trkpt lat="48.36775" lon="2.73325">
        <ele>94.7</ele>
        <time>2023-07-20T07:39:01Z</time>
      </trkpt>
      <trkpt lat="48.36775" lon="2.73323">
        <ele>94.6</ele>
        <time>2023-07-20T07:39:02Z</time>
      </trkpt>
      <trkpt lat="48.36775" lon="2.73322">
        <ele>94.6</ele>
        <time>2023-07-20T07:39:03Z</time>
      </trkpt>
      <trkpt lat="48.36775" lon="2.73321">
        <ele>94.6</ele>
        <time>2023-07-20T07:39:04Z</time>
      </trkpt>
      <trkpt lat="48.36775" lon="2.73319">
        <ele>94.5</ele>
        <time>2023-07-20T07:39:05Z</time>
      </trkpt>
      <trkpt lat="48.36775" lon="2.73317">
        <ele>94.5</ele>
        <time>2023-07-20T07:39:06Z</time>
      </trkpt>
      <trkpt lat="48.36775" lon="2.73315">
        <ele>94.5</ele>
        <time>2023-07-20T07:39:07Z</time>
      </trkpt>
      <trkpt lat="48.36775" lon="2.73314">
        <ele>94.4</ele>
        <time>2023-07-20T07:39:08Z</time>
      </trkpt>
      <trkpt lat="48.36775" lon="2.73313">
        <ele>94.4</ele>
        <time>2023-07-20T07:39:09Z</time>
      </trkpt>
      <trkpt lat="48.36775" lon="2.73311">
        <ele>94.4</ele>
        <time>2023-07-20T07:39:10Z</time>
      </trkpt>
      <trkpt lat="48.36775" lon="2.73309">
        <ele>94.3</ele>
        <time>2023-07-20T07:39:11Z</time>
      </trkpt>
      <trkpt lat="48.36776" lon="2.73308">
        <ele>94.3</ele>
        <time>2023-07-20T07:39:12Z</time>
      </trkpt>
      <trkpt lat="48.36776" lon="2.73306">
        <ele>94.3</ele>
        <time>2023-07-20T07:39:13Z</time>
      </trkpt>
      <trkpt lat="48.36777" lon="2.73305">
        <ele>94.2</ele>
        <time>2023-07-20T07:39:14Z</time>
      </trkpt>
      <trkpt lat="48.36777" lon="2.73302">
        <ele>94.2</ele>
        <time>2023-07-20T07:39:15Z</time>
      </trkpt>
      <trkpt lat="48.36776" lon="2.73301">
        <ele>94.2</ele>
        <time>2023-07-20T07:39:16Z</time>
      </trkpt>
      <trkpt lat="48.36776" lon="2.733">
        <ele>94.2</ele>
        <time>2023-07-20T07:39:17Z</time>
      </trkpt>
      <trkpt lat="48.36776" lon="2.73299">
        <ele>94.2</ele>
        <time>2023-07-20T07:39:18Z</time>
      </trkpt>
      <trkpt lat="48.36775" lon="2.73297">
        <ele>94.1</ele>
        <time>2023-07-20T07:39:19Z</time>
      </trkpt>
      <trkpt lat="48.36775" lon="2.73296">
        <ele>94.1</ele>
        <time>2023-07-20T07:39:20Z</time>
      </trkpt>
      <trkpt lat="48.36775" lon="2.73294">
        <ele>94.1</ele>
        <time>2023-07-20T07:39:21Z</time>
      </trkpt>
      <trkpt lat="48.36776" lon="2.73292">
        <ele>94.1</ele>
        <time>2023-07-20T07:39:22Z</time>
      </trkpt>
      <trkpt lat="48.36775" lon="2.73291">
        <ele>94</ele>
        <time>2023-07-20T07:39:23Z</time>
      </trkpt>
      <trkpt lat="48.36776" lon="2.7329">
        <ele>94</ele>
        <time>2023-07-20T07:39:24Z</time>
      </trkpt>
      <trkpt lat="48.36776" lon="2.73288">
        <ele>94</ele>
        <time>2023-07-20T07:39:25Z</time>
      </trkpt>
      <trkpt lat="48.36776" lon="2.73287">
        <ele>94</ele>
        <time>2023-07-20T07:39:26Z</time>
      </trkpt>
      <trkpt lat="48.36776" lon="2.73285">
        <ele>94</ele>
        <time>2023-07-20T07:39:27Z</time>
      </trkpt>
      <trkpt lat="48.36775" lon="2.73284">
        <ele>94</ele>
        <time>2023-07-20T07:39:28Z</time>
      </trkpt>
      <trkpt lat="48.36775" lon="2.73282">
        <ele>93.9</ele>
        <time>2023-07-20T07:39:29Z</time>
      </trkpt>
      <trkpt lat="48.36775" lon="2.73281">
        <ele>93.9</ele>
        <time>2023-07-20T07:39:30Z</time>
      </trkpt>
      <trkpt lat="48.36775" lon="2.73281">
        <ele>93.9</ele>
        <time>2023-07-20T07:39:31Z</time>
      </trkpt>
      <trkpt lat="48.36775" lon="2.73279">
        <ele>93.9</ele>
        <time>2023-07-20T07:39:32Z</time>
      </trkpt>
      <trkpt lat="48.36775" lon="2.73279">
        <ele>93.9</ele>
        <time>2023-07-20T07:39:33Z</time>
      </trkpt>
      <trkpt lat="48.36775" lon="2.73278">
        <ele>93.9</ele>
        <time>2023-07-20T07:39:34Z</time>
      </trkpt>
      <trkpt lat="48.36775" lon="2.73276">
        <ele>93.9</ele>
        <time>2023-07-20T07:39:35Z</time>
      </trkpt>
      <trkpt lat="48.36775" lon="2.73274">
        <ele>93.9</ele>
        <time>2023-07-20T07:39:36Z</time>
      </trkpt>
      <trkpt lat="48.36775" lon="2.73272">
        <ele>93.9</ele>
        <time>2023-07-20T07:39:37Z</time>
      </trkpt>
      <trkpt lat="48.36776" lon="2.73269">
        <ele>93.8</ele>
        <time>2023-07-20T07:39:38Z</time>
      </trkpt>
      <trkpt lat="48.36776" lon="2.73268">
        <ele>93.8</ele>
        <time>2023-07-20T07:39:39Z</time>
      </trkpt>
      <trkpt lat="48.36776" lon="2.73266">
        <ele>93.8</ele>
        <time>2023-07-20T07:39:40Z</time>
      </trkpt>
      <trkpt lat="48.36777" lon="2.73266">
        <ele>93.8</ele>
        <time>2023-07-20T07:39:41Z</time>
      </trkpt>
      <trkpt lat="48.36776" lon="2.73264">
        <ele>93.8</ele>
        <time>2023-07-20T07:39:42Z</time>
      </trkpt>
      <trkpt lat="48.36776" lon="2.73262">
        <ele>93.8</ele>
        <time>2023-07-20T07:39:43Z</time>
      </trkpt>
      <trkpt lat="48.36776" lon="2.7326">
        <ele>93.8</ele>
        <time>2023-07-20T07:39:44Z</time>
      </trkpt>
      <trkpt lat="48.36776" lon="2.73259">
        <ele>93.7</ele>
        <time>2023-07-20T07:39:45Z</time>
      </trkpt>
      <trkpt lat="48.36776" lon="2.73257">
        <ele>93.7</ele>
        <time>2023-07-20T07:39:46Z</time>
      </trkpt>
      <trkpt lat="48.36777" lon="2.73254">
        <ele>93.7</ele>
        <time>2023-07-20T07:39:47Z</time>
      </trkpt>
      <trkpt lat="48.36777" lon="2.73253">
        <ele>93.7</ele>
        <time>2023-07-20T07:39:48Z</time>
      </trkpt>
      <trkpt lat="48.36778" lon="2.73252">
        <ele>93.7</ele>
        <time>2023-07-20T07:39:49Z</time>
      </trkpt>
      <trkpt lat="48.36778" lon="2.7325">
        <ele>93.7</ele>
        <time>2023-07-20T07:39:50Z</time>
      </trkpt>
      <trkpt lat="48.36778" lon="2.73249">
        <ele>93.7</ele>
        <time>2023-07-20T07:39:51Z</time>
      </trkpt>
      <trkpt lat="48.36779" lon="2.73247">
        <ele>93.6</ele>
        <time>2023-07-20T07:39:52Z</time>
      </trkpt>
      <trkpt lat="48.36778" lon="2.73245">
        <ele>93.6</ele>
        <time>2023-07-20T07:39:53Z</time>
      </trkpt>
      <trkpt lat="48.36778" lon="2.73244">
        <ele>93.6</ele>
        <time>2023-07-20T07:39:54Z</time>
      </trkpt>
      <trkpt lat="48.36778" lon="2.73241">
        <ele>93.6</ele>
        <time>2023-07-20T07:39:55Z</time>
      </trkpt>
      <trkpt lat="48.36778" lon="2.7324">
        <ele>93.6</ele>
        <time>2023-07-20T07:39:56Z</time>
      </trkpt>
      <trkpt lat="48.36778" lon="2.73238">
        <ele>93.6</ele>
        <time>2023-07-20T07:39:57Z</time>
      </trkpt>
      <trkpt lat="48.36777" lon="2.73237">
        <ele>93.6</ele>
        <time>2023-07-20T07:39:58Z</time>
      </trkpt>
      <trkpt lat="48.36777" lon="2.73236">
        <ele>93.5</ele>
        <time>2023-07-20T07:39:59Z</time>
      </trkpt>
      <trkpt lat="48.36778" lon="2.73234">
        <ele>93.5</ele>
        <time>2023-07-20T07:40:00Z</time>
      </trkpt>
      <trkpt lat="48.36778" lon="2.73231">
        <ele>93.5</ele>
        <time>2023-07-20T07:40:01Z</time>
      </trkpt>
      <trkpt lat="48.36779" lon="2.7323">
        <ele>93.5</ele>
        <time>2023-07-20T07:40:02Z</time>
      </trkpt>
      <trkpt lat="48.36779" lon="2.73229">
        <ele>93.5</ele>
        <time>2023-07-20T07:40:03Z</time>
      </trkpt>
      <trkpt lat="48.36779" lon="2.73227">
        <ele>93.5</ele>
        <time>2023-07-20T07:40:04Z</time>
      </trkpt>
      <trkpt lat="48.36779" lon="2.73226">
        <ele>93.5</ele>
        <time>2023-07-20T07:40:05Z</time>
      </trkpt>
      <trkpt lat="48.3678" lon="2.73225">
        <ele>93.5</ele>
        <time>2023-07-20T07:40:06Z</time>
      </trkpt>
      <trkpt lat="48.3678" lon="2.73224">
        <ele>93.4</ele>
        <time>2023-07-20T07:40:07Z</time>
      </trkpt>
      <trkpt lat="48.3678" lon="2.73222">
        <ele>93.4</ele>
        <time>2023-07-20T07:40:08Z</time>
      </trkpt>
      <trkpt lat="48.3678" lon="2.73221">
        <ele>93.4</ele>
        <time>2023-07-20T07:40:09Z</time>
      </trkpt>
      <trkpt lat="48.3678" lon="2.7322">
        <ele>93.4</ele>
        <time>2023-07-20T07:40:10Z</time>
      </trkpt>
      <trkpt lat="48.3678" lon="2.73218">
        <ele>93.4</ele>
        <time>2023-07-20T07:40:11Z</time>
      </trkpt>
      <trkpt lat="48.3678" lon="2.73217">
        <ele>93.4</ele>
        <time>2023-07-20T07:40:12Z</time>
      </trkpt>
      <trkpt lat="48.3678" lon="2.73215">
        <ele>93.4</ele>
        <time>2023-07-20T07:40:13Z</time>
      </trkpt>
      <trkpt lat="48.3678" lon="2.73214">
        <ele>93.4</ele>
        <time>2023-07-20T07:40:14Z</time>
      </trkpt>
      <trkpt lat="48.3678" lon="2.73212">
        <ele>93.3</ele>
        <time>2023-07-20T07:40:15Z</time>
      </trkpt>
      <trkpt lat="48.3678" lon="2.73211">
        <ele>93.3</ele>
        <time>2023-07-20T07:40:16Z</time>
      </trkpt>
      <trkpt lat="48.3678" lon="2.73209">
        <ele>93.3</ele>
        <time>2023-07-20T07:40:17Z</time>
      </trkpt>
      <trkpt lat="48.3678" lon="2.73208">
        <ele>93.3</ele>
        <time>2023-07-20T07:40:18Z</time>
      </trkpt>
      <trkpt lat="48.3678" lon="2.73206">
        <ele>93.3</ele>
        <time>2023-07-20T07:40:19Z</time>
      </trkpt>
      <trkpt lat="48.3678" lon="2.73205">
        <ele>93.3</ele>
        <time>2023-07-20T07:40:20Z</time>
      </trkpt>
      <trkpt lat="48.3678" lon="2.73205">
        <ele>93.3</ele>
        <time>2023-07-20T07:40:21Z</time>
      </trkpt>
      <trkpt lat="48.36781" lon="2.73203">
        <ele>93.2</ele>
        <time>2023-07-20T07:40:22Z</time>
      </trkpt>
      <trkpt lat="48.3678" lon="2.73203">
        <ele>93.2</ele>
        <time>2023-07-20T07:40:23Z</time>
      </trkpt>
      <trkpt lat="48.3678" lon="2.73202">
        <ele>93.2</ele>
        <time>2023-07-20T07:40:24Z</time>
      </trkpt>
      <trkpt lat="48.3678" lon="2.73202">
        <ele>93.2</ele>
        <time>2023-07-20T07:40:25Z</time>
      </trkpt>
      <trkpt lat="48.36781" lon="2.73199">
        <ele>93.2</ele>
        <time>2023-07-20T07:40:26Z</time>
      </trkpt>
      <trkpt lat="48.36781" lon="2.73198">
        <ele>93.2</ele>
        <time>2023-07-20T07:40:27Z</time>
      </trkpt>
      <trkpt lat="48.36781" lon="2.73196">
        <ele>93.2</ele>
        <time>2023-07-20T07:40:28Z</time>
      </trkpt>
      <trkpt lat="48.36781" lon="2.73193">
        <ele>93.1</ele>
        <time>2023-07-20T07:40:29Z</time>
      </trkpt>
      <trkpt lat="48.36781" lon="2.73191">
        <ele>93.1</ele>
        <time>2023-07-20T07:40:30Z</time>
      </trkpt>
      <trkpt lat="48.36781" lon="2.73189">
        <ele>93.1</ele>
        <time>2023-07-20T07:40:31Z</time>
      </trkpt>
      <trkpt lat="48.36781" lon="2.73188">
        <ele>93.1</ele>
        <time>2023-07-20T07:40:32Z</time>
      </trkpt>
      <trkpt lat="48.36782" lon="2.73185">
        <ele>93</ele>
        <time>2023-07-20T07:40:33Z</time>
      </trkpt>
      <trkpt lat="48.36783" lon="2.73183">
        <ele>93</ele>
        <time>2023-07-20T07:40:34Z</time>
      </trkpt>
      <trkpt lat="48.36784" lon="2.73181">
        <ele>93</ele>
        <time>2023-07-20T07:40:35Z</time>
      </trkpt>
      <trkpt lat="48.36784" lon="2.7318">
        <ele>93</ele>
        <time>2023-07-20T07:40:36Z</time>
      </trkpt>
      <trkpt lat="48.36784" lon="2.73178">
        <ele>93</ele>
        <time>2023-07-20T07:40:37Z</time>
      </trkpt>
      <trkpt lat="48.36784" lon="2.73177">
        <ele>92.9</ele>
        <time>2023-07-20T07:40:38Z</time>
      </trkpt>
      <trkpt lat="48.36784" lon="2.73175">
        <ele>92.9</ele>
        <time>2023-07-20T07:40:39Z</time>
      </trkpt>
      <trkpt lat="48.36785" lon="2.73174">
        <ele>92.9</ele>
        <time>2023-07-20T07:40:40Z</time>
      </trkpt>
      <trkpt lat="48.36785" lon="2.73173">
        <ele>92.9</ele>
        <time>2023-07-20T07:40:41Z</time>
      </trkpt>
      <trkpt lat="48.36785" lon="2.73171">
        <ele>92.9</ele>
        <time>2023-07-20T07:40:42Z</time>
      </trkpt>
      <trkpt lat="48.36786" lon="2.73167">
        <ele>92.8</ele>
        <time>2023-07-20T07:40:43Z</time>
      </trkpt>
      <trkpt lat="48.36786" lon="2.73165">
        <ele>92.8</ele>
        <time>2023-07-20T07:40:44Z</time>
      </trkpt>
      <trkpt lat="48.36786" lon="2.73164">
        <ele>92.8</ele>
        <time>2023-07-20T07:40:45Z</time>
      </trkpt>
      <trkpt lat="48.36787" lon="2.73163">
        <ele>92.8</ele>
        <time>2023-07-20T07:40:46Z</time>
      </trkpt>
      <trkpt lat="48.36787" lon="2.73162">
        <ele>92.8</ele>
        <time>2023-07-20T07:40:47Z</time>
      </trkpt>
      <trkpt lat="48.36788" lon="2.7316">
        <ele>92.7</ele>
        <time>2023-07-20T07:40:48Z</time>
      </trkpt>
      <trkpt lat="48.36788" lon="2.73159">
        <ele>92.7</ele>
        <time>2023-07-20T07:40:49Z</time>
      </trkpt>
      <trkpt lat="48.36788" lon="2.73158">
        <ele>92.7</ele>
        <time>2023-07-20T07:40:50Z</time>
      </trkpt>
      <trkpt lat="48.36788" lon="2.73156">
        <ele>92.7</ele>
        <time>2023-07-20T07:40:51Z</time>
      </trkpt>
      <trkpt lat="48.36788" lon="2.73154">
        <ele>92.7</ele>
        <time>2023-07-20T07:40:52Z</time>
      </trkpt>
      <trkpt lat="48.36787" lon="2.73153">
        <ele>92.6</ele>
        <time>2023-07-20T07:40:53Z</time>
      </trkpt>
      <trkpt lat="48.36787" lon="2.73151">
        <ele>92.6</ele>
        <time>2023-07-20T07:40:54Z</time>
      </trkpt>
      <trkpt lat="48.36787" lon="2.73151">
        <ele>92.6</ele>
        <time>2023-07-20T07:40:55Z</time>
      </trkpt>
      <trkpt lat="48.36787" lon="2.73149">
        <ele>92.6</ele>
        <time>2023-07-20T07:40:56Z</time>
      </trkpt>
      <trkpt lat="48.36786" lon="2.73148">
        <ele>92.6</ele>
        <time>2023-07-20T07:40:57Z</time>
      </trkpt>
      <trkpt lat="48.36786" lon="2.73146">
        <ele>92.6</ele>
        <time>2023-07-20T07:40:58Z</time>
      </trkpt>
      <trkpt lat="48.36786" lon="2.73144">
        <ele>92.5</ele>
        <time>2023-07-20T07:40:59Z</time>
      </trkpt>
      <trkpt lat="48.36786" lon="2.73142">
        <ele>92.5</ele>
        <time>2023-07-20T07:41:00Z</time>
      </trkpt>
      <trkpt lat="48.36786" lon="2.7314">
        <ele>92.5</ele>
        <time>2023-07-20T07:41:01Z</time>
      </trkpt>
      <trkpt lat="48.36785" lon="2.73138">
        <ele>92.5</ele>
        <time>2023-07-20T07:41:02Z</time>
      </trkpt>
      <trkpt lat="48.36785" lon="2.73136">
        <ele>92.5</ele>
        <time>2023-07-20T07:41:03Z</time>
      </trkpt>
      <trkpt lat="48.36785" lon="2.73134">
        <ele>92.4</ele>
        <time>2023-07-20T07:41:04Z</time>
      </trkpt>
      <trkpt lat="48.36785" lon="2.73133">
        <ele>92.4</ele>
        <time>2023-07-20T07:41:05Z</time>
      </trkpt>
      <trkpt lat="48.36785" lon="2.7313">
        <ele>92.4</ele>
        <time>2023-07-20T07:41:06Z</time>
      </trkpt>
      <trkpt lat="48.36785" lon="2.73129">
        <ele>92.4</ele>
        <time>2023-07-20T07:41:07Z</time>
      </trkpt>
      <trkpt lat="48.36785" lon="2.73129">
        <ele>92.4</ele>
        <time>2023-07-20T07:41:08Z</time>
      </trkpt>
      <trkpt lat="48.36784" lon="2.73129">
        <ele>92.4</ele>
        <time>2023-07-20T07:41:09Z</time>
      </trkpt>
      <trkpt lat="48.36784" lon="2.73128">
        <ele>92.4</ele>
        <time>2023-07-20T07:41:10Z</time>
      </trkpt>
      <trkpt lat="48.36783" lon="2.73126">
        <ele>92.4</ele>
        <time>2023-07-20T07:41:11Z</time>
      </trkpt>
      <trkpt lat="48.36783" lon="2.73124">
        <ele>92.4</ele>
        <time>2023-07-20T07:41:12Z</time>
      </trkpt>
      <trkpt lat="48.36783" lon="2.73123">
        <ele>92.4</ele>
        <time>2023-07-20T07:41:13Z</time>
      </trkpt>
      <trkpt lat="48.36783" lon="2.73121">
        <ele>92.4</ele>
        <time>2023-07-20T07:41:14Z</time>
      </trkpt>
      <trkpt lat="48.36783" lon="2.73119">
        <ele>92.4</ele>
        <time>2023-07-20T07:41:15Z</time>
      </trkpt>
      <trkpt lat="48.36783" lon="2.73118">
        <ele>92.4</ele>
        <time>2023-07-20T07:41:16Z</time>
      </trkpt>
      <trkpt lat="48.36783" lon="2.73117">
        <ele>92.4</ele>
        <time>2023-07-20T07:41:17Z</time>
      </trkpt>
      <trkpt lat="48.36783" lon="2.73117">
        <ele>92.4</ele>
        <time>2023-07-20T07:41:18Z</time>
      </trkpt>
      <trkpt lat="48.36782" lon="2.73116">
        <ele>92.4</ele>
        <time>2023-07-20T07:41:19Z</time>
      </trkpt>
      <trkpt lat="48.36782" lon="2.73114">
        <ele>92.4</ele>
        <time>2023-07-20T07:41:20Z</time>
      </trkpt>
      <trkpt lat="48.36782" lon="2.7311">
        <ele>92.4</ele>
        <time>2023-07-20T07:41:21Z</time>
      </trkpt>
      <trkpt lat="48.36782" lon="2.73109">
        <ele>92.4</ele>
        <time>2023-07-20T07:41:22Z</time>
      </trkpt>
      <trkpt lat="48.36782" lon="2.73108">
        <ele>92.4</ele>
        <time>2023-07-20T07:41:23Z</time>
      </trkpt>
      <trkpt lat="48.36782" lon="2.73107">
        <ele>92.4</ele>
        <time>2023-07-20T07:41:24Z</time>
      </trkpt>
      <trkpt lat="48.36782" lon="2.73105">
        <ele>92.4</ele>
        <time>2023-07-20T07:41:25Z</time>
      </trkpt>
      <trkpt lat="48.36782" lon="2.73105">
        <ele>92.4</ele>
        <time>2023-07-20T07:41:26Z</time>
      </trkpt>
      <trkpt lat="48.36781" lon="2.73102">
        <ele>92.4</ele>
        <time>2023-07-20T07:41:27Z</time>
      </trkpt>
      <trkpt lat="48.36781" lon="2.73099">
        <ele>92.4</ele>
        <time>2023-07-20T07:41:28Z</time>
      </trkpt>
      <trkpt lat="48.36781" lon="2.73098">
        <ele>92.4</ele>
        <time>2023-07-20T07:41:29Z</time>
      </trkpt>
      <trkpt lat="48.36781" lon="2.73098">
        <ele>92.4</ele>
        <time>2023-07-20T07:41:30Z</time>
      </trkpt>
      <trkpt lat="48.36781" lon="2.73097">
        <ele>92.4</ele>
        <time>2023-07-20T07:41:31Z</time>
      </trkpt>
      <trkpt lat="48.36781" lon="2.73095">
        <ele>92.4</ele>
        <time>2023-07-20T07:41:32Z</time>
      </trkpt>
      <trkpt lat="48.36782" lon="2.73093">
        <ele>92.4</ele>
        <time>2023-07-20T07:41:33Z</time>
      </trkpt>
      <trkpt lat="48.36782" lon="2.73092">
        <ele>92.4</ele>
        <time>2023-07-20T07:41:34Z</time>
      </trkpt>
      <trkpt lat="48.36782" lon="2.7309">
        <ele>92.4</ele>
        <time>2023-07-20T07:41:35Z</time>
      </trkpt>
      <trkpt lat="48.36781" lon="2.73089">
        <ele>92.4</ele>
        <time>2023-07-20T07:41:36Z</time>
      </trkpt>
      <trkpt lat="48.36782" lon="2.73087">
        <ele>92.4</ele>
        <time>2023-07-20T07:41:37Z</time>
      </trkpt>
      <trkpt lat="48.36782" lon="2.73085">
        <ele>92.4</ele>
        <time>2023-07-20T07:41:38Z</time>
      </trkpt>
      <trkpt lat="48.36783" lon="2.73083">
        <ele>92.4</ele>
        <time>2023-07-20T07:41:39Z</time>
      </trkpt>
      <trkpt lat="48.36784" lon="2.73082">
        <ele>92.4</ele>
        <time>2023-07-20T07:41:40Z</time>
      </trkpt>
      <trkpt lat="48.36783" lon="2.73081">
        <ele>92.4</ele>
        <time>2023-07-20T07:41:41Z</time>
      </trkpt>
      <trkpt lat="48.36784" lon="2.73079">
        <ele>92.4</ele>
        <time>2023-07-20T07:41:42Z</time>
      </trkpt>
      <trkpt lat="48.36784" lon="2.73078">
        <ele>92.4</ele>
        <time>2023-07-20T07:41:43Z</time>
      </trkpt>
      <trkpt lat="48.36784" lon="2.73076">
        <ele>92.4</ele>
        <time>2023-07-20T07:41:44Z</time>
      </trkpt>
      <trkpt lat="48.36784" lon="2.73075">
        <ele>92.4</ele>
        <time>2023-07-20T07:41:45Z</time>
      </trkpt>
      <trkpt lat="48.36783" lon="2.73074">
        <ele>92.4</ele>
        <time>2023-07-20T07:41:46Z</time>
      </trkpt>
      <trkpt lat="48.36784" lon="2.73072">
        <ele>92.4</ele>
        <time>2023-07-20T07:41:47Z</time>
      </trkpt>
      <trkpt lat="48.36784" lon="2.7307">
        <ele>92.4</ele>
        <time>2023-07-20T07:41:48Z</time>
      </trkpt>
      <trkpt lat="48.36784" lon="2.73069">
        <ele>92.4</ele>
        <time>2023-07-20T07:41:49Z</time>
      </trkpt>
      <trkpt lat="48.36783" lon="2.73068">
        <ele>92.4</ele>
        <time>2023-07-20T07:41:50Z</time>
      </trkpt>
      <trkpt lat="48.36784" lon="2.73067">
        <ele>92.4</ele>
        <time>2023-07-20T07:41:51Z</time>
      </trkpt>
      <trkpt lat="48.36784" lon="2.73065">
        <ele>92.4</ele>
        <time>2023-07-20T07:41:52Z</time>
      </trkpt>
      <trkpt lat="48.36784" lon="2.73064">
        <ele>92.4</ele>
        <time>2023-07-20T07:41:53Z</time>
      </trkpt>
      <trkpt lat="48.36784" lon="2.73062">
        <ele>92.4</ele>
        <time>2023-07-20T07:41:54Z</time>
      </trkpt>
      <trkpt lat="48.36784" lon="2.7306">
        <ele>92.4</ele>
        <time>2023-07-20T07:41:55Z</time>
      </trkpt>
      <trkpt lat="48.36783" lon="2.7306">
        <ele>92.4</ele>
        <time>2023-07-20T07:41:57Z</time>
      </trkpt>
      <trkpt lat="48.36783" lon="2.73059">
        <ele>92.4</ele>
        <time>2023-07-20T07:41:58Z</time>
      </trkpt>
      <trkpt lat="48.36783" lon="2.73058">
        <ele>92.4</ele>
        <time>2023-07-20T07:41:59Z</time>
      </trkpt>
      <trkpt lat="48.36783" lon="2.73056">
        <ele>92.4</ele>
        <time>2023-07-20T07:42:00Z</time>
      </trkpt>
      <trkpt lat="48.36783" lon="2.73055">
        <ele>92.4</ele>
        <time>2023-07-20T07:42:01Z</time>
      </trkpt>
      <trkpt lat="48.36784" lon="2.73053">
        <ele>92.4</ele>
        <time>2023-07-20T07:42:02Z</time>
      </trkpt>
      <trkpt lat="48.36783" lon="2.73051">
        <ele>92.4</ele>
        <time>2023-07-20T07:42:03Z</time>
      </trkpt>
      <trkpt lat="48.36782" lon="2.7305">
        <ele>92.4</ele>
        <time>2023-07-20T07:42:04Z</time>
      </trkpt>
      <trkpt lat="48.36782" lon="2.73047">
        <ele>92.4</ele>
        <time>2023-07-20T07:42:05Z</time>
      </trkpt>
      <trkpt lat="48.36782" lon="2.73046">
        <ele>92.4</ele>
        <time>2023-07-20T07:42:06Z</time>
      </trkpt>
      <trkpt lat="48.36782" lon="2.73044">
        <ele>92.4</ele>
        <time>2023-07-20T07:42:07Z</time>
      </trkpt>
      <trkpt lat="48.36782" lon="2.73042">
        <ele>92.4</ele>
        <time>2023-07-20T07:42:08Z</time>
      </trkpt>
      <trkpt lat="48.36782" lon="2.73041">
        <ele>92.4</ele>
        <time>2023-07-20T07:42:09Z</time>
      </trkpt>
      <trkpt lat="48.36782" lon="2.7304">
        <ele>92.4</ele>
        <time>2023-07-20T07:42:10Z</time>
      </trkpt>
      <trkpt lat="48.36781" lon="2.73039">
        <ele>92.3</ele>
        <time>2023-07-20T07:42:11Z</time>
      </trkpt>
      <trkpt lat="48.36781" lon="2.73037">
        <ele>92.3</ele>
        <time>2023-07-20T07:42:12Z</time>
      </trkpt>
      <trkpt lat="48.36781" lon="2.73035">
        <ele>92.3</ele>
        <time>2023-07-20T07:42:13Z</time>
      </trkpt>
      <trkpt lat="48.36781" lon="2.73034">
        <ele>92.3</ele>
        <time>2023-07-20T07:42:14Z</time>
      </trkpt>
      <trkpt lat="48.36781" lon="2.73032">
        <ele>92.3</ele>
        <time>2023-07-20T07:42:15Z</time>
      </trkpt>
      <trkpt lat="48.36781" lon="2.73031">
        <ele>92.3</ele>
        <time>2023-07-20T07:42:16Z</time>
      </trkpt>
      <trkpt lat="48.36782" lon="2.73028">
        <ele>92.3</ele>
        <time>2023-07-20T07:42:17Z</time>
      </trkpt>
      <trkpt lat="48.36781" lon="2.73027">
        <ele>92.3</ele>
        <time>2023-07-20T07:42:18Z</time>
      </trkpt>
      <trkpt lat="48.36781" lon="2.73025">
        <ele>92.3</ele>
        <time>2023-07-20T07:42:19Z</time>
      </trkpt>
      <trkpt lat="48.36782" lon="2.73023">
        <ele>92.3</ele>
        <time>2023-07-20T07:42:20Z</time>
      </trkpt>
      <trkpt lat="48.36781" lon="2.73021">
        <ele>92.3</ele>
        <time>2023-07-20T07:42:21Z</time>
      </trkpt>
      <trkpt lat="48.3678" lon="2.73019">
        <ele>92.3</ele>
        <time>2023-07-20T07:42:22Z</time>
      </trkpt>
      <trkpt lat="48.36781" lon="2.73018">
        <ele>92.3</ele>
        <time>2023-07-20T07:42:23Z</time>
      </trkpt>
      <trkpt lat="48.3678" lon="2.73016">
        <ele>92.3</ele>
        <time>2023-07-20T07:42:24Z</time>
      </trkpt>
      <trkpt lat="48.3678" lon="2.73014">
        <ele>92.3</ele>
        <time>2023-07-20T07:42:25Z</time>
      </trkpt>
      <trkpt lat="48.3678" lon="2.73013">
        <ele>92.3</ele>
        <time>2023-07-20T07:42:26Z</time>
      </trkpt>
      <trkpt lat="48.3678" lon="2.73011">
        <ele>92.2</ele>
        <time>2023-07-20T07:42:27Z</time>
      </trkpt>
      <trkpt lat="48.3678" lon="2.73009">
        <ele>92.2</ele>
        <time>2023-07-20T07:42:28Z</time>
      </trkpt>
      <trkpt lat="48.3678" lon="2.73009">
        <ele>92.2</ele>
        <time>2023-07-20T07:42:29Z</time>
      </trkpt>
      <trkpt lat="48.3678" lon="2.73008">
        <ele>92.2</ele>
        <time>2023-07-20T07:42:30Z</time>
      </trkpt>
      <trkpt lat="48.36781" lon="2.73006">
        <ele>92.2</ele>
        <time>2023-07-20T07:42:31Z</time>
      </trkpt>
      <trkpt lat="48.36781" lon="2.73005">
        <ele>92.2</ele>
        <time>2023-07-20T07:42:32Z</time>
      </trkpt>
      <trkpt lat="48.36781" lon="2.73003">
        <ele>92.2</ele>
        <time>2023-07-20T07:42:33Z</time>
      </trkpt>
      <trkpt lat="48.36781" lon="2.73003">
        <ele>92.2</ele>
        <time>2023-07-20T07:42:34Z</time>
      </trkpt>
      <trkpt lat="48.36781" lon="2.73002">
        <ele>92.2</ele>
        <time>2023-07-20T07:42:35Z</time>
      </trkpt>
      <trkpt lat="48.36781" lon="2.73001">
        <ele>92.2</ele>
        <time>2023-07-20T07:42:36Z</time>
      </trkpt>
      <trkpt lat="48.36781" lon="2.73">
        <ele>92.2</ele>
        <time>2023-07-20T07:42:37Z</time>
      </trkpt>
      <trkpt lat="48.36781" lon="2.72998">
        <ele>92.2</ele>
        <time>2023-07-20T07:42:38Z</time>
      </trkpt>
      <trkpt lat="48.36781" lon="2.72997">
        <ele>92.2</ele>
        <time>2023-07-20T07:42:39Z</time>
      </trkpt>
      <trkpt lat="48.36782" lon="2.72995">
        <ele>92.2</ele>
        <time>2023-07-20T07:42:40Z</time>
      </trkpt>
      <trkpt lat="48.36782" lon="2.72993">
        <ele>92.2</ele>
        <time>2023-07-20T07:42:41Z</time>
      </trkpt>
      <trkpt lat="48.36782" lon="2.72993">
        <ele>92.2</ele>
        <time>2023-07-20T07:42:42Z</time>
      </trkpt>
      <trkpt lat="48.36782" lon="2.7299">
        <ele>92.2</ele>
        <time>2023-07-20T07:42:43Z</time>
      </trkpt>
      <trkpt lat="48.36782" lon="2.72988">
        <ele>92.2</ele>
        <time>2023-07-20T07:42:44Z</time>
      </trkpt>
      <trkpt lat="48.36781" lon="2.72986">
        <ele>92.2</ele>
        <time>2023-07-20T07:42:45Z</time>
      </trkpt>
      <trkpt lat="48.36781" lon="2.72985">
        <ele>92.2</ele>
        <time>2023-07-20T07:42:46Z</time>
      </trkpt>
      <trkpt lat="48.36781" lon="2.72983">
        <ele>92.2</ele>
        <time>2023-07-20T07:42:47Z</time>
      </trkpt>
      <trkpt lat="48.36781" lon="2.72981">
        <ele>92.2</ele>
        <time>2023-07-20T07:42:48Z</time>
      </trkpt>
      <trkpt lat="48.36781" lon="2.72979">
        <ele>92.2</ele>
        <time>2023-07-20T07:42:49Z</time>
      </trkpt>
      <trkpt lat="48.36781" lon="2.72978">
        <ele>92.1</ele>
        <time>2023-07-20T07:42:50Z</time>
      </trkpt>
      <trkpt lat="48.36781" lon="2.72977">
        <ele>92.1</ele>
        <time>2023-07-20T07:42:51Z</time>
      </trkpt>
      <trkpt lat="48.36779" lon="2.72977">
        <ele>92.1</ele>
        <time>2023-07-20T07:42:52Z</time>
      </trkpt>
      <trkpt lat="48.3678" lon="2.72976">
        <ele>92.1</ele>
        <time>2023-07-20T07:42:53Z</time>
      </trkpt>
      <trkpt lat="48.36779" lon="2.72974">
        <ele>92.1</ele>
        <time>2023-07-20T07:42:54Z</time>
      </trkpt>
      <trkpt lat="48.36779" lon="2.72972">
        <ele>92.1</ele>
        <time>2023-07-20T07:42:55Z</time>
      </trkpt>
      <trkpt lat="48.36779" lon="2.72971">
        <ele>92.1</ele>
        <time>2023-07-20T07:42:56Z</time>
      </trkpt>
      <trkpt lat="48.36779" lon="2.72968">
        <ele>92.1</ele>
        <time>2023-07-20T07:42:57Z</time>
      </trkpt>
      <trkpt lat="48.36779" lon="2.72967">
        <ele>92.1</ele>
        <time>2023-07-20T07:42:58Z</time>
      </trkpt>
      <trkpt lat="48.36779" lon="2.72966">
        <ele>92.1</ele>
        <time>2023-07-20T07:42:59Z</time>
      </trkpt>
      <trkpt lat="48.36779" lon="2.72965">
        <ele>92.1</ele>
        <time>2023-07-20T07:43:00Z</time>
      </trkpt>
      <trkpt lat="48.36779" lon="2.72963">
        <ele>92</ele>
        <time>2023-07-20T07:43:01Z</time>
      </trkpt>
      <trkpt lat="48.36779" lon="2.72962">
        <ele>92</ele>
        <time>2023-07-20T07:43:02Z</time>
      </trkpt>
      <trkpt lat="48.36779" lon="2.72961">
        <ele>92</ele>
        <time>2023-07-20T07:43:03Z</time>
      </trkpt>
      <trkpt lat="48.36779" lon="2.7296">
        <ele>92</ele>
        <time>2023-07-20T07:43:04Z</time>
      </trkpt>
      <trkpt lat="48.36779" lon="2.7296">
        <ele>92</ele>
        <time>2023-07-20T07:43:05Z</time>
      </trkpt>
      <trkpt lat="48.3678" lon="2.72959">
        <ele>92</ele>
        <time>2023-07-20T07:43:06Z</time>
      </trkpt>
      <trkpt lat="48.36779" lon="2.72958">
        <ele>92</ele>
        <time>2023-07-20T07:43:07Z</time>
      </trkpt>
      <trkpt lat="48.36779" lon="2.72958">
        <ele>92</ele>
        <time>2023-07-20T07:43:08Z</time>
      </trkpt>
      <trkpt lat="48.36779" lon="2.72956">
        <ele>92</ele>
        <time>2023-07-20T07:43:09Z</time>
      </trkpt>
      <trkpt lat="48.36779" lon="2.72955">
        <ele>92</ele>
        <time>2023-07-20T07:43:10Z</time>
      </trkpt>
      <trkpt lat="48.36779" lon="2.72954">
        <ele>92</ele>
        <time>2023-07-20T07:43:11Z</time>
      </trkpt>
      <trkpt lat="48.36779" lon="2.72952">
        <ele>91.9</ele>
        <time>2023-07-20T07:43:12Z</time>
      </trkpt>
      <trkpt lat="48.36778" lon="2.7295">
        <ele>91.9</ele>
        <time>2023-07-20T07:43:13Z</time>
      </trkpt>
      <trkpt lat="48.36778" lon="2.72947">
        <ele>91.9</ele>
        <time>2023-07-20T07:43:14Z</time>
      </trkpt>
      <trkpt lat="48.36778" lon="2.72945">
        <ele>91.9</ele>
        <time>2023-07-20T07:43:15Z</time>
      </trkpt>
      <trkpt lat="48.36777" lon="2.72944">
        <ele>91.9</ele>
        <time>2023-07-20T07:43:16Z</time>
      </trkpt>
      <trkpt lat="48.36777" lon="2.72942">
        <ele>91.9</ele>
        <time>2023-07-20T07:43:17Z</time>
      </trkpt>
      <trkpt lat="48.36777" lon="2.7294">
        <ele>91.8</ele>
        <time>2023-07-20T07:43:18Z</time>
      </trkpt>
      <trkpt lat="48.36777" lon="2.72939">
        <ele>91.8</ele>
        <time>2023-07-20T07:43:19Z</time>
      </trkpt>
      <trkpt lat="48.36778" lon="2.72938">
        <ele>91.8</ele>
        <time>2023-07-20T07:43:20Z</time>
      </trkpt>
      <trkpt lat="48.36778" lon="2.72937">
        <ele>91.8</ele>
        <time>2023-07-20T07:43:21Z</time>
      </trkpt>
      <trkpt lat="48.36778" lon="2.72936">
        <ele>91.8</ele>
        <time>2023-07-20T07:43:22Z</time>
      </trkpt>
      <trkpt lat="48.36778" lon="2.72935">
        <ele>91.8</ele>
        <time>2023-07-20T07:43:23Z</time>
      </trkpt>
      <trkpt lat="48.36778" lon="2.72933">
        <ele>91.8</ele>
        <time>2023-07-20T07:43:24Z</time>
      </trkpt>
      <trkpt lat="48.36779" lon="2.72931">
        <ele>91.8</ele>
        <time>2023-07-20T07:43:25Z</time>
      </trkpt>
      <trkpt lat="48.36779" lon="2.72931">
        <ele>91.8</ele>
        <time>2023-07-20T07:43:26Z</time>
      </trkpt>
      <trkpt lat="48.36779" lon="2.72929">
        <ele>91.8</ele>
        <time>2023-07-20T07:43:27Z</time>
      </trkpt>
      <trkpt lat="48.36779" lon="2.72927">
        <ele>91.8</ele>
        <time>2023-07-20T07:43:28Z</time>
      </trkpt>
      <trkpt lat="48.36779" lon="2.72926">
        <ele>91.8</ele>
        <time>2023-07-20T07:43:29Z</time>
      </trkpt>
      <trkpt lat="48.36779" lon="2.72924">
        <ele>91.8</ele>
        <time>2023-07-20T07:43:30Z</time>
      </trkpt>
      <trkpt lat="48.36779" lon="2.72922">
        <ele>91.8</ele>
        <time>2023-07-20T07:43:31Z</time>
      </trkpt>
      <trkpt lat="48.3678" lon="2.72921">
        <ele>91.8</ele>
        <time>2023-07-20T07:43:32Z</time>
      </trkpt>
      <trkpt lat="48.3678" lon="2.7292">
        <ele>91.8</ele>
        <time>2023-07-20T07:43:33Z</time>
      </trkpt>
      <trkpt lat="48.3678" lon="2.72919">
        <ele>91.8</ele>
        <time>2023-07-20T07:43:34Z</time>
      </trkpt>
      <trkpt lat="48.3678" lon="2.72918">
        <ele>91.8</ele>
        <time>2023-07-20T07:43:35Z</time>
      </trkpt>
      <trkpt lat="48.36781" lon="2.72916">
        <ele>91.8</ele>
        <time>2023-07-20T07:43:36Z</time>
      </trkpt>
      <trkpt lat="48.36781" lon="2.72915">
        <ele>91.8</ele>
        <time>2023-07-20T07:43:37Z</time>
      </trkpt>
      <trkpt lat="48.36782" lon="2.72914">
        <ele>91.8</ele>
        <time>2023-07-20T07:43:38Z</time>
      </trkpt>
      <trkpt lat="48.36782" lon="2.72912">
        <ele>91.8</ele>
        <time>2023-07-20T07:43:39Z</time>
      </trkpt>
      <trkpt lat="48.36783" lon="2.7291">
        <ele>91.8</ele>
        <time>2023-07-20T07:43:40Z</time>
      </trkpt>
      <trkpt lat="48.36783" lon="2.72909">
        <ele>91.8</ele>
        <time>2023-07-20T07:43:41Z</time>
      </trkpt>
      <trkpt lat="48.36783" lon="2.72908">
        <ele>91.8</ele>
        <time>2023-07-20T07:43:42Z</time>
      </trkpt>
      <trkpt lat="48.36783" lon="2.72908">
        <ele>91.8</ele>
        <time>2023-07-20T07:43:43Z</time>
      </trkpt>
      <trkpt lat="48.36783" lon="2.72907">
        <ele>91.8</ele>
        <time>2023-07-20T07:43:44Z</time>
      </trkpt>
      <trkpt lat="48.36783" lon="2.72906">
        <ele>91.8</ele>
        <time>2023-07-20T07:43:45Z</time>
      </trkpt>
      <trkpt lat="48.36782" lon="2.72904">
        <ele>91.8</ele>
        <time>2023-07-20T07:43:46Z</time>
      </trkpt>
      <trkpt lat="48.36782" lon="2.72902">
        <ele>91.8</ele>
        <time>2023-07-20T07:43:47Z</time>
      </trkpt>
      <trkpt lat="48.36782" lon="2.729">
        <ele>91.8</ele>
        <time>2023-07-20T07:43:48Z</time>
      </trkpt>
      <trkpt lat="48.36783" lon="2.72897">
        <ele>91.8</ele>
        <time>2023-07-20T07:43:49Z</time>
      </trkpt>
      <trkpt lat="48.36783" lon="2.72896">
        <ele>91.8</ele>
        <time>2023-07-20T07:43:50Z</time>
      </trkpt>
      <trkpt lat="48.36783" lon="2.72894">
        <ele>91.8</ele>
        <time>2023-07-20T07:43:51Z</time>
      </trkpt>
      <trkpt lat="48.36783" lon="2.72893">
        <ele>91.8</ele>
        <time>2023-07-20T07:43:52Z</time>
      </trkpt>
      <trkpt lat="48.36783" lon="2.7289">
        <ele>91.8</ele>
        <time>2023-07-20T07:43:53Z</time>
      </trkpt>
      <trkpt lat="48.36783" lon="2.72888">
        <ele>91.8</ele>
        <time>2023-07-20T07:43:54Z</time>
      </trkpt>
      <trkpt lat="48.36783" lon="2.72886">
        <ele>91.8</ele>
        <time>2023-07-20T07:43:55Z</time>
      </trkpt>
      <trkpt lat="48.36783" lon="2.72885">
        <ele>91.8</ele>
        <time>2023-07-20T07:43:56Z</time>
      </trkpt>
      <trkpt lat="48.36784" lon="2.72884">
        <ele>91.8</ele>
        <time>2023-07-20T07:43:57Z</time>
      </trkpt>
      <trkpt lat="48.36784" lon="2.72883">
        <ele>91.8</ele>
        <time>2023-07-20T07:43:58Z</time>
      </trkpt>
      <trkpt lat="48.36784" lon="2.72883">
        <ele>91.8</ele>
        <time>2023-07-20T07:43:59Z</time>
      </trkpt>
      <trkpt lat="48.36784" lon="2.7288">
        <ele>91.8</ele>
        <time>2023-07-20T07:44:00Z</time>
      </trkpt>
      <trkpt lat="48.36784" lon="2.72879">
        <ele>91.8</ele>
        <time>2023-07-20T07:44:01Z</time>
      </trkpt>
      <trkpt lat="48.36784" lon="2.72877">
        <ele>91.8</ele>
        <time>2023-07-20T07:44:02Z</time>
      </trkpt>
      <trkpt lat="48.36784" lon="2.72876">
        <ele>91.8</ele>
        <time>2023-07-20T07:44:03Z</time>
      </trkpt>
      <trkpt lat="48.36784" lon="2.72875">
        <ele>91.8</ele>
        <time>2023-07-20T07:44:04Z</time>
      </trkpt>
      <trkpt lat="48.36784" lon="2.72873">
        <ele>91.8</ele>
        <time>2023-07-20T07:44:05Z</time>
      </trkpt>
      <trkpt lat="48.36784" lon="2.72873">
        <ele>91.8</ele>
        <time>2023-07-20T07:44:06Z</time>
      </trkpt>
      <trkpt lat="48.36784" lon="2.72871">
        <ele>91.8</ele>
        <time>2023-07-20T07:44:07Z</time>
      </trkpt>
      <trkpt lat="48.36784" lon="2.7287">
        <ele>91.8</ele>
        <time>2023-07-20T07:44:08Z</time>
      </trkpt>
      <trkpt lat="48.36784" lon="2.72869">
        <ele>91.8</ele>
        <time>2023-07-20T07:44:09Z</time>
      </trkpt>
      <trkpt lat="48.36785" lon="2.72867">
        <ele>91.8</ele>
        <time>2023-07-20T07:44:10Z</time>
      </trkpt>
      <trkpt lat="48.36785" lon="2.72865">
        <ele>91.8</ele>
        <time>2023-07-20T07:44:11Z</time>
      </trkpt>
      <trkpt lat="48.36785" lon="2.72863">
        <ele>91.8</ele>
        <time>2023-07-20T07:44:12Z</time>
      </trkpt>
      <trkpt lat="48.36785" lon="2.7286">
        <ele>91.7</ele>
        <time>2023-07-20T07:44:13Z</time>
      </trkpt>
      <trkpt lat="48.36785" lon="2.72858">
        <ele>91.7</ele>
        <time>2023-07-20T07:44:14Z</time>
      </trkpt>
      <trkpt lat="48.36785" lon="2.72856">
        <ele>91.7</ele>
        <time>2023-07-20T07:44:15Z</time>
      </trkpt>
      <trkpt lat="48.36785" lon="2.72855">
        <ele>91.7</ele>
        <time>2023-07-20T07:44:16Z</time>
      </trkpt>
      <trkpt lat="48.36784" lon="2.72854">
        <ele>91.7</ele>
        <time>2023-07-20T07:44:17Z</time>
      </trkpt>
      <trkpt lat="48.36785" lon="2.72854">
        <ele>91.7</ele>
        <time>2023-07-20T07:44:18Z</time>
      </trkpt>
      <trkpt lat="48.36785" lon="2.72852">
        <ele>91.7</ele>
        <time>2023-07-20T07:44:19Z</time>
      </trkpt>
      <trkpt lat="48.36785" lon="2.72851">
        <ele>91.7</ele>
        <time>2023-07-20T07:44:20Z</time>
      </trkpt>
      <trkpt lat="48.36785" lon="2.72849">
        <ele>91.6</ele>
        <time>2023-07-20T07:44:21Z</time>
      </trkpt>
      <trkpt lat="48.36784" lon="2.72847">
        <ele>91.6</ele>
        <time>2023-07-20T07:44:22Z</time>
      </trkpt>
      <trkpt lat="48.36785" lon="2.72842">
        <ele>91.5</ele>
        <time>2023-07-20T07:44:23Z</time>
      </trkpt>
      <trkpt lat="48.36785" lon="2.7284">
        <ele>91.5</ele>
        <time>2023-07-20T07:44:24Z</time>
      </trkpt>
      <trkpt lat="48.36786" lon="2.72838">
        <ele>91.5</ele>
        <time>2023-07-20T07:44:25Z</time>
      </trkpt>
      <trkpt lat="48.36786" lon="2.72837">
        <ele>91.4</ele>
        <time>2023-07-20T07:44:26Z</time>
      </trkpt>
      <trkpt lat="48.36785" lon="2.72836">
        <ele>91.4</ele>
        <time>2023-07-20T07:44:27Z</time>
      </trkpt>
      <trkpt lat="48.36785" lon="2.72832">
        <ele>91.4</ele>
        <time>2023-07-20T07:44:28Z</time>
      </trkpt>
      <trkpt lat="48.36786" lon="2.72831">
        <ele>91.4</ele>
        <time>2023-07-20T07:44:29Z</time>
      </trkpt>
      <trkpt lat="48.36786" lon="2.7283">
        <ele>91.3</ele>
        <time>2023-07-20T07:44:30Z</time>
      </trkpt>
      <trkpt lat="48.36786" lon="2.72827">
        <ele>91.3</ele>
        <time>2023-07-20T07:44:31Z</time>
      </trkpt>
      <trkpt lat="48.36786" lon="2.72826">
        <ele>91.3</ele>
        <time>2023-07-20T07:44:32Z</time>
      </trkpt>
      <trkpt lat="48.36786" lon="2.72825">
        <ele>91.3</ele>
        <time>2023-07-20T07:44:33Z</time>
      </trkpt>
      <trkpt lat="48.36787" lon="2.72825">
        <ele>91.3</ele>
        <time>2023-07-20T07:44:34Z</time>
      </trkpt>
      <trkpt lat="48.36786" lon="2.72824">
        <ele>91.2</ele>
        <time>2023-07-20T07:44:35Z</time>
      </trkpt>
      <trkpt lat="48.36786" lon="2.72823">
        <ele>91.2</ele>
        <time>2023-07-20T07:44:36Z</time>
      </trkpt>
      <trkpt lat="48.36786" lon="2.72821">
        <ele>91.2</ele>
        <time>2023-07-20T07:44:37Z</time>
      </trkpt>
      <trkpt lat="48.36786" lon="2.7282">
        <ele>91.2</ele>
        <time>2023-07-20T07:44:38Z</time>
      </trkpt>
      <trkpt lat="48.36786" lon="2.72819">
        <ele>91.2</ele>
        <time>2023-07-20T07:44:39Z</time>
      </trkpt>
      <trkpt lat="48.36786" lon="2.72817">
        <ele>91.1</ele>
        <time>2023-07-20T07:44:40Z</time>
      </trkpt>
      <trkpt lat="48.36786" lon="2.72815">
        <ele>91.1</ele>
        <time>2023-07-20T07:44:41Z</time>
      </trkpt>
      <trkpt lat="48.36786" lon="2.72814">
        <ele>91.1</ele>
        <time>2023-07-20T07:44:42Z</time>
      </trkpt>
      <trkpt lat="48.36786" lon="2.72813">
        <ele>91.1</ele>
        <time>2023-07-20T07:44:43Z</time>
      </trkpt>
      <trkpt lat="48.36786" lon="2.72811">
        <ele>91</ele>
        <time>2023-07-20T07:44:44Z</time>
      </trkpt>
      <trkpt lat="48.36786" lon="2.72808">
        <ele>91</ele>
        <time>2023-07-20T07:44:45Z</time>
      </trkpt>
      <trkpt lat="48.36786" lon="2.72807">
        <ele>91</ele>
        <time>2023-07-20T07:44:46Z</time>
      </trkpt>
      <trkpt lat="48.36787" lon="2.72805">
        <ele>90.9</ele>
        <time>2023-07-20T07:44:47Z</time>
      </trkpt>
      <trkpt lat="48.36787" lon="2.72802">
        <ele>90.9</ele>
        <time>2023-07-20T07:44:48Z</time>
      </trkpt>
      <trkpt lat="48.36788" lon="2.72801">
        <ele>90.9</ele>
        <time>2023-07-20T07:44:49Z</time>
      </trkpt>
      <trkpt lat="48.36787" lon="2.728">
        <ele>90.9</ele>
        <time>2023-07-20T07:44:50Z</time>
      </trkpt>
      <trkpt lat="48.36788" lon="2.72799">
        <ele>90.9</ele>
        <time>2023-07-20T07:44:51Z</time>
      </trkpt>
      <trkpt lat="48.36788" lon="2.72798">
        <ele>90.8</ele>
        <time>2023-07-20T07:44:52Z</time>
      </trkpt>
      <trkpt lat="48.36788" lon="2.72796">
        <ele>90.8</ele>
        <time>2023-07-20T07:44:53Z</time>
      </trkpt>
      <trkpt lat="48.36789" lon="2.72793">
        <ele>90.8</ele>
        <time>2023-07-20T07:44:54Z</time>
      </trkpt>
      <trkpt lat="48.36789" lon="2.72792">
        <ele>90.8</ele>
        <time>2023-07-20T07:44:55Z</time>
      </trkpt>
      <trkpt lat="48.3679" lon="2.7279">
        <ele>90.8</ele>
        <time>2023-07-20T07:44:56Z</time>
      </trkpt>
      <trkpt lat="48.36791" lon="2.72789">
        <ele>90.7</ele>
        <time>2023-07-20T07:44:57Z</time>
      </trkpt>
      <trkpt lat="48.36792" lon="2.72789">
        <ele>90.7</ele>
        <time>2023-07-20T07:44:58Z</time>
      </trkpt>
      <trkpt lat="48.36792" lon="2.72788">
        <ele>90.7</ele>
        <time>2023-07-20T07:44:59Z</time>
      </trkpt>
      <trkpt lat="48.36792" lon="2.72787">
        <ele>90.7</ele>
        <time>2023-07-20T07:45:00Z</time>
      </trkpt>
      <trkpt lat="48.36792" lon="2.72786">
        <ele>90.7</ele>
        <time>2023-07-20T07:45:01Z</time>
      </trkpt>
      <trkpt lat="48.36792" lon="2.72785">
        <ele>90.7</ele>
        <time>2023-07-20T07:45:02Z</time>
      </trkpt>
      <trkpt lat="48.36792" lon="2.72784">
        <ele>90.7</ele>
        <time>2023-07-20T07:45:03Z</time>
      </trkpt>
      <trkpt lat="48.36791" lon="2.72782">
        <ele>90.7</ele>
        <time>2023-07-20T07:45:04Z</time>
      </trkpt>
      <trkpt lat="48.36791" lon="2.7278">
        <ele>90.7</ele>
        <time>2023-07-20T07:45:05Z</time>
      </trkpt>
      <trkpt lat="48.36791" lon="2.7278">
        <ele>90.6</ele>
        <time>2023-07-20T07:45:06Z</time>
      </trkpt>
      <trkpt lat="48.3679" lon="2.72778">
        <ele>90.6</ele>
        <time>2023-07-20T07:45:07Z</time>
      </trkpt>
      <trkpt lat="48.3679" lon="2.72777">
        <ele>90.6</ele>
        <time>2023-07-20T07:45:08Z</time>
      </trkpt>
      <trkpt lat="48.3679" lon="2.72776">
        <ele>90.6</ele>
        <time>2023-07-20T07:45:09Z</time>
      </trkpt>
      <trkpt lat="48.36789" lon="2.72775">
        <ele>90.6</ele>
        <time>2023-07-20T07:45:10Z</time>
      </trkpt>
      <trkpt lat="48.36789" lon="2.72774">
        <ele>90.6</ele>
        <time>2023-07-20T07:45:11Z</time>
      </trkpt>
      <trkpt lat="48.36788" lon="2.72772">
        <ele>90.6</ele>
        <time>2023-07-20T07:45:12Z</time>
      </trkpt>
      <trkpt lat="48.36788" lon="2.7277">
        <ele>90.6</ele>
        <time>2023-07-20T07:45:13Z</time>
      </trkpt>
      <trkpt lat="48.36788" lon="2.72766">
        <ele>90.5</ele>
        <time>2023-07-20T07:45:14Z</time>
      </trkpt>
      <trkpt lat="48.36788" lon="2.72764">
        <ele>90.5</ele>
        <time>2023-07-20T07:45:15Z</time>
      </trkpt>
      <trkpt lat="48.36789" lon="2.72761">
        <ele>90.5</ele>
        <time>2023-07-20T07:45:16Z</time>
      </trkpt>
      <trkpt lat="48.3679" lon="2.7276">
        <ele>90.5</ele>
        <time>2023-07-20T07:45:17Z</time>
      </trkpt>
      <trkpt lat="48.3679" lon="2.72759">
        <ele>90.5</ele>
        <time>2023-07-20T07:45:18Z</time>
      </trkpt>
      <trkpt lat="48.36791" lon="2.72756">
        <ele>90.5</ele>
        <time>2023-07-20T07:45:19Z</time>
      </trkpt>
      <trkpt lat="48.36791" lon="2.72754">
        <ele>90.4</ele>
        <time>2023-07-20T07:45:20Z</time>
      </trkpt>
      <trkpt lat="48.36791" lon="2.72752">
        <ele>90.4</ele>
        <time>2023-07-20T07:45:21Z</time>
      </trkpt>
      <trkpt lat="48.36791" lon="2.72749">
        <ele>90.4</ele>
        <time>2023-07-20T07:45:22Z</time>
      </trkpt>
      <trkpt lat="48.36791" lon="2.72747">
        <ele>90.4</ele>
        <time>2023-07-20T07:45:23Z</time>
      </trkpt>
      <trkpt lat="48.36791" lon="2.72745">
        <ele>90.4</ele>
        <time>2023-07-20T07:45:24Z</time>
      </trkpt>
      <trkpt lat="48.3679" lon="2.72743">
        <ele>90.4</ele>
        <time>2023-07-20T07:45:25Z</time>
      </trkpt>
      <trkpt lat="48.3679" lon="2.72742">
        <ele>90.4</ele>
        <time>2023-07-20T07:45:26Z</time>
      </trkpt>
      <trkpt lat="48.3679" lon="2.72741">
        <ele>90.3</ele>
        <time>2023-07-20T07:45:27Z</time>
      </trkpt>
      <trkpt lat="48.36789" lon="2.72741">
        <ele>90.3</ele>
        <time>2023-07-20T07:45:28Z</time>
      </trkpt>
      <trkpt lat="48.36789" lon="2.7274">
        <ele>90.3</ele>
        <time>2023-07-20T07:45:29Z</time>
      </trkpt>
      <trkpt lat="48.36789" lon="2.72738">
        <ele>90.3</ele>
        <time>2023-07-20T07:45:30Z</time>
      </trkpt>
      <trkpt lat="48.36788" lon="2.72738">
        <ele>90.3</ele>
        <time>2023-07-20T07:45:31Z</time>
      </trkpt>
      <trkpt lat="48.36789" lon="2.72736">
        <ele>90.3</ele>
        <time>2023-07-20T07:45:32Z</time>
      </trkpt>
      <trkpt lat="48.36788" lon="2.72734">
        <ele>90.3</ele>
        <time>2023-07-20T07:45:33Z</time>
      </trkpt>
      <trkpt lat="48.36788" lon="2.72732">
        <ele>90.3</ele>
        <time>2023-07-20T07:45:34Z</time>
      </trkpt>
      <trkpt lat="48.36789" lon="2.72731">
        <ele>90.3</ele>
        <time>2023-07-20T07:45:35Z</time>
      </trkpt>
      <trkpt lat="48.36789" lon="2.7273">
        <ele>90.3</ele>
        <time>2023-07-20T07:45:36Z</time>
      </trkpt>
      <trkpt lat="48.36789" lon="2.72728">
        <ele>90.3</ele>
        <time>2023-07-20T07:45:37Z</time>
      </trkpt>
      <trkpt lat="48.36789" lon="2.72727">
        <ele>90.3</ele>
        <time>2023-07-20T07:45:38Z</time>
      </trkpt>
      <trkpt lat="48.36789" lon="2.72725">
        <ele>90.3</ele>
        <time>2023-07-20T07:45:39Z</time>
      </trkpt>
      <trkpt lat="48.3679" lon="2.72723">
        <ele>90.3</ele>
        <time>2023-07-20T07:45:40Z</time>
      </trkpt>
      <trkpt lat="48.3679" lon="2.72721">
        <ele>90.3</ele>
        <time>2023-07-20T07:45:41Z</time>
      </trkpt>
      <trkpt lat="48.36791" lon="2.72719">
        <ele>90.3</ele>
        <time>2023-07-20T07:45:42Z</time>
      </trkpt>
      <trkpt lat="48.36791" lon="2.72718">
        <ele>90.2</ele>
        <time>2023-07-20T07:45:43Z</time>
      </trkpt>
      <trkpt lat="48.36792" lon="2.72717">
        <ele>90.2</ele>
        <time>2023-07-20T07:45:44Z</time>
      </trkpt>
      <trkpt lat="48.36791" lon="2.72716">
        <ele>90.2</ele>
        <time>2023-07-20T07:45:45Z</time>
      </trkpt>
      <trkpt lat="48.36791" lon="2.72715">
        <ele>90.2</ele>
        <time>2023-07-20T07:45:46Z</time>
      </trkpt>
      <trkpt lat="48.36791" lon="2.72714">
        <ele>90.2</ele>
        <time>2023-07-20T07:45:47Z</time>
      </trkpt>
      <trkpt lat="48.36791" lon="2.72713">
        <ele>90.2</ele>
        <time>2023-07-20T07:45:48Z</time>
      </trkpt>
      <trkpt lat="48.36791" lon="2.72712">
        <ele>90.2</ele>
        <time>2023-07-20T07:45:49Z</time>
      </trkpt>
      <trkpt lat="48.36791" lon="2.72712">
        <ele>90.2</ele>
        <time>2023-07-20T07:45:50Z</time>
      </trkpt>
      <trkpt lat="48.36791" lon="2.72712">
        <ele>90.2</ele>
        <time>2023-07-20T07:45:51Z</time>
      </trkpt>
      <trkpt lat="48.36791" lon="2.72712">
        <ele>90.2</ele>
        <time>2023-07-20T07:45:52Z</time>
      </trkpt>
      <trkpt lat="48.36791" lon="2.72712">
        <ele>90.2</ele>
        <time>2023-07-20T07:45:53Z</time>
      </trkpt>
      <trkpt lat="48.36791" lon="2.72712">
        <ele>90.2</ele>
        <time>2023-07-20T07:45:54Z</time>
      </trkpt>
      <trkpt lat="48.36791" lon="2.72712">
        <ele>90.2</ele>
        <time>2023-07-20T07:45:55Z</time>
      </trkpt>
      <trkpt lat="48.3679" lon="2.72711">
        <ele>90.2</ele>
        <time>2023-07-20T07:45:56Z</time>
      </trkpt>
      <trkpt lat="48.3679" lon="2.72711">
        <ele>90.2</ele>
        <time>2023-07-20T07:45:57Z</time>
      </trkpt>
      <trkpt lat="48.3679" lon="2.72711">
        <ele>90.2</ele>
        <time>2023-07-20T07:45:58Z</time>
      </trkpt>
      <trkpt lat="48.3679" lon="2.72711">
        <ele>90.2</ele>
        <time>2023-07-20T07:45:59Z</time>
      </trkpt>
      <trkpt lat="48.3679" lon="2.72711">
        <ele>90.2</ele>
        <time>2023-07-20T07:46:00Z</time>
      </trkpt>
      <trkpt lat="48.3679" lon="2.72711">
        <ele>90.2</ele>
        <time>2023-07-20T07:46:01Z</time>
      </trkpt>
      <trkpt lat="48.3679" lon="2.72711">
        <ele>90.2</ele>
        <time>2023-07-20T07:46:02Z</time>
      </trkpt>
      <trkpt lat="48.3679" lon="2.72711">
        <ele>90.2</ele>
        <time>2023-07-20T07:46:03Z</time>
      </trkpt>
      <trkpt lat="48.36789" lon="2.72711">
        <ele>90.2</ele>
        <time>2023-07-20T07:46:04Z</time>
      </trkpt>
      <trkpt lat="48.36789" lon="2.72711">
        <ele>90.2</ele>
        <time>2023-07-20T07:46:05Z</time>
      </trkpt>
      <trkpt lat="48.36788" lon="2.72711">
        <ele>90.3</ele>
        <time>2023-07-20T07:46:06Z</time>
      </trkpt>
      <trkpt lat="48.36788" lon="2.72711">
        <ele>90.3</ele>
        <time>2023-07-20T07:46:07Z</time>
      </trkpt>
      <trkpt lat="48.36788" lon="2.72711">
        <ele>90.3</ele>
        <time>2023-07-20T07:46:08Z</time>
      </trkpt>
      <trkpt lat="48.36788" lon="2.72711">
        <ele>90.3</ele>
        <time>2023-07-20T07:46:09Z</time>
      </trkpt>
      <trkpt lat="48.36788" lon="2.72711">
        <ele>90.3</ele>
        <time>2023-07-20T07:46:10Z</time>
      </trkpt>
      <trkpt lat="48.36788" lon="2.72711">
        <ele>90.3</ele>
        <time>2023-07-20T07:46:11Z</time>
      </trkpt>
      <trkpt lat="48.36788" lon="2.7271">
        <ele>90.3</ele>
        <time>2023-07-20T07:46:12Z</time>
      </trkpt>
      <trkpt lat="48.36788" lon="2.7271">
        <ele>90.3</ele>
        <time>2023-07-20T07:46:13Z</time>
      </trkpt>
      <trkpt lat="48.36788" lon="2.7271">
        <ele>90.3</ele>
        <time>2023-07-20T07:46:14Z</time>
      </trkpt>
      <trkpt lat="48.36788" lon="2.7271">
        <ele>90.3</ele>
        <time>2023-07-20T07:46:15Z</time>
      </trkpt>
      <trkpt lat="48.36786" lon="2.72709">
        <ele>90.3</ele>
        <time>2023-07-20T07:46:16Z</time>
      </trkpt>
      <trkpt lat="48.36786" lon="2.72709">
        <ele>90.3</ele>
        <time>2023-07-20T07:46:17Z</time>
      </trkpt>
      <trkpt lat="48.36786" lon="2.72709">
        <ele>90.3</ele>
        <time>2023-07-20T07:46:18Z</time>
      </trkpt>
      <trkpt lat="48.36786" lon="2.72708">
        <ele>90.3</ele>
        <time>2023-07-20T07:46:19Z</time>
      </trkpt>
      <trkpt lat="48.36786" lon="2.72707">
        <ele>90.3</ele>
        <time>2023-07-20T07:46:20Z</time>
      </trkpt>
      <trkpt lat="48.36786" lon="2.72705">
        <ele>90.3</ele>
        <time>2023-07-20T07:46:21Z</time>
      </trkpt>
      <trkpt lat="48.36786" lon="2.72705">
        <ele>90.3</ele>
        <time>2023-07-20T07:46:22Z</time>
      </trkpt>
      <trkpt lat="48.36786" lon="2.72705">
        <ele>90.3</ele>
        <time>2023-07-20T07:46:23Z</time>
      </trkpt>
      <trkpt lat="48.36786" lon="2.72705">
        <ele>90.3</ele>
        <time>2023-07-20T07:46:24Z</time>
      </trkpt>
      <trkpt lat="48.36785" lon="2.72706">
        <ele>90.3</ele>
        <time>2023-07-20T07:46:25Z</time>
      </trkpt>
      <trkpt lat="48.36784" lon="2.72706">
        <ele>90.3</ele>
        <time>2023-07-20T07:46:26Z</time>
      </trkpt>
      <trkpt lat="48.36783" lon="2.72705">
        <ele>90.3</ele>
        <time>2023-07-20T07:46:27Z</time>
      </trkpt>
      <trkpt lat="48.36783" lon="2.72705">
        <ele>90.3</ele>
        <time>2023-07-20T07:46:28Z</time>
      </trkpt>
      <trkpt lat="48.36782" lon="2.72705">
        <ele>90.3</ele>
        <time>2023-07-20T07:46:29Z</time>
      </trkpt>
      <trkpt lat="48.3678" lon="2.72705">
        <ele>90.3</ele>
        <time>2023-07-20T07:46:30Z</time>
      </trkpt>
      <trkpt lat="48.36779" lon="2.72705">
        <ele>90.3</ele>
        <time>2023-07-20T07:46:31Z</time>
      </trkpt>
      <trkpt lat="48.36778" lon="2.72705">
        <ele>90.3</ele>
        <time>2023-07-20T07:46:32Z</time>
      </trkpt>
      <trkpt lat="48.36778" lon="2.72705">
        <ele>90.3</ele>
        <time>2023-07-20T07:46:33Z</time>
      </trkpt>
      <trkpt lat="48.36778" lon="2.72704">
        <ele>90.2</ele>
        <time>2023-07-20T07:46:34Z</time>
      </trkpt>
      <trkpt lat="48.36777" lon="2.72704">
        <ele>90.2</ele>
        <time>2023-07-20T07:46:35Z</time>
      </trkpt>
      <trkpt lat="48.36776" lon="2.72704">
        <ele>90.2</ele>
        <time>2023-07-20T07:46:36Z</time>
      </trkpt>
      <trkpt lat="48.36775" lon="2.72704">
        <ele>90.2</ele>
        <time>2023-07-20T07:46:37Z</time>
      </trkpt>
      <trkpt lat="48.36775" lon="2.72704">
        <ele>90.2</ele>
        <time>2023-07-20T07:46:38Z</time>
      </trkpt>
      <trkpt lat="48.36775" lon="2.72704">
        <ele>90.2</ele>
        <time>2023-07-20T07:46:39Z</time>
      </trkpt>
      <trkpt lat="48.36775" lon="2.72703">
        <ele>90.2</ele>
        <time>2023-07-20T07:46:40Z</time>
      </trkpt>
      <trkpt lat="48.36774" lon="2.72703">
        <ele>90.2</ele>
        <time>2023-07-20T07:46:41Z</time>
      </trkpt>
      <trkpt lat="48.36773" lon="2.72703">
        <ele>90.2</ele>
        <time>2023-07-20T07:46:42Z</time>
      </trkpt>
      <trkpt lat="48.36772" lon="2.72703">
        <ele>90.2</ele>
        <time>2023-07-20T07:46:43Z</time>
      </trkpt>
      <trkpt lat="48.36771" lon="2.72703">
        <ele>90.2</ele>
        <time>2023-07-20T07:46:44Z</time>
      </trkpt>
      <trkpt lat="48.36771" lon="2.72703">
        <ele>90.2</ele>
        <time>2023-07-20T07:46:45Z</time>
      </trkpt>
      <trkpt lat="48.3677" lon="2.72703">
        <ele>90.2</ele>
        <time>2023-07-20T07:46:46Z</time>
      </trkpt>
      <trkpt lat="48.3677" lon="2.72703">
        <ele>90.2</ele>
        <time>2023-07-20T07:46:47Z</time>
      </trkpt>
      <trkpt lat="48.36769" lon="2.72702">
        <ele>90.2</ele>
        <time>2023-07-20T07:46:48Z</time>
      </trkpt>
      <trkpt lat="48.36769" lon="2.72703">
        <ele>90.2</ele>
        <time>2023-07-20T07:46:49Z</time>
      </trkpt>
      <trkpt lat="48.36768" lon="2.72703">
        <ele>90.2</ele>
        <time>2023-07-20T07:46:50Z</time>
      </trkpt>
      <trkpt lat="48.36769" lon="2.72704">
        <ele>90.2</ele>
        <time>2023-07-20T07:46:51Z</time>
      </trkpt>
      <trkpt lat="48.36769" lon="2.72704">
        <ele>90.2</ele>
        <time>2023-07-20T07:46:52Z</time>
      </trkpt>
      <trkpt lat="48.3677" lon="2.72705">
        <ele>90.2</ele>
        <time>2023-07-20T07:46:53Z</time>
      </trkpt>
      <trkpt lat="48.3677" lon="2.72705">
        <ele>90.2</ele>
        <time>2023-07-20T07:46:54Z</time>
      </trkpt>
      <trkpt lat="48.3677" lon="2.72705">
        <ele>90.2</ele>
        <time>2023-07-20T07:46:55Z</time>
      </trkpt>
      <trkpt lat="48.3677" lon="2.72705">
        <ele>90.2</ele>
        <time>2023-07-20T07:46:56Z</time>
      </trkpt>
      <trkpt lat="48.3677" lon="2.72705">
        <ele>90.2</ele>
        <time>2023-07-20T07:46:57Z</time>
      </trkpt>
      <trkpt lat="48.3677" lon="2.72705">
        <ele>90.2</ele>
        <time>2023-07-20T07:46:58Z</time>
      </trkpt>
      <trkpt lat="48.3677" lon="2.72705">
        <ele>90.2</ele>
        <time>2023-07-20T07:46:59Z</time>
      </trkpt>
      <trkpt lat="48.3677" lon="2.72705">
        <ele>90.2</ele>
        <time>2023-07-20T07:47:00Z</time>
      </trkpt>
      <trkpt lat="48.3677" lon="2.72705">
        <ele>90.2</ele>
        <time>2023-07-20T07:47:01Z</time>
      </trkpt>
      <trkpt lat="48.3677" lon="2.72707">
        <ele>90.2</ele>
        <time>2023-07-20T07:47:02Z</time>
      </trkpt>
      <trkpt lat="48.36769" lon="2.72706">
        <ele>90.2</ele>
        <time>2023-07-20T07:47:03Z</time>
      </trkpt>
      <trkpt lat="48.36769" lon="2.72706">
        <ele>90.2</ele>
        <time>2023-07-20T07:47:04Z</time>
      </trkpt>
      <trkpt lat="48.36769" lon="2.72706">
        <ele>90.2</ele>
        <time>2023-07-20T07:47:05Z</time>
      </trkpt>
      <trkpt lat="48.36769" lon="2.72706">
        <ele>90.2</ele>
        <time>2023-07-20T07:47:06Z</time>
      </trkpt>
      <trkpt lat="48.36768" lon="2.72704">
        <ele>90.2</ele>
        <time>2023-07-20T07:47:07Z</time>
      </trkpt>
      <trkpt lat="48.36769" lon="2.72704">
        <ele>90.2</ele>
        <time>2023-07-20T07:47:08Z</time>
      </trkpt>
      <trkpt lat="48.36769" lon="2.72704">
        <ele>90.2</ele>
        <time>2023-07-20T07:47:09Z</time>
      </trkpt>
      <trkpt lat="48.36769" lon="2.72705">
        <ele>90.2</ele>
        <time>2023-07-20T07:47:10Z</time>
      </trkpt>
      <trkpt lat="48.3677" lon="2.72706">
        <ele>90.2</ele>
        <time>2023-07-20T07:47:11Z</time>
      </trkpt>
      <trkpt lat="48.36769" lon="2.72706">
        <ele>90.2</ele>
        <time>2023-07-20T07:47:12Z</time>
      </trkpt>
      <trkpt lat="48.36769" lon="2.72707">
        <ele>90.2</ele>
        <time>2023-07-20T07:47:13Z</time>
      </trkpt>
      <trkpt lat="48.36769" lon="2.72708">
        <ele>90.2</ele>
        <time>2023-07-20T07:47:14Z</time>
      </trkpt>
      <trkpt lat="48.36769" lon="2.72709">
        <ele>90.2</ele>
        <time>2023-07-20T07:47:15Z</time>
      </trkpt>
      <trkpt lat="48.36769" lon="2.72709">
        <ele>90.2</ele>
        <time>2023-07-20T07:47:16Z</time>
      </trkpt>
      <trkpt lat="48.36768" lon="2.72709">
        <ele>90.2</ele>
        <time>2023-07-20T07:47:17Z</time>
      </trkpt>
      <trkpt lat="48.36768" lon="2.72709">
        <ele>90.2</ele>
        <time>2023-07-20T07:47:18Z</time>
      </trkpt>
      <trkpt lat="48.36769" lon="2.72709">
        <ele>90.2</ele>
        <time>2023-07-20T07:47:19Z</time>
      </trkpt>
      <trkpt lat="48.36769" lon="2.72709">
        <ele>90.2</ele>
        <time>2023-07-20T07:47:20Z</time>
      </trkpt>
      <trkpt lat="48.36769" lon="2.72708">
        <ele>90.2</ele>
        <time>2023-07-20T07:47:21Z</time>
      </trkpt>
      <trkpt lat="48.36769" lon="2.72707">
        <ele>90.2</ele>
        <time>2023-07-20T07:47:22Z</time>
      </trkpt>
      <trkpt lat="48.36769" lon="2.72706">
        <ele>90.2</ele>
        <time>2023-07-20T07:47:23Z</time>
      </trkpt>
      <trkpt lat="48.3677" lon="2.72706">
        <ele>90.2</ele>
        <time>2023-07-20T07:47:24Z</time>
      </trkpt>
      <trkpt lat="48.3677" lon="2.72707">
        <ele>90.2</ele>
        <time>2023-07-20T07:47:25Z</time>
      </trkpt>
      <trkpt lat="48.36771" lon="2.72707">
        <ele>90.2</ele>
        <time>2023-07-20T07:47:26Z</time>
      </trkpt>
      <trkpt lat="48.36771" lon="2.72706">
        <ele>90.2</ele>
        <time>2023-07-20T07:47:27Z</time>
      </trkpt>
      <trkpt lat="48.36771" lon="2.72706">
        <ele>90.2</ele>
        <time>2023-07-20T07:47:28Z</time>
      </trkpt>
      <trkpt lat="48.36772" lon="2.72706">
        <ele>90.2</ele>
        <time>2023-07-20T07:47:29Z</time>
      </trkpt>
      <trkpt lat="48.36772" lon="2.72705">
        <ele>90.2</ele>
        <time>2023-07-20T07:47:30Z</time>
      </trkpt>
      <trkpt lat="48.36772" lon="2.72705">
        <ele>90.2</ele>
        <time>2023-07-20T07:47:31Z</time>
      </trkpt>
      <trkpt lat="48.36772" lon="2.72706">
        <ele>90.2</ele>
        <time>2023-07-20T07:47:32Z</time>
      </trkpt>
      <trkpt lat="48.36772" lon="2.72708">
        <ele>90.2</ele>
        <time>2023-07-20T07:47:33Z</time>
      </trkpt>
      <trkpt lat="48.36774" lon="2.72709">
        <ele>90.2</ele>
        <time>2023-07-20T07:47:34Z</time>
      </trkpt>
      <trkpt lat="48.36775" lon="2.72711">
        <ele>90.2</ele>
        <time>2023-07-20T07:47:35Z</time>
      </trkpt>
      <trkpt lat="48.36775" lon="2.72711">
        <ele>90.2</ele>
        <time>2023-07-20T07:47:36Z</time>
      </trkpt>
      <trkpt lat="48.36776" lon="2.7271">
        <ele>90.2</ele>
        <time>2023-07-20T07:47:37Z</time>
      </trkpt>
      <trkpt lat="48.36775" lon="2.7271">
        <ele>90.2</ele>
        <time>2023-07-20T07:47:38Z</time>
      </trkpt>
      <trkpt lat="48.36774" lon="2.72709">
        <ele>90.2</ele>
        <time>2023-07-20T07:47:39Z</time>
      </trkpt>
      <trkpt lat="48.36774" lon="2.72708">
        <ele>90.2</ele>
        <time>2023-07-20T07:47:40Z</time>
      </trkpt>
      <trkpt lat="48.36775" lon="2.72708">
        <ele>90.2</ele>
        <time>2023-07-20T07:47:41Z</time>
      </trkpt>
      <trkpt lat="48.36775" lon="2.72706">
        <ele>90.2</ele>
        <time>2023-07-20T07:47:42Z</time>
      </trkpt>
      <trkpt lat="48.36772" lon="2.72707">
        <ele>90.2</ele>
        <time>2023-07-20T07:47:43Z</time>
      </trkpt>
      <trkpt lat="48.36772" lon="2.72708">
        <ele>90.2</ele>
        <time>2023-07-20T07:47:44Z</time>
      </trkpt>
      <trkpt lat="48.36771" lon="2.72708">
        <ele>90.2</ele>
        <time>2023-07-20T07:47:45Z</time>
      </trkpt>
      <trkpt lat="48.3677" lon="2.72708">
        <ele>90.2</ele>
        <time>2023-07-20T07:47:46Z</time>
      </trkpt>
      <trkpt lat="48.36771" lon="2.72708">
        <ele>90.2</ele>
        <time>2023-07-20T07:47:47Z</time>
      </trkpt>
      <trkpt lat="48.36771" lon="2.72708">
        <ele>90.2</ele>
        <time>2023-07-20T07:47:48Z</time>
      </trkpt>
      <trkpt lat="48.36771" lon="2.72708">
        <ele>90.2</ele>
        <time>2023-07-20T07:47:49Z</time>
      </trkpt>
      <trkpt lat="48.36771" lon="2.72708">
        <ele>90.2</ele>
        <time>2023-07-20T07:47:50Z</time>
      </trkpt>
      <trkpt lat="48.36771" lon="2.72708">
        <ele>90.2</ele>
        <time>2023-07-20T07:47:51Z</time>
      </trkpt>
      <trkpt lat="48.36771" lon="2.72708">
        <ele>90.2</ele>
        <time>2023-07-20T07:47:52Z</time>
      </trkpt>
      <trkpt lat="48.36771" lon="2.72708">
        <ele>90.2</ele>
        <time>2023-07-20T07:47:53Z</time>
      </trkpt>
      <trkpt lat="48.36771" lon="2.72708">
        <ele>90.2</ele>
        <time>2023-07-20T07:47:54Z</time>
      </trkpt>
      <trkpt lat="48.36771" lon="2.72708">
        <ele>90.2</ele>
        <time>2023-07-20T07:47:55Z</time>
      </trkpt>
      <trkpt lat="48.36772" lon="2.72708">
        <ele>90.2</ele>
        <time>2023-07-20T07:47:56Z</time>
      </trkpt>
      <trkpt lat="48.36772" lon="2.72708">
        <ele>90.2</ele>
        <time>2023-07-20T07:47:57Z</time>
      </trkpt>
      <trkpt lat="48.36772" lon="2.72708">
        <ele>90.2</ele>
        <time>2023-07-20T07:47:58Z</time>
      </trkpt>
      <trkpt lat="48.36772" lon="2.72708">
        <ele>90.2</ele>
        <time>2023-07-20T07:47:59Z</time>
      </trkpt>
      <trkpt lat="48.36772" lon="2.72708">
        <ele>90.2</ele>
        <time>2023-07-20T07:48:00Z</time>
      </trkpt>
      <trkpt lat="48.36772" lon="2.72708">
        <ele>90.2</ele>
        <time>2023-07-20T07:48:01Z</time>
      </trkpt>
      <trkpt lat="48.36772" lon="2.72708">
        <ele>90.2</ele>
        <time>2023-07-20T07:48:02Z</time>
      </trkpt>
      <trkpt lat="48.36772" lon="2.72708">
        <ele>90.2</ele>
        <time>2023-07-20T07:48:03Z</time>
      </trkpt>
      <trkpt lat="48.36772" lon="2.72708">
        <ele>90.2</ele>
        <time>2023-07-20T07:48:04Z</time>
      </trkpt>
      <trkpt lat="48.36773" lon="2.72708">
        <ele>90.2</ele>
        <time>2023-07-20T07:48:05Z</time>
      </trkpt>
      <trkpt lat="48.36773" lon="2.72708">
        <ele>90.2</ele>
        <time>2023-07-20T07:48:06Z</time>
      </trkpt>
      <trkpt lat="48.36773" lon="2.72708">
        <ele>90.2</ele>
        <time>2023-07-20T07:48:07Z</time>
      </trkpt>
      <trkpt lat="48.36773" lon="2.72708">
        <ele>90.2</ele>
        <time>2023-07-20T07:48:08Z</time>
      </trkpt>
      <trkpt lat="48.36773" lon="2.72708">
        <ele>90.2</ele>
        <time>2023-07-20T07:48:09Z</time>
      </trkpt>
      <trkpt lat="48.36773" lon="2.72708">
        <ele>90.2</ele>
        <time>2023-07-20T07:48:10Z</time>
      </trkpt>
      <trkpt lat="48.36773" lon="2.72708">
        <ele>90.2</ele>
        <time>2023-07-20T07:48:11Z</time>
      </trkpt>
      <trkpt lat="48.36773" lon="2.72708">
        <ele>90.2</ele>
        <time>2023-07-20T07:48:12Z</time>
      </trkpt>
      <trkpt lat="48.36773" lon="2.72708">
        <ele>90.2</ele>
        <time>2023-07-20T07:48:13Z</time>
      </trkpt>
      <trkpt lat="48.36774" lon="2.72707">
        <ele>90.2</ele>
        <time>2023-07-20T07:48:14Z</time>
      </trkpt>
      <trkpt lat="48.36774" lon="2.72707">
        <ele>90.2</ele>
        <time>2023-07-20T07:48:15Z</time>
      </trkpt>
      <trkpt lat="48.36774" lon="2.72707">
        <ele>90.2</ele>
        <time>2023-07-20T07:48:16Z</time>
      </trkpt>
      <trkpt lat="48.36774" lon="2.72707">
        <ele>90.2</ele>
        <time>2023-07-20T07:48:17Z</time>
      </trkpt>
      <trkpt lat="48.36774" lon="2.72707">
        <ele>90.2</ele>
        <time>2023-07-20T07:48:18Z</time>
      </trkpt>
      <trkpt lat="48.36774" lon="2.72707">
        <ele>90.2</ele>
        <time>2023-07-20T07:48:19Z</time>
      </trkpt>
      <trkpt lat="48.36774" lon="2.72707">
        <ele>90.2</ele>
        <time>2023-07-20T07:48:20Z</time>
      </trkpt>
      <trkpt lat="48.36774" lon="2.72707">
        <ele>90.2</ele>
        <time>2023-07-20T07:48:21Z</time>
      </trkpt>
      <trkpt lat="48.36775" lon="2.72707">
        <ele>90.2</ele>
        <time>2023-07-20T07:48:22Z</time>
      </trkpt>
      <trkpt lat="48.36776" lon="2.72706">
        <ele>90.2</ele>
        <time>2023-07-20T07:48:23Z</time>
      </trkpt>
      <trkpt lat="48.36776" lon="2.72706">
        <ele>90.2</ele>
        <time>2023-07-20T07:48:24Z</time>
      </trkpt>
      <trkpt lat="48.36775" lon="2.72707">
        <ele>90.2</ele>
        <time>2023-07-20T07:48:25Z</time>
      </trkpt>
      <trkpt lat="48.36775" lon="2.72708">
        <ele>90.2</ele>
        <time>2023-07-20T07:48:26Z</time>
      </trkpt>
      <trkpt lat="48.36775" lon="2.72708">
        <ele>90.2</ele>
        <time>2023-07-20T07:48:27Z</time>
      </trkpt>
      <trkpt lat="48.36775" lon="2.72708">
        <ele>90.2</ele>
        <time>2023-07-20T07:48:28Z</time>
      </trkpt>
      <trkpt lat="48.36775" lon="2.72708">
        <ele>90.2</ele>
        <time>2023-07-20T07:48:29Z</time>
      </trkpt>
      <trkpt lat="48.36775" lon="2.72708">
        <ele>90.2</ele>
        <time>2023-07-20T07:48:30Z</time>
      </trkpt>
      <trkpt lat="48.36775" lon="2.72708">
        <ele>90.2</ele>
        <time>2023-07-20T07:48:31Z</time>
      </trkpt>
      <trkpt lat="48.36775" lon="2.72708">
        <ele>90.2</ele>
        <time>2023-07-20T07:48:32Z</time>
      </trkpt>
      <trkpt lat="48.36775" lon="2.72708">
        <ele>90.2</ele>
        <time>2023-07-20T07:48:33Z</time>
      </trkpt>
      <trkpt lat="48.36775" lon="2.72708">
        <ele>90.2</ele>
        <time>2023-07-20T07:48:35Z</time>
      </trkpt>
      <trkpt lat="48.36775" lon="2.72708">
        <ele>90.2</ele>
        <time>2023-07-20T07:48:36Z</time>
      </trkpt>
      <trkpt lat="48.36775" lon="2.72708">
        <ele>90.2</ele>
        <time>2023-07-20T07:48:37Z</time>
      </trkpt>
      <trkpt lat="48.36775" lon="2.72709">
        <ele>90.2</ele>
        <time>2023-07-20T07:48:38Z</time>
      </trkpt>
      <trkpt lat="48.36775" lon="2.72709">
        <ele>90.2</ele>
        <time>2023-07-20T07:48:39Z</time>
      </trkpt>
      <trkpt lat="48.36775" lon="2.72709">
        <ele>90.2</ele>
        <time>2023-07-20T07:48:40Z</time>
      </trkpt>
      <trkpt lat="48.36775" lon="2.72708">
        <ele>90.2</ele>
        <time>2023-07-20T07:48:41Z</time>
      </trkpt>
      <trkpt lat="48.36775" lon="2.72708">
        <ele>90.2</ele>
        <time>2023-07-20T07:48:42Z</time>
      </trkpt>
      <trkpt lat="48.36775" lon="2.72708">
        <ele>90.2</ele>
        <time>2023-07-20T07:48:43Z</time>
      </trkpt>
      <trkpt lat="48.36774" lon="2.72706">
        <ele>90.2</ele>
        <time>2023-07-20T07:48:44Z</time>
      </trkpt>
      <trkpt lat="48.36774" lon="2.72707">
        <ele>90.2</ele>
        <time>2023-07-20T07:48:45Z</time>
      </trkpt>
      <trkpt lat="48.36774" lon="2.72707">
        <ele>90.2</ele>
        <time>2023-07-20T07:48:46Z</time>
      </trkpt>
      <trkpt lat="48.36774" lon="2.72707">
        <ele>90.2</ele>
        <time>2023-07-20T07:48:47Z</time>
      </trkpt>
      <trkpt lat="48.36774" lon="2.72707">
        <ele>90.2</ele>
        <time>2023-07-20T07:48:48Z</time>
      </trkpt>
      <trkpt lat="48.36774" lon="2.72708">
        <ele>90.2</ele>
        <time>2023-07-20T07:48:49Z</time>
      </trkpt>
      <trkpt lat="48.36774" lon="2.72708">
        <ele>90.2</ele>
        <time>2023-07-20T07:48:50Z</time>
      </trkpt>
      <trkpt lat="48.36774" lon="2.72708">
        <ele>90.2</ele>
        <time>2023-07-20T07:48:51Z</time>
      </trkpt>
      <trkpt lat="48.36774" lon="2.72707">
        <ele>90.2</ele>
        <time>2023-07-20T07:48:52Z</time>
      </trkpt>
      <trkpt lat="48.36774" lon="2.72707">
        <ele>90.2</ele>
        <time>2023-07-20T07:48:53Z</time>
      </trkpt>
      <trkpt lat="48.36774" lon="2.72707">
        <ele>90.2</ele>
        <time>2023-07-20T07:48:54Z</time>
      </trkpt>
      <trkpt lat="48.36774" lon="2.72707">
        <ele>90.2</ele>
        <time>2023-07-20T07:48:55Z</time>
      </trkpt>
      <trkpt lat="48.36774" lon="2.72707">
        <ele>90.2</ele>
        <time>2023-07-20T07:48:56Z</time>
      </trkpt>
      <trkpt lat="48.36774" lon="2.72706">
        <ele>90.2</ele>
        <time>2023-07-20T07:48:57Z</time>
      </trkpt>
      <trkpt lat="48.36774" lon="2.72707">
        <ele>90.2</ele>
        <time>2023-07-20T07:48:58Z</time>
      </trkpt>
      <trkpt lat="48.36774" lon="2.72707">
        <ele>90.2</ele>
        <time>2023-07-20T07:48:59Z</time>
      </trkpt>
      <trkpt lat="48.36773" lon="2.72708">
        <ele>90.2</ele>
        <time>2023-07-20T07:49:00Z</time>
      </trkpt>
      <trkpt lat="48.36774" lon="2.72709">
        <ele>90.2</ele>
        <time>2023-07-20T07:49:01Z</time>
      </trkpt>
      <trkpt lat="48.36774" lon="2.72711">
        <ele>90.2</ele>
        <time>2023-07-20T07:49:02Z</time>
      </trkpt>
      <trkpt lat="48.36774" lon="2.72712">
        <ele>90.2</ele>
        <time>2023-07-20T07:49:03Z</time>
      </trkpt>
      <trkpt lat="48.36773" lon="2.72713">
        <ele>90.2</ele>
        <time>2023-07-20T07:49:04Z</time>
      </trkpt>
      <trkpt lat="48.36773" lon="2.72712">
        <ele>90.2</ele>
        <time>2023-07-20T07:49:05Z</time>
      </trkpt>
      <trkpt lat="48.36773" lon="2.72711">
        <ele>90.1</ele>
        <time>2023-07-20T07:49:06Z</time>
      </trkpt>
      <trkpt lat="48.36773" lon="2.72709">
        <ele>90.1</ele>
        <time>2023-07-20T07:49:07Z</time>
      </trkpt>
      <trkpt lat="48.36773" lon="2.72708">
        <ele>90.1</ele>
        <time>2023-07-20T07:49:08Z</time>
      </trkpt>
      <trkpt lat="48.36772" lon="2.72708">
        <ele>90.1</ele>
        <time>2023-07-20T07:49:09Z</time>
      </trkpt>
      <trkpt lat="48.36772" lon="2.72707">
        <ele>90.1</ele>
        <time>2023-07-20T07:49:10Z</time>
      </trkpt>
      <trkpt lat="48.36772" lon="2.72707">
        <ele>90.1</ele>
        <time>2023-07-20T07:49:11Z</time>
      </trkpt>
      <trkpt lat="48.36772" lon="2.72707">
        <ele>90.1</ele>
        <time>2023-07-20T07:49:12Z</time>
      </trkpt>
      <trkpt lat="48.36772" lon="2.72707">
        <ele>90.1</ele>
        <time>2023-07-20T07:49:13Z</time>
      </trkpt>
      <trkpt lat="48.36772" lon="2.72707">
        <ele>90.1</ele>
        <time>2023-07-20T07:49:14Z</time>
      </trkpt>
      <trkpt lat="48.36771" lon="2.72707">
        <ele>90.1</ele>
        <time>2023-07-20T07:49:15Z</time>
      </trkpt>
      <trkpt lat="48.36771" lon="2.72707">
        <ele>90.1</ele>
        <time>2023-07-20T07:49:16Z</time>
      </trkpt>
      <trkpt lat="48.36771" lon="2.72707">
        <ele>90.1</ele>
        <time>2023-07-20T07:49:17Z</time>
      </trkpt>
      <trkpt lat="48.36771" lon="2.72707">
        <ele>90.1</ele>
        <time>2023-07-20T07:49:18Z</time>
      </trkpt>
      <trkpt lat="48.36771" lon="2.72707">
        <ele>90.1</ele>
        <time>2023-07-20T07:49:19Z</time>
      </trkpt>
      <trkpt lat="48.3677" lon="2.72708">
        <ele>90.1</ele>
        <time>2023-07-20T07:49:20Z</time>
      </trkpt>
      <trkpt lat="48.36769" lon="2.72708">
        <ele>90.1</ele>
        <time>2023-07-20T07:49:21Z</time>
      </trkpt>
      <trkpt lat="48.36769" lon="2.72709">
        <ele>90.1</ele>
        <time>2023-07-20T07:49:22Z</time>
      </trkpt>
      <trkpt lat="48.36768" lon="2.72708">
        <ele>90.1</ele>
        <time>2023-07-20T07:49:23Z</time>
      </trkpt>
      <trkpt lat="48.36767" lon="2.72708">
        <ele>90.1</ele>
        <time>2023-07-20T07:49:24Z</time>
      </trkpt>
      <trkpt lat="48.36766" lon="2.72708">
        <ele>90.1</ele>
        <time>2023-07-20T07:49:25Z</time>
      </trkpt>
      <trkpt lat="48.36764" lon="2.72707">
        <ele>90.1</ele>
        <time>2023-07-20T07:49:26Z</time>
      </trkpt>
      <trkpt lat="48.36763" lon="2.72706">
        <ele>90.1</ele>
        <time>2023-07-20T07:49:27Z</time>
      </trkpt>
      <trkpt lat="48.36761" lon="2.72705">
        <ele>90.1</ele>
        <time>2023-07-20T07:49:28Z</time>
      </trkpt>
      <trkpt lat="48.3676" lon="2.72706">
        <ele>90.1</ele>
        <time>2023-07-20T07:49:29Z</time>
      </trkpt>
      <trkpt lat="48.36758" lon="2.72705">
        <ele>90.1</ele>
        <time>2023-07-20T07:49:30Z</time>
      </trkpt>
      <trkpt lat="48.36757" lon="2.72705">
        <ele>90.1</ele>
        <time>2023-07-20T07:49:31Z</time>
      </trkpt>
      <trkpt lat="48.36756" lon="2.72704">
        <ele>90.1</ele>
        <time>2023-07-20T07:49:32Z</time>
      </trkpt>
      <trkpt lat="48.36755" lon="2.72704">
        <ele>90.1</ele>
        <time>2023-07-20T07:49:33Z</time>
      </trkpt>
      <trkpt lat="48.36754" lon="2.72704">
        <ele>90.1</ele>
        <time>2023-07-20T07:49:34Z</time>
      </trkpt>
      <trkpt lat="48.36752" lon="2.72703">
        <ele>90.1</ele>
        <time>2023-07-20T07:49:35Z</time>
      </trkpt>
      <trkpt lat="48.3675" lon="2.72703">
        <ele>90.1</ele>
        <time>2023-07-20T07:49:36Z</time>
      </trkpt>
      <trkpt lat="48.36749" lon="2.72702">
        <ele>90.1</ele>
        <time>2023-07-20T07:49:37Z</time>
      </trkpt>
      <trkpt lat="48.36748" lon="2.72702">
        <ele>90.1</ele>
        <time>2023-07-20T07:49:38Z</time>
      </trkpt>
      <trkpt lat="48.36746" lon="2.72701">
        <ele>90.1</ele>
        <time>2023-07-20T07:49:39Z</time>
      </trkpt>
      <trkpt lat="48.36745" lon="2.72701">
        <ele>90.1</ele>
        <time>2023-07-20T07:49:40Z</time>
      </trkpt>
      <trkpt lat="48.36744" lon="2.72701">
        <ele>90.1</ele>
        <time>2023-07-20T07:49:41Z</time>
      </trkpt>
      <trkpt lat="48.36742" lon="2.727">
        <ele>90.1</ele>
        <time>2023-07-20T07:49:42Z</time>
      </trkpt>
      <trkpt lat="48.36741" lon="2.727">
        <ele>90.1</ele>
        <time>2023-07-20T07:49:43Z</time>
      </trkpt>
      <trkpt lat="48.36741" lon="2.727">
        <ele>90.1</ele>
        <time>2023-07-20T07:49:44Z</time>
      </trkpt>
      <trkpt lat="48.36739" lon="2.727">
        <ele>90.1</ele>
        <time>2023-07-20T07:49:45Z</time>
      </trkpt>
      <trkpt lat="48.36739" lon="2.727">
        <ele>90.1</ele>
        <time>2023-07-20T07:49:46Z</time>
      </trkpt>
      <trkpt lat="48.36738" lon="2.727">
        <ele>90.1</ele>
        <time>2023-07-20T07:49:47Z</time>
      </trkpt>
      <trkpt lat="48.36738" lon="2.72699">
        <ele>90.1</ele>
        <time>2023-07-20T07:49:48Z</time>
      </trkpt>
      <trkpt lat="48.36737" lon="2.72699">
        <ele>90.1</ele>
        <time>2023-07-20T07:49:49Z</time>
      </trkpt>
      <trkpt lat="48.36735" lon="2.72699">
        <ele>90.1</ele>
        <time>2023-07-20T07:49:50Z</time>
      </trkpt>
      <trkpt lat="48.36735" lon="2.72699">
        <ele>90.1</ele>
        <time>2023-07-20T07:49:51Z</time>
      </trkpt>
      <trkpt lat="48.36734" lon="2.72699">
        <ele>90.1</ele>
        <time>2023-07-20T07:49:52Z</time>
      </trkpt>
      <trkpt lat="48.36732" lon="2.72699">
        <ele>90.1</ele>
        <time>2023-07-20T07:49:53Z</time>
      </trkpt>
      <trkpt lat="48.36731" lon="2.72699">
        <ele>90.1</ele>
        <time>2023-07-20T07:49:54Z</time>
      </trkpt>
      <trkpt lat="48.3673" lon="2.72699">
        <ele>90.1</ele>
        <time>2023-07-20T07:49:55Z</time>
      </trkpt>
      <trkpt lat="48.36728" lon="2.72699">
        <ele>90.1</ele>
        <time>2023-07-20T07:49:56Z</time>
      </trkpt>
      <trkpt lat="48.36725" lon="2.72699">
        <ele>90</ele>
        <time>2023-07-20T07:49:57Z</time>
      </trkpt>
      <trkpt lat="48.36724" lon="2.72699">
        <ele>90</ele>
        <time>2023-07-20T07:49:58Z</time>
      </trkpt>
      <trkpt lat="48.36723" lon="2.72699">
        <ele>90</ele>
        <time>2023-07-20T07:49:59Z</time>
      </trkpt>
      <trkpt lat="48.36722" lon="2.72699">
        <ele>90</ele>
        <time>2023-07-20T07:50:00Z</time>
      </trkpt>
      <trkpt lat="48.36721" lon="2.72699">
        <ele>90</ele>
        <time>2023-07-20T07:50:01Z</time>
      </trkpt>
      <trkpt lat="48.3672" lon="2.72699">
        <ele>90</ele>
        <time>2023-07-20T07:50:02Z</time>
      </trkpt>
      <trkpt lat="48.36718" lon="2.72699">
        <ele>90</ele>
        <time>2023-07-20T07:50:03Z</time>
      </trkpt>
      <trkpt lat="48.36717" lon="2.72698">
        <ele>90</ele>
        <time>2023-07-20T07:50:04Z</time>
      </trkpt>
      <trkpt lat="48.36715" lon="2.72697">
        <ele>90</ele>
        <time>2023-07-20T07:50:05Z</time>
      </trkpt>
      <trkpt lat="48.36713" lon="2.72697">
        <ele>90</ele>
        <time>2023-07-20T07:50:06Z</time>
      </trkpt>
      <trkpt lat="48.36713" lon="2.72697">
        <ele>90</ele>
        <time>2023-07-20T07:50:07Z</time>
      </trkpt>
      <trkpt lat="48.36712" lon="2.72697">
        <ele>90</ele>
        <time>2023-07-20T07:50:08Z</time>
      </trkpt>
      <trkpt lat="48.3671" lon="2.72697">
        <ele>90</ele>
        <time>2023-07-20T07:50:09Z</time>
      </trkpt>
      <trkpt lat="48.3671" lon="2.72696">
        <ele>90</ele>
        <time>2023-07-20T07:50:10Z</time>
      </trkpt>
      <trkpt lat="48.36709" lon="2.72695">
        <ele>90</ele>
        <time>2023-07-20T07:50:11Z</time>
      </trkpt>
      <trkpt lat="48.36707" lon="2.72694">
        <ele>90</ele>
        <time>2023-07-20T07:50:12Z</time>
      </trkpt>
      <trkpt lat="48.36707" lon="2.72693">
        <ele>90</ele>
        <time>2023-07-20T07:50:13Z</time>
      </trkpt>
      <trkpt lat="48.36706" lon="2.72693">
        <ele>90</ele>
        <time>2023-07-20T07:50:14Z</time>
      </trkpt>
      <trkpt lat="48.36705" lon="2.72692">
        <ele>90</ele>
        <time>2023-07-20T07:50:15Z</time>
      </trkpt>
      <trkpt lat="48.36703" lon="2.72692">
        <ele>90.1</ele>
        <time>2023-07-20T07:50:16Z</time>
      </trkpt>
      <trkpt lat="48.36702" lon="2.72692">
        <ele>90.1</ele>
        <time>2023-07-20T07:50:17Z</time>
      </trkpt>
      <trkpt lat="48.36702" lon="2.72692">
        <ele>90.1</ele>
        <time>2023-07-20T07:50:18Z</time>
      </trkpt>
      <trkpt lat="48.36702" lon="2.72692">
        <ele>90.1</ele>
        <time>2023-07-20T07:50:19Z</time>
      </trkpt>
      <trkpt lat="48.36702" lon="2.72692">
        <ele>90.1</ele>
        <time>2023-07-20T07:50:20Z</time>
      </trkpt>
      <trkpt lat="48.36701" lon="2.72692">
        <ele>90.1</ele>
        <time>2023-07-20T07:50:21Z</time>
      </trkpt>
      <trkpt lat="48.36699" lon="2.72692">
        <ele>90.1</ele>
        <time>2023-07-20T07:50:22Z</time>
      </trkpt>
      <trkpt lat="48.36698" lon="2.72693">
        <ele>90.1</ele>
        <time>2023-07-20T07:50:23Z</time>
      </trkpt>
      <trkpt lat="48.36697" lon="2.72692">
        <ele>90.1</ele>
        <time>2023-07-20T07:50:24Z</time>
      </trkpt>
      <trkpt lat="48.36697" lon="2.72693">
        <ele>90.1</ele>
        <time>2023-07-20T07:50:25Z</time>
      </trkpt>
      <trkpt lat="48.36696" lon="2.72692">
        <ele>90.1</ele>
        <time>2023-07-20T07:50:26Z</time>
      </trkpt>
      <trkpt lat="48.36695" lon="2.72692">
        <ele>90.1</ele>
        <time>2023-07-20T07:50:27Z</time>
      </trkpt>
      <trkpt lat="48.36694" lon="2.72692">
        <ele>90.1</ele>
        <time>2023-07-20T07:50:28Z</time>
      </trkpt>
      <trkpt lat="48.36693" lon="2.72692">
        <ele>90.1</ele>
        <time>2023-07-20T07:50:29Z</time>
      </trkpt>
      <trkpt lat="48.36692" lon="2.72692">
        <ele>90.1</ele>
        <time>2023-07-20T07:50:30Z</time>
      </trkpt>
      <trkpt lat="48.36692" lon="2.72691">
        <ele>90.1</ele>
        <time>2023-07-20T07:50:31Z</time>
      </trkpt>
      <trkpt lat="48.36692" lon="2.72692">
        <ele>90.1</ele>
        <time>2023-07-20T07:50:32Z</time>
      </trkpt>
      <trkpt lat="48.36691" lon="2.72693">
        <ele>90.1</ele>
        <time>2023-07-20T07:50:33Z</time>
      </trkpt>
      <trkpt lat="48.36692" lon="2.72692">
        <ele>90.1</ele>
        <time>2023-07-20T07:50:34Z</time>
      </trkpt>
      <trkpt lat="48.36692" lon="2.72692">
        <ele>90.1</ele>
        <time>2023-07-20T07:50:35Z</time>
      </trkpt>
      <trkpt lat="48.3669" lon="2.72692">
        <ele>90.1</ele>
        <time>2023-07-20T07:50:36Z</time>
      </trkpt>
      <trkpt lat="48.3669" lon="2.72692">
        <ele>90.1</ele>
        <time>2023-07-20T07:50:37Z</time>
      </trkpt>
      <trkpt lat="48.36689" lon="2.72692">
        <ele>90.1</ele>
        <time>2023-07-20T07:50:38Z</time>
      </trkpt>
      <trkpt lat="48.36688" lon="2.72692">
        <ele>90.1</ele>
        <time>2023-07-20T07:50:39Z</time>
      </trkpt>
      <trkpt lat="48.36687" lon="2.72693">
        <ele>90.1</ele>
        <time>2023-07-20T07:50:40Z</time>
      </trkpt>
      <trkpt lat="48.36685" lon="2.72691">
        <ele>90</ele>
        <time>2023-07-20T07:50:41Z</time>
      </trkpt>
      <trkpt lat="48.36684" lon="2.72691">
        <ele>90</ele>
        <time>2023-07-20T07:50:42Z</time>
      </trkpt>
      <trkpt lat="48.36683" lon="2.72691">
        <ele>90</ele>
        <time>2023-07-20T07:50:43Z</time>
      </trkpt>
      <trkpt lat="48.36682" lon="2.72692">
        <ele>90</ele>
        <time>2023-07-20T07:50:44Z</time>
      </trkpt>
      <trkpt lat="48.36681" lon="2.72692">
        <ele>90</ele>
        <time>2023-07-20T07:50:45Z</time>
      </trkpt>
      <trkpt lat="48.3668" lon="2.72692">
        <ele>90</ele>
        <time>2023-07-20T07:50:46Z</time>
      </trkpt>
      <trkpt lat="48.36679" lon="2.72692">
        <ele>90</ele>
        <time>2023-07-20T07:50:47Z</time>
      </trkpt>
      <trkpt lat="48.36679" lon="2.72692">
        <ele>90</ele>
        <time>2023-07-20T07:50:48Z</time>
      </trkpt>
      <trkpt lat="48.36678" lon="2.72692">
        <ele>90</ele>
        <time>2023-07-20T07:50:49Z</time>
      </trkpt>
      <trkpt lat="48.36678" lon="2.72692">
        <ele>90</ele>
        <time>2023-07-20T07:50:50Z</time>
      </trkpt>
      <trkpt lat="48.36677" lon="2.72692">
        <ele>90</ele>
        <time>2023-07-20T07:50:51Z</time>
      </trkpt>
      <trkpt lat="48.36677" lon="2.72692">
        <ele>90</ele>
        <time>2023-07-20T07:50:52Z</time>
      </trkpt>
      <trkpt lat="48.36676" lon="2.72693">
        <ele>90</ele>
        <time>2023-07-20T07:50:53Z</time>
      </trkpt>
      <trkpt lat="48.36675" lon="2.72693">
        <ele>90</ele>
        <time>2023-07-20T07:50:54Z</time>
      </trkpt>
      <trkpt lat="48.36675" lon="2.72694">
        <ele>90</ele>
        <time>2023-07-20T07:50:55Z</time>
      </trkpt>
      <trkpt lat="48.36674" lon="2.72694">
        <ele>90</ele>
        <time>2023-07-20T07:50:56Z</time>
      </trkpt>
      <trkpt lat="48.36673" lon="2.72694">
        <ele>90</ele>
        <time>2023-07-20T07:50:57Z</time>
      </trkpt>
      <trkpt lat="48.36672" lon="2.72695">
        <ele>90</ele>
        <time>2023-07-20T07:50:58Z</time>
      </trkpt>
      <trkpt lat="48.36671" lon="2.72695">
        <ele>90</ele>
        <time>2023-07-20T07:50:59Z</time>
      </trkpt>
      <trkpt lat="48.36669" lon="2.72695">
        <ele>90</ele>
        <time>2023-07-20T07:51:00Z</time>
      </trkpt>
      <trkpt lat="48.36667" lon="2.72694">
        <ele>90</ele>
        <time>2023-07-20T07:51:01Z</time>
      </trkpt>
      <trkpt lat="48.36666" lon="2.72695">
        <ele>90</ele>
        <time>2023-07-20T07:51:02Z</time>
      </trkpt>
      <trkpt lat="48.36665" lon="2.72694">
        <ele>90</ele>
        <time>2023-07-20T07:51:03Z</time>
      </trkpt>
      <trkpt lat="48.36663" lon="2.72693">
        <ele>90</ele>
        <time>2023-07-20T07:51:04Z</time>
      </trkpt>
      <trkpt lat="48.36662" lon="2.72692">
        <ele>90</ele>
        <time>2023-07-20T07:51:05Z</time>
      </trkpt>
      <trkpt lat="48.36661" lon="2.72692">
        <ele>90</ele>
        <time>2023-07-20T07:51:06Z</time>
      </trkpt>
      <trkpt lat="48.3666" lon="2.72692">
        <ele>90</ele>
        <time>2023-07-20T07:51:07Z</time>
      </trkpt>
      <trkpt lat="48.36659" lon="2.72691">
        <ele>90</ele>
        <time>2023-07-20T07:51:08Z</time>
      </trkpt>
      <trkpt lat="48.36658" lon="2.72691">
        <ele>90</ele>
        <time>2023-07-20T07:51:09Z</time>
      </trkpt>
      <trkpt lat="48.36657" lon="2.7269">
        <ele>90</ele>
        <time>2023-07-20T07:51:10Z</time>
      </trkpt>
      <trkpt lat="48.36656" lon="2.7269">
        <ele>90</ele>
        <time>2023-07-20T07:51:11Z</time>
      </trkpt>
      <trkpt lat="48.36655" lon="2.7269">
        <ele>90</ele>
        <time>2023-07-20T07:51:12Z</time>
      </trkpt>
      <trkpt lat="48.36654" lon="2.7269">
        <ele>90</ele>
        <time>2023-07-20T07:51:13Z</time>
      </trkpt>
      <trkpt lat="48.36652" lon="2.72691">
        <ele>90</ele>
        <time>2023-07-20T07:51:14Z</time>
      </trkpt>
      <trkpt lat="48.36651" lon="2.7269">
        <ele>90</ele>
        <time>2023-07-20T07:51:15Z</time>
      </trkpt>
      <trkpt lat="48.36648" lon="2.72691">
        <ele>90</ele>
        <time>2023-07-20T07:51:16Z</time>
      </trkpt>
      <trkpt lat="48.36647" lon="2.72691">
        <ele>90</ele>
        <time>2023-07-20T07:51:17Z</time>
      </trkpt>
      <trkpt lat="48.36645" lon="2.72691">
        <ele>90</ele>
        <time>2023-07-20T07:51:18Z</time>
      </trkpt>
      <trkpt lat="48.36645" lon="2.72691">
        <ele>90</ele>
        <time>2023-07-20T07:51:19Z</time>
      </trkpt>
      <trkpt lat="48.36644" lon="2.7269">
        <ele>90</ele>
        <time>2023-07-20T07:51:20Z</time>
      </trkpt>
      <trkpt lat="48.36643" lon="2.72688">
        <ele>90</ele>
        <time>2023-07-20T07:51:21Z</time>
      </trkpt>
      <trkpt lat="48.36641" lon="2.72689">
        <ele>90</ele>
        <time>2023-07-20T07:51:22Z</time>
      </trkpt>
      <trkpt lat="48.3664" lon="2.72689">
        <ele>90</ele>
        <time>2023-07-20T07:51:23Z</time>
      </trkpt>
      <trkpt lat="48.36639" lon="2.72686">
        <ele>90</ele>
        <time>2023-07-20T07:51:24Z</time>
      </trkpt>
      <trkpt lat="48.36639" lon="2.72686">
        <ele>90</ele>
        <time>2023-07-20T07:51:25Z</time>
      </trkpt>
      <trkpt lat="48.36637" lon="2.72685">
        <ele>90</ele>
        <time>2023-07-20T07:51:26Z</time>
      </trkpt>
      <trkpt lat="48.36635" lon="2.72685">
        <ele>89.9</ele>
        <time>2023-07-20T07:51:27Z</time>
      </trkpt>
      <trkpt lat="48.36635" lon="2.72684">
        <ele>89.9</ele>
        <time>2023-07-20T07:51:28Z</time>
      </trkpt>
      <trkpt lat="48.36634" lon="2.72683">
        <ele>89.9</ele>
        <time>2023-07-20T07:51:29Z</time>
      </trkpt>
      <trkpt lat="48.36631" lon="2.72685">
        <ele>89.9</ele>
        <time>2023-07-20T07:51:30Z</time>
      </trkpt>
      <trkpt lat="48.3663" lon="2.72685">
        <ele>89.9</ele>
        <time>2023-07-20T07:51:31Z</time>
      </trkpt>
      <trkpt lat="48.36628" lon="2.72687">
        <ele>89.9</ele>
        <time>2023-07-20T07:51:32Z</time>
      </trkpt>
      <trkpt lat="48.36628" lon="2.72687">
        <ele>89.9</ele>
        <time>2023-07-20T07:51:33Z</time>
      </trkpt>
      <trkpt lat="48.36627" lon="2.72687">
        <ele>89.9</ele>
        <time>2023-07-20T07:51:34Z</time>
      </trkpt>
      <trkpt lat="48.36625" lon="2.72688">
        <ele>89.9</ele>
        <time>2023-07-20T07:51:35Z</time>
      </trkpt>
      <trkpt lat="48.36623" lon="2.72688">
        <ele>89.9</ele>
        <time>2023-07-20T07:51:36Z</time>
      </trkpt>
      <trkpt lat="48.36623" lon="2.72689">
        <ele>89.9</ele>
        <time>2023-07-20T07:51:37Z</time>
      </trkpt>
      <trkpt lat="48.36622" lon="2.72689">
        <ele>89.9</ele>
        <time>2023-07-20T07:51:38Z</time>
      </trkpt>
      <trkpt lat="48.36621" lon="2.72689">
        <ele>89.9</ele>
        <time>2023-07-20T07:51:39Z</time>
      </trkpt>
      <trkpt lat="48.3662" lon="2.72689">
        <ele>89.9</ele>
        <time>2023-07-20T07:51:40Z</time>
      </trkpt>
      <trkpt lat="48.36619" lon="2.72688">
        <ele>89.9</ele>
        <time>2023-07-20T07:51:41Z</time>
      </trkpt>
      <trkpt lat="48.36618" lon="2.72688">
        <ele>89.9</ele>
        <time>2023-07-20T07:51:42Z</time>
      </trkpt>
      <trkpt lat="48.36617" lon="2.72688">
        <ele>89.9</ele>
        <time>2023-07-20T07:51:43Z</time>
      </trkpt>
      <trkpt lat="48.36615" lon="2.72688">
        <ele>89.9</ele>
        <time>2023-07-20T07:51:44Z</time>
      </trkpt>
      <trkpt lat="48.36614" lon="2.72688">
        <ele>89.9</ele>
        <time>2023-07-20T07:51:45Z</time>
      </trkpt>
      <trkpt lat="48.36614" lon="2.72688">
        <ele>89.9</ele>
        <time>2023-07-20T07:51:46Z</time>
      </trkpt>
      <trkpt lat="48.36613" lon="2.72688">
        <ele>89.9</ele>
        <time>2023-07-20T07:51:47Z</time>
      </trkpt>
      <trkpt lat="48.36611" lon="2.72687">
        <ele>89.9</ele>
        <time>2023-07-20T07:51:48Z</time>
      </trkpt>
      <trkpt lat="48.3661" lon="2.72687">
        <ele>89.9</ele>
        <time>2023-07-20T07:51:49Z</time>
      </trkpt>
      <trkpt lat="48.36609" lon="2.72686">
        <ele>89.9</ele>
        <time>2023-07-20T07:51:50Z</time>
      </trkpt>
      <trkpt lat="48.36607" lon="2.72686">
        <ele>89.9</ele>
        <time>2023-07-20T07:51:51Z</time>
      </trkpt>
      <trkpt lat="48.36606" lon="2.72686">
        <ele>89.9</ele>
        <time>2023-07-20T07:51:52Z</time>
      </trkpt>
      <trkpt lat="48.36605" lon="2.72686">
        <ele>89.9</ele>
        <time>2023-07-20T07:51:53Z</time>
      </trkpt>
      <trkpt lat="48.36604" lon="2.72685">
        <ele>89.9</ele>
        <time>2023-07-20T07:51:54Z</time>
      </trkpt>
      <trkpt lat="48.36603" lon="2.72685">
        <ele>89.9</ele>
        <time>2023-07-20T07:51:55Z</time>
      </trkpt>
      <trkpt lat="48.36602" lon="2.72684">
        <ele>89.9</ele>
        <time>2023-07-20T07:51:56Z</time>
      </trkpt>
      <trkpt lat="48.36602" lon="2.72682">
        <ele>89.9</ele>
        <time>2023-07-20T07:51:57Z</time>
      </trkpt>
      <trkpt lat="48.36601" lon="2.72682">
        <ele>89.9</ele>
        <time>2023-07-20T07:51:58Z</time>
      </trkpt>
      <trkpt lat="48.366" lon="2.72682">
        <ele>89.9</ele>
        <time>2023-07-20T07:51:59Z</time>
      </trkpt>
      <trkpt lat="48.36599" lon="2.72682">
        <ele>89.9</ele>
        <time>2023-07-20T07:52:00Z</time>
      </trkpt>
      <trkpt lat="48.36598" lon="2.72682">
        <ele>89.9</ele>
        <time>2023-07-20T07:52:01Z</time>
      </trkpt>
      <trkpt lat="48.36598" lon="2.72681">
        <ele>89.9</ele>
        <time>2023-07-20T07:52:02Z</time>
      </trkpt>
      <trkpt lat="48.36597" lon="2.72681">
        <ele>89.8</ele>
        <time>2023-07-20T07:52:03Z</time>
      </trkpt>
      <trkpt lat="48.36596" lon="2.72681">
        <ele>89.8</ele>
        <time>2023-07-20T07:52:04Z</time>
      </trkpt>
      <trkpt lat="48.36595" lon="2.72681">
        <ele>89.8</ele>
        <time>2023-07-20T07:52:05Z</time>
      </trkpt>
      <trkpt lat="48.36594" lon="2.72681">
        <ele>89.8</ele>
        <time>2023-07-20T07:52:06Z</time>
      </trkpt>
      <trkpt lat="48.36593" lon="2.72681">
        <ele>89.8</ele>
        <time>2023-07-20T07:52:07Z</time>
      </trkpt>
      <trkpt lat="48.36592" lon="2.72682">
        <ele>89.8</ele>
        <time>2023-07-20T07:52:08Z</time>
      </trkpt>
      <trkpt lat="48.36591" lon="2.72681">
        <ele>89.8</ele>
        <time>2023-07-20T07:52:09Z</time>
      </trkpt>
      <trkpt lat="48.36591" lon="2.72681">
        <ele>89.8</ele>
        <time>2023-07-20T07:52:10Z</time>
      </trkpt>
      <trkpt lat="48.3659" lon="2.7268">
        <ele>89.8</ele>
        <time>2023-07-20T07:52:11Z</time>
      </trkpt>
      <trkpt lat="48.36588" lon="2.72681">
        <ele>89.8</ele>
        <time>2023-07-20T07:52:12Z</time>
      </trkpt>
      <trkpt lat="48.36586" lon="2.72682">
        <ele>89.8</ele>
        <time>2023-07-20T07:52:13Z</time>
      </trkpt>
      <trkpt lat="48.36585" lon="2.72684">
        <ele>89.8</ele>
        <time>2023-07-20T07:52:14Z</time>
      </trkpt>
      <trkpt lat="48.36583" lon="2.72686">
        <ele>89.8</ele>
        <time>2023-07-20T07:52:15Z</time>
      </trkpt>
      <trkpt lat="48.36581" lon="2.72686">
        <ele>89.8</ele>
        <time>2023-07-20T07:52:16Z</time>
      </trkpt>
      <trkpt lat="48.3658" lon="2.72687">
        <ele>89.8</ele>
        <time>2023-07-20T07:52:17Z</time>
      </trkpt>
      <trkpt lat="48.36579" lon="2.72686">
        <ele>89.8</ele>
        <time>2023-07-20T07:52:18Z</time>
      </trkpt>
      <trkpt lat="48.36579" lon="2.72686">
        <ele>89.8</ele>
        <time>2023-07-20T07:52:19Z</time>
      </trkpt>
      <trkpt lat="48.36577" lon="2.72685">
        <ele>89.8</ele>
        <time>2023-07-20T07:52:20Z</time>
      </trkpt>
      <trkpt lat="48.36577" lon="2.72685">
        <ele>89.8</ele>
        <time>2023-07-20T07:52:21Z</time>
      </trkpt>
      <trkpt lat="48.36575" lon="2.72685">
        <ele>89.8</ele>
        <time>2023-07-20T07:52:22Z</time>
      </trkpt>
      <trkpt lat="48.36574" lon="2.72684">
        <ele>89.8</ele>
        <time>2023-07-20T07:52:23Z</time>
      </trkpt>
      <trkpt lat="48.36573" lon="2.72684">
        <ele>89.8</ele>
        <time>2023-07-20T07:52:24Z</time>
      </trkpt>
      <trkpt lat="48.36572" lon="2.72682">
        <ele>89.8</ele>
        <time>2023-07-20T07:52:25Z</time>
      </trkpt>
      <trkpt lat="48.36571" lon="2.72683">
        <ele>89.8</ele>
        <time>2023-07-20T07:52:26Z</time>
      </trkpt>
      <trkpt lat="48.3657" lon="2.72682">
        <ele>89.8</ele>
        <time>2023-07-20T07:52:27Z</time>
      </trkpt>
      <trkpt lat="48.36569" lon="2.72682">
        <ele>89.8</ele>
        <time>2023-07-20T07:52:28Z</time>
      </trkpt>
      <trkpt lat="48.36568" lon="2.72682">
        <ele>89.8</ele>
        <time>2023-07-20T07:52:29Z</time>
      </trkpt>
      <trkpt lat="48.36567" lon="2.72682">
        <ele>89.8</ele>
        <time>2023-07-20T07:52:30Z</time>
      </trkpt>
      <trkpt lat="48.36566" lon="2.72682">
        <ele>89.8</ele>
        <time>2023-07-20T07:52:31Z</time>
      </trkpt>
      <trkpt lat="48.36565" lon="2.72682">
        <ele>89.8</ele>
        <time>2023-07-20T07:52:32Z</time>
      </trkpt>
      <trkpt lat="48.36564" lon="2.72682">
        <ele>89.8</ele>
        <time>2023-07-20T07:52:33Z</time>
      </trkpt>
      <trkpt lat="48.36564" lon="2.72682">
        <ele>89.8</ele>
        <time>2023-07-20T07:52:34Z</time>
      </trkpt>
      <trkpt lat="48.36562" lon="2.72682">
        <ele>89.8</ele>
        <time>2023-07-20T07:52:35Z</time>
      </trkpt>
      <trkpt lat="48.36561" lon="2.72682">
        <ele>89.8</ele>
        <time>2023-07-20T07:52:36Z</time>
      </trkpt>
      <trkpt lat="48.3656" lon="2.72682">
        <ele>89.8</ele>
        <time>2023-07-20T07:52:37Z</time>
      </trkpt>
      <trkpt lat="48.36558" lon="2.72682">
        <ele>89.8</ele>
        <time>2023-07-20T07:52:38Z</time>
      </trkpt>
      <trkpt lat="48.36556" lon="2.72682">
        <ele>89.8</ele>
        <time>2023-07-20T07:52:39Z</time>
      </trkpt>
      <trkpt lat="48.36555" lon="2.72681">
        <ele>89.8</ele>
        <time>2023-07-20T07:52:40Z</time>
      </trkpt>
      <trkpt lat="48.36554" lon="2.72681">
        <ele>89.8</ele>
        <time>2023-07-20T07:52:41Z</time>
      </trkpt>
      <trkpt lat="48.36553" lon="2.72681">
        <ele>89.8</ele>
        <time>2023-07-20T07:52:42Z</time>
      </trkpt>
      <trkpt lat="48.36552" lon="2.72681">
        <ele>89.8</ele>
        <time>2023-07-20T07:52:43Z</time>
      </trkpt>
      <trkpt lat="48.36551" lon="2.72681">
        <ele>89.8</ele>
        <time>2023-07-20T07:52:44Z</time>
      </trkpt>
      <trkpt lat="48.3655" lon="2.72681">
        <ele>89.8</ele>
        <time>2023-07-20T07:52:45Z</time>
      </trkpt>
      <trkpt lat="48.36549" lon="2.7268">
        <ele>89.8</ele>
        <time>2023-07-20T07:52:46Z</time>
      </trkpt>
      <trkpt lat="48.36548" lon="2.7268">
        <ele>89.8</ele>
        <time>2023-07-20T07:52:47Z</time>
      </trkpt>
      <trkpt lat="48.36547" lon="2.7268">
        <ele>89.8</ele>
        <time>2023-07-20T07:52:48Z</time>
      </trkpt>
      <trkpt lat="48.36546" lon="2.7268">
        <ele>89.8</ele>
        <time>2023-07-20T07:52:49Z</time>
      </trkpt>
      <trkpt lat="48.36545" lon="2.7268">
        <ele>89.8</ele>
        <time>2023-07-20T07:52:50Z</time>
      </trkpt>
      <trkpt lat="48.36544" lon="2.7268">
        <ele>89.7</ele>
        <time>2023-07-20T07:52:51Z</time>
      </trkpt>
      <trkpt lat="48.36544" lon="2.72681">
        <ele>89.7</ele>
        <time>2023-07-20T07:52:52Z</time>
      </trkpt>
      <trkpt lat="48.36543" lon="2.72681">
        <ele>89.7</ele>
        <time>2023-07-20T07:52:53Z</time>
      </trkpt>
      <trkpt lat="48.36542" lon="2.7268">
        <ele>89.7</ele>
        <time>2023-07-20T07:52:54Z</time>
      </trkpt>
      <trkpt lat="48.36542" lon="2.7268">
        <ele>89.7</ele>
        <time>2023-07-20T07:52:55Z</time>
      </trkpt>
      <trkpt lat="48.36541" lon="2.7268">
        <ele>89.7</ele>
        <time>2023-07-20T07:52:56Z</time>
      </trkpt>
      <trkpt lat="48.3654" lon="2.72679">
        <ele>89.7</ele>
        <time>2023-07-20T07:52:57Z</time>
      </trkpt>
      <trkpt lat="48.36539" lon="2.72679">
        <ele>89.7</ele>
        <time>2023-07-20T07:52:58Z</time>
      </trkpt>
      <trkpt lat="48.36538" lon="2.72678">
        <ele>89.7</ele>
        <time>2023-07-20T07:52:59Z</time>
      </trkpt>
      <trkpt lat="48.36538" lon="2.72677">
        <ele>89.7</ele>
        <time>2023-07-20T07:53:00Z</time>
      </trkpt>
      <trkpt lat="48.36537" lon="2.72677">
        <ele>89.7</ele>
        <time>2023-07-20T07:53:01Z</time>
      </trkpt>
      <trkpt lat="48.36536" lon="2.72676">
        <ele>89.7</ele>
        <time>2023-07-20T07:53:02Z</time>
      </trkpt>
      <trkpt lat="48.36535" lon="2.72676">
        <ele>89.7</ele>
        <time>2023-07-20T07:53:03Z</time>
      </trkpt>
      <trkpt lat="48.36534" lon="2.72675">
        <ele>89.7</ele>
        <time>2023-07-20T07:53:04Z</time>
      </trkpt>
      <trkpt lat="48.36534" lon="2.72674">
        <ele>89.7</ele>
        <time>2023-07-20T07:53:05Z</time>
      </trkpt>
      <trkpt lat="48.36533" lon="2.72674">
        <ele>89.7</ele>
        <time>2023-07-20T07:53:06Z</time>
      </trkpt>
      <trkpt lat="48.36533" lon="2.72672">
        <ele>89.7</ele>
        <time>2023-07-20T07:53:07Z</time>
      </trkpt>
      <trkpt lat="48.36532" lon="2.72671">
        <ele>89.7</ele>
        <time>2023-07-20T07:53:08Z</time>
      </trkpt>
      <trkpt lat="48.36532" lon="2.72671">
        <ele>89.7</ele>
        <time>2023-07-20T07:53:09Z</time>
      </trkpt>
      <trkpt lat="48.36531" lon="2.72671">
        <ele>89.7</ele>
        <time>2023-07-20T07:53:10Z</time>
      </trkpt>
      <trkpt lat="48.3653" lon="2.72671">
        <ele>89.7</ele>
        <time>2023-07-20T07:53:11Z</time>
      </trkpt>
      <trkpt lat="48.3653" lon="2.7267">
        <ele>89.7</ele>
        <time>2023-07-20T07:53:12Z</time>
      </trkpt>
      <trkpt lat="48.3653" lon="2.72669">
        <ele>89.7</ele>
        <time>2023-07-20T07:53:13Z</time>
      </trkpt>
      <trkpt lat="48.36529" lon="2.72668">
        <ele>89.7</ele>
        <time>2023-07-20T07:53:14Z</time>
      </trkpt>
      <trkpt lat="48.36528" lon="2.72666">
        <ele>89.7</ele>
        <time>2023-07-20T07:53:15Z</time>
      </trkpt>
      <trkpt lat="48.36527" lon="2.72665">
        <ele>89.7</ele>
        <time>2023-07-20T07:53:16Z</time>
      </trkpt>
      <trkpt lat="48.36527" lon="2.72664">
        <ele>89.7</ele>
        <time>2023-07-20T07:53:17Z</time>
      </trkpt>
      <trkpt lat="48.36526" lon="2.72664">
        <ele>89.7</ele>
        <time>2023-07-20T07:53:18Z</time>
      </trkpt>
      <trkpt lat="48.36526" lon="2.72663">
        <ele>89.7</ele>
        <time>2023-07-20T07:53:19Z</time>
      </trkpt>
      <trkpt lat="48.36525" lon="2.72662">
        <ele>89.7</ele>
        <time>2023-07-20T07:53:20Z</time>
      </trkpt>
      <trkpt lat="48.36524" lon="2.72661">
        <ele>89.7</ele>
        <time>2023-07-20T07:53:21Z</time>
      </trkpt>
      <trkpt lat="48.36523" lon="2.72661">
        <ele>89.7</ele>
        <time>2023-07-20T07:53:22Z</time>
      </trkpt>
      <trkpt lat="48.36522" lon="2.7266">
        <ele>89.7</ele>
        <time>2023-07-20T07:53:23Z</time>
      </trkpt>
      <trkpt lat="48.36522" lon="2.7266">
        <ele>89.7</ele>
        <time>2023-07-20T07:53:24Z</time>
      </trkpt>
      <trkpt lat="48.36521" lon="2.72659">
        <ele>89.7</ele>
        <time>2023-07-20T07:53:25Z</time>
      </trkpt>
      <trkpt lat="48.3652" lon="2.72658">
        <ele>89.7</ele>
        <time>2023-07-20T07:53:26Z</time>
      </trkpt>
      <trkpt lat="48.3652" lon="2.72657">
        <ele>89.7</ele>
        <time>2023-07-20T07:53:27Z</time>
      </trkpt>
      <trkpt lat="48.36518" lon="2.72656">
        <ele>89.7</ele>
        <time>2023-07-20T07:53:28Z</time>
      </trkpt>
      <trkpt lat="48.36517" lon="2.72656">
        <ele>89.7</ele>
        <time>2023-07-20T07:53:29Z</time>
      </trkpt>
      <trkpt lat="48.36516" lon="2.72655">
        <ele>89.7</ele>
        <time>2023-07-20T07:53:30Z</time>
      </trkpt>
      <trkpt lat="48.36516" lon="2.72654">
        <ele>89.7</ele>
        <time>2023-07-20T07:53:31Z</time>
      </trkpt>
      <trkpt lat="48.36516" lon="2.72653">
        <ele>89.7</ele>
        <time>2023-07-20T07:53:32Z</time>
      </trkpt>
      <trkpt lat="48.36515" lon="2.72653">
        <ele>89.7</ele>
        <time>2023-07-20T07:53:33Z</time>
      </trkpt>
      <trkpt lat="48.36514" lon="2.72652">
        <ele>89.7</ele>
        <time>2023-07-20T07:53:34Z</time>
      </trkpt>
      <trkpt lat="48.36513" lon="2.7265">
        <ele>89.7</ele>
        <time>2023-07-20T07:53:35Z</time>
      </trkpt>
      <trkpt lat="48.36512" lon="2.7265">
        <ele>89.6</ele>
        <time>2023-07-20T07:53:36Z</time>
      </trkpt>
      <trkpt lat="48.36511" lon="2.72649">
        <ele>89.6</ele>
        <time>2023-07-20T07:53:37Z</time>
      </trkpt>
      <trkpt lat="48.3651" lon="2.72648">
        <ele>89.6</ele>
        <time>2023-07-20T07:53:38Z</time>
      </trkpt>
      <trkpt lat="48.3651" lon="2.72647">
        <ele>89.6</ele>
        <time>2023-07-20T07:53:39Z</time>
      </trkpt>
      <trkpt lat="48.36509" lon="2.72646">
        <ele>89.6</ele>
        <time>2023-07-20T07:53:40Z</time>
      </trkpt>
      <trkpt lat="48.36508" lon="2.72644">
        <ele>89.6</ele>
        <time>2023-07-20T07:53:41Z</time>
      </trkpt>
      <trkpt lat="48.36507" lon="2.72643">
        <ele>89.6</ele>
        <time>2023-07-20T07:53:42Z</time>
      </trkpt>
      <trkpt lat="48.36507" lon="2.72641">
        <ele>89.6</ele>
        <time>2023-07-20T07:53:43Z</time>
      </trkpt>
      <trkpt lat="48.36506" lon="2.7264">
        <ele>89.6</ele>
        <time>2023-07-20T07:53:44Z</time>
      </trkpt>
      <trkpt lat="48.36505" lon="2.7264">
        <ele>89.6</ele>
        <time>2023-07-20T07:53:45Z</time>
      </trkpt>
      <trkpt lat="48.36505" lon="2.72638">
        <ele>89.6</ele>
        <time>2023-07-20T07:53:46Z</time>
      </trkpt>
      <trkpt lat="48.36504" lon="2.72638">
        <ele>89.6</ele>
        <time>2023-07-20T07:53:47Z</time>
      </trkpt>
      <trkpt lat="48.36503" lon="2.72637">
        <ele>89.6</ele>
        <time>2023-07-20T07:53:48Z</time>
      </trkpt>
      <trkpt lat="48.36502" lon="2.72635">
        <ele>89.6</ele>
        <time>2023-07-20T07:53:49Z</time>
      </trkpt>
      <trkpt lat="48.36502" lon="2.72634">
        <ele>89.6</ele>
        <time>2023-07-20T07:53:50Z</time>
      </trkpt>
      <trkpt lat="48.36501" lon="2.72633">
        <ele>89.6</ele>
        <time>2023-07-20T07:53:51Z</time>
      </trkpt>
      <trkpt lat="48.365" lon="2.72632">
        <ele>89.6</ele>
        <time>2023-07-20T07:53:52Z</time>
      </trkpt>
      <trkpt lat="48.365" lon="2.72631">
        <ele>89.6</ele>
        <time>2023-07-20T07:53:53Z</time>
      </trkpt>
      <trkpt lat="48.36499" lon="2.72631">
        <ele>89.6</ele>
        <time>2023-07-20T07:53:54Z</time>
      </trkpt>
      <trkpt lat="48.36498" lon="2.7263">
        <ele>89.6</ele>
        <time>2023-07-20T07:53:55Z</time>
      </trkpt>
      <trkpt lat="48.36497" lon="2.72629">
        <ele>89.6</ele>
        <time>2023-07-20T07:53:56Z</time>
      </trkpt>
      <trkpt lat="48.36497" lon="2.72628">
        <ele>89.6</ele>
        <time>2023-07-20T07:53:57Z</time>
      </trkpt>
      <trkpt lat="48.36496" lon="2.72627">
        <ele>89.6</ele>
        <time>2023-07-20T07:53:58Z</time>
      </trkpt>
      <trkpt lat="48.36496" lon="2.72626">
        <ele>89.5</ele>
        <time>2023-07-20T07:53:59Z</time>
      </trkpt>
      <trkpt lat="48.36495" lon="2.72624">
        <ele>89.5</ele>
        <time>2023-07-20T07:54:00Z</time>
      </trkpt>
      <trkpt lat="48.36494" lon="2.72623">
        <ele>89.5</ele>
        <time>2023-07-20T07:54:01Z</time>
      </trkpt>
      <trkpt lat="48.36494" lon="2.72621">
        <ele>89.5</ele>
        <time>2023-07-20T07:54:02Z</time>
      </trkpt>
      <trkpt lat="48.36493" lon="2.7262">
        <ele>89.5</ele>
        <time>2023-07-20T07:54:03Z</time>
      </trkpt>
      <trkpt lat="48.36491" lon="2.72619">
        <ele>89.5</ele>
        <time>2023-07-20T07:54:04Z</time>
      </trkpt>
      <trkpt lat="48.3649" lon="2.72618">
        <ele>89.5</ele>
        <time>2023-07-20T07:54:05Z</time>
      </trkpt>
      <trkpt lat="48.36489" lon="2.72617">
        <ele>89.5</ele>
        <time>2023-07-20T07:54:06Z</time>
      </trkpt>
      <trkpt lat="48.36488" lon="2.72616">
        <ele>89.5</ele>
        <time>2023-07-20T07:54:07Z</time>
      </trkpt>
      <trkpt lat="48.36488" lon="2.72615">
        <ele>89.5</ele>
        <time>2023-07-20T07:54:08Z</time>
      </trkpt>
      <trkpt lat="48.36487" lon="2.72614">
        <ele>89.5</ele>
        <time>2023-07-20T07:54:09Z</time>
      </trkpt>
      <trkpt lat="48.36486" lon="2.72612">
        <ele>89.5</ele>
        <time>2023-07-20T07:54:10Z</time>
      </trkpt>
      <trkpt lat="48.36486" lon="2.72612">
        <ele>89.4</ele>
        <time>2023-07-20T07:54:11Z</time>
      </trkpt>
      <trkpt lat="48.36485" lon="2.7261">
        <ele>89.4</ele>
        <time>2023-07-20T07:54:12Z</time>
      </trkpt>
      <trkpt lat="48.36484" lon="2.72609">
        <ele>89.4</ele>
        <time>2023-07-20T07:54:13Z</time>
      </trkpt>
      <trkpt lat="48.36484" lon="2.72606">
        <ele>89.4</ele>
        <time>2023-07-20T07:54:14Z</time>
      </trkpt>
      <trkpt lat="48.36484" lon="2.72605">
        <ele>89.4</ele>
        <time>2023-07-20T07:54:15Z</time>
      </trkpt>
      <trkpt lat="48.36483" lon="2.72604">
        <ele>89.4</ele>
        <time>2023-07-20T07:54:16Z</time>
      </trkpt>
      <trkpt lat="48.36483" lon="2.72603">
        <ele>89.4</ele>
        <time>2023-07-20T07:54:17Z</time>
      </trkpt>
      <trkpt lat="48.36482" lon="2.726">
        <ele>89.4</ele>
        <time>2023-07-20T07:54:18Z</time>
      </trkpt>
      <trkpt lat="48.36481" lon="2.72599">
        <ele>89.4</ele>
        <time>2023-07-20T07:54:19Z</time>
      </trkpt>
      <trkpt lat="48.36481" lon="2.72598">
        <ele>89.4</ele>
        <time>2023-07-20T07:54:20Z</time>
      </trkpt>
      <trkpt lat="48.3648" lon="2.72597">
        <ele>89.4</ele>
        <time>2023-07-20T07:54:21Z</time>
      </trkpt>
      <trkpt lat="48.36478" lon="2.72596">
        <ele>89.4</ele>
        <time>2023-07-20T07:54:22Z</time>
      </trkpt>
      <trkpt lat="48.36478" lon="2.72595">
        <ele>89.4</ele>
        <time>2023-07-20T07:54:23Z</time>
      </trkpt>
      <trkpt lat="48.36477" lon="2.72594">
        <ele>89.4</ele>
        <time>2023-07-20T07:54:24Z</time>
      </trkpt>
      <trkpt lat="48.36477" lon="2.72593">
        <ele>89.4</ele>
        <time>2023-07-20T07:54:25Z</time>
      </trkpt>
      <trkpt lat="48.36477" lon="2.72592">
        <ele>89.4</ele>
        <time>2023-07-20T07:54:26Z</time>
      </trkpt>
      <trkpt lat="48.36477" lon="2.72592">
        <ele>89.4</ele>
        <time>2023-07-20T07:54:27Z</time>
      </trkpt>
      <trkpt lat="48.36477" lon="2.72591">
        <ele>89.4</ele>
        <time>2023-07-20T07:54:28Z</time>
      </trkpt>
      <trkpt lat="48.36477" lon="2.72591">
        <ele>89.4</ele>
        <time>2023-07-20T07:54:29Z</time>
      </trkpt>
      <trkpt lat="48.36476" lon="2.7259">
        <ele>89.4</ele>
        <time>2023-07-20T07:54:30Z</time>
      </trkpt>
      <trkpt lat="48.36476" lon="2.72588">
        <ele>89.4</ele>
        <time>2023-07-20T07:54:31Z</time>
      </trkpt>
      <trkpt lat="48.36475" lon="2.72586">
        <ele>89.3</ele>
        <time>2023-07-20T07:54:32Z</time>
      </trkpt>
      <trkpt lat="48.36474" lon="2.72585">
        <ele>89.3</ele>
        <time>2023-07-20T07:54:33Z</time>
      </trkpt>
      <trkpt lat="48.36473" lon="2.72583">
        <ele>89.3</ele>
        <time>2023-07-20T07:54:34Z</time>
      </trkpt>
      <trkpt lat="48.36473" lon="2.72582">
        <ele>89.3</ele>
        <time>2023-07-20T07:54:35Z</time>
      </trkpt>
      <trkpt lat="48.36472" lon="2.72582">
        <ele>89.3</ele>
        <time>2023-07-20T07:54:36Z</time>
      </trkpt>
      <trkpt lat="48.36471" lon="2.72582">
        <ele>89.3</ele>
        <time>2023-07-20T07:54:37Z</time>
      </trkpt>
      <trkpt lat="48.3647" lon="2.72581">
        <ele>89.3</ele>
        <time>2023-07-20T07:54:38Z</time>
      </trkpt>
      <trkpt lat="48.3647" lon="2.72581">
        <ele>89.3</ele>
        <time>2023-07-20T07:54:39Z</time>
      </trkpt>
      <trkpt lat="48.3647" lon="2.7258">
        <ele>89.3</ele>
        <time>2023-07-20T07:54:40Z</time>
      </trkpt>
      <trkpt lat="48.36469" lon="2.72578">
        <ele>89.3</ele>
        <time>2023-07-20T07:54:41Z</time>
      </trkpt>
      <trkpt lat="48.36468" lon="2.72577">
        <ele>89.3</ele>
        <time>2023-07-20T07:54:42Z</time>
      </trkpt>
      <trkpt lat="48.36467" lon="2.72576">
        <ele>89.3</ele>
        <time>2023-07-20T07:54:43Z</time>
      </trkpt>
      <trkpt lat="48.36465" lon="2.72575">
        <ele>89.3</ele>
        <time>2023-07-20T07:54:44Z</time>
      </trkpt>
      <trkpt lat="48.36464" lon="2.72575">
        <ele>89.3</ele>
        <time>2023-07-20T07:54:45Z</time>
      </trkpt>
      <trkpt lat="48.36463" lon="2.72575">
        <ele>89.3</ele>
        <time>2023-07-20T07:54:46Z</time>
      </trkpt>
      <trkpt lat="48.36461" lon="2.72574">
        <ele>89.3</ele>
        <time>2023-07-20T07:54:47Z</time>
      </trkpt>
      <trkpt lat="48.36461" lon="2.72573">
        <ele>89.4</ele>
        <time>2023-07-20T07:54:48Z</time>
      </trkpt>
      <trkpt lat="48.3646" lon="2.72572">
        <ele>89.4</ele>
        <time>2023-07-20T07:54:49Z</time>
      </trkpt>
      <trkpt lat="48.3646" lon="2.72571">
        <ele>89.4</ele>
        <time>2023-07-20T07:54:50Z</time>
      </trkpt>
      <trkpt lat="48.36458" lon="2.72571">
        <ele>89.4</ele>
        <time>2023-07-20T07:54:51Z</time>
      </trkpt>
      <trkpt lat="48.36457" lon="2.7257">
        <ele>89.4</ele>
        <time>2023-07-20T07:54:52Z</time>
      </trkpt>
      <trkpt lat="48.36457" lon="2.72569">
        <ele>89.4</ele>
        <time>2023-07-20T07:54:53Z</time>
      </trkpt>
      <trkpt lat="48.36456" lon="2.72569">
        <ele>89.4</ele>
        <time>2023-07-20T07:54:54Z</time>
      </trkpt>
      <trkpt lat="48.36455" lon="2.72568">
        <ele>89.4</ele>
        <time>2023-07-20T07:54:55Z</time>
      </trkpt>
      <trkpt lat="48.36455" lon="2.72568">
        <ele>89.4</ele>
        <time>2023-07-20T07:54:56Z</time>
      </trkpt>
      <trkpt lat="48.36454" lon="2.72566">
        <ele>89.4</ele>
        <time>2023-07-20T07:54:57Z</time>
      </trkpt>
      <trkpt lat="48.36454" lon="2.72566">
        <ele>89.4</ele>
        <time>2023-07-20T07:54:58Z</time>
      </trkpt>
      <trkpt lat="48.36453" lon="2.72566">
        <ele>89.4</ele>
        <time>2023-07-20T07:54:59Z</time>
      </trkpt>
      <trkpt lat="48.36453" lon="2.72565">
        <ele>89.4</ele>
        <time>2023-07-20T07:55:00Z</time>
      </trkpt>
      <trkpt lat="48.36452" lon="2.72564">
        <ele>89.4</ele>
        <time>2023-07-20T07:55:01Z</time>
      </trkpt>
      <trkpt lat="48.36452" lon="2.72563">
        <ele>89.4</ele>
        <time>2023-07-20T07:55:02Z</time>
      </trkpt>
      <trkpt lat="48.36452" lon="2.72561">
        <ele>89.4</ele>
        <time>2023-07-20T07:55:03Z</time>
      </trkpt>
      <trkpt lat="48.36452" lon="2.7256">
        <ele>89.4</ele>
        <time>2023-07-20T07:55:04Z</time>
      </trkpt>
      <trkpt lat="48.36451" lon="2.7256">
        <ele>89.4</ele>
        <time>2023-07-20T07:55:05Z</time>
      </trkpt>
      <trkpt lat="48.36451" lon="2.72559">
        <ele>89.4</ele>
        <time>2023-07-20T07:55:06Z</time>
      </trkpt>
      <trkpt lat="48.36451" lon="2.72559">
        <ele>89.4</ele>
        <time>2023-07-20T07:55:07Z</time>
      </trkpt>
      <trkpt lat="48.36451" lon="2.72558">
        <ele>89.5</ele>
        <time>2023-07-20T07:55:08Z</time>
      </trkpt>
      <trkpt lat="48.3645" lon="2.72556">
        <ele>89.5</ele>
        <time>2023-07-20T07:55:09Z</time>
      </trkpt>
      <trkpt lat="48.3645" lon="2.72555">
        <ele>89.5</ele>
        <time>2023-07-20T07:55:10Z</time>
      </trkpt>
      <trkpt lat="48.3645" lon="2.72554">
        <ele>89.5</ele>
        <time>2023-07-20T07:55:11Z</time>
      </trkpt>
      <trkpt lat="48.36449" lon="2.72553">
        <ele>89.5</ele>
        <time>2023-07-20T07:55:12Z</time>
      </trkpt>
      <trkpt lat="48.36448" lon="2.7255">
        <ele>89.5</ele>
        <time>2023-07-20T07:55:13Z</time>
      </trkpt>
      <trkpt lat="48.36448" lon="2.72548">
        <ele>89.5</ele>
        <time>2023-07-20T07:55:14Z</time>
      </trkpt>
      <trkpt lat="48.36447" lon="2.72547">
        <ele>89.7</ele>
        <time>2023-07-20T07:55:15Z</time>
      </trkpt>
      <trkpt lat="48.36447" lon="2.72546">
        <ele>89.7</ele>
        <time>2023-07-20T07:55:16Z</time>
      </trkpt>
      <trkpt lat="48.36446" lon="2.72545">
        <ele>89.7</ele>
        <time>2023-07-20T07:55:17Z</time>
      </trkpt>
      <trkpt lat="48.36446" lon="2.72544">
        <ele>89.7</ele>
        <time>2023-07-20T07:55:18Z</time>
      </trkpt>
      <trkpt lat="48.36446" lon="2.72542">
        <ele>89.7</ele>
        <time>2023-07-20T07:55:19Z</time>
      </trkpt>
      <trkpt lat="48.36446" lon="2.7254">
        <ele>89.7</ele>
        <time>2023-07-20T07:55:20Z</time>
      </trkpt>
      <trkpt lat="48.36447" lon="2.7254">
        <ele>89.7</ele>
        <time>2023-07-20T07:55:21Z</time>
      </trkpt>
      <trkpt lat="48.36447" lon="2.72538">
        <ele>89.7</ele>
        <time>2023-07-20T07:55:22Z</time>
      </trkpt>
      <trkpt lat="48.36447" lon="2.72536">
        <ele>89.7</ele>
        <time>2023-07-20T07:55:23Z</time>
      </trkpt>
      <trkpt lat="48.36447" lon="2.72535">
        <ele>89.7</ele>
        <time>2023-07-20T07:55:24Z</time>
      </trkpt>
      <trkpt lat="48.36447" lon="2.72534">
        <ele>89.7</ele>
        <time>2023-07-20T07:55:25Z</time>
      </trkpt>
      <trkpt lat="48.36447" lon="2.72533">
        <ele>89.7</ele>
        <time>2023-07-20T07:55:26Z</time>
      </trkpt>
      <trkpt lat="48.36448" lon="2.72533">
        <ele>89.7</ele>
        <time>2023-07-20T07:55:27Z</time>
      </trkpt>
      <trkpt lat="48.36448" lon="2.72533">
        <ele>89.7</ele>
        <time>2023-07-20T07:55:28Z</time>
      </trkpt>
      <trkpt lat="48.36449" lon="2.72531">
        <ele>89.7</ele>
        <time>2023-07-20T07:55:29Z</time>
      </trkpt>
      <trkpt lat="48.36448" lon="2.7253">
        <ele>89.7</ele>
        <time>2023-07-20T07:55:30Z</time>
      </trkpt>
      <trkpt lat="48.36448" lon="2.72528">
        <ele>89.7</ele>
        <time>2023-07-20T07:55:31Z</time>
      </trkpt>
      <trkpt lat="48.36449" lon="2.72527">
        <ele>89.7</ele>
        <time>2023-07-20T07:55:32Z</time>
      </trkpt>
      <trkpt lat="48.36448" lon="2.72527">
        <ele>89.7</ele>
        <time>2023-07-20T07:55:33Z</time>
      </trkpt>
      <trkpt lat="48.36448" lon="2.72526">
        <ele>89.7</ele>
        <time>2023-07-20T07:55:34Z</time>
      </trkpt>
      <trkpt lat="48.36449" lon="2.72525">
        <ele>89.6</ele>
        <time>2023-07-20T07:55:35Z</time>
      </trkpt>
      <trkpt lat="48.36449" lon="2.72524">
        <ele>89.6</ele>
        <time>2023-07-20T07:55:36Z</time>
      </trkpt>
      <trkpt lat="48.3645" lon="2.72523">
        <ele>89.6</ele>
        <time>2023-07-20T07:55:37Z</time>
      </trkpt>
      <trkpt lat="48.3645" lon="2.72521">
        <ele>89.6</ele>
        <time>2023-07-20T07:55:38Z</time>
      </trkpt>
      <trkpt lat="48.3645" lon="2.72519">
        <ele>89.6</ele>
        <time>2023-07-20T07:55:39Z</time>
      </trkpt>
      <trkpt lat="48.36451" lon="2.72517">
        <ele>89.6</ele>
        <time>2023-07-20T07:55:40Z</time>
      </trkpt>
      <trkpt lat="48.3645" lon="2.72515">
        <ele>89.6</ele>
        <time>2023-07-20T07:55:41Z</time>
      </trkpt>
      <trkpt lat="48.36451" lon="2.72514">
        <ele>89.6</ele>
        <time>2023-07-20T07:55:42Z</time>
      </trkpt>
      <trkpt lat="48.36451" lon="2.72513">
        <ele>89.6</ele>
        <time>2023-07-20T07:55:43Z</time>
      </trkpt>
      <trkpt lat="48.36452" lon="2.72512">
        <ele>89.6</ele>
        <time>2023-07-20T07:55:44Z</time>
      </trkpt>
      <trkpt lat="48.36453" lon="2.7251">
        <ele>89.6</ele>
        <time>2023-07-20T07:55:45Z</time>
      </trkpt>
      <trkpt lat="48.36453" lon="2.72509">
        <ele>89.6</ele>
        <time>2023-07-20T07:55:46Z</time>
      </trkpt>
      <trkpt lat="48.36452" lon="2.72507">
        <ele>89.6</ele>
        <time>2023-07-20T07:55:47Z</time>
      </trkpt>
      <trkpt lat="48.36452" lon="2.72506">
        <ele>89.6</ele>
        <time>2023-07-20T07:55:48Z</time>
      </trkpt>
      <trkpt lat="48.36452" lon="2.72504">
        <ele>89.6</ele>
        <time>2023-07-20T07:55:49Z</time>
      </trkpt>
      <trkpt lat="48.36452" lon="2.72501">
        <ele>89.6</ele>
        <time>2023-07-20T07:55:50Z</time>
      </trkpt>
      <trkpt lat="48.36452" lon="2.72501">
        <ele>89.6</ele>
        <time>2023-07-20T07:55:51Z</time>
      </trkpt>
      <trkpt lat="48.36452" lon="2.72499">
        <ele>89.6</ele>
        <time>2023-07-20T07:55:52Z</time>
      </trkpt>
      <trkpt lat="48.36452" lon="2.72499">
        <ele>89.6</ele>
        <time>2023-07-20T07:55:53Z</time>
      </trkpt>
      <trkpt lat="48.36453" lon="2.72497">
        <ele>89.6</ele>
        <time>2023-07-20T07:55:54Z</time>
      </trkpt>
      <trkpt lat="48.36452" lon="2.72497">
        <ele>89.6</ele>
        <time>2023-07-20T07:55:55Z</time>
      </trkpt>
      <trkpt lat="48.36453" lon="2.72496">
        <ele>89.6</ele>
        <time>2023-07-20T07:55:56Z</time>
      </trkpt>
      <trkpt lat="48.36453" lon="2.72493">
        <ele>89.6</ele>
        <time>2023-07-20T07:55:57Z</time>
      </trkpt>
      <trkpt lat="48.36453" lon="2.72491">
        <ele>89.5</ele>
        <time>2023-07-20T07:55:58Z</time>
      </trkpt>
      <trkpt lat="48.36453" lon="2.72488">
        <ele>89.5</ele>
        <time>2023-07-20T07:55:59Z</time>
      </trkpt>
      <trkpt lat="48.36453" lon="2.72488">
        <ele>89.5</ele>
        <time>2023-07-20T07:56:00Z</time>
      </trkpt>
      <trkpt lat="48.36453" lon="2.72487">
        <ele>89.5</ele>
        <time>2023-07-20T07:56:01Z</time>
      </trkpt>
      <trkpt lat="48.36453" lon="2.72486">
        <ele>89.5</ele>
        <time>2023-07-20T07:56:02Z</time>
      </trkpt>
      <trkpt lat="48.36453" lon="2.72484">
        <ele>89.5</ele>
        <time>2023-07-20T07:56:03Z</time>
      </trkpt>
      <trkpt lat="48.36453" lon="2.72481">
        <ele>89.5</ele>
        <time>2023-07-20T07:56:04Z</time>
      </trkpt>
      <trkpt lat="48.36452" lon="2.72478">
        <ele>89.4</ele>
        <time>2023-07-20T07:56:05Z</time>
      </trkpt>
      <trkpt lat="48.36452" lon="2.72476">
        <ele>89.4</ele>
        <time>2023-07-20T07:56:06Z</time>
      </trkpt>
      <trkpt lat="48.36452" lon="2.72475">
        <ele>89.4</ele>
        <time>2023-07-20T07:56:07Z</time>
      </trkpt>
      <trkpt lat="48.36452" lon="2.72474">
        <ele>89.4</ele>
        <time>2023-07-20T07:56:08Z</time>
      </trkpt>
      <trkpt lat="48.36452" lon="2.72469">
        <ele>89.3</ele>
        <time>2023-07-20T07:56:09Z</time>
      </trkpt>
      <trkpt lat="48.36452" lon="2.72467">
        <ele>89.3</ele>
        <time>2023-07-20T07:56:10Z</time>
      </trkpt>
      <trkpt lat="48.36452" lon="2.72465">
        <ele>89.3</ele>
        <time>2023-07-20T07:56:11Z</time>
      </trkpt>
      <trkpt lat="48.36453" lon="2.72464">
        <ele>89.2</ele>
        <time>2023-07-20T07:56:12Z</time>
      </trkpt>
      <trkpt lat="48.36452" lon="2.72463">
        <ele>89.2</ele>
        <time>2023-07-20T07:56:13Z</time>
      </trkpt>
      <trkpt lat="48.36452" lon="2.72461">
        <ele>89.2</ele>
        <time>2023-07-20T07:56:14Z</time>
      </trkpt>
      <trkpt lat="48.36452" lon="2.72461">
        <ele>89.2</ele>
        <time>2023-07-20T07:56:15Z</time>
      </trkpt>
      <trkpt lat="48.36453" lon="2.7246">
        <ele>89.2</ele>
        <time>2023-07-20T07:56:16Z</time>
      </trkpt>
      <trkpt lat="48.36454" lon="2.72458">
        <ele>89.2</ele>
        <time>2023-07-20T07:56:17Z</time>
      </trkpt>
      <trkpt lat="48.36454" lon="2.72457">
        <ele>89.1</ele>
        <time>2023-07-20T07:56:18Z</time>
      </trkpt>
      <trkpt lat="48.36454" lon="2.72456">
        <ele>89.1</ele>
        <time>2023-07-20T07:56:19Z</time>
      </trkpt>
      <trkpt lat="48.36455" lon="2.72455">
        <ele>89.1</ele>
        <time>2023-07-20T07:56:20Z</time>
      </trkpt>
      <trkpt lat="48.36455" lon="2.72454">
        <ele>89.1</ele>
        <time>2023-07-20T07:56:21Z</time>
      </trkpt>
      <trkpt lat="48.36455" lon="2.72453">
        <ele>89.1</ele>
        <time>2023-07-20T07:56:22Z</time>
      </trkpt>
      <trkpt lat="48.36455" lon="2.72451">
        <ele>89</ele>
        <time>2023-07-20T07:56:23Z</time>
      </trkpt>
      <trkpt lat="48.36455" lon="2.72449">
        <ele>89</ele>
        <time>2023-07-20T07:56:24Z</time>
      </trkpt>
      <trkpt lat="48.36455" lon="2.72448">
        <ele>89</ele>
        <time>2023-07-20T07:56:25Z</time>
      </trkpt>
      <trkpt lat="48.36456" lon="2.72447">
        <ele>89</ele>
        <time>2023-07-20T07:56:26Z</time>
      </trkpt>
      <trkpt lat="48.36456" lon="2.72445">
        <ele>88.9</ele>
        <time>2023-07-20T07:56:27Z</time>
      </trkpt>
      <trkpt lat="48.36457" lon="2.72445">
        <ele>88.9</ele>
        <time>2023-07-20T07:56:28Z</time>
      </trkpt>
      <trkpt lat="48.36457" lon="2.72445">
        <ele>88.9</ele>
        <time>2023-07-20T07:56:29Z</time>
      </trkpt>
      <trkpt lat="48.36457" lon="2.72444">
        <ele>88.9</ele>
        <time>2023-07-20T07:56:30Z</time>
      </trkpt>
      <trkpt lat="48.36457" lon="2.72442">
        <ele>88.8</ele>
        <time>2023-07-20T07:56:31Z</time>
      </trkpt>
      <trkpt lat="48.36457" lon="2.72441">
        <ele>88.8</ele>
        <time>2023-07-20T07:56:32Z</time>
      </trkpt>
      <trkpt lat="48.36457" lon="2.72439">
        <ele>88.8</ele>
        <time>2023-07-20T07:56:33Z</time>
      </trkpt>
      <trkpt lat="48.36457" lon="2.72436">
        <ele>88.7</ele>
        <time>2023-07-20T07:56:34Z</time>
      </trkpt>
      <trkpt lat="48.36457" lon="2.72435">
        <ele>88.7</ele>
        <time>2023-07-20T07:56:35Z</time>
      </trkpt>
      <trkpt lat="48.36457" lon="2.72432">
        <ele>88.7</ele>
        <time>2023-07-20T07:56:36Z</time>
      </trkpt>
      <trkpt lat="48.36458" lon="2.72431">
        <ele>88.6</ele>
        <time>2023-07-20T07:56:37Z</time>
      </trkpt>
      <trkpt lat="48.36458" lon="2.72429">
        <ele>88.6</ele>
        <time>2023-07-20T07:56:38Z</time>
      </trkpt>
      <trkpt lat="48.36458" lon="2.72428">
        <ele>88.6</ele>
        <time>2023-07-20T07:56:39Z</time>
      </trkpt>
      <trkpt lat="48.36458" lon="2.72425">
        <ele>88.5</ele>
        <time>2023-07-20T07:56:40Z</time>
      </trkpt>
      <trkpt lat="48.36459" lon="2.72424">
        <ele>88.5</ele>
        <time>2023-07-20T07:56:41Z</time>
      </trkpt>
      <trkpt lat="48.36459" lon="2.72422">
        <ele>88.4</ele>
        <time>2023-07-20T07:56:42Z</time>
      </trkpt>
      <trkpt lat="48.3646" lon="2.72419">
        <ele>88.4</ele>
        <time>2023-07-20T07:56:43Z</time>
      </trkpt>
      <trkpt lat="48.3646" lon="2.72418">
        <ele>88.4</ele>
        <time>2023-07-20T07:56:44Z</time>
      </trkpt>
      <trkpt lat="48.3646" lon="2.72417">
        <ele>88.3</ele>
        <time>2023-07-20T07:56:45Z</time>
      </trkpt>
      <trkpt lat="48.3646" lon="2.72415">
        <ele>88.3</ele>
        <time>2023-07-20T07:56:46Z</time>
      </trkpt>
      <trkpt lat="48.3646" lon="2.72414">
        <ele>88.3</ele>
        <time>2023-07-20T07:56:47Z</time>
      </trkpt>
      <trkpt lat="48.3646" lon="2.72414">
        <ele>88.3</ele>
        <time>2023-07-20T07:56:48Z</time>
      </trkpt>
      <trkpt lat="48.3646" lon="2.72412">
        <ele>88.2</ele>
        <time>2023-07-20T07:56:49Z</time>
      </trkpt>
      <trkpt lat="48.3646" lon="2.72411">
        <ele>88.2</ele>
        <time>2023-07-20T07:56:50Z</time>
      </trkpt>
      <trkpt lat="48.36461" lon="2.7241">
        <ele>88.2</ele>
        <time>2023-07-20T07:56:51Z</time>
      </trkpt>
      <trkpt lat="48.36461" lon="2.72409">
        <ele>88.2</ele>
        <time>2023-07-20T07:56:52Z</time>
      </trkpt>
      <trkpt lat="48.36462" lon="2.72408">
        <ele>88.1</ele>
        <time>2023-07-20T07:56:53Z</time>
      </trkpt>
      <trkpt lat="48.36462" lon="2.72406">
        <ele>88.1</ele>
        <time>2023-07-20T07:56:54Z</time>
      </trkpt>
      <trkpt lat="48.36462" lon="2.72404">
        <ele>88.1</ele>
        <time>2023-07-20T07:56:55Z</time>
      </trkpt>
      <trkpt lat="48.36462" lon="2.72403">
        <ele>88</ele>
        <time>2023-07-20T07:56:56Z</time>
      </trkpt>
      <trkpt lat="48.36462" lon="2.72401">
        <ele>88</ele>
        <time>2023-07-20T07:56:57Z</time>
      </trkpt>
      <trkpt lat="48.36462" lon="2.724">
        <ele>88</ele>
        <time>2023-07-20T07:56:58Z</time>
      </trkpt>
      <trkpt lat="48.36462" lon="2.72399">
        <ele>87.9</ele>
        <time>2023-07-20T07:56:59Z</time>
      </trkpt>
      <trkpt lat="48.36462" lon="2.72397">
        <ele>87.9</ele>
        <time>2023-07-20T07:57:00Z</time>
      </trkpt>
      <trkpt lat="48.36462" lon="2.72395">
        <ele>87.9</ele>
        <time>2023-07-20T07:57:01Z</time>
      </trkpt>
      <trkpt lat="48.36463" lon="2.72393">
        <ele>87.8</ele>
        <time>2023-07-20T07:57:02Z</time>
      </trkpt>
      <trkpt lat="48.36463" lon="2.72392">
        <ele>87.8</ele>
        <time>2023-07-20T07:57:03Z</time>
      </trkpt>
      <trkpt lat="48.36463" lon="2.72391">
        <ele>87.8</ele>
        <time>2023-07-20T07:57:04Z</time>
      </trkpt>
      <trkpt lat="48.36462" lon="2.72389">
        <ele>87.7</ele>
        <time>2023-07-20T07:57:05Z</time>
      </trkpt>
      <trkpt lat="48.36462" lon="2.72387">
        <ele>87.7</ele>
        <time>2023-07-20T07:57:06Z</time>
      </trkpt>
      <trkpt lat="48.36463" lon="2.72386">
        <ele>87.7</ele>
        <time>2023-07-20T07:57:07Z</time>
      </trkpt>
      <trkpt lat="48.36463" lon="2.72385">
        <ele>87.7</ele>
        <time>2023-07-20T07:57:08Z</time>
      </trkpt>
      <trkpt lat="48.36463" lon="2.72383">
        <ele>87.6</ele>
        <time>2023-07-20T07:57:09Z</time>
      </trkpt>
      <trkpt lat="48.36464" lon="2.72382">
        <ele>87.6</ele>
        <time>2023-07-20T07:57:10Z</time>
      </trkpt>
      <trkpt lat="48.36464" lon="2.72381">
        <ele>87.6</ele>
        <time>2023-07-20T07:57:11Z</time>
      </trkpt>
      <trkpt lat="48.36465" lon="2.72379">
        <ele>87.6</ele>
        <time>2023-07-20T07:57:12Z</time>
      </trkpt>
      <trkpt lat="48.36465" lon="2.72378">
        <ele>87.5</ele>
        <time>2023-07-20T07:57:13Z</time>
      </trkpt>
      <trkpt lat="48.36465" lon="2.72374">
        <ele>87.5</ele>
        <time>2023-07-20T07:57:14Z</time>
      </trkpt>
      <trkpt lat="48.36465" lon="2.72373">
        <ele>87.5</ele>
        <time>2023-07-20T07:57:15Z</time>
      </trkpt>
      <trkpt lat="48.36465" lon="2.72372">
        <ele>87.4</ele>
        <time>2023-07-20T07:57:16Z</time>
      </trkpt>
      <trkpt lat="48.36465" lon="2.7237">
        <ele>87.4</ele>
        <time>2023-07-20T07:57:17Z</time>
      </trkpt>
      <trkpt lat="48.36466" lon="2.72369">
        <ele>87.4</ele>
        <time>2023-07-20T07:57:18Z</time>
      </trkpt>
      <trkpt lat="48.36467" lon="2.72368">
        <ele>87.4</ele>
        <time>2023-07-20T07:57:19Z</time>
      </trkpt>
      <trkpt lat="48.36466" lon="2.72368">
        <ele>87.4</ele>
        <time>2023-07-20T07:57:20Z</time>
      </trkpt>
      <trkpt lat="48.36466" lon="2.72366">
        <ele>87.3</ele>
        <time>2023-07-20T07:57:21Z</time>
      </trkpt>
      <trkpt lat="48.36467" lon="2.72364">
        <ele>87.3</ele>
        <time>2023-07-20T07:57:22Z</time>
      </trkpt>
      <trkpt lat="48.36467" lon="2.72363">
        <ele>87.3</ele>
        <time>2023-07-20T07:57:23Z</time>
      </trkpt>
      <trkpt lat="48.36467" lon="2.72362">
        <ele>87.3</ele>
        <time>2023-07-20T07:57:24Z</time>
      </trkpt>
      <trkpt lat="48.36467" lon="2.7236">
        <ele>87.3</ele>
        <time>2023-07-20T07:57:25Z</time>
      </trkpt>
      <trkpt lat="48.36468" lon="2.72358">
        <ele>87.2</ele>
        <time>2023-07-20T07:57:26Z</time>
      </trkpt>
      <trkpt lat="48.36468" lon="2.72357">
        <ele>87.2</ele>
        <time>2023-07-20T07:57:27Z</time>
      </trkpt>
      <trkpt lat="48.36468" lon="2.72355">
        <ele>87.2</ele>
        <time>2023-07-20T07:57:28Z</time>
      </trkpt>
      <trkpt lat="48.36468" lon="2.72354">
        <ele>87.2</ele>
        <time>2023-07-20T07:57:29Z</time>
      </trkpt>
      <trkpt lat="48.36468" lon="2.72352">
        <ele>87.2</ele>
        <time>2023-07-20T07:57:30Z</time>
      </trkpt>
      <trkpt lat="48.36469" lon="2.72351">
        <ele>87.2</ele>
        <time>2023-07-20T07:57:31Z</time>
      </trkpt>
      <trkpt lat="48.36469" lon="2.72349">
        <ele>87.2</ele>
        <time>2023-07-20T07:57:32Z</time>
      </trkpt>
      <trkpt lat="48.3647" lon="2.72348">
        <ele>87.1</ele>
        <time>2023-07-20T07:57:33Z</time>
      </trkpt>
      <trkpt lat="48.36471" lon="2.72346">
        <ele>87.1</ele>
        <time>2023-07-20T07:57:34Z</time>
      </trkpt>
      <trkpt lat="48.36471" lon="2.72345">
        <ele>87.1</ele>
        <time>2023-07-20T07:57:35Z</time>
      </trkpt>
      <trkpt lat="48.36471" lon="2.72343">
        <ele>87.1</ele>
        <time>2023-07-20T07:57:36Z</time>
      </trkpt>
      <trkpt lat="48.36471" lon="2.72342">
        <ele>87.1</ele>
        <time>2023-07-20T07:57:37Z</time>
      </trkpt>
      <trkpt lat="48.36471" lon="2.72341">
        <ele>87.1</ele>
        <time>2023-07-20T07:57:38Z</time>
      </trkpt>
      <trkpt lat="48.36471" lon="2.72339">
        <ele>87.1</ele>
        <time>2023-07-20T07:57:39Z</time>
      </trkpt>
      <trkpt lat="48.36471" lon="2.72338">
        <ele>87.1</ele>
        <time>2023-07-20T07:57:40Z</time>
      </trkpt>
      <trkpt lat="48.36472" lon="2.72336">
        <ele>87.1</ele>
        <time>2023-07-20T07:57:41Z</time>
      </trkpt>
      <trkpt lat="48.36472" lon="2.72333">
        <ele>87.1</ele>
        <time>2023-07-20T07:57:42Z</time>
      </trkpt>
      <trkpt lat="48.36473" lon="2.72332">
        <ele>87.1</ele>
        <time>2023-07-20T07:57:43Z</time>
      </trkpt>
      <trkpt lat="48.36473" lon="2.72331">
        <ele>87.1</ele>
        <time>2023-07-20T07:57:44Z</time>
      </trkpt>
      <trkpt lat="48.36473" lon="2.72329">
        <ele>87.1</ele>
        <time>2023-07-20T07:57:45Z</time>
      </trkpt>
      <trkpt lat="48.36473" lon="2.72328">
        <ele>87</ele>
        <time>2023-07-20T07:57:46Z</time>
      </trkpt>
      <trkpt lat="48.36474" lon="2.72326">
        <ele>87</ele>
        <time>2023-07-20T07:57:47Z</time>
      </trkpt>
      <trkpt lat="48.36474" lon="2.72324">
        <ele>87</ele>
        <time>2023-07-20T07:57:48Z</time>
      </trkpt>
      <trkpt lat="48.36474" lon="2.72323">
        <ele>87</ele>
        <time>2023-07-20T07:57:49Z</time>
      </trkpt>
      <trkpt lat="48.36474" lon="2.72321">
        <ele>87</ele>
        <time>2023-07-20T07:57:50Z</time>
      </trkpt>
      <trkpt lat="48.36473" lon="2.7232">
        <ele>87</ele>
        <time>2023-07-20T07:57:51Z</time>
      </trkpt>
      <trkpt lat="48.36473" lon="2.72319">
        <ele>87</ele>
        <time>2023-07-20T07:57:52Z</time>
      </trkpt>
      <trkpt lat="48.36473" lon="2.72318">
        <ele>87</ele>
        <time>2023-07-20T07:57:53Z</time>
      </trkpt>
      <trkpt lat="48.36473" lon="2.72316">
        <ele>87</ele>
        <time>2023-07-20T07:57:54Z</time>
      </trkpt>
      <trkpt lat="48.36473" lon="2.72315">
        <ele>87</ele>
        <time>2023-07-20T07:57:55Z</time>
      </trkpt>
      <trkpt lat="48.36473" lon="2.72314">
        <ele>87</ele>
        <time>2023-07-20T07:57:56Z</time>
      </trkpt>
      <trkpt lat="48.36474" lon="2.72313">
        <ele>87</ele>
        <time>2023-07-20T07:57:57Z</time>
      </trkpt>
      <trkpt lat="48.36474" lon="2.72312">
        <ele>87</ele>
        <time>2023-07-20T07:57:58Z</time>
      </trkpt>
      <trkpt lat="48.36475" lon="2.72308">
        <ele>87</ele>
        <time>2023-07-20T07:57:59Z</time>
      </trkpt>
      <trkpt lat="48.36475" lon="2.72307">
        <ele>87</ele>
        <time>2023-07-20T07:58:00Z</time>
      </trkpt>
      <trkpt lat="48.36475" lon="2.72306">
        <ele>87</ele>
        <time>2023-07-20T07:58:01Z</time>
      </trkpt>
      <trkpt lat="48.36475" lon="2.72305">
        <ele>87.1</ele>
        <time>2023-07-20T07:58:02Z</time>
      </trkpt>
      <trkpt lat="48.36475" lon="2.72304">
        <ele>87.1</ele>
        <time>2023-07-20T07:58:03Z</time>
      </trkpt>
      <trkpt lat="48.36475" lon="2.72302">
        <ele>87.1</ele>
        <time>2023-07-20T07:58:04Z</time>
      </trkpt>
      <trkpt lat="48.36475" lon="2.723">
        <ele>87.1</ele>
        <time>2023-07-20T07:58:05Z</time>
      </trkpt>
      <trkpt lat="48.36476" lon="2.72299">
        <ele>87.1</ele>
        <time>2023-07-20T07:58:06Z</time>
      </trkpt>
      <trkpt lat="48.36476" lon="2.72297">
        <ele>87.1</ele>
        <time>2023-07-20T07:58:07Z</time>
      </trkpt>
      <trkpt lat="48.36476" lon="2.72295">
        <ele>87.1</ele>
        <time>2023-07-20T07:58:08Z</time>
      </trkpt>
      <trkpt lat="48.36476" lon="2.72292">
        <ele>87.1</ele>
        <time>2023-07-20T07:58:09Z</time>
      </trkpt>
      <trkpt lat="48.36477" lon="2.72292">
        <ele>87.1</ele>
        <time>2023-07-20T07:58:10Z</time>
      </trkpt>
      <trkpt lat="48.36477" lon="2.72291">
        <ele>87.1</ele>
        <time>2023-07-20T07:58:11Z</time>
      </trkpt>
      <trkpt lat="48.36477" lon="2.7229">
        <ele>87.1</ele>
        <time>2023-07-20T07:58:12Z</time>
      </trkpt>
      <trkpt lat="48.36477" lon="2.72288">
        <ele>87.1</ele>
        <time>2023-07-20T07:58:13Z</time>
      </trkpt>
      <trkpt lat="48.36477" lon="2.72287">
        <ele>87.1</ele>
        <time>2023-07-20T07:58:14Z</time>
      </trkpt>
      <trkpt lat="48.36477" lon="2.72285">
        <ele>87.1</ele>
        <time>2023-07-20T07:58:15Z</time>
      </trkpt>
      <trkpt lat="48.36477" lon="2.72282">
        <ele>87.1</ele>
        <time>2023-07-20T07:58:16Z</time>
      </trkpt>
      <trkpt lat="48.36477" lon="2.7228">
        <ele>87.1</ele>
        <time>2023-07-20T07:58:17Z</time>
      </trkpt>
      <trkpt lat="48.36477" lon="2.72279">
        <ele>87.1</ele>
        <time>2023-07-20T07:58:18Z</time>
      </trkpt>
      <trkpt lat="48.36477" lon="2.72278">
        <ele>87.2</ele>
        <time>2023-07-20T07:58:19Z</time>
      </trkpt>
      <trkpt lat="48.36477" lon="2.72276">
        <ele>87.2</ele>
        <time>2023-07-20T07:58:20Z</time>
      </trkpt>
      <trkpt lat="48.36478" lon="2.72274">
        <ele>87.2</ele>
        <time>2023-07-20T07:58:21Z</time>
      </trkpt>
      <trkpt lat="48.36477" lon="2.72273">
        <ele>87.2</ele>
        <time>2023-07-20T07:58:22Z</time>
      </trkpt>
      <trkpt lat="48.36477" lon="2.72272">
        <ele>87.2</ele>
        <time>2023-07-20T07:58:23Z</time>
      </trkpt>
      <trkpt lat="48.36477" lon="2.7227">
        <ele>87.2</ele>
        <time>2023-07-20T07:58:24Z</time>
      </trkpt>
      <trkpt lat="48.36477" lon="2.72269">
        <ele>87.2</ele>
        <time>2023-07-20T07:58:25Z</time>
      </trkpt>
      <trkpt lat="48.36477" lon="2.72267">
        <ele>87.3</ele>
        <time>2023-07-20T07:58:26Z</time>
      </trkpt>
      <trkpt lat="48.36477" lon="2.72266">
        <ele>87.3</ele>
        <time>2023-07-20T07:58:27Z</time>
      </trkpt>
      <trkpt lat="48.36478" lon="2.72265">
        <ele>87.3</ele>
        <time>2023-07-20T07:58:28Z</time>
      </trkpt>
      <trkpt lat="48.36477" lon="2.72264">
        <ele>87.3</ele>
        <time>2023-07-20T07:58:29Z</time>
      </trkpt>
      <trkpt lat="48.36477" lon="2.72263">
        <ele>87.3</ele>
        <time>2023-07-20T07:58:30Z</time>
      </trkpt>
      <trkpt lat="48.36476" lon="2.72261">
        <ele>87.3</ele>
        <time>2023-07-20T07:58:31Z</time>
      </trkpt>
      <trkpt lat="48.36476" lon="2.72258">
        <ele>87.4</ele>
        <time>2023-07-20T07:58:32Z</time>
      </trkpt>
      <trkpt lat="48.36476" lon="2.72257">
        <ele>87.4</ele>
        <time>2023-07-20T07:58:33Z</time>
      </trkpt>
      <trkpt lat="48.36476" lon="2.72255">
        <ele>87.4</ele>
        <time>2023-07-20T07:58:34Z</time>
      </trkpt>
      <trkpt lat="48.36477" lon="2.72254">
        <ele>87.4</ele>
        <time>2023-07-20T07:58:35Z</time>
      </trkpt>
      <trkpt lat="48.36477" lon="2.72253">
        <ele>87.4</ele>
        <time>2023-07-20T07:58:36Z</time>
      </trkpt>
      <trkpt lat="48.36477" lon="2.72252">
        <ele>87.4</ele>
        <time>2023-07-20T07:58:37Z</time>
      </trkpt>
      <trkpt lat="48.36478" lon="2.7225">
        <ele>87.4</ele>
        <time>2023-07-20T07:58:38Z</time>
      </trkpt>
      <trkpt lat="48.36478" lon="2.72249">
        <ele>87.4</ele>
        <time>2023-07-20T07:58:39Z</time>
      </trkpt>
      <trkpt lat="48.36478" lon="2.72247">
        <ele>87.5</ele>
        <time>2023-07-20T07:58:40Z</time>
      </trkpt>
      <trkpt lat="48.36478" lon="2.72245">
        <ele>87.5</ele>
        <time>2023-07-20T07:58:41Z</time>
      </trkpt>
      <trkpt lat="48.36478" lon="2.72243">
        <ele>87.5</ele>
        <time>2023-07-20T07:58:42Z</time>
      </trkpt>
      <trkpt lat="48.36478" lon="2.72241">
        <ele>87.5</ele>
        <time>2023-07-20T07:58:43Z</time>
      </trkpt>
      <trkpt lat="48.36478" lon="2.7224">
        <ele>87.5</ele>
        <time>2023-07-20T07:58:44Z</time>
      </trkpt>
      <trkpt lat="48.36479" lon="2.72239">
        <ele>87.5</ele>
        <time>2023-07-20T07:58:45Z</time>
      </trkpt>
      <trkpt lat="48.36478" lon="2.72237">
        <ele>87.5</ele>
        <time>2023-07-20T07:58:46Z</time>
      </trkpt>
      <trkpt lat="48.36478" lon="2.72236">
        <ele>87.5</ele>
        <time>2023-07-20T07:58:47Z</time>
      </trkpt>
      <trkpt lat="48.36478" lon="2.72235">
        <ele>87.5</ele>
        <time>2023-07-20T07:58:48Z</time>
      </trkpt>
      <trkpt lat="48.36479" lon="2.72232">
        <ele>87.6</ele>
        <time>2023-07-20T07:58:49Z</time>
      </trkpt>
      <trkpt lat="48.36479" lon="2.7223">
        <ele>87.6</ele>
        <time>2023-07-20T07:58:50Z</time>
      </trkpt>
      <trkpt lat="48.36479" lon="2.72229">
        <ele>87.6</ele>
        <time>2023-07-20T07:58:51Z</time>
      </trkpt>
      <trkpt lat="48.36479" lon="2.72227">
        <ele>87.6</ele>
        <time>2023-07-20T07:58:52Z</time>
      </trkpt>
      <trkpt lat="48.36479" lon="2.72225">
        <ele>87.6</ele>
        <time>2023-07-20T07:58:53Z</time>
      </trkpt>
      <trkpt lat="48.3648" lon="2.72224">
        <ele>87.6</ele>
        <time>2023-07-20T07:58:54Z</time>
      </trkpt>
      <trkpt lat="48.36479" lon="2.72222">
        <ele>87.6</ele>
        <time>2023-07-20T07:58:55Z</time>
      </trkpt>
      <trkpt lat="48.3648" lon="2.7222">
        <ele>87.6</ele>
        <time>2023-07-20T07:58:56Z</time>
      </trkpt>
      <trkpt lat="48.3648" lon="2.72218">
        <ele>87.7</ele>
        <time>2023-07-20T07:58:57Z</time>
      </trkpt>
      <trkpt lat="48.3648" lon="2.72217">
        <ele>87.7</ele>
        <time>2023-07-20T07:58:58Z</time>
      </trkpt>
      <trkpt lat="48.3648" lon="2.72216">
        <ele>87.7</ele>
        <time>2023-07-20T07:58:59Z</time>
      </trkpt>
      <trkpt lat="48.3648" lon="2.72213">
        <ele>87.7</ele>
        <time>2023-07-20T07:59:00Z</time>
      </trkpt>
      <trkpt lat="48.36481" lon="2.72211">
        <ele>87.7</ele>
        <time>2023-07-20T07:59:01Z</time>
      </trkpt>
      <trkpt lat="48.36481" lon="2.72209">
        <ele>87.7</ele>
        <time>2023-07-20T07:59:02Z</time>
      </trkpt>
      <trkpt lat="48.36481" lon="2.72208">
        <ele>87.7</ele>
        <time>2023-07-20T07:59:03Z</time>
      </trkpt>
      <trkpt lat="48.36481" lon="2.72207">
        <ele>87.7</ele>
        <time>2023-07-20T07:59:04Z</time>
      </trkpt>
      <trkpt lat="48.36482" lon="2.72206">
        <ele>87.7</ele>
        <time>2023-07-20T07:59:05Z</time>
      </trkpt>
      <trkpt lat="48.36482" lon="2.72204">
        <ele>87.8</ele>
        <time>2023-07-20T07:59:06Z</time>
      </trkpt>
      <trkpt lat="48.36482" lon="2.72203">
        <ele>87.8</ele>
        <time>2023-07-20T07:59:07Z</time>
      </trkpt>
      <trkpt lat="48.36482" lon="2.72202">
        <ele>87.8</ele>
        <time>2023-07-20T07:59:08Z</time>
      </trkpt>
      <trkpt lat="48.36482" lon="2.722">
        <ele>87.8</ele>
        <time>2023-07-20T07:59:09Z</time>
      </trkpt>
      <trkpt lat="48.36482" lon="2.72197">
        <ele>87.8</ele>
        <time>2023-07-20T07:59:10Z</time>
      </trkpt>
      <trkpt lat="48.36482" lon="2.72196">
        <ele>87.8</ele>
        <time>2023-07-20T07:59:11Z</time>
      </trkpt>
      <trkpt lat="48.36482" lon="2.72194">
        <ele>87.8</ele>
        <time>2023-07-20T07:59:12Z</time>
      </trkpt>
      <trkpt lat="48.36482" lon="2.72193">
        <ele>87.8</ele>
        <time>2023-07-20T07:59:13Z</time>
      </trkpt>
      <trkpt lat="48.36483" lon="2.72192">
        <ele>87.8</ele>
        <time>2023-07-20T07:59:14Z</time>
      </trkpt>
      <trkpt lat="48.36483" lon="2.7219">
        <ele>87.8</ele>
        <time>2023-07-20T07:59:15Z</time>
      </trkpt>
      <trkpt lat="48.36484" lon="2.72187">
        <ele>87.8</ele>
        <time>2023-07-20T07:59:16Z</time>
      </trkpt>
      <trkpt lat="48.36484" lon="2.72186">
        <ele>87.8</ele>
        <time>2023-07-20T07:59:17Z</time>
      </trkpt>
      <trkpt lat="48.36484" lon="2.72184">
        <ele>87.8</ele>
        <time>2023-07-20T07:59:18Z</time>
      </trkpt>
      <trkpt lat="48.36485" lon="2.72182">
        <ele>87.8</ele>
        <time>2023-07-20T07:59:19Z</time>
      </trkpt>
      <trkpt lat="48.36485" lon="2.7218">
        <ele>87.8</ele>
        <time>2023-07-20T07:59:20Z</time>
      </trkpt>
      <trkpt lat="48.36486" lon="2.72177">
        <ele>87.8</ele>
        <time>2023-07-20T07:59:21Z</time>
      </trkpt>
      <trkpt lat="48.36486" lon="2.72176">
        <ele>87.8</ele>
        <time>2023-07-20T07:59:22Z</time>
      </trkpt>
      <trkpt lat="48.36486" lon="2.72175">
        <ele>87.8</ele>
        <time>2023-07-20T07:59:23Z</time>
      </trkpt>
      <trkpt lat="48.36486" lon="2.72174">
        <ele>87.8</ele>
        <time>2023-07-20T07:59:24Z</time>
      </trkpt>
      <trkpt lat="48.36486" lon="2.72172">
        <ele>87.8</ele>
        <time>2023-07-20T07:59:25Z</time>
      </trkpt>
      <trkpt lat="48.36486" lon="2.7217">
        <ele>87.9</ele>
        <time>2023-07-20T07:59:26Z</time>
      </trkpt>
      <trkpt lat="48.36487" lon="2.72169">
        <ele>87.9</ele>
        <time>2023-07-20T07:59:27Z</time>
      </trkpt>
      <trkpt lat="48.36487" lon="2.72168">
        <ele>87.9</ele>
        <time>2023-07-20T07:59:28Z</time>
      </trkpt>
      <trkpt lat="48.36487" lon="2.72168">
        <ele>87.9</ele>
        <time>2023-07-20T07:59:29Z</time>
      </trkpt>
      <trkpt lat="48.36487" lon="2.72167">
        <ele>87.9</ele>
        <time>2023-07-20T07:59:30Z</time>
      </trkpt>
      <trkpt lat="48.36487" lon="2.72166">
        <ele>87.9</ele>
        <time>2023-07-20T07:59:31Z</time>
      </trkpt>
      <trkpt lat="48.36487" lon="2.72166">
        <ele>87.9</ele>
        <time>2023-07-20T07:59:32Z</time>
      </trkpt>
      <trkpt lat="48.36488" lon="2.72165">
        <ele>87.9</ele>
        <time>2023-07-20T07:59:33Z</time>
      </trkpt>
      <trkpt lat="48.36488" lon="2.72162">
        <ele>87.9</ele>
        <time>2023-07-20T07:59:34Z</time>
      </trkpt>
      <trkpt lat="48.36488" lon="2.72161">
        <ele>87.9</ele>
        <time>2023-07-20T07:59:35Z</time>
      </trkpt>
      <trkpt lat="48.36488" lon="2.72159">
        <ele>87.9</ele>
        <time>2023-07-20T07:59:36Z</time>
      </trkpt>
      <trkpt lat="48.36488" lon="2.72158">
        <ele>87.9</ele>
        <time>2023-07-20T07:59:37Z</time>
      </trkpt>
      <trkpt lat="48.36488" lon="2.72156">
        <ele>87.9</ele>
        <time>2023-07-20T07:59:38Z</time>
      </trkpt>
      <trkpt lat="48.36488" lon="2.72155">
        <ele>87.9</ele>
        <time>2023-07-20T07:59:39Z</time>
      </trkpt>
      <trkpt lat="48.36488" lon="2.72154">
        <ele>87.9</ele>
        <time>2023-07-20T07:59:40Z</time>
      </trkpt>
      <trkpt lat="48.36489" lon="2.72153">
        <ele>87.9</ele>
        <time>2023-07-20T07:59:41Z</time>
      </trkpt>
      <trkpt lat="48.36489" lon="2.7215">
        <ele>87.9</ele>
        <time>2023-07-20T07:59:42Z</time>
      </trkpt>
      <trkpt lat="48.36489" lon="2.72148">
        <ele>87.9</ele>
        <time>2023-07-20T07:59:43Z</time>
      </trkpt>
      <trkpt lat="48.3649" lon="2.72146">
        <ele>87.9</ele>
        <time>2023-07-20T07:59:44Z</time>
      </trkpt>
      <trkpt lat="48.3649" lon="2.72143">
        <ele>87.9</ele>
        <time>2023-07-20T07:59:45Z</time>
      </trkpt>
      <trkpt lat="48.36491" lon="2.72142">
        <ele>87.9</ele>
        <time>2023-07-20T07:59:46Z</time>
      </trkpt>
      <trkpt lat="48.36491" lon="2.72141">
        <ele>87.9</ele>
        <time>2023-07-20T07:59:47Z</time>
      </trkpt>
      <trkpt lat="48.36491" lon="2.72139">
        <ele>87.9</ele>
        <time>2023-07-20T07:59:48Z</time>
      </trkpt>
      <trkpt lat="48.3649" lon="2.72137">
        <ele>87.9</ele>
        <time>2023-07-20T07:59:49Z</time>
      </trkpt>
      <trkpt lat="48.3649" lon="2.72135">
        <ele>87.9</ele>
        <time>2023-07-20T07:59:50Z</time>
      </trkpt>
      <trkpt lat="48.36489" lon="2.72134">
        <ele>87.9</ele>
        <time>2023-07-20T07:59:51Z</time>
      </trkpt>
      <trkpt lat="48.36489" lon="2.72133">
        <ele>87.9</ele>
        <time>2023-07-20T07:59:52Z</time>
      </trkpt>
      <trkpt lat="48.36488" lon="2.72133">
        <ele>87.9</ele>
        <time>2023-07-20T07:59:53Z</time>
      </trkpt>
      <trkpt lat="48.36488" lon="2.72131">
        <ele>87.9</ele>
        <time>2023-07-20T07:59:54Z</time>
      </trkpt>
      <trkpt lat="48.36488" lon="2.72129">
        <ele>87.9</ele>
        <time>2023-07-20T07:59:55Z</time>
      </trkpt>
      <trkpt lat="48.36488" lon="2.72129">
        <ele>87.9</ele>
        <time>2023-07-20T07:59:57Z</time>
      </trkpt>
      <trkpt lat="48.36488" lon="2.72128">
        <ele>87.9</ele>
        <time>2023-07-20T07:59:58Z</time>
      </trkpt>
      <trkpt lat="48.36488" lon="2.72128">
        <ele>87.9</ele>
        <time>2023-07-20T07:59:59Z</time>
      </trkpt>
      <trkpt lat="48.36487" lon="2.72127">
        <ele>87.9</ele>
        <time>2023-07-20T08:00:00Z</time>
      </trkpt>
      <trkpt lat="48.36487" lon="2.72125">
        <ele>87.9</ele>
        <time>2023-07-20T08:00:01Z</time>
      </trkpt>
      <trkpt lat="48.36487" lon="2.72124">
        <ele>87.9</ele>
        <time>2023-07-20T08:00:02Z</time>
      </trkpt>
      <trkpt lat="48.36487" lon="2.72121">
        <ele>87.9</ele>
        <time>2023-07-20T08:00:03Z</time>
      </trkpt>
      <trkpt lat="48.36487" lon="2.72119">
        <ele>87.9</ele>
        <time>2023-07-20T08:00:04Z</time>
      </trkpt>
      <trkpt lat="48.36488" lon="2.72116">
        <ele>87.9</ele>
        <time>2023-07-20T08:00:05Z</time>
      </trkpt>
      <trkpt lat="48.36488" lon="2.72114">
        <ele>87.9</ele>
        <time>2023-07-20T08:00:06Z</time>
      </trkpt>
      <trkpt lat="48.36488" lon="2.72111">
        <ele>87.9</ele>
        <time>2023-07-20T08:00:07Z</time>
      </trkpt>
      <trkpt lat="48.36488" lon="2.72109">
        <ele>87.9</ele>
        <time>2023-07-20T08:00:08Z</time>
      </trkpt>
      <trkpt lat="48.36488" lon="2.72108">
        <ele>87.9</ele>
        <time>2023-07-20T08:00:09Z</time>
      </trkpt>
      <trkpt lat="48.36488" lon="2.72107">
        <ele>87.9</ele>
        <time>2023-07-20T08:00:10Z</time>
      </trkpt>
      <trkpt lat="48.36488" lon="2.72105">
        <ele>87.9</ele>
        <time>2023-07-20T08:00:11Z</time>
      </trkpt>
      <trkpt lat="48.36488" lon="2.72105">
        <ele>87.9</ele>
        <time>2023-07-20T08:00:12Z</time>
      </trkpt>
      <trkpt lat="48.36488" lon="2.72104">
        <ele>87.9</ele>
        <time>2023-07-20T08:00:13Z</time>
      </trkpt>
      <trkpt lat="48.36488" lon="2.72102">
        <ele>87.9</ele>
        <time>2023-07-20T08:00:14Z</time>
      </trkpt>
      <trkpt lat="48.36488" lon="2.721">
        <ele>87.8</ele>
        <time>2023-07-20T08:00:15Z</time>
      </trkpt>
      <trkpt lat="48.36489" lon="2.72099">
        <ele>87.8</ele>
        <time>2023-07-20T08:00:16Z</time>
      </trkpt>
      <trkpt lat="48.36489" lon="2.72098">
        <ele>87.8</ele>
        <time>2023-07-20T08:00:17Z</time>
      </trkpt>
      <trkpt lat="48.36489" lon="2.72098">
        <ele>87.8</ele>
        <time>2023-07-20T08:00:18Z</time>
      </trkpt>
      <trkpt lat="48.3649" lon="2.72098">
        <ele>87.8</ele>
        <time>2023-07-20T08:00:19Z</time>
      </trkpt>
      <trkpt lat="48.36489" lon="2.72098">
        <ele>87.8</ele>
        <time>2023-07-20T08:00:20Z</time>
      </trkpt>
      <trkpt lat="48.36489" lon="2.72097">
        <ele>87.8</ele>
        <time>2023-07-20T08:00:21Z</time>
      </trkpt>
      <trkpt lat="48.36488" lon="2.72096">
        <ele>87.8</ele>
        <time>2023-07-20T08:00:22Z</time>
      </trkpt>
      <trkpt lat="48.36489" lon="2.72096">
        <ele>87.8</ele>
        <time>2023-07-20T08:00:23Z</time>
      </trkpt>
      <trkpt lat="48.36489" lon="2.72095">
        <ele>87.8</ele>
        <time>2023-07-20T08:00:24Z</time>
      </trkpt>
      <trkpt lat="48.36489" lon="2.72095">
        <ele>87.8</ele>
        <time>2023-07-20T08:00:25Z</time>
      </trkpt>
      <trkpt lat="48.36489" lon="2.72094">
        <ele>87.8</ele>
        <time>2023-07-20T08:00:26Z</time>
      </trkpt>
      <trkpt lat="48.36489" lon="2.72094">
        <ele>87.8</ele>
        <time>2023-07-20T08:00:27Z</time>
      </trkpt>
      <trkpt lat="48.36489" lon="2.72093">
        <ele>87.8</ele>
        <time>2023-07-20T08:00:28Z</time>
      </trkpt>
      <trkpt lat="48.3649" lon="2.72092">
        <ele>87.8</ele>
        <time>2023-07-20T08:00:29Z</time>
      </trkpt>
      <trkpt lat="48.3649" lon="2.72091">
        <ele>87.8</ele>
        <time>2023-07-20T08:00:30Z</time>
      </trkpt>
      <trkpt lat="48.3649" lon="2.72091">
        <ele>87.7</ele>
        <time>2023-07-20T08:00:31Z</time>
      </trkpt>
      <trkpt lat="48.3649" lon="2.7209">
        <ele>87.7</ele>
        <time>2023-07-20T08:00:32Z</time>
      </trkpt>
      <trkpt lat="48.3649" lon="2.72089">
        <ele>87.7</ele>
        <time>2023-07-20T08:00:33Z</time>
      </trkpt>
      <trkpt lat="48.36491" lon="2.72088">
        <ele>87.7</ele>
        <time>2023-07-20T08:00:34Z</time>
      </trkpt>
      <trkpt lat="48.36492" lon="2.72088">
        <ele>87.7</ele>
        <time>2023-07-20T08:00:35Z</time>
      </trkpt>
      <trkpt lat="48.36492" lon="2.72086">
        <ele>87.7</ele>
        <time>2023-07-20T08:00:36Z</time>
      </trkpt>
      <trkpt lat="48.36492" lon="2.72085">
        <ele>87.7</ele>
        <time>2023-07-20T08:00:37Z</time>
      </trkpt>
      <trkpt lat="48.36492" lon="2.72085">
        <ele>87.7</ele>
        <time>2023-07-20T08:00:38Z</time>
      </trkpt>
      <trkpt lat="48.36493" lon="2.72084">
        <ele>87.7</ele>
        <time>2023-07-20T08:00:39Z</time>
      </trkpt>
      <trkpt lat="48.3649" lon="2.72084">
        <ele>87.7</ele>
        <time>2023-07-20T08:00:40Z</time>
      </trkpt>
      <trkpt lat="48.3649" lon="2.72084">
        <ele>87.7</ele>
        <time>2023-07-20T08:00:41Z</time>
      </trkpt>
      <trkpt lat="48.36491" lon="2.72084">
        <ele>87.8</ele>
        <time>2023-07-20T08:00:42Z</time>
      </trkpt>
      <trkpt lat="48.36491" lon="2.72082">
        <ele>87.8</ele>
        <time>2023-07-20T08:00:43Z</time>
      </trkpt>
      <trkpt lat="48.36491" lon="2.72081">
        <ele>87.8</ele>
        <time>2023-07-20T08:00:44Z</time>
      </trkpt>
      <trkpt lat="48.36492" lon="2.7208">
        <ele>87.8</ele>
        <time>2023-07-20T08:00:45Z</time>
      </trkpt>
      <trkpt lat="48.36492" lon="2.72079">
        <ele>87.8</ele>
        <time>2023-07-20T08:00:46Z</time>
      </trkpt>
      <trkpt lat="48.36493" lon="2.72078">
        <ele>87.8</ele>
        <time>2023-07-20T08:00:47Z</time>
      </trkpt>
      <trkpt lat="48.36493" lon="2.72077">
        <ele>87.8</ele>
        <time>2023-07-20T08:00:48Z</time>
      </trkpt>
      <trkpt lat="48.36493" lon="2.72077">
        <ele>87.8</ele>
        <time>2023-07-20T08:00:49Z</time>
      </trkpt>
      <trkpt lat="48.36493" lon="2.72076">
        <ele>87.8</ele>
        <time>2023-07-20T08:00:50Z</time>
      </trkpt>
      <trkpt lat="48.36494" lon="2.72076">
        <ele>87.8</ele>
        <time>2023-07-20T08:00:51Z</time>
      </trkpt>
      <trkpt lat="48.36494" lon="2.72076">
        <ele>87.8</ele>
        <time>2023-07-20T08:00:52Z</time>
      </trkpt>
      <trkpt lat="48.36495" lon="2.72075">
        <ele>87.8</ele>
        <time>2023-07-20T08:00:53Z</time>
      </trkpt>
      <trkpt lat="48.36494" lon="2.72072">
        <ele>87.8</ele>
        <time>2023-07-20T08:00:54Z</time>
      </trkpt>
      <trkpt lat="48.36495" lon="2.72071">
        <ele>87.8</ele>
        <time>2023-07-20T08:00:55Z</time>
      </trkpt>
      <trkpt lat="48.36496" lon="2.7207">
        <ele>87.8</ele>
        <time>2023-07-20T08:00:56Z</time>
      </trkpt>
      <trkpt lat="48.36496" lon="2.72068">
        <ele>87.8</ele>
        <time>2023-07-20T08:00:57Z</time>
      </trkpt>
      <trkpt lat="48.36496" lon="2.72067">
        <ele>87.8</ele>
        <time>2023-07-20T08:00:58Z</time>
      </trkpt>
      <trkpt lat="48.36497" lon="2.72066">
        <ele>87.8</ele>
        <time>2023-07-20T08:00:59Z</time>
      </trkpt>
      <trkpt lat="48.36498" lon="2.72064">
        <ele>87.8</ele>
        <time>2023-07-20T08:01:00Z</time>
      </trkpt>
      <trkpt lat="48.36498" lon="2.72063">
        <ele>87.8</ele>
        <time>2023-07-20T08:01:01Z</time>
      </trkpt>
      <trkpt lat="48.36498" lon="2.72062">
        <ele>87.8</ele>
        <time>2023-07-20T08:01:02Z</time>
      </trkpt>
      <trkpt lat="48.36499" lon="2.7206">
        <ele>87.8</ele>
        <time>2023-07-20T08:01:03Z</time>
      </trkpt>
      <trkpt lat="48.36499" lon="2.72059">
        <ele>87.8</ele>
        <time>2023-07-20T08:01:04Z</time>
      </trkpt>
      <trkpt lat="48.365" lon="2.72058">
        <ele>87.8</ele>
        <time>2023-07-20T08:01:05Z</time>
      </trkpt>
      <trkpt lat="48.365" lon="2.72057">
        <ele>87.8</ele>
        <time>2023-07-20T08:01:06Z</time>
      </trkpt>
      <trkpt lat="48.365" lon="2.72056">
        <ele>87.8</ele>
        <time>2023-07-20T08:01:07Z</time>
      </trkpt>
      <trkpt lat="48.36501" lon="2.72052">
        <ele>87.8</ele>
        <time>2023-07-20T08:01:08Z</time>
      </trkpt>
      <trkpt lat="48.36501" lon="2.7205">
        <ele>87.9</ele>
        <time>2023-07-20T08:01:09Z</time>
      </trkpt>
      <trkpt lat="48.36502" lon="2.72048">
        <ele>87.9</ele>
        <time>2023-07-20T08:01:10Z</time>
      </trkpt>
      <trkpt lat="48.36502" lon="2.72047">
        <ele>87.9</ele>
        <time>2023-07-20T08:01:11Z</time>
      </trkpt>
      <trkpt lat="48.36503" lon="2.72046">
        <ele>87.9</ele>
        <time>2023-07-20T08:01:12Z</time>
      </trkpt>
      <trkpt lat="48.36503" lon="2.72045">
        <ele>87.9</ele>
        <time>2023-07-20T08:01:13Z</time>
      </trkpt>
      <trkpt lat="48.36503" lon="2.72044">
        <ele>87.9</ele>
        <time>2023-07-20T08:01:14Z</time>
      </trkpt>
      <trkpt lat="48.36502" lon="2.72043">
        <ele>87.9</ele>
        <time>2023-07-20T08:01:15Z</time>
      </trkpt>
      <trkpt lat="48.36502" lon="2.72041">
        <ele>87.9</ele>
        <time>2023-07-20T08:01:16Z</time>
      </trkpt>
      <trkpt lat="48.36502" lon="2.7204">
        <ele>87.9</ele>
        <time>2023-07-20T08:01:17Z</time>
      </trkpt>
      <trkpt lat="48.36502" lon="2.72039">
        <ele>87.9</ele>
        <time>2023-07-20T08:01:18Z</time>
      </trkpt>
      <trkpt lat="48.36502" lon="2.72036">
        <ele>87.9</ele>
        <time>2023-07-20T08:01:19Z</time>
      </trkpt>
      <trkpt lat="48.36502" lon="2.72034">
        <ele>88</ele>
        <time>2023-07-20T08:01:20Z</time>
      </trkpt>
      <trkpt lat="48.36502" lon="2.72033">
        <ele>88</ele>
        <time>2023-07-20T08:01:21Z</time>
      </trkpt>
      <trkpt lat="48.36501" lon="2.7203">
        <ele>88</ele>
        <time>2023-07-20T08:01:22Z</time>
      </trkpt>
      <trkpt lat="48.36502" lon="2.72029">
        <ele>88</ele>
        <time>2023-07-20T08:01:23Z</time>
      </trkpt>
      <trkpt lat="48.36502" lon="2.72026">
        <ele>88</ele>
        <time>2023-07-20T08:01:24Z</time>
      </trkpt>
      <trkpt lat="48.36503" lon="2.72025">
        <ele>88</ele>
        <time>2023-07-20T08:01:25Z</time>
      </trkpt>
      <trkpt lat="48.36503" lon="2.72024">
        <ele>88</ele>
        <time>2023-07-20T08:01:26Z</time>
      </trkpt>
      <trkpt lat="48.36504" lon="2.72022">
        <ele>88</ele>
        <time>2023-07-20T08:01:27Z</time>
      </trkpt>
      <trkpt lat="48.36504" lon="2.7202">
        <ele>88.1</ele>
        <time>2023-07-20T08:01:28Z</time>
      </trkpt>
      <trkpt lat="48.36504" lon="2.72019">
        <ele>88.1</ele>
        <time>2023-07-20T08:01:29Z</time>
      </trkpt>
      <trkpt lat="48.36504" lon="2.72017">
        <ele>88.1</ele>
        <time>2023-07-20T08:01:30Z</time>
      </trkpt>
      <trkpt lat="48.36504" lon="2.72016">
        <ele>88.1</ele>
        <time>2023-07-20T08:01:31Z</time>
      </trkpt>
      <trkpt lat="48.36504" lon="2.72014">
        <ele>88.1</ele>
        <time>2023-07-20T08:01:32Z</time>
      </trkpt>
      <trkpt lat="48.36505" lon="2.7201">
        <ele>88.2</ele>
        <time>2023-07-20T08:01:33Z</time>
      </trkpt>
      <trkpt lat="48.36505" lon="2.72009">
        <ele>88.2</ele>
        <time>2023-07-20T08:01:34Z</time>
      </trkpt>
      <trkpt lat="48.36505" lon="2.72006">
        <ele>88.2</ele>
        <time>2023-07-20T08:01:35Z</time>
      </trkpt>
      <trkpt lat="48.36505" lon="2.72005">
        <ele>88.2</ele>
        <time>2023-07-20T08:01:36Z</time>
      </trkpt>
      <trkpt lat="48.36505" lon="2.72004">
        <ele>88.2</ele>
        <time>2023-07-20T08:01:37Z</time>
      </trkpt>
      <trkpt lat="48.36505" lon="2.72003">
        <ele>88.2</ele>
        <time>2023-07-20T08:01:38Z</time>
      </trkpt>
      <trkpt lat="48.36505" lon="2.72">
        <ele>88.3</ele>
        <time>2023-07-20T08:01:39Z</time>
      </trkpt>
      <trkpt lat="48.36505" lon="2.71999">
        <ele>88.3</ele>
        <time>2023-07-20T08:01:40Z</time>
      </trkpt>
      <trkpt lat="48.36505" lon="2.71997">
        <ele>88.3</ele>
        <time>2023-07-20T08:01:41Z</time>
      </trkpt>
      <trkpt lat="48.36504" lon="2.71994">
        <ele>88.3</ele>
        <time>2023-07-20T08:01:42Z</time>
      </trkpt>
      <trkpt lat="48.36504" lon="2.71993">
        <ele>88.3</ele>
        <time>2023-07-20T08:01:43Z</time>
      </trkpt>
      <trkpt lat="48.36504" lon="2.71992">
        <ele>88.4</ele>
        <time>2023-07-20T08:01:44Z</time>
      </trkpt>
      <trkpt lat="48.36504" lon="2.71991">
        <ele>88.4</ele>
        <time>2023-07-20T08:01:45Z</time>
      </trkpt>
      <trkpt lat="48.36504" lon="2.7199">
        <ele>88.4</ele>
        <time>2023-07-20T08:01:46Z</time>
      </trkpt>
      <trkpt lat="48.36503" lon="2.71988">
        <ele>88.4</ele>
        <time>2023-07-20T08:01:47Z</time>
      </trkpt>
      <trkpt lat="48.36504" lon="2.71987">
        <ele>88.4</ele>
        <time>2023-07-20T08:01:48Z</time>
      </trkpt>
      <trkpt lat="48.36504" lon="2.71984">
        <ele>88.5</ele>
        <time>2023-07-20T08:01:49Z</time>
      </trkpt>
      <trkpt lat="48.36504" lon="2.71983">
        <ele>88.5</ele>
        <time>2023-07-20T08:01:50Z</time>
      </trkpt>
      <trkpt lat="48.36504" lon="2.71981">
        <ele>88.5</ele>
        <time>2023-07-20T08:01:51Z</time>
      </trkpt>
      <trkpt lat="48.36504" lon="2.71979">
        <ele>88.5</ele>
        <time>2023-07-20T08:01:52Z</time>
      </trkpt>
      <trkpt lat="48.36505" lon="2.71978">
        <ele>88.5</ele>
        <time>2023-07-20T08:01:53Z</time>
      </trkpt>
      <trkpt lat="48.36506" lon="2.71977">
        <ele>88.6</ele>
        <time>2023-07-20T08:01:54Z</time>
      </trkpt>
      <trkpt lat="48.36506" lon="2.71974">
        <ele>88.6</ele>
        <time>2023-07-20T08:01:55Z</time>
      </trkpt>
      <trkpt lat="48.36507" lon="2.71972">
        <ele>88.6</ele>
        <time>2023-07-20T08:01:56Z</time>
      </trkpt>
      <trkpt lat="48.36506" lon="2.7197">
        <ele>88.7</ele>
        <time>2023-07-20T08:01:57Z</time>
      </trkpt>
      <trkpt lat="48.36506" lon="2.71969">
        <ele>88.7</ele>
        <time>2023-07-20T08:01:58Z</time>
      </trkpt>
      <trkpt lat="48.36506" lon="2.71968">
        <ele>88.7</ele>
        <time>2023-07-20T08:01:59Z</time>
      </trkpt>
      <trkpt lat="48.36506" lon="2.71967">
        <ele>88.7</ele>
        <time>2023-07-20T08:02:00Z</time>
      </trkpt>
      <trkpt lat="48.36505" lon="2.71966">
        <ele>88.7</ele>
        <time>2023-07-20T08:02:01Z</time>
      </trkpt>
      <trkpt lat="48.36505" lon="2.71964">
        <ele>88.8</ele>
        <time>2023-07-20T08:02:02Z</time>
      </trkpt>
      <trkpt lat="48.36505" lon="2.71962">
        <ele>88.8</ele>
        <time>2023-07-20T08:02:03Z</time>
      </trkpt>
      <trkpt lat="48.36505" lon="2.7196">
        <ele>88.8</ele>
        <time>2023-07-20T08:02:04Z</time>
      </trkpt>
      <trkpt lat="48.36505" lon="2.71959">
        <ele>88.9</ele>
        <time>2023-07-20T08:02:05Z</time>
      </trkpt>
      <trkpt lat="48.36506" lon="2.71958">
        <ele>88.9</ele>
        <time>2023-07-20T08:02:06Z</time>
      </trkpt>
      <trkpt lat="48.36505" lon="2.71956">
        <ele>88.9</ele>
        <time>2023-07-20T08:02:07Z</time>
      </trkpt>
      <trkpt lat="48.36506" lon="2.71955">
        <ele>88.9</ele>
        <time>2023-07-20T08:02:08Z</time>
      </trkpt>
      <trkpt lat="48.36507" lon="2.71954">
        <ele>89</ele>
        <time>2023-07-20T08:02:09Z</time>
      </trkpt>
      <trkpt lat="48.36507" lon="2.71952">
        <ele>89</ele>
        <time>2023-07-20T08:02:10Z</time>
      </trkpt>
      <trkpt lat="48.36507" lon="2.71951">
        <ele>89</ele>
        <time>2023-07-20T08:02:11Z</time>
      </trkpt>
      <trkpt lat="48.36507" lon="2.71949">
        <ele>89.1</ele>
        <time>2023-07-20T08:02:12Z</time>
      </trkpt>
      <trkpt lat="48.36507" lon="2.71948">
        <ele>89.1</ele>
        <time>2023-07-20T08:02:13Z</time>
      </trkpt>
      <trkpt lat="48.36507" lon="2.71946">
        <ele>89.1</ele>
        <time>2023-07-20T08:02:14Z</time>
      </trkpt>
      <trkpt lat="48.36507" lon="2.71944">
        <ele>89.2</ele>
        <time>2023-07-20T08:02:15Z</time>
      </trkpt>
      <trkpt lat="48.36507" lon="2.71943">
        <ele>89.2</ele>
        <time>2023-07-20T08:02:16Z</time>
      </trkpt>
      <trkpt lat="48.36507" lon="2.71942">
        <ele>89.2</ele>
        <time>2023-07-20T08:02:17Z</time>
      </trkpt>
      <trkpt lat="48.36507" lon="2.71941">
        <ele>89.2</ele>
        <time>2023-07-20T08:02:18Z</time>
      </trkpt>
      <trkpt lat="48.36508" lon="2.71941">
        <ele>89.3</ele>
        <time>2023-07-20T08:02:19Z</time>
      </trkpt>
      <trkpt lat="48.36508" lon="2.7194">
        <ele>89.3</ele>
        <time>2023-07-20T08:02:20Z</time>
      </trkpt>
      <trkpt lat="48.36508" lon="2.71937">
        <ele>89.3</ele>
        <time>2023-07-20T08:02:21Z</time>
      </trkpt>
      <trkpt lat="48.36508" lon="2.71936">
        <ele>89.4</ele>
        <time>2023-07-20T08:02:22Z</time>
      </trkpt>
      <trkpt lat="48.36508" lon="2.71933">
        <ele>89.5</ele>
        <time>2023-07-20T08:02:23Z</time>
      </trkpt>
      <trkpt lat="48.36508" lon="2.71931">
        <ele>89.5</ele>
        <time>2023-07-20T08:02:24Z</time>
      </trkpt>
      <trkpt lat="48.36508" lon="2.7193">
        <ele>89.5</ele>
        <time>2023-07-20T08:02:25Z</time>
      </trkpt>
      <trkpt lat="48.36509" lon="2.71929">
        <ele>89.6</ele>
        <time>2023-07-20T08:02:26Z</time>
      </trkpt>
      <trkpt lat="48.36509" lon="2.71927">
        <ele>89.6</ele>
        <time>2023-07-20T08:02:27Z</time>
      </trkpt>
      <trkpt lat="48.36509" lon="2.71926">
        <ele>89.6</ele>
        <time>2023-07-20T08:02:28Z</time>
      </trkpt>
      <trkpt lat="48.36509" lon="2.71924">
        <ele>89.7</ele>
        <time>2023-07-20T08:02:29Z</time>
      </trkpt>
      <trkpt lat="48.36509" lon="2.71924">
        <ele>89.7</ele>
        <time>2023-07-20T08:02:30Z</time>
      </trkpt>
      <trkpt lat="48.36509" lon="2.71922">
        <ele>89.7</ele>
        <time>2023-07-20T08:02:31Z</time>
      </trkpt>
      <trkpt lat="48.36509" lon="2.7192">
        <ele>89.7</ele>
        <time>2023-07-20T08:02:32Z</time>
      </trkpt>
      <trkpt lat="48.36509" lon="2.71919">
        <ele>89.7</ele>
        <time>2023-07-20T08:02:33Z</time>
      </trkpt>
      <trkpt lat="48.36509" lon="2.71917">
        <ele>89.7</ele>
        <time>2023-07-20T08:02:34Z</time>
      </trkpt>
      <trkpt lat="48.3651" lon="2.71915">
        <ele>89.7</ele>
        <time>2023-07-20T08:02:35Z</time>
      </trkpt>
      <trkpt lat="48.3651" lon="2.71913">
        <ele>89.7</ele>
        <time>2023-07-20T08:02:36Z</time>
      </trkpt>
      <trkpt lat="48.36509" lon="2.71911">
        <ele>89.8</ele>
        <time>2023-07-20T08:02:37Z</time>
      </trkpt>
      <trkpt lat="48.3651" lon="2.71908">
        <ele>89.8</ele>
        <time>2023-07-20T08:02:38Z</time>
      </trkpt>
      <trkpt lat="48.36509" lon="2.71906">
        <ele>89.8</ele>
        <time>2023-07-20T08:02:39Z</time>
      </trkpt>
      <trkpt lat="48.3651" lon="2.71904">
        <ele>89.8</ele>
        <time>2023-07-20T08:02:40Z</time>
      </trkpt>
      <trkpt lat="48.3651" lon="2.71903">
        <ele>89.8</ele>
        <time>2023-07-20T08:02:41Z</time>
      </trkpt>
      <trkpt lat="48.3651" lon="2.71902">
        <ele>89.8</ele>
        <time>2023-07-20T08:02:42Z</time>
      </trkpt>
      <trkpt lat="48.3651" lon="2.71901">
        <ele>89.8</ele>
        <time>2023-07-20T08:02:43Z</time>
      </trkpt>
      <trkpt lat="48.3651" lon="2.719">
        <ele>89.8</ele>
        <time>2023-07-20T08:02:44Z</time>
      </trkpt>
      <trkpt lat="48.3651" lon="2.71899">
        <ele>89.8</ele>
        <time>2023-07-20T08:02:45Z</time>
      </trkpt>
      <trkpt lat="48.3651" lon="2.71897">
        <ele>89.8</ele>
        <time>2023-07-20T08:02:46Z</time>
      </trkpt>
      <trkpt lat="48.3651" lon="2.71895">
        <ele>89.8</ele>
        <time>2023-07-20T08:02:47Z</time>
      </trkpt>
      <trkpt lat="48.36509" lon="2.71894">
        <ele>89.8</ele>
        <time>2023-07-20T08:02:48Z</time>
      </trkpt>
      <trkpt lat="48.36509" lon="2.71894">
        <ele>89.8</ele>
        <time>2023-07-20T08:02:49Z</time>
      </trkpt>
      <trkpt lat="48.3651" lon="2.71892">
        <ele>89.8</ele>
        <time>2023-07-20T08:02:50Z</time>
      </trkpt>
      <trkpt lat="48.3651" lon="2.7189">
        <ele>89.8</ele>
        <time>2023-07-20T08:02:51Z</time>
      </trkpt>
      <trkpt lat="48.3651" lon="2.71888">
        <ele>89.8</ele>
        <time>2023-07-20T08:02:52Z</time>
      </trkpt>
      <trkpt lat="48.3651" lon="2.71887">
        <ele>89.8</ele>
        <time>2023-07-20T08:02:53Z</time>
      </trkpt>
      <trkpt lat="48.3651" lon="2.71885">
        <ele>89.8</ele>
        <time>2023-07-20T08:02:54Z</time>
      </trkpt>
      <trkpt lat="48.36509" lon="2.71883">
        <ele>89.8</ele>
        <time>2023-07-20T08:02:55Z</time>
      </trkpt>
      <trkpt lat="48.36509" lon="2.71881">
        <ele>89.9</ele>
        <time>2023-07-20T08:02:56Z</time>
      </trkpt>
      <trkpt lat="48.36509" lon="2.7188">
        <ele>89.9</ele>
        <time>2023-07-20T08:02:57Z</time>
      </trkpt>
      <trkpt lat="48.36509" lon="2.71879">
        <ele>89.9</ele>
        <time>2023-07-20T08:02:58Z</time>
      </trkpt>
      <trkpt lat="48.36509" lon="2.71878">
        <ele>89.9</ele>
        <time>2023-07-20T08:02:59Z</time>
      </trkpt>
      <trkpt lat="48.3651" lon="2.71877">
        <ele>89.9</ele>
        <time>2023-07-20T08:03:00Z</time>
      </trkpt>
      <trkpt lat="48.3651" lon="2.71875">
        <ele>89.9</ele>
        <time>2023-07-20T08:03:01Z</time>
      </trkpt>
      <trkpt lat="48.3651" lon="2.71872">
        <ele>89.9</ele>
        <time>2023-07-20T08:03:02Z</time>
      </trkpt>
      <trkpt lat="48.3651" lon="2.71871">
        <ele>89.9</ele>
        <time>2023-07-20T08:03:03Z</time>
      </trkpt>
      <trkpt lat="48.3651" lon="2.71869">
        <ele>89.9</ele>
        <time>2023-07-20T08:03:04Z</time>
      </trkpt>
      <trkpt lat="48.36511" lon="2.71868">
        <ele>89.9</ele>
        <time>2023-07-20T08:03:05Z</time>
      </trkpt>
      <trkpt lat="48.36511" lon="2.71867">
        <ele>89.9</ele>
        <time>2023-07-20T08:03:06Z</time>
      </trkpt>
      <trkpt lat="48.36511" lon="2.71865">
        <ele>89.9</ele>
        <time>2023-07-20T08:03:07Z</time>
      </trkpt>
      <trkpt lat="48.3651" lon="2.71864">
        <ele>89.9</ele>
        <time>2023-07-20T08:03:08Z</time>
      </trkpt>
      <trkpt lat="48.3651" lon="2.71863">
        <ele>89.9</ele>
        <time>2023-07-20T08:03:09Z</time>
      </trkpt>
      <trkpt lat="48.3651" lon="2.71863">
        <ele>89.9</ele>
        <time>2023-07-20T08:03:10Z</time>
      </trkpt>
      <trkpt lat="48.3651" lon="2.71862">
        <ele>89.9</ele>
        <time>2023-07-20T08:03:11Z</time>
      </trkpt>
      <trkpt lat="48.3651" lon="2.71861">
        <ele>89.9</ele>
        <time>2023-07-20T08:03:12Z</time>
      </trkpt>
      <trkpt lat="48.3651" lon="2.71859">
        <ele>89.9</ele>
        <time>2023-07-20T08:03:13Z</time>
      </trkpt>
      <trkpt lat="48.3651" lon="2.71858">
        <ele>89.9</ele>
        <time>2023-07-20T08:03:14Z</time>
      </trkpt>
      <trkpt lat="48.3651" lon="2.71857">
        <ele>89.9</ele>
        <time>2023-07-20T08:03:15Z</time>
      </trkpt>
      <trkpt lat="48.3651" lon="2.71858">
        <ele>89.9</ele>
        <time>2023-07-20T08:03:16Z</time>
      </trkpt>
      <trkpt lat="48.3651" lon="2.71856">
        <ele>89.9</ele>
        <time>2023-07-20T08:03:17Z</time>
      </trkpt>
      <trkpt lat="48.3651" lon="2.71854">
        <ele>89.9</ele>
        <time>2023-07-20T08:03:18Z</time>
      </trkpt>
      <trkpt lat="48.3651" lon="2.71852">
        <ele>89.9</ele>
        <time>2023-07-20T08:03:19Z</time>
      </trkpt>
      <trkpt lat="48.3651" lon="2.71849">
        <ele>89.9</ele>
        <time>2023-07-20T08:03:20Z</time>
      </trkpt>
      <trkpt lat="48.3651" lon="2.71848">
        <ele>89.9</ele>
        <time>2023-07-20T08:03:21Z</time>
      </trkpt>
      <trkpt lat="48.3651" lon="2.71847">
        <ele>89.9</ele>
        <time>2023-07-20T08:03:22Z</time>
      </trkpt>
      <trkpt lat="48.3651" lon="2.71845">
        <ele>89.9</ele>
        <time>2023-07-20T08:03:23Z</time>
      </trkpt>
      <trkpt lat="48.36511" lon="2.71843">
        <ele>89.9</ele>
        <time>2023-07-20T08:03:24Z</time>
      </trkpt>
      <trkpt lat="48.36511" lon="2.71841">
        <ele>89.9</ele>
        <time>2023-07-20T08:03:25Z</time>
      </trkpt>
      <trkpt lat="48.36512" lon="2.7184">
        <ele>89.9</ele>
        <time>2023-07-20T08:03:26Z</time>
      </trkpt>
      <trkpt lat="48.36512" lon="2.71838">
        <ele>89.9</ele>
        <time>2023-07-20T08:03:27Z</time>
      </trkpt>
      <trkpt lat="48.36512" lon="2.71837">
        <ele>89.9</ele>
        <time>2023-07-20T08:03:28Z</time>
      </trkpt>
      <trkpt lat="48.36512" lon="2.71834">
        <ele>89.9</ele>
        <time>2023-07-20T08:03:29Z</time>
      </trkpt>
      <trkpt lat="48.36512" lon="2.71833">
        <ele>89.9</ele>
        <time>2023-07-20T08:03:30Z</time>
      </trkpt>
      <trkpt lat="48.36513" lon="2.71832">
        <ele>89.9</ele>
        <time>2023-07-20T08:03:31Z</time>
      </trkpt>
      <trkpt lat="48.36513" lon="2.71829">
        <ele>89.9</ele>
        <time>2023-07-20T08:03:32Z</time>
      </trkpt>
      <trkpt lat="48.36512" lon="2.71829">
        <ele>89.9</ele>
        <time>2023-07-20T08:03:33Z</time>
      </trkpt>
      <trkpt lat="48.36512" lon="2.71828">
        <ele>89.9</ele>
        <time>2023-07-20T08:03:34Z</time>
      </trkpt>
      <trkpt lat="48.36512" lon="2.71827">
        <ele>89.9</ele>
        <time>2023-07-20T08:03:35Z</time>
      </trkpt>
      <trkpt lat="48.36512" lon="2.71826">
        <ele>89.9</ele>
        <time>2023-07-20T08:03:36Z</time>
      </trkpt>
      <trkpt lat="48.36512" lon="2.71825">
        <ele>89.9</ele>
        <time>2023-07-20T08:03:37Z</time>
      </trkpt>
      <trkpt lat="48.36512" lon="2.71823">
        <ele>89.9</ele>
        <time>2023-07-20T08:03:38Z</time>
      </trkpt>
      <trkpt lat="48.36512" lon="2.71822">
        <ele>89.9</ele>
        <time>2023-07-20T08:03:39Z</time>
      </trkpt>
      <trkpt lat="48.36512" lon="2.71821">
        <ele>89.9</ele>
        <time>2023-07-20T08:03:40Z</time>
      </trkpt>
      <trkpt lat="48.36513" lon="2.7182">
        <ele>89.9</ele>
        <time>2023-07-20T08:03:41Z</time>
      </trkpt>
      <trkpt lat="48.36513" lon="2.71819">
        <ele>89.9</ele>
        <time>2023-07-20T08:03:42Z</time>
      </trkpt>
      <trkpt lat="48.36514" lon="2.71817">
        <ele>89.9</ele>
        <time>2023-07-20T08:03:43Z</time>
      </trkpt>
      <trkpt lat="48.36514" lon="2.71815">
        <ele>89.9</ele>
        <time>2023-07-20T08:03:44Z</time>
      </trkpt>
      <trkpt lat="48.36514" lon="2.71813">
        <ele>89.9</ele>
        <time>2023-07-20T08:03:45Z</time>
      </trkpt>
      <trkpt lat="48.36515" lon="2.71811">
        <ele>89.9</ele>
        <time>2023-07-20T08:03:46Z</time>
      </trkpt>
      <trkpt lat="48.36515" lon="2.71809">
        <ele>89.9</ele>
        <time>2023-07-20T08:03:47Z</time>
      </trkpt>
      <trkpt lat="48.36516" lon="2.71804">
        <ele>89.9</ele>
        <time>2023-07-20T08:03:48Z</time>
      </trkpt>
      <trkpt lat="48.36516" lon="2.71803">
        <ele>89.9</ele>
        <time>2023-07-20T08:03:49Z</time>
      </trkpt>
      <trkpt lat="48.36517" lon="2.71799">
        <ele>89.9</ele>
        <time>2023-07-20T08:03:50Z</time>
      </trkpt>
      <trkpt lat="48.36517" lon="2.71799">
        <ele>89.9</ele>
        <time>2023-07-20T08:03:51Z</time>
      </trkpt>
      <trkpt lat="48.36517" lon="2.71798">
        <ele>89.9</ele>
        <time>2023-07-20T08:03:52Z</time>
      </trkpt>
      <trkpt lat="48.36518" lon="2.71795">
        <ele>89.9</ele>
        <time>2023-07-20T08:03:53Z</time>
      </trkpt>
      <trkpt lat="48.36518" lon="2.71793">
        <ele>89.9</ele>
        <time>2023-07-20T08:03:54Z</time>
      </trkpt>
      <trkpt lat="48.36518" lon="2.71792">
        <ele>89.9</ele>
        <time>2023-07-20T08:03:55Z</time>
      </trkpt>
      <trkpt lat="48.36519" lon="2.71789">
        <ele>89.9</ele>
        <time>2023-07-20T08:03:56Z</time>
      </trkpt>
      <trkpt lat="48.36519" lon="2.71788">
        <ele>89.9</ele>
        <time>2023-07-20T08:03:57Z</time>
      </trkpt>
      <trkpt lat="48.3652" lon="2.71787">
        <ele>89.9</ele>
        <time>2023-07-20T08:03:58Z</time>
      </trkpt>
      <trkpt lat="48.3652" lon="2.71787">
        <ele>89.9</ele>
        <time>2023-07-20T08:03:59Z</time>
      </trkpt>
      <trkpt lat="48.3652" lon="2.71784">
        <ele>89.9</ele>
        <time>2023-07-20T08:04:00Z</time>
      </trkpt>
      <trkpt lat="48.3652" lon="2.71783">
        <ele>90</ele>
        <time>2023-07-20T08:04:01Z</time>
      </trkpt>
      <trkpt lat="48.36519" lon="2.71782">
        <ele>90</ele>
        <time>2023-07-20T08:04:02Z</time>
      </trkpt>
      <trkpt lat="48.3652" lon="2.71782">
        <ele>90</ele>
        <time>2023-07-20T08:04:03Z</time>
      </trkpt>
      <trkpt lat="48.3652" lon="2.71781">
        <ele>90</ele>
        <time>2023-07-20T08:04:04Z</time>
      </trkpt>
      <trkpt lat="48.3652" lon="2.71781">
        <ele>90</ele>
        <time>2023-07-20T08:04:05Z</time>
      </trkpt>
      <trkpt lat="48.3652" lon="2.7178">
        <ele>90</ele>
        <time>2023-07-20T08:04:06Z</time>
      </trkpt>
      <trkpt lat="48.3652" lon="2.71779">
        <ele>90</ele>
        <time>2023-07-20T08:04:07Z</time>
      </trkpt>
      <trkpt lat="48.3652" lon="2.71778">
        <ele>90</ele>
        <time>2023-07-20T08:04:08Z</time>
      </trkpt>
      <trkpt lat="48.36521" lon="2.71776">
        <ele>90</ele>
        <time>2023-07-20T08:04:09Z</time>
      </trkpt>
      <trkpt lat="48.36522" lon="2.71775">
        <ele>90</ele>
        <time>2023-07-20T08:04:10Z</time>
      </trkpt>
      <trkpt lat="48.36522" lon="2.71775">
        <ele>90</ele>
        <time>2023-07-20T08:04:11Z</time>
      </trkpt>
      <trkpt lat="48.36522" lon="2.71774">
        <ele>90</ele>
        <time>2023-07-20T08:04:12Z</time>
      </trkpt>
      <trkpt lat="48.36523" lon="2.71773">
        <ele>90</ele>
        <time>2023-07-20T08:04:13Z</time>
      </trkpt>
      <trkpt lat="48.36522" lon="2.71772">
        <ele>90</ele>
        <time>2023-07-20T08:04:14Z</time>
      </trkpt>
      <trkpt lat="48.36523" lon="2.7177">
        <ele>90</ele>
        <time>2023-07-20T08:04:15Z</time>
      </trkpt>
      <trkpt lat="48.36524" lon="2.71768">
        <ele>90</ele>
        <time>2023-07-20T08:04:16Z</time>
      </trkpt>
      <trkpt lat="48.36524" lon="2.71766">
        <ele>90</ele>
        <time>2023-07-20T08:04:17Z</time>
      </trkpt>
      <trkpt lat="48.36524" lon="2.71765">
        <ele>90</ele>
        <time>2023-07-20T08:04:18Z</time>
      </trkpt>
      <trkpt lat="48.36524" lon="2.71763">
        <ele>90</ele>
        <time>2023-07-20T08:04:19Z</time>
      </trkpt>
      <trkpt lat="48.36524" lon="2.71762">
        <ele>90</ele>
        <time>2023-07-20T08:04:20Z</time>
      </trkpt>
      <trkpt lat="48.36524" lon="2.71761">
        <ele>90</ele>
        <time>2023-07-20T08:04:21Z</time>
      </trkpt>
      <trkpt lat="48.36524" lon="2.7176">
        <ele>90.1</ele>
        <time>2023-07-20T08:04:22Z</time>
      </trkpt>
      <trkpt lat="48.36524" lon="2.71758">
        <ele>90.1</ele>
        <time>2023-07-20T08:04:23Z</time>
      </trkpt>
      <trkpt lat="48.36524" lon="2.71759">
        <ele>90.1</ele>
        <time>2023-07-20T08:04:24Z</time>
      </trkpt>
      <trkpt lat="48.36523" lon="2.7176">
        <ele>90.1</ele>
        <time>2023-07-20T08:04:25Z</time>
      </trkpt>
      <trkpt lat="48.36523" lon="2.7176">
        <ele>90.1</ele>
        <time>2023-07-20T08:04:26Z</time>
      </trkpt>
      <trkpt lat="48.36522" lon="2.7176">
        <ele>90.1</ele>
        <time>2023-07-20T08:04:27Z</time>
      </trkpt>
      <trkpt lat="48.36523" lon="2.71759">
        <ele>90.1</ele>
        <time>2023-07-20T08:04:28Z</time>
      </trkpt>
      <trkpt lat="48.36524" lon="2.71759">
        <ele>90.1</ele>
        <time>2023-07-20T08:04:29Z</time>
      </trkpt>
      <trkpt lat="48.36525" lon="2.71759">
        <ele>90.1</ele>
        <time>2023-07-20T08:04:30Z</time>
      </trkpt>
      <trkpt lat="48.36525" lon="2.71761">
        <ele>90.1</ele>
        <time>2023-07-20T08:04:31Z</time>
      </trkpt>
      <trkpt lat="48.36525" lon="2.71761">
        <ele>90.1</ele>
        <time>2023-07-20T08:04:32Z</time>
      </trkpt>
      <trkpt lat="48.36525" lon="2.71761">
        <ele>90.1</ele>
        <time>2023-07-20T08:04:33Z</time>
      </trkpt>
      <trkpt lat="48.36525" lon="2.71759">
        <ele>90.1</ele>
        <time>2023-07-20T08:04:34Z</time>
      </trkpt>
      <trkpt lat="48.36525" lon="2.71756">
        <ele>90.1</ele>
        <time>2023-07-20T08:04:35Z</time>
      </trkpt>
      <trkpt lat="48.36524" lon="2.71755">
        <ele>90.1</ele>
        <time>2023-07-20T08:04:36Z</time>
      </trkpt>
      <trkpt lat="48.36524" lon="2.71753">
        <ele>90.2</ele>
        <time>2023-07-20T08:04:37Z</time>
      </trkpt>
      <trkpt lat="48.36525" lon="2.71751">
        <ele>90.2</ele>
        <time>2023-07-20T08:04:38Z</time>
      </trkpt>
      <trkpt lat="48.36525" lon="2.71749">
        <ele>90.2</ele>
        <time>2023-07-20T08:04:39Z</time>
      </trkpt>
      <trkpt lat="48.36525" lon="2.71746">
        <ele>90.2</ele>
        <time>2023-07-20T08:04:40Z</time>
      </trkpt>
      <trkpt lat="48.36525" lon="2.71744">
        <ele>90.2</ele>
        <time>2023-07-20T08:04:41Z</time>
      </trkpt>
      <trkpt lat="48.36525" lon="2.71742">
        <ele>90.2</ele>
        <time>2023-07-20T08:04:42Z</time>
      </trkpt>
      <trkpt lat="48.36525" lon="2.71739">
        <ele>90.3</ele>
        <time>2023-07-20T08:04:43Z</time>
      </trkpt>
      <trkpt lat="48.36525" lon="2.71737">
        <ele>90.3</ele>
        <time>2023-07-20T08:04:44Z</time>
      </trkpt>
      <trkpt lat="48.36524" lon="2.71735">
        <ele>90.3</ele>
        <time>2023-07-20T08:04:45Z</time>
      </trkpt>
      <trkpt lat="48.36524" lon="2.71733">
        <ele>90.3</ele>
        <time>2023-07-20T08:04:46Z</time>
      </trkpt>
      <trkpt lat="48.36524" lon="2.71732">
        <ele>90.4</ele>
        <time>2023-07-20T08:04:47Z</time>
      </trkpt>
      <trkpt lat="48.36525" lon="2.71731">
        <ele>90.4</ele>
        <time>2023-07-20T08:04:48Z</time>
      </trkpt>
      <trkpt lat="48.36525" lon="2.7173">
        <ele>90.4</ele>
        <time>2023-07-20T08:04:49Z</time>
      </trkpt>
      <trkpt lat="48.36525" lon="2.71728">
        <ele>90.4</ele>
        <time>2023-07-20T08:04:50Z</time>
      </trkpt>
      <trkpt lat="48.36525" lon="2.71726">
        <ele>90.4</ele>
        <time>2023-07-20T08:04:51Z</time>
      </trkpt>
      <trkpt lat="48.36525" lon="2.71724">
        <ele>90.5</ele>
        <time>2023-07-20T08:04:52Z</time>
      </trkpt>
      <trkpt lat="48.36525" lon="2.71722">
        <ele>90.5</ele>
        <time>2023-07-20T08:04:53Z</time>
      </trkpt>
      <trkpt lat="48.36526" lon="2.71721">
        <ele>90.5</ele>
        <time>2023-07-20T08:04:54Z</time>
      </trkpt>
      <trkpt lat="48.36526" lon="2.71719">
        <ele>90.5</ele>
        <time>2023-07-20T08:04:55Z</time>
      </trkpt>
      <trkpt lat="48.36526" lon="2.71717">
        <ele>90.6</ele>
        <time>2023-07-20T08:04:56Z</time>
      </trkpt>
      <trkpt lat="48.36526" lon="2.71716">
        <ele>90.6</ele>
        <time>2023-07-20T08:04:57Z</time>
      </trkpt>
      <trkpt lat="48.36527" lon="2.71714">
        <ele>90.6</ele>
        <time>2023-07-20T08:04:58Z</time>
      </trkpt>
      <trkpt lat="48.36527" lon="2.71712">
        <ele>90.6</ele>
        <time>2023-07-20T08:04:59Z</time>
      </trkpt>
      <trkpt lat="48.36527" lon="2.71712">
        <ele>90.6</ele>
        <time>2023-07-20T08:05:00Z</time>
      </trkpt>
      <trkpt lat="48.36526" lon="2.71711">
        <ele>90.7</ele>
        <time>2023-07-20T08:05:01Z</time>
      </trkpt>
      <trkpt lat="48.36525" lon="2.7171">
        <ele>90.7</ele>
        <time>2023-07-20T08:05:02Z</time>
      </trkpt>
      <trkpt lat="48.36525" lon="2.71708">
        <ele>90.7</ele>
        <time>2023-07-20T08:05:03Z</time>
      </trkpt>
      <trkpt lat="48.36526" lon="2.71707">
        <ele>90.7</ele>
        <time>2023-07-20T08:05:04Z</time>
      </trkpt>
      <trkpt lat="48.36526" lon="2.71707">
        <ele>90.7</ele>
        <time>2023-07-20T08:05:05Z</time>
      </trkpt>
      <trkpt lat="48.36525" lon="2.71706">
        <ele>90.8</ele>
        <time>2023-07-20T08:05:06Z</time>
      </trkpt>
      <trkpt lat="48.36525" lon="2.71706">
        <ele>90.8</ele>
        <time>2023-07-20T08:05:07Z</time>
      </trkpt>
      <trkpt lat="48.36525" lon="2.71704">
        <ele>90.8</ele>
        <time>2023-07-20T08:05:08Z</time>
      </trkpt>
      <trkpt lat="48.36525" lon="2.71702">
        <ele>90.8</ele>
        <time>2023-07-20T08:05:09Z</time>
      </trkpt>
      <trkpt lat="48.36525" lon="2.71698">
        <ele>90.9</ele>
        <time>2023-07-20T08:05:10Z</time>
      </trkpt>
      <trkpt lat="48.36526" lon="2.71697">
        <ele>90.9</ele>
        <time>2023-07-20T08:05:11Z</time>
      </trkpt>
      <trkpt lat="48.36526" lon="2.71696">
        <ele>90.9</ele>
        <time>2023-07-20T08:05:12Z</time>
      </trkpt>
      <trkpt lat="48.36526" lon="2.71694">
        <ele>91</ele>
        <time>2023-07-20T08:05:13Z</time>
      </trkpt>
      <trkpt lat="48.36527" lon="2.71693">
        <ele>91</ele>
        <time>2023-07-20T08:05:14Z</time>
      </trkpt>
      <trkpt lat="48.36526" lon="2.71692">
        <ele>91</ele>
        <time>2023-07-20T08:05:15Z</time>
      </trkpt>
      <trkpt lat="48.36526" lon="2.7169">
        <ele>91</ele>
        <time>2023-07-20T08:05:16Z</time>
      </trkpt>
      <trkpt lat="48.36527" lon="2.71688">
        <ele>91.1</ele>
        <time>2023-07-20T08:05:17Z</time>
      </trkpt>
      <trkpt lat="48.36527" lon="2.71687">
        <ele>91.1</ele>
        <time>2023-07-20T08:05:18Z</time>
      </trkpt>
      <trkpt lat="48.36527" lon="2.71685">
        <ele>91.1</ele>
        <time>2023-07-20T08:05:19Z</time>
      </trkpt>
      <trkpt lat="48.36528" lon="2.71684">
        <ele>91.2</ele>
        <time>2023-07-20T08:05:20Z</time>
      </trkpt>
      <trkpt lat="48.36528" lon="2.71682">
        <ele>91.2</ele>
        <time>2023-07-20T08:05:21Z</time>
      </trkpt>
      <trkpt lat="48.36528" lon="2.71678">
        <ele>91.3</ele>
        <time>2023-07-20T08:05:22Z</time>
      </trkpt>
      <trkpt lat="48.36528" lon="2.71676">
        <ele>91.3</ele>
        <time>2023-07-20T08:05:23Z</time>
      </trkpt>
      <trkpt lat="48.36528" lon="2.71675">
        <ele>91.3</ele>
        <time>2023-07-20T08:05:24Z</time>
      </trkpt>
      <trkpt lat="48.36529" lon="2.71673">
        <ele>91.4</ele>
        <time>2023-07-20T08:05:25Z</time>
      </trkpt>
      <trkpt lat="48.36529" lon="2.71672">
        <ele>91.4</ele>
        <time>2023-07-20T08:05:26Z</time>
      </trkpt>
      <trkpt lat="48.36529" lon="2.7167">
        <ele>91.4</ele>
        <time>2023-07-20T08:05:27Z</time>
      </trkpt>
      <trkpt lat="48.3653" lon="2.71669">
        <ele>91.5</ele>
        <time>2023-07-20T08:05:28Z</time>
      </trkpt>
      <trkpt lat="48.3653" lon="2.71667">
        <ele>91.5</ele>
        <time>2023-07-20T08:05:29Z</time>
      </trkpt>
      <trkpt lat="48.3653" lon="2.71666">
        <ele>91.5</ele>
        <time>2023-07-20T08:05:30Z</time>
      </trkpt>
      <trkpt lat="48.3653" lon="2.71664">
        <ele>91.6</ele>
        <time>2023-07-20T08:05:31Z</time>
      </trkpt>
      <trkpt lat="48.3653" lon="2.71661">
        <ele>91.6</ele>
        <time>2023-07-20T08:05:32Z</time>
      </trkpt>
      <trkpt lat="48.3653" lon="2.71659">
        <ele>91.6</ele>
        <time>2023-07-20T08:05:33Z</time>
      </trkpt>
      <trkpt lat="48.3653" lon="2.71658">
        <ele>91.7</ele>
        <time>2023-07-20T08:05:34Z</time>
      </trkpt>
      <trkpt lat="48.3653" lon="2.71657">
        <ele>91.7</ele>
        <time>2023-07-20T08:05:35Z</time>
      </trkpt>
      <trkpt lat="48.3653" lon="2.71656">
        <ele>91.7</ele>
        <time>2023-07-20T08:05:36Z</time>
      </trkpt>
      <trkpt lat="48.3653" lon="2.71654">
        <ele>91.7</ele>
        <time>2023-07-20T08:05:37Z</time>
      </trkpt>
      <trkpt lat="48.3653" lon="2.71652">
        <ele>91.8</ele>
        <time>2023-07-20T08:05:38Z</time>
      </trkpt>
      <trkpt lat="48.3653" lon="2.71651">
        <ele>91.8</ele>
        <time>2023-07-20T08:05:39Z</time>
      </trkpt>
      <trkpt lat="48.3653" lon="2.71649">
        <ele>91.8</ele>
        <time>2023-07-20T08:05:40Z</time>
      </trkpt>
      <trkpt lat="48.3653" lon="2.71648">
        <ele>91.9</ele>
        <time>2023-07-20T08:05:41Z</time>
      </trkpt>
      <trkpt lat="48.3653" lon="2.71647">
        <ele>91.9</ele>
        <time>2023-07-20T08:05:42Z</time>
      </trkpt>
      <trkpt lat="48.3653" lon="2.71646">
        <ele>91.9</ele>
        <time>2023-07-20T08:05:43Z</time>
      </trkpt>
      <trkpt lat="48.3653" lon="2.71645">
        <ele>91.9</ele>
        <time>2023-07-20T08:05:44Z</time>
      </trkpt>
      <trkpt lat="48.3653" lon="2.71645">
        <ele>91.9</ele>
        <time>2023-07-20T08:05:45Z</time>
      </trkpt>
      <trkpt lat="48.36531" lon="2.71644">
        <ele>91.9</ele>
        <time>2023-07-20T08:05:46Z</time>
      </trkpt>
      <trkpt lat="48.36531" lon="2.71643">
        <ele>92</ele>
        <time>2023-07-20T08:05:47Z</time>
      </trkpt>
      <trkpt lat="48.36531" lon="2.71642">
        <ele>92</ele>
        <time>2023-07-20T08:05:48Z</time>
      </trkpt>
      <trkpt lat="48.36531" lon="2.71641">
        <ele>92</ele>
        <time>2023-07-20T08:05:49Z</time>
      </trkpt>
      <trkpt lat="48.36531" lon="2.7164">
        <ele>92</ele>
        <time>2023-07-20T08:05:50Z</time>
      </trkpt>
      <trkpt lat="48.36531" lon="2.71639">
        <ele>92</ele>
        <time>2023-07-20T08:05:51Z</time>
      </trkpt>
      <trkpt lat="48.36532" lon="2.71636">
        <ele>92.1</ele>
        <time>2023-07-20T08:05:52Z</time>
      </trkpt>
      <trkpt lat="48.36532" lon="2.71634">
        <ele>92.1</ele>
        <time>2023-07-20T08:05:53Z</time>
      </trkpt>
      <trkpt lat="48.36532" lon="2.71633">
        <ele>92.2</ele>
        <time>2023-07-20T08:05:54Z</time>
      </trkpt>
      <trkpt lat="48.36532" lon="2.71631">
        <ele>92.2</ele>
        <time>2023-07-20T08:05:55Z</time>
      </trkpt>
      <trkpt lat="48.36532" lon="2.7163">
        <ele>92.2</ele>
        <time>2023-07-20T08:05:56Z</time>
      </trkpt>
      <trkpt lat="48.36532" lon="2.71627">
        <ele>92.3</ele>
        <time>2023-07-20T08:05:57Z</time>
      </trkpt>
      <trkpt lat="48.36532" lon="2.71626">
        <ele>92.3</ele>
        <time>2023-07-20T08:05:58Z</time>
      </trkpt>
      <trkpt lat="48.36532" lon="2.71624">
        <ele>92.3</ele>
        <time>2023-07-20T08:05:59Z</time>
      </trkpt>
      <trkpt lat="48.36533" lon="2.71621">
        <ele>92.4</ele>
        <time>2023-07-20T08:06:00Z</time>
      </trkpt>
      <trkpt lat="48.36533" lon="2.71619">
        <ele>92.4</ele>
        <time>2023-07-20T08:06:01Z</time>
      </trkpt>
      <trkpt lat="48.36534" lon="2.71618">
        <ele>92.5</ele>
        <time>2023-07-20T08:06:02Z</time>
      </trkpt>
      <trkpt lat="48.36534" lon="2.71615">
        <ele>92.5</ele>
        <time>2023-07-20T08:06:03Z</time>
      </trkpt>
      <trkpt lat="48.36534" lon="2.71614">
        <ele>92.5</ele>
        <time>2023-07-20T08:06:04Z</time>
      </trkpt>
      <trkpt lat="48.36534" lon="2.71612">
        <ele>92.6</ele>
        <time>2023-07-20T08:06:05Z</time>
      </trkpt>
      <trkpt lat="48.36534" lon="2.71611">
        <ele>92.6</ele>
        <time>2023-07-20T08:06:06Z</time>
      </trkpt>
      <trkpt lat="48.36534" lon="2.71609">
        <ele>92.6</ele>
        <time>2023-07-20T08:06:07Z</time>
      </trkpt>
      <trkpt lat="48.36534" lon="2.71607">
        <ele>92.7</ele>
        <time>2023-07-20T08:06:08Z</time>
      </trkpt>
      <trkpt lat="48.36533" lon="2.71605">
        <ele>92.7</ele>
        <time>2023-07-20T08:06:09Z</time>
      </trkpt>
      <trkpt lat="48.36533" lon="2.71604">
        <ele>92.7</ele>
        <time>2023-07-20T08:06:10Z</time>
      </trkpt>
      <trkpt lat="48.36532" lon="2.71602">
        <ele>92.7</ele>
        <time>2023-07-20T08:06:11Z</time>
      </trkpt>
      <trkpt lat="48.36531" lon="2.71602">
        <ele>92.8</ele>
        <time>2023-07-20T08:06:12Z</time>
      </trkpt>
      <trkpt lat="48.36531" lon="2.71601">
        <ele>92.8</ele>
        <time>2023-07-20T08:06:13Z</time>
      </trkpt>
      <trkpt lat="48.36532" lon="2.716">
        <ele>92.8</ele>
        <time>2023-07-20T08:06:14Z</time>
      </trkpt>
      <trkpt lat="48.36532" lon="2.716">
        <ele>92.8</ele>
        <time>2023-07-20T08:06:15Z</time>
      </trkpt>
      <trkpt lat="48.36533" lon="2.71598">
        <ele>92.8</ele>
        <time>2023-07-20T08:06:16Z</time>
      </trkpt>
      <trkpt lat="48.36533" lon="2.71596">
        <ele>92.9</ele>
        <time>2023-07-20T08:06:17Z</time>
      </trkpt>
      <trkpt lat="48.36533" lon="2.71596">
        <ele>92.9</ele>
        <time>2023-07-20T08:06:18Z</time>
      </trkpt>
      <trkpt lat="48.36533" lon="2.71596">
        <ele>92.9</ele>
        <time>2023-07-20T08:06:19Z</time>
      </trkpt>
      <trkpt lat="48.36534" lon="2.71595">
        <ele>92.9</ele>
        <time>2023-07-20T08:06:20Z</time>
      </trkpt>
      <trkpt lat="48.36535" lon="2.71593">
        <ele>92.9</ele>
        <time>2023-07-20T08:06:21Z</time>
      </trkpt>
      <trkpt lat="48.36537" lon="2.71589">
        <ele>93</ele>
        <time>2023-07-20T08:06:22Z</time>
      </trkpt>
      <trkpt lat="48.36537" lon="2.71587">
        <ele>93.1</ele>
        <time>2023-07-20T08:06:23Z</time>
      </trkpt>
      <trkpt lat="48.36539" lon="2.71583">
        <ele>93.1</ele>
        <time>2023-07-20T08:06:24Z</time>
      </trkpt>
      <trkpt lat="48.3654" lon="2.71582">
        <ele>93.2</ele>
        <time>2023-07-20T08:06:25Z</time>
      </trkpt>
      <trkpt lat="48.3654" lon="2.71581">
        <ele>93.2</ele>
        <time>2023-07-20T08:06:26Z</time>
      </trkpt>
      <trkpt lat="48.3654" lon="2.7158">
        <ele>93.2</ele>
        <time>2023-07-20T08:06:27Z</time>
      </trkpt>
      <trkpt lat="48.36541" lon="2.71579">
        <ele>93.2</ele>
        <time>2023-07-20T08:06:28Z</time>
      </trkpt>
      <trkpt lat="48.3654" lon="2.71579">
        <ele>93.2</ele>
        <time>2023-07-20T08:06:29Z</time>
      </trkpt>
      <trkpt lat="48.36541" lon="2.71577">
        <ele>93.3</ele>
        <time>2023-07-20T08:06:30Z</time>
      </trkpt>
      <trkpt lat="48.36541" lon="2.71575">
        <ele>93.3</ele>
        <time>2023-07-20T08:06:31Z</time>
      </trkpt>
      <trkpt lat="48.36542" lon="2.71574">
        <ele>93.3</ele>
        <time>2023-07-20T08:06:32Z</time>
      </trkpt>
      <trkpt lat="48.36542" lon="2.71573">
        <ele>93.4</ele>
        <time>2023-07-20T08:06:33Z</time>
      </trkpt>
      <trkpt lat="48.36542" lon="2.71571">
        <ele>93.4</ele>
        <time>2023-07-20T08:06:34Z</time>
      </trkpt>
      <trkpt lat="48.36541" lon="2.7157">
        <ele>93.4</ele>
        <time>2023-07-20T08:06:35Z</time>
      </trkpt>
      <trkpt lat="48.36541" lon="2.71569">
        <ele>93.4</ele>
        <time>2023-07-20T08:06:36Z</time>
      </trkpt>
      <trkpt lat="48.3654" lon="2.71568">
        <ele>93.5</ele>
        <time>2023-07-20T08:06:37Z</time>
      </trkpt>
      <trkpt lat="48.3654" lon="2.71566">
        <ele>93.5</ele>
        <time>2023-07-20T08:06:38Z</time>
      </trkpt>
      <trkpt lat="48.3654" lon="2.71564">
        <ele>93.5</ele>
        <time>2023-07-20T08:06:39Z</time>
      </trkpt>
      <trkpt lat="48.3654" lon="2.71563">
        <ele>93.6</ele>
        <time>2023-07-20T08:06:40Z</time>
      </trkpt>
      <trkpt lat="48.36539" lon="2.71562">
        <ele>93.6</ele>
        <time>2023-07-20T08:06:41Z</time>
      </trkpt>
      <trkpt lat="48.36539" lon="2.71561">
        <ele>93.6</ele>
        <time>2023-07-20T08:06:42Z</time>
      </trkpt>
      <trkpt lat="48.36538" lon="2.71559">
        <ele>93.7</ele>
        <time>2023-07-20T08:06:44Z</time>
      </trkpt>
      <trkpt lat="48.36538" lon="2.71558">
        <ele>93.7</ele>
        <time>2023-07-20T08:06:45Z</time>
      </trkpt>
      <trkpt lat="48.36538" lon="2.71556">
        <ele>93.7</ele>
        <time>2023-07-20T08:06:46Z</time>
      </trkpt>
      <trkpt lat="48.36539" lon="2.71554">
        <ele>93.7</ele>
        <time>2023-07-20T08:06:47Z</time>
      </trkpt>
      <trkpt lat="48.36538" lon="2.71552">
        <ele>93.8</ele>
        <time>2023-07-20T08:06:48Z</time>
      </trkpt>
      <trkpt lat="48.36539" lon="2.71552">
        <ele>93.8</ele>
        <time>2023-07-20T08:06:49Z</time>
      </trkpt>
      <trkpt lat="48.36539" lon="2.7155">
        <ele>93.8</ele>
        <time>2023-07-20T08:06:50Z</time>
      </trkpt>
      <trkpt lat="48.36539" lon="2.71547">
        <ele>93.9</ele>
        <time>2023-07-20T08:06:51Z</time>
      </trkpt>
      <trkpt lat="48.3654" lon="2.71545">
        <ele>93.9</ele>
        <time>2023-07-20T08:06:52Z</time>
      </trkpt>
      <trkpt lat="48.3654" lon="2.71543">
        <ele>93.9</ele>
        <time>2023-07-20T08:06:53Z</time>
      </trkpt>
      <trkpt lat="48.3654" lon="2.71541">
        <ele>94</ele>
        <time>2023-07-20T08:06:54Z</time>
      </trkpt>
      <trkpt lat="48.3654" lon="2.71539">
        <ele>94</ele>
        <time>2023-07-20T08:06:55Z</time>
      </trkpt>
      <trkpt lat="48.36541" lon="2.71538">
        <ele>94</ele>
        <time>2023-07-20T08:06:56Z</time>
      </trkpt>
      <trkpt lat="48.36541" lon="2.71536">
        <ele>94</ele>
        <time>2023-07-20T08:06:57Z</time>
      </trkpt>
      <trkpt lat="48.36541" lon="2.71534">
        <ele>94</ele>
        <time>2023-07-20T08:06:58Z</time>
      </trkpt>
      <trkpt lat="48.36542" lon="2.71532">
        <ele>94.1</ele>
        <time>2023-07-20T08:06:59Z</time>
      </trkpt>
      <trkpt lat="48.36542" lon="2.7153">
        <ele>94.1</ele>
        <time>2023-07-20T08:07:00Z</time>
      </trkpt>
      <trkpt lat="48.36542" lon="2.71527">
        <ele>94.1</ele>
        <time>2023-07-20T08:07:01Z</time>
      </trkpt>
      <trkpt lat="48.36542" lon="2.71525">
        <ele>94.2</ele>
        <time>2023-07-20T08:07:02Z</time>
      </trkpt>
      <trkpt lat="48.36543" lon="2.71523">
        <ele>94.2</ele>
        <time>2023-07-20T08:07:03Z</time>
      </trkpt>
      <trkpt lat="48.36542" lon="2.71522">
        <ele>94.2</ele>
        <time>2023-07-20T08:07:04Z</time>
      </trkpt>
      <trkpt lat="48.36542" lon="2.71521">
        <ele>94.2</ele>
        <time>2023-07-20T08:07:05Z</time>
      </trkpt>
      <trkpt lat="48.36542" lon="2.7152">
        <ele>94.2</ele>
        <time>2023-07-20T08:07:06Z</time>
      </trkpt>
      <trkpt lat="48.36543" lon="2.71519">
        <ele>94.3</ele>
        <time>2023-07-20T08:07:07Z</time>
      </trkpt>
      <trkpt lat="48.36543" lon="2.71518">
        <ele>94.3</ele>
        <time>2023-07-20T08:07:08Z</time>
      </trkpt>
      <trkpt lat="48.36543" lon="2.71517">
        <ele>94.3</ele>
        <time>2023-07-20T08:07:09Z</time>
      </trkpt>
      <trkpt lat="48.36543" lon="2.71515">
        <ele>94.3</ele>
        <time>2023-07-20T08:07:10Z</time>
      </trkpt>
      <trkpt lat="48.36543" lon="2.71513">
        <ele>94.3</ele>
        <time>2023-07-20T08:07:11Z</time>
      </trkpt>
      <trkpt lat="48.36543" lon="2.7151">
        <ele>94.4</ele>
        <time>2023-07-20T08:07:12Z</time>
      </trkpt>
      <trkpt lat="48.36543" lon="2.71508">
        <ele>94.4</ele>
        <time>2023-07-20T08:07:13Z</time>
      </trkpt>
      <trkpt lat="48.36543" lon="2.71507">
        <ele>94.4</ele>
        <time>2023-07-20T08:07:14Z</time>
      </trkpt>
      <trkpt lat="48.36544" lon="2.71507">
        <ele>94.4</ele>
        <time>2023-07-20T08:07:15Z</time>
      </trkpt>
      <trkpt lat="48.36544" lon="2.71506">
        <ele>94.4</ele>
        <time>2023-07-20T08:07:16Z</time>
      </trkpt>
      <trkpt lat="48.36544" lon="2.71505">
        <ele>94.4</ele>
        <time>2023-07-20T08:07:17Z</time>
      </trkpt>
      <trkpt lat="48.36544" lon="2.71503">
        <ele>94.5</ele>
        <time>2023-07-20T08:07:18Z</time>
      </trkpt>
      <trkpt lat="48.36544" lon="2.71502">
        <ele>94.5</ele>
        <time>2023-07-20T08:07:19Z</time>
      </trkpt>
      <trkpt lat="48.36544" lon="2.71501">
        <ele>94.5</ele>
        <time>2023-07-20T08:07:20Z</time>
      </trkpt>
      <trkpt lat="48.36543" lon="2.715">
        <ele>94.5</ele>
        <time>2023-07-20T08:07:21Z</time>
      </trkpt>
      <trkpt lat="48.36543" lon="2.71499">
        <ele>94.5</ele>
        <time>2023-07-20T08:07:22Z</time>
      </trkpt>
      <trkpt lat="48.36543" lon="2.71498">
        <ele>94.5</ele>
        <time>2023-07-20T08:07:23Z</time>
      </trkpt>
      <trkpt lat="48.36543" lon="2.71496">
        <ele>94.5</ele>
        <time>2023-07-20T08:07:24Z</time>
      </trkpt>
      <trkpt lat="48.36543" lon="2.71495">
        <ele>94.6</ele>
        <time>2023-07-20T08:07:25Z</time>
      </trkpt>
      <trkpt lat="48.36543" lon="2.71493">
        <ele>94.6</ele>
        <time>2023-07-20T08:07:26Z</time>
      </trkpt>
      <trkpt lat="48.36543" lon="2.71492">
        <ele>94.6</ele>
        <time>2023-07-20T08:07:27Z</time>
      </trkpt>
      <trkpt lat="48.36544" lon="2.71491">
        <ele>94.6</ele>
        <time>2023-07-20T08:07:28Z</time>
      </trkpt>
      <trkpt lat="48.36544" lon="2.71487">
        <ele>94.7</ele>
        <time>2023-07-20T08:07:29Z</time>
      </trkpt>
      <trkpt lat="48.36543" lon="2.71485">
        <ele>94.7</ele>
        <time>2023-07-20T08:07:30Z</time>
      </trkpt>
      <trkpt lat="48.36543" lon="2.71484">
        <ele>94.7</ele>
        <time>2023-07-20T08:07:31Z</time>
      </trkpt>
      <trkpt lat="48.36543" lon="2.71484">
        <ele>94.7</ele>
        <time>2023-07-20T08:07:32Z</time>
      </trkpt>
      <trkpt lat="48.36544" lon="2.71482">
        <ele>94.7</ele>
        <time>2023-07-20T08:07:33Z</time>
      </trkpt>
      <trkpt lat="48.36543" lon="2.7148">
        <ele>94.7</ele>
        <time>2023-07-20T08:07:34Z</time>
      </trkpt>
      <trkpt lat="48.36543" lon="2.71479">
        <ele>94.8</ele>
        <time>2023-07-20T08:07:35Z</time>
      </trkpt>
      <trkpt lat="48.36543" lon="2.71477">
        <ele>94.8</ele>
        <time>2023-07-20T08:07:36Z</time>
      </trkpt>
      <trkpt lat="48.36543" lon="2.71475">
        <ele>94.8</ele>
        <time>2023-07-20T08:07:37Z</time>
      </trkpt>
      <trkpt lat="48.36543" lon="2.71473">
        <ele>94.8</ele>
        <time>2023-07-20T08:07:38Z</time>
      </trkpt>
      <trkpt lat="48.36543" lon="2.71474">
        <ele>94.8</ele>
        <time>2023-07-20T08:07:39Z</time>
      </trkpt>
      <trkpt lat="48.36543" lon="2.71473">
        <ele>94.9</ele>
        <time>2023-07-20T08:07:40Z</time>
      </trkpt>
      <trkpt lat="48.36544" lon="2.7147">
        <ele>94.9</ele>
        <time>2023-07-20T08:07:41Z</time>
      </trkpt>
      <trkpt lat="48.36544" lon="2.71467">
        <ele>94.9</ele>
        <time>2023-07-20T08:07:42Z</time>
      </trkpt>
      <trkpt lat="48.36544" lon="2.71466">
        <ele>94.9</ele>
        <time>2023-07-20T08:07:43Z</time>
      </trkpt>
      <trkpt lat="48.36544" lon="2.71465">
        <ele>94.9</ele>
        <time>2023-07-20T08:07:44Z</time>
      </trkpt>
      <trkpt lat="48.36544" lon="2.71462">
        <ele>95</ele>
        <time>2023-07-20T08:07:45Z</time>
      </trkpt>
      <trkpt lat="48.36544" lon="2.7146">
        <ele>95</ele>
        <time>2023-07-20T08:07:46Z</time>
      </trkpt>
      <trkpt lat="48.36544" lon="2.71458">
        <ele>95</ele>
        <time>2023-07-20T08:07:47Z</time>
      </trkpt>
      <trkpt lat="48.36544" lon="2.71456">
        <ele>95</ele>
        <time>2023-07-20T08:07:48Z</time>
      </trkpt>
      <trkpt lat="48.36544" lon="2.71455">
        <ele>95</ele>
        <time>2023-07-20T08:07:49Z</time>
      </trkpt>
      <trkpt lat="48.36544" lon="2.71455">
        <ele>95</ele>
        <time>2023-07-20T08:07:50Z</time>
      </trkpt>
      <trkpt lat="48.36543" lon="2.71453">
        <ele>95.1</ele>
        <time>2023-07-20T08:07:51Z</time>
      </trkpt>
      <trkpt lat="48.36543" lon="2.71452">
        <ele>95.1</ele>
        <time>2023-07-20T08:07:52Z</time>
      </trkpt>
      <trkpt lat="48.36543" lon="2.7145">
        <ele>95.1</ele>
        <time>2023-07-20T08:07:53Z</time>
      </trkpt>
      <trkpt lat="48.36543" lon="2.7145">
        <ele>95.1</ele>
        <time>2023-07-20T08:07:54Z</time>
      </trkpt>
      <trkpt lat="48.36543" lon="2.71449">
        <ele>95.1</ele>
        <time>2023-07-20T08:07:55Z</time>
      </trkpt>
      <trkpt lat="48.36544" lon="2.71446">
        <ele>95.2</ele>
        <time>2023-07-20T08:07:56Z</time>
      </trkpt>
      <trkpt lat="48.36544" lon="2.71444">
        <ele>95.2</ele>
        <time>2023-07-20T08:07:57Z</time>
      </trkpt>
      <trkpt lat="48.36544" lon="2.71443">
        <ele>95.2</ele>
        <time>2023-07-20T08:07:58Z</time>
      </trkpt>
      <trkpt lat="48.36545" lon="2.7144">
        <ele>95.2</ele>
        <time>2023-07-20T08:07:59Z</time>
      </trkpt>
      <trkpt lat="48.36545" lon="2.71439">
        <ele>95.2</ele>
        <time>2023-07-20T08:08:00Z</time>
      </trkpt>
      <trkpt lat="48.36545" lon="2.71438">
        <ele>95.3</ele>
        <time>2023-07-20T08:08:01Z</time>
      </trkpt>
      <trkpt lat="48.36546" lon="2.71435">
        <ele>95.3</ele>
        <time>2023-07-20T08:08:02Z</time>
      </trkpt>
      <trkpt lat="48.36547" lon="2.71434">
        <ele>95.3</ele>
        <time>2023-07-20T08:08:03Z</time>
      </trkpt>
      <trkpt lat="48.36547" lon="2.71435">
        <ele>95.3</ele>
        <time>2023-07-20T08:08:04Z</time>
      </trkpt>
      <trkpt lat="48.36546" lon="2.71434">
        <ele>95.3</ele>
        <time>2023-07-20T08:08:05Z</time>
      </trkpt>
      <trkpt lat="48.36546" lon="2.71434">
        <ele>95.4</ele>
        <time>2023-07-20T08:08:06Z</time>
      </trkpt>
      <trkpt lat="48.36545" lon="2.71434">
        <ele>95.4</ele>
        <time>2023-07-20T08:08:07Z</time>
      </trkpt>
      <trkpt lat="48.36544" lon="2.71434">
        <ele>95.4</ele>
        <time>2023-07-20T08:08:08Z</time>
      </trkpt>
      <trkpt lat="48.36544" lon="2.71434">
        <ele>95.4</ele>
        <time>2023-07-20T08:08:09Z</time>
      </trkpt>
      <trkpt lat="48.36544" lon="2.71435">
        <ele>95.4</ele>
        <time>2023-07-20T08:08:10Z</time>
      </trkpt>
      <trkpt lat="48.36544" lon="2.71435">
        <ele>95.4</ele>
        <time>2023-07-20T08:08:11Z</time>
      </trkpt>
      <trkpt lat="48.36544" lon="2.71434">
        <ele>95.4</ele>
        <time>2023-07-20T08:08:12Z</time>
      </trkpt>
      <trkpt lat="48.36545" lon="2.71434">
        <ele>95.4</ele>
        <time>2023-07-20T08:08:13Z</time>
      </trkpt>
      <trkpt lat="48.36545" lon="2.71432">
        <ele>95.4</ele>
        <time>2023-07-20T08:08:14Z</time>
      </trkpt>
      <trkpt lat="48.36545" lon="2.71431">
        <ele>95.5</ele>
        <time>2023-07-20T08:08:15Z</time>
      </trkpt>
      <trkpt lat="48.36546" lon="2.71429">
        <ele>95.5</ele>
        <time>2023-07-20T08:08:16Z</time>
      </trkpt>
      <trkpt lat="48.36546" lon="2.71426">
        <ele>95.5</ele>
        <time>2023-07-20T08:08:17Z</time>
      </trkpt>
      <trkpt lat="48.36546" lon="2.71424">
        <ele>95.6</ele>
        <time>2023-07-20T08:08:18Z</time>
      </trkpt>
      <trkpt lat="48.36546" lon="2.71422">
        <ele>95.6</ele>
        <time>2023-07-20T08:08:19Z</time>
      </trkpt>
      <trkpt lat="48.36546" lon="2.71421">
        <ele>95.6</ele>
        <time>2023-07-20T08:08:20Z</time>
      </trkpt>
      <trkpt lat="48.36546" lon="2.7142">
        <ele>95.6</ele>
        <time>2023-07-20T08:08:21Z</time>
      </trkpt>
      <trkpt lat="48.36546" lon="2.71419">
        <ele>95.6</ele>
        <time>2023-07-20T08:08:22Z</time>
      </trkpt>
      <trkpt lat="48.36546" lon="2.71417">
        <ele>95.7</ele>
        <time>2023-07-20T08:08:23Z</time>
      </trkpt>
      <trkpt lat="48.36546" lon="2.71415">
        <ele>95.7</ele>
        <time>2023-07-20T08:08:24Z</time>
      </trkpt>
      <trkpt lat="48.36545" lon="2.71414">
        <ele>95.7</ele>
        <time>2023-07-20T08:08:25Z</time>
      </trkpt>
      <trkpt lat="48.36545" lon="2.71413">
        <ele>95.7</ele>
        <time>2023-07-20T08:08:26Z</time>
      </trkpt>
      <trkpt lat="48.36545" lon="2.71412">
        <ele>95.7</ele>
        <time>2023-07-20T08:08:27Z</time>
      </trkpt>
      <trkpt lat="48.36545" lon="2.71411">
        <ele>95.8</ele>
        <time>2023-07-20T08:08:28Z</time>
      </trkpt>
      <trkpt lat="48.36545" lon="2.71409">
        <ele>95.8</ele>
        <time>2023-07-20T08:08:29Z</time>
      </trkpt>
      <trkpt lat="48.36544" lon="2.71408">
        <ele>95.8</ele>
        <time>2023-07-20T08:08:30Z</time>
      </trkpt>
      <trkpt lat="48.36544" lon="2.71407">
        <ele>95.8</ele>
        <time>2023-07-20T08:08:31Z</time>
      </trkpt>
      <trkpt lat="48.36543" lon="2.71406">
        <ele>95.9</ele>
        <time>2023-07-20T08:08:32Z</time>
      </trkpt>
      <trkpt lat="48.36543" lon="2.71405">
        <ele>95.9</ele>
        <time>2023-07-20T08:08:33Z</time>
      </trkpt>
      <trkpt lat="48.36542" lon="2.71404">
        <ele>95.9</ele>
        <time>2023-07-20T08:08:34Z</time>
      </trkpt>
      <trkpt lat="48.36542" lon="2.71403">
        <ele>95.9</ele>
        <time>2023-07-20T08:08:35Z</time>
      </trkpt>
      <trkpt lat="48.36542" lon="2.71401">
        <ele>95.9</ele>
        <time>2023-07-20T08:08:36Z</time>
      </trkpt>
      <trkpt lat="48.36542" lon="2.714">
        <ele>96</ele>
        <time>2023-07-20T08:08:37Z</time>
      </trkpt>
      <trkpt lat="48.36542" lon="2.71398">
        <ele>96</ele>
        <time>2023-07-20T08:08:38Z</time>
      </trkpt>
      <trkpt lat="48.36542" lon="2.71395">
        <ele>96</ele>
        <time>2023-07-20T08:08:39Z</time>
      </trkpt>
      <trkpt lat="48.36542" lon="2.71394">
        <ele>96.1</ele>
        <time>2023-07-20T08:08:40Z</time>
      </trkpt>
      <trkpt lat="48.36542" lon="2.71392">
        <ele>96.1</ele>
        <time>2023-07-20T08:08:41Z</time>
      </trkpt>
      <trkpt lat="48.36542" lon="2.71391">
        <ele>96.1</ele>
        <time>2023-07-20T08:08:42Z</time>
      </trkpt>
      <trkpt lat="48.36542" lon="2.71389">
        <ele>96.1</ele>
        <time>2023-07-20T08:08:43Z</time>
      </trkpt>
      <trkpt lat="48.36541" lon="2.71386">
        <ele>96.2</ele>
        <time>2023-07-20T08:08:44Z</time>
      </trkpt>
      <trkpt lat="48.36541" lon="2.71384">
        <ele>96.2</ele>
        <time>2023-07-20T08:08:45Z</time>
      </trkpt>
      <trkpt lat="48.36541" lon="2.71382">
        <ele>96.2</ele>
        <time>2023-07-20T08:08:46Z</time>
      </trkpt>
      <trkpt lat="48.36542" lon="2.71378">
        <ele>96.3</ele>
        <time>2023-07-20T08:08:47Z</time>
      </trkpt>
      <trkpt lat="48.36542" lon="2.71376">
        <ele>96.3</ele>
        <time>2023-07-20T08:08:48Z</time>
      </trkpt>
      <trkpt lat="48.36542" lon="2.71375">
        <ele>96.3</ele>
        <time>2023-07-20T08:08:49Z</time>
      </trkpt>
      <trkpt lat="48.36541" lon="2.71373">
        <ele>96.4</ele>
        <time>2023-07-20T08:08:50Z</time>
      </trkpt>
      <trkpt lat="48.36541" lon="2.71371">
        <ele>96.4</ele>
        <time>2023-07-20T08:08:51Z</time>
      </trkpt>
      <trkpt lat="48.36541" lon="2.71371">
        <ele>96.4</ele>
        <time>2023-07-20T08:08:52Z</time>
      </trkpt>
      <trkpt lat="48.36541" lon="2.71369">
        <ele>96.4</ele>
        <time>2023-07-20T08:08:53Z</time>
      </trkpt>
      <trkpt lat="48.36541" lon="2.71368">
        <ele>96.4</ele>
        <time>2023-07-20T08:08:54Z</time>
      </trkpt>
      <trkpt lat="48.3654" lon="2.71367">
        <ele>96.5</ele>
        <time>2023-07-20T08:08:55Z</time>
      </trkpt>
      <trkpt lat="48.3654" lon="2.71365">
        <ele>96.5</ele>
        <time>2023-07-20T08:08:56Z</time>
      </trkpt>
      <trkpt lat="48.3654" lon="2.71363">
        <ele>96.5</ele>
        <time>2023-07-20T08:08:57Z</time>
      </trkpt>
      <trkpt lat="48.36541" lon="2.71362">
        <ele>96.6</ele>
        <time>2023-07-20T08:08:58Z</time>
      </trkpt>
      <trkpt lat="48.36541" lon="2.71358">
        <ele>96.6</ele>
        <time>2023-07-20T08:08:59Z</time>
      </trkpt>
      <trkpt lat="48.36541" lon="2.71357">
        <ele>96.6</ele>
        <time>2023-07-20T08:09:00Z</time>
      </trkpt>
      <trkpt lat="48.3654" lon="2.71355">
        <ele>96.7</ele>
        <time>2023-07-20T08:09:01Z</time>
      </trkpt>
      <trkpt lat="48.3654" lon="2.71354">
        <ele>96.7</ele>
        <time>2023-07-20T08:09:02Z</time>
      </trkpt>
      <trkpt lat="48.3654" lon="2.71352">
        <ele>96.7</ele>
        <time>2023-07-20T08:09:03Z</time>
      </trkpt>
      <trkpt lat="48.3654" lon="2.71351">
        <ele>96.8</ele>
        <time>2023-07-20T08:09:04Z</time>
      </trkpt>
      <trkpt lat="48.3654" lon="2.71349">
        <ele>96.8</ele>
        <time>2023-07-20T08:09:05Z</time>
      </trkpt>
      <trkpt lat="48.3654" lon="2.71347">
        <ele>96.8</ele>
        <time>2023-07-20T08:09:06Z</time>
      </trkpt>
      <trkpt lat="48.3654" lon="2.71345">
        <ele>96.8</ele>
        <time>2023-07-20T08:09:07Z</time>
      </trkpt>
      <trkpt lat="48.36541" lon="2.71344">
        <ele>96.9</ele>
        <time>2023-07-20T08:09:08Z</time>
      </trkpt>
      <trkpt lat="48.36541" lon="2.71343">
        <ele>96.9</ele>
        <time>2023-07-20T08:09:09Z</time>
      </trkpt>
      <trkpt lat="48.36541" lon="2.71342">
        <ele>96.9</ele>
        <time>2023-07-20T08:09:10Z</time>
      </trkpt>
      <trkpt lat="48.36541" lon="2.71341">
        <ele>96.9</ele>
        <time>2023-07-20T08:09:11Z</time>
      </trkpt>
      <trkpt lat="48.36541" lon="2.7134">
        <ele>96.9</ele>
        <time>2023-07-20T08:09:12Z</time>
      </trkpt>
      <trkpt lat="48.36541" lon="2.71336">
        <ele>97</ele>
        <time>2023-07-20T08:09:13Z</time>
      </trkpt>
      <trkpt lat="48.36541" lon="2.71335">
        <ele>97</ele>
        <time>2023-07-20T08:09:14Z</time>
      </trkpt>
      <trkpt lat="48.36541" lon="2.71333">
        <ele>97.1</ele>
        <time>2023-07-20T08:09:15Z</time>
      </trkpt>
      <trkpt lat="48.36541" lon="2.7133">
        <ele>97.1</ele>
        <time>2023-07-20T08:09:16Z</time>
      </trkpt>
      <trkpt lat="48.36541" lon="2.71329">
        <ele>97.1</ele>
        <time>2023-07-20T08:09:17Z</time>
      </trkpt>
      <trkpt lat="48.36541" lon="2.71328">
        <ele>97.2</ele>
        <time>2023-07-20T08:09:18Z</time>
      </trkpt>
      <trkpt lat="48.36541" lon="2.71326">
        <ele>97.2</ele>
        <time>2023-07-20T08:09:19Z</time>
      </trkpt>
      <trkpt lat="48.36541" lon="2.71325">
        <ele>97.2</ele>
        <time>2023-07-20T08:09:20Z</time>
      </trkpt>
      <trkpt lat="48.36541" lon="2.71323">
        <ele>97.2</ele>
        <time>2023-07-20T08:09:21Z</time>
      </trkpt>
      <trkpt lat="48.36541" lon="2.71322">
        <ele>97.3</ele>
        <time>2023-07-20T08:09:22Z</time>
      </trkpt>
      <trkpt lat="48.36541" lon="2.7132">
        <ele>97.3</ele>
        <time>2023-07-20T08:09:23Z</time>
      </trkpt>
      <trkpt lat="48.36541" lon="2.71319">
        <ele>97.3</ele>
        <time>2023-07-20T08:09:24Z</time>
      </trkpt>
      <trkpt lat="48.36541" lon="2.71317">
        <ele>97.4</ele>
        <time>2023-07-20T08:09:25Z</time>
      </trkpt>
      <trkpt lat="48.3654" lon="2.71316">
        <ele>97.4</ele>
        <time>2023-07-20T08:09:26Z</time>
      </trkpt>
      <trkpt lat="48.36541" lon="2.71316">
        <ele>97.4</ele>
        <time>2023-07-20T08:09:27Z</time>
      </trkpt>
      <trkpt lat="48.36541" lon="2.71314">
        <ele>97.4</ele>
        <time>2023-07-20T08:09:28Z</time>
      </trkpt>
      <trkpt lat="48.36541" lon="2.71313">
        <ele>97.5</ele>
        <time>2023-07-20T08:09:29Z</time>
      </trkpt>
      <trkpt lat="48.36541" lon="2.71311">
        <ele>97.5</ele>
        <time>2023-07-20T08:09:30Z</time>
      </trkpt>
      <trkpt lat="48.36541" lon="2.7131">
        <ele>97.5</ele>
        <time>2023-07-20T08:09:31Z</time>
      </trkpt>
      <trkpt lat="48.36542" lon="2.71309">
        <ele>97.6</ele>
        <time>2023-07-20T08:09:32Z</time>
      </trkpt>
      <trkpt lat="48.36541" lon="2.71308">
        <ele>97.6</ele>
        <time>2023-07-20T08:09:33Z</time>
      </trkpt>
      <trkpt lat="48.36542" lon="2.71305">
        <ele>97.6</ele>
        <time>2023-07-20T08:09:34Z</time>
      </trkpt>
      <trkpt lat="48.36543" lon="2.71304">
        <ele>97.7</ele>
        <time>2023-07-20T08:09:35Z</time>
      </trkpt>
      <trkpt lat="48.36543" lon="2.71302">
        <ele>97.7</ele>
        <time>2023-07-20T08:09:36Z</time>
      </trkpt>
      <trkpt lat="48.36543" lon="2.71301">
        <ele>97.7</ele>
        <time>2023-07-20T08:09:37Z</time>
      </trkpt>
      <trkpt lat="48.36544" lon="2.71299">
        <ele>97.8</ele>
        <time>2023-07-20T08:09:38Z</time>
      </trkpt>
      <trkpt lat="48.36544" lon="2.71297">
        <ele>97.9</ele>
        <time>2023-07-20T08:09:39Z</time>
      </trkpt>
      <trkpt lat="48.36545" lon="2.71296">
        <ele>97.9</ele>
        <time>2023-07-20T08:09:40Z</time>
      </trkpt>
      <trkpt lat="48.36546" lon="2.71296">
        <ele>97.9</ele>
        <time>2023-07-20T08:09:41Z</time>
      </trkpt>
      <trkpt lat="48.36546" lon="2.71295">
        <ele>98</ele>
        <time>2023-07-20T08:09:42Z</time>
      </trkpt>
      <trkpt lat="48.36548" lon="2.71296">
        <ele>98.1</ele>
        <time>2023-07-20T08:09:43Z</time>
      </trkpt>
      <trkpt lat="48.36549" lon="2.71297">
        <ele>98.1</ele>
        <time>2023-07-20T08:09:44Z</time>
      </trkpt>
      <trkpt lat="48.3655" lon="2.71297">
        <ele>98.1</ele>
        <time>2023-07-20T08:09:45Z</time>
      </trkpt>
      <trkpt lat="48.3655" lon="2.71298">
        <ele>98.2</ele>
        <time>2023-07-20T08:09:46Z</time>
      </trkpt>
      <trkpt lat="48.36552" lon="2.71299">
        <ele>98.2</ele>
        <time>2023-07-20T08:09:47Z</time>
      </trkpt>
      <trkpt lat="48.36552" lon="2.71299">
        <ele>98.3</ele>
        <time>2023-07-20T08:09:48Z</time>
      </trkpt>
      <trkpt lat="48.36553" lon="2.713">
        <ele>98.4</ele>
        <time>2023-07-20T08:09:49Z</time>
      </trkpt>
      <trkpt lat="48.36554" lon="2.71298">
        <ele>98.4</ele>
        <time>2023-07-20T08:09:50Z</time>
      </trkpt>
      <trkpt lat="48.36555" lon="2.71298">
        <ele>98.4</ele>
        <time>2023-07-20T08:09:51Z</time>
      </trkpt>
      <trkpt lat="48.36555" lon="2.71298">
        <ele>98.4</ele>
        <time>2023-07-20T08:09:53Z</time>
      </trkpt>
      <trkpt lat="48.36556" lon="2.71297">
        <ele>98.4</ele>
        <time>2023-07-20T08:09:54Z</time>
      </trkpt>
      <trkpt lat="48.36557" lon="2.71298">
        <ele>98.4</ele>
        <time>2023-07-20T08:09:55Z</time>
      </trkpt>
      <trkpt lat="48.36558" lon="2.71298">
        <ele>98.4</ele>
        <time>2023-07-20T08:09:56Z</time>
      </trkpt>
      <trkpt lat="48.36559" lon="2.71299">
        <ele>98.4</ele>
        <time>2023-07-20T08:09:57Z</time>
      </trkpt>
      <trkpt lat="48.36561" lon="2.71301">
        <ele>98.4</ele>
        <time>2023-07-20T08:09:58Z</time>
      </trkpt>
      <trkpt lat="48.36562" lon="2.71302">
        <ele>98.4</ele>
        <time>2023-07-20T08:09:59Z</time>
      </trkpt>
      <trkpt lat="48.36564" lon="2.71302">
        <ele>98.4</ele>
        <time>2023-07-20T08:10:00Z</time>
      </trkpt>
      <trkpt lat="48.36565" lon="2.71303">
        <ele>98.4</ele>
        <time>2023-07-20T08:10:01Z</time>
      </trkpt>
      <trkpt lat="48.36567" lon="2.71305">
        <ele>98.3</ele>
        <time>2023-07-20T08:10:02Z</time>
      </trkpt>
      <trkpt lat="48.36568" lon="2.71305">
        <ele>98.3</ele>
        <time>2023-07-20T08:10:03Z</time>
      </trkpt>
      <trkpt lat="48.36569" lon="2.71306">
        <ele>98.3</ele>
        <time>2023-07-20T08:10:04Z</time>
      </trkpt>
      <trkpt lat="48.36571" lon="2.71307">
        <ele>98.3</ele>
        <time>2023-07-20T08:10:05Z</time>
      </trkpt>
      <trkpt lat="48.36572" lon="2.71307">
        <ele>98.3</ele>
        <time>2023-07-20T08:10:06Z</time>
      </trkpt>
      <trkpt lat="48.36573" lon="2.71308">
        <ele>98.3</ele>
        <time>2023-07-20T08:10:07Z</time>
      </trkpt>
      <trkpt lat="48.36573" lon="2.7131">
        <ele>98.3</ele>
        <time>2023-07-20T08:10:08Z</time>
      </trkpt>
      <trkpt lat="48.36574" lon="2.7131">
        <ele>98.4</ele>
        <time>2023-07-20T08:10:09Z</time>
      </trkpt>
      <trkpt lat="48.36576" lon="2.71311">
        <ele>98.4</ele>
        <time>2023-07-20T08:10:10Z</time>
      </trkpt>
      <trkpt lat="48.36576" lon="2.71311">
        <ele>98.4</ele>
        <time>2023-07-20T08:10:11Z</time>
      </trkpt>
      <trkpt lat="48.36577" lon="2.71311">
        <ele>98.4</ele>
        <time>2023-07-20T08:10:12Z</time>
      </trkpt>
      <trkpt lat="48.36578" lon="2.71311">
        <ele>98.4</ele>
        <time>2023-07-20T08:10:13Z</time>
      </trkpt>
      <trkpt lat="48.36579" lon="2.71311">
        <ele>98.4</ele>
        <time>2023-07-20T08:10:14Z</time>
      </trkpt>
      <trkpt lat="48.36581" lon="2.71311">
        <ele>98.4</ele>
        <time>2023-07-20T08:10:15Z</time>
      </trkpt>
      <trkpt lat="48.36583" lon="2.71311">
        <ele>98.4</ele>
        <time>2023-07-20T08:10:16Z</time>
      </trkpt>
      <trkpt lat="48.36584" lon="2.71312">
        <ele>98.4</ele>
        <time>2023-07-20T08:10:17Z</time>
      </trkpt>
      <trkpt lat="48.36585" lon="2.71313">
        <ele>98.4</ele>
        <time>2023-07-20T08:10:18Z</time>
      </trkpt>
      <trkpt lat="48.36586" lon="2.71314">
        <ele>98.4</ele>
        <time>2023-07-20T08:10:19Z</time>
      </trkpt>
      <trkpt lat="48.36587" lon="2.71314">
        <ele>98.4</ele>
        <time>2023-07-20T08:10:20Z</time>
      </trkpt>
      <trkpt lat="48.36588" lon="2.71315">
        <ele>98.4</ele>
        <time>2023-07-20T08:10:21Z</time>
      </trkpt>
      <trkpt lat="48.36588" lon="2.71316">
        <ele>98.4</ele>
        <time>2023-07-20T08:10:22Z</time>
      </trkpt>
      <trkpt lat="48.36588" lon="2.71316">
        <ele>98.4</ele>
        <time>2023-07-20T08:10:23Z</time>
      </trkpt>
      <trkpt lat="48.36588" lon="2.71316">
        <ele>98.4</ele>
        <time>2023-07-20T08:10:24Z</time>
      </trkpt>
      <trkpt lat="48.36589" lon="2.71316">
        <ele>98.4</ele>
        <time>2023-07-20T08:10:25Z</time>
      </trkpt>
      <trkpt lat="48.36589" lon="2.71316">
        <ele>98.4</ele>
        <time>2023-07-20T08:10:26Z</time>
      </trkpt>
      <trkpt lat="48.36589" lon="2.71315">
        <ele>98.4</ele>
        <time>2023-07-20T08:10:27Z</time>
      </trkpt>
      <trkpt lat="48.36589" lon="2.71315">
        <ele>98.4</ele>
        <time>2023-07-20T08:10:28Z</time>
      </trkpt>
      <trkpt lat="48.36589" lon="2.71315">
        <ele>98.4</ele>
        <time>2023-07-20T08:10:29Z</time>
      </trkpt>
      <trkpt lat="48.36589" lon="2.71315">
        <ele>98.4</ele>
        <time>2023-07-20T08:10:30Z</time>
      </trkpt>
      <trkpt lat="48.3659" lon="2.71316">
        <ele>98.4</ele>
        <time>2023-07-20T08:10:31Z</time>
      </trkpt>
      <trkpt lat="48.36592" lon="2.7132">
        <ele>98.5</ele>
        <time>2023-07-20T08:10:32Z</time>
      </trkpt>
      <trkpt lat="48.36592" lon="2.7132">
        <ele>98.5</ele>
        <time>2023-07-20T08:10:33Z</time>
      </trkpt>
      <trkpt lat="48.36593" lon="2.71321">
        <ele>98.5</ele>
        <time>2023-07-20T08:10:34Z</time>
      </trkpt>
      <trkpt lat="48.36594" lon="2.71321">
        <ele>98.5</ele>
        <time>2023-07-20T08:10:35Z</time>
      </trkpt>
      <trkpt lat="48.36595" lon="2.7132">
        <ele>98.5</ele>
        <time>2023-07-20T08:10:36Z</time>
      </trkpt>
      <trkpt lat="48.36595" lon="2.7132">
        <ele>98.5</ele>
        <time>2023-07-20T08:10:37Z</time>
      </trkpt>
      <trkpt lat="48.36595" lon="2.7132">
        <ele>98.5</ele>
        <time>2023-07-20T08:10:38Z</time>
      </trkpt>
      <trkpt lat="48.36596" lon="2.7132">
        <ele>98.5</ele>
        <time>2023-07-20T08:10:39Z</time>
      </trkpt>
      <trkpt lat="48.36597" lon="2.7132">
        <ele>98.5</ele>
        <time>2023-07-20T08:10:40Z</time>
      </trkpt>
      <trkpt lat="48.36597" lon="2.7132">
        <ele>98.5</ele>
        <time>2023-07-20T08:10:41Z</time>
      </trkpt>
      <trkpt lat="48.36598" lon="2.71319">
        <ele>98.5</ele>
        <time>2023-07-20T08:10:42Z</time>
      </trkpt>
      <trkpt lat="48.36597" lon="2.71319">
        <ele>98.5</ele>
        <time>2023-07-20T08:10:43Z</time>
      </trkpt>
      <trkpt lat="48.36598" lon="2.71319">
        <ele>98.5</ele>
        <time>2023-07-20T08:10:44Z</time>
      </trkpt>
      <trkpt lat="48.36597" lon="2.71319">
        <ele>98.5</ele>
        <time>2023-07-20T08:10:45Z</time>
      </trkpt>
      <trkpt lat="48.36598" lon="2.71318">
        <ele>98.5</ele>
        <time>2023-07-20T08:10:46Z</time>
      </trkpt>
      <trkpt lat="48.36598" lon="2.71318">
        <ele>98.5</ele>
        <time>2023-07-20T08:10:47Z</time>
      </trkpt>
      <trkpt lat="48.36598" lon="2.71318">
        <ele>98.6</ele>
        <time>2023-07-20T08:10:48Z</time>
      </trkpt>
      <trkpt lat="48.36598" lon="2.71318">
        <ele>98.6</ele>
        <time>2023-07-20T08:10:49Z</time>
      </trkpt>
      <trkpt lat="48.36598" lon="2.71318">
        <ele>98.6</ele>
        <time>2023-07-20T08:10:50Z</time>
      </trkpt>
      <trkpt lat="48.36598" lon="2.71318">
        <ele>98.6</ele>
        <time>2023-07-20T08:10:51Z</time>
      </trkpt>
      <trkpt lat="48.36598" lon="2.71317">
        <ele>98.6</ele>
        <time>2023-07-20T08:10:52Z</time>
      </trkpt>
      <trkpt lat="48.36598" lon="2.71317">
        <ele>98.6</ele>
        <time>2023-07-20T08:10:53Z</time>
      </trkpt>
      <trkpt lat="48.36597" lon="2.71317">
        <ele>98.6</ele>
        <time>2023-07-20T08:10:54Z</time>
      </trkpt>
      <trkpt lat="48.36597" lon="2.71317">
        <ele>98.6</ele>
        <time>2023-07-20T08:10:55Z</time>
      </trkpt>
      <trkpt lat="48.36598" lon="2.71317">
        <ele>98.6</ele>
        <time>2023-07-20T08:10:56Z</time>
      </trkpt>
      <trkpt lat="48.36598" lon="2.71317">
        <ele>98.6</ele>
        <time>2023-07-20T08:10:57Z</time>
      </trkpt>
      <trkpt lat="48.36598" lon="2.71317">
        <ele>98.6</ele>
        <time>2023-07-20T08:10:58Z</time>
      </trkpt>
      <trkpt lat="48.36598" lon="2.71317">
        <ele>98.6</ele>
        <time>2023-07-20T08:10:59Z</time>
      </trkpt>
      <trkpt lat="48.36598" lon="2.71317">
        <ele>98.6</ele>
        <time>2023-07-20T08:11:00Z</time>
      </trkpt>
      <trkpt lat="48.36598" lon="2.71317">
        <ele>98.6</ele>
        <time>2023-07-20T08:11:01Z</time>
      </trkpt>
      <trkpt lat="48.36597" lon="2.71317">
        <ele>98.6</ele>
        <time>2023-07-20T08:11:02Z</time>
      </trkpt>
      <trkpt lat="48.36598" lon="2.71316">
        <ele>98.6</ele>
        <time>2023-07-20T08:11:03Z</time>
      </trkpt>
      <trkpt lat="48.36599" lon="2.71315">
        <ele>98.6</ele>
        <time>2023-07-20T08:11:04Z</time>
      </trkpt>
      <trkpt lat="48.36598" lon="2.71315">
        <ele>98.6</ele>
        <time>2023-07-20T08:11:05Z</time>
      </trkpt>
      <trkpt lat="48.36599" lon="2.71316">
        <ele>98.6</ele>
        <time>2023-07-20T08:11:06Z</time>
      </trkpt>
      <trkpt lat="48.36599" lon="2.71315">
        <ele>98.6</ele>
        <time>2023-07-20T08:11:07Z</time>
      </trkpt>
      <trkpt lat="48.36596" lon="2.71317">
        <ele>98.7</ele>
        <time>2023-07-20T08:11:08Z</time>
      </trkpt>
      <trkpt lat="48.36596" lon="2.71319">
        <ele>98.7</ele>
        <time>2023-07-20T08:11:09Z</time>
      </trkpt>
      <trkpt lat="48.36596" lon="2.71319">
        <ele>98.7</ele>
        <time>2023-07-20T08:11:10Z</time>
      </trkpt>
      <trkpt lat="48.36596" lon="2.71319">
        <ele>98.7</ele>
        <time>2023-07-20T08:11:11Z</time>
      </trkpt>
      <trkpt lat="48.36596" lon="2.71319">
        <ele>98.7</ele>
        <time>2023-07-20T08:11:12Z</time>
      </trkpt>
      <trkpt lat="48.36596" lon="2.71319">
        <ele>98.7</ele>
        <time>2023-07-20T08:11:13Z</time>
      </trkpt>
      <trkpt lat="48.36596" lon="2.71319">
        <ele>98.7</ele>
        <time>2023-07-20T08:11:14Z</time>
      </trkpt>
      <trkpt lat="48.36597" lon="2.71319">
        <ele>98.7</ele>
        <time>2023-07-20T08:11:15Z</time>
      </trkpt>
      <trkpt lat="48.36597" lon="2.7132">
        <ele>98.8</ele>
        <time>2023-07-20T08:11:16Z</time>
      </trkpt>
      <trkpt lat="48.36598" lon="2.71321">
        <ele>98.8</ele>
        <time>2023-07-20T08:11:17Z</time>
      </trkpt>
      <trkpt lat="48.36599" lon="2.71322">
        <ele>98.8</ele>
        <time>2023-07-20T08:11:18Z</time>
      </trkpt>
      <trkpt lat="48.366" lon="2.71323">
        <ele>98.9</ele>
        <time>2023-07-20T08:11:19Z</time>
      </trkpt>
      <trkpt lat="48.366" lon="2.71324">
        <ele>98.9</ele>
        <time>2023-07-20T08:11:20Z</time>
      </trkpt>
      <trkpt lat="48.36601" lon="2.71327">
        <ele>98.9</ele>
        <time>2023-07-20T08:11:21Z</time>
      </trkpt>
      <trkpt lat="48.36602" lon="2.71327">
        <ele>99</ele>
        <time>2023-07-20T08:11:23Z</time>
      </trkpt>
      <trkpt lat="48.36603" lon="2.71328">
        <ele>99</ele>
        <time>2023-07-20T08:11:24Z</time>
      </trkpt>
      <trkpt lat="48.36605" lon="2.7133">
        <ele>99.1</ele>
        <time>2023-07-20T08:11:25Z</time>
      </trkpt>
      <trkpt lat="48.36605" lon="2.71331">
        <ele>99.1</ele>
        <time>2023-07-20T08:11:26Z</time>
      </trkpt>
      <trkpt lat="48.36606" lon="2.71332">
        <ele>99.1</ele>
        <time>2023-07-20T08:11:27Z</time>
      </trkpt>
      <trkpt lat="48.36607" lon="2.71334">
        <ele>99.2</ele>
        <time>2023-07-20T08:11:28Z</time>
      </trkpt>
      <trkpt lat="48.36608" lon="2.71334">
        <ele>99.2</ele>
        <time>2023-07-20T08:11:29Z</time>
      </trkpt>
      <trkpt lat="48.3661" lon="2.71336">
        <ele>99.3</ele>
        <time>2023-07-20T08:11:30Z</time>
      </trkpt>
      <trkpt lat="48.36611" lon="2.71337">
        <ele>99.4</ele>
        <time>2023-07-20T08:11:31Z</time>
      </trkpt>
      <trkpt lat="48.3661" lon="2.71338">
        <ele>99.4</ele>
        <time>2023-07-20T08:11:32Z</time>
      </trkpt>
      <trkpt lat="48.36611" lon="2.71339">
        <ele>99.4</ele>
        <time>2023-07-20T08:11:33Z</time>
      </trkpt>
      <trkpt lat="48.36612" lon="2.7134">
        <ele>99.5</ele>
        <time>2023-07-20T08:11:34Z</time>
      </trkpt>
      <trkpt lat="48.36613" lon="2.71342">
        <ele>99.5</ele>
        <time>2023-07-20T08:11:35Z</time>
      </trkpt>
      <trkpt lat="48.36613" lon="2.71343">
        <ele>99.6</ele>
        <time>2023-07-20T08:11:36Z</time>
      </trkpt>
      <trkpt lat="48.36614" lon="2.71344">
        <ele>99.6</ele>
        <time>2023-07-20T08:11:37Z</time>
      </trkpt>
      <trkpt lat="48.36615" lon="2.71345">
        <ele>99.7</ele>
        <time>2023-07-20T08:11:38Z</time>
      </trkpt>
      <trkpt lat="48.36616" lon="2.71346">
        <ele>99.7</ele>
        <time>2023-07-20T08:11:39Z</time>
      </trkpt>
      <trkpt lat="48.36616" lon="2.71346">
        <ele>99.7</ele>
        <time>2023-07-20T08:11:40Z</time>
      </trkpt>
      <trkpt lat="48.36617" lon="2.71347">
        <ele>99.7</ele>
        <time>2023-07-20T08:11:41Z</time>
      </trkpt>
      <trkpt lat="48.36619" lon="2.71348">
        <ele>99.8</ele>
        <time>2023-07-20T08:11:42Z</time>
      </trkpt>
      <trkpt lat="48.3662" lon="2.71348">
        <ele>99.9</ele>
        <time>2023-07-20T08:11:43Z</time>
      </trkpt>
      <trkpt lat="48.3662" lon="2.71349">
        <ele>99.9</ele>
        <time>2023-07-20T08:11:44Z</time>
      </trkpt>
      <trkpt lat="48.36621" lon="2.7135">
        <ele>99.9</ele>
        <time>2023-07-20T08:11:45Z</time>
      </trkpt>
      <trkpt lat="48.36622" lon="2.71352">
        <ele>100</ele>
        <time>2023-07-20T08:11:46Z</time>
      </trkpt>
      <trkpt lat="48.36624" lon="2.71352">
        <ele>100.1</ele>
        <time>2023-07-20T08:11:47Z</time>
      </trkpt>
      <trkpt lat="48.36624" lon="2.71352">
        <ele>100.1</ele>
        <time>2023-07-20T08:11:48Z</time>
      </trkpt>
      <trkpt lat="48.36625" lon="2.71352">
        <ele>100.2</ele>
        <time>2023-07-20T08:11:49Z</time>
      </trkpt>
      <trkpt lat="48.36626" lon="2.71351">
        <ele>100.2</ele>
        <time>2023-07-20T08:11:50Z</time>
      </trkpt>
      <trkpt lat="48.36627" lon="2.71351">
        <ele>100.2</ele>
        <time>2023-07-20T08:11:51Z</time>
      </trkpt>
      <trkpt lat="48.36627" lon="2.71352">
        <ele>100.3</ele>
        <time>2023-07-20T08:11:52Z</time>
      </trkpt>
      <trkpt lat="48.36627" lon="2.71352">
        <ele>100.3</ele>
        <time>2023-07-20T08:11:53Z</time>
      </trkpt>
      <trkpt lat="48.36628" lon="2.71352">
        <ele>100.3</ele>
        <time>2023-07-20T08:11:54Z</time>
      </trkpt>
      <trkpt lat="48.36629" lon="2.71352">
        <ele>100.3</ele>
        <time>2023-07-20T08:11:55Z</time>
      </trkpt>
      <trkpt lat="48.36629" lon="2.71353">
        <ele>100.4</ele>
        <time>2023-07-20T08:11:56Z</time>
      </trkpt>
      <trkpt lat="48.36629" lon="2.71352">
        <ele>100.4</ele>
        <time>2023-07-20T08:11:57Z</time>
      </trkpt>
      <trkpt lat="48.36629" lon="2.71353">
        <ele>100.4</ele>
        <time>2023-07-20T08:11:58Z</time>
      </trkpt>
      <trkpt lat="48.36629" lon="2.71352">
        <ele>100.4</ele>
        <time>2023-07-20T08:11:59Z</time>
      </trkpt>
      <trkpt lat="48.36629" lon="2.71352">
        <ele>100.4</ele>
        <time>2023-07-20T08:12:00Z</time>
      </trkpt>
      <trkpt lat="48.36629" lon="2.71353">
        <ele>100.4</ele>
        <time>2023-07-20T08:12:01Z</time>
      </trkpt>
      <trkpt lat="48.36629" lon="2.71353">
        <ele>100.4</ele>
        <time>2023-07-20T08:12:02Z</time>
      </trkpt>
      <trkpt lat="48.36628" lon="2.71353">
        <ele>100.5</ele>
        <time>2023-07-20T08:12:03Z</time>
      </trkpt>
      <trkpt lat="48.36628" lon="2.71352">
        <ele>100.5</ele>
        <time>2023-07-20T08:12:04Z</time>
      </trkpt>
      <trkpt lat="48.36628" lon="2.71352">
        <ele>100.5</ele>
        <time>2023-07-20T08:12:05Z</time>
      </trkpt>
      <trkpt lat="48.36627" lon="2.71352">
        <ele>100.5</ele>
        <time>2023-07-20T08:12:06Z</time>
      </trkpt>
      <trkpt lat="48.36627" lon="2.71352">
        <ele>100.5</ele>
        <time>2023-07-20T08:12:07Z</time>
      </trkpt>
      <trkpt lat="48.36627" lon="2.71351">
        <ele>100.5</ele>
        <time>2023-07-20T08:12:08Z</time>
      </trkpt>
      <trkpt lat="48.36628" lon="2.71351">
        <ele>100.6</ele>
        <time>2023-07-20T08:12:09Z</time>
      </trkpt>
      <trkpt lat="48.36628" lon="2.71349">
        <ele>100.6</ele>
        <time>2023-07-20T08:12:10Z</time>
      </trkpt>
      <trkpt lat="48.36628" lon="2.71348">
        <ele>100.6</ele>
        <time>2023-07-20T08:12:11Z</time>
      </trkpt>
      <trkpt lat="48.36629" lon="2.71347">
        <ele>100.7</ele>
        <time>2023-07-20T08:12:12Z</time>
      </trkpt>
      <trkpt lat="48.36629" lon="2.71347">
        <ele>100.7</ele>
        <time>2023-07-20T08:12:13Z</time>
      </trkpt>
      <trkpt lat="48.36629" lon="2.71347">
        <ele>100.7</ele>
        <time>2023-07-20T08:12:14Z</time>
      </trkpt>
      <trkpt lat="48.36629" lon="2.71347">
        <ele>100.7</ele>
        <time>2023-07-20T08:12:15Z</time>
      </trkpt>
      <trkpt lat="48.36629" lon="2.71347">
        <ele>100.7</ele>
        <time>2023-07-20T08:12:16Z</time>
      </trkpt>
      <trkpt lat="48.36629" lon="2.71347">
        <ele>100.7</ele>
        <time>2023-07-20T08:12:17Z</time>
      </trkpt>
      <trkpt lat="48.36629" lon="2.71347">
        <ele>100.7</ele>
        <time>2023-07-20T08:12:18Z</time>
      </trkpt>
      <trkpt lat="48.3663" lon="2.71348">
        <ele>100.8</ele>
        <time>2023-07-20T08:12:19Z</time>
      </trkpt>
      <trkpt lat="48.36632" lon="2.71349">
        <ele>100.8</ele>
        <time>2023-07-20T08:12:20Z</time>
      </trkpt>
      <trkpt lat="48.36634" lon="2.71353">
        <ele>101</ele>
        <time>2023-07-20T08:12:21Z</time>
      </trkpt>
      <trkpt lat="48.36636" lon="2.71354">
        <ele>101.1</ele>
        <time>2023-07-20T08:12:22Z</time>
      </trkpt>
      <trkpt lat="48.36637" lon="2.71356">
        <ele>101.2</ele>
        <time>2023-07-20T08:12:23Z</time>
      </trkpt>
      <trkpt lat="48.36638" lon="2.71357">
        <ele>101.2</ele>
        <time>2023-07-20T08:12:24Z</time>
      </trkpt>
      <trkpt lat="48.36639" lon="2.71358">
        <ele>101.3</ele>
        <time>2023-07-20T08:12:25Z</time>
      </trkpt>
      <trkpt lat="48.36639" lon="2.71359">
        <ele>101.4</ele>
        <time>2023-07-20T08:12:26Z</time>
      </trkpt>
      <trkpt lat="48.36638" lon="2.7136">
        <ele>101.4</ele>
        <time>2023-07-20T08:12:27Z</time>
      </trkpt>
      <trkpt lat="48.36638" lon="2.7136">
        <ele>101.4</ele>
        <time>2023-07-20T08:12:28Z</time>
      </trkpt>
      <trkpt lat="48.36639" lon="2.7136">
        <ele>101.5</ele>
        <time>2023-07-20T08:12:29Z</time>
      </trkpt>
      <trkpt lat="48.36639" lon="2.71361">
        <ele>101.5</ele>
        <time>2023-07-20T08:12:30Z</time>
      </trkpt>
      <trkpt lat="48.3664" lon="2.71361">
        <ele>101.5</ele>
        <time>2023-07-20T08:12:31Z</time>
      </trkpt>
      <trkpt lat="48.3664" lon="2.71362">
        <ele>101.6</ele>
        <time>2023-07-20T08:12:32Z</time>
      </trkpt>
      <trkpt lat="48.36641" lon="2.71362">
        <ele>101.6</ele>
        <time>2023-07-20T08:12:33Z</time>
      </trkpt>
      <trkpt lat="48.36642" lon="2.71363">
        <ele>101.7</ele>
        <time>2023-07-20T08:12:34Z</time>
      </trkpt>
      <trkpt lat="48.36643" lon="2.71365">
        <ele>101.8</ele>
        <time>2023-07-20T08:12:35Z</time>
      </trkpt>
      <trkpt lat="48.36645" lon="2.71366">
        <ele>101.8</ele>
        <time>2023-07-20T08:12:36Z</time>
      </trkpt>
      <trkpt lat="48.36645" lon="2.71368">
        <ele>101.9</ele>
        <time>2023-07-20T08:12:37Z</time>
      </trkpt>
      <trkpt lat="48.36647" lon="2.71368">
        <ele>101.9</ele>
        <time>2023-07-20T08:12:38Z</time>
      </trkpt>
      <trkpt lat="48.36648" lon="2.71368">
        <ele>102</ele>
        <time>2023-07-20T08:12:39Z</time>
      </trkpt>
      <trkpt lat="48.36649" lon="2.71369">
        <ele>102.1</ele>
        <time>2023-07-20T08:12:40Z</time>
      </trkpt>
      <trkpt lat="48.3665" lon="2.7137">
        <ele>102.1</ele>
        <time>2023-07-20T08:12:41Z</time>
      </trkpt>
      <trkpt lat="48.36651" lon="2.71371">
        <ele>102.1</ele>
        <time>2023-07-20T08:12:42Z</time>
      </trkpt>
      <trkpt lat="48.36651" lon="2.71371">
        <ele>102.2</ele>
        <time>2023-07-20T08:12:43Z</time>
      </trkpt>
      <trkpt lat="48.36653" lon="2.7137">
        <ele>102.3</ele>
        <time>2023-07-20T08:12:44Z</time>
      </trkpt>
      <trkpt lat="48.36654" lon="2.7137">
        <ele>102.3</ele>
        <time>2023-07-20T08:12:45Z</time>
      </trkpt>
      <trkpt lat="48.36655" lon="2.71369">
        <ele>102.3</ele>
        <time>2023-07-20T08:12:46Z</time>
      </trkpt>
      <trkpt lat="48.36657" lon="2.7137">
        <ele>102.3</ele>
        <time>2023-07-20T08:12:47Z</time>
      </trkpt>
      <trkpt lat="48.36658" lon="2.7137">
        <ele>102.4</ele>
        <time>2023-07-20T08:12:48Z</time>
      </trkpt>
      <trkpt lat="48.3666" lon="2.71371">
        <ele>102.4</ele>
        <time>2023-07-20T08:12:49Z</time>
      </trkpt>
      <trkpt lat="48.36661" lon="2.71371">
        <ele>102.4</ele>
        <time>2023-07-20T08:12:50Z</time>
      </trkpt>
      <trkpt lat="48.36662" lon="2.71371">
        <ele>102.4</ele>
        <time>2023-07-20T08:12:51Z</time>
      </trkpt>
      <trkpt lat="48.36663" lon="2.71371">
        <ele>102.5</ele>
        <time>2023-07-20T08:12:52Z</time>
      </trkpt>
      <trkpt lat="48.36664" lon="2.71371">
        <ele>102.5</ele>
        <time>2023-07-20T08:12:53Z</time>
      </trkpt>
      <trkpt lat="48.36665" lon="2.71371">
        <ele>102.5</ele>
        <time>2023-07-20T08:12:54Z</time>
      </trkpt>
      <trkpt lat="48.36665" lon="2.7137">
        <ele>102.5</ele>
        <time>2023-07-20T08:12:55Z</time>
      </trkpt>
      <trkpt lat="48.36666" lon="2.71371">
        <ele>102.5</ele>
        <time>2023-07-20T08:12:56Z</time>
      </trkpt>
      <trkpt lat="48.36667" lon="2.71372">
        <ele>102.5</ele>
        <time>2023-07-20T08:12:57Z</time>
      </trkpt>
      <trkpt lat="48.36668" lon="2.71373">
        <ele>102.5</ele>
        <time>2023-07-20T08:12:58Z</time>
      </trkpt>
      <trkpt lat="48.36669" lon="2.71374">
        <ele>102.5</ele>
        <time>2023-07-20T08:12:59Z</time>
      </trkpt>
      <trkpt lat="48.36669" lon="2.71375">
        <ele>102.5</ele>
        <time>2023-07-20T08:13:00Z</time>
      </trkpt>
      <trkpt lat="48.36669" lon="2.71376">
        <ele>102.5</ele>
        <time>2023-07-20T08:13:01Z</time>
      </trkpt>
      <trkpt lat="48.36671" lon="2.71376">
        <ele>102.5</ele>
        <time>2023-07-20T08:13:02Z</time>
      </trkpt>
      <trkpt lat="48.36671" lon="2.71376">
        <ele>102.5</ele>
        <time>2023-07-20T08:13:03Z</time>
      </trkpt>
      <trkpt lat="48.36672" lon="2.71376">
        <ele>102.5</ele>
        <time>2023-07-20T08:13:04Z</time>
      </trkpt>
      <trkpt lat="48.36673" lon="2.71377">
        <ele>102.5</ele>
        <time>2023-07-20T08:13:05Z</time>
      </trkpt>
      <trkpt lat="48.36674" lon="2.71377">
        <ele>102.5</ele>
        <time>2023-07-20T08:13:06Z</time>
      </trkpt>
      <trkpt lat="48.36674" lon="2.71378">
        <ele>102.5</ele>
        <time>2023-07-20T08:13:07Z</time>
      </trkpt>
      <trkpt lat="48.36675" lon="2.71379">
        <ele>102.5</ele>
        <time>2023-07-20T08:13:08Z</time>
      </trkpt>
      <trkpt lat="48.36675" lon="2.7138">
        <ele>102.5</ele>
        <time>2023-07-20T08:13:09Z</time>
      </trkpt>
      <trkpt lat="48.36676" lon="2.7138">
        <ele>102.5</ele>
        <time>2023-07-20T08:13:10Z</time>
      </trkpt>
      <trkpt lat="48.36677" lon="2.71381">
        <ele>102.5</ele>
        <time>2023-07-20T08:13:11Z</time>
      </trkpt>
      <trkpt lat="48.36678" lon="2.71381">
        <ele>102.5</ele>
        <time>2023-07-20T08:13:12Z</time>
      </trkpt>
      <trkpt lat="48.36678" lon="2.71381">
        <ele>102.5</ele>
        <time>2023-07-20T08:13:13Z</time>
      </trkpt>
      <trkpt lat="48.36679" lon="2.71382">
        <ele>102.5</ele>
        <time>2023-07-20T08:13:14Z</time>
      </trkpt>
      <trkpt lat="48.3668" lon="2.71382">
        <ele>102.5</ele>
        <time>2023-07-20T08:13:15Z</time>
      </trkpt>
      <trkpt lat="48.3668" lon="2.71381">
        <ele>102.5</ele>
        <time>2023-07-20T08:13:16Z</time>
      </trkpt>
      <trkpt lat="48.36681" lon="2.71381">
        <ele>102.5</ele>
        <time>2023-07-20T08:13:17Z</time>
      </trkpt>
      <trkpt lat="48.36681" lon="2.71383">
        <ele>102.5</ele>
        <time>2023-07-20T08:13:18Z</time>
      </trkpt>
      <trkpt lat="48.36681" lon="2.71383">
        <ele>102.5</ele>
        <time>2023-07-20T08:13:19Z</time>
      </trkpt>
      <trkpt lat="48.36681" lon="2.71383">
        <ele>102.5</ele>
        <time>2023-07-20T08:13:20Z</time>
      </trkpt>
      <trkpt lat="48.36681" lon="2.71383">
        <ele>102.5</ele>
        <time>2023-07-20T08:13:21Z</time>
      </trkpt>
      <trkpt lat="48.36681" lon="2.71383">
        <ele>102.5</ele>
        <time>2023-07-20T08:13:22Z</time>
      </trkpt>
      <trkpt lat="48.36682" lon="2.71383">
        <ele>102.5</ele>
        <time>2023-07-20T08:13:23Z</time>
      </trkpt>
      <trkpt lat="48.36682" lon="2.71383">
        <ele>102.5</ele>
        <time>2023-07-20T08:13:24Z</time>
      </trkpt>
      <trkpt lat="48.36682" lon="2.71383">
        <ele>102.5</ele>
        <time>2023-07-20T08:13:25Z</time>
      </trkpt>
      <trkpt lat="48.36682" lon="2.71383">
        <ele>102.5</ele>
        <time>2023-07-20T08:13:26Z</time>
      </trkpt>
      <trkpt lat="48.36683" lon="2.71383">
        <ele>102.5</ele>
        <time>2023-07-20T08:13:27Z</time>
      </trkpt>
      <trkpt lat="48.36684" lon="2.71383">
        <ele>102.5</ele>
        <time>2023-07-20T08:13:28Z</time>
      </trkpt>
      <trkpt lat="48.36685" lon="2.71384">
        <ele>102.5</ele>
        <time>2023-07-20T08:13:29Z</time>
      </trkpt>
      <trkpt lat="48.36686" lon="2.71384">
        <ele>102.5</ele>
        <time>2023-07-20T08:13:30Z</time>
      </trkpt>
      <trkpt lat="48.36687" lon="2.71384">
        <ele>102.5</ele>
        <time>2023-07-20T08:13:31Z</time>
      </trkpt>
      <trkpt lat="48.36688" lon="2.71384">
        <ele>102.5</ele>
        <time>2023-07-20T08:13:32Z</time>
      </trkpt>
      <trkpt lat="48.36688" lon="2.71384">
        <ele>102.5</ele>
        <time>2023-07-20T08:13:33Z</time>
      </trkpt>
      <trkpt lat="48.36689" lon="2.71385">
        <ele>102.5</ele>
        <time>2023-07-20T08:13:34Z</time>
      </trkpt>
      <trkpt lat="48.3669" lon="2.71386">
        <ele>102.5</ele>
        <time>2023-07-20T08:13:35Z</time>
      </trkpt>
      <trkpt lat="48.36691" lon="2.71386">
        <ele>102.5</ele>
        <time>2023-07-20T08:13:36Z</time>
      </trkpt>
      <trkpt lat="48.36691" lon="2.71387">
        <ele>102.5</ele>
        <time>2023-07-20T08:13:37Z</time>
      </trkpt>
      <trkpt lat="48.36692" lon="2.71387">
        <ele>102.5</ele>
        <time>2023-07-20T08:13:38Z</time>
      </trkpt>
      <trkpt lat="48.36693" lon="2.71388">
        <ele>102.5</ele>
        <time>2023-07-20T08:13:39Z</time>
      </trkpt>
      <trkpt lat="48.36694" lon="2.71389">
        <ele>102.5</ele>
        <time>2023-07-20T08:13:40Z</time>
      </trkpt>
      <trkpt lat="48.36694" lon="2.71389">
        <ele>102.5</ele>
        <time>2023-07-20T08:13:41Z</time>
      </trkpt>
      <trkpt lat="48.36696" lon="2.71389">
        <ele>102.5</ele>
        <time>2023-07-20T08:13:42Z</time>
      </trkpt>
      <trkpt lat="48.36696" lon="2.71389">
        <ele>102.5</ele>
        <time>2023-07-20T08:13:43Z</time>
      </trkpt>
      <trkpt lat="48.36697" lon="2.71389">
        <ele>102.5</ele>
        <time>2023-07-20T08:13:44Z</time>
      </trkpt>
      <trkpt lat="48.36697" lon="2.71388">
        <ele>102.5</ele>
        <time>2023-07-20T08:13:45Z</time>
      </trkpt>
      <trkpt lat="48.36698" lon="2.71388">
        <ele>102.5</ele>
        <time>2023-07-20T08:13:46Z</time>
      </trkpt>
      <trkpt lat="48.367" lon="2.71388">
        <ele>102.5</ele>
        <time>2023-07-20T08:13:47Z</time>
      </trkpt>
      <trkpt lat="48.36701" lon="2.71388">
        <ele>102.5</ele>
        <time>2023-07-20T08:13:48Z</time>
      </trkpt>
      <trkpt lat="48.36702" lon="2.71389">
        <ele>102.5</ele>
        <time>2023-07-20T08:13:49Z</time>
      </trkpt>
      <trkpt lat="48.36703" lon="2.71389">
        <ele>102.5</ele>
        <time>2023-07-20T08:13:50Z</time>
      </trkpt>
      <trkpt lat="48.36704" lon="2.71391">
        <ele>102.5</ele>
        <time>2023-07-20T08:13:51Z</time>
      </trkpt>
      <trkpt lat="48.36705" lon="2.71391">
        <ele>102.6</ele>
        <time>2023-07-20T08:13:52Z</time>
      </trkpt>
      <trkpt lat="48.36706" lon="2.71391">
        <ele>102.6</ele>
        <time>2023-07-20T08:13:53Z</time>
      </trkpt>
      <trkpt lat="48.36707" lon="2.71391">
        <ele>102.6</ele>
        <time>2023-07-20T08:13:54Z</time>
      </trkpt>
      <trkpt lat="48.36708" lon="2.71392">
        <ele>102.6</ele>
        <time>2023-07-20T08:13:55Z</time>
      </trkpt>
      <trkpt lat="48.36709" lon="2.71394">
        <ele>102.6</ele>
        <time>2023-07-20T08:13:56Z</time>
      </trkpt>
      <trkpt lat="48.3671" lon="2.71394">
        <ele>102.6</ele>
        <time>2023-07-20T08:13:57Z</time>
      </trkpt>
      <trkpt lat="48.36711" lon="2.71394">
        <ele>102.6</ele>
        <time>2023-07-20T08:13:58Z</time>
      </trkpt>
      <trkpt lat="48.36712" lon="2.71394">
        <ele>102.6</ele>
        <time>2023-07-20T08:13:59Z</time>
      </trkpt>
      <trkpt lat="48.36713" lon="2.71394">
        <ele>102.6</ele>
        <time>2023-07-20T08:14:00Z</time>
      </trkpt>
      <trkpt lat="48.36714" lon="2.71395">
        <ele>102.6</ele>
        <time>2023-07-20T08:14:01Z</time>
      </trkpt>
      <trkpt lat="48.36715" lon="2.71395">
        <ele>102.6</ele>
        <time>2023-07-20T08:14:02Z</time>
      </trkpt>
      <trkpt lat="48.36716" lon="2.71396">
        <ele>102.6</ele>
        <time>2023-07-20T08:14:03Z</time>
      </trkpt>
      <trkpt lat="48.36716" lon="2.71397">
        <ele>102.6</ele>
        <time>2023-07-20T08:14:04Z</time>
      </trkpt>
      <trkpt lat="48.36717" lon="2.71397">
        <ele>102.7</ele>
        <time>2023-07-20T08:14:05Z</time>
      </trkpt>
      <trkpt lat="48.36718" lon="2.71398">
        <ele>102.7</ele>
        <time>2023-07-20T08:14:06Z</time>
      </trkpt>
      <trkpt lat="48.36718" lon="2.71399">
        <ele>102.7</ele>
        <time>2023-07-20T08:14:07Z</time>
      </trkpt>
      <trkpt lat="48.36719" lon="2.71399">
        <ele>102.7</ele>
        <time>2023-07-20T08:14:08Z</time>
      </trkpt>
      <trkpt lat="48.3672" lon="2.714">
        <ele>102.7</ele>
        <time>2023-07-20T08:14:09Z</time>
      </trkpt>
      <trkpt lat="48.3672" lon="2.714">
        <ele>102.7</ele>
        <time>2023-07-20T08:14:10Z</time>
      </trkpt>
      <trkpt lat="48.36721" lon="2.714">
        <ele>102.7</ele>
        <time>2023-07-20T08:14:11Z</time>
      </trkpt>
      <trkpt lat="48.36721" lon="2.71401">
        <ele>102.7</ele>
        <time>2023-07-20T08:14:12Z</time>
      </trkpt>
      <trkpt lat="48.36722" lon="2.71401">
        <ele>102.7</ele>
        <time>2023-07-20T08:14:13Z</time>
      </trkpt>
      <trkpt lat="48.36723" lon="2.71402">
        <ele>102.7</ele>
        <time>2023-07-20T08:14:14Z</time>
      </trkpt>
      <trkpt lat="48.36724" lon="2.71403">
        <ele>102.7</ele>
        <time>2023-07-20T08:14:15Z</time>
      </trkpt>
      <trkpt lat="48.36725" lon="2.71404">
        <ele>102.7</ele>
        <time>2023-07-20T08:14:16Z</time>
      </trkpt>
      <trkpt lat="48.36725" lon="2.71404">
        <ele>102.6</ele>
        <time>2023-07-20T08:14:17Z</time>
      </trkpt>
      <trkpt lat="48.36725" lon="2.71404">
        <ele>102.6</ele>
        <time>2023-07-20T08:14:18Z</time>
      </trkpt>
      <trkpt lat="48.36726" lon="2.71404">
        <ele>102.6</ele>
        <time>2023-07-20T08:14:19Z</time>
      </trkpt>
      <trkpt lat="48.36726" lon="2.71404">
        <ele>102.6</ele>
        <time>2023-07-20T08:14:20Z</time>
      </trkpt>
      <trkpt lat="48.36727" lon="2.71403">
        <ele>102.6</ele>
        <time>2023-07-20T08:14:21Z</time>
      </trkpt>
      <trkpt lat="48.36728" lon="2.71403">
        <ele>102.6</ele>
        <time>2023-07-20T08:14:22Z</time>
      </trkpt>
      <trkpt lat="48.36728" lon="2.71403">
        <ele>102.6</ele>
        <time>2023-07-20T08:14:23Z</time>
      </trkpt>
      <trkpt lat="48.36729" lon="2.71403">
        <ele>102.6</ele>
        <time>2023-07-20T08:14:24Z</time>
      </trkpt>
      <trkpt lat="48.3673" lon="2.71404">
        <ele>102.6</ele>
        <time>2023-07-20T08:14:25Z</time>
      </trkpt>
      <trkpt lat="48.36731" lon="2.71405">
        <ele>102.5</ele>
        <time>2023-07-20T08:14:26Z</time>
      </trkpt>
      <trkpt lat="48.36732" lon="2.71405">
        <ele>102.5</ele>
        <time>2023-07-20T08:14:27Z</time>
      </trkpt>
      <trkpt lat="48.36733" lon="2.71405">
        <ele>102.5</ele>
        <time>2023-07-20T08:14:28Z</time>
      </trkpt>
      <trkpt lat="48.36733" lon="2.71405">
        <ele>102.5</ele>
        <time>2023-07-20T08:14:29Z</time>
      </trkpt>
      <trkpt lat="48.36734" lon="2.71404">
        <ele>102.4</ele>
        <time>2023-07-20T08:14:30Z</time>
      </trkpt>
      <trkpt lat="48.36735" lon="2.71404">
        <ele>102.4</ele>
        <time>2023-07-20T08:14:31Z</time>
      </trkpt>
      <trkpt lat="48.36735" lon="2.71404">
        <ele>102.4</ele>
        <time>2023-07-20T08:14:32Z</time>
      </trkpt>
      <trkpt lat="48.36736" lon="2.71405">
        <ele>102.4</ele>
        <time>2023-07-20T08:14:33Z</time>
      </trkpt>
      <trkpt lat="48.36736" lon="2.71405">
        <ele>102.4</ele>
        <time>2023-07-20T08:14:34Z</time>
      </trkpt>
      <trkpt lat="48.36737" lon="2.71405">
        <ele>102.3</ele>
        <time>2023-07-20T08:14:35Z</time>
      </trkpt>
      <trkpt lat="48.36737" lon="2.71405">
        <ele>102.3</ele>
        <time>2023-07-20T08:14:36Z</time>
      </trkpt>
      <trkpt lat="48.36737" lon="2.71405">
        <ele>102.3</ele>
        <time>2023-07-20T08:14:37Z</time>
      </trkpt>
      <trkpt lat="48.36738" lon="2.71407">
        <ele>102.2</ele>
        <time>2023-07-20T08:14:38Z</time>
      </trkpt>
      <trkpt lat="48.3674" lon="2.71407">
        <ele>102.1</ele>
        <time>2023-07-20T08:14:39Z</time>
      </trkpt>
      <trkpt lat="48.36741" lon="2.71407">
        <ele>102.1</ele>
        <time>2023-07-20T08:14:40Z</time>
      </trkpt>
      <trkpt lat="48.36741" lon="2.71408">
        <ele>102.1</ele>
        <time>2023-07-20T08:14:41Z</time>
      </trkpt>
      <trkpt lat="48.36741" lon="2.71408">
        <ele>102.1</ele>
        <time>2023-07-20T08:14:42Z</time>
      </trkpt>
      <trkpt lat="48.36742" lon="2.71409">
        <ele>102</ele>
        <time>2023-07-20T08:14:43Z</time>
      </trkpt>
      <trkpt lat="48.36744" lon="2.71411">
        <ele>101.9</ele>
        <time>2023-07-20T08:14:44Z</time>
      </trkpt>
      <trkpt lat="48.36744" lon="2.71411">
        <ele>101.9</ele>
        <time>2023-07-20T08:14:45Z</time>
      </trkpt>
      <trkpt lat="48.36745" lon="2.71412">
        <ele>101.8</ele>
        <time>2023-07-20T08:14:46Z</time>
      </trkpt>
      <trkpt lat="48.36745" lon="2.71413">
        <ele>101.8</ele>
        <time>2023-07-20T08:14:47Z</time>
      </trkpt>
      <trkpt lat="48.36745" lon="2.71413">
        <ele>101.8</ele>
        <time>2023-07-20T08:14:48Z</time>
      </trkpt>
      <trkpt lat="48.36746" lon="2.71413">
        <ele>101.7</ele>
        <time>2023-07-20T08:14:49Z</time>
      </trkpt>
      <trkpt lat="48.36746" lon="2.71413">
        <ele>101.7</ele>
        <time>2023-07-20T08:14:50Z</time>
      </trkpt>
      <trkpt lat="48.36746" lon="2.71414">
        <ele>101.7</ele>
        <time>2023-07-20T08:14:51Z</time>
      </trkpt>
      <trkpt lat="48.36747" lon="2.71414">
        <ele>101.6</ele>
        <time>2023-07-20T08:14:52Z</time>
      </trkpt>
      <trkpt lat="48.36747" lon="2.71415">
        <ele>101.6</ele>
        <time>2023-07-20T08:14:53Z</time>
      </trkpt>
      <trkpt lat="48.36747" lon="2.71415">
        <ele>101.5</ele>
        <time>2023-07-20T08:14:54Z</time>
      </trkpt>
      <trkpt lat="48.36747" lon="2.71416">
        <ele>101.5</ele>
        <time>2023-07-20T08:14:55Z</time>
      </trkpt>
      <trkpt lat="48.36748" lon="2.71417">
        <ele>101.4</ele>
        <time>2023-07-20T08:14:56Z</time>
      </trkpt>
      <trkpt lat="48.36749" lon="2.71417">
        <ele>101.3</ele>
        <time>2023-07-20T08:14:57Z</time>
      </trkpt>
      <trkpt lat="48.3675" lon="2.71418">
        <ele>101.2</ele>
        <time>2023-07-20T08:14:58Z</time>
      </trkpt>
      <trkpt lat="48.36751" lon="2.71419">
        <ele>101.1</ele>
        <time>2023-07-20T08:14:59Z</time>
      </trkpt>
      <trkpt lat="48.36752" lon="2.7142">
        <ele>101</ele>
        <time>2023-07-20T08:15:00Z</time>
      </trkpt>
      <trkpt lat="48.36752" lon="2.7142">
        <ele>101</ele>
        <time>2023-07-20T08:15:01Z</time>
      </trkpt>
      <trkpt lat="48.36753" lon="2.71424">
        <ele>100.8</ele>
        <time>2023-07-20T08:15:02Z</time>
      </trkpt>
      <trkpt lat="48.36753" lon="2.71425">
        <ele>100.8</ele>
        <time>2023-07-20T08:15:03Z</time>
      </trkpt>
      <trkpt lat="48.36754" lon="2.71426">
        <ele>100.7</ele>
        <time>2023-07-20T08:15:04Z</time>
      </trkpt>
      <trkpt lat="48.36754" lon="2.71426">
        <ele>100.7</ele>
        <time>2023-07-20T08:15:05Z</time>
      </trkpt>
      <trkpt lat="48.36755" lon="2.71427">
        <ele>100.6</ele>
        <time>2023-07-20T08:15:06Z</time>
      </trkpt>
      <trkpt lat="48.36755" lon="2.71427">
        <ele>100.6</ele>
        <time>2023-07-20T08:15:07Z</time>
      </trkpt>
      <trkpt lat="48.36757" lon="2.71428">
        <ele>100.5</ele>
        <time>2023-07-20T08:15:08Z</time>
      </trkpt>
      <trkpt lat="48.36758" lon="2.71429">
        <ele>100.4</ele>
        <time>2023-07-20T08:15:09Z</time>
      </trkpt>
      <trkpt lat="48.36758" lon="2.71429">
        <ele>100.3</ele>
        <time>2023-07-20T08:15:10Z</time>
      </trkpt>
      <trkpt lat="48.36758" lon="2.71429">
        <ele>100.3</ele>
        <time>2023-07-20T08:15:11Z</time>
      </trkpt>
      <trkpt lat="48.36758" lon="2.71431">
        <ele>100.2</ele>
        <time>2023-07-20T08:15:12Z</time>
      </trkpt>
      <trkpt lat="48.3676" lon="2.71433">
        <ele>100.1</ele>
        <time>2023-07-20T08:15:13Z</time>
      </trkpt>
      <trkpt lat="48.3676" lon="2.71434">
        <ele>100</ele>
        <time>2023-07-20T08:15:14Z</time>
      </trkpt>
      <trkpt lat="48.36761" lon="2.71435">
        <ele>100</ele>
        <time>2023-07-20T08:15:15Z</time>
      </trkpt>
      <trkpt lat="48.36762" lon="2.71435">
        <ele>99.9</ele>
        <time>2023-07-20T08:15:16Z</time>
      </trkpt>
      <trkpt lat="48.36762" lon="2.71435">
        <ele>99.9</ele>
        <time>2023-07-20T08:15:17Z</time>
      </trkpt>
      <trkpt lat="48.36762" lon="2.71435">
        <ele>99.9</ele>
        <time>2023-07-20T08:15:18Z</time>
      </trkpt>
      <trkpt lat="48.36763" lon="2.71436">
        <ele>99.9</ele>
        <time>2023-07-20T08:15:19Z</time>
      </trkpt>
      <trkpt lat="48.36762" lon="2.71437">
        <ele>99.8</ele>
        <time>2023-07-20T08:15:20Z</time>
      </trkpt>
      <trkpt lat="48.36763" lon="2.71437">
        <ele>99.8</ele>
        <time>2023-07-20T08:15:21Z</time>
      </trkpt>
      <trkpt lat="48.36763" lon="2.71437">
        <ele>99.8</ele>
        <time>2023-07-20T08:15:22Z</time>
      </trkpt>
      <trkpt lat="48.36764" lon="2.7144">
        <ele>99.7</ele>
        <time>2023-07-20T08:15:23Z</time>
      </trkpt>
      <trkpt lat="48.36765" lon="2.71441">
        <ele>99.6</ele>
        <time>2023-07-20T08:15:24Z</time>
      </trkpt>
      <trkpt lat="48.36765" lon="2.71443">
        <ele>99.6</ele>
        <time>2023-07-20T08:15:25Z</time>
      </trkpt>
      <trkpt lat="48.36767" lon="2.71445">
        <ele>99.5</ele>
        <time>2023-07-20T08:15:26Z</time>
      </trkpt>
      <trkpt lat="48.36767" lon="2.71445">
        <ele>99.4</ele>
        <time>2023-07-20T08:15:27Z</time>
      </trkpt>
      <trkpt lat="48.36768" lon="2.71446">
        <ele>99.4</ele>
        <time>2023-07-20T08:15:28Z</time>
      </trkpt>
      <trkpt lat="48.36768" lon="2.71447">
        <ele>99.4</ele>
        <time>2023-07-20T08:15:29Z</time>
      </trkpt>
      <trkpt lat="48.3677" lon="2.71448">
        <ele>99.3</ele>
        <time>2023-07-20T08:15:30Z</time>
      </trkpt>
      <trkpt lat="48.3677" lon="2.71449">
        <ele>99.3</ele>
        <time>2023-07-20T08:15:31Z</time>
      </trkpt>
      <trkpt lat="48.3677" lon="2.71449">
        <ele>99.3</ele>
        <time>2023-07-20T08:15:32Z</time>
      </trkpt>
      <trkpt lat="48.36771" lon="2.71449">
        <ele>99.3</ele>
        <time>2023-07-20T08:15:33Z</time>
      </trkpt>
      <trkpt lat="48.36772" lon="2.7145">
        <ele>99.2</ele>
        <time>2023-07-20T08:15:34Z</time>
      </trkpt>
      <trkpt lat="48.36773" lon="2.71452">
        <ele>99.2</ele>
        <time>2023-07-20T08:15:35Z</time>
      </trkpt>
      <trkpt lat="48.36774" lon="2.71455">
        <ele>99.1</ele>
        <time>2023-07-20T08:15:36Z</time>
      </trkpt>
      <trkpt lat="48.36775" lon="2.71455">
        <ele>99.1</ele>
        <time>2023-07-20T08:15:37Z</time>
      </trkpt>
      <trkpt lat="48.36777" lon="2.71457">
        <ele>99</ele>
        <time>2023-07-20T08:15:38Z</time>
      </trkpt>
      <trkpt lat="48.36777" lon="2.71457">
        <ele>99</ele>
        <time>2023-07-20T08:15:39Z</time>
      </trkpt>
      <trkpt lat="48.36778" lon="2.71456">
        <ele>99</ele>
        <time>2023-07-20T08:15:40Z</time>
      </trkpt>
      <trkpt lat="48.36779" lon="2.71456">
        <ele>98.9</ele>
        <time>2023-07-20T08:15:41Z</time>
      </trkpt>
      <trkpt lat="48.3678" lon="2.71457">
        <ele>98.9</ele>
        <time>2023-07-20T08:15:42Z</time>
      </trkpt>
      <trkpt lat="48.36781" lon="2.71457">
        <ele>98.9</ele>
        <time>2023-07-20T08:15:43Z</time>
      </trkpt>
      <trkpt lat="48.36781" lon="2.71458">
        <ele>98.9</ele>
        <time>2023-07-20T08:15:44Z</time>
      </trkpt>
      <trkpt lat="48.36783" lon="2.71458">
        <ele>98.9</ele>
        <time>2023-07-20T08:15:45Z</time>
      </trkpt>
      <trkpt lat="48.36783" lon="2.71458">
        <ele>98.8</ele>
        <time>2023-07-20T08:15:46Z</time>
      </trkpt>
      <trkpt lat="48.36784" lon="2.71458">
        <ele>98.8</ele>
        <time>2023-07-20T08:15:47Z</time>
      </trkpt>
      <trkpt lat="48.36785" lon="2.71458">
        <ele>98.8</ele>
        <time>2023-07-20T08:15:48Z</time>
      </trkpt>
      <trkpt lat="48.36786" lon="2.71458">
        <ele>98.8</ele>
        <time>2023-07-20T08:15:49Z</time>
      </trkpt>
      <trkpt lat="48.36787" lon="2.71459">
        <ele>98.8</ele>
        <time>2023-07-20T08:15:50Z</time>
      </trkpt>
      <trkpt lat="48.36787" lon="2.7146">
        <ele>98.8</ele>
        <time>2023-07-20T08:15:51Z</time>
      </trkpt>
      <trkpt lat="48.36789" lon="2.7146">
        <ele>98.8</ele>
        <time>2023-07-20T08:15:52Z</time>
      </trkpt>
      <trkpt lat="48.3679" lon="2.71461">
        <ele>98.8</ele>
        <time>2023-07-20T08:15:53Z</time>
      </trkpt>
      <trkpt lat="48.36791" lon="2.71462">
        <ele>98.7</ele>
        <time>2023-07-20T08:15:54Z</time>
      </trkpt>
      <trkpt lat="48.36793" lon="2.71464">
        <ele>98.7</ele>
        <time>2023-07-20T08:15:55Z</time>
      </trkpt>
      <trkpt lat="48.36795" lon="2.71467">
        <ele>98.7</ele>
        <time>2023-07-20T08:15:56Z</time>
      </trkpt>
      <trkpt lat="48.36796" lon="2.71468">
        <ele>98.7</ele>
        <time>2023-07-20T08:15:57Z</time>
      </trkpt>
      <trkpt lat="48.36797" lon="2.7147">
        <ele>98.7</ele>
        <time>2023-07-20T08:15:58Z</time>
      </trkpt>
      <trkpt lat="48.36799" lon="2.7147">
        <ele>98.7</ele>
        <time>2023-07-20T08:15:59Z</time>
      </trkpt>
      <trkpt lat="48.368" lon="2.71472">
        <ele>98.7</ele>
        <time>2023-07-20T08:16:00Z</time>
      </trkpt>
      <trkpt lat="48.368" lon="2.71473">
        <ele>98.7</ele>
        <time>2023-07-20T08:16:01Z</time>
      </trkpt>
      <trkpt lat="48.36802" lon="2.71473">
        <ele>98.7</ele>
        <time>2023-07-20T08:16:02Z</time>
      </trkpt>
      <trkpt lat="48.36803" lon="2.71473">
        <ele>98.7</ele>
        <time>2023-07-20T08:16:03Z</time>
      </trkpt>
      <trkpt lat="48.36804" lon="2.71474">
        <ele>98.7</ele>
        <time>2023-07-20T08:16:04Z</time>
      </trkpt>
      <trkpt lat="48.36805" lon="2.71474">
        <ele>98.7</ele>
        <time>2023-07-20T08:16:05Z</time>
      </trkpt>
      <trkpt lat="48.36806" lon="2.71474">
        <ele>98.7</ele>
        <time>2023-07-20T08:16:06Z</time>
      </trkpt>
      <trkpt lat="48.36807" lon="2.71474">
        <ele>98.7</ele>
        <time>2023-07-20T08:16:07Z</time>
      </trkpt>
      <trkpt lat="48.36808" lon="2.71475">
        <ele>98.7</ele>
        <time>2023-07-20T08:16:08Z</time>
      </trkpt>
      <trkpt lat="48.36809" lon="2.71475">
        <ele>98.7</ele>
        <time>2023-07-20T08:16:09Z</time>
      </trkpt>
      <trkpt lat="48.3681" lon="2.71476">
        <ele>98.7</ele>
        <time>2023-07-20T08:16:10Z</time>
      </trkpt>
      <trkpt lat="48.3681" lon="2.71476">
        <ele>98.7</ele>
        <time>2023-07-20T08:16:11Z</time>
      </trkpt>
      <trkpt lat="48.36811" lon="2.71477">
        <ele>98.7</ele>
        <time>2023-07-20T08:16:12Z</time>
      </trkpt>
      <trkpt lat="48.36812" lon="2.71477">
        <ele>98.7</ele>
        <time>2023-07-20T08:16:13Z</time>
      </trkpt>
      <trkpt lat="48.36813" lon="2.71478">
        <ele>98.7</ele>
        <time>2023-07-20T08:16:14Z</time>
      </trkpt>
      <trkpt lat="48.36813" lon="2.71479">
        <ele>98.7</ele>
        <time>2023-07-20T08:16:15Z</time>
      </trkpt>
      <trkpt lat="48.36814" lon="2.7148">
        <ele>98.7</ele>
        <time>2023-07-20T08:16:16Z</time>
      </trkpt>
      <trkpt lat="48.36815" lon="2.71481">
        <ele>98.7</ele>
        <time>2023-07-20T08:16:17Z</time>
      </trkpt>
      <trkpt lat="48.36815" lon="2.71483">
        <ele>98.7</ele>
        <time>2023-07-20T08:16:18Z</time>
      </trkpt>
      <trkpt lat="48.36816" lon="2.71484">
        <ele>98.7</ele>
        <time>2023-07-20T08:16:19Z</time>
      </trkpt>
      <trkpt lat="48.36817" lon="2.71485">
        <ele>98.7</ele>
        <time>2023-07-20T08:16:20Z</time>
      </trkpt>
      <trkpt lat="48.36817" lon="2.71485">
        <ele>98.7</ele>
        <time>2023-07-20T08:16:21Z</time>
      </trkpt>
      <trkpt lat="48.36819" lon="2.71487">
        <ele>98.7</ele>
        <time>2023-07-20T08:16:22Z</time>
      </trkpt>
      <trkpt lat="48.3682" lon="2.71488">
        <ele>98.7</ele>
        <time>2023-07-20T08:16:23Z</time>
      </trkpt>
      <trkpt lat="48.36821" lon="2.71489">
        <ele>98.7</ele>
        <time>2023-07-20T08:16:24Z</time>
      </trkpt>
      <trkpt lat="48.36822" lon="2.71491">
        <ele>98.7</ele>
        <time>2023-07-20T08:16:25Z</time>
      </trkpt>
      <trkpt lat="48.36823" lon="2.71492">
        <ele>98.7</ele>
        <time>2023-07-20T08:16:26Z</time>
      </trkpt>
      <trkpt lat="48.36824" lon="2.71493">
        <ele>98.7</ele>
        <time>2023-07-20T08:16:27Z</time>
      </trkpt>
      <trkpt lat="48.36826" lon="2.71493">
        <ele>98.7</ele>
        <time>2023-07-20T08:16:28Z</time>
      </trkpt>
      <trkpt lat="48.36826" lon="2.71494">
        <ele>98.7</ele>
        <time>2023-07-20T08:16:29Z</time>
      </trkpt>
      <trkpt lat="48.36827" lon="2.71494">
        <ele>98.7</ele>
        <time>2023-07-20T08:16:30Z</time>
      </trkpt>
      <trkpt lat="48.36829" lon="2.71496">
        <ele>98.7</ele>
        <time>2023-07-20T08:16:31Z</time>
      </trkpt>
      <trkpt lat="48.3683" lon="2.71496">
        <ele>98.7</ele>
        <time>2023-07-20T08:16:32Z</time>
      </trkpt>
      <trkpt lat="48.36831" lon="2.71496">
        <ele>98.7</ele>
        <time>2023-07-20T08:16:33Z</time>
      </trkpt>
      <trkpt lat="48.36833" lon="2.71497">
        <ele>98.7</ele>
        <time>2023-07-20T08:16:34Z</time>
      </trkpt>
      <trkpt lat="48.36834" lon="2.71498">
        <ele>98.7</ele>
        <time>2023-07-20T08:16:35Z</time>
      </trkpt>
      <trkpt lat="48.36834" lon="2.71498">
        <ele>98.7</ele>
        <time>2023-07-20T08:16:36Z</time>
      </trkpt>
      <trkpt lat="48.36836" lon="2.71499">
        <ele>98.7</ele>
        <time>2023-07-20T08:16:37Z</time>
      </trkpt>
      <trkpt lat="48.36837" lon="2.715">
        <ele>98.7</ele>
        <time>2023-07-20T08:16:38Z</time>
      </trkpt>
      <trkpt lat="48.36839" lon="2.71501">
        <ele>98.7</ele>
        <time>2023-07-20T08:16:39Z</time>
      </trkpt>
      <trkpt lat="48.36839" lon="2.71502">
        <ele>98.7</ele>
        <time>2023-07-20T08:16:40Z</time>
      </trkpt>
      <trkpt lat="48.3684" lon="2.71503">
        <ele>98.7</ele>
        <time>2023-07-20T08:16:41Z</time>
      </trkpt>
      <trkpt lat="48.3684" lon="2.71506">
        <ele>98.8</ele>
        <time>2023-07-20T08:16:42Z</time>
      </trkpt>
      <trkpt lat="48.3684" lon="2.71508">
        <ele>98.8</ele>
        <time>2023-07-20T08:16:43Z</time>
      </trkpt>
      <trkpt lat="48.3684" lon="2.71509">
        <ele>98.8</ele>
        <time>2023-07-20T08:16:44Z</time>
      </trkpt>
      <trkpt lat="48.36841" lon="2.71511">
        <ele>98.8</ele>
        <time>2023-07-20T08:16:45Z</time>
      </trkpt>
      <trkpt lat="48.36841" lon="2.71512">
        <ele>98.8</ele>
        <time>2023-07-20T08:16:46Z</time>
      </trkpt>
      <trkpt lat="48.36842" lon="2.71513">
        <ele>98.8</ele>
        <time>2023-07-20T08:16:47Z</time>
      </trkpt>
      <trkpt lat="48.36843" lon="2.71514">
        <ele>98.8</ele>
        <time>2023-07-20T08:16:48Z</time>
      </trkpt>
      <trkpt lat="48.36844" lon="2.71517">
        <ele>98.9</ele>
        <time>2023-07-20T08:16:49Z</time>
      </trkpt>
      <trkpt lat="48.36844" lon="2.71518">
        <ele>98.9</ele>
        <time>2023-07-20T08:16:50Z</time>
      </trkpt>
      <trkpt lat="48.36845" lon="2.71519">
        <ele>98.9</ele>
        <time>2023-07-20T08:16:51Z</time>
      </trkpt>
      <trkpt lat="48.36846" lon="2.71521">
        <ele>98.9</ele>
        <time>2023-07-20T08:16:52Z</time>
      </trkpt>
      <trkpt lat="48.36847" lon="2.71522">
        <ele>98.9</ele>
        <time>2023-07-20T08:16:53Z</time>
      </trkpt>
      <trkpt lat="48.36847" lon="2.71524">
        <ele>98.9</ele>
        <time>2023-07-20T08:16:54Z</time>
      </trkpt>
      <trkpt lat="48.36848" lon="2.71524">
        <ele>98.9</ele>
        <time>2023-07-20T08:16:55Z</time>
      </trkpt>
      <trkpt lat="48.36849" lon="2.71525">
        <ele>98.9</ele>
        <time>2023-07-20T08:16:56Z</time>
      </trkpt>
      <trkpt lat="48.3685" lon="2.71525">
        <ele>98.9</ele>
        <time>2023-07-20T08:16:58Z</time>
      </trkpt>
      <trkpt lat="48.3685" lon="2.71525">
        <ele>98.9</ele>
        <time>2023-07-20T08:16:59Z</time>
      </trkpt>
      <trkpt lat="48.36851" lon="2.71526">
        <ele>98.9</ele>
        <time>2023-07-20T08:17:00Z</time>
      </trkpt>
      <trkpt lat="48.36853" lon="2.71526">
        <ele>98.9</ele>
        <time>2023-07-20T08:17:01Z</time>
      </trkpt>
      <trkpt lat="48.36854" lon="2.71528">
        <ele>98.9</ele>
        <time>2023-07-20T08:17:02Z</time>
      </trkpt>
      <trkpt lat="48.36855" lon="2.71529">
        <ele>99</ele>
        <time>2023-07-20T08:17:03Z</time>
      </trkpt>
      <trkpt lat="48.36856" lon="2.71531">
        <ele>99</ele>
        <time>2023-07-20T08:17:04Z</time>
      </trkpt>
      <trkpt lat="48.36857" lon="2.71531">
        <ele>99</ele>
        <time>2023-07-20T08:17:05Z</time>
      </trkpt>
      <trkpt lat="48.36858" lon="2.71532">
        <ele>99</ele>
        <time>2023-07-20T08:17:06Z</time>
      </trkpt>
      <trkpt lat="48.36859" lon="2.71532">
        <ele>99</ele>
        <time>2023-07-20T08:17:07Z</time>
      </trkpt>
      <trkpt lat="48.36859" lon="2.71532">
        <ele>99</ele>
        <time>2023-07-20T08:17:08Z</time>
      </trkpt>
      <trkpt lat="48.36859" lon="2.71533">
        <ele>99</ele>
        <time>2023-07-20T08:17:09Z</time>
      </trkpt>
      <trkpt lat="48.36859" lon="2.71534">
        <ele>99</ele>
        <time>2023-07-20T08:17:10Z</time>
      </trkpt>
      <trkpt lat="48.3686" lon="2.71535">
        <ele>99</ele>
        <time>2023-07-20T08:17:11Z</time>
      </trkpt>
      <trkpt lat="48.3686" lon="2.71535">
        <ele>99</ele>
        <time>2023-07-20T08:17:12Z</time>
      </trkpt>
      <trkpt lat="48.3686" lon="2.71535">
        <ele>99</ele>
        <time>2023-07-20T08:17:13Z</time>
      </trkpt>
      <trkpt lat="48.36861" lon="2.71536">
        <ele>99</ele>
        <time>2023-07-20T08:17:14Z</time>
      </trkpt>
      <trkpt lat="48.36861" lon="2.71537">
        <ele>99</ele>
        <time>2023-07-20T08:17:15Z</time>
      </trkpt>
      <trkpt lat="48.36862" lon="2.71537">
        <ele>99</ele>
        <time>2023-07-20T08:17:16Z</time>
      </trkpt>
      <trkpt lat="48.36862" lon="2.71538">
        <ele>99</ele>
        <time>2023-07-20T08:17:17Z</time>
      </trkpt>
      <trkpt lat="48.36862" lon="2.71538">
        <ele>99</ele>
        <time>2023-07-20T08:17:18Z</time>
      </trkpt>
      <trkpt lat="48.36863" lon="2.71539">
        <ele>99</ele>
        <time>2023-07-20T08:17:19Z</time>
      </trkpt>
      <trkpt lat="48.36864" lon="2.7154">
        <ele>99</ele>
        <time>2023-07-20T08:17:20Z</time>
      </trkpt>
      <trkpt lat="48.36864" lon="2.71541">
        <ele>99</ele>
        <time>2023-07-20T08:17:21Z</time>
      </trkpt>
      <trkpt lat="48.36866" lon="2.71543">
        <ele>99</ele>
        <time>2023-07-20T08:17:22Z</time>
      </trkpt>
      <trkpt lat="48.36867" lon="2.71544">
        <ele>99</ele>
        <time>2023-07-20T08:17:23Z</time>
      </trkpt>
      <trkpt lat="48.36867" lon="2.71545">
        <ele>99</ele>
        <time>2023-07-20T08:17:24Z</time>
      </trkpt>
      <trkpt lat="48.36869" lon="2.71547">
        <ele>99</ele>
        <time>2023-07-20T08:17:25Z</time>
      </trkpt>
      <trkpt lat="48.36869" lon="2.71548">
        <ele>99</ele>
        <time>2023-07-20T08:17:26Z</time>
      </trkpt>
      <trkpt lat="48.3687" lon="2.71549">
        <ele>99.1</ele>
        <time>2023-07-20T08:17:27Z</time>
      </trkpt>
      <trkpt lat="48.36871" lon="2.7155">
        <ele>99.1</ele>
        <time>2023-07-20T08:17:28Z</time>
      </trkpt>
      <trkpt lat="48.36872" lon="2.7155">
        <ele>99.1</ele>
        <time>2023-07-20T08:17:29Z</time>
      </trkpt>
      <trkpt lat="48.36874" lon="2.71549">
        <ele>99.1</ele>
        <time>2023-07-20T08:17:30Z</time>
      </trkpt>
      <trkpt lat="48.36874" lon="2.71551">
        <ele>99.1</ele>
        <time>2023-07-20T08:17:31Z</time>
      </trkpt>
      <trkpt lat="48.36875" lon="2.71552">
        <ele>99.1</ele>
        <time>2023-07-20T08:17:32Z</time>
      </trkpt>
      <trkpt lat="48.36876" lon="2.71553">
        <ele>99.1</ele>
        <time>2023-07-20T08:17:33Z</time>
      </trkpt>
      <trkpt lat="48.36878" lon="2.71553">
        <ele>99.2</ele>
        <time>2023-07-20T08:17:34Z</time>
      </trkpt>
      <trkpt lat="48.36879" lon="2.71553">
        <ele>99.2</ele>
        <time>2023-07-20T08:17:35Z</time>
      </trkpt>
      <trkpt lat="48.36881" lon="2.71555">
        <ele>99.2</ele>
        <time>2023-07-20T08:17:36Z</time>
      </trkpt>
      <trkpt lat="48.36882" lon="2.71555">
        <ele>99.2</ele>
        <time>2023-07-20T08:17:37Z</time>
      </trkpt>
      <trkpt lat="48.36882" lon="2.71556">
        <ele>99.3</ele>
        <time>2023-07-20T08:17:38Z</time>
      </trkpt>
      <trkpt lat="48.36883" lon="2.71557">
        <ele>99.3</ele>
        <time>2023-07-20T08:17:39Z</time>
      </trkpt>
      <trkpt lat="48.36883" lon="2.71557">
        <ele>99.3</ele>
        <time>2023-07-20T08:17:40Z</time>
      </trkpt>
      <trkpt lat="48.36884" lon="2.71557">
        <ele>99.3</ele>
        <time>2023-07-20T08:17:41Z</time>
      </trkpt>
      <trkpt lat="48.36885" lon="2.71557">
        <ele>99.3</ele>
        <time>2023-07-20T08:17:42Z</time>
      </trkpt>
      <trkpt lat="48.36885" lon="2.71559">
        <ele>99.3</ele>
        <time>2023-07-20T08:17:43Z</time>
      </trkpt>
      <trkpt lat="48.36885" lon="2.7156">
        <ele>99.4</ele>
        <time>2023-07-20T08:17:44Z</time>
      </trkpt>
      <trkpt lat="48.36886" lon="2.71562">
        <ele>99.4</ele>
        <time>2023-07-20T08:17:45Z</time>
      </trkpt>
      <trkpt lat="48.36888" lon="2.71564">
        <ele>99.4</ele>
        <time>2023-07-20T08:17:46Z</time>
      </trkpt>
      <trkpt lat="48.36889" lon="2.71566">
        <ele>99.5</ele>
        <time>2023-07-20T08:17:47Z</time>
      </trkpt>
      <trkpt lat="48.36891" lon="2.71568">
        <ele>99.6</ele>
        <time>2023-07-20T08:17:48Z</time>
      </trkpt>
      <trkpt lat="48.36892" lon="2.71568">
        <ele>99.6</ele>
        <time>2023-07-20T08:17:49Z</time>
      </trkpt>
      <trkpt lat="48.36894" lon="2.71569">
        <ele>99.6</ele>
        <time>2023-07-20T08:17:50Z</time>
      </trkpt>
      <trkpt lat="48.36895" lon="2.7157">
        <ele>99.7</ele>
        <time>2023-07-20T08:17:51Z</time>
      </trkpt>
      <trkpt lat="48.36897" lon="2.71571">
        <ele>99.7</ele>
        <time>2023-07-20T08:17:52Z</time>
      </trkpt>
      <trkpt lat="48.36898" lon="2.71572">
        <ele>99.8</ele>
        <time>2023-07-20T08:17:53Z</time>
      </trkpt>
      <trkpt lat="48.36899" lon="2.71572">
        <ele>99.8</ele>
        <time>2023-07-20T08:17:54Z</time>
      </trkpt>
      <trkpt lat="48.36901" lon="2.71573">
        <ele>99.9</ele>
        <time>2023-07-20T08:17:55Z</time>
      </trkpt>
      <trkpt lat="48.36902" lon="2.71573">
        <ele>99.9</ele>
        <time>2023-07-20T08:17:56Z</time>
      </trkpt>
      <trkpt lat="48.36903" lon="2.71574">
        <ele>99.9</ele>
        <time>2023-07-20T08:17:57Z</time>
      </trkpt>
      <trkpt lat="48.36904" lon="2.71575">
        <ele>100</ele>
        <time>2023-07-20T08:17:58Z</time>
      </trkpt>
      <trkpt lat="48.36905" lon="2.71576">
        <ele>100</ele>
        <time>2023-07-20T08:17:59Z</time>
      </trkpt>
      <trkpt lat="48.36906" lon="2.71576">
        <ele>100</ele>
        <time>2023-07-20T08:18:00Z</time>
      </trkpt>
      <trkpt lat="48.36907" lon="2.71577">
        <ele>100</ele>
        <time>2023-07-20T08:18:01Z</time>
      </trkpt>
      <trkpt lat="48.36908" lon="2.71578">
        <ele>100.1</ele>
        <time>2023-07-20T08:18:02Z</time>
      </trkpt>
      <trkpt lat="48.36908" lon="2.71579">
        <ele>100.1</ele>
        <time>2023-07-20T08:18:03Z</time>
      </trkpt>
      <trkpt lat="48.36909" lon="2.7158">
        <ele>100.1</ele>
        <time>2023-07-20T08:18:04Z</time>
      </trkpt>
      <trkpt lat="48.36909" lon="2.71581">
        <ele>100.1</ele>
        <time>2023-07-20T08:18:05Z</time>
      </trkpt>
      <trkpt lat="48.3691" lon="2.71582">
        <ele>100.2</ele>
        <time>2023-07-20T08:18:06Z</time>
      </trkpt>
      <trkpt lat="48.36911" lon="2.71583">
        <ele>100.2</ele>
        <time>2023-07-20T08:18:07Z</time>
      </trkpt>
      <trkpt lat="48.36913" lon="2.71583">
        <ele>100.3</ele>
        <time>2023-07-20T08:18:08Z</time>
      </trkpt>
      <trkpt lat="48.36914" lon="2.71585">
        <ele>100.3</ele>
        <time>2023-07-20T08:18:09Z</time>
      </trkpt>
      <trkpt lat="48.36915" lon="2.71586">
        <ele>100.3</ele>
        <time>2023-07-20T08:18:10Z</time>
      </trkpt>
      <trkpt lat="48.36916" lon="2.71587">
        <ele>100.4</ele>
        <time>2023-07-20T08:18:11Z</time>
      </trkpt>
      <trkpt lat="48.36918" lon="2.71588">
        <ele>100.4</ele>
        <time>2023-07-20T08:18:12Z</time>
      </trkpt>
      <trkpt lat="48.36919" lon="2.71589">
        <ele>100.4</ele>
        <time>2023-07-20T08:18:13Z</time>
      </trkpt>
      <trkpt lat="48.36919" lon="2.71589">
        <ele>100.5</ele>
        <time>2023-07-20T08:18:14Z</time>
      </trkpt>
      <trkpt lat="48.36921" lon="2.71589">
        <ele>100.5</ele>
        <time>2023-07-20T08:18:15Z</time>
      </trkpt>
      <trkpt lat="48.36921" lon="2.7159">
        <ele>100.5</ele>
        <time>2023-07-20T08:18:16Z</time>
      </trkpt>
      <trkpt lat="48.36922" lon="2.71591">
        <ele>100.6</ele>
        <time>2023-07-20T08:18:17Z</time>
      </trkpt>
      <trkpt lat="48.36922" lon="2.71592">
        <ele>100.6</ele>
        <time>2023-07-20T08:18:18Z</time>
      </trkpt>
      <trkpt lat="48.36924" lon="2.71593">
        <ele>100.6</ele>
        <time>2023-07-20T08:18:19Z</time>
      </trkpt>
      <trkpt lat="48.36924" lon="2.71595">
        <ele>100.7</ele>
        <time>2023-07-20T08:18:20Z</time>
      </trkpt>
      <trkpt lat="48.36925" lon="2.71598">
        <ele>100.7</ele>
        <time>2023-07-20T08:18:21Z</time>
      </trkpt>
      <trkpt lat="48.36926" lon="2.71599">
        <ele>100.8</ele>
        <time>2023-07-20T08:18:22Z</time>
      </trkpt>
      <trkpt lat="48.36926" lon="2.71599">
        <ele>100.8</ele>
        <time>2023-07-20T08:18:23Z</time>
      </trkpt>
      <trkpt lat="48.36928" lon="2.71601">
        <ele>100.9</ele>
        <time>2023-07-20T08:18:24Z</time>
      </trkpt>
      <trkpt lat="48.36929" lon="2.71601">
        <ele>100.9</ele>
        <time>2023-07-20T08:18:25Z</time>
      </trkpt>
      <trkpt lat="48.3693" lon="2.71602">
        <ele>100.9</ele>
        <time>2023-07-20T08:18:26Z</time>
      </trkpt>
      <trkpt lat="48.3693" lon="2.71603">
        <ele>101</ele>
        <time>2023-07-20T08:18:27Z</time>
      </trkpt>
      <trkpt lat="48.36932" lon="2.71604">
        <ele>101</ele>
        <time>2023-07-20T08:18:28Z</time>
      </trkpt>
      <trkpt lat="48.36933" lon="2.71604">
        <ele>101</ele>
        <time>2023-07-20T08:18:29Z</time>
      </trkpt>
      <trkpt lat="48.36933" lon="2.71604">
        <ele>101.1</ele>
        <time>2023-07-20T08:18:30Z</time>
      </trkpt>
      <trkpt lat="48.36934" lon="2.71605">
        <ele>101.1</ele>
        <time>2023-07-20T08:18:31Z</time>
      </trkpt>
      <trkpt lat="48.36934" lon="2.71605">
        <ele>101.1</ele>
        <time>2023-07-20T08:18:32Z</time>
      </trkpt>
      <trkpt lat="48.36935" lon="2.71606">
        <ele>101.1</ele>
        <time>2023-07-20T08:18:33Z</time>
      </trkpt>
      <trkpt lat="48.36936" lon="2.71607">
        <ele>101.2</ele>
        <time>2023-07-20T08:18:34Z</time>
      </trkpt>
      <trkpt lat="48.36937" lon="2.71608">
        <ele>101.2</ele>
        <time>2023-07-20T08:18:35Z</time>
      </trkpt>
      <trkpt lat="48.36937" lon="2.71609">
        <ele>101.3</ele>
        <time>2023-07-20T08:18:36Z</time>
      </trkpt>
      <trkpt lat="48.36939" lon="2.71612">
        <ele>101.4</ele>
        <time>2023-07-20T08:18:37Z</time>
      </trkpt>
      <trkpt lat="48.36939" lon="2.71613">
        <ele>101.4</ele>
        <time>2023-07-20T08:18:38Z</time>
      </trkpt>
      <trkpt lat="48.3694" lon="2.71614">
        <ele>101.4</ele>
        <time>2023-07-20T08:18:39Z</time>
      </trkpt>
      <trkpt lat="48.36941" lon="2.71615">
        <ele>101.5</ele>
        <time>2023-07-20T08:18:40Z</time>
      </trkpt>
      <trkpt lat="48.36941" lon="2.71615">
        <ele>101.5</ele>
        <time>2023-07-20T08:18:41Z</time>
      </trkpt>
      <trkpt lat="48.36942" lon="2.71615">
        <ele>101.5</ele>
        <time>2023-07-20T08:18:42Z</time>
      </trkpt>
      <trkpt lat="48.36942" lon="2.71615">
        <ele>101.5</ele>
        <time>2023-07-20T08:18:43Z</time>
      </trkpt>
      <trkpt lat="48.36943" lon="2.71615">
        <ele>101.5</ele>
        <time>2023-07-20T08:18:44Z</time>
      </trkpt>
      <trkpt lat="48.36944" lon="2.71615">
        <ele>101.6</ele>
        <time>2023-07-20T08:18:45Z</time>
      </trkpt>
      <trkpt lat="48.36945" lon="2.71615">
        <ele>101.6</ele>
        <time>2023-07-20T08:18:46Z</time>
      </trkpt>
      <trkpt lat="48.36946" lon="2.71615">
        <ele>101.7</ele>
        <time>2023-07-20T08:18:47Z</time>
      </trkpt>
      <trkpt lat="48.36947" lon="2.71616">
        <ele>101.7</ele>
        <time>2023-07-20T08:18:48Z</time>
      </trkpt>
      <trkpt lat="48.36947" lon="2.71617">
        <ele>101.8</ele>
        <time>2023-07-20T08:18:49Z</time>
      </trkpt>
      <trkpt lat="48.36948" lon="2.71616">
        <ele>101.8</ele>
        <time>2023-07-20T08:18:50Z</time>
      </trkpt>
      <trkpt lat="48.36948" lon="2.71617">
        <ele>101.9</ele>
        <time>2023-07-20T08:18:51Z</time>
      </trkpt>
      <trkpt lat="48.3695" lon="2.71617">
        <ele>102</ele>
        <time>2023-07-20T08:18:52Z</time>
      </trkpt>
      <trkpt lat="48.36951" lon="2.71617">
        <ele>102</ele>
        <time>2023-07-20T08:18:53Z</time>
      </trkpt>
      <trkpt lat="48.36951" lon="2.71617">
        <ele>102</ele>
        <time>2023-07-20T08:18:54Z</time>
      </trkpt>
      <trkpt lat="48.36952" lon="2.71618">
        <ele>102</ele>
        <time>2023-07-20T08:18:55Z</time>
      </trkpt>
      <trkpt lat="48.36952" lon="2.71618">
        <ele>102</ele>
        <time>2023-07-20T08:18:56Z</time>
      </trkpt>
      <trkpt lat="48.36953" lon="2.71618">
        <ele>102.1</ele>
        <time>2023-07-20T08:18:57Z</time>
      </trkpt>
      <trkpt lat="48.36954" lon="2.71617">
        <ele>102.1</ele>
        <time>2023-07-20T08:18:58Z</time>
      </trkpt>
      <trkpt lat="48.36954" lon="2.71616">
        <ele>102.1</ele>
        <time>2023-07-20T08:18:59Z</time>
      </trkpt>
      <trkpt lat="48.36955" lon="2.71616">
        <ele>102.1</ele>
        <time>2023-07-20T08:19:00Z</time>
      </trkpt>
      <trkpt lat="48.36955" lon="2.71615">
        <ele>102.2</ele>
        <time>2023-07-20T08:19:01Z</time>
      </trkpt>
      <trkpt lat="48.36956" lon="2.71614">
        <ele>102.2</ele>
        <time>2023-07-20T08:19:02Z</time>
      </trkpt>
      <trkpt lat="48.36956" lon="2.71613">
        <ele>102.2</ele>
        <time>2023-07-20T08:19:03Z</time>
      </trkpt>
      <trkpt lat="48.36957" lon="2.71612">
        <ele>102.2</ele>
        <time>2023-07-20T08:19:04Z</time>
      </trkpt>
      <trkpt lat="48.36958" lon="2.71612">
        <ele>102.3</ele>
        <time>2023-07-20T08:19:05Z</time>
      </trkpt>
      <trkpt lat="48.36958" lon="2.7161">
        <ele>102.3</ele>
        <time>2023-07-20T08:19:06Z</time>
      </trkpt>
      <trkpt lat="48.36958" lon="2.71609">
        <ele>102.3</ele>
        <time>2023-07-20T08:19:07Z</time>
      </trkpt>
      <trkpt lat="48.36959" lon="2.71608">
        <ele>102.3</ele>
        <time>2023-07-20T08:19:08Z</time>
      </trkpt>
      <trkpt lat="48.36959" lon="2.71607">
        <ele>102.4</ele>
        <time>2023-07-20T08:19:09Z</time>
      </trkpt>
      <trkpt lat="48.3696" lon="2.71605">
        <ele>102.4</ele>
        <time>2023-07-20T08:19:10Z</time>
      </trkpt>
      <trkpt lat="48.3696" lon="2.71604">
        <ele>102.4</ele>
        <time>2023-07-20T08:19:11Z</time>
      </trkpt>
      <trkpt lat="48.36961" lon="2.71601">
        <ele>102.5</ele>
        <time>2023-07-20T08:19:12Z</time>
      </trkpt>
      <trkpt lat="48.36962" lon="2.71599">
        <ele>102.5</ele>
        <time>2023-07-20T08:19:13Z</time>
      </trkpt>
      <trkpt lat="48.36962" lon="2.71598">
        <ele>102.5</ele>
        <time>2023-07-20T08:19:14Z</time>
      </trkpt>
      <trkpt lat="48.36962" lon="2.71597">
        <ele>102.6</ele>
        <time>2023-07-20T08:19:15Z</time>
      </trkpt>
      <trkpt lat="48.36963" lon="2.71597">
        <ele>102.6</ele>
        <time>2023-07-20T08:19:16Z</time>
      </trkpt>
      <trkpt lat="48.36964" lon="2.71596">
        <ele>102.6</ele>
        <time>2023-07-20T08:19:17Z</time>
      </trkpt>
      <trkpt lat="48.36964" lon="2.71595">
        <ele>102.6</ele>
        <time>2023-07-20T08:19:18Z</time>
      </trkpt>
      <trkpt lat="48.36965" lon="2.71594">
        <ele>102.7</ele>
        <time>2023-07-20T08:19:19Z</time>
      </trkpt>
      <trkpt lat="48.36965" lon="2.71593">
        <ele>102.7</ele>
        <time>2023-07-20T08:19:20Z</time>
      </trkpt>
      <trkpt lat="48.36966" lon="2.71592">
        <ele>102.7</ele>
        <time>2023-07-20T08:19:21Z</time>
      </trkpt>
      <trkpt lat="48.36966" lon="2.71593">
        <ele>102.7</ele>
        <time>2023-07-20T08:19:22Z</time>
      </trkpt>
      <trkpt lat="48.36967" lon="2.71592">
        <ele>102.8</ele>
        <time>2023-07-20T08:19:23Z</time>
      </trkpt>
      <trkpt lat="48.36968" lon="2.71591">
        <ele>102.8</ele>
        <time>2023-07-20T08:19:24Z</time>
      </trkpt>
      <trkpt lat="48.36969" lon="2.7159">
        <ele>102.8</ele>
        <time>2023-07-20T08:19:25Z</time>
      </trkpt>
      <trkpt lat="48.36969" lon="2.71589">
        <ele>102.9</ele>
        <time>2023-07-20T08:19:26Z</time>
      </trkpt>
      <trkpt lat="48.3697" lon="2.71588">
        <ele>102.9</ele>
        <time>2023-07-20T08:19:27Z</time>
      </trkpt>
      <trkpt lat="48.3697" lon="2.71586">
        <ele>102.9</ele>
        <time>2023-07-20T08:19:28Z</time>
      </trkpt>
      <trkpt lat="48.3697" lon="2.71585">
        <ele>103</ele>
        <time>2023-07-20T08:19:29Z</time>
      </trkpt>
      <trkpt lat="48.36972" lon="2.71584">
        <ele>103</ele>
        <time>2023-07-20T08:19:30Z</time>
      </trkpt>
      <trkpt lat="48.36972" lon="2.71582">
        <ele>103.1</ele>
        <time>2023-07-20T08:19:31Z</time>
      </trkpt>
      <trkpt lat="48.36972" lon="2.71581">
        <ele>103.1</ele>
        <time>2023-07-20T08:19:32Z</time>
      </trkpt>
      <trkpt lat="48.36973" lon="2.7158">
        <ele>103.1</ele>
        <time>2023-07-20T08:19:33Z</time>
      </trkpt>
      <trkpt lat="48.36973" lon="2.71579">
        <ele>103.1</ele>
        <time>2023-07-20T08:19:34Z</time>
      </trkpt>
      <trkpt lat="48.36974" lon="2.71578">
        <ele>103.2</ele>
        <time>2023-07-20T08:19:35Z</time>
      </trkpt>
      <trkpt lat="48.36974" lon="2.71576">
        <ele>103.2</ele>
        <time>2023-07-20T08:19:36Z</time>
      </trkpt>
      <trkpt lat="48.36975" lon="2.71575">
        <ele>103.3</ele>
        <time>2023-07-20T08:19:37Z</time>
      </trkpt>
      <trkpt lat="48.36976" lon="2.71574">
        <ele>103.3</ele>
        <time>2023-07-20T08:19:38Z</time>
      </trkpt>
      <trkpt lat="48.36976" lon="2.71573">
        <ele>103.3</ele>
        <time>2023-07-20T08:19:39Z</time>
      </trkpt>
      <trkpt lat="48.36977" lon="2.71571">
        <ele>103.4</ele>
        <time>2023-07-20T08:19:40Z</time>
      </trkpt>
      <trkpt lat="48.36978" lon="2.7157">
        <ele>103.4</ele>
        <time>2023-07-20T08:19:41Z</time>
      </trkpt>
      <trkpt lat="48.36978" lon="2.71569">
        <ele>103.5</ele>
        <time>2023-07-20T08:19:42Z</time>
      </trkpt>
      <trkpt lat="48.36979" lon="2.71567">
        <ele>103.5</ele>
        <time>2023-07-20T08:19:43Z</time>
      </trkpt>
      <trkpt lat="48.36979" lon="2.71566">
        <ele>103.6</ele>
        <time>2023-07-20T08:19:44Z</time>
      </trkpt>
      <trkpt lat="48.3698" lon="2.71564">
        <ele>103.6</ele>
        <time>2023-07-20T08:19:45Z</time>
      </trkpt>
      <trkpt lat="48.3698" lon="2.71563">
        <ele>103.7</ele>
        <time>2023-07-20T08:19:46Z</time>
      </trkpt>
      <trkpt lat="48.3698" lon="2.71561">
        <ele>103.7</ele>
        <time>2023-07-20T08:19:47Z</time>
      </trkpt>
      <trkpt lat="48.36981" lon="2.71559">
        <ele>103.8</ele>
        <time>2023-07-20T08:19:48Z</time>
      </trkpt>
      <trkpt lat="48.36981" lon="2.71558">
        <ele>103.8</ele>
        <time>2023-07-20T08:19:49Z</time>
      </trkpt>
      <trkpt lat="48.36982" lon="2.71557">
        <ele>103.9</ele>
        <time>2023-07-20T08:19:50Z</time>
      </trkpt>
      <trkpt lat="48.36983" lon="2.71557">
        <ele>103.9</ele>
        <time>2023-07-20T08:19:51Z</time>
      </trkpt>
      <trkpt lat="48.36983" lon="2.71555">
        <ele>103.9</ele>
        <time>2023-07-20T08:19:52Z</time>
      </trkpt>
      <trkpt lat="48.36983" lon="2.71555">
        <ele>104</ele>
        <time>2023-07-20T08:19:53Z</time>
      </trkpt>
      <trkpt lat="48.36984" lon="2.71554">
        <ele>104</ele>
        <time>2023-07-20T08:19:54Z</time>
      </trkpt>
      <trkpt lat="48.36984" lon="2.71552">
        <ele>104</ele>
        <time>2023-07-20T08:19:55Z</time>
      </trkpt>
      <trkpt lat="48.36985" lon="2.7155">
        <ele>104.1</ele>
        <time>2023-07-20T08:19:56Z</time>
      </trkpt>
      <trkpt lat="48.36985" lon="2.71549">
        <ele>104.1</ele>
        <time>2023-07-20T08:19:57Z</time>
      </trkpt>
      <trkpt lat="48.36985" lon="2.71547">
        <ele>104.2</ele>
        <time>2023-07-20T08:19:58Z</time>
      </trkpt>
      <trkpt lat="48.36986" lon="2.71546">
        <ele>104.2</ele>
        <time>2023-07-20T08:19:59Z</time>
      </trkpt>
      <trkpt lat="48.36986" lon="2.71545">
        <ele>104.3</ele>
        <time>2023-07-20T08:20:00Z</time>
      </trkpt>
      <trkpt lat="48.36986" lon="2.71542">
        <ele>104.3</ele>
        <time>2023-07-20T08:20:01Z</time>
      </trkpt>
      <trkpt lat="48.36986" lon="2.71541">
        <ele>104.4</ele>
        <time>2023-07-20T08:20:02Z</time>
      </trkpt>
      <trkpt lat="48.36987" lon="2.7154">
        <ele>104.4</ele>
        <time>2023-07-20T08:20:03Z</time>
      </trkpt>
      <trkpt lat="48.36987" lon="2.71539">
        <ele>104.4</ele>
        <time>2023-07-20T08:20:04Z</time>
      </trkpt>
      <trkpt lat="48.36989" lon="2.71538">
        <ele>104.5</ele>
        <time>2023-07-20T08:20:05Z</time>
      </trkpt>
      <trkpt lat="48.36989" lon="2.71537">
        <ele>104.5</ele>
        <time>2023-07-20T08:20:06Z</time>
      </trkpt>
      <trkpt lat="48.3699" lon="2.71537">
        <ele>104.5</ele>
        <time>2023-07-20T08:20:07Z</time>
      </trkpt>
      <trkpt lat="48.3699" lon="2.71536">
        <ele>104.6</ele>
        <time>2023-07-20T08:20:08Z</time>
      </trkpt>
      <trkpt lat="48.3699" lon="2.71535">
        <ele>104.6</ele>
        <time>2023-07-20T08:20:09Z</time>
      </trkpt>
      <trkpt lat="48.3699" lon="2.71534">
        <ele>104.6</ele>
        <time>2023-07-20T08:20:10Z</time>
      </trkpt>
      <trkpt lat="48.36991" lon="2.71534">
        <ele>104.6</ele>
        <time>2023-07-20T08:20:11Z</time>
      </trkpt>
      <trkpt lat="48.36991" lon="2.71533">
        <ele>104.7</ele>
        <time>2023-07-20T08:20:12Z</time>
      </trkpt>
      <trkpt lat="48.36991" lon="2.71531">
        <ele>104.7</ele>
        <time>2023-07-20T08:20:13Z</time>
      </trkpt>
      <trkpt lat="48.36991" lon="2.71531">
        <ele>104.7</ele>
        <time>2023-07-20T08:20:14Z</time>
      </trkpt>
      <trkpt lat="48.36992" lon="2.71529">
        <ele>104.8</ele>
        <time>2023-07-20T08:20:15Z</time>
      </trkpt>
      <trkpt lat="48.36992" lon="2.71526">
        <ele>104.8</ele>
        <time>2023-07-20T08:20:16Z</time>
      </trkpt>
      <trkpt lat="48.36992" lon="2.71525">
        <ele>104.9</ele>
        <time>2023-07-20T08:20:17Z</time>
      </trkpt>
      <trkpt lat="48.36993" lon="2.71523">
        <ele>104.9</ele>
        <time>2023-07-20T08:20:18Z</time>
      </trkpt>
      <trkpt lat="48.36993" lon="2.71521">
        <ele>105</ele>
        <time>2023-07-20T08:20:19Z</time>
      </trkpt>
      <trkpt lat="48.36994" lon="2.7152">
        <ele>105</ele>
        <time>2023-07-20T08:20:20Z</time>
      </trkpt>
      <trkpt lat="48.36995" lon="2.71519">
        <ele>105.1</ele>
        <time>2023-07-20T08:20:21Z</time>
      </trkpt>
      <trkpt lat="48.36996" lon="2.71516">
        <ele>105.1</ele>
        <time>2023-07-20T08:20:22Z</time>
      </trkpt>
      <trkpt lat="48.36997" lon="2.71515">
        <ele>105.2</ele>
        <time>2023-07-20T08:20:23Z</time>
      </trkpt>
      <trkpt lat="48.36997" lon="2.71514">
        <ele>105.2</ele>
        <time>2023-07-20T08:20:24Z</time>
      </trkpt>
      <trkpt lat="48.36997" lon="2.71513">
        <ele>105.2</ele>
        <time>2023-07-20T08:20:25Z</time>
      </trkpt>
      <trkpt lat="48.36998" lon="2.71511">
        <ele>105.3</ele>
        <time>2023-07-20T08:20:26Z</time>
      </trkpt>
      <trkpt lat="48.36998" lon="2.7151">
        <ele>105.3</ele>
        <time>2023-07-20T08:20:27Z</time>
      </trkpt>
      <trkpt lat="48.36998" lon="2.71509">
        <ele>105.3</ele>
        <time>2023-07-20T08:20:28Z</time>
      </trkpt>
      <trkpt lat="48.36999" lon="2.71508">
        <ele>105.4</ele>
        <time>2023-07-20T08:20:29Z</time>
      </trkpt>
      <trkpt lat="48.37" lon="2.71507">
        <ele>105.4</ele>
        <time>2023-07-20T08:20:30Z</time>
      </trkpt>
      <trkpt lat="48.37002" lon="2.71503">
        <ele>105.5</ele>
        <time>2023-07-20T08:20:31Z</time>
      </trkpt>
      <trkpt lat="48.37002" lon="2.71502">
        <ele>105.6</ele>
        <time>2023-07-20T08:20:32Z</time>
      </trkpt>
      <trkpt lat="48.37003" lon="2.71501">
        <ele>105.6</ele>
        <time>2023-07-20T08:20:33Z</time>
      </trkpt>
      <trkpt lat="48.37003" lon="2.715">
        <ele>105.6</ele>
        <time>2023-07-20T08:20:34Z</time>
      </trkpt>
      <trkpt lat="48.37004" lon="2.71498">
        <ele>105.7</ele>
        <time>2023-07-20T08:20:35Z</time>
      </trkpt>
      <trkpt lat="48.37004" lon="2.71497">
        <ele>105.7</ele>
        <time>2023-07-20T08:20:36Z</time>
      </trkpt>
      <trkpt lat="48.37005" lon="2.71495">
        <ele>105.7</ele>
        <time>2023-07-20T08:20:37Z</time>
      </trkpt>
      <trkpt lat="48.37005" lon="2.71494">
        <ele>105.7</ele>
        <time>2023-07-20T08:20:38Z</time>
      </trkpt>
      <trkpt lat="48.37005" lon="2.71494">
        <ele>105.8</ele>
        <time>2023-07-20T08:20:39Z</time>
      </trkpt>
      <trkpt lat="48.37006" lon="2.71493">
        <ele>105.8</ele>
        <time>2023-07-20T08:20:40Z</time>
      </trkpt>
      <trkpt lat="48.37006" lon="2.71492">
        <ele>105.8</ele>
        <time>2023-07-20T08:20:41Z</time>
      </trkpt>
      <trkpt lat="48.37007" lon="2.7149">
        <ele>105.9</ele>
        <time>2023-07-20T08:20:42Z</time>
      </trkpt>
      <trkpt lat="48.37007" lon="2.71489">
        <ele>105.9</ele>
        <time>2023-07-20T08:20:43Z</time>
      </trkpt>
      <trkpt lat="48.37007" lon="2.71488">
        <ele>105.9</ele>
        <time>2023-07-20T08:20:44Z</time>
      </trkpt>
      <trkpt lat="48.37008" lon="2.71486">
        <ele>106</ele>
        <time>2023-07-20T08:20:45Z</time>
      </trkpt>
      <trkpt lat="48.37008" lon="2.71485">
        <ele>106</ele>
        <time>2023-07-20T08:20:46Z</time>
      </trkpt>
      <trkpt lat="48.37008" lon="2.71483">
        <ele>106</ele>
        <time>2023-07-20T08:20:47Z</time>
      </trkpt>
      <trkpt lat="48.37008" lon="2.71482">
        <ele>106.1</ele>
        <time>2023-07-20T08:20:48Z</time>
      </trkpt>
      <trkpt lat="48.37009" lon="2.71481">
        <ele>106.1</ele>
        <time>2023-07-20T08:20:49Z</time>
      </trkpt>
      <trkpt lat="48.3701" lon="2.7148">
        <ele>106.1</ele>
        <time>2023-07-20T08:20:50Z</time>
      </trkpt>
      <trkpt lat="48.3701" lon="2.71479">
        <ele>106.2</ele>
        <time>2023-07-20T08:20:51Z</time>
      </trkpt>
      <trkpt lat="48.37011" lon="2.71478">
        <ele>106.2</ele>
        <time>2023-07-20T08:20:52Z</time>
      </trkpt>
      <trkpt lat="48.37011" lon="2.71477">
        <ele>106.2</ele>
        <time>2023-07-20T08:20:53Z</time>
      </trkpt>
      <trkpt lat="48.37012" lon="2.71475">
        <ele>106.3</ele>
        <time>2023-07-20T08:20:54Z</time>
      </trkpt>
      <trkpt lat="48.37013" lon="2.71473">
        <ele>106.3</ele>
        <time>2023-07-20T08:20:55Z</time>
      </trkpt>
      <trkpt lat="48.37013" lon="2.71472">
        <ele>106.4</ele>
        <time>2023-07-20T08:20:56Z</time>
      </trkpt>
      <trkpt lat="48.37014" lon="2.7147">
        <ele>106.4</ele>
        <time>2023-07-20T08:20:57Z</time>
      </trkpt>
      <trkpt lat="48.37015" lon="2.7147">
        <ele>106.5</ele>
        <time>2023-07-20T08:20:58Z</time>
      </trkpt>
      <trkpt lat="48.37016" lon="2.71469">
        <ele>106.5</ele>
        <time>2023-07-20T08:20:59Z</time>
      </trkpt>
      <trkpt lat="48.37016" lon="2.71467">
        <ele>106.6</ele>
        <time>2023-07-20T08:21:00Z</time>
      </trkpt>
      <trkpt lat="48.37017" lon="2.71466">
        <ele>106.6</ele>
        <time>2023-07-20T08:21:01Z</time>
      </trkpt>
      <trkpt lat="48.37018" lon="2.71466">
        <ele>106.7</ele>
        <time>2023-07-20T08:21:02Z</time>
      </trkpt>
      <trkpt lat="48.37019" lon="2.71464">
        <ele>106.7</ele>
        <time>2023-07-20T08:21:03Z</time>
      </trkpt>
      <trkpt lat="48.37019" lon="2.71463">
        <ele>106.8</ele>
        <time>2023-07-20T08:21:04Z</time>
      </trkpt>
      <trkpt lat="48.37019" lon="2.71462">
        <ele>106.8</ele>
        <time>2023-07-20T08:21:05Z</time>
      </trkpt>
      <trkpt lat="48.3702" lon="2.71462">
        <ele>106.8</ele>
        <time>2023-07-20T08:21:06Z</time>
      </trkpt>
      <trkpt lat="48.3702" lon="2.71462">
        <ele>106.8</ele>
        <time>2023-07-20T08:21:07Z</time>
      </trkpt>
      <trkpt lat="48.3702" lon="2.71461">
        <ele>106.8</ele>
        <time>2023-07-20T08:21:08Z</time>
      </trkpt>
      <trkpt lat="48.37021" lon="2.71459">
        <ele>106.9</ele>
        <time>2023-07-20T08:21:09Z</time>
      </trkpt>
      <trkpt lat="48.37022" lon="2.71457">
        <ele>107</ele>
        <time>2023-07-20T08:21:10Z</time>
      </trkpt>
      <trkpt lat="48.37022" lon="2.71457">
        <ele>107</ele>
        <time>2023-07-20T08:21:11Z</time>
      </trkpt>
      <trkpt lat="48.37022" lon="2.71455">
        <ele>107.1</ele>
        <time>2023-07-20T08:21:12Z</time>
      </trkpt>
      <trkpt lat="48.37023" lon="2.71454">
        <ele>107.1</ele>
        <time>2023-07-20T08:21:13Z</time>
      </trkpt>
      <trkpt lat="48.37024" lon="2.71453">
        <ele>107.2</ele>
        <time>2023-07-20T08:21:14Z</time>
      </trkpt>
      <trkpt lat="48.37025" lon="2.71452">
        <ele>107.2</ele>
        <time>2023-07-20T08:21:15Z</time>
      </trkpt>
      <trkpt lat="48.37026" lon="2.71451">
        <ele>107.2</ele>
        <time>2023-07-20T08:21:16Z</time>
      </trkpt>
      <trkpt lat="48.37028" lon="2.71449">
        <ele>107.3</ele>
        <time>2023-07-20T08:21:17Z</time>
      </trkpt>
      <trkpt lat="48.37028" lon="2.71448">
        <ele>107.4</ele>
        <time>2023-07-20T08:21:18Z</time>
      </trkpt>
      <trkpt lat="48.37029" lon="2.71447">
        <ele>107.4</ele>
        <time>2023-07-20T08:21:19Z</time>
      </trkpt>
      <trkpt lat="48.37029" lon="2.71446">
        <ele>107.4</ele>
        <time>2023-07-20T08:21:20Z</time>
      </trkpt>
      <trkpt lat="48.3703" lon="2.71445">
        <ele>107.5</ele>
        <time>2023-07-20T08:21:21Z</time>
      </trkpt>
      <trkpt lat="48.3703" lon="2.71444">
        <ele>107.5</ele>
        <time>2023-07-20T08:21:22Z</time>
      </trkpt>
      <trkpt lat="48.3703" lon="2.71443">
        <ele>107.5</ele>
        <time>2023-07-20T08:21:23Z</time>
      </trkpt>
      <trkpt lat="48.37031" lon="2.7144">
        <ele>107.6</ele>
        <time>2023-07-20T08:21:24Z</time>
      </trkpt>
      <trkpt lat="48.37031" lon="2.7144">
        <ele>107.6</ele>
        <time>2023-07-20T08:21:25Z</time>
      </trkpt>
      <trkpt lat="48.37032" lon="2.71439">
        <ele>107.7</ele>
        <time>2023-07-20T08:21:26Z</time>
      </trkpt>
      <trkpt lat="48.37033" lon="2.71438">
        <ele>107.7</ele>
        <time>2023-07-20T08:21:27Z</time>
      </trkpt>
      <trkpt lat="48.37034" lon="2.71436">
        <ele>107.8</ele>
        <time>2023-07-20T08:21:28Z</time>
      </trkpt>
      <trkpt lat="48.37035" lon="2.71434">
        <ele>107.9</ele>
        <time>2023-07-20T08:21:29Z</time>
      </trkpt>
      <trkpt lat="48.37035" lon="2.71433">
        <ele>107.9</ele>
        <time>2023-07-20T08:21:30Z</time>
      </trkpt>
      <trkpt lat="48.37036" lon="2.71433">
        <ele>107.9</ele>
        <time>2023-07-20T08:21:31Z</time>
      </trkpt>
      <trkpt lat="48.37037" lon="2.71432">
        <ele>108</ele>
        <time>2023-07-20T08:21:32Z</time>
      </trkpt>
      <trkpt lat="48.37037" lon="2.71431">
        <ele>108</ele>
        <time>2023-07-20T08:21:33Z</time>
      </trkpt>
      <trkpt lat="48.37037" lon="2.7143">
        <ele>108</ele>
        <time>2023-07-20T08:21:34Z</time>
      </trkpt>
      <trkpt lat="48.37038" lon="2.71428">
        <ele>108.1</ele>
        <time>2023-07-20T08:21:35Z</time>
      </trkpt>
      <trkpt lat="48.3704" lon="2.71424">
        <ele>108.2</ele>
        <time>2023-07-20T08:21:36Z</time>
      </trkpt>
      <trkpt lat="48.3704" lon="2.71423">
        <ele>108.3</ele>
        <time>2023-07-20T08:21:37Z</time>
      </trkpt>
      <trkpt lat="48.37041" lon="2.71418">
        <ele>108.4</ele>
        <time>2023-07-20T08:21:38Z</time>
      </trkpt>
      <trkpt lat="48.37042" lon="2.71417">
        <ele>108.4</ele>
        <time>2023-07-20T08:21:39Z</time>
      </trkpt>
      <trkpt lat="48.37043" lon="2.71415">
        <ele>108.5</ele>
        <time>2023-07-20T08:21:40Z</time>
      </trkpt>
      <trkpt lat="48.37044" lon="2.71414">
        <ele>108.6</ele>
        <time>2023-07-20T08:21:41Z</time>
      </trkpt>
      <trkpt lat="48.37047" lon="2.71414">
        <ele>108.7</ele>
        <time>2023-07-20T08:21:42Z</time>
      </trkpt>
      <trkpt lat="48.37048" lon="2.71413">
        <ele>108.8</ele>
        <time>2023-07-20T08:21:43Z</time>
      </trkpt>
      <trkpt lat="48.37049" lon="2.71413">
        <ele>108.8</ele>
        <time>2023-07-20T08:21:44Z</time>
      </trkpt>
      <trkpt lat="48.3705" lon="2.71411">
        <ele>108.9</ele>
        <time>2023-07-20T08:21:45Z</time>
      </trkpt>
      <trkpt lat="48.37051" lon="2.7141">
        <ele>109</ele>
        <time>2023-07-20T08:21:46Z</time>
      </trkpt>
      <trkpt lat="48.37052" lon="2.71409">
        <ele>109</ele>
        <time>2023-07-20T08:21:47Z</time>
      </trkpt>
      <trkpt lat="48.37054" lon="2.71407">
        <ele>109.1</ele>
        <time>2023-07-20T08:21:48Z</time>
      </trkpt>
      <trkpt lat="48.37055" lon="2.71407">
        <ele>109.2</ele>
        <time>2023-07-20T08:21:49Z</time>
      </trkpt>
      <trkpt lat="48.37056" lon="2.71407">
        <ele>109.2</ele>
        <time>2023-07-20T08:21:50Z</time>
      </trkpt>
      <trkpt lat="48.37057" lon="2.71405">
        <ele>109.3</ele>
        <time>2023-07-20T08:21:51Z</time>
      </trkpt>
      <trkpt lat="48.37057" lon="2.71403">
        <ele>109.3</ele>
        <time>2023-07-20T08:21:52Z</time>
      </trkpt>
      <trkpt lat="48.37058" lon="2.71402">
        <ele>109.4</ele>
        <time>2023-07-20T08:21:53Z</time>
      </trkpt>
      <trkpt lat="48.37059" lon="2.71401">
        <ele>109.5</ele>
        <time>2023-07-20T08:21:54Z</time>
      </trkpt>
      <trkpt lat="48.3706" lon="2.71399">
        <ele>109.6</ele>
        <time>2023-07-20T08:21:55Z</time>
      </trkpt>
      <trkpt lat="48.37061" lon="2.71398">
        <ele>109.6</ele>
        <time>2023-07-20T08:21:56Z</time>
      </trkpt>
      <trkpt lat="48.37061" lon="2.71397">
        <ele>109.7</ele>
        <time>2023-07-20T08:21:57Z</time>
      </trkpt>
      <trkpt lat="48.37062" lon="2.71396">
        <ele>109.8</ele>
        <time>2023-07-20T08:21:58Z</time>
      </trkpt>
      <trkpt lat="48.37063" lon="2.71395">
        <ele>109.8</ele>
        <time>2023-07-20T08:21:59Z</time>
      </trkpt>
      <trkpt lat="48.37064" lon="2.71395">
        <ele>109.9</ele>
        <time>2023-07-20T08:22:00Z</time>
      </trkpt>
      <trkpt lat="48.37065" lon="2.71395">
        <ele>109.9</ele>
        <time>2023-07-20T08:22:01Z</time>
      </trkpt>
      <trkpt lat="48.37066" lon="2.71395">
        <ele>110</ele>
        <time>2023-07-20T08:22:02Z</time>
      </trkpt>
      <trkpt lat="48.37067" lon="2.71393">
        <ele>110.1</ele>
        <time>2023-07-20T08:22:03Z</time>
      </trkpt>
      <trkpt lat="48.37069" lon="2.71392">
        <ele>110.2</ele>
        <time>2023-07-20T08:22:04Z</time>
      </trkpt>
      <trkpt lat="48.37069" lon="2.71391">
        <ele>110.3</ele>
        <time>2023-07-20T08:22:05Z</time>
      </trkpt>
      <trkpt lat="48.3707" lon="2.7139">
        <ele>110.4</ele>
        <time>2023-07-20T08:22:06Z</time>
      </trkpt>
      <trkpt lat="48.37071" lon="2.71388">
        <ele>110.5</ele>
        <time>2023-07-20T08:22:07Z</time>
      </trkpt>
      <trkpt lat="48.37072" lon="2.71388">
        <ele>110.5</ele>
        <time>2023-07-20T08:22:08Z</time>
      </trkpt>
      <trkpt lat="48.37072" lon="2.71387">
        <ele>110.6</ele>
        <time>2023-07-20T08:22:09Z</time>
      </trkpt>
      <trkpt lat="48.37073" lon="2.71387">
        <ele>110.6</ele>
        <time>2023-07-20T08:22:10Z</time>
      </trkpt>
      <trkpt lat="48.37073" lon="2.71386">
        <ele>110.7</ele>
        <time>2023-07-20T08:22:11Z</time>
      </trkpt>
      <trkpt lat="48.37074" lon="2.71385">
        <ele>110.9</ele>
        <time>2023-07-20T08:22:12Z</time>
      </trkpt>
      <trkpt lat="48.37075" lon="2.71383">
        <ele>111</ele>
        <time>2023-07-20T08:22:13Z</time>
      </trkpt>
      <trkpt lat="48.37075" lon="2.71383">
        <ele>111.1</ele>
        <time>2023-07-20T08:22:14Z</time>
      </trkpt>
      <trkpt lat="48.37077" lon="2.71383">
        <ele>111.2</ele>
        <time>2023-07-20T08:22:15Z</time>
      </trkpt>
      <trkpt lat="48.37077" lon="2.71382">
        <ele>111.2</ele>
        <time>2023-07-20T08:22:16Z</time>
      </trkpt>
      <trkpt lat="48.37078" lon="2.71381">
        <ele>111.3</ele>
        <time>2023-07-20T08:22:17Z</time>
      </trkpt>
      <trkpt lat="48.37079" lon="2.71379">
        <ele>111.4</ele>
        <time>2023-07-20T08:22:18Z</time>
      </trkpt>
      <trkpt lat="48.37079" lon="2.71379">
        <ele>111.4</ele>
        <time>2023-07-20T08:22:19Z</time>
      </trkpt>
      <trkpt lat="48.3708" lon="2.71378">
        <ele>111.5</ele>
        <time>2023-07-20T08:22:20Z</time>
      </trkpt>
      <trkpt lat="48.37081" lon="2.71376">
        <ele>111.6</ele>
        <time>2023-07-20T08:22:21Z</time>
      </trkpt>
      <trkpt lat="48.37081" lon="2.71374">
        <ele>111.7</ele>
        <time>2023-07-20T08:22:22Z</time>
      </trkpt>
      <trkpt lat="48.37082" lon="2.71373">
        <ele>111.8</ele>
        <time>2023-07-20T08:22:23Z</time>
      </trkpt>
      <trkpt lat="48.37082" lon="2.71373">
        <ele>111.8</ele>
        <time>2023-07-20T08:22:24Z</time>
      </trkpt>
      <trkpt lat="48.37082" lon="2.71373">
        <ele>111.8</ele>
        <time>2023-07-20T08:22:25Z</time>
      </trkpt>
      <trkpt lat="48.37083" lon="2.71372">
        <ele>111.9</ele>
        <time>2023-07-20T08:22:26Z</time>
      </trkpt>
      <trkpt lat="48.37083" lon="2.71371">
        <ele>111.9</ele>
        <time>2023-07-20T08:22:27Z</time>
      </trkpt>
      <trkpt lat="48.37084" lon="2.7137">
        <ele>112</ele>
        <time>2023-07-20T08:22:28Z</time>
      </trkpt>
      <trkpt lat="48.37085" lon="2.7137">
        <ele>112.1</ele>
        <time>2023-07-20T08:22:29Z</time>
      </trkpt>
      <trkpt lat="48.37085" lon="2.71369">
        <ele>112.1</ele>
        <time>2023-07-20T08:22:30Z</time>
      </trkpt>
      <trkpt lat="48.37086" lon="2.71369">
        <ele>112.2</ele>
        <time>2023-07-20T08:22:31Z</time>
      </trkpt>
      <trkpt lat="48.37087" lon="2.71368">
        <ele>112.3</ele>
        <time>2023-07-20T08:22:32Z</time>
      </trkpt>
      <trkpt lat="48.37089" lon="2.71367">
        <ele>112.5</ele>
        <time>2023-07-20T08:22:33Z</time>
      </trkpt>
      <trkpt lat="48.37089" lon="2.71366">
        <ele>112.5</ele>
        <time>2023-07-20T08:22:34Z</time>
      </trkpt>
      <trkpt lat="48.3709" lon="2.71365">
        <ele>112.6</ele>
        <time>2023-07-20T08:22:35Z</time>
      </trkpt>
      <trkpt lat="48.37091" lon="2.71364">
        <ele>112.8</ele>
        <time>2023-07-20T08:22:36Z</time>
      </trkpt>
      <trkpt lat="48.37092" lon="2.71364">
        <ele>112.8</ele>
        <time>2023-07-20T08:22:37Z</time>
      </trkpt>
      <trkpt lat="48.37093" lon="2.71363">
        <ele>113</ele>
        <time>2023-07-20T08:22:38Z</time>
      </trkpt>
      <trkpt lat="48.37094" lon="2.71362">
        <ele>113.1</ele>
        <time>2023-07-20T08:22:39Z</time>
      </trkpt>
      <trkpt lat="48.37096" lon="2.7136">
        <ele>113.3</ele>
        <time>2023-07-20T08:22:40Z</time>
      </trkpt>
      <trkpt lat="48.37096" lon="2.71359">
        <ele>113.4</ele>
        <time>2023-07-20T08:22:41Z</time>
      </trkpt>
      <trkpt lat="48.37096" lon="2.71359">
        <ele>113.5</ele>
        <time>2023-07-20T08:22:42Z</time>
      </trkpt>
      <trkpt lat="48.37097" lon="2.71357">
        <ele>113.6</ele>
        <time>2023-07-20T08:22:43Z</time>
      </trkpt>
      <trkpt lat="48.37098" lon="2.71357">
        <ele>113.6</ele>
        <time>2023-07-20T08:22:44Z</time>
      </trkpt>
      <trkpt lat="48.37099" lon="2.71357">
        <ele>113.8</ele>
        <time>2023-07-20T08:22:45Z</time>
      </trkpt>
      <trkpt lat="48.371" lon="2.71357">
        <ele>113.9</ele>
        <time>2023-07-20T08:22:46Z</time>
      </trkpt>
      <trkpt lat="48.37101" lon="2.71357">
        <ele>114</ele>
        <time>2023-07-20T08:22:47Z</time>
      </trkpt>
      <trkpt lat="48.37102" lon="2.71358">
        <ele>114.2</ele>
        <time>2023-07-20T08:22:48Z</time>
      </trkpt>
      <trkpt lat="48.37104" lon="2.71358">
        <ele>114.4</ele>
        <time>2023-07-20T08:22:49Z</time>
      </trkpt>
      <trkpt lat="48.37105" lon="2.71358">
        <ele>114.5</ele>
        <time>2023-07-20T08:22:50Z</time>
      </trkpt>
      <trkpt lat="48.37105" lon="2.71358">
        <ele>114.6</ele>
        <time>2023-07-20T08:22:51Z</time>
      </trkpt>
      <trkpt lat="48.37106" lon="2.71358">
        <ele>114.7</ele>
        <time>2023-07-20T08:22:52Z</time>
      </trkpt>
      <trkpt lat="48.37106" lon="2.71358">
        <ele>114.7</ele>
        <time>2023-07-20T08:22:53Z</time>
      </trkpt>
      <trkpt lat="48.37108" lon="2.71357">
        <ele>115</ele>
        <time>2023-07-20T08:22:54Z</time>
      </trkpt>
      <trkpt lat="48.37109" lon="2.71357">
        <ele>115.1</ele>
        <time>2023-07-20T08:22:55Z</time>
      </trkpt>
      <trkpt lat="48.3711" lon="2.71356">
        <ele>115.2</ele>
        <time>2023-07-20T08:22:56Z</time>
      </trkpt>
      <trkpt lat="48.37111" lon="2.71356">
        <ele>115.4</ele>
        <time>2023-07-20T08:22:57Z</time>
      </trkpt>
      <trkpt lat="48.37112" lon="2.71356">
        <ele>115.5</ele>
        <time>2023-07-20T08:22:58Z</time>
      </trkpt>
      <trkpt lat="48.37113" lon="2.71357">
        <ele>115.7</ele>
        <time>2023-07-20T08:22:59Z</time>
      </trkpt>
      <trkpt lat="48.37115" lon="2.71356">
        <ele>115.9</ele>
        <time>2023-07-20T08:23:00Z</time>
      </trkpt>
      <trkpt lat="48.37116" lon="2.71356">
        <ele>116</ele>
        <time>2023-07-20T08:23:01Z</time>
      </trkpt>
      <trkpt lat="48.37116" lon="2.71355">
        <ele>116.2</ele>
        <time>2023-07-20T08:23:02Z</time>
      </trkpt>
      <trkpt lat="48.37117" lon="2.71354">
        <ele>116.3</ele>
        <time>2023-07-20T08:23:03Z</time>
      </trkpt>
      <trkpt lat="48.37118" lon="2.71353">
        <ele>116.4</ele>
        <time>2023-07-20T08:23:04Z</time>
      </trkpt>
      <trkpt lat="48.37119" lon="2.71352">
        <ele>116.6</ele>
        <time>2023-07-20T08:23:05Z</time>
      </trkpt>
      <trkpt lat="48.37119" lon="2.71351">
        <ele>116.7</ele>
        <time>2023-07-20T08:23:06Z</time>
      </trkpt>
      <trkpt lat="48.3712" lon="2.7135">
        <ele>116.8</ele>
        <time>2023-07-20T08:23:07Z</time>
      </trkpt>
      <trkpt lat="48.37121" lon="2.71351">
        <ele>117</ele>
        <time>2023-07-20T08:23:08Z</time>
      </trkpt>
      <trkpt lat="48.37122" lon="2.71351">
        <ele>117.1</ele>
        <time>2023-07-20T08:23:09Z</time>
      </trkpt>
      <trkpt lat="48.37123" lon="2.7135">
        <ele>117.3</ele>
        <time>2023-07-20T08:23:10Z</time>
      </trkpt>
      <trkpt lat="48.37124" lon="2.71349">
        <ele>117.5</ele>
        <time>2023-07-20T08:23:11Z</time>
      </trkpt>
      <trkpt lat="48.37125" lon="2.71349">
        <ele>117.6</ele>
        <time>2023-07-20T08:23:12Z</time>
      </trkpt>
      <trkpt lat="48.37126" lon="2.71347">
        <ele>117.9</ele>
        <time>2023-07-20T08:23:13Z</time>
      </trkpt>
      <trkpt lat="48.37127" lon="2.71346">
        <ele>118</ele>
        <time>2023-07-20T08:23:14Z</time>
      </trkpt>
      <trkpt lat="48.37128" lon="2.71345">
        <ele>118.2</ele>
        <time>2023-07-20T08:23:15Z</time>
      </trkpt>
      <trkpt lat="48.37129" lon="2.71345">
        <ele>118.4</ele>
        <time>2023-07-20T08:23:16Z</time>
      </trkpt>
      <trkpt lat="48.3713" lon="2.71343">
        <ele>118.6</ele>
        <time>2023-07-20T08:23:17Z</time>
      </trkpt>
      <trkpt lat="48.37132" lon="2.71341">
        <ele>119</ele>
        <time>2023-07-20T08:23:18Z</time>
      </trkpt>
      <trkpt lat="48.37132" lon="2.71341">
        <ele>119.1</ele>
        <time>2023-07-20T08:23:19Z</time>
      </trkpt>
      <trkpt lat="48.37133" lon="2.71341">
        <ele>119.2</ele>
        <time>2023-07-20T08:23:20Z</time>
      </trkpt>
      <trkpt lat="48.37134" lon="2.7134">
        <ele>119.3</ele>
        <time>2023-07-20T08:23:21Z</time>
      </trkpt>
      <trkpt lat="48.37135" lon="2.7134">
        <ele>119.5</ele>
        <time>2023-07-20T08:23:22Z</time>
      </trkpt>
      <trkpt lat="48.37136" lon="2.71339">
        <ele>119.7</ele>
        <time>2023-07-20T08:23:23Z</time>
      </trkpt>
      <trkpt lat="48.37137" lon="2.71338">
        <ele>119.9</ele>
        <time>2023-07-20T08:23:24Z</time>
      </trkpt>
      <trkpt lat="48.37137" lon="2.71337">
        <ele>120.1</ele>
        <time>2023-07-20T08:23:25Z</time>
      </trkpt>
      <trkpt lat="48.37138" lon="2.71337">
        <ele>120.2</ele>
        <time>2023-07-20T08:23:26Z</time>
      </trkpt>
      <trkpt lat="48.37138" lon="2.71336">
        <ele>120.3</ele>
        <time>2023-07-20T08:23:27Z</time>
      </trkpt>
      <trkpt lat="48.37139" lon="2.71336">
        <ele>120.4</ele>
        <time>2023-07-20T08:23:28Z</time>
      </trkpt>
      <trkpt lat="48.3714" lon="2.71334">
        <ele>120.7</ele>
        <time>2023-07-20T08:23:29Z</time>
      </trkpt>
      <trkpt lat="48.37141" lon="2.71334">
        <ele>120.9</ele>
        <time>2023-07-20T08:23:30Z</time>
      </trkpt>
      <trkpt lat="48.37141" lon="2.71333">
        <ele>121</ele>
        <time>2023-07-20T08:23:31Z</time>
      </trkpt>
      <trkpt lat="48.37143" lon="2.71333">
        <ele>121.3</ele>
        <time>2023-07-20T08:23:32Z</time>
      </trkpt>
      <trkpt lat="48.37143" lon="2.71333">
        <ele>121.4</ele>
        <time>2023-07-20T08:23:33Z</time>
      </trkpt>
      <trkpt lat="48.37144" lon="2.71333">
        <ele>121.6</ele>
        <time>2023-07-20T08:23:34Z</time>
      </trkpt>
      <trkpt lat="48.37145" lon="2.71332">
        <ele>121.7</ele>
        <time>2023-07-20T08:23:35Z</time>
      </trkpt>
      <trkpt lat="48.37146" lon="2.71333">
        <ele>121.9</ele>
        <time>2023-07-20T08:23:36Z</time>
      </trkpt>
      <trkpt lat="48.37146" lon="2.71333">
        <ele>122</ele>
        <time>2023-07-20T08:23:37Z</time>
      </trkpt>
      <trkpt lat="48.37147" lon="2.71332">
        <ele>122.1</ele>
        <time>2023-07-20T08:23:38Z</time>
      </trkpt>
      <trkpt lat="48.37148" lon="2.71331">
        <ele>122.4</ele>
        <time>2023-07-20T08:23:39Z</time>
      </trkpt>
      <trkpt lat="48.37149" lon="2.7133">
        <ele>122.6</ele>
        <time>2023-07-20T08:23:40Z</time>
      </trkpt>
      <trkpt lat="48.37149" lon="2.7133">
        <ele>122.7</ele>
        <time>2023-07-20T08:23:41Z</time>
      </trkpt>
      <trkpt lat="48.3715" lon="2.7133">
        <ele>122.8</ele>
        <time>2023-07-20T08:23:42Z</time>
      </trkpt>
      <trkpt lat="48.3715" lon="2.7133">
        <ele>122.9</ele>
        <time>2023-07-20T08:23:43Z</time>
      </trkpt>
      <trkpt lat="48.37151" lon="2.7133">
        <ele>123</ele>
        <time>2023-07-20T08:23:44Z</time>
      </trkpt>
      <trkpt lat="48.37153" lon="2.71329">
        <ele>123.4</ele>
        <time>2023-07-20T08:23:45Z</time>
      </trkpt>
      <trkpt lat="48.37153" lon="2.71329">
        <ele>123.5</ele>
        <time>2023-07-20T08:23:46Z</time>
      </trkpt>
      <trkpt lat="48.37154" lon="2.71329">
        <ele>123.7</ele>
        <time>2023-07-20T08:23:47Z</time>
      </trkpt>
      <trkpt lat="48.37155" lon="2.71329">
        <ele>123.8</ele>
        <time>2023-07-20T08:23:48Z</time>
      </trkpt>
      <trkpt lat="48.37156" lon="2.7133">
        <ele>124</ele>
        <time>2023-07-20T08:23:49Z</time>
      </trkpt>
      <trkpt lat="48.37157" lon="2.71329">
        <ele>124.2</ele>
        <time>2023-07-20T08:23:50Z</time>
      </trkpt>
      <trkpt lat="48.37158" lon="2.71329">
        <ele>124.4</ele>
        <time>2023-07-20T08:23:51Z</time>
      </trkpt>
      <trkpt lat="48.37158" lon="2.71329">
        <ele>124.5</ele>
        <time>2023-07-20T08:23:52Z</time>
      </trkpt>
      <trkpt lat="48.37159" lon="2.71329">
        <ele>124.6</ele>
        <time>2023-07-20T08:23:53Z</time>
      </trkpt>
      <trkpt lat="48.3716" lon="2.71329">
        <ele>124.9</ele>
        <time>2023-07-20T08:23:54Z</time>
      </trkpt>
      <trkpt lat="48.37161" lon="2.71328">
        <ele>125.1</ele>
        <time>2023-07-20T08:23:55Z</time>
      </trkpt>
      <trkpt lat="48.37162" lon="2.71327">
        <ele>125.4</ele>
        <time>2023-07-20T08:23:56Z</time>
      </trkpt>
      <trkpt lat="48.37163" lon="2.71326">
        <ele>125.7</ele>
        <time>2023-07-20T08:23:57Z</time>
      </trkpt>
      <trkpt lat="48.37164" lon="2.71325">
        <ele>125.9</ele>
        <time>2023-07-20T08:23:58Z</time>
      </trkpt>
      <trkpt lat="48.37166" lon="2.71324">
        <ele>126.2</ele>
        <time>2023-07-20T08:23:59Z</time>
      </trkpt>
      <trkpt lat="48.37167" lon="2.71323">
        <ele>126.5</ele>
        <time>2023-07-20T08:24:00Z</time>
      </trkpt>
      <trkpt lat="48.37168" lon="2.71321">
        <ele>126.8</ele>
        <time>2023-07-20T08:24:01Z</time>
      </trkpt>
      <trkpt lat="48.37169" lon="2.71321">
        <ele>127</ele>
        <time>2023-07-20T08:24:02Z</time>
      </trkpt>
      <trkpt lat="48.3717" lon="2.7132">
        <ele>127.2</ele>
        <time>2023-07-20T08:24:03Z</time>
      </trkpt>
      <trkpt lat="48.37171" lon="2.7132">
        <ele>127.4</ele>
        <time>2023-07-20T08:24:04Z</time>
      </trkpt>
      <trkpt lat="48.37173" lon="2.71319">
        <ele>127.7</ele>
        <time>2023-07-20T08:24:05Z</time>
      </trkpt>
      <trkpt lat="48.37174" lon="2.71319">
        <ele>127.9</ele>
        <time>2023-07-20T08:24:06Z</time>
      </trkpt>
      <trkpt lat="48.37175" lon="2.71319">
        <ele>128</ele>
        <time>2023-07-20T08:24:07Z</time>
      </trkpt>
      <trkpt lat="48.37176" lon="2.71318">
        <ele>128.3</ele>
        <time>2023-07-20T08:24:08Z</time>
      </trkpt>
      <trkpt lat="48.37178" lon="2.71317">
        <ele>128.5</ele>
        <time>2023-07-20T08:24:09Z</time>
      </trkpt>
      <trkpt lat="48.37179" lon="2.71317">
        <ele>128.5</ele>
        <time>2023-07-20T08:24:10Z</time>
      </trkpt>
      <trkpt lat="48.3718" lon="2.71318">
        <ele>128.6</ele>
        <time>2023-07-20T08:24:11Z</time>
      </trkpt>
      <trkpt lat="48.37181" lon="2.71317">
        <ele>128.7</ele>
        <time>2023-07-20T08:24:12Z</time>
      </trkpt>
      <trkpt lat="48.37182" lon="2.71317">
        <ele>128.8</ele>
        <time>2023-07-20T08:24:13Z</time>
      </trkpt>
      <trkpt lat="48.37183" lon="2.71316">
        <ele>128.8</ele>
        <time>2023-07-20T08:24:14Z</time>
      </trkpt>
      <trkpt lat="48.37184" lon="2.71315">
        <ele>128.9</ele>
        <time>2023-07-20T08:24:15Z</time>
      </trkpt>
      <trkpt lat="48.37185" lon="2.71314">
        <ele>129</ele>
        <time>2023-07-20T08:24:16Z</time>
      </trkpt>
      <trkpt lat="48.37186" lon="2.71314">
        <ele>129</ele>
        <time>2023-07-20T08:24:17Z</time>
      </trkpt>
      <trkpt lat="48.37187" lon="2.71314">
        <ele>129.1</ele>
        <time>2023-07-20T08:24:18Z</time>
      </trkpt>
      <trkpt lat="48.37187" lon="2.71314">
        <ele>129.1</ele>
        <time>2023-07-20T08:24:19Z</time>
      </trkpt>
      <trkpt lat="48.3719" lon="2.71313">
        <ele>129.2</ele>
        <time>2023-07-20T08:24:20Z</time>
      </trkpt>
      <trkpt lat="48.3719" lon="2.71313">
        <ele>129.3</ele>
        <time>2023-07-20T08:24:21Z</time>
      </trkpt>
      <trkpt lat="48.37191" lon="2.71312">
        <ele>129.3</ele>
        <time>2023-07-20T08:24:22Z</time>
      </trkpt>
      <trkpt lat="48.37192" lon="2.71311">
        <ele>129.4</ele>
        <time>2023-07-20T08:24:24Z</time>
      </trkpt>
      <trkpt lat="48.37194" lon="2.71311">
        <ele>129.5</ele>
        <time>2023-07-20T08:24:25Z</time>
      </trkpt>
      <trkpt lat="48.37195" lon="2.7131">
        <ele>129.6</ele>
        <time>2023-07-20T08:24:26Z</time>
      </trkpt>
      <trkpt lat="48.37196" lon="2.71309">
        <ele>129.7</ele>
        <time>2023-07-20T08:24:27Z</time>
      </trkpt>
      <trkpt lat="48.37197" lon="2.7131">
        <ele>129.7</ele>
        <time>2023-07-20T08:24:28Z</time>
      </trkpt>
      <trkpt lat="48.37198" lon="2.71309">
        <ele>129.8</ele>
        <time>2023-07-20T08:24:29Z</time>
      </trkpt>
      <trkpt lat="48.37199" lon="2.7131">
        <ele>129.8</ele>
        <time>2023-07-20T08:24:30Z</time>
      </trkpt>
      <trkpt lat="48.372" lon="2.7131">
        <ele>129.9</ele>
        <time>2023-07-20T08:24:31Z</time>
      </trkpt>
      <trkpt lat="48.37201" lon="2.7131">
        <ele>129.9</ele>
        <time>2023-07-20T08:24:32Z</time>
      </trkpt>
      <trkpt lat="48.37202" lon="2.71309">
        <ele>130</ele>
        <time>2023-07-20T08:24:33Z</time>
      </trkpt>
      <trkpt lat="48.37202" lon="2.71309">
        <ele>130</ele>
        <time>2023-07-20T08:24:34Z</time>
      </trkpt>
      <trkpt lat="48.37203" lon="2.71309">
        <ele>130.1</ele>
        <time>2023-07-20T08:24:35Z</time>
      </trkpt>
      <trkpt lat="48.37205" lon="2.71309">
        <ele>130.2</ele>
        <time>2023-07-20T08:24:36Z</time>
      </trkpt>
      <trkpt lat="48.37206" lon="2.71309">
        <ele>130.2</ele>
        <time>2023-07-20T08:24:37Z</time>
      </trkpt>
      <trkpt lat="48.37207" lon="2.71309">
        <ele>130.3</ele>
        <time>2023-07-20T08:24:38Z</time>
      </trkpt>
      <trkpt lat="48.37209" lon="2.71309">
        <ele>130.4</ele>
        <time>2023-07-20T08:24:39Z</time>
      </trkpt>
      <trkpt lat="48.3721" lon="2.71309">
        <ele>130.4</ele>
        <time>2023-07-20T08:24:40Z</time>
      </trkpt>
      <trkpt lat="48.37211" lon="2.71309">
        <ele>130.5</ele>
        <time>2023-07-20T08:24:41Z</time>
      </trkpt>
      <trkpt lat="48.37212" lon="2.71309">
        <ele>130.5</ele>
        <time>2023-07-20T08:24:42Z</time>
      </trkpt>
      <trkpt lat="48.37213" lon="2.71309">
        <ele>130.6</ele>
        <time>2023-07-20T08:24:43Z</time>
      </trkpt>
      <trkpt lat="48.37214" lon="2.7131">
        <ele>130.6</ele>
        <time>2023-07-20T08:24:44Z</time>
      </trkpt>
      <trkpt lat="48.37215" lon="2.7131">
        <ele>130.7</ele>
        <time>2023-07-20T08:24:45Z</time>
      </trkpt>
      <trkpt lat="48.37216" lon="2.7131">
        <ele>130.7</ele>
        <time>2023-07-20T08:24:46Z</time>
      </trkpt>
      <trkpt lat="48.37217" lon="2.7131">
        <ele>130.8</ele>
        <time>2023-07-20T08:24:47Z</time>
      </trkpt>
      <trkpt lat="48.37218" lon="2.7131">
        <ele>130.8</ele>
        <time>2023-07-20T08:24:48Z</time>
      </trkpt>
      <trkpt lat="48.37218" lon="2.7131">
        <ele>130.9</ele>
        <time>2023-07-20T08:24:49Z</time>
      </trkpt>
      <trkpt lat="48.37219" lon="2.7131">
        <ele>130.9</ele>
        <time>2023-07-20T08:24:50Z</time>
      </trkpt>
      <trkpt lat="48.3722" lon="2.7131">
        <ele>130.9</ele>
        <time>2023-07-20T08:24:51Z</time>
      </trkpt>
      <trkpt lat="48.37221" lon="2.71309">
        <ele>131</ele>
        <time>2023-07-20T08:24:52Z</time>
      </trkpt>
      <trkpt lat="48.37222" lon="2.71309">
        <ele>131</ele>
        <time>2023-07-20T08:24:53Z</time>
      </trkpt>
      <trkpt lat="48.37223" lon="2.71309">
        <ele>131</ele>
        <time>2023-07-20T08:24:54Z</time>
      </trkpt>
      <trkpt lat="48.37223" lon="2.71309">
        <ele>131</ele>
        <time>2023-07-20T08:24:55Z</time>
      </trkpt>
      <trkpt lat="48.37224" lon="2.71309">
        <ele>131</ele>
        <time>2023-07-20T08:24:56Z</time>
      </trkpt>
      <trkpt lat="48.37225" lon="2.7131">
        <ele>131</ele>
        <time>2023-07-20T08:24:57Z</time>
      </trkpt>
      <trkpt lat="48.37226" lon="2.7131">
        <ele>131</ele>
        <time>2023-07-20T08:24:58Z</time>
      </trkpt>
      <trkpt lat="48.37226" lon="2.71311">
        <ele>131</ele>
        <time>2023-07-20T08:24:59Z</time>
      </trkpt>
      <trkpt lat="48.37227" lon="2.71311">
        <ele>131</ele>
        <time>2023-07-20T08:25:00Z</time>
      </trkpt>
      <trkpt lat="48.37227" lon="2.71311">
        <ele>131</ele>
        <time>2023-07-20T08:25:01Z</time>
      </trkpt>
      <trkpt lat="48.37228" lon="2.7131">
        <ele>131</ele>
        <time>2023-07-20T08:25:02Z</time>
      </trkpt>
      <trkpt lat="48.37228" lon="2.71311">
        <ele>131.1</ele>
        <time>2023-07-20T08:25:03Z</time>
      </trkpt>
      <trkpt lat="48.37228" lon="2.71311">
        <ele>131.1</ele>
        <time>2023-07-20T08:25:04Z</time>
      </trkpt>
      <trkpt lat="48.37228" lon="2.71311">
        <ele>131.1</ele>
        <time>2023-07-20T08:25:05Z</time>
      </trkpt>
      <trkpt lat="48.37228" lon="2.71311">
        <ele>131.1</ele>
        <time>2023-07-20T08:25:06Z</time>
      </trkpt>
      <trkpt lat="48.37228" lon="2.71311">
        <ele>131.1</ele>
        <time>2023-07-20T08:25:07Z</time>
      </trkpt>
      <trkpt lat="48.37228" lon="2.71311">
        <ele>131.1</ele>
        <time>2023-07-20T08:25:08Z</time>
      </trkpt>
      <trkpt lat="48.37228" lon="2.71311">
        <ele>131.1</ele>
        <time>2023-07-20T08:25:09Z</time>
      </trkpt>
      <trkpt lat="48.37228" lon="2.71311">
        <ele>131.1</ele>
        <time>2023-07-20T08:25:10Z</time>
      </trkpt>
      <trkpt lat="48.37228" lon="2.71311">
        <ele>131.1</ele>
        <time>2023-07-20T08:25:11Z</time>
      </trkpt>
      <trkpt lat="48.37228" lon="2.71311">
        <ele>131.1</ele>
        <time>2023-07-20T08:25:12Z</time>
      </trkpt>
      <trkpt lat="48.37228" lon="2.71311">
        <ele>131.1</ele>
        <time>2023-07-20T08:25:13Z</time>
      </trkpt>
      <trkpt lat="48.37228" lon="2.71311">
        <ele>131.1</ele>
        <time>2023-07-20T08:25:14Z</time>
      </trkpt>
      <trkpt lat="48.37228" lon="2.71312">
        <ele>131.1</ele>
        <time>2023-07-20T08:25:15Z</time>
      </trkpt>
      <trkpt lat="48.37228" lon="2.71312">
        <ele>131.1</ele>
        <time>2023-07-20T08:25:16Z</time>
      </trkpt>
      <trkpt lat="48.37228" lon="2.71312">
        <ele>131.1</ele>
        <time>2023-07-20T08:25:17Z</time>
      </trkpt>
      <trkpt lat="48.37228" lon="2.71311">
        <ele>131.1</ele>
        <time>2023-07-20T08:25:18Z</time>
      </trkpt>
      <trkpt lat="48.37228" lon="2.71312">
        <ele>131.1</ele>
        <time>2023-07-20T08:25:19Z</time>
      </trkpt>
      <trkpt lat="48.37228" lon="2.71312">
        <ele>131.1</ele>
        <time>2023-07-20T08:25:20Z</time>
      </trkpt>
      <trkpt lat="48.37228" lon="2.71311">
        <ele>131.1</ele>
        <time>2023-07-20T08:25:21Z</time>
      </trkpt>
      <trkpt lat="48.37228" lon="2.71312">
        <ele>131.1</ele>
        <time>2023-07-20T08:25:22Z</time>
      </trkpt>
      <trkpt lat="48.37226" lon="2.71312">
        <ele>131.1</ele>
        <time>2023-07-20T08:25:23Z</time>
      </trkpt>
      <trkpt lat="48.37225" lon="2.71312">
        <ele>131.1</ele>
        <time>2023-07-20T08:25:24Z</time>
      </trkpt>
      <trkpt lat="48.37225" lon="2.71312">
        <ele>131.1</ele>
        <time>2023-07-20T08:25:25Z</time>
      </trkpt>
      <trkpt lat="48.37225" lon="2.71312">
        <ele>131.1</ele>
        <time>2023-07-20T08:25:26Z</time>
      </trkpt>
      <trkpt lat="48.37225" lon="2.71312">
        <ele>131.1</ele>
        <time>2023-07-20T08:25:27Z</time>
      </trkpt>
      <trkpt lat="48.37225" lon="2.71313">
        <ele>131.1</ele>
        <time>2023-07-20T08:25:28Z</time>
      </trkpt>
      <trkpt lat="48.37225" lon="2.71313">
        <ele>131.1</ele>
        <time>2023-07-20T08:25:29Z</time>
      </trkpt>
      <trkpt lat="48.37225" lon="2.71313">
        <ele>131.1</ele>
        <time>2023-07-20T08:25:30Z</time>
      </trkpt>
      <trkpt lat="48.37225" lon="2.71314">
        <ele>131.1</ele>
        <time>2023-07-20T08:25:31Z</time>
      </trkpt>
      <trkpt lat="48.37225" lon="2.71314">
        <ele>131.1</ele>
        <time>2023-07-20T08:25:32Z</time>
      </trkpt>
      <trkpt lat="48.37225" lon="2.71314">
        <ele>131.1</ele>
        <time>2023-07-20T08:25:33Z</time>
      </trkpt>
      <trkpt lat="48.37225" lon="2.71314">
        <ele>131.1</ele>
        <time>2023-07-20T08:25:34Z</time>
      </trkpt>
      <trkpt lat="48.37225" lon="2.71315">
        <ele>131.1</ele>
        <time>2023-07-20T08:25:35Z</time>
      </trkpt>
      <trkpt lat="48.37225" lon="2.71315">
        <ele>131.1</ele>
        <time>2023-07-20T08:25:36Z</time>
      </trkpt>
      <trkpt lat="48.37224" lon="2.71315">
        <ele>131.1</ele>
        <time>2023-07-20T08:25:37Z</time>
      </trkpt>
      <trkpt lat="48.37224" lon="2.71315">
        <ele>131.1</ele>
        <time>2023-07-20T08:25:38Z</time>
      </trkpt>
      <trkpt lat="48.37224" lon="2.71316">
        <ele>131.1</ele>
        <time>2023-07-20T08:25:39Z</time>
      </trkpt>
      <trkpt lat="48.37224" lon="2.71316">
        <ele>131.1</ele>
        <time>2023-07-20T08:25:40Z</time>
      </trkpt>
      <trkpt lat="48.37224" lon="2.71316">
        <ele>131.1</ele>
        <time>2023-07-20T08:25:41Z</time>
      </trkpt>
      <trkpt lat="48.37224" lon="2.71316">
        <ele>131.1</ele>
        <time>2023-07-20T08:25:42Z</time>
      </trkpt>
      <trkpt lat="48.37224" lon="2.71317">
        <ele>131.1</ele>
        <time>2023-07-20T08:25:43Z</time>
      </trkpt>
      <trkpt lat="48.37224" lon="2.71317">
        <ele>131.1</ele>
        <time>2023-07-20T08:25:44Z</time>
      </trkpt>
      <trkpt lat="48.37224" lon="2.71317">
        <ele>131.1</ele>
        <time>2023-07-20T08:25:45Z</time>
      </trkpt>
      <trkpt lat="48.37224" lon="2.71317">
        <ele>131.1</ele>
        <time>2023-07-20T08:25:46Z</time>
      </trkpt>
      <trkpt lat="48.37224" lon="2.71318">
        <ele>131.1</ele>
        <time>2023-07-20T08:25:47Z</time>
      </trkpt>
      <trkpt lat="48.37224" lon="2.71318">
        <ele>131.1</ele>
        <time>2023-07-20T08:25:48Z</time>
      </trkpt>
      <trkpt lat="48.37224" lon="2.71318">
        <ele>131.1</ele>
        <time>2023-07-20T08:25:49Z</time>
      </trkpt>
      <trkpt lat="48.37224" lon="2.71319">
        <ele>131.1</ele>
        <time>2023-07-20T08:25:50Z</time>
      </trkpt>
      <trkpt lat="48.37224" lon="2.7132">
        <ele>131.1</ele>
        <time>2023-07-20T08:25:51Z</time>
      </trkpt>
      <trkpt lat="48.37223" lon="2.7132">
        <ele>131.1</ele>
        <time>2023-07-20T08:25:52Z</time>
      </trkpt>
      <trkpt lat="48.37223" lon="2.7132">
        <ele>131.1</ele>
        <time>2023-07-20T08:25:53Z</time>
      </trkpt>
      <trkpt lat="48.37224" lon="2.7132">
        <ele>131.1</ele>
        <time>2023-07-20T08:25:54Z</time>
      </trkpt>
      <trkpt lat="48.37223" lon="2.7132">
        <ele>131.1</ele>
        <time>2023-07-20T08:25:55Z</time>
      </trkpt>
      <trkpt lat="48.37223" lon="2.7132">
        <ele>131.1</ele>
        <time>2023-07-20T08:25:56Z</time>
      </trkpt>
      <trkpt lat="48.37223" lon="2.7132">
        <ele>131.1</ele>
        <time>2023-07-20T08:25:57Z</time>
      </trkpt>
      <trkpt lat="48.37223" lon="2.7132">
        <ele>131.1</ele>
        <time>2023-07-20T08:25:58Z</time>
      </trkpt>
      <trkpt lat="48.37223" lon="2.71318">
        <ele>131.2</ele>
        <time>2023-07-20T08:25:59Z</time>
      </trkpt>
      <trkpt lat="48.37223" lon="2.71318">
        <ele>131.2</ele>
        <time>2023-07-20T08:26:00Z</time>
      </trkpt>
      <trkpt lat="48.37223" lon="2.71317">
        <ele>131.2</ele>
        <time>2023-07-20T08:26:01Z</time>
      </trkpt>
      <trkpt lat="48.37223" lon="2.71317">
        <ele>131.2</ele>
        <time>2023-07-20T08:26:02Z</time>
      </trkpt>
      <trkpt lat="48.37224" lon="2.71316">
        <ele>131.2</ele>
        <time>2023-07-20T08:26:03Z</time>
      </trkpt>
      <trkpt lat="48.37224" lon="2.71316">
        <ele>131.2</ele>
        <time>2023-07-20T08:26:04Z</time>
      </trkpt>
      <trkpt lat="48.37224" lon="2.71316">
        <ele>131.2</ele>
        <time>2023-07-20T08:26:05Z</time>
      </trkpt>
      <trkpt lat="48.37224" lon="2.71316">
        <ele>131.2</ele>
        <time>2023-07-20T08:26:06Z</time>
      </trkpt>
      <trkpt lat="48.37224" lon="2.71316">
        <ele>131.2</ele>
        <time>2023-07-20T08:26:07Z</time>
      </trkpt>
      <trkpt lat="48.37224" lon="2.71316">
        <ele>131.2</ele>
        <time>2023-07-20T08:26:08Z</time>
      </trkpt>
      <trkpt lat="48.37224" lon="2.71316">
        <ele>131.2</ele>
        <time>2023-07-20T08:26:09Z</time>
      </trkpt>
      <trkpt lat="48.37224" lon="2.71316">
        <ele>131.2</ele>
        <time>2023-07-20T08:26:10Z</time>
      </trkpt>
      <trkpt lat="48.37224" lon="2.71317">
        <ele>131.2</ele>
        <time>2023-07-20T08:26:11Z</time>
      </trkpt>
      <trkpt lat="48.37224" lon="2.71317">
        <ele>131.2</ele>
        <time>2023-07-20T08:26:12Z</time>
      </trkpt>
      <trkpt lat="48.37224" lon="2.71317">
        <ele>131.2</ele>
        <time>2023-07-20T08:26:13Z</time>
      </trkpt>
      <trkpt lat="48.37225" lon="2.71317">
        <ele>131.2</ele>
        <time>2023-07-20T08:26:14Z</time>
      </trkpt>
      <trkpt lat="48.37226" lon="2.71319">
        <ele>131.2</ele>
        <time>2023-07-20T08:26:15Z</time>
      </trkpt>
      <trkpt lat="48.37226" lon="2.71318">
        <ele>131.2</ele>
        <time>2023-07-20T08:26:16Z</time>
      </trkpt>
      <trkpt lat="48.37226" lon="2.71318">
        <ele>131.2</ele>
        <time>2023-07-20T08:26:17Z</time>
      </trkpt>
      <trkpt lat="48.37227" lon="2.71317">
        <ele>131.2</ele>
        <time>2023-07-20T08:26:18Z</time>
      </trkpt>
      <trkpt lat="48.37227" lon="2.71316">
        <ele>131.2</ele>
        <time>2023-07-20T08:26:19Z</time>
      </trkpt>
      <trkpt lat="48.37227" lon="2.71316">
        <ele>131.2</ele>
        <time>2023-07-20T08:26:20Z</time>
      </trkpt>
      <trkpt lat="48.37227" lon="2.71316">
        <ele>131.2</ele>
        <time>2023-07-20T08:26:21Z</time>
      </trkpt>
      <trkpt lat="48.37227" lon="2.71317">
        <ele>131.2</ele>
        <time>2023-07-20T08:26:22Z</time>
      </trkpt>
      <trkpt lat="48.37228" lon="2.71316">
        <ele>131.2</ele>
        <time>2023-07-20T08:26:23Z</time>
      </trkpt>
      <trkpt lat="48.37228" lon="2.71316">
        <ele>131.2</ele>
        <time>2023-07-20T08:26:24Z</time>
      </trkpt>
      <trkpt lat="48.37228" lon="2.71316">
        <ele>131.2</ele>
        <time>2023-07-20T08:26:25Z</time>
      </trkpt>
      <trkpt lat="48.37229" lon="2.71316">
        <ele>131.2</ele>
        <time>2023-07-20T08:26:26Z</time>
      </trkpt>
      <trkpt lat="48.37229" lon="2.71316">
        <ele>131.2</ele>
        <time>2023-07-20T08:26:27Z</time>
      </trkpt>
      <trkpt lat="48.3723" lon="2.71318">
        <ele>131.2</ele>
        <time>2023-07-20T08:26:28Z</time>
      </trkpt>
      <trkpt lat="48.3723" lon="2.71318">
        <ele>131.2</ele>
        <time>2023-07-20T08:26:29Z</time>
      </trkpt>
      <trkpt lat="48.37231" lon="2.71318">
        <ele>131.2</ele>
        <time>2023-07-20T08:26:30Z</time>
      </trkpt>
      <trkpt lat="48.37232" lon="2.71318">
        <ele>131.2</ele>
        <time>2023-07-20T08:26:31Z</time>
      </trkpt>
      <trkpt lat="48.37233" lon="2.71318">
        <ele>131.2</ele>
        <time>2023-07-20T08:26:32Z</time>
      </trkpt>
      <trkpt lat="48.37233" lon="2.71319">
        <ele>131.2</ele>
        <time>2023-07-20T08:26:33Z</time>
      </trkpt>
      <trkpt lat="48.37234" lon="2.71319">
        <ele>131.2</ele>
        <time>2023-07-20T08:26:34Z</time>
      </trkpt>
      <trkpt lat="48.37234" lon="2.71319">
        <ele>131.2</ele>
        <time>2023-07-20T08:26:35Z</time>
      </trkpt>
      <trkpt lat="48.37234" lon="2.71319">
        <ele>131.2</ele>
        <time>2023-07-20T08:26:36Z</time>
      </trkpt>
      <trkpt lat="48.37235" lon="2.71321">
        <ele>131.3</ele>
        <time>2023-07-20T08:26:37Z</time>
      </trkpt>
      <trkpt lat="48.37235" lon="2.71322">
        <ele>131.3</ele>
        <time>2023-07-20T08:26:38Z</time>
      </trkpt>
      <trkpt lat="48.37236" lon="2.71322">
        <ele>131.3</ele>
        <time>2023-07-20T08:26:39Z</time>
      </trkpt>
      <trkpt lat="48.37236" lon="2.71322">
        <ele>131.3</ele>
        <time>2023-07-20T08:26:40Z</time>
      </trkpt>
      <trkpt lat="48.37237" lon="2.71323">
        <ele>131.3</ele>
        <time>2023-07-20T08:26:41Z</time>
      </trkpt>
      <trkpt lat="48.37238" lon="2.71324">
        <ele>131.3</ele>
        <time>2023-07-20T08:26:42Z</time>
      </trkpt>
      <trkpt lat="48.37238" lon="2.71325">
        <ele>131.3</ele>
        <time>2023-07-20T08:26:43Z</time>
      </trkpt>
      <trkpt lat="48.37239" lon="2.71325">
        <ele>131.3</ele>
        <time>2023-07-20T08:26:44Z</time>
      </trkpt>
      <trkpt lat="48.3724" lon="2.71323">
        <ele>131.3</ele>
        <time>2023-07-20T08:26:45Z</time>
      </trkpt>
      <trkpt lat="48.37243" lon="2.71325">
        <ele>131.3</ele>
        <time>2023-07-20T08:26:46Z</time>
      </trkpt>
      <trkpt lat="48.37244" lon="2.71325">
        <ele>131.3</ele>
        <time>2023-07-20T08:26:47Z</time>
      </trkpt>
      <trkpt lat="48.37244" lon="2.71326">
        <ele>131.3</ele>
        <time>2023-07-20T08:26:48Z</time>
      </trkpt>
      <trkpt lat="48.37246" lon="2.71327">
        <ele>131.3</ele>
        <time>2023-07-20T08:26:49Z</time>
      </trkpt>
      <trkpt lat="48.37247" lon="2.71327">
        <ele>131.3</ele>
        <time>2023-07-20T08:26:50Z</time>
      </trkpt>
      <trkpt lat="48.37248" lon="2.71326">
        <ele>131.3</ele>
        <time>2023-07-20T08:26:51Z</time>
      </trkpt>
      <trkpt lat="48.3725" lon="2.71326">
        <ele>131.3</ele>
        <time>2023-07-20T08:26:52Z</time>
      </trkpt>
      <trkpt lat="48.37251" lon="2.71325">
        <ele>131.3</ele>
        <time>2023-07-20T08:26:53Z</time>
      </trkpt>
      <trkpt lat="48.37252" lon="2.71325">
        <ele>131.3</ele>
        <time>2023-07-20T08:26:54Z</time>
      </trkpt>
      <trkpt lat="48.37253" lon="2.71325">
        <ele>131.3</ele>
        <time>2023-07-20T08:26:55Z</time>
      </trkpt>
      <trkpt lat="48.37254" lon="2.71324">
        <ele>131.3</ele>
        <time>2023-07-20T08:26:56Z</time>
      </trkpt>
      <trkpt lat="48.37255" lon="2.71323">
        <ele>131.3</ele>
        <time>2023-07-20T08:26:57Z</time>
      </trkpt>
      <trkpt lat="48.37256" lon="2.71322">
        <ele>131.3</ele>
        <time>2023-07-20T08:26:58Z</time>
      </trkpt>
      <trkpt lat="48.37257" lon="2.7132">
        <ele>131.3</ele>
        <time>2023-07-20T08:26:59Z</time>
      </trkpt>
      <trkpt lat="48.37257" lon="2.7132">
        <ele>131.3</ele>
        <time>2023-07-20T08:27:00Z</time>
      </trkpt>
      <trkpt lat="48.37258" lon="2.7132">
        <ele>131.3</ele>
        <time>2023-07-20T08:27:01Z</time>
      </trkpt>
      <trkpt lat="48.37259" lon="2.7132">
        <ele>131.3</ele>
        <time>2023-07-20T08:27:02Z</time>
      </trkpt>
      <trkpt lat="48.3726" lon="2.71319">
        <ele>131.3</ele>
        <time>2023-07-20T08:27:03Z</time>
      </trkpt>
      <trkpt lat="48.3726" lon="2.71319">
        <ele>131.3</ele>
        <time>2023-07-20T08:27:04Z</time>
      </trkpt>
      <trkpt lat="48.37261" lon="2.71319">
        <ele>131.3</ele>
        <time>2023-07-20T08:27:05Z</time>
      </trkpt>
      <trkpt lat="48.37262" lon="2.71319">
        <ele>131.2</ele>
        <time>2023-07-20T08:27:06Z</time>
      </trkpt>
      <trkpt lat="48.37264" lon="2.7132">
        <ele>131.2</ele>
        <time>2023-07-20T08:27:07Z</time>
      </trkpt>
      <trkpt lat="48.37265" lon="2.7132">
        <ele>131.2</ele>
        <time>2023-07-20T08:27:08Z</time>
      </trkpt>
      <trkpt lat="48.37266" lon="2.71321">
        <ele>131.2</ele>
        <time>2023-07-20T08:27:09Z</time>
      </trkpt>
      <trkpt lat="48.37267" lon="2.71321">
        <ele>131.2</ele>
        <time>2023-07-20T08:27:10Z</time>
      </trkpt>
      <trkpt lat="48.37268" lon="2.71321">
        <ele>131.2</ele>
        <time>2023-07-20T08:27:11Z</time>
      </trkpt>
      <trkpt lat="48.37269" lon="2.7132">
        <ele>131.2</ele>
        <time>2023-07-20T08:27:12Z</time>
      </trkpt>
      <trkpt lat="48.3727" lon="2.71321">
        <ele>131.2</ele>
        <time>2023-07-20T08:27:13Z</time>
      </trkpt>
      <trkpt lat="48.37272" lon="2.71321">
        <ele>131.1</ele>
        <time>2023-07-20T08:27:14Z</time>
      </trkpt>
      <trkpt lat="48.37273" lon="2.71321">
        <ele>131.1</ele>
        <time>2023-07-20T08:27:15Z</time>
      </trkpt>
      <trkpt lat="48.37274" lon="2.71321">
        <ele>131.1</ele>
        <time>2023-07-20T08:27:16Z</time>
      </trkpt>
      <trkpt lat="48.37275" lon="2.71322">
        <ele>131.1</ele>
        <time>2023-07-20T08:27:17Z</time>
      </trkpt>
      <trkpt lat="48.37276" lon="2.71323">
        <ele>131.1</ele>
        <time>2023-07-20T08:27:18Z</time>
      </trkpt>
      <trkpt lat="48.37277" lon="2.71324">
        <ele>131</ele>
        <time>2023-07-20T08:27:19Z</time>
      </trkpt>
      <trkpt lat="48.37277" lon="2.71325">
        <ele>131</ele>
        <time>2023-07-20T08:27:20Z</time>
      </trkpt>
      <trkpt lat="48.37278" lon="2.71325">
        <ele>131</ele>
        <time>2023-07-20T08:27:21Z</time>
      </trkpt>
      <trkpt lat="48.3728" lon="2.71326">
        <ele>131</ele>
        <time>2023-07-20T08:27:22Z</time>
      </trkpt>
      <trkpt lat="48.37281" lon="2.71326">
        <ele>130.9</ele>
        <time>2023-07-20T08:27:23Z</time>
      </trkpt>
      <trkpt lat="48.37282" lon="2.71327">
        <ele>130.9</ele>
        <time>2023-07-20T08:27:24Z</time>
      </trkpt>
      <trkpt lat="48.37283" lon="2.71329">
        <ele>130.9</ele>
        <time>2023-07-20T08:27:25Z</time>
      </trkpt>
      <trkpt lat="48.37283" lon="2.71329">
        <ele>130.9</ele>
        <time>2023-07-20T08:27:26Z</time>
      </trkpt>
      <trkpt lat="48.37284" lon="2.71329">
        <ele>130.9</ele>
        <time>2023-07-20T08:27:27Z</time>
      </trkpt>
      <trkpt lat="48.37285" lon="2.7133">
        <ele>130.9</ele>
        <time>2023-07-20T08:27:28Z</time>
      </trkpt>
      <trkpt lat="48.37285" lon="2.7133">
        <ele>130.8</ele>
        <time>2023-07-20T08:27:29Z</time>
      </trkpt>
      <trkpt lat="48.37285" lon="2.71331">
        <ele>130.8</ele>
        <time>2023-07-20T08:27:30Z</time>
      </trkpt>
      <trkpt lat="48.37286" lon="2.71332">
        <ele>130.8</ele>
        <time>2023-07-20T08:27:31Z</time>
      </trkpt>
      <trkpt lat="48.37286" lon="2.71333">
        <ele>130.8</ele>
        <time>2023-07-20T08:27:32Z</time>
      </trkpt>
      <trkpt lat="48.37287" lon="2.71333">
        <ele>130.8</ele>
        <time>2023-07-20T08:27:33Z</time>
      </trkpt>
      <trkpt lat="48.37288" lon="2.71333">
        <ele>130.7</ele>
        <time>2023-07-20T08:27:34Z</time>
      </trkpt>
      <trkpt lat="48.37289" lon="2.71333">
        <ele>130.7</ele>
        <time>2023-07-20T08:27:35Z</time>
      </trkpt>
      <trkpt lat="48.37289" lon="2.71334">
        <ele>130.7</ele>
        <time>2023-07-20T08:27:36Z</time>
      </trkpt>
      <trkpt lat="48.3729" lon="2.71334">
        <ele>130.6</ele>
        <time>2023-07-20T08:27:37Z</time>
      </trkpt>
      <trkpt lat="48.37291" lon="2.71334">
        <ele>130.6</ele>
        <time>2023-07-20T08:27:38Z</time>
      </trkpt>
      <trkpt lat="48.37292" lon="2.71336">
        <ele>130.6</ele>
        <time>2023-07-20T08:27:39Z</time>
      </trkpt>
      <trkpt lat="48.37292" lon="2.71337">
        <ele>130.5</ele>
        <time>2023-07-20T08:27:40Z</time>
      </trkpt>
      <trkpt lat="48.37293" lon="2.71337">
        <ele>130.5</ele>
        <time>2023-07-20T08:27:41Z</time>
      </trkpt>
      <trkpt lat="48.37294" lon="2.71337">
        <ele>130.5</ele>
        <time>2023-07-20T08:27:42Z</time>
      </trkpt>
      <trkpt lat="48.37294" lon="2.71337">
        <ele>130.5</ele>
        <time>2023-07-20T08:27:43Z</time>
      </trkpt>
      <trkpt lat="48.37295" lon="2.71337">
        <ele>130.4</ele>
        <time>2023-07-20T08:27:44Z</time>
      </trkpt>
      <trkpt lat="48.37296" lon="2.71337">
        <ele>130.4</ele>
        <time>2023-07-20T08:27:45Z</time>
      </trkpt>
      <trkpt lat="48.37296" lon="2.71338">
        <ele>130.4</ele>
        <time>2023-07-20T08:27:46Z</time>
      </trkpt>
      <trkpt lat="48.37297" lon="2.71339">
        <ele>130.3</ele>
        <time>2023-07-20T08:27:47Z</time>
      </trkpt>
      <trkpt lat="48.37298" lon="2.7134">
        <ele>130.2</ele>
        <time>2023-07-20T08:27:48Z</time>
      </trkpt>
      <trkpt lat="48.37299" lon="2.71341">
        <ele>130.2</ele>
        <time>2023-07-20T08:27:49Z</time>
      </trkpt>
      <trkpt lat="48.37299" lon="2.71342">
        <ele>130.2</ele>
        <time>2023-07-20T08:27:50Z</time>
      </trkpt>
      <trkpt lat="48.37299" lon="2.71342">
        <ele>130.2</ele>
        <time>2023-07-20T08:27:51Z</time>
      </trkpt>
      <trkpt lat="48.373" lon="2.71342">
        <ele>130.1</ele>
        <time>2023-07-20T08:27:52Z</time>
      </trkpt>
      <trkpt lat="48.37301" lon="2.71343">
        <ele>130.1</ele>
        <time>2023-07-20T08:27:53Z</time>
      </trkpt>
      <trkpt lat="48.37301" lon="2.71344">
        <ele>130</ele>
        <time>2023-07-20T08:27:54Z</time>
      </trkpt>
      <trkpt lat="48.37302" lon="2.71344">
        <ele>130</ele>
        <time>2023-07-20T08:27:55Z</time>
      </trkpt>
      <trkpt lat="48.37303" lon="2.71345">
        <ele>130</ele>
        <time>2023-07-20T08:27:56Z</time>
      </trkpt>
      <trkpt lat="48.37303" lon="2.71346">
        <ele>129.9</ele>
        <time>2023-07-20T08:27:57Z</time>
      </trkpt>
      <trkpt lat="48.37304" lon="2.71346">
        <ele>129.9</ele>
        <time>2023-07-20T08:27:58Z</time>
      </trkpt>
      <trkpt lat="48.37304" lon="2.71346">
        <ele>129.9</ele>
        <time>2023-07-20T08:27:59Z</time>
      </trkpt>
      <trkpt lat="48.37304" lon="2.71346">
        <ele>129.9</ele>
        <time>2023-07-20T08:28:00Z</time>
      </trkpt>
      <trkpt lat="48.37305" lon="2.71346">
        <ele>129.8</ele>
        <time>2023-07-20T08:28:01Z</time>
      </trkpt>
      <trkpt lat="48.37306" lon="2.71347">
        <ele>129.7</ele>
        <time>2023-07-20T08:28:02Z</time>
      </trkpt>
      <trkpt lat="48.37306" lon="2.71347">
        <ele>129.7</ele>
        <time>2023-07-20T08:28:03Z</time>
      </trkpt>
      <trkpt lat="48.37306" lon="2.71348">
        <ele>129.7</ele>
        <time>2023-07-20T08:28:04Z</time>
      </trkpt>
      <trkpt lat="48.37307" lon="2.71348">
        <ele>129.6</ele>
        <time>2023-07-20T08:28:05Z</time>
      </trkpt>
      <trkpt lat="48.37307" lon="2.71349">
        <ele>129.6</ele>
        <time>2023-07-20T08:28:06Z</time>
      </trkpt>
      <trkpt lat="48.37307" lon="2.71349">
        <ele>129.6</ele>
        <time>2023-07-20T08:28:07Z</time>
      </trkpt>
      <trkpt lat="48.37307" lon="2.71349">
        <ele>129.6</ele>
        <time>2023-07-20T08:28:08Z</time>
      </trkpt>
      <trkpt lat="48.37307" lon="2.7135">
        <ele>129.5</ele>
        <time>2023-07-20T08:28:09Z</time>
      </trkpt>
      <trkpt lat="48.37308" lon="2.71351">
        <ele>129.4</ele>
        <time>2023-07-20T08:28:10Z</time>
      </trkpt>
      <trkpt lat="48.3731" lon="2.71352">
        <ele>129.3</ele>
        <time>2023-07-20T08:28:11Z</time>
      </trkpt>
      <trkpt lat="48.37311" lon="2.71353">
        <ele>129.2</ele>
        <time>2023-07-20T08:28:12Z</time>
      </trkpt>
      <trkpt lat="48.37312" lon="2.71354">
        <ele>129.2</ele>
        <time>2023-07-20T08:28:13Z</time>
      </trkpt>
      <trkpt lat="48.37312" lon="2.71355">
        <ele>129.1</ele>
        <time>2023-07-20T08:28:14Z</time>
      </trkpt>
      <trkpt lat="48.37312" lon="2.71357">
        <ele>129</ele>
        <time>2023-07-20T08:28:15Z</time>
      </trkpt>
      <trkpt lat="48.37313" lon="2.71358">
        <ele>128.9</ele>
        <time>2023-07-20T08:28:16Z</time>
      </trkpt>
      <trkpt lat="48.37313" lon="2.71359">
        <ele>128.8</ele>
        <time>2023-07-20T08:28:17Z</time>
      </trkpt>
      <trkpt lat="48.37314" lon="2.7136">
        <ele>128.8</ele>
        <time>2023-07-20T08:28:18Z</time>
      </trkpt>
      <trkpt lat="48.37315" lon="2.71361">
        <ele>128.7</ele>
        <time>2023-07-20T08:28:19Z</time>
      </trkpt>
      <trkpt lat="48.37315" lon="2.71362">
        <ele>128.6</ele>
        <time>2023-07-20T08:28:20Z</time>
      </trkpt>
      <trkpt lat="48.37315" lon="2.71363">
        <ele>128.6</ele>
        <time>2023-07-20T08:28:21Z</time>
      </trkpt>
      <trkpt lat="48.37315" lon="2.71363">
        <ele>128.6</ele>
        <time>2023-07-20T08:28:22Z</time>
      </trkpt>
      <trkpt lat="48.37316" lon="2.71364">
        <ele>128.5</ele>
        <time>2023-07-20T08:28:23Z</time>
      </trkpt>
      <trkpt lat="48.37316" lon="2.71364">
        <ele>128.5</ele>
        <time>2023-07-20T08:28:24Z</time>
      </trkpt>
      <trkpt lat="48.37317" lon="2.71365">
        <ele>128.4</ele>
        <time>2023-07-20T08:28:25Z</time>
      </trkpt>
      <trkpt lat="48.37317" lon="2.71366">
        <ele>128.3</ele>
        <time>2023-07-20T08:28:26Z</time>
      </trkpt>
      <trkpt lat="48.37318" lon="2.71366">
        <ele>128.2</ele>
        <time>2023-07-20T08:28:27Z</time>
      </trkpt>
      <trkpt lat="48.37319" lon="2.71368">
        <ele>128.1</ele>
        <time>2023-07-20T08:28:28Z</time>
      </trkpt>
      <trkpt lat="48.3732" lon="2.71369">
        <ele>128</ele>
        <time>2023-07-20T08:28:29Z</time>
      </trkpt>
      <trkpt lat="48.37321" lon="2.71369">
        <ele>127.8</ele>
        <time>2023-07-20T08:28:30Z</time>
      </trkpt>
      <trkpt lat="48.37322" lon="2.7137">
        <ele>127.8</ele>
        <time>2023-07-20T08:28:31Z</time>
      </trkpt>
      <trkpt lat="48.37323" lon="2.7137">
        <ele>127.7</ele>
        <time>2023-07-20T08:28:32Z</time>
      </trkpt>
      <trkpt lat="48.37323" lon="2.7137">
        <ele>127.6</ele>
        <time>2023-07-20T08:28:33Z</time>
      </trkpt>
      <trkpt lat="48.37324" lon="2.71369">
        <ele>127.5</ele>
        <time>2023-07-20T08:28:34Z</time>
      </trkpt>
      <trkpt lat="48.37325" lon="2.71369">
        <ele>127.4</ele>
        <time>2023-07-20T08:28:35Z</time>
      </trkpt>
      <trkpt lat="48.37326" lon="2.7137">
        <ele>127.3</ele>
        <time>2023-07-20T08:28:36Z</time>
      </trkpt>
      <trkpt lat="48.37327" lon="2.71371">
        <ele>127.1</ele>
        <time>2023-07-20T08:28:37Z</time>
      </trkpt>
      <trkpt lat="48.37328" lon="2.71371">
        <ele>127</ele>
        <time>2023-07-20T08:28:38Z</time>
      </trkpt>
      <trkpt lat="48.37329" lon="2.71371">
        <ele>126.9</ele>
        <time>2023-07-20T08:28:39Z</time>
      </trkpt>
      <trkpt lat="48.3733" lon="2.71371">
        <ele>126.8</ele>
        <time>2023-07-20T08:28:40Z</time>
      </trkpt>
      <trkpt lat="48.37331" lon="2.71372">
        <ele>126.7</ele>
        <time>2023-07-20T08:28:41Z</time>
      </trkpt>
      <trkpt lat="48.37333" lon="2.71374">
        <ele>126.4</ele>
        <time>2023-07-20T08:28:42Z</time>
      </trkpt>
      <trkpt lat="48.37335" lon="2.71375">
        <ele>126.2</ele>
        <time>2023-07-20T08:28:43Z</time>
      </trkpt>
      <trkpt lat="48.37336" lon="2.71376">
        <ele>126.1</ele>
        <time>2023-07-20T08:28:44Z</time>
      </trkpt>
      <trkpt lat="48.37336" lon="2.71377">
        <ele>125.9</ele>
        <time>2023-07-20T08:28:45Z</time>
      </trkpt>
      <trkpt lat="48.37337" lon="2.71379">
        <ele>125.8</ele>
        <time>2023-07-20T08:28:46Z</time>
      </trkpt>
      <trkpt lat="48.37337" lon="2.7138">
        <ele>125.7</ele>
        <time>2023-07-20T08:28:47Z</time>
      </trkpt>
      <trkpt lat="48.37338" lon="2.71381">
        <ele>125.5</ele>
        <time>2023-07-20T08:28:48Z</time>
      </trkpt>
      <trkpt lat="48.3734" lon="2.71381">
        <ele>125.3</ele>
        <time>2023-07-20T08:28:49Z</time>
      </trkpt>
      <trkpt lat="48.37341" lon="2.71382">
        <ele>125.1</ele>
        <time>2023-07-20T08:28:50Z</time>
      </trkpt>
      <trkpt lat="48.37342" lon="2.71384">
        <ele>125</ele>
        <time>2023-07-20T08:28:51Z</time>
      </trkpt>
      <trkpt lat="48.37344" lon="2.71385">
        <ele>124.8</ele>
        <time>2023-07-20T08:28:52Z</time>
      </trkpt>
      <trkpt lat="48.37344" lon="2.71386">
        <ele>124.7</ele>
        <time>2023-07-20T08:28:53Z</time>
      </trkpt>
      <trkpt lat="48.37345" lon="2.71387">
        <ele>124.5</ele>
        <time>2023-07-20T08:28:54Z</time>
      </trkpt>
      <trkpt lat="48.37346" lon="2.71389">
        <ele>124.4</ele>
        <time>2023-07-20T08:28:55Z</time>
      </trkpt>
      <trkpt lat="48.37346" lon="2.71389">
        <ele>124.3</ele>
        <time>2023-07-20T08:28:56Z</time>
      </trkpt>
      <trkpt lat="48.37348" lon="2.71389">
        <ele>124.1</ele>
        <time>2023-07-20T08:28:57Z</time>
      </trkpt>
      <trkpt lat="48.37349" lon="2.71389">
        <ele>124</ele>
        <time>2023-07-20T08:28:58Z</time>
      </trkpt>
      <trkpt lat="48.3735" lon="2.71389">
        <ele>123.8</ele>
        <time>2023-07-20T08:28:59Z</time>
      </trkpt>
      <trkpt lat="48.37352" lon="2.71389">
        <ele>123.7</ele>
        <time>2023-07-20T08:29:00Z</time>
      </trkpt>
      <trkpt lat="48.37354" lon="2.7139">
        <ele>123.4</ele>
        <time>2023-07-20T08:29:01Z</time>
      </trkpt>
      <trkpt lat="48.37354" lon="2.71391">
        <ele>123.3</ele>
        <time>2023-07-20T08:29:02Z</time>
      </trkpt>
      <trkpt lat="48.37355" lon="2.71391">
        <ele>123.3</ele>
        <time>2023-07-20T08:29:03Z</time>
      </trkpt>
      <trkpt lat="48.37355" lon="2.71392">
        <ele>123.2</ele>
        <time>2023-07-20T08:29:04Z</time>
      </trkpt>
      <trkpt lat="48.37356" lon="2.71392">
        <ele>123.1</ele>
        <time>2023-07-20T08:29:05Z</time>
      </trkpt>
      <trkpt lat="48.37356" lon="2.71392">
        <ele>123.1</ele>
        <time>2023-07-20T08:29:06Z</time>
      </trkpt>
      <trkpt lat="48.37357" lon="2.71392">
        <ele>123</ele>
        <time>2023-07-20T08:29:07Z</time>
      </trkpt>
      <trkpt lat="48.37358" lon="2.71391">
        <ele>122.9</ele>
        <time>2023-07-20T08:29:08Z</time>
      </trkpt>
      <trkpt lat="48.37359" lon="2.71389">
        <ele>122.7</ele>
        <time>2023-07-20T08:29:09Z</time>
      </trkpt>
      <trkpt lat="48.37359" lon="2.71388">
        <ele>122.5</ele>
        <time>2023-07-20T08:29:10Z</time>
      </trkpt>
      <trkpt lat="48.3736" lon="2.71386">
        <ele>122.4</ele>
        <time>2023-07-20T08:29:11Z</time>
      </trkpt>
      <trkpt lat="48.3736" lon="2.71384">
        <ele>122.2</ele>
        <time>2023-07-20T08:29:12Z</time>
      </trkpt>
      <trkpt lat="48.3736" lon="2.71383">
        <ele>122.2</ele>
        <time>2023-07-20T08:29:13Z</time>
      </trkpt>
      <trkpt lat="48.37361" lon="2.71382">
        <ele>122</ele>
        <time>2023-07-20T08:29:14Z</time>
      </trkpt>
      <trkpt lat="48.37361" lon="2.71379">
        <ele>121.9</ele>
        <time>2023-07-20T08:29:15Z</time>
      </trkpt>
      <trkpt lat="48.37362" lon="2.71378">
        <ele>121.7</ele>
        <time>2023-07-20T08:29:16Z</time>
      </trkpt>
      <trkpt lat="48.37362" lon="2.71377">
        <ele>121.7</ele>
        <time>2023-07-20T08:29:17Z</time>
      </trkpt>
      <trkpt lat="48.37362" lon="2.71377">
        <ele>121.6</ele>
        <time>2023-07-20T08:29:18Z</time>
      </trkpt>
      <trkpt lat="48.37361" lon="2.71377">
        <ele>121.5</ele>
        <time>2023-07-20T08:29:19Z</time>
      </trkpt>
      <trkpt lat="48.37361" lon="2.71377">
        <ele>121.5</ele>
        <time>2023-07-20T08:29:20Z</time>
      </trkpt>
      <trkpt lat="48.37361" lon="2.71377">
        <ele>121.5</ele>
        <time>2023-07-20T08:29:21Z</time>
      </trkpt>
      <trkpt lat="48.37361" lon="2.71377">
        <ele>121.5</ele>
        <time>2023-07-20T08:29:22Z</time>
      </trkpt>
      <trkpt lat="48.37361" lon="2.71377">
        <ele>121.5</ele>
        <time>2023-07-20T08:29:23Z</time>
      </trkpt>
      <trkpt lat="48.37361" lon="2.71377">
        <ele>121.5</ele>
        <time>2023-07-20T08:29:24Z</time>
      </trkpt>
      <trkpt lat="48.37361" lon="2.71377">
        <ele>121.5</ele>
        <time>2023-07-20T08:29:25Z</time>
      </trkpt>
      <trkpt lat="48.37361" lon="2.71377">
        <ele>121.5</ele>
        <time>2023-07-20T08:29:26Z</time>
      </trkpt>
      <trkpt lat="48.37361" lon="2.71377">
        <ele>121.5</ele>
        <time>2023-07-20T08:29:27Z</time>
      </trkpt>
      <trkpt lat="48.37361" lon="2.71377">
        <ele>121.4</ele>
        <time>2023-07-20T08:29:28Z</time>
      </trkpt>
      <trkpt lat="48.37361" lon="2.71377">
        <ele>121.4</ele>
        <time>2023-07-20T08:29:29Z</time>
      </trkpt>
      <trkpt lat="48.37361" lon="2.71377">
        <ele>121.4</ele>
        <time>2023-07-20T08:29:30Z</time>
      </trkpt>
      <trkpt lat="48.37361" lon="2.71377">
        <ele>121.4</ele>
        <time>2023-07-20T08:29:31Z</time>
      </trkpt>
      <trkpt lat="48.3736" lon="2.71376">
        <ele>121.3</ele>
        <time>2023-07-20T08:29:32Z</time>
      </trkpt>
      <trkpt lat="48.3736" lon="2.71377">
        <ele>121.3</ele>
        <time>2023-07-20T08:29:33Z</time>
      </trkpt>
      <trkpt lat="48.3736" lon="2.71377">
        <ele>121.2</ele>
        <time>2023-07-20T08:29:34Z</time>
      </trkpt>
      <trkpt lat="48.3736" lon="2.71377">
        <ele>121.2</ele>
        <time>2023-07-20T08:29:35Z</time>
      </trkpt>
      <trkpt lat="48.37359" lon="2.71377">
        <ele>121.2</ele>
        <time>2023-07-20T08:29:36Z</time>
      </trkpt>
      <trkpt lat="48.37359" lon="2.71378">
        <ele>121.1</ele>
        <time>2023-07-20T08:29:37Z</time>
      </trkpt>
      <trkpt lat="48.37359" lon="2.71379">
        <ele>121.1</ele>
        <time>2023-07-20T08:29:38Z</time>
      </trkpt>
      <trkpt lat="48.3736" lon="2.71378">
        <ele>121</ele>
        <time>2023-07-20T08:29:39Z</time>
      </trkpt>
      <trkpt lat="48.37361" lon="2.71376">
        <ele>120.8</ele>
        <time>2023-07-20T08:29:40Z</time>
      </trkpt>
      <trkpt lat="48.37361" lon="2.71376">
        <ele>120.8</ele>
        <time>2023-07-20T08:29:41Z</time>
      </trkpt>
      <trkpt lat="48.37361" lon="2.71376">
        <ele>120.8</ele>
        <time>2023-07-20T08:29:42Z</time>
      </trkpt>
      <trkpt lat="48.37361" lon="2.71376">
        <ele>120.8</ele>
        <time>2023-07-20T08:29:43Z</time>
      </trkpt>
      <trkpt lat="48.37361" lon="2.71376">
        <ele>120.8</ele>
        <time>2023-07-20T08:29:44Z</time>
      </trkpt>
      <trkpt lat="48.37361" lon="2.71376">
        <ele>120.8</ele>
        <time>2023-07-20T08:29:45Z</time>
      </trkpt>
      <trkpt lat="48.37361" lon="2.71376">
        <ele>120.8</ele>
        <time>2023-07-20T08:29:46Z</time>
      </trkpt>
      <trkpt lat="48.37361" lon="2.71376">
        <ele>120.8</ele>
        <time>2023-07-20T08:29:47Z</time>
      </trkpt>
      <trkpt lat="48.3736" lon="2.71375">
        <ele>120.7</ele>
        <time>2023-07-20T08:29:48Z</time>
      </trkpt>
      <trkpt lat="48.37359" lon="2.71375">
        <ele>120.6</ele>
        <time>2023-07-20T08:29:49Z</time>
      </trkpt>
      <trkpt lat="48.37359" lon="2.71375">
        <ele>120.6</ele>
        <time>2023-07-20T08:29:50Z</time>
      </trkpt>
      <trkpt lat="48.37359" lon="2.71376">
        <ele>120.5</ele>
        <time>2023-07-20T08:29:51Z</time>
      </trkpt>
      <trkpt lat="48.37359" lon="2.71377">
        <ele>120.5</ele>
        <time>2023-07-20T08:29:52Z</time>
      </trkpt>
      <trkpt lat="48.37359" lon="2.71377">
        <ele>120.4</ele>
        <time>2023-07-20T08:29:53Z</time>
      </trkpt>
      <trkpt lat="48.37359" lon="2.71377">
        <ele>120.4</ele>
        <time>2023-07-20T08:29:54Z</time>
      </trkpt>
      <trkpt lat="48.37359" lon="2.71377">
        <ele>120.4</ele>
        <time>2023-07-20T08:29:55Z</time>
      </trkpt>
      <trkpt lat="48.3736" lon="2.71378">
        <ele>120.4</ele>
        <time>2023-07-20T08:29:56Z</time>
      </trkpt>
      <trkpt lat="48.3736" lon="2.71378">
        <ele>120.3</ele>
        <time>2023-07-20T08:29:57Z</time>
      </trkpt>
      <trkpt lat="48.3736" lon="2.71378">
        <ele>120.3</ele>
        <time>2023-07-20T08:29:58Z</time>
      </trkpt>
      <trkpt lat="48.3736" lon="2.71379">
        <ele>120.3</ele>
        <time>2023-07-20T08:29:59Z</time>
      </trkpt>
      <trkpt lat="48.3736" lon="2.71379">
        <ele>120.3</ele>
        <time>2023-07-20T08:30:00Z</time>
      </trkpt>
      <trkpt lat="48.37361" lon="2.71379">
        <ele>120.2</ele>
        <time>2023-07-20T08:30:01Z</time>
      </trkpt>
      <trkpt lat="48.37361" lon="2.7138">
        <ele>120.2</ele>
        <time>2023-07-20T08:30:02Z</time>
      </trkpt>
      <trkpt lat="48.37361" lon="2.71379">
        <ele>120.2</ele>
        <time>2023-07-20T08:30:03Z</time>
      </trkpt>
      <trkpt lat="48.37361" lon="2.71379">
        <ele>120.2</ele>
        <time>2023-07-20T08:30:04Z</time>
      </trkpt>
      <trkpt lat="48.37361" lon="2.71377">
        <ele>120.1</ele>
        <time>2023-07-20T08:30:05Z</time>
      </trkpt>
      <trkpt lat="48.37361" lon="2.71377">
        <ele>120</ele>
        <time>2023-07-20T08:30:06Z</time>
      </trkpt>
      <trkpt lat="48.37362" lon="2.71377">
        <ele>119.9</ele>
        <time>2023-07-20T08:30:07Z</time>
      </trkpt>
      <trkpt lat="48.37362" lon="2.71377">
        <ele>119.8</ele>
        <time>2023-07-20T08:30:08Z</time>
      </trkpt>
      <trkpt lat="48.37361" lon="2.71377">
        <ele>119.8</ele>
        <time>2023-07-20T08:30:09Z</time>
      </trkpt>
      <trkpt lat="48.37361" lon="2.71377">
        <ele>119.8</ele>
        <time>2023-07-20T08:30:10Z</time>
      </trkpt>
      <trkpt lat="48.37361" lon="2.71376">
        <ele>119.7</ele>
        <time>2023-07-20T08:30:11Z</time>
      </trkpt>
      <trkpt lat="48.37361" lon="2.71377">
        <ele>119.7</ele>
        <time>2023-07-20T08:30:12Z</time>
      </trkpt>
      <trkpt lat="48.37361" lon="2.71376">
        <ele>119.7</ele>
        <time>2023-07-20T08:30:13Z</time>
      </trkpt>
      <trkpt lat="48.37361" lon="2.71376">
        <ele>119.7</ele>
        <time>2023-07-20T08:30:14Z</time>
      </trkpt>
      <trkpt lat="48.37361" lon="2.71377">
        <ele>119.7</ele>
        <time>2023-07-20T08:30:15Z</time>
      </trkpt>
      <trkpt lat="48.3736" lon="2.71376">
        <ele>119.6</ele>
        <time>2023-07-20T08:30:16Z</time>
      </trkpt>
      <trkpt lat="48.37358" lon="2.71379">
        <ele>119.4</ele>
        <time>2023-07-20T08:30:17Z</time>
      </trkpt>
      <trkpt lat="48.37358" lon="2.71378">
        <ele>119.4</ele>
        <time>2023-07-20T08:30:18Z</time>
      </trkpt>
      <trkpt lat="48.37358" lon="2.71378">
        <ele>119.4</ele>
        <time>2023-07-20T08:30:19Z</time>
      </trkpt>
      <trkpt lat="48.37358" lon="2.71378">
        <ele>119.4</ele>
        <time>2023-07-20T08:30:20Z</time>
      </trkpt>
      <trkpt lat="48.37358" lon="2.71377">
        <ele>119.3</ele>
        <time>2023-07-20T08:30:21Z</time>
      </trkpt>
      <trkpt lat="48.37357" lon="2.71377">
        <ele>119.3</ele>
        <time>2023-07-20T08:30:22Z</time>
      </trkpt>
      <trkpt lat="48.37357" lon="2.71377">
        <ele>119.3</ele>
        <time>2023-07-20T08:30:23Z</time>
      </trkpt>
      <trkpt lat="48.37357" lon="2.71377">
        <ele>119.3</ele>
        <time>2023-07-20T08:30:24Z</time>
      </trkpt>
      <trkpt lat="48.37357" lon="2.71377">
        <ele>119.3</ele>
        <time>2023-07-20T08:30:25Z</time>
      </trkpt>
      <trkpt lat="48.37358" lon="2.71377">
        <ele>119.3</ele>
        <time>2023-07-20T08:30:26Z</time>
      </trkpt>
      <trkpt lat="48.37358" lon="2.71377">
        <ele>119.2</ele>
        <time>2023-07-20T08:30:27Z</time>
      </trkpt>
      <trkpt lat="48.37357" lon="2.71375">
        <ele>119.2</ele>
        <time>2023-07-20T08:30:28Z</time>
      </trkpt>
      <trkpt lat="48.37357" lon="2.71374">
        <ele>119.1</ele>
        <time>2023-07-20T08:30:29Z</time>
      </trkpt>
      <trkpt lat="48.37356" lon="2.71374">
        <ele>119</ele>
        <time>2023-07-20T08:30:30Z</time>
      </trkpt>
      <trkpt lat="48.37356" lon="2.71374">
        <ele>119</ele>
        <time>2023-07-20T08:30:31Z</time>
      </trkpt>
      <trkpt lat="48.37356" lon="2.71374">
        <ele>119</ele>
        <time>2023-07-20T08:30:32Z</time>
      </trkpt>
      <trkpt lat="48.37356" lon="2.71377">
        <ele>118.8</ele>
        <time>2023-07-20T08:30:33Z</time>
      </trkpt>
      <trkpt lat="48.37357" lon="2.71377">
        <ele>118.7</ele>
        <time>2023-07-20T08:30:34Z</time>
      </trkpt>
      <trkpt lat="48.37358" lon="2.71379">
        <ele>118.6</ele>
        <time>2023-07-20T08:30:35Z</time>
      </trkpt>
      <trkpt lat="48.37359" lon="2.7138">
        <ele>118.6</ele>
        <time>2023-07-20T08:30:36Z</time>
      </trkpt>
      <trkpt lat="48.37359" lon="2.71379">
        <ele>118.5</ele>
        <time>2023-07-20T08:30:37Z</time>
      </trkpt>
      <trkpt lat="48.37359" lon="2.7138">
        <ele>118.5</ele>
        <time>2023-07-20T08:30:38Z</time>
      </trkpt>
      <trkpt lat="48.3736" lon="2.71379">
        <ele>118.5</ele>
        <time>2023-07-20T08:30:39Z</time>
      </trkpt>
      <trkpt lat="48.3736" lon="2.7138">
        <ele>118.4</ele>
        <time>2023-07-20T08:30:40Z</time>
      </trkpt>
      <trkpt lat="48.37361" lon="2.7138">
        <ele>118.4</ele>
        <time>2023-07-20T08:30:41Z</time>
      </trkpt>
      <trkpt lat="48.37361" lon="2.71379">
        <ele>118.4</ele>
        <time>2023-07-20T08:30:42Z</time>
      </trkpt>
      <trkpt lat="48.37362" lon="2.71379">
        <ele>118.3</ele>
        <time>2023-07-20T08:30:43Z</time>
      </trkpt>
      <trkpt lat="48.37362" lon="2.71379">
        <ele>118.3</ele>
        <time>2023-07-20T08:30:44Z</time>
      </trkpt>
      <trkpt lat="48.37361" lon="2.71379">
        <ele>118.3</ele>
        <time>2023-07-20T08:30:45Z</time>
      </trkpt>
      <trkpt lat="48.37361" lon="2.71379">
        <ele>118.2</ele>
        <time>2023-07-20T08:30:46Z</time>
      </trkpt>
      <trkpt lat="48.37361" lon="2.7138">
        <ele>118.2</ele>
        <time>2023-07-20T08:30:47Z</time>
      </trkpt>
      <trkpt lat="48.37361" lon="2.71379">
        <ele>118.2</ele>
        <time>2023-07-20T08:30:48Z</time>
      </trkpt>
      <trkpt lat="48.3736" lon="2.71378">
        <ele>118.1</ele>
        <time>2023-07-20T08:30:49Z</time>
      </trkpt>
      <trkpt lat="48.3736" lon="2.71378">
        <ele>118.1</ele>
        <time>2023-07-20T08:30:50Z</time>
      </trkpt>
      <trkpt lat="48.37359" lon="2.71378">
        <ele>118.1</ele>
        <time>2023-07-20T08:30:51Z</time>
      </trkpt>
      <trkpt lat="48.37359" lon="2.71378">
        <ele>118</ele>
        <time>2023-07-20T08:30:52Z</time>
      </trkpt>
      <trkpt lat="48.37359" lon="2.71378">
        <ele>118</ele>
        <time>2023-07-20T08:30:53Z</time>
      </trkpt>
      <trkpt lat="48.37359" lon="2.71377">
        <ele>118</ele>
        <time>2023-07-20T08:30:54Z</time>
      </trkpt>
      <trkpt lat="48.37359" lon="2.71376">
        <ele>117.9</ele>
        <time>2023-07-20T08:30:55Z</time>
      </trkpt>
      <trkpt lat="48.37359" lon="2.71376">
        <ele>117.9</ele>
        <time>2023-07-20T08:30:56Z</time>
      </trkpt>
      <trkpt lat="48.37358" lon="2.71377">
        <ele>117.8</ele>
        <time>2023-07-20T08:30:57Z</time>
      </trkpt>
      <trkpt lat="48.37357" lon="2.71377">
        <ele>117.8</ele>
        <time>2023-07-20T08:30:58Z</time>
      </trkpt>
      <trkpt lat="48.37357" lon="2.71377">
        <ele>117.8</ele>
        <time>2023-07-20T08:30:59Z</time>
      </trkpt>
      <trkpt lat="48.37357" lon="2.71377">
        <ele>117.8</ele>
        <time>2023-07-20T08:31:00Z</time>
      </trkpt>
      <trkpt lat="48.37358" lon="2.71377">
        <ele>117.8</ele>
        <time>2023-07-20T08:31:01Z</time>
      </trkpt>
      <trkpt lat="48.37357" lon="2.71378">
        <ele>117.7</ele>
        <time>2023-07-20T08:31:02Z</time>
      </trkpt>
      <trkpt lat="48.37357" lon="2.71379">
        <ele>117.7</ele>
        <time>2023-07-20T08:31:03Z</time>
      </trkpt>
      <trkpt lat="48.37357" lon="2.7138">
        <ele>117.7</ele>
        <time>2023-07-20T08:31:04Z</time>
      </trkpt>
      <trkpt lat="48.37356" lon="2.7138">
        <ele>117.6</ele>
        <time>2023-07-20T08:31:05Z</time>
      </trkpt>
      <trkpt lat="48.37356" lon="2.7138">
        <ele>117.6</ele>
        <time>2023-07-20T08:31:06Z</time>
      </trkpt>
      <trkpt lat="48.37356" lon="2.7138">
        <ele>117.6</ele>
        <time>2023-07-20T08:31:07Z</time>
      </trkpt>
      <trkpt lat="48.37356" lon="2.71381">
        <ele>117.6</ele>
        <time>2023-07-20T08:31:08Z</time>
      </trkpt>
      <trkpt lat="48.37357" lon="2.71381">
        <ele>117.6</ele>
        <time>2023-07-20T08:31:09Z</time>
      </trkpt>
      <trkpt lat="48.37356" lon="2.7138">
        <ele>117.6</ele>
        <time>2023-07-20T08:31:10Z</time>
      </trkpt>
      <trkpt lat="48.37357" lon="2.71381">
        <ele>117.5</ele>
        <time>2023-07-20T08:31:11Z</time>
      </trkpt>
      <trkpt lat="48.37357" lon="2.71384">
        <ele>117.4</ele>
        <time>2023-07-20T08:31:12Z</time>
      </trkpt>
      <trkpt lat="48.37358" lon="2.71385">
        <ele>117.4</ele>
        <time>2023-07-20T08:31:13Z</time>
      </trkpt>
      <trkpt lat="48.37359" lon="2.71388">
        <ele>117.3</ele>
        <time>2023-07-20T08:31:14Z</time>
      </trkpt>
      <trkpt lat="48.3736" lon="2.71388">
        <ele>117.3</ele>
        <time>2023-07-20T08:31:15Z</time>
      </trkpt>
      <trkpt lat="48.3736" lon="2.71389">
        <ele>117.2</ele>
        <time>2023-07-20T08:31:16Z</time>
      </trkpt>
      <trkpt lat="48.37361" lon="2.7139">
        <ele>117.2</ele>
        <time>2023-07-20T08:31:17Z</time>
      </trkpt>
      <trkpt lat="48.37361" lon="2.7139">
        <ele>117.2</ele>
        <time>2023-07-20T08:31:18Z</time>
      </trkpt>
      <trkpt lat="48.37361" lon="2.7139">
        <ele>117.1</ele>
        <time>2023-07-20T08:31:19Z</time>
      </trkpt>
      <trkpt lat="48.3736" lon="2.7139">
        <ele>117.1</ele>
        <time>2023-07-20T08:31:20Z</time>
      </trkpt>
      <trkpt lat="48.37361" lon="2.71389">
        <ele>117.1</ele>
        <time>2023-07-20T08:31:21Z</time>
      </trkpt>
      <trkpt lat="48.37361" lon="2.7139">
        <ele>117.1</ele>
        <time>2023-07-20T08:31:22Z</time>
      </trkpt>
      <trkpt lat="48.37361" lon="2.71391">
        <ele>117</ele>
        <time>2023-07-20T08:31:23Z</time>
      </trkpt>
      <trkpt lat="48.37361" lon="2.71391">
        <ele>117</ele>
        <time>2023-07-20T08:31:24Z</time>
      </trkpt>
      <trkpt lat="48.37361" lon="2.71391">
        <ele>117</ele>
        <time>2023-07-20T08:31:25Z</time>
      </trkpt>
      <trkpt lat="48.37361" lon="2.71391">
        <ele>117</ele>
        <time>2023-07-20T08:31:26Z</time>
      </trkpt>
      <trkpt lat="48.37361" lon="2.71392">
        <ele>117</ele>
        <time>2023-07-20T08:31:27Z</time>
      </trkpt>
      <trkpt lat="48.37361" lon="2.71392">
        <ele>117</ele>
        <time>2023-07-20T08:31:28Z</time>
      </trkpt>
      <trkpt lat="48.37362" lon="2.71393">
        <ele>117</ele>
        <time>2023-07-20T08:31:29Z</time>
      </trkpt>
      <trkpt lat="48.37362" lon="2.71393">
        <ele>117</ele>
        <time>2023-07-20T08:31:30Z</time>
      </trkpt>
      <trkpt lat="48.37362" lon="2.71391">
        <ele>116.9</ele>
        <time>2023-07-20T08:31:31Z</time>
      </trkpt>
      <trkpt lat="48.37362" lon="2.7139">
        <ele>116.9</ele>
        <time>2023-07-20T08:31:32Z</time>
      </trkpt>
      <trkpt lat="48.37363" lon="2.7139">
        <ele>116.9</ele>
        <time>2023-07-20T08:31:33Z</time>
      </trkpt>
      <trkpt lat="48.37363" lon="2.71391">
        <ele>116.9</ele>
        <time>2023-07-20T08:31:34Z</time>
      </trkpt>
      <trkpt lat="48.37363" lon="2.71391">
        <ele>116.9</ele>
        <time>2023-07-20T08:31:35Z</time>
      </trkpt>
      <trkpt lat="48.37363" lon="2.71391">
        <ele>116.8</ele>
        <time>2023-07-20T08:31:36Z</time>
      </trkpt>
      <trkpt lat="48.37363" lon="2.71391">
        <ele>116.7</ele>
        <time>2023-07-20T08:31:37Z</time>
      </trkpt>
      <trkpt lat="48.37363" lon="2.71392">
        <ele>116.7</ele>
        <time>2023-07-20T08:31:38Z</time>
      </trkpt>
      <trkpt lat="48.37364" lon="2.71392">
        <ele>116.7</ele>
        <time>2023-07-20T08:31:39Z</time>
      </trkpt>
      <trkpt lat="48.37364" lon="2.71392">
        <ele>116.7</ele>
        <time>2023-07-20T08:31:40Z</time>
      </trkpt>
      <trkpt lat="48.37364" lon="2.71392">
        <ele>116.7</ele>
        <time>2023-07-20T08:31:41Z</time>
      </trkpt>
      <trkpt lat="48.37364" lon="2.71392">
        <ele>116.7</ele>
        <time>2023-07-20T08:31:42Z</time>
      </trkpt>
      <trkpt lat="48.37363" lon="2.71392">
        <ele>116.6</ele>
        <time>2023-07-20T08:31:43Z</time>
      </trkpt>
      <trkpt lat="48.37363" lon="2.71392">
        <ele>116.5</ele>
        <time>2023-07-20T08:31:44Z</time>
      </trkpt>
      <trkpt lat="48.37362" lon="2.71391">
        <ele>116.5</ele>
        <time>2023-07-20T08:31:45Z</time>
      </trkpt>
      <trkpt lat="48.37363" lon="2.71391">
        <ele>116.5</ele>
        <time>2023-07-20T08:31:46Z</time>
      </trkpt>
      <trkpt lat="48.37363" lon="2.71391">
        <ele>116.5</ele>
        <time>2023-07-20T08:31:47Z</time>
      </trkpt>
      <trkpt lat="48.37363" lon="2.71391">
        <ele>116.5</ele>
        <time>2023-07-20T08:31:48Z</time>
      </trkpt>
      <trkpt lat="48.37363" lon="2.71391">
        <ele>116.5</ele>
        <time>2023-07-20T08:31:49Z</time>
      </trkpt>
      <trkpt lat="48.37363" lon="2.71391">
        <ele>116.4</ele>
        <time>2023-07-20T08:31:50Z</time>
      </trkpt>
      <trkpt lat="48.37363" lon="2.71391">
        <ele>116.4</ele>
        <time>2023-07-20T08:31:51Z</time>
      </trkpt>
      <trkpt lat="48.37363" lon="2.71391">
        <ele>116.4</ele>
        <time>2023-07-20T08:31:52Z</time>
      </trkpt>
      <trkpt lat="48.37364" lon="2.71392">
        <ele>116.3</ele>
        <time>2023-07-20T08:31:53Z</time>
      </trkpt>
      <trkpt lat="48.37364" lon="2.71392">
        <ele>116.3</ele>
        <time>2023-07-20T08:31:54Z</time>
      </trkpt>
      <trkpt lat="48.37364" lon="2.71392">
        <ele>116.3</ele>
        <time>2023-07-20T08:31:55Z</time>
      </trkpt>
      <trkpt lat="48.37365" lon="2.71392">
        <ele>116.3</ele>
        <time>2023-07-20T08:31:56Z</time>
      </trkpt>
      <trkpt lat="48.37365" lon="2.71393">
        <ele>116.3</ele>
        <time>2023-07-20T08:31:57Z</time>
      </trkpt>
      <trkpt lat="48.37365" lon="2.71394">
        <ele>116.2</ele>
        <time>2023-07-20T08:31:58Z</time>
      </trkpt>
      <trkpt lat="48.37365" lon="2.71394">
        <ele>116.2</ele>
        <time>2023-07-20T08:31:59Z</time>
      </trkpt>
      <trkpt lat="48.37365" lon="2.71394">
        <ele>116.1</ele>
        <time>2023-07-20T08:32:00Z</time>
      </trkpt>
      <trkpt lat="48.37365" lon="2.71393">
        <ele>116.1</ele>
        <time>2023-07-20T08:32:01Z</time>
      </trkpt>
      <trkpt lat="48.37365" lon="2.71393">
        <ele>116.1</ele>
        <time>2023-07-20T08:32:02Z</time>
      </trkpt>
      <trkpt lat="48.37365" lon="2.71393">
        <ele>116.1</ele>
        <time>2023-07-20T08:32:03Z</time>
      </trkpt>
      <trkpt lat="48.37365" lon="2.71393">
        <ele>116.1</ele>
        <time>2023-07-20T08:32:04Z</time>
      </trkpt>
      <trkpt lat="48.37366" lon="2.71393">
        <ele>116.1</ele>
        <time>2023-07-20T08:32:05Z</time>
      </trkpt>
      <trkpt lat="48.37366" lon="2.71391">
        <ele>116</ele>
        <time>2023-07-20T08:32:06Z</time>
      </trkpt>
      <trkpt lat="48.37366" lon="2.71389">
        <ele>116</ele>
        <time>2023-07-20T08:32:07Z</time>
      </trkpt>
      <trkpt lat="48.37366" lon="2.71387">
        <ele>115.9</ele>
        <time>2023-07-20T08:32:08Z</time>
      </trkpt>
      <trkpt lat="48.37367" lon="2.71386">
        <ele>115.9</ele>
        <time>2023-07-20T08:32:09Z</time>
      </trkpt>
      <trkpt lat="48.37367" lon="2.71384">
        <ele>115.9</ele>
        <time>2023-07-20T08:32:10Z</time>
      </trkpt>
      <trkpt lat="48.37368" lon="2.71383">
        <ele>115.8</ele>
        <time>2023-07-20T08:32:11Z</time>
      </trkpt>
      <trkpt lat="48.37369" lon="2.71381">
        <ele>115.8</ele>
        <time>2023-07-20T08:32:12Z</time>
      </trkpt>
      <trkpt lat="48.37371" lon="2.7138">
        <ele>115</ele>
        <time>2023-07-20T08:32:13Z</time>
      </trkpt>
      <trkpt lat="48.37372" lon="2.7138">
        <ele>115</ele>
        <time>2023-07-20T08:32:14Z</time>
      </trkpt>
      <trkpt lat="48.37371" lon="2.7138">
        <ele>115</ele>
        <time>2023-07-20T08:32:15Z</time>
      </trkpt>
      <trkpt lat="48.37371" lon="2.71382">
        <ele>114.9</ele>
        <time>2023-07-20T08:32:16Z</time>
      </trkpt>
      <trkpt lat="48.37371" lon="2.71382">
        <ele>114.9</ele>
        <time>2023-07-20T08:32:17Z</time>
      </trkpt>
      <trkpt lat="48.37371" lon="2.71383">
        <ele>114.8</ele>
        <time>2023-07-20T08:32:18Z</time>
      </trkpt>
      <trkpt lat="48.37371" lon="2.71383">
        <ele>114.8</ele>
        <time>2023-07-20T08:32:19Z</time>
      </trkpt>
      <trkpt lat="48.37371" lon="2.71384">
        <ele>114.8</ele>
        <time>2023-07-20T08:32:20Z</time>
      </trkpt>
      <trkpt lat="48.37372" lon="2.71385">
        <ele>114.8</ele>
        <time>2023-07-20T08:32:21Z</time>
      </trkpt>
      <trkpt lat="48.37372" lon="2.71387">
        <ele>114.6</ele>
        <time>2023-07-20T08:32:22Z</time>
      </trkpt>
      <trkpt lat="48.37373" lon="2.71389">
        <ele>114.6</ele>
        <time>2023-07-20T08:32:23Z</time>
      </trkpt>
      <trkpt lat="48.37373" lon="2.7139">
        <ele>114.5</ele>
        <time>2023-07-20T08:32:24Z</time>
      </trkpt>
      <trkpt lat="48.37373" lon="2.71391">
        <ele>114.5</ele>
        <time>2023-07-20T08:32:25Z</time>
      </trkpt>
      <trkpt lat="48.37374" lon="2.71392">
        <ele>114.5</ele>
        <time>2023-07-20T08:32:26Z</time>
      </trkpt>
      <trkpt lat="48.37374" lon="2.71392">
        <ele>114.5</ele>
        <time>2023-07-20T08:32:27Z</time>
      </trkpt>
      <trkpt lat="48.37373" lon="2.71393">
        <ele>114.4</ele>
        <time>2023-07-20T08:32:28Z</time>
      </trkpt>
      <trkpt lat="48.37372" lon="2.71392">
        <ele>114.4</ele>
        <time>2023-07-20T08:32:29Z</time>
      </trkpt>
      <trkpt lat="48.37373" lon="2.71393">
        <ele>114.3</ele>
        <time>2023-07-20T08:32:30Z</time>
      </trkpt>
      <trkpt lat="48.37373" lon="2.71394">
        <ele>114.3</ele>
        <time>2023-07-20T08:32:31Z</time>
      </trkpt>
      <trkpt lat="48.37374" lon="2.71395">
        <ele>114.2</ele>
        <time>2023-07-20T08:32:32Z</time>
      </trkpt>
      <trkpt lat="48.37374" lon="2.71397">
        <ele>114.2</ele>
        <time>2023-07-20T08:32:33Z</time>
      </trkpt>
      <trkpt lat="48.37374" lon="2.71397">
        <ele>114.2</ele>
        <time>2023-07-20T08:32:34Z</time>
      </trkpt>
      <trkpt lat="48.37375" lon="2.71397">
        <ele>114.2</ele>
        <time>2023-07-20T08:32:35Z</time>
      </trkpt>
      <trkpt lat="48.37375" lon="2.71397">
        <ele>114.1</ele>
        <time>2023-07-20T08:32:36Z</time>
      </trkpt>
      <trkpt lat="48.37375" lon="2.71397">
        <ele>114.1</ele>
        <time>2023-07-20T08:32:37Z</time>
      </trkpt>
      <trkpt lat="48.37375" lon="2.71397">
        <ele>114</ele>
        <time>2023-07-20T08:32:38Z</time>
      </trkpt>
      <trkpt lat="48.37374" lon="2.71398">
        <ele>114</ele>
        <time>2023-07-20T08:32:39Z</time>
      </trkpt>
      <trkpt lat="48.37374" lon="2.71397">
        <ele>114</ele>
        <time>2023-07-20T08:32:40Z</time>
      </trkpt>
      <trkpt lat="48.37374" lon="2.71396">
        <ele>114</ele>
        <time>2023-07-20T08:32:41Z</time>
      </trkpt>
      <trkpt lat="48.37374" lon="2.71397">
        <ele>113.9</ele>
        <time>2023-07-20T08:32:42Z</time>
      </trkpt>
      <trkpt lat="48.37373" lon="2.71396">
        <ele>113.9</ele>
        <time>2023-07-20T08:32:43Z</time>
      </trkpt>
      <trkpt lat="48.37374" lon="2.71397">
        <ele>113.9</ele>
        <time>2023-07-20T08:32:44Z</time>
      </trkpt>
      <trkpt lat="48.37373" lon="2.71398">
        <ele>113.9</ele>
        <time>2023-07-20T08:32:45Z</time>
      </trkpt>
      <trkpt lat="48.37373" lon="2.71398">
        <ele>113.8</ele>
        <time>2023-07-20T08:32:46Z</time>
      </trkpt>
      <trkpt lat="48.37373" lon="2.71398">
        <ele>113.8</ele>
        <time>2023-07-20T08:32:47Z</time>
      </trkpt>
      <trkpt lat="48.37373" lon="2.71398">
        <ele>113.8</ele>
        <time>2023-07-20T08:32:48Z</time>
      </trkpt>
      <trkpt lat="48.37373" lon="2.71398">
        <ele>113.8</ele>
        <time>2023-07-20T08:32:49Z</time>
      </trkpt>
      <trkpt lat="48.37373" lon="2.71398">
        <ele>113.8</ele>
        <time>2023-07-20T08:32:50Z</time>
      </trkpt>
      <trkpt lat="48.37373" lon="2.71398">
        <ele>113.6</ele>
        <time>2023-07-20T08:32:51Z</time>
      </trkpt>
      <trkpt lat="48.37373" lon="2.71398">
        <ele>113.6</ele>
        <time>2023-07-20T08:32:52Z</time>
      </trkpt>
      <trkpt lat="48.37373" lon="2.71398">
        <ele>113.6</ele>
        <time>2023-07-20T08:32:53Z</time>
      </trkpt>
      <trkpt lat="48.37373" lon="2.71397">
        <ele>113.6</ele>
        <time>2023-07-20T08:32:54Z</time>
      </trkpt>
      <trkpt lat="48.37372" lon="2.71398">
        <ele>113.5</ele>
        <time>2023-07-20T08:32:55Z</time>
      </trkpt>
      <trkpt lat="48.37372" lon="2.71398">
        <ele>113.5</ele>
        <time>2023-07-20T08:32:56Z</time>
      </trkpt>
      <trkpt lat="48.37371" lon="2.71398">
        <ele>113.5</ele>
        <time>2023-07-20T08:32:57Z</time>
      </trkpt>
      <trkpt lat="48.37371" lon="2.71398">
        <ele>113.5</ele>
        <time>2023-07-20T08:32:58Z</time>
      </trkpt>
      <trkpt lat="48.37371" lon="2.71398">
        <ele>113.4</ele>
        <time>2023-07-20T08:32:59Z</time>
      </trkpt>
      <trkpt lat="48.37372" lon="2.71399">
        <ele>113.4</ele>
        <time>2023-07-20T08:33:00Z</time>
      </trkpt>
      <trkpt lat="48.37372" lon="2.71399">
        <ele>113.4</ele>
        <time>2023-07-20T08:33:01Z</time>
      </trkpt>
      <trkpt lat="48.37372" lon="2.71399">
        <ele>113.4</ele>
        <time>2023-07-20T08:33:02Z</time>
      </trkpt>
      <trkpt lat="48.37372" lon="2.71399">
        <ele>113.3</ele>
        <time>2023-07-20T08:33:03Z</time>
      </trkpt>
      <trkpt lat="48.37372" lon="2.71399">
        <ele>113.3</ele>
        <time>2023-07-20T08:33:04Z</time>
      </trkpt>
      <trkpt lat="48.37373" lon="2.714">
        <ele>113.3</ele>
        <time>2023-07-20T08:33:05Z</time>
      </trkpt>
      <trkpt lat="48.37374" lon="2.71399">
        <ele>113.3</ele>
        <time>2023-07-20T08:33:06Z</time>
      </trkpt>
      <trkpt lat="48.37374" lon="2.71399">
        <ele>113.2</ele>
        <time>2023-07-20T08:33:07Z</time>
      </trkpt>
      <trkpt lat="48.37374" lon="2.71399">
        <ele>113.2</ele>
        <time>2023-07-20T08:33:08Z</time>
      </trkpt>
      <trkpt lat="48.37374" lon="2.71399">
        <ele>113.2</ele>
        <time>2023-07-20T08:33:09Z</time>
      </trkpt>
      <trkpt lat="48.37374" lon="2.71399">
        <ele>113.2</ele>
        <time>2023-07-20T08:33:10Z</time>
      </trkpt>
      <trkpt lat="48.37374" lon="2.71399">
        <ele>113.1</ele>
        <time>2023-07-20T08:33:11Z</time>
      </trkpt>
      <trkpt lat="48.37374" lon="2.71399">
        <ele>113.1</ele>
        <time>2023-07-20T08:33:12Z</time>
      </trkpt>
      <trkpt lat="48.37374" lon="2.71399">
        <ele>113.1</ele>
        <time>2023-07-20T08:33:13Z</time>
      </trkpt>
      <trkpt lat="48.37374" lon="2.71399">
        <ele>113.1</ele>
        <time>2023-07-20T08:33:14Z</time>
      </trkpt>
      <trkpt lat="48.37374" lon="2.71399">
        <ele>113.1</ele>
        <time>2023-07-20T08:33:15Z</time>
      </trkpt>
      <trkpt lat="48.37374" lon="2.71399">
        <ele>113.1</ele>
        <time>2023-07-20T08:33:16Z</time>
      </trkpt>
      <trkpt lat="48.37373" lon="2.71398">
        <ele>113.1</ele>
        <time>2023-07-20T08:33:17Z</time>
      </trkpt>
      <trkpt lat="48.37373" lon="2.71397">
        <ele>113.1</ele>
        <time>2023-07-20T08:33:18Z</time>
      </trkpt>
      <trkpt lat="48.37372" lon="2.71396">
        <ele>113</ele>
        <time>2023-07-20T08:33:19Z</time>
      </trkpt>
      <trkpt lat="48.37372" lon="2.71395">
        <ele>113</ele>
        <time>2023-07-20T08:33:20Z</time>
      </trkpt>
      <trkpt lat="48.37372" lon="2.71395">
        <ele>113</ele>
        <time>2023-07-20T08:33:21Z</time>
      </trkpt>
      <trkpt lat="48.37371" lon="2.71395">
        <ele>113</ele>
        <time>2023-07-20T08:33:22Z</time>
      </trkpt>
      <trkpt lat="48.37371" lon="2.71395">
        <ele>113</ele>
        <time>2023-07-20T08:33:23Z</time>
      </trkpt>
      <trkpt lat="48.37371" lon="2.71395">
        <ele>113</ele>
        <time>2023-07-20T08:33:24Z</time>
      </trkpt>
      <trkpt lat="48.37371" lon="2.71395">
        <ele>113</ele>
        <time>2023-07-20T08:33:25Z</time>
      </trkpt>
      <trkpt lat="48.3737" lon="2.71396">
        <ele>113</ele>
        <time>2023-07-20T08:33:26Z</time>
      </trkpt>
      <trkpt lat="48.37369" lon="2.71397">
        <ele>113</ele>
        <time>2023-07-20T08:33:27Z</time>
      </trkpt>
      <trkpt lat="48.37369" lon="2.71398">
        <ele>113</ele>
        <time>2023-07-20T08:33:28Z</time>
      </trkpt>
      <trkpt lat="48.37368" lon="2.71398">
        <ele>113</ele>
        <time>2023-07-20T08:33:29Z</time>
      </trkpt>
      <trkpt lat="48.37368" lon="2.71398">
        <ele>113</ele>
        <time>2023-07-20T08:33:30Z</time>
      </trkpt>
      <trkpt lat="48.37368" lon="2.71398">
        <ele>113</ele>
        <time>2023-07-20T08:33:31Z</time>
      </trkpt>
      <trkpt lat="48.37367" lon="2.71399">
        <ele>113</ele>
        <time>2023-07-20T08:33:32Z</time>
      </trkpt>
      <trkpt lat="48.37367" lon="2.71399">
        <ele>113</ele>
        <time>2023-07-20T08:33:33Z</time>
      </trkpt>
      <trkpt lat="48.37367" lon="2.71399">
        <ele>113</ele>
        <time>2023-07-20T08:33:34Z</time>
      </trkpt>
      <trkpt lat="48.37367" lon="2.71399">
        <ele>113</ele>
        <time>2023-07-20T08:33:35Z</time>
      </trkpt>
      <trkpt lat="48.37367" lon="2.71399">
        <ele>113</ele>
        <time>2023-07-20T08:33:36Z</time>
      </trkpt>
      <trkpt lat="48.37367" lon="2.71399">
        <ele>113</ele>
        <time>2023-07-20T08:33:37Z</time>
      </trkpt>
      <trkpt lat="48.37367" lon="2.71399">
        <ele>113</ele>
        <time>2023-07-20T08:33:38Z</time>
      </trkpt>
      <trkpt lat="48.37367" lon="2.71399">
        <ele>113</ele>
        <time>2023-07-20T08:33:39Z</time>
      </trkpt>
      <trkpt lat="48.37367" lon="2.71399">
        <ele>113</ele>
        <time>2023-07-20T08:33:40Z</time>
      </trkpt>
      <trkpt lat="48.37367" lon="2.71399">
        <ele>113</ele>
        <time>2023-07-20T08:33:41Z</time>
      </trkpt>
      <trkpt lat="48.37367" lon="2.71399">
        <ele>113</ele>
        <time>2023-07-20T08:33:42Z</time>
      </trkpt>
      <trkpt lat="48.37367" lon="2.71399">
        <ele>113</ele>
        <time>2023-07-20T08:33:43Z</time>
      </trkpt>
      <trkpt lat="48.37367" lon="2.71399">
        <ele>113</ele>
        <time>2023-07-20T08:33:44Z</time>
      </trkpt>
      <trkpt lat="48.37367" lon="2.71399">
        <ele>113</ele>
        <time>2023-07-20T08:33:45Z</time>
      </trkpt>
      <trkpt lat="48.37367" lon="2.71398">
        <ele>112.9</ele>
        <time>2023-07-20T08:33:46Z</time>
      </trkpt>
      <trkpt lat="48.37367" lon="2.71398">
        <ele>112.9</ele>
        <time>2023-07-20T08:33:47Z</time>
      </trkpt>
      <trkpt lat="48.37367" lon="2.71398">
        <ele>112.9</ele>
        <time>2023-07-20T08:33:48Z</time>
      </trkpt>
      <trkpt lat="48.37367" lon="2.71399">
        <ele>112.9</ele>
        <time>2023-07-20T08:33:49Z</time>
      </trkpt>
      <trkpt lat="48.37367" lon="2.71399">
        <ele>112.9</ele>
        <time>2023-07-20T08:33:50Z</time>
      </trkpt>
      <trkpt lat="48.37367" lon="2.71399">
        <ele>112.9</ele>
        <time>2023-07-20T08:33:51Z</time>
      </trkpt>
      <trkpt lat="48.37367" lon="2.71399">
        <ele>112.9</ele>
        <time>2023-07-20T08:33:52Z</time>
      </trkpt>
      <trkpt lat="48.37367" lon="2.71399">
        <ele>112.9</ele>
        <time>2023-07-20T08:33:53Z</time>
      </trkpt>
      <trkpt lat="48.37367" lon="2.71399">
        <ele>112.9</ele>
        <time>2023-07-20T08:33:54Z</time>
      </trkpt>
      <trkpt lat="48.37367" lon="2.71399">
        <ele>112.9</ele>
        <time>2023-07-20T08:33:55Z</time>
      </trkpt>
      <trkpt lat="48.37367" lon="2.71399">
        <ele>112.9</ele>
        <time>2023-07-20T08:33:56Z</time>
      </trkpt>
      <trkpt lat="48.37367" lon="2.71399">
        <ele>112.9</ele>
        <time>2023-07-20T08:33:57Z</time>
      </trkpt>
      <trkpt lat="48.37367" lon="2.71399">
        <ele>112.9</ele>
        <time>2023-07-20T08:33:58Z</time>
      </trkpt>
      <trkpt lat="48.37367" lon="2.71399">
        <ele>112.9</ele>
        <time>2023-07-20T08:33:59Z</time>
      </trkpt>
      <trkpt lat="48.37367" lon="2.71399">
        <ele>112.9</ele>
        <time>2023-07-20T08:34:00Z</time>
      </trkpt>
      <trkpt lat="48.37367" lon="2.71399">
        <ele>112.9</ele>
        <time>2023-07-20T08:34:01Z</time>
      </trkpt>
      <trkpt lat="48.37367" lon="2.71399">
        <ele>112.9</ele>
        <time>2023-07-20T08:34:02Z</time>
      </trkpt>
      <trkpt lat="48.37368" lon="2.71399">
        <ele>112.9</ele>
        <time>2023-07-20T08:34:03Z</time>
      </trkpt>
      <trkpt lat="48.37368" lon="2.71399">
        <ele>112.9</ele>
        <time>2023-07-20T08:34:04Z</time>
      </trkpt>
      <trkpt lat="48.37368" lon="2.71398">
        <ele>112.9</ele>
        <time>2023-07-20T08:34:05Z</time>
      </trkpt>
      <trkpt lat="48.37368" lon="2.71398">
        <ele>112.9</ele>
        <time>2023-07-20T08:34:06Z</time>
      </trkpt>
      <trkpt lat="48.37369" lon="2.71398">
        <ele>112.9</ele>
        <time>2023-07-20T08:34:07Z</time>
      </trkpt>
      <trkpt lat="48.37369" lon="2.71399">
        <ele>112.9</ele>
        <time>2023-07-20T08:34:08Z</time>
      </trkpt>
      <trkpt lat="48.37368" lon="2.714">
        <ele>112.9</ele>
        <time>2023-07-20T08:34:09Z</time>
      </trkpt>
      <trkpt lat="48.37368" lon="2.71399">
        <ele>112.9</ele>
        <time>2023-07-20T08:34:10Z</time>
      </trkpt>
      <trkpt lat="48.37367" lon="2.71396">
        <ele>112.9</ele>
        <time>2023-07-20T08:34:11Z</time>
      </trkpt>
      <trkpt lat="48.37367" lon="2.71394">
        <ele>112.8</ele>
        <time>2023-07-20T08:34:12Z</time>
      </trkpt>
      <trkpt lat="48.37367" lon="2.71392">
        <ele>112.8</ele>
        <time>2023-07-20T08:34:13Z</time>
      </trkpt>
      <trkpt lat="48.37366" lon="2.7139">
        <ele>112.8</ele>
        <time>2023-07-20T08:34:14Z</time>
      </trkpt>
      <trkpt lat="48.37366" lon="2.71389">
        <ele>112.8</ele>
        <time>2023-07-20T08:34:15Z</time>
      </trkpt>
      <trkpt lat="48.37366" lon="2.71388">
        <ele>112.8</ele>
        <time>2023-07-20T08:34:16Z</time>
      </trkpt>
      <trkpt lat="48.37366" lon="2.71388">
        <ele>112.8</ele>
        <time>2023-07-20T08:34:17Z</time>
      </trkpt>
      <trkpt lat="48.37366" lon="2.71389">
        <ele>112.8</ele>
        <time>2023-07-20T08:34:18Z</time>
      </trkpt>
      <trkpt lat="48.37366" lon="2.7139">
        <ele>112.8</ele>
        <time>2023-07-20T08:34:19Z</time>
      </trkpt>
      <trkpt lat="48.37366" lon="2.7139">
        <ele>112.8</ele>
        <time>2023-07-20T08:34:20Z</time>
      </trkpt>
      <trkpt lat="48.37366" lon="2.7139">
        <ele>112.8</ele>
        <time>2023-07-20T08:34:21Z</time>
      </trkpt>
      <trkpt lat="48.37366" lon="2.7139">
        <ele>112.8</ele>
        <time>2023-07-20T08:34:22Z</time>
      </trkpt>
      <trkpt lat="48.37366" lon="2.7139">
        <ele>112.8</ele>
        <time>2023-07-20T08:34:23Z</time>
      </trkpt>
      <trkpt lat="48.37365" lon="2.7139">
        <ele>112.8</ele>
        <time>2023-07-20T08:34:24Z</time>
      </trkpt>
      <trkpt lat="48.37365" lon="2.7139">
        <ele>112.8</ele>
        <time>2023-07-20T08:34:25Z</time>
      </trkpt>
      <trkpt lat="48.37366" lon="2.71391">
        <ele>112.8</ele>
        <time>2023-07-20T08:34:26Z</time>
      </trkpt>
      <trkpt lat="48.37366" lon="2.71392">
        <ele>112.8</ele>
        <time>2023-07-20T08:34:27Z</time>
      </trkpt>
      <trkpt lat="48.37365" lon="2.71393">
        <ele>112.7</ele>
        <time>2023-07-20T08:34:28Z</time>
      </trkpt>
      <trkpt lat="48.37365" lon="2.71394">
        <ele>112.7</ele>
        <time>2023-07-20T08:34:29Z</time>
      </trkpt>
      <trkpt lat="48.37365" lon="2.71394">
        <ele>112.7</ele>
        <time>2023-07-20T08:34:30Z</time>
      </trkpt>
      <trkpt lat="48.37364" lon="2.71394">
        <ele>112.7</ele>
        <time>2023-07-20T08:34:31Z</time>
      </trkpt>
      <trkpt lat="48.37363" lon="2.71394">
        <ele>112.7</ele>
        <time>2023-07-20T08:34:32Z</time>
      </trkpt>
      <trkpt lat="48.37363" lon="2.71394">
        <ele>112.7</ele>
        <time>2023-07-20T08:34:33Z</time>
      </trkpt>
      <trkpt lat="48.37363" lon="2.71394">
        <ele>112.7</ele>
        <time>2023-07-20T08:34:34Z</time>
      </trkpt>
      <trkpt lat="48.37363" lon="2.71394">
        <ele>112.7</ele>
        <time>2023-07-20T08:34:35Z</time>
      </trkpt>
      <trkpt lat="48.37363" lon="2.71394">
        <ele>112.7</ele>
        <time>2023-07-20T08:34:36Z</time>
      </trkpt>
      <trkpt lat="48.37362" lon="2.71394">
        <ele>112.7</ele>
        <time>2023-07-20T08:34:37Z</time>
      </trkpt>
      <trkpt lat="48.37362" lon="2.71395">
        <ele>112.7</ele>
        <time>2023-07-20T08:34:38Z</time>
      </trkpt>
      <trkpt lat="48.37362" lon="2.71395">
        <ele>112.7</ele>
        <time>2023-07-20T08:34:39Z</time>
      </trkpt>
      <trkpt lat="48.37362" lon="2.71395">
        <ele>112.7</ele>
        <time>2023-07-20T08:34:40Z</time>
      </trkpt>
      <trkpt lat="48.37362" lon="2.71395">
        <ele>112.7</ele>
        <time>2023-07-20T08:34:41Z</time>
      </trkpt>
      <trkpt lat="48.37362" lon="2.71395">
        <ele>112.7</ele>
        <time>2023-07-20T08:34:42Z</time>
      </trkpt>
      <trkpt lat="48.37362" lon="2.71395">
        <ele>112.7</ele>
        <time>2023-07-20T08:34:43Z</time>
      </trkpt>
      <trkpt lat="48.37362" lon="2.71395">
        <ele>112.7</ele>
        <time>2023-07-20T08:34:44Z</time>
      </trkpt>
      <trkpt lat="48.37362" lon="2.71395">
        <ele>112.7</ele>
        <time>2023-07-20T08:34:45Z</time>
      </trkpt>
      <trkpt lat="48.37362" lon="2.71395">
        <ele>112.7</ele>
        <time>2023-07-20T08:34:46Z</time>
      </trkpt>
      <trkpt lat="48.37362" lon="2.71395">
        <ele>112.7</ele>
        <time>2023-07-20T08:34:47Z</time>
      </trkpt>
      <trkpt lat="48.37362" lon="2.71395">
        <ele>112.7</ele>
        <time>2023-07-20T08:34:48Z</time>
      </trkpt>
      <trkpt lat="48.37362" lon="2.71395">
        <ele>112.7</ele>
        <time>2023-07-20T08:34:49Z</time>
      </trkpt>
      <trkpt lat="48.37362" lon="2.71395">
        <ele>112.7</ele>
        <time>2023-07-20T08:34:50Z</time>
      </trkpt>
      <trkpt lat="48.37362" lon="2.71395">
        <ele>112.7</ele>
        <time>2023-07-20T08:34:51Z</time>
      </trkpt>
      <trkpt lat="48.37362" lon="2.71395">
        <ele>112.7</ele>
        <time>2023-07-20T08:34:52Z</time>
      </trkpt>
      <trkpt lat="48.37362" lon="2.71395">
        <ele>112.7</ele>
        <time>2023-07-20T08:34:53Z</time>
      </trkpt>
      <trkpt lat="48.37362" lon="2.71395">
        <ele>112.7</ele>
        <time>2023-07-20T08:34:54Z</time>
      </trkpt>
      <trkpt lat="48.37362" lon="2.71395">
        <ele>112.7</ele>
        <time>2023-07-20T08:34:55Z</time>
      </trkpt>
      <trkpt lat="48.37362" lon="2.71395">
        <ele>112.7</ele>
        <time>2023-07-20T08:34:56Z</time>
      </trkpt>
      <trkpt lat="48.37362" lon="2.71395">
        <ele>112.7</ele>
        <time>2023-07-20T08:34:57Z</time>
      </trkpt>
      <trkpt lat="48.37362" lon="2.71395">
        <ele>112.7</ele>
        <time>2023-07-20T08:34:58Z</time>
      </trkpt>
      <trkpt lat="48.37362" lon="2.71395">
        <ele>112.7</ele>
        <time>2023-07-20T08:34:59Z</time>
      </trkpt>
      <trkpt lat="48.37362" lon="2.71393">
        <ele>112.7</ele>
        <time>2023-07-20T08:35:00Z</time>
      </trkpt>
      <trkpt lat="48.37362" lon="2.71392">
        <ele>112.7</ele>
        <time>2023-07-20T08:35:01Z</time>
      </trkpt>
      <trkpt lat="48.37362" lon="2.71392">
        <ele>112.8</ele>
        <time>2023-07-20T08:35:02Z</time>
      </trkpt>
      <trkpt lat="48.37362" lon="2.7139">
        <ele>112.8</ele>
        <time>2023-07-20T08:35:03Z</time>
      </trkpt>
      <trkpt lat="48.37362" lon="2.7139">
        <ele>112.8</ele>
        <time>2023-07-20T08:35:04Z</time>
      </trkpt>
      <trkpt lat="48.37363" lon="2.71389">
        <ele>112.8</ele>
        <time>2023-07-20T08:35:05Z</time>
      </trkpt>
      <trkpt lat="48.37363" lon="2.71389">
        <ele>112.8</ele>
        <time>2023-07-20T08:35:06Z</time>
      </trkpt>
      <trkpt lat="48.37363" lon="2.71389">
        <ele>112.8</ele>
        <time>2023-07-20T08:35:07Z</time>
      </trkpt>
      <trkpt lat="48.37363" lon="2.7139">
        <ele>112.8</ele>
        <time>2023-07-20T08:35:08Z</time>
      </trkpt>
      <trkpt lat="48.37363" lon="2.7139">
        <ele>112.8</ele>
        <time>2023-07-20T08:35:09Z</time>
      </trkpt>
      <trkpt lat="48.37363" lon="2.71391">
        <ele>112.8</ele>
        <time>2023-07-20T08:35:10Z</time>
      </trkpt>
      <trkpt lat="48.37363" lon="2.71391">
        <ele>112.8</ele>
        <time>2023-07-20T08:35:11Z</time>
      </trkpt>
      <trkpt lat="48.37363" lon="2.71391">
        <ele>112.8</ele>
        <time>2023-07-20T08:35:12Z</time>
      </trkpt>
      <trkpt lat="48.37363" lon="2.71391">
        <ele>112.8</ele>
        <time>2023-07-20T08:35:13Z</time>
      </trkpt>
      <trkpt lat="48.37363" lon="2.71391">
        <ele>112.8</ele>
        <time>2023-07-20T08:35:14Z</time>
      </trkpt>
      <trkpt lat="48.37363" lon="2.71391">
        <ele>112.8</ele>
        <time>2023-07-20T08:35:15Z</time>
      </trkpt>
      <trkpt lat="48.37363" lon="2.71391">
        <ele>112.8</ele>
        <time>2023-07-20T08:35:16Z</time>
      </trkpt>
      <trkpt lat="48.37363" lon="2.71391">
        <ele>112.8</ele>
        <time>2023-07-20T08:35:17Z</time>
      </trkpt>
      <trkpt lat="48.37363" lon="2.71391">
        <ele>112.8</ele>
        <time>2023-07-20T08:35:18Z</time>
      </trkpt>
      <trkpt lat="48.37363" lon="2.71391">
        <ele>112.8</ele>
        <time>2023-07-20T08:35:19Z</time>
      </trkpt>
      <trkpt lat="48.37363" lon="2.71391">
        <ele>112.8</ele>
        <time>2023-07-20T08:35:20Z</time>
      </trkpt>
      <trkpt lat="48.37363" lon="2.71391">
        <ele>112.8</ele>
        <time>2023-07-20T08:35:21Z</time>
      </trkpt>
      <trkpt lat="48.37363" lon="2.71391">
        <ele>112.8</ele>
        <time>2023-07-20T08:35:22Z</time>
      </trkpt>
      <trkpt lat="48.37363" lon="2.71391">
        <ele>112.8</ele>
        <time>2023-07-20T08:35:23Z</time>
      </trkpt>
      <trkpt lat="48.37363" lon="2.71391">
        <ele>112.8</ele>
        <time>2023-07-20T08:35:24Z</time>
      </trkpt>
      <trkpt lat="48.37364" lon="2.71392">
        <ele>112.8</ele>
        <time>2023-07-20T08:35:25Z</time>
      </trkpt>
      <trkpt lat="48.37364" lon="2.71392">
        <ele>112.8</ele>
        <time>2023-07-20T08:35:26Z</time>
      </trkpt>
      <trkpt lat="48.37364" lon="2.71393">
        <ele>112.8</ele>
        <time>2023-07-20T08:35:27Z</time>
      </trkpt>
      <trkpt lat="48.37364" lon="2.71394">
        <ele>112.8</ele>
        <time>2023-07-20T08:35:28Z</time>
      </trkpt>
      <trkpt lat="48.37364" lon="2.71394">
        <ele>112.8</ele>
        <time>2023-07-20T08:35:29Z</time>
      </trkpt>
      <trkpt lat="48.37364" lon="2.71395">
        <ele>112.8</ele>
        <time>2023-07-20T08:35:30Z</time>
      </trkpt>
      <trkpt lat="48.37364" lon="2.71395">
        <ele>112.8</ele>
        <time>2023-07-20T08:35:31Z</time>
      </trkpt>
      <trkpt lat="48.37364" lon="2.71394">
        <ele>112.8</ele>
        <time>2023-07-20T08:35:32Z</time>
      </trkpt>
      <trkpt lat="48.37364" lon="2.71392">
        <ele>112.8</ele>
        <time>2023-07-20T08:35:33Z</time>
      </trkpt>
      <trkpt lat="48.37364" lon="2.7139">
        <ele>112.9</ele>
        <time>2023-07-20T08:35:34Z</time>
      </trkpt>
      <trkpt lat="48.37364" lon="2.71389">
        <ele>112.9</ele>
        <time>2023-07-20T08:35:35Z</time>
      </trkpt>
      <trkpt lat="48.37363" lon="2.71388">
        <ele>112.9</ele>
        <time>2023-07-20T08:35:36Z</time>
      </trkpt>
      <trkpt lat="48.37364" lon="2.71386">
        <ele>112.9</ele>
        <time>2023-07-20T08:35:37Z</time>
      </trkpt>
      <trkpt lat="48.37364" lon="2.71385">
        <ele>112.9</ele>
        <time>2023-07-20T08:35:38Z</time>
      </trkpt>
      <trkpt lat="48.37363" lon="2.71384">
        <ele>112.9</ele>
        <time>2023-07-20T08:35:39Z</time>
      </trkpt>
      <trkpt lat="48.37363" lon="2.71385">
        <ele>112.9</ele>
        <time>2023-07-20T08:35:40Z</time>
      </trkpt>
      <trkpt lat="48.37363" lon="2.71385">
        <ele>112.9</ele>
        <time>2023-07-20T08:35:41Z</time>
      </trkpt>
      <trkpt lat="48.37363" lon="2.71385">
        <ele>112.9</ele>
        <time>2023-07-20T08:35:42Z</time>
      </trkpt>
      <trkpt lat="48.37363" lon="2.71385">
        <ele>112.9</ele>
        <time>2023-07-20T08:35:43Z</time>
      </trkpt>
      <trkpt lat="48.37362" lon="2.71384">
        <ele>112.9</ele>
        <time>2023-07-20T08:35:44Z</time>
      </trkpt>
      <trkpt lat="48.37362" lon="2.71385">
        <ele>112.9</ele>
        <time>2023-07-20T08:35:45Z</time>
      </trkpt>
      <trkpt lat="48.37361" lon="2.71385">
        <ele>112.9</ele>
        <time>2023-07-20T08:35:46Z</time>
      </trkpt>
      <trkpt lat="48.37361" lon="2.71385">
        <ele>112.9</ele>
        <time>2023-07-20T08:35:47Z</time>
      </trkpt>
      <trkpt lat="48.3736" lon="2.71385">
        <ele>112.9</ele>
        <time>2023-07-20T08:35:48Z</time>
      </trkpt>
      <trkpt lat="48.3736" lon="2.71385">
        <ele>112.9</ele>
        <time>2023-07-20T08:35:49Z</time>
      </trkpt>
      <trkpt lat="48.3736" lon="2.71385">
        <ele>112.9</ele>
        <time>2023-07-20T08:35:50Z</time>
      </trkpt>
      <trkpt lat="48.3736" lon="2.71384">
        <ele>112.9</ele>
        <time>2023-07-20T08:35:51Z</time>
      </trkpt>
      <trkpt lat="48.37359" lon="2.71385">
        <ele>113</ele>
        <time>2023-07-20T08:35:52Z</time>
      </trkpt>
      <trkpt lat="48.37359" lon="2.71384">
        <ele>113</ele>
        <time>2023-07-20T08:35:53Z</time>
      </trkpt>
      <trkpt lat="48.37359" lon="2.71384">
        <ele>113</ele>
        <time>2023-07-20T08:35:54Z</time>
      </trkpt>
      <trkpt lat="48.37359" lon="2.71384">
        <ele>113</ele>
        <time>2023-07-20T08:35:55Z</time>
      </trkpt>
      <trkpt lat="48.3736" lon="2.71383">
        <ele>113</ele>
        <time>2023-07-20T08:35:56Z</time>
      </trkpt>
      <trkpt lat="48.3736" lon="2.71384">
        <ele>113</ele>
        <time>2023-07-20T08:35:57Z</time>
      </trkpt>
      <trkpt lat="48.37359" lon="2.71384">
        <ele>113</ele>
        <time>2023-07-20T08:35:58Z</time>
      </trkpt>
      <trkpt lat="48.37359" lon="2.71384">
        <ele>113</ele>
        <time>2023-07-20T08:35:59Z</time>
      </trkpt>
      <trkpt lat="48.37359" lon="2.71384">
        <ele>113</ele>
        <time>2023-07-20T08:36:00Z</time>
      </trkpt>
      <trkpt lat="48.37359" lon="2.71384">
        <ele>113</ele>
        <time>2023-07-20T08:36:01Z</time>
      </trkpt>
      <trkpt lat="48.37359" lon="2.71384">
        <ele>113</ele>
        <time>2023-07-20T08:36:02Z</time>
      </trkpt>
      <trkpt lat="48.37359" lon="2.71383">
        <ele>113</ele>
        <time>2023-07-20T08:36:03Z</time>
      </trkpt>
      <trkpt lat="48.37358" lon="2.71383">
        <ele>113</ele>
        <time>2023-07-20T08:36:04Z</time>
      </trkpt>
      <trkpt lat="48.37357" lon="2.71384">
        <ele>113</ele>
        <time>2023-07-20T08:36:05Z</time>
      </trkpt>
      <trkpt lat="48.37356" lon="2.71384">
        <ele>113</ele>
        <time>2023-07-20T08:36:06Z</time>
      </trkpt>
      <trkpt lat="48.37355" lon="2.71385">
        <ele>113</ele>
        <time>2023-07-20T08:36:07Z</time>
      </trkpt>
      <trkpt lat="48.37355" lon="2.71385">
        <ele>113</ele>
        <time>2023-07-20T08:36:08Z</time>
      </trkpt>
      <trkpt lat="48.37354" lon="2.71385">
        <ele>113</ele>
        <time>2023-07-20T08:36:09Z</time>
      </trkpt>
      <trkpt lat="48.37354" lon="2.71385">
        <ele>113</ele>
        <time>2023-07-20T08:36:10Z</time>
      </trkpt>
      <trkpt lat="48.37354" lon="2.71386">
        <ele>113</ele>
        <time>2023-07-20T08:36:11Z</time>
      </trkpt>
      <trkpt lat="48.37354" lon="2.71387">
        <ele>113</ele>
        <time>2023-07-20T08:36:12Z</time>
      </trkpt>
      <trkpt lat="48.37354" lon="2.71387">
        <ele>113</ele>
        <time>2023-07-20T08:36:13Z</time>
      </trkpt>
      <trkpt lat="48.37354" lon="2.71387">
        <ele>113</ele>
        <time>2023-07-20T08:36:14Z</time>
      </trkpt>
      <trkpt lat="48.37354" lon="2.71387">
        <ele>113</ele>
        <time>2023-07-20T08:36:15Z</time>
      </trkpt>
      <trkpt lat="48.37354" lon="2.71386">
        <ele>113</ele>
        <time>2023-07-20T08:36:16Z</time>
      </trkpt>
      <trkpt lat="48.37354" lon="2.71386">
        <ele>113</ele>
        <time>2023-07-20T08:36:17Z</time>
      </trkpt>
      <trkpt lat="48.37354" lon="2.71386">
        <ele>113.1</ele>
        <time>2023-07-20T08:36:18Z</time>
      </trkpt>
      <trkpt lat="48.37354" lon="2.71386">
        <ele>113.1</ele>
        <time>2023-07-20T08:36:19Z</time>
      </trkpt>
      <trkpt lat="48.37354" lon="2.71386">
        <ele>113.1</ele>
        <time>2023-07-20T08:36:20Z</time>
      </trkpt>
      <trkpt lat="48.37353" lon="2.71385">
        <ele>113.1</ele>
        <time>2023-07-20T08:36:21Z</time>
      </trkpt>
      <trkpt lat="48.37353" lon="2.71385">
        <ele>113.1</ele>
        <time>2023-07-20T08:36:22Z</time>
      </trkpt>
      <trkpt lat="48.37353" lon="2.71385">
        <ele>113.1</ele>
        <time>2023-07-20T08:36:23Z</time>
      </trkpt>
      <trkpt lat="48.37352" lon="2.71385">
        <ele>113.1</ele>
        <time>2023-07-20T08:36:24Z</time>
      </trkpt>
      <trkpt lat="48.37352" lon="2.71385">
        <ele>113.1</ele>
        <time>2023-07-20T08:36:25Z</time>
      </trkpt>
      <trkpt lat="48.37352" lon="2.71385">
        <ele>113.1</ele>
        <time>2023-07-20T08:36:26Z</time>
      </trkpt>
      <trkpt lat="48.37352" lon="2.71384">
        <ele>113.1</ele>
        <time>2023-07-20T08:36:27Z</time>
      </trkpt>
      <trkpt lat="48.37352" lon="2.71384">
        <ele>113.1</ele>
        <time>2023-07-20T08:36:28Z</time>
      </trkpt>
      <trkpt lat="48.37352" lon="2.71383">
        <ele>113.1</ele>
        <time>2023-07-20T08:36:29Z</time>
      </trkpt>
      <trkpt lat="48.37352" lon="2.71383">
        <ele>113.1</ele>
        <time>2023-07-20T08:36:30Z</time>
      </trkpt>
      <trkpt lat="48.37352" lon="2.71382">
        <ele>113.1</ele>
        <time>2023-07-20T08:36:31Z</time>
      </trkpt>
      <trkpt lat="48.37352" lon="2.71382">
        <ele>113.1</ele>
        <time>2023-07-20T08:36:32Z</time>
      </trkpt>
      <trkpt lat="48.37353" lon="2.71381">
        <ele>113.1</ele>
        <time>2023-07-20T08:36:33Z</time>
      </trkpt>
      <trkpt lat="48.37353" lon="2.71381">
        <ele>113.1</ele>
        <time>2023-07-20T08:36:34Z</time>
      </trkpt>
      <trkpt lat="48.37353" lon="2.7138">
        <ele>113.1</ele>
        <time>2023-07-20T08:36:35Z</time>
      </trkpt>
      <trkpt lat="48.37355" lon="2.71375">
        <ele>113.2</ele>
        <time>2023-07-20T08:36:36Z</time>
      </trkpt>
      <trkpt lat="48.37356" lon="2.71372">
        <ele>113.2</ele>
        <time>2023-07-20T08:36:37Z</time>
      </trkpt>
      <trkpt lat="48.37359" lon="2.71368">
        <ele>113.2</ele>
        <time>2023-07-20T08:36:38Z</time>
      </trkpt>
      <trkpt lat="48.3736" lon="2.71363">
        <ele>113.3</ele>
        <time>2023-07-20T08:36:39Z</time>
      </trkpt>
      <trkpt lat="48.37362" lon="2.71357">
        <ele>113.3</ele>
        <time>2023-07-20T08:36:40Z</time>
      </trkpt>
      <trkpt lat="48.37362" lon="2.71354">
        <ele>113.3</ele>
        <time>2023-07-20T08:36:41Z</time>
      </trkpt>
      <trkpt lat="48.37363" lon="2.71352">
        <ele>113.3</ele>
        <time>2023-07-20T08:36:42Z</time>
      </trkpt>
      <trkpt lat="48.37364" lon="2.7135">
        <ele>113.4</ele>
        <time>2023-07-20T08:36:43Z</time>
      </trkpt>
      <trkpt lat="48.37364" lon="2.71348">
        <ele>113.4</ele>
        <time>2023-07-20T08:36:44Z</time>
      </trkpt>
      <trkpt lat="48.37365" lon="2.71347">
        <ele>113.4</ele>
        <time>2023-07-20T08:36:45Z</time>
      </trkpt>
      <trkpt lat="48.37365" lon="2.71348">
        <ele>113.4</ele>
        <time>2023-07-20T08:36:46Z</time>
      </trkpt>
      <trkpt lat="48.37364" lon="2.71348">
        <ele>113.4</ele>
        <time>2023-07-20T08:36:47Z</time>
      </trkpt>
      <trkpt lat="48.37364" lon="2.71349">
        <ele>113.4</ele>
        <time>2023-07-20T08:36:48Z</time>
      </trkpt>
      <trkpt lat="48.37364" lon="2.71349">
        <ele>113.4</ele>
        <time>2023-07-20T08:36:49Z</time>
      </trkpt>
      <trkpt lat="48.37364" lon="2.7135">
        <ele>113.4</ele>
        <time>2023-07-20T08:36:50Z</time>
      </trkpt>
      <trkpt lat="48.37364" lon="2.71351">
        <ele>113.4</ele>
        <time>2023-07-20T08:36:51Z</time>
      </trkpt>
      <trkpt lat="48.37364" lon="2.71351">
        <ele>113.4</ele>
        <time>2023-07-20T08:36:52Z</time>
      </trkpt>
      <trkpt lat="48.37364" lon="2.71352">
        <ele>113.4</ele>
        <time>2023-07-20T08:36:53Z</time>
      </trkpt>
      <trkpt lat="48.37364" lon="2.71352">
        <ele>113.4</ele>
        <time>2023-07-20T08:36:54Z</time>
      </trkpt>
      <trkpt lat="48.37364" lon="2.71353">
        <ele>113.4</ele>
        <time>2023-07-20T08:36:55Z</time>
      </trkpt>
      <trkpt lat="48.37363" lon="2.71353">
        <ele>113.4</ele>
        <time>2023-07-20T08:36:56Z</time>
      </trkpt>
      <trkpt lat="48.37364" lon="2.71358">
        <ele>113.4</ele>
        <time>2023-07-20T08:36:57Z</time>
      </trkpt>
      <trkpt lat="48.37365" lon="2.71363">
        <ele>113.5</ele>
        <time>2023-07-20T08:36:58Z</time>
      </trkpt>
      <trkpt lat="48.37365" lon="2.71364">
        <ele>113.5</ele>
        <time>2023-07-20T08:36:59Z</time>
      </trkpt>
      <trkpt lat="48.37365" lon="2.71366">
        <ele>113.5</ele>
        <time>2023-07-20T08:37:00Z</time>
      </trkpt>
      <trkpt lat="48.37366" lon="2.71368">
        <ele>113.5</ele>
        <time>2023-07-20T08:37:01Z</time>
      </trkpt>
      <trkpt lat="48.37366" lon="2.71369">
        <ele>113.5</ele>
        <time>2023-07-20T08:37:02Z</time>
      </trkpt>
      <trkpt lat="48.37366" lon="2.71369">
        <ele>113.5</ele>
        <time>2023-07-20T08:37:03Z</time>
      </trkpt>
      <trkpt lat="48.37366" lon="2.7137">
        <ele>113.5</ele>
        <time>2023-07-20T08:37:04Z</time>
      </trkpt>
      <trkpt lat="48.37366" lon="2.7137">
        <ele>113.5</ele>
        <time>2023-07-20T08:37:05Z</time>
      </trkpt>
      <trkpt lat="48.37366" lon="2.71371">
        <ele>113.5</ele>
        <time>2023-07-20T08:37:06Z</time>
      </trkpt>
      <trkpt lat="48.37366" lon="2.71371">
        <ele>113.5</ele>
        <time>2023-07-20T08:37:07Z</time>
      </trkpt>
      <trkpt lat="48.37366" lon="2.71372">
        <ele>113.5</ele>
        <time>2023-07-20T08:37:08Z</time>
      </trkpt>
      <trkpt lat="48.37366" lon="2.71372">
        <ele>113.5</ele>
        <time>2023-07-20T08:37:09Z</time>
      </trkpt>
      <trkpt lat="48.37366" lon="2.71373">
        <ele>113.6</ele>
        <time>2023-07-20T08:37:10Z</time>
      </trkpt>
      <trkpt lat="48.37366" lon="2.71373">
        <ele>113.6</ele>
        <time>2023-07-20T08:37:11Z</time>
      </trkpt>
      <trkpt lat="48.37366" lon="2.71374">
        <ele>113.6</ele>
        <time>2023-07-20T08:37:12Z</time>
      </trkpt>
      <trkpt lat="48.37366" lon="2.71376">
        <ele>113.6</ele>
        <time>2023-07-20T08:37:13Z</time>
      </trkpt>
      <trkpt lat="48.37366" lon="2.71378">
        <ele>113.6</ele>
        <time>2023-07-20T08:37:14Z</time>
      </trkpt>
      <trkpt lat="48.37366" lon="2.71379">
        <ele>113.6</ele>
        <time>2023-07-20T08:37:15Z</time>
      </trkpt>
      <trkpt lat="48.37366" lon="2.71379">
        <ele>113.6</ele>
        <time>2023-07-20T08:37:16Z</time>
      </trkpt>
      <trkpt lat="48.37366" lon="2.71379">
        <ele>113.6</ele>
        <time>2023-07-20T08:37:17Z</time>
      </trkpt>
      <trkpt lat="48.37366" lon="2.71379">
        <ele>113.6</ele>
        <time>2023-07-20T08:37:18Z</time>
      </trkpt>
      <trkpt lat="48.37365" lon="2.71379">
        <ele>113.6</ele>
        <time>2023-07-20T08:37:19Z</time>
      </trkpt>
      <trkpt lat="48.37365" lon="2.7138">
        <ele>113.6</ele>
        <time>2023-07-20T08:37:20Z</time>
      </trkpt>
      <trkpt lat="48.37364" lon="2.7138">
        <ele>113.6</ele>
        <time>2023-07-20T08:37:21Z</time>
      </trkpt>
      <trkpt lat="48.37364" lon="2.7138">
        <ele>113.6</ele>
        <time>2023-07-20T08:37:22Z</time>
      </trkpt>
      <trkpt lat="48.37364" lon="2.71381">
        <ele>113.6</ele>
        <time>2023-07-20T08:37:23Z</time>
      </trkpt>
      <trkpt lat="48.37364" lon="2.71381">
        <ele>113.6</ele>
        <time>2023-07-20T08:37:24Z</time>
      </trkpt>
      <trkpt lat="48.37364" lon="2.71382">
        <ele>113.6</ele>
        <time>2023-07-20T08:37:25Z</time>
      </trkpt>
      <trkpt lat="48.37364" lon="2.71382">
        <ele>113.6</ele>
        <time>2023-07-20T08:37:26Z</time>
      </trkpt>
      <trkpt lat="48.37364" lon="2.71382">
        <ele>113.6</ele>
        <time>2023-07-20T08:37:27Z</time>
      </trkpt>
      <trkpt lat="48.37364" lon="2.71382">
        <ele>113.6</ele>
        <time>2023-07-20T08:37:28Z</time>
      </trkpt>
      <trkpt lat="48.37364" lon="2.71382">
        <ele>113.6</ele>
        <time>2023-07-20T08:37:29Z</time>
      </trkpt>
      <trkpt lat="48.37364" lon="2.71381">
        <ele>113.6</ele>
        <time>2023-07-20T08:37:30Z</time>
      </trkpt>
      <trkpt lat="48.37363" lon="2.71381">
        <ele>113.7</ele>
        <time>2023-07-20T08:37:31Z</time>
      </trkpt>
      <trkpt lat="48.37363" lon="2.71381">
        <ele>113.7</ele>
        <time>2023-07-20T08:37:32Z</time>
      </trkpt>
      <trkpt lat="48.37363" lon="2.71381">
        <ele>113.7</ele>
        <time>2023-07-20T08:37:33Z</time>
      </trkpt>
      <trkpt lat="48.37363" lon="2.71381">
        <ele>113.7</ele>
        <time>2023-07-20T08:37:34Z</time>
      </trkpt>
      <trkpt lat="48.37362" lon="2.71382">
        <ele>113.7</ele>
        <time>2023-07-20T08:37:35Z</time>
      </trkpt>
      <trkpt lat="48.37362" lon="2.71383">
        <ele>113.7</ele>
        <time>2023-07-20T08:37:36Z</time>
      </trkpt>
      <trkpt lat="48.37362" lon="2.71384">
        <ele>113.7</ele>
        <time>2023-07-20T08:37:37Z</time>
      </trkpt>
      <trkpt lat="48.37363" lon="2.71386">
        <ele>113.7</ele>
        <time>2023-07-20T08:37:38Z</time>
      </trkpt>
      <trkpt lat="48.37365" lon="2.71389">
        <ele>113.7</ele>
        <time>2023-07-20T08:37:39Z</time>
      </trkpt>
      <trkpt lat="48.37366" lon="2.7139">
        <ele>113.7</ele>
        <time>2023-07-20T08:37:40Z</time>
      </trkpt>
      <trkpt lat="48.37367" lon="2.7139">
        <ele>113.8</ele>
        <time>2023-07-20T08:37:41Z</time>
      </trkpt>
      <trkpt lat="48.37367" lon="2.7139">
        <ele>113.8</ele>
        <time>2023-07-20T08:37:42Z</time>
      </trkpt>
      <trkpt lat="48.37367" lon="2.7139">
        <ele>113.8</ele>
        <time>2023-07-20T08:37:43Z</time>
      </trkpt>
      <trkpt lat="48.37367" lon="2.7139">
        <ele>113.8</ele>
        <time>2023-07-20T08:37:44Z</time>
      </trkpt>
      <trkpt lat="48.37367" lon="2.7139">
        <ele>113.8</ele>
        <time>2023-07-20T08:37:45Z</time>
      </trkpt>
      <trkpt lat="48.37367" lon="2.7139">
        <ele>113.8</ele>
        <time>2023-07-20T08:37:46Z</time>
      </trkpt>
      <trkpt lat="48.37367" lon="2.7139">
        <ele>113.8</ele>
        <time>2023-07-20T08:37:47Z</time>
      </trkpt>
      <trkpt lat="48.37367" lon="2.71391">
        <ele>113.8</ele>
        <time>2023-07-20T08:37:48Z</time>
      </trkpt>
      <trkpt lat="48.37367" lon="2.71391">
        <ele>113.8</ele>
        <time>2023-07-20T08:37:49Z</time>
      </trkpt>
      <trkpt lat="48.37367" lon="2.71391">
        <ele>113.8</ele>
        <time>2023-07-20T08:37:50Z</time>
      </trkpt>
      <trkpt lat="48.37367" lon="2.71391">
        <ele>113.8</ele>
        <time>2023-07-20T08:37:51Z</time>
      </trkpt>
      <trkpt lat="48.37367" lon="2.71391">
        <ele>113.8</ele>
        <time>2023-07-20T08:37:52Z</time>
      </trkpt>
      <trkpt lat="48.37367" lon="2.71391">
        <ele>113.8</ele>
        <time>2023-07-20T08:37:53Z</time>
      </trkpt>
      <trkpt lat="48.37368" lon="2.71391">
        <ele>113.8</ele>
        <time>2023-07-20T08:37:54Z</time>
      </trkpt>
      <trkpt lat="48.37368" lon="2.71391">
        <ele>113.8</ele>
        <time>2023-07-20T08:37:55Z</time>
      </trkpt>
      <trkpt lat="48.37368" lon="2.71391">
        <ele>113.8</ele>
        <time>2023-07-20T08:37:56Z</time>
      </trkpt>
      <trkpt lat="48.37368" lon="2.71391">
        <ele>113.8</ele>
        <time>2023-07-20T08:37:57Z</time>
      </trkpt>
      <trkpt lat="48.37368" lon="2.71391">
        <ele>113.8</ele>
        <time>2023-07-20T08:37:58Z</time>
      </trkpt>
      <trkpt lat="48.37368" lon="2.71391">
        <ele>113.8</ele>
        <time>2023-07-20T08:37:59Z</time>
      </trkpt>
      <trkpt lat="48.37368" lon="2.71391">
        <ele>113.8</ele>
        <time>2023-07-20T08:38:00Z</time>
      </trkpt>
      <trkpt lat="48.37368" lon="2.71391">
        <ele>113.8</ele>
        <time>2023-07-20T08:38:01Z</time>
      </trkpt>
      <trkpt lat="48.37368" lon="2.71391">
        <ele>113.8</ele>
        <time>2023-07-20T08:38:02Z</time>
      </trkpt>
      <trkpt lat="48.37368" lon="2.71391">
        <ele>113.8</ele>
        <time>2023-07-20T08:38:03Z</time>
      </trkpt>
      <trkpt lat="48.37368" lon="2.71391">
        <ele>113.8</ele>
        <time>2023-07-20T08:38:04Z</time>
      </trkpt>
      <trkpt lat="48.37368" lon="2.71391">
        <ele>113.8</ele>
        <time>2023-07-20T08:38:05Z</time>
      </trkpt>
      <trkpt lat="48.37368" lon="2.71391">
        <ele>113.8</ele>
        <time>2023-07-20T08:38:06Z</time>
      </trkpt>
      <trkpt lat="48.37368" lon="2.71391">
        <ele>113.8</ele>
        <time>2023-07-20T08:38:07Z</time>
      </trkpt>
      <trkpt lat="48.37369" lon="2.71391">
        <ele>113.8</ele>
        <time>2023-07-20T08:38:08Z</time>
      </trkpt>
      <trkpt lat="48.37369" lon="2.71391">
        <ele>113.8</ele>
        <time>2023-07-20T08:38:09Z</time>
      </trkpt>
      <trkpt lat="48.37369" lon="2.71391">
        <ele>113.8</ele>
        <time>2023-07-20T08:38:10Z</time>
      </trkpt>
      <trkpt lat="48.37369" lon="2.71391">
        <ele>113.8</ele>
        <time>2023-07-20T08:38:11Z</time>
      </trkpt>
      <trkpt lat="48.37369" lon="2.71391">
        <ele>113.8</ele>
        <time>2023-07-20T08:38:12Z</time>
      </trkpt>
      <trkpt lat="48.37369" lon="2.71391">
        <ele>113.8</ele>
        <time>2023-07-20T08:38:13Z</time>
      </trkpt>
      <trkpt lat="48.37369" lon="2.71391">
        <ele>113.8</ele>
        <time>2023-07-20T08:38:14Z</time>
      </trkpt>
      <trkpt lat="48.37369" lon="2.71391">
        <ele>113.8</ele>
        <time>2023-07-20T08:38:15Z</time>
      </trkpt>
      <trkpt lat="48.37369" lon="2.71391">
        <ele>113.8</ele>
        <time>2023-07-20T08:38:16Z</time>
      </trkpt>
      <trkpt lat="48.37369" lon="2.71391">
        <ele>113.8</ele>
        <time>2023-07-20T08:38:17Z</time>
      </trkpt>
      <trkpt lat="48.37369" lon="2.71391">
        <ele>113.8</ele>
        <time>2023-07-20T08:38:18Z</time>
      </trkpt>
      <trkpt lat="48.37369" lon="2.71391">
        <ele>113.8</ele>
        <time>2023-07-20T08:38:19Z</time>
      </trkpt>
      <trkpt lat="48.37369" lon="2.71391">
        <ele>113.8</ele>
        <time>2023-07-20T08:38:20Z</time>
      </trkpt>
      <trkpt lat="48.37369" lon="2.71391">
        <ele>113.8</ele>
        <time>2023-07-20T08:38:21Z</time>
      </trkpt>
      <trkpt lat="48.3737" lon="2.71391">
        <ele>113.8</ele>
        <time>2023-07-20T08:38:22Z</time>
      </trkpt>
      <trkpt lat="48.3737" lon="2.71391">
        <ele>113.8</ele>
        <time>2023-07-20T08:38:23Z</time>
      </trkpt>
      <trkpt lat="48.3737" lon="2.7139">
        <ele>113.8</ele>
        <time>2023-07-20T08:38:24Z</time>
      </trkpt>
      <trkpt lat="48.37371" lon="2.7139">
        <ele>113.8</ele>
        <time>2023-07-20T08:38:25Z</time>
      </trkpt>
      <trkpt lat="48.37371" lon="2.71391">
        <ele>113.8</ele>
        <time>2023-07-20T08:38:26Z</time>
      </trkpt>
      <trkpt lat="48.37371" lon="2.71391">
        <ele>113.8</ele>
        <time>2023-07-20T08:38:27Z</time>
      </trkpt>
      <trkpt lat="48.37371" lon="2.71391">
        <ele>113.8</ele>
        <time>2023-07-20T08:38:28Z</time>
      </trkpt>
      <trkpt lat="48.37371" lon="2.7139">
        <ele>113.8</ele>
        <time>2023-07-20T08:38:29Z</time>
      </trkpt>
      <trkpt lat="48.3737" lon="2.7139">
        <ele>113.8</ele>
        <time>2023-07-20T08:38:30Z</time>
      </trkpt>
      <trkpt lat="48.3737" lon="2.7139">
        <ele>113.8</ele>
        <time>2023-07-20T08:38:31Z</time>
      </trkpt>
      <trkpt lat="48.3737" lon="2.7139">
        <ele>113.8</ele>
        <time>2023-07-20T08:38:32Z</time>
      </trkpt>
      <trkpt lat="48.37369" lon="2.71389">
        <ele>113.8</ele>
        <time>2023-07-20T08:38:33Z</time>
      </trkpt>
      <trkpt lat="48.3737" lon="2.7139">
        <ele>113.8</ele>
        <time>2023-07-20T08:38:34Z</time>
      </trkpt>
      <trkpt lat="48.3737" lon="2.71389">
        <ele>113.8</ele>
        <time>2023-07-20T08:38:35Z</time>
      </trkpt>
      <trkpt lat="48.37369" lon="2.71388">
        <ele>113.9</ele>
        <time>2023-07-20T08:38:36Z</time>
      </trkpt>
      <trkpt lat="48.37369" lon="2.71388">
        <ele>113.9</ele>
        <time>2023-07-20T08:38:37Z</time>
      </trkpt>
      <trkpt lat="48.37369" lon="2.71389">
        <ele>113.9</ele>
        <time>2023-07-20T08:38:38Z</time>
      </trkpt>
      <trkpt lat="48.37369" lon="2.71389">
        <ele>113.9</ele>
        <time>2023-07-20T08:38:39Z</time>
      </trkpt>
      <trkpt lat="48.37369" lon="2.71389">
        <ele>113.9</ele>
        <time>2023-07-20T08:38:40Z</time>
      </trkpt>
      <trkpt lat="48.37369" lon="2.71389">
        <ele>113.9</ele>
        <time>2023-07-20T08:38:41Z</time>
      </trkpt>
      <trkpt lat="48.37368" lon="2.71387">
        <ele>113.9</ele>
        <time>2023-07-20T08:38:42Z</time>
      </trkpt>
      <trkpt lat="48.37368" lon="2.71387">
        <ele>113.9</ele>
        <time>2023-07-20T08:38:43Z</time>
      </trkpt>
      <trkpt lat="48.37368" lon="2.71387">
        <ele>113.9</ele>
        <time>2023-07-20T08:38:44Z</time>
      </trkpt>
      <trkpt lat="48.37368" lon="2.71387">
        <ele>113.9</ele>
        <time>2023-07-20T08:38:45Z</time>
      </trkpt>
      <trkpt lat="48.37367" lon="2.71386">
        <ele>113.9</ele>
        <time>2023-07-20T08:38:46Z</time>
      </trkpt>
      <trkpt lat="48.37367" lon="2.71386">
        <ele>113.9</ele>
        <time>2023-07-20T08:38:47Z</time>
      </trkpt>
      <trkpt lat="48.37367" lon="2.71385">
        <ele>113.9</ele>
        <time>2023-07-20T08:38:48Z</time>
      </trkpt>
      <trkpt lat="48.37366" lon="2.71385">
        <ele>113.9</ele>
        <time>2023-07-20T08:38:49Z</time>
      </trkpt>
      <trkpt lat="48.37365" lon="2.71384">
        <ele>113.9</ele>
        <time>2023-07-20T08:38:50Z</time>
      </trkpt>
      <trkpt lat="48.37364" lon="2.71384">
        <ele>113.9</ele>
        <time>2023-07-20T08:38:51Z</time>
      </trkpt>
      <trkpt lat="48.37364" lon="2.71384">
        <ele>113.9</ele>
        <time>2023-07-20T08:38:52Z</time>
      </trkpt>
      <trkpt lat="48.37363" lon="2.71384">
        <ele>113.9</ele>
        <time>2023-07-20T08:38:53Z</time>
      </trkpt>
      <trkpt lat="48.37363" lon="2.71384">
        <ele>114</ele>
        <time>2023-07-20T08:38:54Z</time>
      </trkpt>
      <trkpt lat="48.37362" lon="2.71384">
        <ele>114</ele>
        <time>2023-07-20T08:38:55Z</time>
      </trkpt>
      <trkpt lat="48.37362" lon="2.71385">
        <ele>114</ele>
        <time>2023-07-20T08:38:56Z</time>
      </trkpt>
      <trkpt lat="48.37361" lon="2.71385">
        <ele>114</ele>
        <time>2023-07-20T08:38:57Z</time>
      </trkpt>
      <trkpt lat="48.37361" lon="2.71385">
        <ele>114</ele>
        <time>2023-07-20T08:38:58Z</time>
      </trkpt>
      <trkpt lat="48.37361" lon="2.71385">
        <ele>114</ele>
        <time>2023-07-20T08:38:59Z</time>
      </trkpt>
      <trkpt lat="48.37361" lon="2.71385">
        <ele>114</ele>
        <time>2023-07-20T08:39:00Z</time>
      </trkpt>
      <trkpt lat="48.37361" lon="2.71384">
        <ele>114</ele>
        <time>2023-07-20T08:39:01Z</time>
      </trkpt>
      <trkpt lat="48.37361" lon="2.71384">
        <ele>114</ele>
        <time>2023-07-20T08:39:02Z</time>
      </trkpt>
      <trkpt lat="48.37361" lon="2.71384">
        <ele>114</ele>
        <time>2023-07-20T08:39:03Z</time>
      </trkpt>
      <trkpt lat="48.37361" lon="2.71384">
        <ele>114</ele>
        <time>2023-07-20T08:39:04Z</time>
      </trkpt>
      <trkpt lat="48.37361" lon="2.71384">
        <ele>114</ele>
        <time>2023-07-20T08:39:05Z</time>
      </trkpt>
      <trkpt lat="48.37361" lon="2.71384">
        <ele>114</ele>
        <time>2023-07-20T08:39:06Z</time>
      </trkpt>
      <trkpt lat="48.37361" lon="2.71384">
        <ele>114</ele>
        <time>2023-07-20T08:39:07Z</time>
      </trkpt>
      <trkpt lat="48.3736" lon="2.71384">
        <ele>114</ele>
        <time>2023-07-20T08:39:08Z</time>
      </trkpt>
      <trkpt lat="48.37359" lon="2.71384">
        <ele>114</ele>
        <time>2023-07-20T08:39:09Z</time>
      </trkpt>
      <trkpt lat="48.37359" lon="2.71383">
        <ele>114</ele>
        <time>2023-07-20T08:39:10Z</time>
      </trkpt>
      <trkpt lat="48.37359" lon="2.71383">
        <ele>114</ele>
        <time>2023-07-20T08:39:11Z</time>
      </trkpt>
      <trkpt lat="48.37359" lon="2.71383">
        <ele>114</ele>
        <time>2023-07-20T08:39:12Z</time>
      </trkpt>
      <trkpt lat="48.37358" lon="2.71385">
        <ele>114</ele>
        <time>2023-07-20T08:39:13Z</time>
      </trkpt>
      <trkpt lat="48.37357" lon="2.71387">
        <ele>114.1</ele>
        <time>2023-07-20T08:39:14Z</time>
      </trkpt>
      <trkpt lat="48.37357" lon="2.71387">
        <ele>114.1</ele>
        <time>2023-07-20T08:39:15Z</time>
      </trkpt>
      <trkpt lat="48.37357" lon="2.71387">
        <ele>114.1</ele>
        <time>2023-07-20T08:39:16Z</time>
      </trkpt>
      <trkpt lat="48.37357" lon="2.71388">
        <ele>114.1</ele>
        <time>2023-07-20T08:39:17Z</time>
      </trkpt>
      <trkpt lat="48.37357" lon="2.71388">
        <ele>114.1</ele>
        <time>2023-07-20T08:39:18Z</time>
      </trkpt>
      <trkpt lat="48.37357" lon="2.71389">
        <ele>114.1</ele>
        <time>2023-07-20T08:39:19Z</time>
      </trkpt>
      <trkpt lat="48.37358" lon="2.71389">
        <ele>114.1</ele>
        <time>2023-07-20T08:39:20Z</time>
      </trkpt>
      <trkpt lat="48.37359" lon="2.7139">
        <ele>114.1</ele>
        <time>2023-07-20T08:39:21Z</time>
      </trkpt>
      <trkpt lat="48.3736" lon="2.71391">
        <ele>114.1</ele>
        <time>2023-07-20T08:39:22Z</time>
      </trkpt>
      <trkpt lat="48.37359" lon="2.71391">
        <ele>114.1</ele>
        <time>2023-07-20T08:39:23Z</time>
      </trkpt>
      <trkpt lat="48.3736" lon="2.71391">
        <ele>114.1</ele>
        <time>2023-07-20T08:39:24Z</time>
      </trkpt>
      <trkpt lat="48.3736" lon="2.71392">
        <ele>114.1</ele>
        <time>2023-07-20T08:39:25Z</time>
      </trkpt>
      <trkpt lat="48.3736" lon="2.71392">
        <ele>114.1</ele>
        <time>2023-07-20T08:39:26Z</time>
      </trkpt>
      <trkpt lat="48.3736" lon="2.71391">
        <ele>114.1</ele>
        <time>2023-07-20T08:39:27Z</time>
      </trkpt>
      <trkpt lat="48.37361" lon="2.7139">
        <ele>114.1</ele>
        <time>2023-07-20T08:39:28Z</time>
      </trkpt>
      <trkpt lat="48.37361" lon="2.7139">
        <ele>114.1</ele>
        <time>2023-07-20T08:39:29Z</time>
      </trkpt>
      <trkpt lat="48.37361" lon="2.7139">
        <ele>114.1</ele>
        <time>2023-07-20T08:39:30Z</time>
      </trkpt>
      <trkpt lat="48.37361" lon="2.71389">
        <ele>114.1</ele>
        <time>2023-07-20T08:39:31Z</time>
      </trkpt>
      <trkpt lat="48.37361" lon="2.71389">
        <ele>114.1</ele>
        <time>2023-07-20T08:39:32Z</time>
      </trkpt>
      <trkpt lat="48.37361" lon="2.71389">
        <ele>114.1</ele>
        <time>2023-07-20T08:39:33Z</time>
      </trkpt>
      <trkpt lat="48.37361" lon="2.71389">
        <ele>114.1</ele>
        <time>2023-07-20T08:39:34Z</time>
      </trkpt>
      <trkpt lat="48.37361" lon="2.7139">
        <ele>114.2</ele>
        <time>2023-07-20T08:39:35Z</time>
      </trkpt>
      <trkpt lat="48.37361" lon="2.7139">
        <ele>114.2</ele>
        <time>2023-07-20T08:39:36Z</time>
      </trkpt>
      <trkpt lat="48.3736" lon="2.71391">
        <ele>114.2</ele>
        <time>2023-07-20T08:39:37Z</time>
      </trkpt>
      <trkpt lat="48.3736" lon="2.7139">
        <ele>114.2</ele>
        <time>2023-07-20T08:39:38Z</time>
      </trkpt>
      <trkpt lat="48.37359" lon="2.7139">
        <ele>114.2</ele>
        <time>2023-07-20T08:39:39Z</time>
      </trkpt>
      <trkpt lat="48.37359" lon="2.7139">
        <ele>114.2</ele>
        <time>2023-07-20T08:39:40Z</time>
      </trkpt>
      <trkpt lat="48.37359" lon="2.71391">
        <ele>114.2</ele>
        <time>2023-07-20T08:39:41Z</time>
      </trkpt>
      <trkpt lat="48.37359" lon="2.7139">
        <ele>114.2</ele>
        <time>2023-07-20T08:39:42Z</time>
      </trkpt>
      <trkpt lat="48.3736" lon="2.71391">
        <ele>114.2</ele>
        <time>2023-07-20T08:39:43Z</time>
      </trkpt>
      <trkpt lat="48.3736" lon="2.71392">
        <ele>114.2</ele>
        <time>2023-07-20T08:39:44Z</time>
      </trkpt>
      <trkpt lat="48.37361" lon="2.71391">
        <ele>114.2</ele>
        <time>2023-07-20T08:39:45Z</time>
      </trkpt>
      <trkpt lat="48.37361" lon="2.71391">
        <ele>114.2</ele>
        <time>2023-07-20T08:39:46Z</time>
      </trkpt>
      <trkpt lat="48.37362" lon="2.71392">
        <ele>114.2</ele>
        <time>2023-07-20T08:39:47Z</time>
      </trkpt>
      <trkpt lat="48.37362" lon="2.71393">
        <ele>114.2</ele>
        <time>2023-07-20T08:39:48Z</time>
      </trkpt>
      <trkpt lat="48.37362" lon="2.71393">
        <ele>114.2</ele>
        <time>2023-07-20T08:39:49Z</time>
      </trkpt>
      <trkpt lat="48.37363" lon="2.71393">
        <ele>114.2</ele>
        <time>2023-07-20T08:39:50Z</time>
      </trkpt>
      <trkpt lat="48.37364" lon="2.71392">
        <ele>114.3</ele>
        <time>2023-07-20T08:39:51Z</time>
      </trkpt>
      <trkpt lat="48.37365" lon="2.71391">
        <ele>114.3</ele>
        <time>2023-07-20T08:39:52Z</time>
      </trkpt>
      <trkpt lat="48.37366" lon="2.71391">
        <ele>114.3</ele>
        <time>2023-07-20T08:39:53Z</time>
      </trkpt>
      <trkpt lat="48.37366" lon="2.71391">
        <ele>114.3</ele>
        <time>2023-07-20T08:39:54Z</time>
      </trkpt>
      <trkpt lat="48.37367" lon="2.71392">
        <ele>114.3</ele>
        <time>2023-07-20T08:39:55Z</time>
      </trkpt>
      <trkpt lat="48.37368" lon="2.71391">
        <ele>114.3</ele>
        <time>2023-07-20T08:39:56Z</time>
      </trkpt>
      <trkpt lat="48.37369" lon="2.71391">
        <ele>114.3</ele>
        <time>2023-07-20T08:39:57Z</time>
      </trkpt>
      <trkpt lat="48.3737" lon="2.7139">
        <ele>114.3</ele>
        <time>2023-07-20T08:39:58Z</time>
      </trkpt>
      <trkpt lat="48.37371" lon="2.7139">
        <ele>114.3</ele>
        <time>2023-07-20T08:39:59Z</time>
      </trkpt>
      <trkpt lat="48.37371" lon="2.71389">
        <ele>114.3</ele>
        <time>2023-07-20T08:40:00Z</time>
      </trkpt>
      <trkpt lat="48.37372" lon="2.71389">
        <ele>114.3</ele>
        <time>2023-07-20T08:40:01Z</time>
      </trkpt>
      <trkpt lat="48.37373" lon="2.71389">
        <ele>114.4</ele>
        <time>2023-07-20T08:40:02Z</time>
      </trkpt>
      <trkpt lat="48.37374" lon="2.71388">
        <ele>114.4</ele>
        <time>2023-07-20T08:40:03Z</time>
      </trkpt>
      <trkpt lat="48.37374" lon="2.71387">
        <ele>114.4</ele>
        <time>2023-07-20T08:40:04Z</time>
      </trkpt>
      <trkpt lat="48.37375" lon="2.71387">
        <ele>114.4</ele>
        <time>2023-07-20T08:40:05Z</time>
      </trkpt>
      <trkpt lat="48.37374" lon="2.71386">
        <ele>114.4</ele>
        <time>2023-07-20T08:40:06Z</time>
      </trkpt>
      <trkpt lat="48.37374" lon="2.71385">
        <ele>114.4</ele>
        <time>2023-07-20T08:40:07Z</time>
      </trkpt>
      <trkpt lat="48.37375" lon="2.71384">
        <ele>114.4</ele>
        <time>2023-07-20T08:40:08Z</time>
      </trkpt>
      <trkpt lat="48.37376" lon="2.71383">
        <ele>114.4</ele>
        <time>2023-07-20T08:40:09Z</time>
      </trkpt>
      <trkpt lat="48.37376" lon="2.71382">
        <ele>114.4</ele>
        <time>2023-07-20T08:40:10Z</time>
      </trkpt>
      <trkpt lat="48.37376" lon="2.71382">
        <ele>114.4</ele>
        <time>2023-07-20T08:40:11Z</time>
      </trkpt>
      <trkpt lat="48.37376" lon="2.71382">
        <ele>114.4</ele>
        <time>2023-07-20T08:40:12Z</time>
      </trkpt>
      <trkpt lat="48.37376" lon="2.71382">
        <ele>114.4</ele>
        <time>2023-07-20T08:40:13Z</time>
      </trkpt>
      <trkpt lat="48.37376" lon="2.71382">
        <ele>114.4</ele>
        <time>2023-07-20T08:40:14Z</time>
      </trkpt>
      <trkpt lat="48.37375" lon="2.71383">
        <ele>114.5</ele>
        <time>2023-07-20T08:40:15Z</time>
      </trkpt>
      <trkpt lat="48.37375" lon="2.71384">
        <ele>114.5</ele>
        <time>2023-07-20T08:40:16Z</time>
      </trkpt>
      <trkpt lat="48.37374" lon="2.71384">
        <ele>114.5</ele>
        <time>2023-07-20T08:40:17Z</time>
      </trkpt>
      <trkpt lat="48.37374" lon="2.71385">
        <ele>114.5</ele>
        <time>2023-07-20T08:40:18Z</time>
      </trkpt>
      <trkpt lat="48.37373" lon="2.71385">
        <ele>114.5</ele>
        <time>2023-07-20T08:40:19Z</time>
      </trkpt>
      <trkpt lat="48.37372" lon="2.71386">
        <ele>114.5</ele>
        <time>2023-07-20T08:40:20Z</time>
      </trkpt>
      <trkpt lat="48.37372" lon="2.71386">
        <ele>114.5</ele>
        <time>2023-07-20T08:40:21Z</time>
      </trkpt>
      <trkpt lat="48.37372" lon="2.71385">
        <ele>114.5</ele>
        <time>2023-07-20T08:40:22Z</time>
      </trkpt>
      <trkpt lat="48.37371" lon="2.71386">
        <ele>114.5</ele>
        <time>2023-07-20T08:40:23Z</time>
      </trkpt>
      <trkpt lat="48.3737" lon="2.71386">
        <ele>114.5</ele>
        <time>2023-07-20T08:40:24Z</time>
      </trkpt>
      <trkpt lat="48.37369" lon="2.71386">
        <ele>114.5</ele>
        <time>2023-07-20T08:40:25Z</time>
      </trkpt>
      <trkpt lat="48.37368" lon="2.71386">
        <ele>114.5</ele>
        <time>2023-07-20T08:40:26Z</time>
      </trkpt>
      <trkpt lat="48.37367" lon="2.71386">
        <ele>114.6</ele>
        <time>2023-07-20T08:40:27Z</time>
      </trkpt>
      <trkpt lat="48.37367" lon="2.71386">
        <ele>114.6</ele>
        <time>2023-07-20T08:40:28Z</time>
      </trkpt>
      <trkpt lat="48.37367" lon="2.71385">
        <ele>114.6</ele>
        <time>2023-07-20T08:40:29Z</time>
      </trkpt>
      <trkpt lat="48.37367" lon="2.71385">
        <ele>114.6</ele>
        <time>2023-07-20T08:40:30Z</time>
      </trkpt>
      <trkpt lat="48.37366" lon="2.71386">
        <ele>114.6</ele>
        <time>2023-07-20T08:40:31Z</time>
      </trkpt>
      <trkpt lat="48.37365" lon="2.71384">
        <ele>114.6</ele>
        <time>2023-07-20T08:40:32Z</time>
      </trkpt>
      <trkpt lat="48.37364" lon="2.71384">
        <ele>114.6</ele>
        <time>2023-07-20T08:40:33Z</time>
      </trkpt>
      <trkpt lat="48.37363" lon="2.71384">
        <ele>114.6</ele>
        <time>2023-07-20T08:40:34Z</time>
      </trkpt>
      <trkpt lat="48.37363" lon="2.71384">
        <ele>114.6</ele>
        <time>2023-07-20T08:40:35Z</time>
      </trkpt>
      <trkpt lat="48.37362" lon="2.71385">
        <ele>114.6</ele>
        <time>2023-07-20T08:40:36Z</time>
      </trkpt>
      <trkpt lat="48.37363" lon="2.71385">
        <ele>114.6</ele>
        <time>2023-07-20T08:40:37Z</time>
      </trkpt>
      <trkpt lat="48.37363" lon="2.71385">
        <ele>114.6</ele>
        <time>2023-07-20T08:40:38Z</time>
      </trkpt>
      <trkpt lat="48.37363" lon="2.71385">
        <ele>114.6</ele>
        <time>2023-07-20T08:40:39Z</time>
      </trkpt>
      <trkpt lat="48.37362" lon="2.71382">
        <ele>114.7</ele>
        <time>2023-07-20T08:40:40Z</time>
      </trkpt>
      <trkpt lat="48.37364" lon="2.71385">
        <ele>114.7</ele>
        <time>2023-07-20T08:40:41Z</time>
      </trkpt>
      <trkpt lat="48.37363" lon="2.71385">
        <ele>114.7</ele>
        <time>2023-07-20T08:40:42Z</time>
      </trkpt>
      <trkpt lat="48.37364" lon="2.71385">
        <ele>114.7</ele>
        <time>2023-07-20T08:40:43Z</time>
      </trkpt>
      <trkpt lat="48.37365" lon="2.71384">
        <ele>114.7</ele>
        <time>2023-07-20T08:40:44Z</time>
      </trkpt>
      <trkpt lat="48.37365" lon="2.71384">
        <ele>114.7</ele>
        <time>2023-07-20T08:40:45Z</time>
      </trkpt>
      <trkpt lat="48.37365" lon="2.71384">
        <ele>114.7</ele>
        <time>2023-07-20T08:40:46Z</time>
      </trkpt>
      <trkpt lat="48.37365" lon="2.71384">
        <ele>114.7</ele>
        <time>2023-07-20T08:40:47Z</time>
      </trkpt>
      <trkpt lat="48.37365" lon="2.71384">
        <ele>114.7</ele>
        <time>2023-07-20T08:40:48Z</time>
      </trkpt>
      <trkpt lat="48.37365" lon="2.71384">
        <ele>114.7</ele>
        <time>2023-07-20T08:40:49Z</time>
      </trkpt>
      <trkpt lat="48.37366" lon="2.71384">
        <ele>114.7</ele>
        <time>2023-07-20T08:40:50Z</time>
      </trkpt>
      <trkpt lat="48.37366" lon="2.71385">
        <ele>114.7</ele>
        <time>2023-07-20T08:40:51Z</time>
      </trkpt>
      <trkpt lat="48.37366" lon="2.71384">
        <ele>114.7</ele>
        <time>2023-07-20T08:40:52Z</time>
      </trkpt>
      <trkpt lat="48.37367" lon="2.71382">
        <ele>114.8</ele>
        <time>2023-07-20T08:40:53Z</time>
      </trkpt>
      <trkpt lat="48.37367" lon="2.7138">
        <ele>114.8</ele>
        <time>2023-07-20T08:40:54Z</time>
      </trkpt>
      <trkpt lat="48.37367" lon="2.7138">
        <ele>114.8</ele>
        <time>2023-07-20T08:40:55Z</time>
      </trkpt>
      <trkpt lat="48.37367" lon="2.7138">
        <ele>114.8</ele>
        <time>2023-07-20T08:40:56Z</time>
      </trkpt>
      <trkpt lat="48.37367" lon="2.71379">
        <ele>114.8</ele>
        <time>2023-07-20T08:40:57Z</time>
      </trkpt>
      <trkpt lat="48.37368" lon="2.71378">
        <ele>114.8</ele>
        <time>2023-07-20T08:40:58Z</time>
      </trkpt>
      <trkpt lat="48.37368" lon="2.71377">
        <ele>114.8</ele>
        <time>2023-07-20T08:40:59Z</time>
      </trkpt>
      <trkpt lat="48.37368" lon="2.71376">
        <ele>114.8</ele>
        <time>2023-07-20T08:41:00Z</time>
      </trkpt>
      <trkpt lat="48.37368" lon="2.71375">
        <ele>114.8</ele>
        <time>2023-07-20T08:41:01Z</time>
      </trkpt>
      <trkpt lat="48.37369" lon="2.71373">
        <ele>114.8</ele>
        <time>2023-07-20T08:41:02Z</time>
      </trkpt>
      <trkpt lat="48.37369" lon="2.71372">
        <ele>114.8</ele>
        <time>2023-07-20T08:41:03Z</time>
      </trkpt>
      <trkpt lat="48.3737" lon="2.71372">
        <ele>114.9</ele>
        <time>2023-07-20T08:41:04Z</time>
      </trkpt>
      <trkpt lat="48.3737" lon="2.71372">
        <ele>114.9</ele>
        <time>2023-07-20T08:41:05Z</time>
      </trkpt>
      <trkpt lat="48.3737" lon="2.71371">
        <ele>114.9</ele>
        <time>2023-07-20T08:41:06Z</time>
      </trkpt>
      <trkpt lat="48.3737" lon="2.71372">
        <ele>114.9</ele>
        <time>2023-07-20T08:41:07Z</time>
      </trkpt>
      <trkpt lat="48.37371" lon="2.71371">
        <ele>114.9</ele>
        <time>2023-07-20T08:41:08Z</time>
      </trkpt>
      <trkpt lat="48.3737" lon="2.71371">
        <ele>114.9</ele>
        <time>2023-07-20T08:41:09Z</time>
      </trkpt>
      <trkpt lat="48.37371" lon="2.71371">
        <ele>114.9</ele>
        <time>2023-07-20T08:41:10Z</time>
      </trkpt>
      <trkpt lat="48.37371" lon="2.71371">
        <ele>114.9</ele>
        <time>2023-07-20T08:41:11Z</time>
      </trkpt>
      <trkpt lat="48.37372" lon="2.7137">
        <ele>114.9</ele>
        <time>2023-07-20T08:41:12Z</time>
      </trkpt>
      <trkpt lat="48.37372" lon="2.7137">
        <ele>114.9</ele>
        <time>2023-07-20T08:41:13Z</time>
      </trkpt>
      <trkpt lat="48.37372" lon="2.7137">
        <ele>114.9</ele>
        <time>2023-07-20T08:41:14Z</time>
      </trkpt>
      <trkpt lat="48.37372" lon="2.7137">
        <ele>114.9</ele>
        <time>2023-07-20T08:41:15Z</time>
      </trkpt>
      <trkpt lat="48.37372" lon="2.71369">
        <ele>114.9</ele>
        <time>2023-07-20T08:41:16Z</time>
      </trkpt>
      <trkpt lat="48.37373" lon="2.71368">
        <ele>114.9</ele>
        <time>2023-07-20T08:41:17Z</time>
      </trkpt>
      <trkpt lat="48.37373" lon="2.71366">
        <ele>114.9</ele>
        <time>2023-07-20T08:41:18Z</time>
      </trkpt>
      <trkpt lat="48.37374" lon="2.71363">
        <ele>115</ele>
        <time>2023-07-20T08:41:19Z</time>
      </trkpt>
      <trkpt lat="48.37374" lon="2.71361">
        <ele>115</ele>
        <time>2023-07-20T08:41:20Z</time>
      </trkpt>
      <trkpt lat="48.37374" lon="2.7136">
        <ele>115</ele>
        <time>2023-07-20T08:41:21Z</time>
      </trkpt>
      <trkpt lat="48.37374" lon="2.71358">
        <ele>115</ele>
        <time>2023-07-20T08:41:22Z</time>
      </trkpt>
      <trkpt lat="48.37374" lon="2.71356">
        <ele>115</ele>
        <time>2023-07-20T08:41:23Z</time>
      </trkpt>
      <trkpt lat="48.37374" lon="2.71354">
        <ele>115</ele>
        <time>2023-07-20T08:41:24Z</time>
      </trkpt>
      <trkpt lat="48.37374" lon="2.71353">
        <ele>115</ele>
        <time>2023-07-20T08:41:25Z</time>
      </trkpt>
      <trkpt lat="48.37374" lon="2.71353">
        <ele>115</ele>
        <time>2023-07-20T08:41:26Z</time>
      </trkpt>
      <trkpt lat="48.37374" lon="2.71353">
        <ele>115</ele>
        <time>2023-07-20T08:41:27Z</time>
      </trkpt>
      <trkpt lat="48.37374" lon="2.71351">
        <ele>115.1</ele>
        <time>2023-07-20T08:41:28Z</time>
      </trkpt>
      <trkpt lat="48.37374" lon="2.71351">
        <ele>115.1</ele>
        <time>2023-07-20T08:41:29Z</time>
      </trkpt>
      <trkpt lat="48.37374" lon="2.71351">
        <ele>115.1</ele>
        <time>2023-07-20T08:41:30Z</time>
      </trkpt>
      <trkpt lat="48.37375" lon="2.71351">
        <ele>115.1</ele>
        <time>2023-07-20T08:41:31Z</time>
      </trkpt>
      <trkpt lat="48.37375" lon="2.71351">
        <ele>115.1</ele>
        <time>2023-07-20T08:41:32Z</time>
      </trkpt>
      <trkpt lat="48.37375" lon="2.7135">
        <ele>115.1</ele>
        <time>2023-07-20T08:41:33Z</time>
      </trkpt>
      <trkpt lat="48.37375" lon="2.7135">
        <ele>115.1</ele>
        <time>2023-07-20T08:41:34Z</time>
      </trkpt>
      <trkpt lat="48.37375" lon="2.71349">
        <ele>115.1</ele>
        <time>2023-07-20T08:41:35Z</time>
      </trkpt>
      <trkpt lat="48.37376" lon="2.71348">
        <ele>115.1</ele>
        <time>2023-07-20T08:41:36Z</time>
      </trkpt>
      <trkpt lat="48.37376" lon="2.71347">
        <ele>115.1</ele>
        <time>2023-07-20T08:41:37Z</time>
      </trkpt>
      <trkpt lat="48.37377" lon="2.71347">
        <ele>115.2</ele>
        <time>2023-07-20T08:41:38Z</time>
      </trkpt>
      <trkpt lat="48.37377" lon="2.71346">
        <ele>115.3</ele>
        <time>2023-07-20T08:41:39Z</time>
      </trkpt>
      <trkpt lat="48.37377" lon="2.71345">
        <ele>115.4</ele>
        <time>2023-07-20T08:41:40Z</time>
      </trkpt>
      <trkpt lat="48.37378" lon="2.71345">
        <ele>115.4</ele>
        <time>2023-07-20T08:41:41Z</time>
      </trkpt>
      <trkpt lat="48.37378" lon="2.71343">
        <ele>115.5</ele>
        <time>2023-07-20T08:41:42Z</time>
      </trkpt>
      <trkpt lat="48.37378" lon="2.71342">
        <ele>115.6</ele>
        <time>2023-07-20T08:41:43Z</time>
      </trkpt>
      <trkpt lat="48.37379" lon="2.71341">
        <ele>115.7</ele>
        <time>2023-07-20T08:41:44Z</time>
      </trkpt>
      <trkpt lat="48.37379" lon="2.7134">
        <ele>115.7</ele>
        <time>2023-07-20T08:41:45Z</time>
      </trkpt>
      <trkpt lat="48.37379" lon="2.71339">
        <ele>115.8</ele>
        <time>2023-07-20T08:41:46Z</time>
      </trkpt>
      <trkpt lat="48.3738" lon="2.71338">
        <ele>115.8</ele>
        <time>2023-07-20T08:41:47Z</time>
      </trkpt>
      <trkpt lat="48.3738" lon="2.71338">
        <ele>115.9</ele>
        <time>2023-07-20T08:41:48Z</time>
      </trkpt>
      <trkpt lat="48.3738" lon="2.71337">
        <ele>115.9</ele>
        <time>2023-07-20T08:41:49Z</time>
      </trkpt>
      <trkpt lat="48.37381" lon="2.71336">
        <ele>116</ele>
        <time>2023-07-20T08:41:50Z</time>
      </trkpt>
      <trkpt lat="48.37382" lon="2.71333">
        <ele>116.2</ele>
        <time>2023-07-20T08:41:51Z</time>
      </trkpt>
      <trkpt lat="48.37382" lon="2.71332">
        <ele>116.3</ele>
        <time>2023-07-20T08:41:52Z</time>
      </trkpt>
      <trkpt lat="48.37382" lon="2.7133">
        <ele>116.4</ele>
        <time>2023-07-20T08:41:53Z</time>
      </trkpt>
      <trkpt lat="48.37381" lon="2.71329">
        <ele>116.5</ele>
        <time>2023-07-20T08:41:54Z</time>
      </trkpt>
      <trkpt lat="48.37381" lon="2.71327">
        <ele>116.6</ele>
        <time>2023-07-20T08:41:55Z</time>
      </trkpt>
      <trkpt lat="48.37381" lon="2.71325">
        <ele>116.7</ele>
        <time>2023-07-20T08:41:56Z</time>
      </trkpt>
      <trkpt lat="48.37382" lon="2.71324">
        <ele>116.8</ele>
        <time>2023-07-20T08:41:57Z</time>
      </trkpt>
      <trkpt lat="48.37382" lon="2.71323">
        <ele>116.8</ele>
        <time>2023-07-20T08:41:58Z</time>
      </trkpt>
      <trkpt lat="48.37382" lon="2.71323">
        <ele>116.9</ele>
        <time>2023-07-20T08:41:59Z</time>
      </trkpt>
      <trkpt lat="48.37382" lon="2.71322">
        <ele>116.9</ele>
        <time>2023-07-20T08:42:00Z</time>
      </trkpt>
      <trkpt lat="48.37382" lon="2.71321">
        <ele>117</ele>
        <time>2023-07-20T08:42:01Z</time>
      </trkpt>
      <trkpt lat="48.37383" lon="2.7132">
        <ele>117.1</ele>
        <time>2023-07-20T08:42:02Z</time>
      </trkpt>
      <trkpt lat="48.37383" lon="2.71319">
        <ele>117.2</ele>
        <time>2023-07-20T08:42:03Z</time>
      </trkpt>
      <trkpt lat="48.37384" lon="2.71318">
        <ele>117.3</ele>
        <time>2023-07-20T08:42:04Z</time>
      </trkpt>
      <trkpt lat="48.37385" lon="2.71318">
        <ele>117.3</ele>
        <time>2023-07-20T08:42:05Z</time>
      </trkpt>
      <trkpt lat="48.37385" lon="2.71318">
        <ele>117.4</ele>
        <time>2023-07-20T08:42:06Z</time>
      </trkpt>
      <trkpt lat="48.37386" lon="2.71317">
        <ele>117.4</ele>
        <time>2023-07-20T08:42:07Z</time>
      </trkpt>
      <trkpt lat="48.37387" lon="2.71315">
        <ele>117.7</ele>
        <time>2023-07-20T08:42:08Z</time>
      </trkpt>
      <trkpt lat="48.37387" lon="2.71314">
        <ele>117.7</ele>
        <time>2023-07-20T08:42:09Z</time>
      </trkpt>
      <trkpt lat="48.37387" lon="2.71312">
        <ele>117.8</ele>
        <time>2023-07-20T08:42:10Z</time>
      </trkpt>
      <trkpt lat="48.37388" lon="2.71311">
        <ele>118</ele>
        <time>2023-07-20T08:42:11Z</time>
      </trkpt>
      <trkpt lat="48.37389" lon="2.71309">
        <ele>118.2</ele>
        <time>2023-07-20T08:42:12Z</time>
      </trkpt>
      <trkpt lat="48.37389" lon="2.71307">
        <ele>118.3</ele>
        <time>2023-07-20T08:42:13Z</time>
      </trkpt>
      <trkpt lat="48.37389" lon="2.71306">
        <ele>118.4</ele>
        <time>2023-07-20T08:42:14Z</time>
      </trkpt>
      <trkpt lat="48.3739" lon="2.71305">
        <ele>118.5</ele>
        <time>2023-07-20T08:42:15Z</time>
      </trkpt>
      <trkpt lat="48.3739" lon="2.71304">
        <ele>118.5</ele>
        <time>2023-07-20T08:42:16Z</time>
      </trkpt>
      <trkpt lat="48.3739" lon="2.71304">
        <ele>118.6</ele>
        <time>2023-07-20T08:42:17Z</time>
      </trkpt>
      <trkpt lat="48.3739" lon="2.71304">
        <ele>118.6</ele>
        <time>2023-07-20T08:42:18Z</time>
      </trkpt>
      <trkpt lat="48.3739" lon="2.71303">
        <ele>118.7</ele>
        <time>2023-07-20T08:42:19Z</time>
      </trkpt>
      <trkpt lat="48.3739" lon="2.71303">
        <ele>118.7</ele>
        <time>2023-07-20T08:42:20Z</time>
      </trkpt>
      <trkpt lat="48.37391" lon="2.71303">
        <ele>118.8</ele>
        <time>2023-07-20T08:42:21Z</time>
      </trkpt>
      <trkpt lat="48.37391" lon="2.71302">
        <ele>118.9</ele>
        <time>2023-07-20T08:42:22Z</time>
      </trkpt>
      <trkpt lat="48.37392" lon="2.71302">
        <ele>118.9</ele>
        <time>2023-07-20T08:42:23Z</time>
      </trkpt>
      <trkpt lat="48.37392" lon="2.71301">
        <ele>119</ele>
        <time>2023-07-20T08:42:24Z</time>
      </trkpt>
      <trkpt lat="48.37392" lon="2.713">
        <ele>119.2</ele>
        <time>2023-07-20T08:42:25Z</time>
      </trkpt>
      <trkpt lat="48.37393" lon="2.71298">
        <ele>119.3</ele>
        <time>2023-07-20T08:42:26Z</time>
      </trkpt>
      <trkpt lat="48.37393" lon="2.71298">
        <ele>119.4</ele>
        <time>2023-07-20T08:42:27Z</time>
      </trkpt>
      <trkpt lat="48.37394" lon="2.71297">
        <ele>119.5</ele>
        <time>2023-07-20T08:42:28Z</time>
      </trkpt>
      <trkpt lat="48.37395" lon="2.71296">
        <ele>119.6</ele>
        <time>2023-07-20T08:42:29Z</time>
      </trkpt>
      <trkpt lat="48.37395" lon="2.71295">
        <ele>119.7</ele>
        <time>2023-07-20T08:42:30Z</time>
      </trkpt>
      <trkpt lat="48.37395" lon="2.71294">
        <ele>119.8</ele>
        <time>2023-07-20T08:42:31Z</time>
      </trkpt>
      <trkpt lat="48.37396" lon="2.71293">
        <ele>119.9</ele>
        <time>2023-07-20T08:42:32Z</time>
      </trkpt>
      <trkpt lat="48.37396" lon="2.71291">
        <ele>120.1</ele>
        <time>2023-07-20T08:42:33Z</time>
      </trkpt>
      <trkpt lat="48.37397" lon="2.71289">
        <ele>120.3</ele>
        <time>2023-07-20T08:42:34Z</time>
      </trkpt>
      <trkpt lat="48.37398" lon="2.71287">
        <ele>120.5</ele>
        <time>2023-07-20T08:42:35Z</time>
      </trkpt>
      <trkpt lat="48.37398" lon="2.71286">
        <ele>120.6</ele>
        <time>2023-07-20T08:42:36Z</time>
      </trkpt>
      <trkpt lat="48.37399" lon="2.71285">
        <ele>120.7</ele>
        <time>2023-07-20T08:42:37Z</time>
      </trkpt>
      <trkpt lat="48.37399" lon="2.71284">
        <ele>120.8</ele>
        <time>2023-07-20T08:42:38Z</time>
      </trkpt>
      <trkpt lat="48.374" lon="2.71283">
        <ele>121</ele>
        <time>2023-07-20T08:42:39Z</time>
      </trkpt>
      <trkpt lat="48.374" lon="2.71281">
        <ele>121.2</ele>
        <time>2023-07-20T08:42:40Z</time>
      </trkpt>
      <trkpt lat="48.37401" lon="2.71279">
        <ele>121.4</ele>
        <time>2023-07-20T08:42:41Z</time>
      </trkpt>
      <trkpt lat="48.37401" lon="2.71277">
        <ele>121.6</ele>
        <time>2023-07-20T08:42:42Z</time>
      </trkpt>
      <trkpt lat="48.37401" lon="2.71274">
        <ele>121.9</ele>
        <time>2023-07-20T08:42:43Z</time>
      </trkpt>
      <trkpt lat="48.37402" lon="2.71273">
        <ele>122</ele>
        <time>2023-07-20T08:42:44Z</time>
      </trkpt>
      <trkpt lat="48.37402" lon="2.71271">
        <ele>122.1</ele>
        <time>2023-07-20T08:42:45Z</time>
      </trkpt>
      <trkpt lat="48.37402" lon="2.71269">
        <ele>122.3</ele>
        <time>2023-07-20T08:42:46Z</time>
      </trkpt>
      <trkpt lat="48.37402" lon="2.71268">
        <ele>122.4</ele>
        <time>2023-07-20T08:42:47Z</time>
      </trkpt>
      <trkpt lat="48.37402" lon="2.71268">
        <ele>122.5</ele>
        <time>2023-07-20T08:42:48Z</time>
      </trkpt>
      <trkpt lat="48.37402" lon="2.71267">
        <ele>122.6</ele>
        <time>2023-07-20T08:42:49Z</time>
      </trkpt>
      <trkpt lat="48.37402" lon="2.71266">
        <ele>122.7</ele>
        <time>2023-07-20T08:42:50Z</time>
      </trkpt>
      <trkpt lat="48.37402" lon="2.71265">
        <ele>122.8</ele>
        <time>2023-07-20T08:42:51Z</time>
      </trkpt>
      <trkpt lat="48.37402" lon="2.71264">
        <ele>122.8</ele>
        <time>2023-07-20T08:42:52Z</time>
      </trkpt>
      <trkpt lat="48.37402" lon="2.71264">
        <ele>122.8</ele>
        <time>2023-07-20T08:42:53Z</time>
      </trkpt>
      <trkpt lat="48.37403" lon="2.71263">
        <ele>123</ele>
        <time>2023-07-20T08:42:54Z</time>
      </trkpt>
      <trkpt lat="48.37403" lon="2.71262">
        <ele>123.1</ele>
        <time>2023-07-20T08:42:55Z</time>
      </trkpt>
      <trkpt lat="48.37403" lon="2.71261">
        <ele>123.2</ele>
        <time>2023-07-20T08:42:56Z</time>
      </trkpt>
      <trkpt lat="48.37403" lon="2.7126">
        <ele>123.3</ele>
        <time>2023-07-20T08:42:57Z</time>
      </trkpt>
      <trkpt lat="48.37403" lon="2.71258">
        <ele>123.4</ele>
        <time>2023-07-20T08:42:58Z</time>
      </trkpt>
      <trkpt lat="48.37403" lon="2.71256">
        <ele>123.6</ele>
        <time>2023-07-20T08:42:59Z</time>
      </trkpt>
      <trkpt lat="48.37403" lon="2.71254">
        <ele>123.8</ele>
        <time>2023-07-20T08:43:00Z</time>
      </trkpt>
      <trkpt lat="48.37402" lon="2.71253">
        <ele>123.9</ele>
        <time>2023-07-20T08:43:01Z</time>
      </trkpt>
      <trkpt lat="48.37402" lon="2.71252">
        <ele>124.1</ele>
        <time>2023-07-20T08:43:02Z</time>
      </trkpt>
      <trkpt lat="48.37402" lon="2.71251">
        <ele>124.2</ele>
        <time>2023-07-20T08:43:03Z</time>
      </trkpt>
      <trkpt lat="48.37402" lon="2.71249">
        <ele>124.3</ele>
        <time>2023-07-20T08:43:04Z</time>
      </trkpt>
      <trkpt lat="48.37402" lon="2.71247">
        <ele>124.5</ele>
        <time>2023-07-20T08:43:05Z</time>
      </trkpt>
      <trkpt lat="48.37402" lon="2.71246">
        <ele>124.6</ele>
        <time>2023-07-20T08:43:06Z</time>
      </trkpt>
      <trkpt lat="48.37401" lon="2.71246">
        <ele>124.7</ele>
        <time>2023-07-20T08:43:07Z</time>
      </trkpt>
      <trkpt lat="48.37402" lon="2.71244">
        <ele>124.9</ele>
        <time>2023-07-20T08:43:08Z</time>
      </trkpt>
      <trkpt lat="48.37402" lon="2.71243">
        <ele>125</ele>
        <time>2023-07-20T08:43:09Z</time>
      </trkpt>
      <trkpt lat="48.37402" lon="2.71242">
        <ele>125.1</ele>
        <time>2023-07-20T08:43:10Z</time>
      </trkpt>
      <trkpt lat="48.37402" lon="2.71241">
        <ele>125.1</ele>
        <time>2023-07-20T08:43:11Z</time>
      </trkpt>
      <trkpt lat="48.37402" lon="2.7124">
        <ele>125.2</ele>
        <time>2023-07-20T08:43:12Z</time>
      </trkpt>
      <trkpt lat="48.37402" lon="2.71239">
        <ele>125.4</ele>
        <time>2023-07-20T08:43:13Z</time>
      </trkpt>
      <trkpt lat="48.37402" lon="2.71238">
        <ele>125.5</ele>
        <time>2023-07-20T08:43:14Z</time>
      </trkpt>
      <trkpt lat="48.37402" lon="2.71235">
        <ele>125.7</ele>
        <time>2023-07-20T08:43:15Z</time>
      </trkpt>
      <trkpt lat="48.37401" lon="2.71234">
        <ele>125.9</ele>
        <time>2023-07-20T08:43:16Z</time>
      </trkpt>
      <trkpt lat="48.37401" lon="2.71233">
        <ele>126</ele>
        <time>2023-07-20T08:43:17Z</time>
      </trkpt>
      <trkpt lat="48.37401" lon="2.71231">
        <ele>126.2</ele>
        <time>2023-07-20T08:43:18Z</time>
      </trkpt>
      <trkpt lat="48.374" lon="2.71229">
        <ele>126.4</ele>
        <time>2023-07-20T08:43:19Z</time>
      </trkpt>
      <trkpt lat="48.374" lon="2.71227">
        <ele>126.5</ele>
        <time>2023-07-20T08:43:20Z</time>
      </trkpt>
      <trkpt lat="48.374" lon="2.71226">
        <ele>126.6</ele>
        <time>2023-07-20T08:43:21Z</time>
      </trkpt>
      <trkpt lat="48.374" lon="2.71225">
        <ele>126.7</ele>
        <time>2023-07-20T08:43:22Z</time>
      </trkpt>
      <trkpt lat="48.37399" lon="2.71224">
        <ele>126.8</ele>
        <time>2023-07-20T08:43:23Z</time>
      </trkpt>
      <trkpt lat="48.374" lon="2.71222">
        <ele>127</ele>
        <time>2023-07-20T08:43:24Z</time>
      </trkpt>
      <trkpt lat="48.374" lon="2.71221">
        <ele>127.1</ele>
        <time>2023-07-20T08:43:25Z</time>
      </trkpt>
      <trkpt lat="48.374" lon="2.71219">
        <ele>127.2</ele>
        <time>2023-07-20T08:43:26Z</time>
      </trkpt>
      <trkpt lat="48.37401" lon="2.71218">
        <ele>127.4</ele>
        <time>2023-07-20T08:43:27Z</time>
      </trkpt>
      <trkpt lat="48.37401" lon="2.71217">
        <ele>127.5</ele>
        <time>2023-07-20T08:43:28Z</time>
      </trkpt>
      <trkpt lat="48.37401" lon="2.71216">
        <ele>127.5</ele>
        <time>2023-07-20T08:43:29Z</time>
      </trkpt>
      <trkpt lat="48.37401" lon="2.71215">
        <ele>127.6</ele>
        <time>2023-07-20T08:43:30Z</time>
      </trkpt>
      <trkpt lat="48.37401" lon="2.71214">
        <ele>127.7</ele>
        <time>2023-07-20T08:43:31Z</time>
      </trkpt>
      <trkpt lat="48.374" lon="2.71213">
        <ele>127.9</ele>
        <time>2023-07-20T08:43:32Z</time>
      </trkpt>
      <trkpt lat="48.37399" lon="2.71211">
        <ele>128.1</ele>
        <time>2023-07-20T08:43:33Z</time>
      </trkpt>
      <trkpt lat="48.37398" lon="2.71209">
        <ele>128.3</ele>
        <time>2023-07-20T08:43:34Z</time>
      </trkpt>
      <trkpt lat="48.37398" lon="2.71208">
        <ele>128.4</ele>
        <time>2023-07-20T08:43:35Z</time>
      </trkpt>
      <trkpt lat="48.37397" lon="2.71207">
        <ele>128.5</ele>
        <time>2023-07-20T08:43:36Z</time>
      </trkpt>
      <trkpt lat="48.37397" lon="2.71207">
        <ele>128.6</ele>
        <time>2023-07-20T08:43:37Z</time>
      </trkpt>
      <trkpt lat="48.37397" lon="2.71205">
        <ele>128.7</ele>
        <time>2023-07-20T08:43:38Z</time>
      </trkpt>
      <trkpt lat="48.37397" lon="2.71204">
        <ele>128.8</ele>
        <time>2023-07-20T08:43:39Z</time>
      </trkpt>
      <trkpt lat="48.37397" lon="2.71204">
        <ele>128.8</ele>
        <time>2023-07-20T08:43:40Z</time>
      </trkpt>
      <trkpt lat="48.37397" lon="2.71202">
        <ele>128.9</ele>
        <time>2023-07-20T08:43:41Z</time>
      </trkpt>
      <trkpt lat="48.37397" lon="2.71202">
        <ele>129</ele>
        <time>2023-07-20T08:43:42Z</time>
      </trkpt>
      <trkpt lat="48.37397" lon="2.712">
        <ele>129.1</ele>
        <time>2023-07-20T08:43:43Z</time>
      </trkpt>
      <trkpt lat="48.37397" lon="2.71199">
        <ele>129.3</ele>
        <time>2023-07-20T08:43:44Z</time>
      </trkpt>
      <trkpt lat="48.37396" lon="2.71198">
        <ele>129.4</ele>
        <time>2023-07-20T08:43:45Z</time>
      </trkpt>
      <trkpt lat="48.37396" lon="2.71197">
        <ele>129.5</ele>
        <time>2023-07-20T08:43:46Z</time>
      </trkpt>
      <trkpt lat="48.37395" lon="2.71196">
        <ele>129.6</ele>
        <time>2023-07-20T08:43:47Z</time>
      </trkpt>
      <trkpt lat="48.37395" lon="2.71194">
        <ele>129.7</ele>
        <time>2023-07-20T08:43:48Z</time>
      </trkpt>
      <trkpt lat="48.37394" lon="2.71193">
        <ele>129.9</ele>
        <time>2023-07-20T08:43:49Z</time>
      </trkpt>
      <trkpt lat="48.37394" lon="2.71192">
        <ele>129.9</ele>
        <time>2023-07-20T08:43:50Z</time>
      </trkpt>
      <trkpt lat="48.37393" lon="2.71192">
        <ele>130</ele>
        <time>2023-07-20T08:43:51Z</time>
      </trkpt>
      <trkpt lat="48.37393" lon="2.71191">
        <ele>130.1</ele>
        <time>2023-07-20T08:43:52Z</time>
      </trkpt>
      <trkpt lat="48.37393" lon="2.71189">
        <ele>130.2</ele>
        <time>2023-07-20T08:43:53Z</time>
      </trkpt>
      <trkpt lat="48.37393" lon="2.71188">
        <ele>130.3</ele>
        <time>2023-07-20T08:43:54Z</time>
      </trkpt>
      <trkpt lat="48.37393" lon="2.71187">
        <ele>130.4</ele>
        <time>2023-07-20T08:43:55Z</time>
      </trkpt>
      <trkpt lat="48.37393" lon="2.71187">
        <ele>130.5</ele>
        <time>2023-07-20T08:43:56Z</time>
      </trkpt>
      <trkpt lat="48.37392" lon="2.71185">
        <ele>130.6</ele>
        <time>2023-07-20T08:43:57Z</time>
      </trkpt>
      <trkpt lat="48.37393" lon="2.71184">
        <ele>130.7</ele>
        <time>2023-07-20T08:43:58Z</time>
      </trkpt>
      <trkpt lat="48.37393" lon="2.71183">
        <ele>130.8</ele>
        <time>2023-07-20T08:43:59Z</time>
      </trkpt>
      <trkpt lat="48.37394" lon="2.71182">
        <ele>130.9</ele>
        <time>2023-07-20T08:44:00Z</time>
      </trkpt>
      <trkpt lat="48.37394" lon="2.71181">
        <ele>131</ele>
        <time>2023-07-20T08:44:01Z</time>
      </trkpt>
      <trkpt lat="48.37394" lon="2.7118">
        <ele>131</ele>
        <time>2023-07-20T08:44:02Z</time>
      </trkpt>
      <trkpt lat="48.37394" lon="2.71179">
        <ele>131.1</ele>
        <time>2023-07-20T08:44:03Z</time>
      </trkpt>
      <trkpt lat="48.37394" lon="2.71177">
        <ele>131.3</ele>
        <time>2023-07-20T08:44:04Z</time>
      </trkpt>
      <trkpt lat="48.37394" lon="2.71175">
        <ele>131.4</ele>
        <time>2023-07-20T08:44:05Z</time>
      </trkpt>
      <trkpt lat="48.37394" lon="2.71173">
        <ele>131.6</ele>
        <time>2023-07-20T08:44:06Z</time>
      </trkpt>
      <trkpt lat="48.37394" lon="2.71172">
        <ele>131.6</ele>
        <time>2023-07-20T08:44:07Z</time>
      </trkpt>
      <trkpt lat="48.37395" lon="2.7117">
        <ele>131.8</ele>
        <time>2023-07-20T08:44:08Z</time>
      </trkpt>
      <trkpt lat="48.37396" lon="2.71169">
        <ele>131.9</ele>
        <time>2023-07-20T08:44:09Z</time>
      </trkpt>
      <trkpt lat="48.37396" lon="2.71168">
        <ele>131.9</ele>
        <time>2023-07-20T08:44:10Z</time>
      </trkpt>
      <trkpt lat="48.37396" lon="2.71167">
        <ele>132</ele>
        <time>2023-07-20T08:44:11Z</time>
      </trkpt>
      <trkpt lat="48.37397" lon="2.71166">
        <ele>132.1</ele>
        <time>2023-07-20T08:44:12Z</time>
      </trkpt>
      <trkpt lat="48.37397" lon="2.71164">
        <ele>132.2</ele>
        <time>2023-07-20T08:44:13Z</time>
      </trkpt>
      <trkpt lat="48.37398" lon="2.71164">
        <ele>132.3</ele>
        <time>2023-07-20T08:44:14Z</time>
      </trkpt>
      <trkpt lat="48.37398" lon="2.71163">
        <ele>132.4</ele>
        <time>2023-07-20T08:44:15Z</time>
      </trkpt>
      <trkpt lat="48.37399" lon="2.71162">
        <ele>132.4</ele>
        <time>2023-07-20T08:44:16Z</time>
      </trkpt>
      <trkpt lat="48.37399" lon="2.71161">
        <ele>132.5</ele>
        <time>2023-07-20T08:44:17Z</time>
      </trkpt>
      <trkpt lat="48.374" lon="2.71161">
        <ele>132.5</ele>
        <time>2023-07-20T08:44:18Z</time>
      </trkpt>
      <trkpt lat="48.374" lon="2.7116">
        <ele>132.6</ele>
        <time>2023-07-20T08:44:19Z</time>
      </trkpt>
      <trkpt lat="48.374" lon="2.71159">
        <ele>132.6</ele>
        <time>2023-07-20T08:44:20Z</time>
      </trkpt>
      <trkpt lat="48.374" lon="2.71158">
        <ele>132.7</ele>
        <time>2023-07-20T08:44:21Z</time>
      </trkpt>
      <trkpt lat="48.37401" lon="2.71157">
        <ele>132.8</ele>
        <time>2023-07-20T08:44:22Z</time>
      </trkpt>
      <trkpt lat="48.37402" lon="2.71154">
        <ele>133</ele>
        <time>2023-07-20T08:44:23Z</time>
      </trkpt>
      <trkpt lat="48.37401" lon="2.71151">
        <ele>133.1</ele>
        <time>2023-07-20T08:44:24Z</time>
      </trkpt>
      <trkpt lat="48.37401" lon="2.7115">
        <ele>133.2</ele>
        <time>2023-07-20T08:44:25Z</time>
      </trkpt>
      <trkpt lat="48.37401" lon="2.71148">
        <ele>133.3</ele>
        <time>2023-07-20T08:44:26Z</time>
      </trkpt>
      <trkpt lat="48.37401" lon="2.71147">
        <ele>133.4</ele>
        <time>2023-07-20T08:44:27Z</time>
      </trkpt>
      <trkpt lat="48.37401" lon="2.71147">
        <ele>133.4</ele>
        <time>2023-07-20T08:44:28Z</time>
      </trkpt>
      <trkpt lat="48.37402" lon="2.71146">
        <ele>133.4</ele>
        <time>2023-07-20T08:44:29Z</time>
      </trkpt>
      <trkpt lat="48.37402" lon="2.71144">
        <ele>133.5</ele>
        <time>2023-07-20T08:44:30Z</time>
      </trkpt>
      <trkpt lat="48.37402" lon="2.71143">
        <ele>133.6</ele>
        <time>2023-07-20T08:44:31Z</time>
      </trkpt>
      <trkpt lat="48.37402" lon="2.71143">
        <ele>133.6</ele>
        <time>2023-07-20T08:44:32Z</time>
      </trkpt>
      <trkpt lat="48.37401" lon="2.71143">
        <ele>133.7</ele>
        <time>2023-07-20T08:44:33Z</time>
      </trkpt>
      <trkpt lat="48.374" lon="2.71142">
        <ele>133.7</ele>
        <time>2023-07-20T08:44:34Z</time>
      </trkpt>
      <trkpt lat="48.374" lon="2.71142">
        <ele>133.8</ele>
        <time>2023-07-20T08:44:35Z</time>
      </trkpt>
      <trkpt lat="48.37399" lon="2.71142">
        <ele>133.8</ele>
        <time>2023-07-20T08:44:36Z</time>
      </trkpt>
      <trkpt lat="48.37398" lon="2.71142">
        <ele>133.9</ele>
        <time>2023-07-20T08:44:37Z</time>
      </trkpt>
      <trkpt lat="48.37398" lon="2.71142">
        <ele>133.9</ele>
        <time>2023-07-20T08:44:38Z</time>
      </trkpt>
      <trkpt lat="48.37398" lon="2.71142">
        <ele>133.9</ele>
        <time>2023-07-20T08:44:39Z</time>
      </trkpt>
      <trkpt lat="48.37398" lon="2.71142">
        <ele>133.9</ele>
        <time>2023-07-20T08:44:40Z</time>
      </trkpt>
      <trkpt lat="48.37398" lon="2.71142">
        <ele>133.9</ele>
        <time>2023-07-20T08:44:41Z</time>
      </trkpt>
      <trkpt lat="48.37398" lon="2.71142">
        <ele>133.9</ele>
        <time>2023-07-20T08:44:42Z</time>
      </trkpt>
      <trkpt lat="48.37398" lon="2.71142">
        <ele>133.9</ele>
        <time>2023-07-20T08:44:43Z</time>
      </trkpt>
      <trkpt lat="48.37398" lon="2.71142">
        <ele>133.9</ele>
        <time>2023-07-20T08:44:44Z</time>
      </trkpt>
      <trkpt lat="48.37398" lon="2.71142">
        <ele>133.9</ele>
        <time>2023-07-20T08:44:45Z</time>
      </trkpt>
      <trkpt lat="48.37398" lon="2.71141">
        <ele>134</ele>
        <time>2023-07-20T08:44:46Z</time>
      </trkpt>
      <trkpt lat="48.37398" lon="2.71141">
        <ele>134</ele>
        <time>2023-07-20T08:44:47Z</time>
      </trkpt>
      <trkpt lat="48.37398" lon="2.7114">
        <ele>134</ele>
        <time>2023-07-20T08:44:48Z</time>
      </trkpt>
      <trkpt lat="48.37398" lon="2.7114">
        <ele>134</ele>
        <time>2023-07-20T08:44:49Z</time>
      </trkpt>
      <trkpt lat="48.37398" lon="2.71139">
        <ele>134.1</ele>
        <time>2023-07-20T08:44:50Z</time>
      </trkpt>
      <trkpt lat="48.37399" lon="2.71138">
        <ele>134.1</ele>
        <time>2023-07-20T08:44:51Z</time>
      </trkpt>
      <trkpt lat="48.37399" lon="2.71136">
        <ele>134.2</ele>
        <time>2023-07-20T08:44:52Z</time>
      </trkpt>
      <trkpt lat="48.37399" lon="2.71135">
        <ele>134.2</ele>
        <time>2023-07-20T08:44:53Z</time>
      </trkpt>
      <trkpt lat="48.37399" lon="2.71133">
        <ele>134.3</ele>
        <time>2023-07-20T08:44:54Z</time>
      </trkpt>
      <trkpt lat="48.374" lon="2.71132">
        <ele>134.3</ele>
        <time>2023-07-20T08:44:55Z</time>
      </trkpt>
      <trkpt lat="48.374" lon="2.7113">
        <ele>134.4</ele>
        <time>2023-07-20T08:44:56Z</time>
      </trkpt>
      <trkpt lat="48.37401" lon="2.71129">
        <ele>134.4</ele>
        <time>2023-07-20T08:44:57Z</time>
      </trkpt>
      <trkpt lat="48.37401" lon="2.71128">
        <ele>134.4</ele>
        <time>2023-07-20T08:44:58Z</time>
      </trkpt>
      <trkpt lat="48.374" lon="2.71127">
        <ele>134.5</ele>
        <time>2023-07-20T08:44:59Z</time>
      </trkpt>
      <trkpt lat="48.374" lon="2.71126">
        <ele>134.5</ele>
        <time>2023-07-20T08:45:00Z</time>
      </trkpt>
      <trkpt lat="48.37399" lon="2.71125">
        <ele>134.5</ele>
        <time>2023-07-20T08:45:01Z</time>
      </trkpt>
      <trkpt lat="48.37399" lon="2.71123">
        <ele>134.6</ele>
        <time>2023-07-20T08:45:02Z</time>
      </trkpt>
      <trkpt lat="48.37399" lon="2.71121">
        <ele>134.6</ele>
        <time>2023-07-20T08:45:03Z</time>
      </trkpt>
      <trkpt lat="48.37399" lon="2.7112">
        <ele>134.6</ele>
        <time>2023-07-20T08:45:04Z</time>
      </trkpt>
      <trkpt lat="48.374" lon="2.71117">
        <ele>134.7</ele>
        <time>2023-07-20T08:45:05Z</time>
      </trkpt>
      <trkpt lat="48.374" lon="2.71115">
        <ele>134.7</ele>
        <time>2023-07-20T08:45:06Z</time>
      </trkpt>
      <trkpt lat="48.37401" lon="2.71113">
        <ele>134.7</ele>
        <time>2023-07-20T08:45:07Z</time>
      </trkpt>
      <trkpt lat="48.37402" lon="2.71111">
        <ele>134.8</ele>
        <time>2023-07-20T08:45:08Z</time>
      </trkpt>
      <trkpt lat="48.37403" lon="2.71109">
        <ele>134.8</ele>
        <time>2023-07-20T08:45:09Z</time>
      </trkpt>
      <trkpt lat="48.37403" lon="2.71108">
        <ele>134.8</ele>
        <time>2023-07-20T08:45:10Z</time>
      </trkpt>
      <trkpt lat="48.37404" lon="2.71107">
        <ele>134.8</ele>
        <time>2023-07-20T08:45:11Z</time>
      </trkpt>
      <trkpt lat="48.37405" lon="2.71104">
        <ele>134.9</ele>
        <time>2023-07-20T08:45:12Z</time>
      </trkpt>
      <trkpt lat="48.37405" lon="2.71103">
        <ele>134.9</ele>
        <time>2023-07-20T08:45:13Z</time>
      </trkpt>
      <trkpt lat="48.37406" lon="2.71102">
        <ele>134.9</ele>
        <time>2023-07-20T08:45:14Z</time>
      </trkpt>
      <trkpt lat="48.37406" lon="2.71101">
        <ele>134.9</ele>
        <time>2023-07-20T08:45:15Z</time>
      </trkpt>
      <trkpt lat="48.37407" lon="2.71099">
        <ele>134.9</ele>
        <time>2023-07-20T08:45:16Z</time>
      </trkpt>
      <trkpt lat="48.37407" lon="2.71098">
        <ele>134.9</ele>
        <time>2023-07-20T08:45:17Z</time>
      </trkpt>
      <trkpt lat="48.37408" lon="2.71096">
        <ele>134.9</ele>
        <time>2023-07-20T08:45:18Z</time>
      </trkpt>
      <trkpt lat="48.37409" lon="2.71095">
        <ele>134.9</ele>
        <time>2023-07-20T08:45:19Z</time>
      </trkpt>
      <trkpt lat="48.37409" lon="2.71094">
        <ele>134.9</ele>
        <time>2023-07-20T08:45:20Z</time>
      </trkpt>
      <trkpt lat="48.37409" lon="2.71093">
        <ele>134.9</ele>
        <time>2023-07-20T08:45:21Z</time>
      </trkpt>
      <trkpt lat="48.37409" lon="2.71091">
        <ele>134.9</ele>
        <time>2023-07-20T08:45:22Z</time>
      </trkpt>
      <trkpt lat="48.3741" lon="2.7109">
        <ele>134.9</ele>
        <time>2023-07-20T08:45:23Z</time>
      </trkpt>
      <trkpt lat="48.3741" lon="2.71089">
        <ele>134.9</ele>
        <time>2023-07-20T08:45:24Z</time>
      </trkpt>
      <trkpt lat="48.3741" lon="2.71087">
        <ele>134.9</ele>
        <time>2023-07-20T08:45:25Z</time>
      </trkpt>
      <trkpt lat="48.3741" lon="2.71086">
        <ele>135</ele>
        <time>2023-07-20T08:45:26Z</time>
      </trkpt>
      <trkpt lat="48.3741" lon="2.71085">
        <ele>135</ele>
        <time>2023-07-20T08:45:27Z</time>
      </trkpt>
      <trkpt lat="48.3741" lon="2.71084">
        <ele>135</ele>
        <time>2023-07-20T08:45:28Z</time>
      </trkpt>
      <trkpt lat="48.3741" lon="2.71082">
        <ele>135</ele>
        <time>2023-07-20T08:45:29Z</time>
      </trkpt>
      <trkpt lat="48.37411" lon="2.71081">
        <ele>135</ele>
        <time>2023-07-20T08:45:30Z</time>
      </trkpt>
      <trkpt lat="48.37411" lon="2.7108">
        <ele>135</ele>
        <time>2023-07-20T08:45:31Z</time>
      </trkpt>
      <trkpt lat="48.37412" lon="2.71078">
        <ele>135</ele>
        <time>2023-07-20T08:45:32Z</time>
      </trkpt>
      <trkpt lat="48.37412" lon="2.71077">
        <ele>135</ele>
        <time>2023-07-20T08:45:33Z</time>
      </trkpt>
      <trkpt lat="48.37412" lon="2.71076">
        <ele>135</ele>
        <time>2023-07-20T08:45:34Z</time>
      </trkpt>
      <trkpt lat="48.37412" lon="2.71074">
        <ele>135</ele>
        <time>2023-07-20T08:45:35Z</time>
      </trkpt>
      <trkpt lat="48.37412" lon="2.71072">
        <ele>135</ele>
        <time>2023-07-20T08:45:36Z</time>
      </trkpt>
      <trkpt lat="48.37413" lon="2.71071">
        <ele>135</ele>
        <time>2023-07-20T08:45:37Z</time>
      </trkpt>
      <trkpt lat="48.37413" lon="2.71069">
        <ele>135</ele>
        <time>2023-07-20T08:45:38Z</time>
      </trkpt>
      <trkpt lat="48.37413" lon="2.71067">
        <ele>135</ele>
        <time>2023-07-20T08:45:39Z</time>
      </trkpt>
      <trkpt lat="48.37414" lon="2.71064">
        <ele>135</ele>
        <time>2023-07-20T08:45:40Z</time>
      </trkpt>
      <trkpt lat="48.37414" lon="2.71061">
        <ele>135</ele>
        <time>2023-07-20T08:45:41Z</time>
      </trkpt>
      <trkpt lat="48.37414" lon="2.71059">
        <ele>135</ele>
        <time>2023-07-20T08:45:42Z</time>
      </trkpt>
      <trkpt lat="48.37414" lon="2.71058">
        <ele>135</ele>
        <time>2023-07-20T08:45:43Z</time>
      </trkpt>
      <trkpt lat="48.37414" lon="2.71056">
        <ele>135</ele>
        <time>2023-07-20T08:45:44Z</time>
      </trkpt>
      <trkpt lat="48.37414" lon="2.71055">
        <ele>135</ele>
        <time>2023-07-20T08:45:45Z</time>
      </trkpt>
      <trkpt lat="48.37415" lon="2.71053">
        <ele>135</ele>
        <time>2023-07-20T08:45:46Z</time>
      </trkpt>
      <trkpt lat="48.37416" lon="2.71051">
        <ele>135.1</ele>
        <time>2023-07-20T08:45:47Z</time>
      </trkpt>
      <trkpt lat="48.37416" lon="2.7105">
        <ele>135.1</ele>
        <time>2023-07-20T08:45:48Z</time>
      </trkpt>
      <trkpt lat="48.37416" lon="2.71049">
        <ele>135.1</ele>
        <time>2023-07-20T08:45:49Z</time>
      </trkpt>
      <trkpt lat="48.37416" lon="2.71049">
        <ele>135.1</ele>
        <time>2023-07-20T08:45:50Z</time>
      </trkpt>
      <trkpt lat="48.37416" lon="2.71047">
        <ele>135.1</ele>
        <time>2023-07-20T08:45:51Z</time>
      </trkpt>
      <trkpt lat="48.37416" lon="2.71046">
        <ele>135.1</ele>
        <time>2023-07-20T08:45:52Z</time>
      </trkpt>
      <trkpt lat="48.37415" lon="2.71045">
        <ele>135.1</ele>
        <time>2023-07-20T08:45:53Z</time>
      </trkpt>
      <trkpt lat="48.37415" lon="2.71043">
        <ele>135.1</ele>
        <time>2023-07-20T08:45:54Z</time>
      </trkpt>
      <trkpt lat="48.37415" lon="2.71042">
        <ele>135.1</ele>
        <time>2023-07-20T08:45:55Z</time>
      </trkpt>
      <trkpt lat="48.37415" lon="2.71042">
        <ele>135.1</ele>
        <time>2023-07-20T08:45:56Z</time>
      </trkpt>
      <trkpt lat="48.37414" lon="2.71041">
        <ele>135.1</ele>
        <time>2023-07-20T08:45:57Z</time>
      </trkpt>
      <trkpt lat="48.37414" lon="2.71041">
        <ele>135.1</ele>
        <time>2023-07-20T08:45:58Z</time>
      </trkpt>
      <trkpt lat="48.37414" lon="2.7104">
        <ele>135.1</ele>
        <time>2023-07-20T08:45:59Z</time>
      </trkpt>
      <trkpt lat="48.37414" lon="2.7104">
        <ele>135.1</ele>
        <time>2023-07-20T08:46:00Z</time>
      </trkpt>
      <trkpt lat="48.37414" lon="2.7104">
        <ele>135.1</ele>
        <time>2023-07-20T08:46:01Z</time>
      </trkpt>
      <trkpt lat="48.37414" lon="2.71039">
        <ele>135.1</ele>
        <time>2023-07-20T08:46:02Z</time>
      </trkpt>
      <trkpt lat="48.37414" lon="2.71037">
        <ele>135.1</ele>
        <time>2023-07-20T08:46:03Z</time>
      </trkpt>
      <trkpt lat="48.37414" lon="2.71034">
        <ele>135.1</ele>
        <time>2023-07-20T08:46:04Z</time>
      </trkpt>
      <trkpt lat="48.37414" lon="2.71032">
        <ele>135.1</ele>
        <time>2023-07-20T08:46:05Z</time>
      </trkpt>
      <trkpt lat="48.37414" lon="2.71031">
        <ele>135.1</ele>
        <time>2023-07-20T08:46:06Z</time>
      </trkpt>
      <trkpt lat="48.37414" lon="2.71029">
        <ele>135.1</ele>
        <time>2023-07-20T08:46:07Z</time>
      </trkpt>
      <trkpt lat="48.37415" lon="2.71028">
        <ele>135.1</ele>
        <time>2023-07-20T08:46:08Z</time>
      </trkpt>
      <trkpt lat="48.37415" lon="2.71027">
        <ele>135.1</ele>
        <time>2023-07-20T08:46:09Z</time>
      </trkpt>
      <trkpt lat="48.37416" lon="2.71025">
        <ele>135.1</ele>
        <time>2023-07-20T08:46:10Z</time>
      </trkpt>
      <trkpt lat="48.37416" lon="2.71024">
        <ele>135.1</ele>
        <time>2023-07-20T08:46:11Z</time>
      </trkpt>
      <trkpt lat="48.37416" lon="2.71022">
        <ele>135.1</ele>
        <time>2023-07-20T08:46:12Z</time>
      </trkpt>
      <trkpt lat="48.37415" lon="2.71022">
        <ele>135.1</ele>
        <time>2023-07-20T08:46:13Z</time>
      </trkpt>
      <trkpt lat="48.37416" lon="2.7102">
        <ele>135.1</ele>
        <time>2023-07-20T08:46:14Z</time>
      </trkpt>
      <trkpt lat="48.37416" lon="2.71019">
        <ele>135.1</ele>
        <time>2023-07-20T08:46:15Z</time>
      </trkpt>
      <trkpt lat="48.37416" lon="2.71016">
        <ele>135.1</ele>
        <time>2023-07-20T08:46:16Z</time>
      </trkpt>
      <trkpt lat="48.37416" lon="2.71015">
        <ele>135.1</ele>
        <time>2023-07-20T08:46:17Z</time>
      </trkpt>
      <trkpt lat="48.37416" lon="2.71013">
        <ele>135.1</ele>
        <time>2023-07-20T08:46:18Z</time>
      </trkpt>
      <trkpt lat="48.37416" lon="2.71011">
        <ele>135.1</ele>
        <time>2023-07-20T08:46:19Z</time>
      </trkpt>
      <trkpt lat="48.37416" lon="2.7101">
        <ele>135.1</ele>
        <time>2023-07-20T08:46:20Z</time>
      </trkpt>
      <trkpt lat="48.37416" lon="2.71009">
        <ele>135.1</ele>
        <time>2023-07-20T08:46:21Z</time>
      </trkpt>
      <trkpt lat="48.37416" lon="2.71007">
        <ele>135.1</ele>
        <time>2023-07-20T08:46:22Z</time>
      </trkpt>
      <trkpt lat="48.37416" lon="2.71006">
        <ele>135.1</ele>
        <time>2023-07-20T08:46:23Z</time>
      </trkpt>
      <trkpt lat="48.37416" lon="2.71005">
        <ele>135.1</ele>
        <time>2023-07-20T08:46:24Z</time>
      </trkpt>
      <trkpt lat="48.37416" lon="2.71003">
        <ele>135.1</ele>
        <time>2023-07-20T08:46:25Z</time>
      </trkpt>
      <trkpt lat="48.37417" lon="2.71002">
        <ele>135.1</ele>
        <time>2023-07-20T08:46:26Z</time>
      </trkpt>
      <trkpt lat="48.37418" lon="2.71">
        <ele>135.1</ele>
        <time>2023-07-20T08:46:27Z</time>
      </trkpt>
      <trkpt lat="48.37417" lon="2.70999">
        <ele>135.1</ele>
        <time>2023-07-20T08:46:28Z</time>
      </trkpt>
      <trkpt lat="48.37418" lon="2.70999">
        <ele>135.1</ele>
        <time>2023-07-20T08:46:29Z</time>
      </trkpt>
      <trkpt lat="48.37418" lon="2.70998">
        <ele>135.1</ele>
        <time>2023-07-20T08:46:30Z</time>
      </trkpt>
      <trkpt lat="48.37418" lon="2.70997">
        <ele>135.1</ele>
        <time>2023-07-20T08:46:32Z</time>
      </trkpt>
      <trkpt lat="48.37418" lon="2.70995">
        <ele>135.1</ele>
        <time>2023-07-20T08:46:33Z</time>
      </trkpt>
      <trkpt lat="48.37419" lon="2.70994">
        <ele>135.1</ele>
        <time>2023-07-20T08:46:34Z</time>
      </trkpt>
      <trkpt lat="48.37419" lon="2.70992">
        <ele>135.1</ele>
        <time>2023-07-20T08:46:35Z</time>
      </trkpt>
      <trkpt lat="48.37419" lon="2.70991">
        <ele>135.1</ele>
        <time>2023-07-20T08:46:36Z</time>
      </trkpt>
      <trkpt lat="48.37419" lon="2.70989">
        <ele>135.1</ele>
        <time>2023-07-20T08:46:37Z</time>
      </trkpt>
      <trkpt lat="48.37419" lon="2.70988">
        <ele>135.1</ele>
        <time>2023-07-20T08:46:38Z</time>
      </trkpt>
      <trkpt lat="48.37419" lon="2.70986">
        <ele>135.2</ele>
        <time>2023-07-20T08:46:39Z</time>
      </trkpt>
      <trkpt lat="48.3742" lon="2.70986">
        <ele>135.2</ele>
        <time>2023-07-20T08:46:40Z</time>
      </trkpt>
      <trkpt lat="48.3742" lon="2.70984">
        <ele>135.2</ele>
        <time>2023-07-20T08:46:41Z</time>
      </trkpt>
      <trkpt lat="48.37421" lon="2.70982">
        <ele>135.2</ele>
        <time>2023-07-20T08:46:42Z</time>
      </trkpt>
      <trkpt lat="48.37421" lon="2.70981">
        <ele>135.2</ele>
        <time>2023-07-20T08:46:43Z</time>
      </trkpt>
      <trkpt lat="48.37422" lon="2.70979">
        <ele>135.2</ele>
        <time>2023-07-20T08:46:44Z</time>
      </trkpt>
      <trkpt lat="48.37421" lon="2.70978">
        <ele>135.2</ele>
        <time>2023-07-20T08:46:45Z</time>
      </trkpt>
      <trkpt lat="48.37421" lon="2.70974">
        <ele>135.2</ele>
        <time>2023-07-20T08:46:46Z</time>
      </trkpt>
      <trkpt lat="48.37421" lon="2.70973">
        <ele>135.2</ele>
        <time>2023-07-20T08:46:47Z</time>
      </trkpt>
      <trkpt lat="48.37421" lon="2.70971">
        <ele>135.2</ele>
        <time>2023-07-20T08:46:48Z</time>
      </trkpt>
      <trkpt lat="48.37421" lon="2.7097">
        <ele>135.2</ele>
        <time>2023-07-20T08:46:49Z</time>
      </trkpt>
      <trkpt lat="48.37421" lon="2.70968">
        <ele>135.2</ele>
        <time>2023-07-20T08:46:50Z</time>
      </trkpt>
      <trkpt lat="48.37421" lon="2.70966">
        <ele>135.2</ele>
        <time>2023-07-20T08:46:51Z</time>
      </trkpt>
      <trkpt lat="48.37421" lon="2.70965">
        <ele>135.2</ele>
        <time>2023-07-20T08:46:52Z</time>
      </trkpt>
      <trkpt lat="48.37421" lon="2.70964">
        <ele>135.2</ele>
        <time>2023-07-20T08:46:53Z</time>
      </trkpt>
      <trkpt lat="48.37421" lon="2.70963">
        <ele>135.2</ele>
        <time>2023-07-20T08:46:54Z</time>
      </trkpt>
      <trkpt lat="48.37421" lon="2.70962">
        <ele>135.2</ele>
        <time>2023-07-20T08:46:55Z</time>
      </trkpt>
      <trkpt lat="48.37422" lon="2.70961">
        <ele>135.2</ele>
        <time>2023-07-20T08:46:56Z</time>
      </trkpt>
      <trkpt lat="48.37422" lon="2.70961">
        <ele>135.2</ele>
        <time>2023-07-20T08:46:57Z</time>
      </trkpt>
      <trkpt lat="48.37421" lon="2.7096">
        <ele>135.2</ele>
        <time>2023-07-20T08:46:58Z</time>
      </trkpt>
      <trkpt lat="48.37422" lon="2.70958">
        <ele>135.2</ele>
        <time>2023-07-20T08:46:59Z</time>
      </trkpt>
      <trkpt lat="48.37422" lon="2.70956">
        <ele>135.2</ele>
        <time>2023-07-20T08:47:00Z</time>
      </trkpt>
      <trkpt lat="48.37422" lon="2.70955">
        <ele>135.2</ele>
        <time>2023-07-20T08:47:01Z</time>
      </trkpt>
      <trkpt lat="48.37422" lon="2.70954">
        <ele>135.2</ele>
        <time>2023-07-20T08:47:02Z</time>
      </trkpt>
      <trkpt lat="48.37422" lon="2.70953">
        <ele>135.2</ele>
        <time>2023-07-20T08:47:03Z</time>
      </trkpt>
      <trkpt lat="48.37422" lon="2.70952">
        <ele>135.2</ele>
        <time>2023-07-20T08:47:04Z</time>
      </trkpt>
      <trkpt lat="48.37422" lon="2.7095">
        <ele>135.2</ele>
        <time>2023-07-20T08:47:05Z</time>
      </trkpt>
      <trkpt lat="48.37422" lon="2.70949">
        <ele>135.2</ele>
        <time>2023-07-20T08:47:06Z</time>
      </trkpt>
      <trkpt lat="48.37422" lon="2.70948">
        <ele>135.2</ele>
        <time>2023-07-20T08:47:07Z</time>
      </trkpt>
      <trkpt lat="48.37423" lon="2.70947">
        <ele>135.2</ele>
        <time>2023-07-20T08:47:08Z</time>
      </trkpt>
      <trkpt lat="48.37423" lon="2.70947">
        <ele>135.2</ele>
        <time>2023-07-20T08:47:09Z</time>
      </trkpt>
      <trkpt lat="48.37423" lon="2.70946">
        <ele>135.1</ele>
        <time>2023-07-20T08:47:10Z</time>
      </trkpt>
      <trkpt lat="48.37423" lon="2.70944">
        <ele>135.1</ele>
        <time>2023-07-20T08:47:11Z</time>
      </trkpt>
      <trkpt lat="48.37424" lon="2.70941">
        <ele>135.1</ele>
        <time>2023-07-20T08:47:12Z</time>
      </trkpt>
      <trkpt lat="48.37424" lon="2.7094">
        <ele>135.1</ele>
        <time>2023-07-20T08:47:13Z</time>
      </trkpt>
      <trkpt lat="48.37424" lon="2.70939">
        <ele>135.1</ele>
        <time>2023-07-20T08:47:14Z</time>
      </trkpt>
      <trkpt lat="48.37425" lon="2.70937">
        <ele>135.1</ele>
        <time>2023-07-20T08:47:15Z</time>
      </trkpt>
      <trkpt lat="48.37424" lon="2.70935">
        <ele>135.1</ele>
        <time>2023-07-20T08:47:16Z</time>
      </trkpt>
      <trkpt lat="48.37424" lon="2.70934">
        <ele>135.1</ele>
        <time>2023-07-20T08:47:17Z</time>
      </trkpt>
      <trkpt lat="48.37424" lon="2.70933">
        <ele>135.1</ele>
        <time>2023-07-20T08:47:18Z</time>
      </trkpt>
      <trkpt lat="48.37424" lon="2.70931">
        <ele>135.1</ele>
        <time>2023-07-20T08:47:19Z</time>
      </trkpt>
      <trkpt lat="48.37423" lon="2.70929">
        <ele>135.1</ele>
        <time>2023-07-20T08:47:20Z</time>
      </trkpt>
      <trkpt lat="48.37424" lon="2.70928">
        <ele>135.1</ele>
        <time>2023-07-20T08:47:21Z</time>
      </trkpt>
      <trkpt lat="48.37424" lon="2.70927">
        <ele>135.1</ele>
        <time>2023-07-20T08:47:22Z</time>
      </trkpt>
      <trkpt lat="48.37424" lon="2.70926">
        <ele>135.1</ele>
        <time>2023-07-20T08:47:23Z</time>
      </trkpt>
      <trkpt lat="48.37424" lon="2.70925">
        <ele>135.1</ele>
        <time>2023-07-20T08:47:24Z</time>
      </trkpt>
      <trkpt lat="48.37424" lon="2.70923">
        <ele>135.1</ele>
        <time>2023-07-20T08:47:25Z</time>
      </trkpt>
      <trkpt lat="48.37424" lon="2.70922">
        <ele>135.1</ele>
        <time>2023-07-20T08:47:26Z</time>
      </trkpt>
      <trkpt lat="48.37425" lon="2.70921">
        <ele>135.1</ele>
        <time>2023-07-20T08:47:27Z</time>
      </trkpt>
      <trkpt lat="48.37425" lon="2.70918">
        <ele>135.1</ele>
        <time>2023-07-20T08:47:28Z</time>
      </trkpt>
      <trkpt lat="48.37425" lon="2.70917">
        <ele>135.1</ele>
        <time>2023-07-20T08:47:29Z</time>
      </trkpt>
      <trkpt lat="48.37426" lon="2.70915">
        <ele>135.1</ele>
        <time>2023-07-20T08:47:30Z</time>
      </trkpt>
      <trkpt lat="48.37425" lon="2.70912">
        <ele>135.1</ele>
        <time>2023-07-20T08:47:31Z</time>
      </trkpt>
      <trkpt lat="48.37426" lon="2.7091">
        <ele>135.1</ele>
        <time>2023-07-20T08:47:32Z</time>
      </trkpt>
      <trkpt lat="48.37426" lon="2.70909">
        <ele>135.1</ele>
        <time>2023-07-20T08:47:33Z</time>
      </trkpt>
      <trkpt lat="48.37427" lon="2.70907">
        <ele>135.1</ele>
        <time>2023-07-20T08:47:34Z</time>
      </trkpt>
      <trkpt lat="48.37427" lon="2.70906">
        <ele>135.1</ele>
        <time>2023-07-20T08:47:35Z</time>
      </trkpt>
      <trkpt lat="48.37427" lon="2.70904">
        <ele>135.1</ele>
        <time>2023-07-20T08:47:36Z</time>
      </trkpt>
      <trkpt lat="48.37427" lon="2.70904">
        <ele>135.1</ele>
        <time>2023-07-20T08:47:37Z</time>
      </trkpt>
      <trkpt lat="48.37427" lon="2.70903">
        <ele>135.1</ele>
        <time>2023-07-20T08:47:38Z</time>
      </trkpt>
      <trkpt lat="48.37427" lon="2.70903">
        <ele>135.1</ele>
        <time>2023-07-20T08:47:39Z</time>
      </trkpt>
      <trkpt lat="48.37427" lon="2.70901">
        <ele>135.1</ele>
        <time>2023-07-20T08:47:40Z</time>
      </trkpt>
      <trkpt lat="48.37427" lon="2.70899">
        <ele>135.1</ele>
        <time>2023-07-20T08:47:41Z</time>
      </trkpt>
      <trkpt lat="48.37427" lon="2.70897">
        <ele>135.1</ele>
        <time>2023-07-20T08:47:42Z</time>
      </trkpt>
      <trkpt lat="48.37428" lon="2.70896">
        <ele>135.1</ele>
        <time>2023-07-20T08:47:43Z</time>
      </trkpt>
      <trkpt lat="48.37428" lon="2.70894">
        <ele>135.1</ele>
        <time>2023-07-20T08:47:44Z</time>
      </trkpt>
      <trkpt lat="48.37428" lon="2.70893">
        <ele>135.1</ele>
        <time>2023-07-20T08:47:45Z</time>
      </trkpt>
      <trkpt lat="48.37428" lon="2.70891">
        <ele>135.1</ele>
        <time>2023-07-20T08:47:46Z</time>
      </trkpt>
      <trkpt lat="48.37428" lon="2.70889">
        <ele>135.1</ele>
        <time>2023-07-20T08:47:47Z</time>
      </trkpt>
      <trkpt lat="48.37429" lon="2.70888">
        <ele>135.1</ele>
        <time>2023-07-20T08:47:48Z</time>
      </trkpt>
      <trkpt lat="48.37429" lon="2.70887">
        <ele>135.1</ele>
        <time>2023-07-20T08:47:49Z</time>
      </trkpt>
      <trkpt lat="48.3743" lon="2.70886">
        <ele>135.1</ele>
        <time>2023-07-20T08:47:50Z</time>
      </trkpt>
      <trkpt lat="48.3743" lon="2.70885">
        <ele>135.1</ele>
        <time>2023-07-20T08:47:51Z</time>
      </trkpt>
      <trkpt lat="48.37431" lon="2.70883">
        <ele>135.1</ele>
        <time>2023-07-20T08:47:52Z</time>
      </trkpt>
      <trkpt lat="48.37432" lon="2.7088">
        <ele>135</ele>
        <time>2023-07-20T08:47:53Z</time>
      </trkpt>
      <trkpt lat="48.37432" lon="2.70879">
        <ele>135</ele>
        <time>2023-07-20T08:47:54Z</time>
      </trkpt>
      <trkpt lat="48.37432" lon="2.70878">
        <ele>135</ele>
        <time>2023-07-20T08:47:55Z</time>
      </trkpt>
      <trkpt lat="48.37432" lon="2.70876">
        <ele>135</ele>
        <time>2023-07-20T08:47:56Z</time>
      </trkpt>
      <trkpt lat="48.37432" lon="2.70875">
        <ele>135</ele>
        <time>2023-07-20T08:47:57Z</time>
      </trkpt>
      <trkpt lat="48.37432" lon="2.70873">
        <ele>135</ele>
        <time>2023-07-20T08:47:58Z</time>
      </trkpt>
      <trkpt lat="48.37432" lon="2.7087">
        <ele>135</ele>
        <time>2023-07-20T08:47:59Z</time>
      </trkpt>
      <trkpt lat="48.37432" lon="2.70869">
        <ele>135</ele>
        <time>2023-07-20T08:48:00Z</time>
      </trkpt>
      <trkpt lat="48.37432" lon="2.70868">
        <ele>135</ele>
        <time>2023-07-20T08:48:01Z</time>
      </trkpt>
      <trkpt lat="48.37432" lon="2.70866">
        <ele>135</ele>
        <time>2023-07-20T08:48:02Z</time>
      </trkpt>
      <trkpt lat="48.37432" lon="2.70865">
        <ele>135</ele>
        <time>2023-07-20T08:48:03Z</time>
      </trkpt>
      <trkpt lat="48.37432" lon="2.70864">
        <ele>135</ele>
        <time>2023-07-20T08:48:04Z</time>
      </trkpt>
      <trkpt lat="48.37433" lon="2.70863">
        <ele>135</ele>
        <time>2023-07-20T08:48:05Z</time>
      </trkpt>
      <trkpt lat="48.37433" lon="2.70862">
        <ele>134.9</ele>
        <time>2023-07-20T08:48:06Z</time>
      </trkpt>
      <trkpt lat="48.37433" lon="2.7086">
        <ele>134.9</ele>
        <time>2023-07-20T08:48:07Z</time>
      </trkpt>
      <trkpt lat="48.37433" lon="2.70859">
        <ele>134.9</ele>
        <time>2023-07-20T08:48:08Z</time>
      </trkpt>
      <trkpt lat="48.37434" lon="2.70858">
        <ele>134.9</ele>
        <time>2023-07-20T08:48:09Z</time>
      </trkpt>
      <trkpt lat="48.37434" lon="2.70858">
        <ele>134.9</ele>
        <time>2023-07-20T08:48:10Z</time>
      </trkpt>
      <trkpt lat="48.37434" lon="2.70856">
        <ele>134.9</ele>
        <time>2023-07-20T08:48:11Z</time>
      </trkpt>
      <trkpt lat="48.37434" lon="2.70855">
        <ele>134.9</ele>
        <time>2023-07-20T08:48:12Z</time>
      </trkpt>
      <trkpt lat="48.37434" lon="2.70854">
        <ele>134.9</ele>
        <time>2023-07-20T08:48:13Z</time>
      </trkpt>
      <trkpt lat="48.37434" lon="2.70851">
        <ele>134.9</ele>
        <time>2023-07-20T08:48:14Z</time>
      </trkpt>
      <trkpt lat="48.37434" lon="2.70849">
        <ele>134.9</ele>
        <time>2023-07-20T08:48:15Z</time>
      </trkpt>
      <trkpt lat="48.37435" lon="2.70848">
        <ele>134.9</ele>
        <time>2023-07-20T08:48:16Z</time>
      </trkpt>
      <trkpt lat="48.37435" lon="2.70846">
        <ele>134.9</ele>
        <time>2023-07-20T08:48:17Z</time>
      </trkpt>
      <trkpt lat="48.37435" lon="2.70844">
        <ele>134.8</ele>
        <time>2023-07-20T08:48:18Z</time>
      </trkpt>
      <trkpt lat="48.37435" lon="2.70842">
        <ele>134.8</ele>
        <time>2023-07-20T08:48:19Z</time>
      </trkpt>
      <trkpt lat="48.37436" lon="2.7084">
        <ele>134.8</ele>
        <time>2023-07-20T08:48:20Z</time>
      </trkpt>
      <trkpt lat="48.37436" lon="2.7084">
        <ele>134.8</ele>
        <time>2023-07-20T08:48:21Z</time>
      </trkpt>
      <trkpt lat="48.37436" lon="2.70839">
        <ele>134.8</ele>
        <time>2023-07-20T08:48:22Z</time>
      </trkpt>
      <trkpt lat="48.37436" lon="2.70836">
        <ele>134.8</ele>
        <time>2023-07-20T08:48:23Z</time>
      </trkpt>
      <trkpt lat="48.37437" lon="2.70835">
        <ele>134.8</ele>
        <time>2023-07-20T08:48:24Z</time>
      </trkpt>
      <trkpt lat="48.37437" lon="2.70834">
        <ele>134.8</ele>
        <time>2023-07-20T08:48:25Z</time>
      </trkpt>
      <trkpt lat="48.37437" lon="2.70832">
        <ele>134.7</ele>
        <time>2023-07-20T08:48:26Z</time>
      </trkpt>
      <trkpt lat="48.37438" lon="2.7083">
        <ele>134.7</ele>
        <time>2023-07-20T08:48:27Z</time>
      </trkpt>
      <trkpt lat="48.37438" lon="2.70828">
        <ele>134.7</ele>
        <time>2023-07-20T08:48:28Z</time>
      </trkpt>
      <trkpt lat="48.37438" lon="2.70828">
        <ele>134.7</ele>
        <time>2023-07-20T08:48:29Z</time>
      </trkpt>
      <trkpt lat="48.37439" lon="2.70827">
        <ele>134.7</ele>
        <time>2023-07-20T08:48:30Z</time>
      </trkpt>
      <trkpt lat="48.37439" lon="2.70825">
        <ele>134.7</ele>
        <time>2023-07-20T08:48:31Z</time>
      </trkpt>
      <trkpt lat="48.3744" lon="2.70824">
        <ele>134.6</ele>
        <time>2023-07-20T08:48:32Z</time>
      </trkpt>
      <trkpt lat="48.3744" lon="2.70823">
        <ele>134.6</ele>
        <time>2023-07-20T08:48:33Z</time>
      </trkpt>
      <trkpt lat="48.3744" lon="2.70822">
        <ele>134.6</ele>
        <time>2023-07-20T08:48:34Z</time>
      </trkpt>
      <trkpt lat="48.3744" lon="2.7082">
        <ele>134.6</ele>
        <time>2023-07-20T08:48:35Z</time>
      </trkpt>
      <trkpt lat="48.3744" lon="2.70817">
        <ele>134.6</ele>
        <time>2023-07-20T08:48:36Z</time>
      </trkpt>
      <trkpt lat="48.37441" lon="2.70816">
        <ele>134.5</ele>
        <time>2023-07-20T08:48:37Z</time>
      </trkpt>
      <trkpt lat="48.37441" lon="2.70814">
        <ele>134.5</ele>
        <time>2023-07-20T08:48:38Z</time>
      </trkpt>
      <trkpt lat="48.37442" lon="2.70813">
        <ele>134.5</ele>
        <time>2023-07-20T08:48:39Z</time>
      </trkpt>
      <trkpt lat="48.37442" lon="2.7081">
        <ele>134.5</ele>
        <time>2023-07-20T08:48:40Z</time>
      </trkpt>
      <trkpt lat="48.37442" lon="2.70808">
        <ele>134.4</ele>
        <time>2023-07-20T08:48:41Z</time>
      </trkpt>
      <trkpt lat="48.37443" lon="2.70806">
        <ele>134.4</ele>
        <time>2023-07-20T08:48:42Z</time>
      </trkpt>
      <trkpt lat="48.37444" lon="2.70806">
        <ele>134.4</ele>
        <time>2023-07-20T08:48:43Z</time>
      </trkpt>
      <trkpt lat="48.37444" lon="2.70803">
        <ele>134.4</ele>
        <time>2023-07-20T08:48:44Z</time>
      </trkpt>
      <trkpt lat="48.37444" lon="2.70802">
        <ele>134.3</ele>
        <time>2023-07-20T08:48:45Z</time>
      </trkpt>
      <trkpt lat="48.37444" lon="2.708">
        <ele>134.3</ele>
        <time>2023-07-20T08:48:46Z</time>
      </trkpt>
      <trkpt lat="48.37445" lon="2.70798">
        <ele>134.3</ele>
        <time>2023-07-20T08:48:47Z</time>
      </trkpt>
      <trkpt lat="48.37445" lon="2.70796">
        <ele>134.3</ele>
        <time>2023-07-20T08:48:48Z</time>
      </trkpt>
      <trkpt lat="48.37446" lon="2.70795">
        <ele>134.2</ele>
        <time>2023-07-20T08:48:49Z</time>
      </trkpt>
      <trkpt lat="48.37446" lon="2.70793">
        <ele>134.2</ele>
        <time>2023-07-20T08:48:50Z</time>
      </trkpt>
      <trkpt lat="48.37446" lon="2.70793">
        <ele>134.2</ele>
        <time>2023-07-20T08:48:51Z</time>
      </trkpt>
      <trkpt lat="48.37446" lon="2.70792">
        <ele>134.2</ele>
        <time>2023-07-20T08:48:52Z</time>
      </trkpt>
      <trkpt lat="48.37446" lon="2.7079">
        <ele>134.2</ele>
        <time>2023-07-20T08:48:53Z</time>
      </trkpt>
      <trkpt lat="48.37446" lon="2.70788">
        <ele>134.2</ele>
        <time>2023-07-20T08:48:54Z</time>
      </trkpt>
      <trkpt lat="48.37446" lon="2.70785">
        <ele>134.1</ele>
        <time>2023-07-20T08:48:55Z</time>
      </trkpt>
      <trkpt lat="48.37446" lon="2.70784">
        <ele>134.1</ele>
        <time>2023-07-20T08:48:56Z</time>
      </trkpt>
      <trkpt lat="48.37446" lon="2.70783">
        <ele>134.1</ele>
        <time>2023-07-20T08:48:57Z</time>
      </trkpt>
      <trkpt lat="48.37446" lon="2.70782">
        <ele>134.1</ele>
        <time>2023-07-20T08:48:58Z</time>
      </trkpt>
      <trkpt lat="48.37446" lon="2.7078">
        <ele>134.1</ele>
        <time>2023-07-20T08:48:59Z</time>
      </trkpt>
      <trkpt lat="48.37446" lon="2.7078">
        <ele>134.1</ele>
        <time>2023-07-20T08:49:00Z</time>
      </trkpt>
      <trkpt lat="48.37447" lon="2.70779">
        <ele>134</ele>
        <time>2023-07-20T08:49:01Z</time>
      </trkpt>
      <trkpt lat="48.37447" lon="2.70776">
        <ele>134</ele>
        <time>2023-07-20T08:49:02Z</time>
      </trkpt>
      <trkpt lat="48.37448" lon="2.70775">
        <ele>134</ele>
        <time>2023-07-20T08:49:03Z</time>
      </trkpt>
      <trkpt lat="48.37448" lon="2.70774">
        <ele>134</ele>
        <time>2023-07-20T08:49:04Z</time>
      </trkpt>
      <trkpt lat="48.37448" lon="2.70773">
        <ele>134</ele>
        <time>2023-07-20T08:49:05Z</time>
      </trkpt>
      <trkpt lat="48.37447" lon="2.70772">
        <ele>134</ele>
        <time>2023-07-20T08:49:06Z</time>
      </trkpt>
      <trkpt lat="48.37447" lon="2.70771">
        <ele>133.9</ele>
        <time>2023-07-20T08:49:07Z</time>
      </trkpt>
      <trkpt lat="48.37447" lon="2.7077">
        <ele>133.9</ele>
        <time>2023-07-20T08:49:08Z</time>
      </trkpt>
      <trkpt lat="48.37447" lon="2.70766">
        <ele>133.9</ele>
        <time>2023-07-20T08:49:09Z</time>
      </trkpt>
      <trkpt lat="48.37447" lon="2.70764">
        <ele>133.9</ele>
        <time>2023-07-20T08:49:10Z</time>
      </trkpt>
      <trkpt lat="48.37447" lon="2.70763">
        <ele>133.8</ele>
        <time>2023-07-20T08:49:11Z</time>
      </trkpt>
      <trkpt lat="48.37446" lon="2.7076">
        <ele>133.8</ele>
        <time>2023-07-20T08:49:12Z</time>
      </trkpt>
      <trkpt lat="48.37446" lon="2.70757">
        <ele>133.8</ele>
        <time>2023-07-20T08:49:13Z</time>
      </trkpt>
      <trkpt lat="48.37447" lon="2.70755">
        <ele>133.8</ele>
        <time>2023-07-20T08:49:14Z</time>
      </trkpt>
      <trkpt lat="48.37447" lon="2.70753">
        <ele>133.8</ele>
        <time>2023-07-20T08:49:15Z</time>
      </trkpt>
      <trkpt lat="48.37447" lon="2.70752">
        <ele>133.7</ele>
        <time>2023-07-20T08:49:16Z</time>
      </trkpt>
      <trkpt lat="48.37447" lon="2.70751">
        <ele>133.7</ele>
        <time>2023-07-20T08:49:17Z</time>
      </trkpt>
      <trkpt lat="48.37447" lon="2.70751">
        <ele>133.7</ele>
        <time>2023-07-20T08:49:18Z</time>
      </trkpt>
      <trkpt lat="48.37447" lon="2.70748">
        <ele>133.7</ele>
        <time>2023-07-20T08:49:19Z</time>
      </trkpt>
      <trkpt lat="48.37448" lon="2.70746">
        <ele>133.7</ele>
        <time>2023-07-20T08:49:20Z</time>
      </trkpt>
      <trkpt lat="48.37448" lon="2.70745">
        <ele>133.7</ele>
        <time>2023-07-20T08:49:21Z</time>
      </trkpt>
      <trkpt lat="48.37448" lon="2.70744">
        <ele>133.7</ele>
        <time>2023-07-20T08:49:22Z</time>
      </trkpt>
      <trkpt lat="48.37448" lon="2.70742">
        <ele>133.7</ele>
        <time>2023-07-20T08:49:23Z</time>
      </trkpt>
      <trkpt lat="48.37449" lon="2.70741">
        <ele>133.7</ele>
        <time>2023-07-20T08:49:24Z</time>
      </trkpt>
      <trkpt lat="48.37449" lon="2.70739">
        <ele>133.6</ele>
        <time>2023-07-20T08:49:25Z</time>
      </trkpt>
      <trkpt lat="48.37449" lon="2.70738">
        <ele>133.6</ele>
        <time>2023-07-20T08:49:26Z</time>
      </trkpt>
      <trkpt lat="48.3745" lon="2.70736">
        <ele>133.6</ele>
        <time>2023-07-20T08:49:27Z</time>
      </trkpt>
      <trkpt lat="48.37449" lon="2.70735">
        <ele>133.6</ele>
        <time>2023-07-20T08:49:28Z</time>
      </trkpt>
      <trkpt lat="48.3745" lon="2.70734">
        <ele>133.6</ele>
        <time>2023-07-20T08:49:29Z</time>
      </trkpt>
      <trkpt lat="48.3745" lon="2.70732">
        <ele>133.6</ele>
        <time>2023-07-20T08:49:30Z</time>
      </trkpt>
      <trkpt lat="48.37451" lon="2.70731">
        <ele>133.6</ele>
        <time>2023-07-20T08:49:31Z</time>
      </trkpt>
      <trkpt lat="48.37451" lon="2.7073">
        <ele>133.6</ele>
        <time>2023-07-20T08:49:32Z</time>
      </trkpt>
      <trkpt lat="48.37452" lon="2.70729">
        <ele>133.6</ele>
        <time>2023-07-20T08:49:33Z</time>
      </trkpt>
      <trkpt lat="48.37452" lon="2.70727">
        <ele>133.6</ele>
        <time>2023-07-20T08:49:34Z</time>
      </trkpt>
      <trkpt lat="48.37453" lon="2.70725">
        <ele>133.5</ele>
        <time>2023-07-20T08:49:35Z</time>
      </trkpt>
      <trkpt lat="48.37454" lon="2.70724">
        <ele>133.5</ele>
        <time>2023-07-20T08:49:36Z</time>
      </trkpt>
      <trkpt lat="48.37454" lon="2.70722">
        <ele>133.5</ele>
        <time>2023-07-20T08:49:37Z</time>
      </trkpt>
      <trkpt lat="48.37455" lon="2.70721">
        <ele>133.5</ele>
        <time>2023-07-20T08:49:38Z</time>
      </trkpt>
      <trkpt lat="48.37455" lon="2.7072">
        <ele>133.5</ele>
        <time>2023-07-20T08:49:39Z</time>
      </trkpt>
      <trkpt lat="48.37455" lon="2.7072">
        <ele>133.5</ele>
        <time>2023-07-20T08:49:40Z</time>
      </trkpt>
      <trkpt lat="48.37456" lon="2.70718">
        <ele>133.5</ele>
        <time>2023-07-20T08:49:41Z</time>
      </trkpt>
      <trkpt lat="48.37457" lon="2.70716">
        <ele>133.5</ele>
        <time>2023-07-20T08:49:42Z</time>
      </trkpt>
      <trkpt lat="48.37457" lon="2.70715">
        <ele>133.5</ele>
        <time>2023-07-20T08:49:43Z</time>
      </trkpt>
      <trkpt lat="48.37458" lon="2.70714">
        <ele>133.5</ele>
        <time>2023-07-20T08:49:44Z</time>
      </trkpt>
      <trkpt lat="48.37459" lon="2.7071">
        <ele>133.5</ele>
        <time>2023-07-20T08:49:45Z</time>
      </trkpt>
      <trkpt lat="48.3746" lon="2.70709">
        <ele>133.5</ele>
        <time>2023-07-20T08:49:46Z</time>
      </trkpt>
      <trkpt lat="48.37462" lon="2.70706">
        <ele>133.5</ele>
        <time>2023-07-20T08:49:47Z</time>
      </trkpt>
      <trkpt lat="48.37462" lon="2.70705">
        <ele>133.4</ele>
        <time>2023-07-20T08:49:48Z</time>
      </trkpt>
      <trkpt lat="48.37463" lon="2.70703">
        <ele>133.4</ele>
        <time>2023-07-20T08:49:49Z</time>
      </trkpt>
      <trkpt lat="48.37463" lon="2.70701">
        <ele>133.4</ele>
        <time>2023-07-20T08:49:50Z</time>
      </trkpt>
      <trkpt lat="48.37463" lon="2.707">
        <ele>133.4</ele>
        <time>2023-07-20T08:49:51Z</time>
      </trkpt>
      <trkpt lat="48.37463" lon="2.70698">
        <ele>133.4</ele>
        <time>2023-07-20T08:49:52Z</time>
      </trkpt>
      <trkpt lat="48.37463" lon="2.70697">
        <ele>133.4</ele>
        <time>2023-07-20T08:49:53Z</time>
      </trkpt>
      <trkpt lat="48.37464" lon="2.70698">
        <ele>133.4</ele>
        <time>2023-07-20T08:49:54Z</time>
      </trkpt>
      <trkpt lat="48.37464" lon="2.70696">
        <ele>133.4</ele>
        <time>2023-07-20T08:49:55Z</time>
      </trkpt>
      <trkpt lat="48.37464" lon="2.70695">
        <ele>133.4</ele>
        <time>2023-07-20T08:49:56Z</time>
      </trkpt>
      <trkpt lat="48.37464" lon="2.70693">
        <ele>133.4</ele>
        <time>2023-07-20T08:49:57Z</time>
      </trkpt>
      <trkpt lat="48.37465" lon="2.70691">
        <ele>133.4</ele>
        <time>2023-07-20T08:49:58Z</time>
      </trkpt>
      <trkpt lat="48.37465" lon="2.7069">
        <ele>133.4</ele>
        <time>2023-07-20T08:49:59Z</time>
      </trkpt>
      <trkpt lat="48.37466" lon="2.70688">
        <ele>133.3</ele>
        <time>2023-07-20T08:50:00Z</time>
      </trkpt>
      <trkpt lat="48.37466" lon="2.70686">
        <ele>133.3</ele>
        <time>2023-07-20T08:50:01Z</time>
      </trkpt>
      <trkpt lat="48.37466" lon="2.70682">
        <ele>133.3</ele>
        <time>2023-07-20T08:50:02Z</time>
      </trkpt>
      <trkpt lat="48.37467" lon="2.70681">
        <ele>133.1</ele>
        <time>2023-07-20T08:50:03Z</time>
      </trkpt>
      <trkpt lat="48.37467" lon="2.7068">
        <ele>133.1</ele>
        <time>2023-07-20T08:50:04Z</time>
      </trkpt>
      <trkpt lat="48.37467" lon="2.7068">
        <ele>133.1</ele>
        <time>2023-07-20T08:50:05Z</time>
      </trkpt>
      <trkpt lat="48.37467" lon="2.70679">
        <ele>133.1</ele>
        <time>2023-07-20T08:50:06Z</time>
      </trkpt>
      <trkpt lat="48.37467" lon="2.70679">
        <ele>133.1</ele>
        <time>2023-07-20T08:50:07Z</time>
      </trkpt>
      <trkpt lat="48.37468" lon="2.70678">
        <ele>133.1</ele>
        <time>2023-07-20T08:50:08Z</time>
      </trkpt>
      <trkpt lat="48.37467" lon="2.70678">
        <ele>133.1</ele>
        <time>2023-07-20T08:50:09Z</time>
      </trkpt>
      <trkpt lat="48.37467" lon="2.70678">
        <ele>133.1</ele>
        <time>2023-07-20T08:50:10Z</time>
      </trkpt>
      <trkpt lat="48.37467" lon="2.70678">
        <ele>133.1</ele>
        <time>2023-07-20T08:50:11Z</time>
      </trkpt>
      <trkpt lat="48.37467" lon="2.70677">
        <ele>133.1</ele>
        <time>2023-07-20T08:50:12Z</time>
      </trkpt>
      <trkpt lat="48.37468" lon="2.70677">
        <ele>133.1</ele>
        <time>2023-07-20T08:50:13Z</time>
      </trkpt>
      <trkpt lat="48.37469" lon="2.70678">
        <ele>133.1</ele>
        <time>2023-07-20T08:50:14Z</time>
      </trkpt>
      <trkpt lat="48.37471" lon="2.7068">
        <ele>133.1</ele>
        <time>2023-07-20T08:50:15Z</time>
      </trkpt>
      <trkpt lat="48.37471" lon="2.70681">
        <ele>133.1</ele>
        <time>2023-07-20T08:50:16Z</time>
      </trkpt>
      <trkpt lat="48.37472" lon="2.70682">
        <ele>133.1</ele>
        <time>2023-07-20T08:50:17Z</time>
      </trkpt>
      <trkpt lat="48.37473" lon="2.70682">
        <ele>133.1</ele>
        <time>2023-07-20T08:50:18Z</time>
      </trkpt>
      <trkpt lat="48.37474" lon="2.70683">
        <ele>133.1</ele>
        <time>2023-07-20T08:50:19Z</time>
      </trkpt>
      <trkpt lat="48.37474" lon="2.70684">
        <ele>133.1</ele>
        <time>2023-07-20T08:50:20Z</time>
      </trkpt>
      <trkpt lat="48.37475" lon="2.70686">
        <ele>133.1</ele>
        <time>2023-07-20T08:50:21Z</time>
      </trkpt>
      <trkpt lat="48.37475" lon="2.70687">
        <ele>133.1</ele>
        <time>2023-07-20T08:50:22Z</time>
      </trkpt>
      <trkpt lat="48.37476" lon="2.70688">
        <ele>133.1</ele>
        <time>2023-07-20T08:50:23Z</time>
      </trkpt>
      <trkpt lat="48.37477" lon="2.7069">
        <ele>133.1</ele>
        <time>2023-07-20T08:50:24Z</time>
      </trkpt>
      <trkpt lat="48.37477" lon="2.7069">
        <ele>133.1</ele>
        <time>2023-07-20T08:50:25Z</time>
      </trkpt>
      <trkpt lat="48.37479" lon="2.70692">
        <ele>133.1</ele>
        <time>2023-07-20T08:50:26Z</time>
      </trkpt>
      <trkpt lat="48.37479" lon="2.70693">
        <ele>133.1</ele>
        <time>2023-07-20T08:50:27Z</time>
      </trkpt>
      <trkpt lat="48.3748" lon="2.70693">
        <ele>133.1</ele>
        <time>2023-07-20T08:50:28Z</time>
      </trkpt>
      <trkpt lat="48.3748" lon="2.70693">
        <ele>133.1</ele>
        <time>2023-07-20T08:50:29Z</time>
      </trkpt>
      <trkpt lat="48.3748" lon="2.70694">
        <ele>133.1</ele>
        <time>2023-07-20T08:50:30Z</time>
      </trkpt>
      <trkpt lat="48.37481" lon="2.70695">
        <ele>133.1</ele>
        <time>2023-07-20T08:50:31Z</time>
      </trkpt>
      <trkpt lat="48.37482" lon="2.70695">
        <ele>133.1</ele>
        <time>2023-07-20T08:50:32Z</time>
      </trkpt>
      <trkpt lat="48.37482" lon="2.70695">
        <ele>133.1</ele>
        <time>2023-07-20T08:50:33Z</time>
      </trkpt>
      <trkpt lat="48.37483" lon="2.70694">
        <ele>133.1</ele>
        <time>2023-07-20T08:50:34Z</time>
      </trkpt>
      <trkpt lat="48.37483" lon="2.70694">
        <ele>133.1</ele>
        <time>2023-07-20T08:50:35Z</time>
      </trkpt>
      <trkpt lat="48.37484" lon="2.70693">
        <ele>133.2</ele>
        <time>2023-07-20T08:50:36Z</time>
      </trkpt>
      <trkpt lat="48.37484" lon="2.70692">
        <ele>133.2</ele>
        <time>2023-07-20T08:50:37Z</time>
      </trkpt>
      <trkpt lat="48.37485" lon="2.7069">
        <ele>133.2</ele>
        <time>2023-07-20T08:50:38Z</time>
      </trkpt>
      <trkpt lat="48.37485" lon="2.70689">
        <ele>133.2</ele>
        <time>2023-07-20T08:50:39Z</time>
      </trkpt>
      <trkpt lat="48.37486" lon="2.7069">
        <ele>133.2</ele>
        <time>2023-07-20T08:50:40Z</time>
      </trkpt>
      <trkpt lat="48.37486" lon="2.7069">
        <ele>133.2</ele>
        <time>2023-07-20T08:50:41Z</time>
      </trkpt>
      <trkpt lat="48.37487" lon="2.70689">
        <ele>133.2</ele>
        <time>2023-07-20T08:50:42Z</time>
      </trkpt>
      <trkpt lat="48.37488" lon="2.70689">
        <ele>133.2</ele>
        <time>2023-07-20T08:50:43Z</time>
      </trkpt>
      <trkpt lat="48.37488" lon="2.70688">
        <ele>133.3</ele>
        <time>2023-07-20T08:50:44Z</time>
      </trkpt>
      <trkpt lat="48.37489" lon="2.70688">
        <ele>133.3</ele>
        <time>2023-07-20T08:50:45Z</time>
      </trkpt>
      <trkpt lat="48.37489" lon="2.70687">
        <ele>133.3</ele>
        <time>2023-07-20T08:50:46Z</time>
      </trkpt>
      <trkpt lat="48.3749" lon="2.70687">
        <ele>133.3</ele>
        <time>2023-07-20T08:50:47Z</time>
      </trkpt>
      <trkpt lat="48.37491" lon="2.70686">
        <ele>133.3</ele>
        <time>2023-07-20T08:50:48Z</time>
      </trkpt>
      <trkpt lat="48.37492" lon="2.70685">
        <ele>133.3</ele>
        <time>2023-07-20T08:50:49Z</time>
      </trkpt>
      <trkpt lat="48.37492" lon="2.70684">
        <ele>133.3</ele>
        <time>2023-07-20T08:50:50Z</time>
      </trkpt>
      <trkpt lat="48.37493" lon="2.70683">
        <ele>133.4</ele>
        <time>2023-07-20T08:50:51Z</time>
      </trkpt>
      <trkpt lat="48.37494" lon="2.70682">
        <ele>133.4</ele>
        <time>2023-07-20T08:50:52Z</time>
      </trkpt>
      <trkpt lat="48.37495" lon="2.70682">
        <ele>133.4</ele>
        <time>2023-07-20T08:50:53Z</time>
      </trkpt>
      <trkpt lat="48.37496" lon="2.70681">
        <ele>133.4</ele>
        <time>2023-07-20T08:50:54Z</time>
      </trkpt>
      <trkpt lat="48.37497" lon="2.7068">
        <ele>133.4</ele>
        <time>2023-07-20T08:50:55Z</time>
      </trkpt>
      <trkpt lat="48.37498" lon="2.70679">
        <ele>133.5</ele>
        <time>2023-07-20T08:50:56Z</time>
      </trkpt>
      <trkpt lat="48.37498" lon="2.70678">
        <ele>133.5</ele>
        <time>2023-07-20T08:50:57Z</time>
      </trkpt>
      <trkpt lat="48.375" lon="2.70678">
        <ele>133.5</ele>
        <time>2023-07-20T08:50:58Z</time>
      </trkpt>
      <trkpt lat="48.37501" lon="2.70677">
        <ele>133.5</ele>
        <time>2023-07-20T08:50:59Z</time>
      </trkpt>
      <trkpt lat="48.37502" lon="2.70677">
        <ele>133.5</ele>
        <time>2023-07-20T08:51:00Z</time>
      </trkpt>
      <trkpt lat="48.37504" lon="2.70677">
        <ele>133.6</ele>
        <time>2023-07-20T08:51:01Z</time>
      </trkpt>
      <trkpt lat="48.37505" lon="2.70676">
        <ele>133.6</ele>
        <time>2023-07-20T08:51:02Z</time>
      </trkpt>
      <trkpt lat="48.37506" lon="2.70675">
        <ele>133.6</ele>
        <time>2023-07-20T08:51:03Z</time>
      </trkpt>
      <trkpt lat="48.37507" lon="2.70674">
        <ele>133.6</ele>
        <time>2023-07-20T08:51:04Z</time>
      </trkpt>
      <trkpt lat="48.37508" lon="2.70674">
        <ele>133.6</ele>
        <time>2023-07-20T08:51:05Z</time>
      </trkpt>
      <trkpt lat="48.37509" lon="2.70673">
        <ele>133.6</ele>
        <time>2023-07-20T08:51:06Z</time>
      </trkpt>
      <trkpt lat="48.37511" lon="2.70672">
        <ele>133.6</ele>
        <time>2023-07-20T08:51:07Z</time>
      </trkpt>
      <trkpt lat="48.37512" lon="2.70671">
        <ele>133.6</ele>
        <time>2023-07-20T08:51:08Z</time>
      </trkpt>
      <trkpt lat="48.37513" lon="2.70669">
        <ele>133.7</ele>
        <time>2023-07-20T08:51:09Z</time>
      </trkpt>
      <trkpt lat="48.37515" lon="2.70668">
        <ele>133.7</ele>
        <time>2023-07-20T08:51:10Z</time>
      </trkpt>
      <trkpt lat="48.37517" lon="2.70668">
        <ele>133.7</ele>
        <time>2023-07-20T08:51:11Z</time>
      </trkpt>
      <trkpt lat="48.37518" lon="2.70668">
        <ele>133.7</ele>
        <time>2023-07-20T08:51:12Z</time>
      </trkpt>
      <trkpt lat="48.37518" lon="2.70668">
        <ele>133.7</ele>
        <time>2023-07-20T08:51:13Z</time>
      </trkpt>
      <trkpt lat="48.3752" lon="2.70668">
        <ele>133.7</ele>
        <time>2023-07-20T08:51:14Z</time>
      </trkpt>
      <trkpt lat="48.37521" lon="2.70668">
        <ele>133.7</ele>
        <time>2023-07-20T08:51:15Z</time>
      </trkpt>
      <trkpt lat="48.37522" lon="2.70668">
        <ele>133.7</ele>
        <time>2023-07-20T08:51:16Z</time>
      </trkpt>
      <trkpt lat="48.37523" lon="2.70665">
        <ele>133.7</ele>
        <time>2023-07-20T08:51:17Z</time>
      </trkpt>
      <trkpt lat="48.37524" lon="2.70664">
        <ele>133.7</ele>
        <time>2023-07-20T08:51:18Z</time>
      </trkpt>
      <trkpt lat="48.37525" lon="2.70662">
        <ele>133.7</ele>
        <time>2023-07-20T08:51:19Z</time>
      </trkpt>
      <trkpt lat="48.37526" lon="2.7066">
        <ele>133.7</ele>
        <time>2023-07-20T08:51:20Z</time>
      </trkpt>
      <trkpt lat="48.37528" lon="2.70658">
        <ele>133.6</ele>
        <time>2023-07-20T08:51:21Z</time>
      </trkpt>
      <trkpt lat="48.37529" lon="2.70658">
        <ele>133.6</ele>
        <time>2023-07-20T08:51:22Z</time>
      </trkpt>
      <trkpt lat="48.3753" lon="2.70658">
        <ele>133.6</ele>
        <time>2023-07-20T08:51:23Z</time>
      </trkpt>
      <trkpt lat="48.37531" lon="2.70656">
        <ele>133.6</ele>
        <time>2023-07-20T08:51:24Z</time>
      </trkpt>
      <trkpt lat="48.37532" lon="2.70656">
        <ele>133.6</ele>
        <time>2023-07-20T08:51:25Z</time>
      </trkpt>
      <trkpt lat="48.37534" lon="2.70654">
        <ele>133.6</ele>
        <time>2023-07-20T08:51:26Z</time>
      </trkpt>
      <trkpt lat="48.37535" lon="2.70653">
        <ele>133.5</ele>
        <time>2023-07-20T08:51:27Z</time>
      </trkpt>
      <trkpt lat="48.37536" lon="2.70651">
        <ele>133.5</ele>
        <time>2023-07-20T08:51:28Z</time>
      </trkpt>
      <trkpt lat="48.37538" lon="2.70651">
        <ele>133.5</ele>
        <time>2023-07-20T08:51:29Z</time>
      </trkpt>
      <trkpt lat="48.37538" lon="2.70651">
        <ele>133.5</ele>
        <time>2023-07-20T08:51:30Z</time>
      </trkpt>
      <trkpt lat="48.37539" lon="2.7065">
        <ele>133.4</ele>
        <time>2023-07-20T08:51:31Z</time>
      </trkpt>
      <trkpt lat="48.3754" lon="2.7065">
        <ele>133.4</ele>
        <time>2023-07-20T08:51:32Z</time>
      </trkpt>
      <trkpt lat="48.3754" lon="2.7065">
        <ele>133.4</ele>
        <time>2023-07-20T08:51:33Z</time>
      </trkpt>
      <trkpt lat="48.37541" lon="2.70649">
        <ele>133.4</ele>
        <time>2023-07-20T08:51:34Z</time>
      </trkpt>
      <trkpt lat="48.37541" lon="2.70649">
        <ele>133.4</ele>
        <time>2023-07-20T08:51:35Z</time>
      </trkpt>
      <trkpt lat="48.37542" lon="2.70649">
        <ele>133.4</ele>
        <time>2023-07-20T08:51:36Z</time>
      </trkpt>
      <trkpt lat="48.37542" lon="2.70649">
        <ele>133.4</ele>
        <time>2023-07-20T08:51:37Z</time>
      </trkpt>
      <trkpt lat="48.37542" lon="2.70648">
        <ele>133.4</ele>
        <time>2023-07-20T08:51:38Z</time>
      </trkpt>
      <trkpt lat="48.37543" lon="2.70648">
        <ele>133.3</ele>
        <time>2023-07-20T08:51:39Z</time>
      </trkpt>
      <trkpt lat="48.37544" lon="2.70648">
        <ele>133.3</ele>
        <time>2023-07-20T08:51:40Z</time>
      </trkpt>
      <trkpt lat="48.37546" lon="2.70649">
        <ele>133.3</ele>
        <time>2023-07-20T08:51:41Z</time>
      </trkpt>
      <trkpt lat="48.37546" lon="2.70649">
        <ele>133.2</ele>
        <time>2023-07-20T08:51:42Z</time>
      </trkpt>
      <trkpt lat="48.37547" lon="2.70649">
        <ele>133.2</ele>
        <time>2023-07-20T08:51:43Z</time>
      </trkpt>
      <trkpt lat="48.37548" lon="2.70649">
        <ele>133.2</ele>
        <time>2023-07-20T08:51:44Z</time>
      </trkpt>
      <trkpt lat="48.37549" lon="2.70649">
        <ele>133.2</ele>
        <time>2023-07-20T08:51:45Z</time>
      </trkpt>
      <trkpt lat="48.3755" lon="2.70649">
        <ele>133.1</ele>
        <time>2023-07-20T08:51:46Z</time>
      </trkpt>
      <trkpt lat="48.37552" lon="2.70649">
        <ele>133.1</ele>
        <time>2023-07-20T08:51:47Z</time>
      </trkpt>
      <trkpt lat="48.37554" lon="2.7065">
        <ele>133</ele>
        <time>2023-07-20T08:51:48Z</time>
      </trkpt>
      <trkpt lat="48.37555" lon="2.7065">
        <ele>133</ele>
        <time>2023-07-20T08:51:49Z</time>
      </trkpt>
      <trkpt lat="48.37555" lon="2.7065">
        <ele>133</ele>
        <time>2023-07-20T08:51:50Z</time>
      </trkpt>
      <trkpt lat="48.37556" lon="2.70651">
        <ele>132.9</ele>
        <time>2023-07-20T08:51:51Z</time>
      </trkpt>
      <trkpt lat="48.37557" lon="2.7065">
        <ele>132.9</ele>
        <time>2023-07-20T08:51:52Z</time>
      </trkpt>
      <trkpt lat="48.37557" lon="2.7065">
        <ele>132.9</ele>
        <time>2023-07-20T08:51:53Z</time>
      </trkpt>
      <trkpt lat="48.37559" lon="2.70649">
        <ele>132.8</ele>
        <time>2023-07-20T08:51:54Z</time>
      </trkpt>
      <trkpt lat="48.37559" lon="2.70649">
        <ele>132.8</ele>
        <time>2023-07-20T08:51:55Z</time>
      </trkpt>
      <trkpt lat="48.3756" lon="2.70649">
        <ele>132.8</ele>
        <time>2023-07-20T08:51:56Z</time>
      </trkpt>
      <trkpt lat="48.37561" lon="2.70649">
        <ele>132.8</ele>
        <time>2023-07-20T08:51:57Z</time>
      </trkpt>
      <trkpt lat="48.37563" lon="2.70649">
        <ele>132.7</ele>
        <time>2023-07-20T08:51:58Z</time>
      </trkpt>
      <trkpt lat="48.37564" lon="2.70649">
        <ele>132.7</ele>
        <time>2023-07-20T08:51:59Z</time>
      </trkpt>
      <trkpt lat="48.37564" lon="2.70649">
        <ele>132.6</ele>
        <time>2023-07-20T08:52:00Z</time>
      </trkpt>
      <trkpt lat="48.37565" lon="2.70648">
        <ele>132.6</ele>
        <time>2023-07-20T08:52:01Z</time>
      </trkpt>
      <trkpt lat="48.37566" lon="2.70648">
        <ele>132.6</ele>
        <time>2023-07-20T08:52:02Z</time>
      </trkpt>
      <trkpt lat="48.37567" lon="2.70646">
        <ele>132.5</ele>
        <time>2023-07-20T08:52:03Z</time>
      </trkpt>
      <trkpt lat="48.37568" lon="2.70647">
        <ele>132.5</ele>
        <time>2023-07-20T08:52:04Z</time>
      </trkpt>
      <trkpt lat="48.37568" lon="2.70647">
        <ele>132.5</ele>
        <time>2023-07-20T08:52:05Z</time>
      </trkpt>
      <trkpt lat="48.37569" lon="2.70647">
        <ele>132.5</ele>
        <time>2023-07-20T08:52:06Z</time>
      </trkpt>
      <trkpt lat="48.3757" lon="2.70646">
        <ele>132.4</ele>
        <time>2023-07-20T08:52:07Z</time>
      </trkpt>
      <trkpt lat="48.37571" lon="2.70646">
        <ele>132.4</ele>
        <time>2023-07-20T08:52:08Z</time>
      </trkpt>
      <trkpt lat="48.37572" lon="2.70646">
        <ele>132.4</ele>
        <time>2023-07-20T08:52:09Z</time>
      </trkpt>
      <trkpt lat="48.37574" lon="2.70647">
        <ele>132.3</ele>
        <time>2023-07-20T08:52:10Z</time>
      </trkpt>
      <trkpt lat="48.37574" lon="2.70646">
        <ele>132.3</ele>
        <time>2023-07-20T08:52:11Z</time>
      </trkpt>
      <trkpt lat="48.37575" lon="2.70645">
        <ele>132.3</ele>
        <time>2023-07-20T08:52:12Z</time>
      </trkpt>
      <trkpt lat="48.37575" lon="2.70645">
        <ele>132.3</ele>
        <time>2023-07-20T08:52:13Z</time>
      </trkpt>
      <trkpt lat="48.37575" lon="2.70646">
        <ele>132.3</ele>
        <time>2023-07-20T08:52:14Z</time>
      </trkpt>
      <trkpt lat="48.37575" lon="2.70646">
        <ele>132.3</ele>
        <time>2023-07-20T08:52:15Z</time>
      </trkpt>
      <trkpt lat="48.37576" lon="2.70646">
        <ele>132.2</ele>
        <time>2023-07-20T08:52:16Z</time>
      </trkpt>
      <trkpt lat="48.37577" lon="2.70645">
        <ele>132.2</ele>
        <time>2023-07-20T08:52:17Z</time>
      </trkpt>
      <trkpt lat="48.37579" lon="2.70646">
        <ele>132.1</ele>
        <time>2023-07-20T08:52:18Z</time>
      </trkpt>
      <trkpt lat="48.3758" lon="2.70646">
        <ele>132.1</ele>
        <time>2023-07-20T08:52:19Z</time>
      </trkpt>
      <trkpt lat="48.37581" lon="2.70646">
        <ele>132.1</ele>
        <time>2023-07-20T08:52:20Z</time>
      </trkpt>
      <trkpt lat="48.37583" lon="2.70646">
        <ele>132</ele>
        <time>2023-07-20T08:52:21Z</time>
      </trkpt>
      <trkpt lat="48.37584" lon="2.70646">
        <ele>132</ele>
        <time>2023-07-20T08:52:22Z</time>
      </trkpt>
      <trkpt lat="48.37586" lon="2.70645">
        <ele>131.9</ele>
        <time>2023-07-20T08:52:23Z</time>
      </trkpt>
      <trkpt lat="48.37587" lon="2.70645">
        <ele>131.9</ele>
        <time>2023-07-20T08:52:24Z</time>
      </trkpt>
      <trkpt lat="48.37588" lon="2.70645">
        <ele>131.9</ele>
        <time>2023-07-20T08:52:25Z</time>
      </trkpt>
      <trkpt lat="48.3759" lon="2.70644">
        <ele>131.9</ele>
        <time>2023-07-20T08:52:26Z</time>
      </trkpt>
      <trkpt lat="48.37591" lon="2.70644">
        <ele>131.8</ele>
        <time>2023-07-20T08:52:27Z</time>
      </trkpt>
      <trkpt lat="48.37591" lon="2.70644">
        <ele>131.8</ele>
        <time>2023-07-20T08:52:28Z</time>
      </trkpt>
      <trkpt lat="48.37592" lon="2.70644">
        <ele>131.8</ele>
        <time>2023-07-20T08:52:29Z</time>
      </trkpt>
      <trkpt lat="48.37593" lon="2.70644">
        <ele>131.8</ele>
        <time>2023-07-20T08:52:30Z</time>
      </trkpt>
      <trkpt lat="48.37594" lon="2.70644">
        <ele>131.8</ele>
        <time>2023-07-20T08:52:31Z</time>
      </trkpt>
      <trkpt lat="48.37594" lon="2.70644">
        <ele>131.7</ele>
        <time>2023-07-20T08:52:32Z</time>
      </trkpt>
      <trkpt lat="48.37595" lon="2.70644">
        <ele>131.7</ele>
        <time>2023-07-20T08:52:33Z</time>
      </trkpt>
      <trkpt lat="48.37596" lon="2.70643">
        <ele>131.7</ele>
        <time>2023-07-20T08:52:34Z</time>
      </trkpt>
      <trkpt lat="48.37596" lon="2.70643">
        <ele>131.7</ele>
        <time>2023-07-20T08:52:35Z</time>
      </trkpt>
      <trkpt lat="48.37598" lon="2.70644">
        <ele>131.7</ele>
        <time>2023-07-20T08:52:36Z</time>
      </trkpt>
      <trkpt lat="48.376" lon="2.70645">
        <ele>131.6</ele>
        <time>2023-07-20T08:52:37Z</time>
      </trkpt>
      <trkpt lat="48.37601" lon="2.70644">
        <ele>131.6</ele>
        <time>2023-07-20T08:52:38Z</time>
      </trkpt>
      <trkpt lat="48.37602" lon="2.70643">
        <ele>131.6</ele>
        <time>2023-07-20T08:52:39Z</time>
      </trkpt>
      <trkpt lat="48.37603" lon="2.70644">
        <ele>131.6</ele>
        <time>2023-07-20T08:52:40Z</time>
      </trkpt>
      <trkpt lat="48.37603" lon="2.70643">
        <ele>131.6</ele>
        <time>2023-07-20T08:52:41Z</time>
      </trkpt>
      <trkpt lat="48.37604" lon="2.70643">
        <ele>131.5</ele>
        <time>2023-07-20T08:52:42Z</time>
      </trkpt>
      <trkpt lat="48.37606" lon="2.70642">
        <ele>131.5</ele>
        <time>2023-07-20T08:52:43Z</time>
      </trkpt>
      <trkpt lat="48.37606" lon="2.70642">
        <ele>131.5</ele>
        <time>2023-07-20T08:52:44Z</time>
      </trkpt>
      <trkpt lat="48.37607" lon="2.70643">
        <ele>131.5</ele>
        <time>2023-07-20T08:52:45Z</time>
      </trkpt>
      <trkpt lat="48.37608" lon="2.70643">
        <ele>131.5</ele>
        <time>2023-07-20T08:52:46Z</time>
      </trkpt>
      <trkpt lat="48.37609" lon="2.70644">
        <ele>131.5</ele>
        <time>2023-07-20T08:52:47Z</time>
      </trkpt>
      <trkpt lat="48.3761" lon="2.70645">
        <ele>131.4</ele>
        <time>2023-07-20T08:52:48Z</time>
      </trkpt>
      <trkpt lat="48.37612" lon="2.70644">
        <ele>131.4</ele>
        <time>2023-07-20T08:52:49Z</time>
      </trkpt>
      <trkpt lat="48.37613" lon="2.70644">
        <ele>131.4</ele>
        <time>2023-07-20T08:52:50Z</time>
      </trkpt>
      <trkpt lat="48.37614" lon="2.70643">
        <ele>131.4</ele>
        <time>2023-07-20T08:52:51Z</time>
      </trkpt>
      <trkpt lat="48.37615" lon="2.70643">
        <ele>131.4</ele>
        <time>2023-07-20T08:52:52Z</time>
      </trkpt>
      <trkpt lat="48.37616" lon="2.70642">
        <ele>131.4</ele>
        <time>2023-07-20T08:52:53Z</time>
      </trkpt>
      <trkpt lat="48.37617" lon="2.70642">
        <ele>131.4</ele>
        <time>2023-07-20T08:52:54Z</time>
      </trkpt>
      <trkpt lat="48.37618" lon="2.70643">
        <ele>131.4</ele>
        <time>2023-07-20T08:52:55Z</time>
      </trkpt>
      <trkpt lat="48.37619" lon="2.70642">
        <ele>131.4</ele>
        <time>2023-07-20T08:52:56Z</time>
      </trkpt>
      <trkpt lat="48.37619" lon="2.70642">
        <ele>131.4</ele>
        <time>2023-07-20T08:52:57Z</time>
      </trkpt>
      <trkpt lat="48.3762" lon="2.70641">
        <ele>131.3</ele>
        <time>2023-07-20T08:52:58Z</time>
      </trkpt>
      <trkpt lat="48.37622" lon="2.70639">
        <ele>131.3</ele>
        <time>2023-07-20T08:52:59Z</time>
      </trkpt>
      <trkpt lat="48.37625" lon="2.70636">
        <ele>131.3</ele>
        <time>2023-07-20T08:53:00Z</time>
      </trkpt>
      <trkpt lat="48.37626" lon="2.70636">
        <ele>131.3</ele>
        <time>2023-07-20T08:53:01Z</time>
      </trkpt>
      <trkpt lat="48.37627" lon="2.70634">
        <ele>131.3</ele>
        <time>2023-07-20T08:53:02Z</time>
      </trkpt>
      <trkpt lat="48.37628" lon="2.70633">
        <ele>131.3</ele>
        <time>2023-07-20T08:53:03Z</time>
      </trkpt>
      <trkpt lat="48.3763" lon="2.70632">
        <ele>131.3</ele>
        <time>2023-07-20T08:53:04Z</time>
      </trkpt>
      <trkpt lat="48.37631" lon="2.70632">
        <ele>131.3</ele>
        <time>2023-07-20T08:53:05Z</time>
      </trkpt>
      <trkpt lat="48.37633" lon="2.70631">
        <ele>131.3</ele>
        <time>2023-07-20T08:53:06Z</time>
      </trkpt>
      <trkpt lat="48.37634" lon="2.70629">
        <ele>131.3</ele>
        <time>2023-07-20T08:53:07Z</time>
      </trkpt>
      <trkpt lat="48.37635" lon="2.70628">
        <ele>131.3</ele>
        <time>2023-07-20T08:53:08Z</time>
      </trkpt>
      <trkpt lat="48.37635" lon="2.70628">
        <ele>131.3</ele>
        <time>2023-07-20T08:53:09Z</time>
      </trkpt>
      <trkpt lat="48.37636" lon="2.70627">
        <ele>131.3</ele>
        <time>2023-07-20T08:53:10Z</time>
      </trkpt>
      <trkpt lat="48.37637" lon="2.70627">
        <ele>131.3</ele>
        <time>2023-07-20T08:53:11Z</time>
      </trkpt>
      <trkpt lat="48.37638" lon="2.70626">
        <ele>131.3</ele>
        <time>2023-07-20T08:53:12Z</time>
      </trkpt>
      <trkpt lat="48.37639" lon="2.70625">
        <ele>131.3</ele>
        <time>2023-07-20T08:53:13Z</time>
      </trkpt>
      <trkpt lat="48.37639" lon="2.70624">
        <ele>131.3</ele>
        <time>2023-07-20T08:53:14Z</time>
      </trkpt>
      <trkpt lat="48.3764" lon="2.70624">
        <ele>131.3</ele>
        <time>2023-07-20T08:53:15Z</time>
      </trkpt>
      <trkpt lat="48.37641" lon="2.70624">
        <ele>131.3</ele>
        <time>2023-07-20T08:53:16Z</time>
      </trkpt>
      <trkpt lat="48.37642" lon="2.70624">
        <ele>131.3</ele>
        <time>2023-07-20T08:53:17Z</time>
      </trkpt>
      <trkpt lat="48.37642" lon="2.70623">
        <ele>131.3</ele>
        <time>2023-07-20T08:53:18Z</time>
      </trkpt>
      <trkpt lat="48.37642" lon="2.70623">
        <ele>131.3</ele>
        <time>2023-07-20T08:53:19Z</time>
      </trkpt>
      <trkpt lat="48.37643" lon="2.70623">
        <ele>131.3</ele>
        <time>2023-07-20T08:53:20Z</time>
      </trkpt>
      <trkpt lat="48.37644" lon="2.70624">
        <ele>131.3</ele>
        <time>2023-07-20T08:53:21Z</time>
      </trkpt>
      <trkpt lat="48.37644" lon="2.70624">
        <ele>131.3</ele>
        <time>2023-07-20T08:53:22Z</time>
      </trkpt>
      <trkpt lat="48.37645" lon="2.70624">
        <ele>131.3</ele>
        <time>2023-07-20T08:53:23Z</time>
      </trkpt>
      <trkpt lat="48.37646" lon="2.70625">
        <ele>131.4</ele>
        <time>2023-07-20T08:53:24Z</time>
      </trkpt>
      <trkpt lat="48.37647" lon="2.70624">
        <ele>131.4</ele>
        <time>2023-07-20T08:53:25Z</time>
      </trkpt>
      <trkpt lat="48.37647" lon="2.70624">
        <ele>131.4</ele>
        <time>2023-07-20T08:53:26Z</time>
      </trkpt>
      <trkpt lat="48.37648" lon="2.70623">
        <ele>131.4</ele>
        <time>2023-07-20T08:53:27Z</time>
      </trkpt>
      <trkpt lat="48.37649" lon="2.70623">
        <ele>131.4</ele>
        <time>2023-07-20T08:53:28Z</time>
      </trkpt>
      <trkpt lat="48.3765" lon="2.70622">
        <ele>131.4</ele>
        <time>2023-07-20T08:53:29Z</time>
      </trkpt>
      <trkpt lat="48.37651" lon="2.70622">
        <ele>131.4</ele>
        <time>2023-07-20T08:53:30Z</time>
      </trkpt>
      <trkpt lat="48.37651" lon="2.70622">
        <ele>131.4</ele>
        <time>2023-07-20T08:53:31Z</time>
      </trkpt>
      <trkpt lat="48.37653" lon="2.70622">
        <ele>131.4</ele>
        <time>2023-07-20T08:53:32Z</time>
      </trkpt>
      <trkpt lat="48.37653" lon="2.70622">
        <ele>131.4</ele>
        <time>2023-07-20T08:53:33Z</time>
      </trkpt>
      <trkpt lat="48.37653" lon="2.70623">
        <ele>131.4</ele>
        <time>2023-07-20T08:53:34Z</time>
      </trkpt>
      <trkpt lat="48.37654" lon="2.70623">
        <ele>131.5</ele>
        <time>2023-07-20T08:53:35Z</time>
      </trkpt>
      <trkpt lat="48.37655" lon="2.70624">
        <ele>131.5</ele>
        <time>2023-07-20T08:53:36Z</time>
      </trkpt>
      <trkpt lat="48.37655" lon="2.70624">
        <ele>131.5</ele>
        <time>2023-07-20T08:53:37Z</time>
      </trkpt>
      <trkpt lat="48.37655" lon="2.70625">
        <ele>131.5</ele>
        <time>2023-07-20T08:53:38Z</time>
      </trkpt>
      <trkpt lat="48.37656" lon="2.70627">
        <ele>131.5</ele>
        <time>2023-07-20T08:53:39Z</time>
      </trkpt>
      <trkpt lat="48.37657" lon="2.70627">
        <ele>131.5</ele>
        <time>2023-07-20T08:53:40Z</time>
      </trkpt>
      <trkpt lat="48.37658" lon="2.70628">
        <ele>131.5</ele>
        <time>2023-07-20T08:53:41Z</time>
      </trkpt>
      <trkpt lat="48.37658" lon="2.70629">
        <ele>131.5</ele>
        <time>2023-07-20T08:53:42Z</time>
      </trkpt>
      <trkpt lat="48.3766" lon="2.7063">
        <ele>131.6</ele>
        <time>2023-07-20T08:53:43Z</time>
      </trkpt>
      <trkpt lat="48.37661" lon="2.70631">
        <ele>131.6</ele>
        <time>2023-07-20T08:53:44Z</time>
      </trkpt>
      <trkpt lat="48.37662" lon="2.70633">
        <ele>131.6</ele>
        <time>2023-07-20T08:53:45Z</time>
      </trkpt>
      <trkpt lat="48.37663" lon="2.70634">
        <ele>131.6</ele>
        <time>2023-07-20T08:53:46Z</time>
      </trkpt>
      <trkpt lat="48.37663" lon="2.70635">
        <ele>131.6</ele>
        <time>2023-07-20T08:53:47Z</time>
      </trkpt>
      <trkpt lat="48.37665" lon="2.70637">
        <ele>131.6</ele>
        <time>2023-07-20T08:53:48Z</time>
      </trkpt>
      <trkpt lat="48.37666" lon="2.70638">
        <ele>131.7</ele>
        <time>2023-07-20T08:53:49Z</time>
      </trkpt>
      <trkpt lat="48.37666" lon="2.70639">
        <ele>131.7</ele>
        <time>2023-07-20T08:53:50Z</time>
      </trkpt>
      <trkpt lat="48.37667" lon="2.70639">
        <ele>131.7</ele>
        <time>2023-07-20T08:53:51Z</time>
      </trkpt>
      <trkpt lat="48.37668" lon="2.70639">
        <ele>131.7</ele>
        <time>2023-07-20T08:53:52Z</time>
      </trkpt>
      <trkpt lat="48.37669" lon="2.7064">
        <ele>131.7</ele>
        <time>2023-07-20T08:53:53Z</time>
      </trkpt>
      <trkpt lat="48.37669" lon="2.70639">
        <ele>131.7</ele>
        <time>2023-07-20T08:53:54Z</time>
      </trkpt>
      <trkpt lat="48.3767" lon="2.70639">
        <ele>131.7</ele>
        <time>2023-07-20T08:53:55Z</time>
      </trkpt>
      <trkpt lat="48.3767" lon="2.7064">
        <ele>131.7</ele>
        <time>2023-07-20T08:53:56Z</time>
      </trkpt>
      <trkpt lat="48.3767" lon="2.70641">
        <ele>131.7</ele>
        <time>2023-07-20T08:53:57Z</time>
      </trkpt>
      <trkpt lat="48.3767" lon="2.70641">
        <ele>131.7</ele>
        <time>2023-07-20T08:53:58Z</time>
      </trkpt>
      <trkpt lat="48.3767" lon="2.70642">
        <ele>131.7</ele>
        <time>2023-07-20T08:53:59Z</time>
      </trkpt>
      <trkpt lat="48.37669" lon="2.70642">
        <ele>131.8</ele>
        <time>2023-07-20T08:54:00Z</time>
      </trkpt>
      <trkpt lat="48.37669" lon="2.70643">
        <ele>131.8</ele>
        <time>2023-07-20T08:54:01Z</time>
      </trkpt>
      <trkpt lat="48.37669" lon="2.70644">
        <ele>131.8</ele>
        <time>2023-07-20T08:54:02Z</time>
      </trkpt>
      <trkpt lat="48.3767" lon="2.70644">
        <ele>131.8</ele>
        <time>2023-07-20T08:54:03Z</time>
      </trkpt>
      <trkpt lat="48.3767" lon="2.70645">
        <ele>131.8</ele>
        <time>2023-07-20T08:54:04Z</time>
      </trkpt>
      <trkpt lat="48.37671" lon="2.70645">
        <ele>131.8</ele>
        <time>2023-07-20T08:54:05Z</time>
      </trkpt>
      <trkpt lat="48.37671" lon="2.70644">
        <ele>131.9</ele>
        <time>2023-07-20T08:54:06Z</time>
      </trkpt>
      <trkpt lat="48.37671" lon="2.70643">
        <ele>131.9</ele>
        <time>2023-07-20T08:54:07Z</time>
      </trkpt>
      <trkpt lat="48.37671" lon="2.70643">
        <ele>131.9</ele>
        <time>2023-07-20T08:54:08Z</time>
      </trkpt>
      <trkpt lat="48.37671" lon="2.70643">
        <ele>131.9</ele>
        <time>2023-07-20T08:54:09Z</time>
      </trkpt>
      <trkpt lat="48.37671" lon="2.70643">
        <ele>131.9</ele>
        <time>2023-07-20T08:54:10Z</time>
      </trkpt>
      <trkpt lat="48.37672" lon="2.70643">
        <ele>131.9</ele>
        <time>2023-07-20T08:54:11Z</time>
      </trkpt>
      <trkpt lat="48.37672" lon="2.70644">
        <ele>131.9</ele>
        <time>2023-07-20T08:54:12Z</time>
      </trkpt>
      <trkpt lat="48.37672" lon="2.70644">
        <ele>131.9</ele>
        <time>2023-07-20T08:54:13Z</time>
      </trkpt>
      <trkpt lat="48.37671" lon="2.70644">
        <ele>131.9</ele>
        <time>2023-07-20T08:54:14Z</time>
      </trkpt>
      <trkpt lat="48.37671" lon="2.70644">
        <ele>131.9</ele>
        <time>2023-07-20T08:54:15Z</time>
      </trkpt>
      <trkpt lat="48.37671" lon="2.70643">
        <ele>131.9</ele>
        <time>2023-07-20T08:54:16Z</time>
      </trkpt>
      <trkpt lat="48.37671" lon="2.70644">
        <ele>131.9</ele>
        <time>2023-07-20T08:54:17Z</time>
      </trkpt>
      <trkpt lat="48.37671" lon="2.70644">
        <ele>131.9</ele>
        <time>2023-07-20T08:54:18Z</time>
      </trkpt>
      <trkpt lat="48.37671" lon="2.70644">
        <ele>131.9</ele>
        <time>2023-07-20T08:54:19Z</time>
      </trkpt>
      <trkpt lat="48.37671" lon="2.70644">
        <ele>131.9</ele>
        <time>2023-07-20T08:54:20Z</time>
      </trkpt>
      <trkpt lat="48.37672" lon="2.70645">
        <ele>131.9</ele>
        <time>2023-07-20T08:54:21Z</time>
      </trkpt>
      <trkpt lat="48.37673" lon="2.70645">
        <ele>132</ele>
        <time>2023-07-20T08:54:22Z</time>
      </trkpt>
      <trkpt lat="48.37674" lon="2.70645">
        <ele>132</ele>
        <time>2023-07-20T08:54:23Z</time>
      </trkpt>
      <trkpt lat="48.37673" lon="2.70645">
        <ele>132</ele>
        <time>2023-07-20T08:54:24Z</time>
      </trkpt>
      <trkpt lat="48.37673" lon="2.70646">
        <ele>132</ele>
        <time>2023-07-20T08:54:25Z</time>
      </trkpt>
      <trkpt lat="48.37673" lon="2.70647">
        <ele>132</ele>
        <time>2023-07-20T08:54:26Z</time>
      </trkpt>
      <trkpt lat="48.37673" lon="2.70647">
        <ele>132.1</ele>
        <time>2023-07-20T08:54:27Z</time>
      </trkpt>
      <trkpt lat="48.37673" lon="2.70648">
        <ele>132.1</ele>
        <time>2023-07-20T08:54:28Z</time>
      </trkpt>
      <trkpt lat="48.37673" lon="2.70647">
        <ele>132.1</ele>
        <time>2023-07-20T08:54:29Z</time>
      </trkpt>
      <trkpt lat="48.37674" lon="2.70648">
        <ele>132.1</ele>
        <time>2023-07-20T08:54:30Z</time>
      </trkpt>
      <trkpt lat="48.37675" lon="2.70648">
        <ele>132.2</ele>
        <time>2023-07-20T08:54:31Z</time>
      </trkpt>
      <trkpt lat="48.37676" lon="2.70648">
        <ele>132.2</ele>
        <time>2023-07-20T08:54:32Z</time>
      </trkpt>
      <trkpt lat="48.37677" lon="2.7065">
        <ele>132.2</ele>
        <time>2023-07-20T08:54:33Z</time>
      </trkpt>
      <trkpt lat="48.37677" lon="2.70651">
        <ele>132.3</ele>
        <time>2023-07-20T08:54:34Z</time>
      </trkpt>
      <trkpt lat="48.37677" lon="2.70653">
        <ele>132.3</ele>
        <time>2023-07-20T08:54:35Z</time>
      </trkpt>
      <trkpt lat="48.37678" lon="2.70655">
        <ele>132.4</ele>
        <time>2023-07-20T08:54:36Z</time>
      </trkpt>
      <trkpt lat="48.37679" lon="2.70655">
        <ele>132.4</ele>
        <time>2023-07-20T08:54:37Z</time>
      </trkpt>
      <trkpt lat="48.3768" lon="2.70655">
        <ele>132.4</ele>
        <time>2023-07-20T08:54:38Z</time>
      </trkpt>
      <trkpt lat="48.37682" lon="2.70654">
        <ele>132.5</ele>
        <time>2023-07-20T08:54:39Z</time>
      </trkpt>
      <trkpt lat="48.37683" lon="2.70656">
        <ele>132.6</ele>
        <time>2023-07-20T08:54:40Z</time>
      </trkpt>
      <trkpt lat="48.37684" lon="2.70657">
        <ele>132.6</ele>
        <time>2023-07-20T08:54:41Z</time>
      </trkpt>
      <trkpt lat="48.37685" lon="2.70658">
        <ele>132.6</ele>
        <time>2023-07-20T08:54:42Z</time>
      </trkpt>
      <trkpt lat="48.37685" lon="2.70659">
        <ele>132.7</ele>
        <time>2023-07-20T08:54:43Z</time>
      </trkpt>
      <trkpt lat="48.37685" lon="2.70659">
        <ele>132.7</ele>
        <time>2023-07-20T08:54:44Z</time>
      </trkpt>
      <trkpt lat="48.37686" lon="2.70661">
        <ele>132.7</ele>
        <time>2023-07-20T08:54:45Z</time>
      </trkpt>
      <trkpt lat="48.37686" lon="2.70663">
        <ele>132.8</ele>
        <time>2023-07-20T08:54:46Z</time>
      </trkpt>
      <trkpt lat="48.37686" lon="2.70663">
        <ele>132.8</ele>
        <time>2023-07-20T08:54:47Z</time>
      </trkpt>
      <trkpt lat="48.37686" lon="2.70664">
        <ele>132.8</ele>
        <time>2023-07-20T08:54:48Z</time>
      </trkpt>
      <trkpt lat="48.37687" lon="2.70664">
        <ele>132.8</ele>
        <time>2023-07-20T08:54:49Z</time>
      </trkpt>
      <trkpt lat="48.37687" lon="2.70664">
        <ele>132.8</ele>
        <time>2023-07-20T08:54:50Z</time>
      </trkpt>
      <trkpt lat="48.37687" lon="2.70665">
        <ele>132.9</ele>
        <time>2023-07-20T08:54:51Z</time>
      </trkpt>
      <trkpt lat="48.37688" lon="2.70665">
        <ele>132.9</ele>
        <time>2023-07-20T08:54:52Z</time>
      </trkpt>
      <trkpt lat="48.37689" lon="2.70666">
        <ele>132.9</ele>
        <time>2023-07-20T08:54:53Z</time>
      </trkpt>
      <trkpt lat="48.3769" lon="2.70666">
        <ele>132.9</ele>
        <time>2023-07-20T08:54:54Z</time>
      </trkpt>
      <trkpt lat="48.37692" lon="2.70666">
        <ele>133</ele>
        <time>2023-07-20T08:54:55Z</time>
      </trkpt>
      <trkpt lat="48.37693" lon="2.70666">
        <ele>133</ele>
        <time>2023-07-20T08:54:56Z</time>
      </trkpt>
      <trkpt lat="48.37693" lon="2.70667">
        <ele>133.1</ele>
        <time>2023-07-20T08:54:57Z</time>
      </trkpt>
      <trkpt lat="48.37694" lon="2.70667">
        <ele>133.1</ele>
        <time>2023-07-20T08:54:58Z</time>
      </trkpt>
      <trkpt lat="48.37695" lon="2.70668">
        <ele>133.1</ele>
        <time>2023-07-20T08:54:59Z</time>
      </trkpt>
      <trkpt lat="48.37695" lon="2.70669">
        <ele>133.1</ele>
        <time>2023-07-20T08:55:00Z</time>
      </trkpt>
      <trkpt lat="48.37695" lon="2.7067">
        <ele>133.2</ele>
        <time>2023-07-20T08:55:01Z</time>
      </trkpt>
      <trkpt lat="48.37696" lon="2.7067">
        <ele>133.2</ele>
        <time>2023-07-20T08:55:02Z</time>
      </trkpt>
      <trkpt lat="48.37696" lon="2.70671">
        <ele>133.2</ele>
        <time>2023-07-20T08:55:03Z</time>
      </trkpt>
      <trkpt lat="48.37697" lon="2.70671">
        <ele>133.2</ele>
        <time>2023-07-20T08:55:04Z</time>
      </trkpt>
      <trkpt lat="48.37697" lon="2.70671">
        <ele>133.2</ele>
        <time>2023-07-20T08:55:05Z</time>
      </trkpt>
      <trkpt lat="48.37698" lon="2.70671">
        <ele>133.2</ele>
        <time>2023-07-20T08:55:06Z</time>
      </trkpt>
      <trkpt lat="48.37699" lon="2.70672">
        <ele>133.3</ele>
        <time>2023-07-20T08:55:07Z</time>
      </trkpt>
      <trkpt lat="48.37701" lon="2.70673">
        <ele>133.3</ele>
        <time>2023-07-20T08:55:08Z</time>
      </trkpt>
      <trkpt lat="48.37703" lon="2.70674">
        <ele>133.4</ele>
        <time>2023-07-20T08:55:09Z</time>
      </trkpt>
      <trkpt lat="48.37704" lon="2.70675">
        <ele>133.4</ele>
        <time>2023-07-20T08:55:10Z</time>
      </trkpt>
      <trkpt lat="48.37705" lon="2.70676">
        <ele>133.4</ele>
        <time>2023-07-20T08:55:11Z</time>
      </trkpt>
      <trkpt lat="48.37708" lon="2.70679">
        <ele>133.5</ele>
        <time>2023-07-20T08:55:12Z</time>
      </trkpt>
      <trkpt lat="48.37708" lon="2.7068">
        <ele>133.5</ele>
        <time>2023-07-20T08:55:13Z</time>
      </trkpt>
      <trkpt lat="48.37709" lon="2.70681">
        <ele>133.6</ele>
        <time>2023-07-20T08:55:14Z</time>
      </trkpt>
      <trkpt lat="48.3771" lon="2.70681">
        <ele>133.6</ele>
        <time>2023-07-20T08:55:15Z</time>
      </trkpt>
      <trkpt lat="48.37711" lon="2.70682">
        <ele>133.6</ele>
        <time>2023-07-20T08:55:16Z</time>
      </trkpt>
      <trkpt lat="48.37711" lon="2.70682">
        <ele>133.6</ele>
        <time>2023-07-20T08:55:17Z</time>
      </trkpt>
      <trkpt lat="48.37711" lon="2.70684">
        <ele>133.6</ele>
        <time>2023-07-20T08:55:18Z</time>
      </trkpt>
      <trkpt lat="48.37712" lon="2.70684">
        <ele>133.6</ele>
        <time>2023-07-20T08:55:19Z</time>
      </trkpt>
      <trkpt lat="48.37712" lon="2.70687">
        <ele>133.7</ele>
        <time>2023-07-20T08:55:20Z</time>
      </trkpt>
      <trkpt lat="48.37713" lon="2.70688">
        <ele>133.7</ele>
        <time>2023-07-20T08:55:21Z</time>
      </trkpt>
      <trkpt lat="48.37714" lon="2.70688">
        <ele>133.7</ele>
        <time>2023-07-20T08:55:22Z</time>
      </trkpt>
      <trkpt lat="48.37715" lon="2.70689">
        <ele>133.7</ele>
        <time>2023-07-20T08:55:23Z</time>
      </trkpt>
      <trkpt lat="48.37717" lon="2.70691">
        <ele>133.8</ele>
        <time>2023-07-20T08:55:24Z</time>
      </trkpt>
      <trkpt lat="48.37717" lon="2.70691">
        <ele>133.8</ele>
        <time>2023-07-20T08:55:25Z</time>
      </trkpt>
      <trkpt lat="48.37718" lon="2.70692">
        <ele>133.8</ele>
        <time>2023-07-20T08:55:26Z</time>
      </trkpt>
      <trkpt lat="48.37718" lon="2.70693">
        <ele>133.8</ele>
        <time>2023-07-20T08:55:27Z</time>
      </trkpt>
      <trkpt lat="48.37719" lon="2.70693">
        <ele>133.8</ele>
        <time>2023-07-20T08:55:28Z</time>
      </trkpt>
      <trkpt lat="48.37719" lon="2.70695">
        <ele>133.9</ele>
        <time>2023-07-20T08:55:29Z</time>
      </trkpt>
      <trkpt lat="48.37719" lon="2.70696">
        <ele>133.9</ele>
        <time>2023-07-20T08:55:30Z</time>
      </trkpt>
      <trkpt lat="48.37722" lon="2.70696">
        <ele>133.9</ele>
        <time>2023-07-20T08:55:31Z</time>
      </trkpt>
      <trkpt lat="48.37722" lon="2.70697">
        <ele>134</ele>
        <time>2023-07-20T08:55:32Z</time>
      </trkpt>
      <trkpt lat="48.37723" lon="2.70698">
        <ele>134</ele>
        <time>2023-07-20T08:55:33Z</time>
      </trkpt>
      <trkpt lat="48.37725" lon="2.707">
        <ele>134</ele>
        <time>2023-07-20T08:55:34Z</time>
      </trkpt>
      <trkpt lat="48.37726" lon="2.707">
        <ele>134</ele>
        <time>2023-07-20T08:55:35Z</time>
      </trkpt>
      <trkpt lat="48.37726" lon="2.70701">
        <ele>134</ele>
        <time>2023-07-20T08:55:36Z</time>
      </trkpt>
      <trkpt lat="48.37727" lon="2.70702">
        <ele>134.1</ele>
        <time>2023-07-20T08:55:37Z</time>
      </trkpt>
      <trkpt lat="48.37728" lon="2.70702">
        <ele>134.1</ele>
        <time>2023-07-20T08:55:38Z</time>
      </trkpt>
      <trkpt lat="48.37729" lon="2.70702">
        <ele>134.1</ele>
        <time>2023-07-20T08:55:39Z</time>
      </trkpt>
      <trkpt lat="48.3773" lon="2.70703">
        <ele>134.1</ele>
        <time>2023-07-20T08:55:40Z</time>
      </trkpt>
      <trkpt lat="48.37731" lon="2.70703">
        <ele>134.1</ele>
        <time>2023-07-20T08:55:41Z</time>
      </trkpt>
      <trkpt lat="48.37732" lon="2.70703">
        <ele>134.2</ele>
        <time>2023-07-20T08:55:42Z</time>
      </trkpt>
      <trkpt lat="48.37733" lon="2.70704">
        <ele>134.2</ele>
        <time>2023-07-20T08:55:43Z</time>
      </trkpt>
      <trkpt lat="48.37733" lon="2.70704">
        <ele>134.2</ele>
        <time>2023-07-20T08:55:44Z</time>
      </trkpt>
      <trkpt lat="48.37734" lon="2.70705">
        <ele>134.2</ele>
        <time>2023-07-20T08:55:45Z</time>
      </trkpt>
      <trkpt lat="48.37735" lon="2.70706">
        <ele>134.2</ele>
        <time>2023-07-20T08:55:46Z</time>
      </trkpt>
      <trkpt lat="48.37735" lon="2.70707">
        <ele>134.2</ele>
        <time>2023-07-20T08:55:47Z</time>
      </trkpt>
      <trkpt lat="48.37737" lon="2.70709">
        <ele>134.3</ele>
        <time>2023-07-20T08:55:48Z</time>
      </trkpt>
      <trkpt lat="48.37739" lon="2.70712">
        <ele>134.3</ele>
        <time>2023-07-20T08:55:49Z</time>
      </trkpt>
      <trkpt lat="48.37739" lon="2.70713">
        <ele>134.3</ele>
        <time>2023-07-20T08:55:50Z</time>
      </trkpt>
      <trkpt lat="48.3774" lon="2.70715">
        <ele>134.4</ele>
        <time>2023-07-20T08:55:51Z</time>
      </trkpt>
      <trkpt lat="48.3774" lon="2.70716">
        <ele>134.4</ele>
        <time>2023-07-20T08:55:52Z</time>
      </trkpt>
      <trkpt lat="48.37741" lon="2.70717">
        <ele>134.4</ele>
        <time>2023-07-20T08:55:53Z</time>
      </trkpt>
      <trkpt lat="48.37742" lon="2.70717">
        <ele>134.4</ele>
        <time>2023-07-20T08:55:54Z</time>
      </trkpt>
      <trkpt lat="48.37742" lon="2.70718">
        <ele>134.4</ele>
        <time>2023-07-20T08:55:55Z</time>
      </trkpt>
      <trkpt lat="48.37742" lon="2.70718">
        <ele>134.4</ele>
        <time>2023-07-20T08:55:56Z</time>
      </trkpt>
      <trkpt lat="48.37743" lon="2.70718">
        <ele>134.4</ele>
        <time>2023-07-20T08:55:57Z</time>
      </trkpt>
      <trkpt lat="48.37743" lon="2.70719">
        <ele>134.4</ele>
        <time>2023-07-20T08:55:58Z</time>
      </trkpt>
      <trkpt lat="48.37744" lon="2.7072">
        <ele>134.5</ele>
        <time>2023-07-20T08:55:59Z</time>
      </trkpt>
      <trkpt lat="48.37746" lon="2.7072">
        <ele>134.5</ele>
        <time>2023-07-20T08:56:00Z</time>
      </trkpt>
      <trkpt lat="48.37747" lon="2.7072">
        <ele>134.5</ele>
        <time>2023-07-20T08:56:01Z</time>
      </trkpt>
      <trkpt lat="48.37748" lon="2.7072">
        <ele>134.5</ele>
        <time>2023-07-20T08:56:02Z</time>
      </trkpt>
      <trkpt lat="48.3775" lon="2.70721">
        <ele>134.6</ele>
        <time>2023-07-20T08:56:03Z</time>
      </trkpt>
      <trkpt lat="48.37751" lon="2.70721">
        <ele>134.6</ele>
        <time>2023-07-20T08:56:04Z</time>
      </trkpt>
      <trkpt lat="48.37752" lon="2.70722">
        <ele>134.6</ele>
        <time>2023-07-20T08:56:05Z</time>
      </trkpt>
      <trkpt lat="48.37754" lon="2.70723">
        <ele>134.6</ele>
        <time>2023-07-20T08:56:06Z</time>
      </trkpt>
      <trkpt lat="48.37754" lon="2.70724">
        <ele>134.6</ele>
        <time>2023-07-20T08:56:07Z</time>
      </trkpt>
      <trkpt lat="48.37754" lon="2.70724">
        <ele>134.6</ele>
        <time>2023-07-20T08:56:08Z</time>
      </trkpt>
      <trkpt lat="48.37755" lon="2.70725">
        <ele>134.6</ele>
        <time>2023-07-20T08:56:09Z</time>
      </trkpt>
      <trkpt lat="48.37755" lon="2.70726">
        <ele>134.7</ele>
        <time>2023-07-20T08:56:10Z</time>
      </trkpt>
      <trkpt lat="48.37756" lon="2.70728">
        <ele>134.7</ele>
        <time>2023-07-20T08:56:11Z</time>
      </trkpt>
      <trkpt lat="48.37756" lon="2.70728">
        <ele>134.7</ele>
        <time>2023-07-20T08:56:12Z</time>
      </trkpt>
      <trkpt lat="48.37757" lon="2.70729">
        <ele>134.7</ele>
        <time>2023-07-20T08:56:13Z</time>
      </trkpt>
      <trkpt lat="48.37759" lon="2.70729">
        <ele>134.7</ele>
        <time>2023-07-20T08:56:14Z</time>
      </trkpt>
      <trkpt lat="48.3776" lon="2.7073">
        <ele>134.7</ele>
        <time>2023-07-20T08:56:15Z</time>
      </trkpt>
      <trkpt lat="48.37761" lon="2.70732">
        <ele>134.8</ele>
        <time>2023-07-20T08:56:16Z</time>
      </trkpt>
      <trkpt lat="48.37762" lon="2.70733">
        <ele>134.8</ele>
        <time>2023-07-20T08:56:17Z</time>
      </trkpt>
      <trkpt lat="48.37763" lon="2.70734">
        <ele>134.8</ele>
        <time>2023-07-20T08:56:18Z</time>
      </trkpt>
      <trkpt lat="48.37763" lon="2.70735">
        <ele>134.8</ele>
        <time>2023-07-20T08:56:19Z</time>
      </trkpt>
      <trkpt lat="48.37764" lon="2.70736">
        <ele>134.8</ele>
        <time>2023-07-20T08:56:20Z</time>
      </trkpt>
      <trkpt lat="48.37764" lon="2.70737">
        <ele>134.8</ele>
        <time>2023-07-20T08:56:21Z</time>
      </trkpt>
      <trkpt lat="48.37765" lon="2.70738">
        <ele>134.8</ele>
        <time>2023-07-20T08:56:22Z</time>
      </trkpt>
      <trkpt lat="48.37766" lon="2.7074">
        <ele>134.9</ele>
        <time>2023-07-20T08:56:23Z</time>
      </trkpt>
      <trkpt lat="48.37767" lon="2.70741">
        <ele>134.9</ele>
        <time>2023-07-20T08:56:24Z</time>
      </trkpt>
      <trkpt lat="48.37769" lon="2.70742">
        <ele>134.9</ele>
        <time>2023-07-20T08:56:25Z</time>
      </trkpt>
      <trkpt lat="48.3777" lon="2.70742">
        <ele>134.9</ele>
        <time>2023-07-20T08:56:26Z</time>
      </trkpt>
      <trkpt lat="48.3777" lon="2.70742">
        <ele>134.9</ele>
        <time>2023-07-20T08:56:27Z</time>
      </trkpt>
      <trkpt lat="48.37771" lon="2.70743">
        <ele>134.9</ele>
        <time>2023-07-20T08:56:28Z</time>
      </trkpt>
      <trkpt lat="48.37772" lon="2.70743">
        <ele>134.9</ele>
        <time>2023-07-20T08:56:29Z</time>
      </trkpt>
      <trkpt lat="48.37772" lon="2.70744">
        <ele>134.9</ele>
        <time>2023-07-20T08:56:30Z</time>
      </trkpt>
      <trkpt lat="48.37773" lon="2.70745">
        <ele>134.9</ele>
        <time>2023-07-20T08:56:31Z</time>
      </trkpt>
      <trkpt lat="48.37773" lon="2.70747">
        <ele>134.9</ele>
        <time>2023-07-20T08:56:32Z</time>
      </trkpt>
      <trkpt lat="48.37774" lon="2.70748">
        <ele>135</ele>
        <time>2023-07-20T08:56:33Z</time>
      </trkpt>
      <trkpt lat="48.37775" lon="2.70749">
        <ele>135</ele>
        <time>2023-07-20T08:56:34Z</time>
      </trkpt>
      <trkpt lat="48.37778" lon="2.70748">
        <ele>135</ele>
        <time>2023-07-20T08:56:35Z</time>
      </trkpt>
      <trkpt lat="48.37779" lon="2.70749">
        <ele>135</ele>
        <time>2023-07-20T08:56:36Z</time>
      </trkpt>
      <trkpt lat="48.3778" lon="2.7075">
        <ele>135</ele>
        <time>2023-07-20T08:56:37Z</time>
      </trkpt>
      <trkpt lat="48.3778" lon="2.70751">
        <ele>135</ele>
        <time>2023-07-20T08:56:38Z</time>
      </trkpt>
      <trkpt lat="48.37781" lon="2.70751">
        <ele>135</ele>
        <time>2023-07-20T08:56:39Z</time>
      </trkpt>
      <trkpt lat="48.37782" lon="2.70753">
        <ele>135</ele>
        <time>2023-07-20T08:56:40Z</time>
      </trkpt>
      <trkpt lat="48.37783" lon="2.70755">
        <ele>135.1</ele>
        <time>2023-07-20T08:56:41Z</time>
      </trkpt>
      <trkpt lat="48.37784" lon="2.70755">
        <ele>135.1</ele>
        <time>2023-07-20T08:56:42Z</time>
      </trkpt>
      <trkpt lat="48.37784" lon="2.70756">
        <ele>135.1</ele>
        <time>2023-07-20T08:56:43Z</time>
      </trkpt>
      <trkpt lat="48.37785" lon="2.70757">
        <ele>135.1</ele>
        <time>2023-07-20T08:56:44Z</time>
      </trkpt>
      <trkpt lat="48.37786" lon="2.70758">
        <ele>135.1</ele>
        <time>2023-07-20T08:56:45Z</time>
      </trkpt>
      <trkpt lat="48.37788" lon="2.7076">
        <ele>135.1</ele>
        <time>2023-07-20T08:56:46Z</time>
      </trkpt>
      <trkpt lat="48.37789" lon="2.70763">
        <ele>135.1</ele>
        <time>2023-07-20T08:56:47Z</time>
      </trkpt>
      <trkpt lat="48.3779" lon="2.70764">
        <ele>135.1</ele>
        <time>2023-07-20T08:56:48Z</time>
      </trkpt>
      <trkpt lat="48.37792" lon="2.70768">
        <ele>135.1</ele>
        <time>2023-07-20T08:56:49Z</time>
      </trkpt>
      <trkpt lat="48.37792" lon="2.7077">
        <ele>135.1</ele>
        <time>2023-07-20T08:56:50Z</time>
      </trkpt>
      <trkpt lat="48.37793" lon="2.70773">
        <ele>135.2</ele>
        <time>2023-07-20T08:56:51Z</time>
      </trkpt>
      <trkpt lat="48.37794" lon="2.70774">
        <ele>135.2</ele>
        <time>2023-07-20T08:56:52Z</time>
      </trkpt>
      <trkpt lat="48.37795" lon="2.70777">
        <ele>135.2</ele>
        <time>2023-07-20T08:56:53Z</time>
      </trkpt>
      <trkpt lat="48.37796" lon="2.70778">
        <ele>135.2</ele>
        <time>2023-07-20T08:56:54Z</time>
      </trkpt>
      <trkpt lat="48.37797" lon="2.70779">
        <ele>135.2</ele>
        <time>2023-07-20T08:56:55Z</time>
      </trkpt>
      <trkpt lat="48.37798" lon="2.7078">
        <ele>135.2</ele>
        <time>2023-07-20T08:56:56Z</time>
      </trkpt>
      <trkpt lat="48.37799" lon="2.70781">
        <ele>135.2</ele>
        <time>2023-07-20T08:56:57Z</time>
      </trkpt>
      <trkpt lat="48.37799" lon="2.70782">
        <ele>135.2</ele>
        <time>2023-07-20T08:56:58Z</time>
      </trkpt>
      <trkpt lat="48.378" lon="2.70783">
        <ele>135.2</ele>
        <time>2023-07-20T08:56:59Z</time>
      </trkpt>
      <trkpt lat="48.37802" lon="2.70784">
        <ele>135.2</ele>
        <time>2023-07-20T08:57:00Z</time>
      </trkpt>
      <trkpt lat="48.37803" lon="2.70784">
        <ele>135.2</ele>
        <time>2023-07-20T08:57:01Z</time>
      </trkpt>
      <trkpt lat="48.37803" lon="2.70784">
        <ele>135.3</ele>
        <time>2023-07-20T08:57:02Z</time>
      </trkpt>
      <trkpt lat="48.37804" lon="2.70785">
        <ele>135.3</ele>
        <time>2023-07-20T08:57:03Z</time>
      </trkpt>
      <trkpt lat="48.37805" lon="2.70786">
        <ele>135.3</ele>
        <time>2023-07-20T08:57:04Z</time>
      </trkpt>
      <trkpt lat="48.37807" lon="2.70787">
        <ele>135.3</ele>
        <time>2023-07-20T08:57:05Z</time>
      </trkpt>
      <trkpt lat="48.37807" lon="2.70787">
        <ele>135.3</ele>
        <time>2023-07-20T08:57:06Z</time>
      </trkpt>
      <trkpt lat="48.37809" lon="2.70787">
        <ele>135.3</ele>
        <time>2023-07-20T08:57:07Z</time>
      </trkpt>
      <trkpt lat="48.3781" lon="2.70788">
        <ele>135.3</ele>
        <time>2023-07-20T08:57:08Z</time>
      </trkpt>
      <trkpt lat="48.37811" lon="2.70787">
        <ele>135.3</ele>
        <time>2023-07-20T08:57:09Z</time>
      </trkpt>
      <trkpt lat="48.37812" lon="2.70789">
        <ele>135.4</ele>
        <time>2023-07-20T08:57:10Z</time>
      </trkpt>
      <trkpt lat="48.37814" lon="2.70789">
        <ele>135.4</ele>
        <time>2023-07-20T08:57:11Z</time>
      </trkpt>
      <trkpt lat="48.37815" lon="2.70789">
        <ele>135.4</ele>
        <time>2023-07-20T08:57:12Z</time>
      </trkpt>
      <trkpt lat="48.37815" lon="2.7079">
        <ele>135.4</ele>
        <time>2023-07-20T08:57:13Z</time>
      </trkpt>
      <trkpt lat="48.37816" lon="2.7079">
        <ele>135.4</ele>
        <time>2023-07-20T08:57:14Z</time>
      </trkpt>
      <trkpt lat="48.37817" lon="2.7079">
        <ele>135.4</ele>
        <time>2023-07-20T08:57:15Z</time>
      </trkpt>
      <trkpt lat="48.37818" lon="2.7079">
        <ele>135.4</ele>
        <time>2023-07-20T08:57:16Z</time>
      </trkpt>
      <trkpt lat="48.3782" lon="2.7079">
        <ele>135.4</ele>
        <time>2023-07-20T08:57:17Z</time>
      </trkpt>
      <trkpt lat="48.37821" lon="2.70789">
        <ele>135.4</ele>
        <time>2023-07-20T08:57:18Z</time>
      </trkpt>
      <trkpt lat="48.37821" lon="2.70789">
        <ele>135.4</ele>
        <time>2023-07-20T08:57:19Z</time>
      </trkpt>
      <trkpt lat="48.37823" lon="2.7079">
        <ele>135.4</ele>
        <time>2023-07-20T08:57:20Z</time>
      </trkpt>
      <trkpt lat="48.37824" lon="2.70791">
        <ele>135.4</ele>
        <time>2023-07-20T08:57:21Z</time>
      </trkpt>
      <trkpt lat="48.37824" lon="2.70792">
        <ele>135.4</ele>
        <time>2023-07-20T08:57:22Z</time>
      </trkpt>
      <trkpt lat="48.37826" lon="2.70794">
        <ele>135.4</ele>
        <time>2023-07-20T08:57:23Z</time>
      </trkpt>
      <trkpt lat="48.37827" lon="2.70794">
        <ele>135.4</ele>
        <time>2023-07-20T08:57:24Z</time>
      </trkpt>
      <trkpt lat="48.37827" lon="2.70794">
        <ele>135.4</ele>
        <time>2023-07-20T08:57:25Z</time>
      </trkpt>
      <trkpt lat="48.37828" lon="2.70795">
        <ele>135.4</ele>
        <time>2023-07-20T08:57:26Z</time>
      </trkpt>
      <trkpt lat="48.37829" lon="2.70796">
        <ele>135.4</ele>
        <time>2023-07-20T08:57:27Z</time>
      </trkpt>
      <trkpt lat="48.3783" lon="2.70797">
        <ele>135.4</ele>
        <time>2023-07-20T08:57:28Z</time>
      </trkpt>
      <trkpt lat="48.3783" lon="2.70798">
        <ele>135.4</ele>
        <time>2023-07-20T08:57:29Z</time>
      </trkpt>
      <trkpt lat="48.37831" lon="2.70798">
        <ele>135.4</ele>
        <time>2023-07-20T08:57:30Z</time>
      </trkpt>
      <trkpt lat="48.37832" lon="2.70798">
        <ele>135.4</ele>
        <time>2023-07-20T08:57:31Z</time>
      </trkpt>
      <trkpt lat="48.37832" lon="2.70799">
        <ele>135.4</ele>
        <time>2023-07-20T08:57:32Z</time>
      </trkpt>
      <trkpt lat="48.37833" lon="2.70799">
        <ele>135.4</ele>
        <time>2023-07-20T08:57:33Z</time>
      </trkpt>
      <trkpt lat="48.37834" lon="2.708">
        <ele>135.4</ele>
        <time>2023-07-20T08:57:34Z</time>
      </trkpt>
      <trkpt lat="48.37835" lon="2.70801">
        <ele>135.4</ele>
        <time>2023-07-20T08:57:35Z</time>
      </trkpt>
      <trkpt lat="48.37836" lon="2.70801">
        <ele>135.4</ele>
        <time>2023-07-20T08:57:36Z</time>
      </trkpt>
      <trkpt lat="48.37837" lon="2.70801">
        <ele>135.4</ele>
        <time>2023-07-20T08:57:37Z</time>
      </trkpt>
      <trkpt lat="48.37839" lon="2.70802">
        <ele>135.4</ele>
        <time>2023-07-20T08:57:38Z</time>
      </trkpt>
      <trkpt lat="48.3784" lon="2.70803">
        <ele>135.4</ele>
        <time>2023-07-20T08:57:39Z</time>
      </trkpt>
      <trkpt lat="48.37841" lon="2.70804">
        <ele>135.4</ele>
        <time>2023-07-20T08:57:40Z</time>
      </trkpt>
      <trkpt lat="48.37841" lon="2.70804">
        <ele>135.4</ele>
        <time>2023-07-20T08:57:41Z</time>
      </trkpt>
      <trkpt lat="48.37843" lon="2.70805">
        <ele>135.4</ele>
        <time>2023-07-20T08:57:42Z</time>
      </trkpt>
      <trkpt lat="48.37844" lon="2.70805">
        <ele>135.4</ele>
        <time>2023-07-20T08:57:43Z</time>
      </trkpt>
      <trkpt lat="48.37845" lon="2.70806">
        <ele>135.4</ele>
        <time>2023-07-20T08:57:44Z</time>
      </trkpt>
      <trkpt lat="48.37847" lon="2.70806">
        <ele>135.4</ele>
        <time>2023-07-20T08:57:45Z</time>
      </trkpt>
      <trkpt lat="48.37848" lon="2.70807">
        <ele>135.4</ele>
        <time>2023-07-20T08:57:46Z</time>
      </trkpt>
      <trkpt lat="48.37849" lon="2.70808">
        <ele>135.4</ele>
        <time>2023-07-20T08:57:47Z</time>
      </trkpt>
      <trkpt lat="48.3785" lon="2.7081">
        <ele>135.4</ele>
        <time>2023-07-20T08:57:48Z</time>
      </trkpt>
      <trkpt lat="48.37851" lon="2.70811">
        <ele>135.4</ele>
        <time>2023-07-20T08:57:49Z</time>
      </trkpt>
      <trkpt lat="48.37851" lon="2.70812">
        <ele>135.4</ele>
        <time>2023-07-20T08:57:50Z</time>
      </trkpt>
      <trkpt lat="48.37852" lon="2.70813">
        <ele>135.4</ele>
        <time>2023-07-20T08:57:51Z</time>
      </trkpt>
      <trkpt lat="48.37854" lon="2.70815">
        <ele>135.4</ele>
        <time>2023-07-20T08:57:52Z</time>
      </trkpt>
      <trkpt lat="48.37854" lon="2.70817">
        <ele>135.4</ele>
        <time>2023-07-20T08:57:53Z</time>
      </trkpt>
      <trkpt lat="48.37854" lon="2.70818">
        <ele>135.4</ele>
        <time>2023-07-20T08:57:54Z</time>
      </trkpt>
      <trkpt lat="48.37855" lon="2.7082">
        <ele>135.4</ele>
        <time>2023-07-20T08:57:55Z</time>
      </trkpt>
      <trkpt lat="48.37856" lon="2.70822">
        <ele>135.4</ele>
        <time>2023-07-20T08:57:56Z</time>
      </trkpt>
      <trkpt lat="48.37857" lon="2.70823">
        <ele>135.4</ele>
        <time>2023-07-20T08:57:57Z</time>
      </trkpt>
      <trkpt lat="48.37858" lon="2.70826">
        <ele>135.4</ele>
        <time>2023-07-20T08:57:58Z</time>
      </trkpt>
      <trkpt lat="48.37859" lon="2.70826">
        <ele>135.4</ele>
        <time>2023-07-20T08:57:59Z</time>
      </trkpt>
      <trkpt lat="48.3786" lon="2.70828">
        <ele>135.4</ele>
        <time>2023-07-20T08:58:00Z</time>
      </trkpt>
      <trkpt lat="48.3786" lon="2.70829">
        <ele>135.4</ele>
        <time>2023-07-20T08:58:01Z</time>
      </trkpt>
      <trkpt lat="48.3786" lon="2.70831">
        <ele>135.4</ele>
        <time>2023-07-20T08:58:02Z</time>
      </trkpt>
      <trkpt lat="48.3786" lon="2.70832">
        <ele>135.4</ele>
        <time>2023-07-20T08:58:03Z</time>
      </trkpt>
      <trkpt lat="48.3786" lon="2.70833">
        <ele>135.4</ele>
        <time>2023-07-20T08:58:04Z</time>
      </trkpt>
      <trkpt lat="48.37861" lon="2.70834">
        <ele>135.4</ele>
        <time>2023-07-20T08:58:05Z</time>
      </trkpt>
      <trkpt lat="48.37862" lon="2.70835">
        <ele>135.4</ele>
        <time>2023-07-20T08:58:06Z</time>
      </trkpt>
      <trkpt lat="48.37863" lon="2.70836">
        <ele>135.4</ele>
        <time>2023-07-20T08:58:07Z</time>
      </trkpt>
      <trkpt lat="48.37864" lon="2.70837">
        <ele>135.4</ele>
        <time>2023-07-20T08:58:08Z</time>
      </trkpt>
      <trkpt lat="48.37865" lon="2.70838">
        <ele>135.4</ele>
        <time>2023-07-20T08:58:09Z</time>
      </trkpt>
      <trkpt lat="48.37866" lon="2.70838">
        <ele>135.4</ele>
        <time>2023-07-20T08:58:10Z</time>
      </trkpt>
      <trkpt lat="48.37867" lon="2.70839">
        <ele>135.4</ele>
        <time>2023-07-20T08:58:11Z</time>
      </trkpt>
      <trkpt lat="48.37868" lon="2.7084">
        <ele>135.4</ele>
        <time>2023-07-20T08:58:12Z</time>
      </trkpt>
      <trkpt lat="48.37869" lon="2.7084">
        <ele>135.4</ele>
        <time>2023-07-20T08:58:13Z</time>
      </trkpt>
      <trkpt lat="48.3787" lon="2.7084">
        <ele>135.4</ele>
        <time>2023-07-20T08:58:14Z</time>
      </trkpt>
      <trkpt lat="48.37871" lon="2.70841">
        <ele>135.4</ele>
        <time>2023-07-20T08:58:15Z</time>
      </trkpt>
      <trkpt lat="48.37872" lon="2.70842">
        <ele>135.4</ele>
        <time>2023-07-20T08:58:16Z</time>
      </trkpt>
      <trkpt lat="48.37873" lon="2.70844">
        <ele>135.4</ele>
        <time>2023-07-20T08:58:17Z</time>
      </trkpt>
      <trkpt lat="48.37874" lon="2.70845">
        <ele>135.4</ele>
        <time>2023-07-20T08:58:18Z</time>
      </trkpt>
      <trkpt lat="48.37875" lon="2.70846">
        <ele>135.4</ele>
        <time>2023-07-20T08:58:19Z</time>
      </trkpt>
      <trkpt lat="48.37877" lon="2.70847">
        <ele>135.4</ele>
        <time>2023-07-20T08:58:20Z</time>
      </trkpt>
      <trkpt lat="48.37878" lon="2.70849">
        <ele>135.4</ele>
        <time>2023-07-20T08:58:21Z</time>
      </trkpt>
      <trkpt lat="48.37879" lon="2.7085">
        <ele>135.4</ele>
        <time>2023-07-20T08:58:22Z</time>
      </trkpt>
      <trkpt lat="48.37879" lon="2.70851">
        <ele>135.4</ele>
        <time>2023-07-20T08:58:23Z</time>
      </trkpt>
      <trkpt lat="48.3788" lon="2.70852">
        <ele>135.4</ele>
        <time>2023-07-20T08:58:24Z</time>
      </trkpt>
      <trkpt lat="48.37881" lon="2.70853">
        <ele>135.4</ele>
        <time>2023-07-20T08:58:25Z</time>
      </trkpt>
      <trkpt lat="48.37882" lon="2.70854">
        <ele>135.4</ele>
        <time>2023-07-20T08:58:26Z</time>
      </trkpt>
      <trkpt lat="48.37882" lon="2.70855">
        <ele>135.4</ele>
        <time>2023-07-20T08:58:27Z</time>
      </trkpt>
      <trkpt lat="48.37883" lon="2.70856">
        <ele>135.4</ele>
        <time>2023-07-20T08:58:28Z</time>
      </trkpt>
      <trkpt lat="48.37884" lon="2.70857">
        <ele>135.4</ele>
        <time>2023-07-20T08:58:29Z</time>
      </trkpt>
      <trkpt lat="48.37885" lon="2.70859">
        <ele>135.4</ele>
        <time>2023-07-20T08:58:30Z</time>
      </trkpt>
      <trkpt lat="48.37887" lon="2.70859">
        <ele>135.4</ele>
        <time>2023-07-20T08:58:31Z</time>
      </trkpt>
      <trkpt lat="48.37887" lon="2.7086">
        <ele>135.3</ele>
        <time>2023-07-20T08:58:32Z</time>
      </trkpt>
      <trkpt lat="48.37888" lon="2.70861">
        <ele>135.3</ele>
        <time>2023-07-20T08:58:33Z</time>
      </trkpt>
      <trkpt lat="48.37888" lon="2.70861">
        <ele>135.3</ele>
        <time>2023-07-20T08:58:34Z</time>
      </trkpt>
      <trkpt lat="48.37888" lon="2.70862">
        <ele>135.3</ele>
        <time>2023-07-20T08:58:35Z</time>
      </trkpt>
      <trkpt lat="48.37889" lon="2.70863">
        <ele>135.3</ele>
        <time>2023-07-20T08:58:36Z</time>
      </trkpt>
      <trkpt lat="48.37889" lon="2.70865">
        <ele>135.3</ele>
        <time>2023-07-20T08:58:37Z</time>
      </trkpt>
      <trkpt lat="48.3789" lon="2.70865">
        <ele>135.3</ele>
        <time>2023-07-20T08:58:38Z</time>
      </trkpt>
      <trkpt lat="48.37892" lon="2.70866">
        <ele>135.3</ele>
        <time>2023-07-20T08:58:39Z</time>
      </trkpt>
      <trkpt lat="48.37892" lon="2.70867">
        <ele>135.3</ele>
        <time>2023-07-20T08:58:40Z</time>
      </trkpt>
      <trkpt lat="48.37894" lon="2.70868">
        <ele>135.3</ele>
        <time>2023-07-20T08:58:41Z</time>
      </trkpt>
      <trkpt lat="48.37895" lon="2.70869">
        <ele>135.3</ele>
        <time>2023-07-20T08:58:42Z</time>
      </trkpt>
      <trkpt lat="48.37895" lon="2.7087">
        <ele>135.3</ele>
        <time>2023-07-20T08:58:43Z</time>
      </trkpt>
      <trkpt lat="48.37898" lon="2.70871">
        <ele>135.3</ele>
        <time>2023-07-20T08:58:44Z</time>
      </trkpt>
      <trkpt lat="48.37899" lon="2.70872">
        <ele>135.3</ele>
        <time>2023-07-20T08:58:45Z</time>
      </trkpt>
      <trkpt lat="48.379" lon="2.70874">
        <ele>135.2</ele>
        <time>2023-07-20T08:58:46Z</time>
      </trkpt>
      <trkpt lat="48.37901" lon="2.70875">
        <ele>135.2</ele>
        <time>2023-07-20T08:58:47Z</time>
      </trkpt>
      <trkpt lat="48.37902" lon="2.70876">
        <ele>135.2</ele>
        <time>2023-07-20T08:58:48Z</time>
      </trkpt>
      <trkpt lat="48.37903" lon="2.70877">
        <ele>135.2</ele>
        <time>2023-07-20T08:58:49Z</time>
      </trkpt>
      <trkpt lat="48.37904" lon="2.70878">
        <ele>135.2</ele>
        <time>2023-07-20T08:58:50Z</time>
      </trkpt>
      <trkpt lat="48.37905" lon="2.70879">
        <ele>135.2</ele>
        <time>2023-07-20T08:58:51Z</time>
      </trkpt>
      <trkpt lat="48.37906" lon="2.70881">
        <ele>135.2</ele>
        <time>2023-07-20T08:58:52Z</time>
      </trkpt>
      <trkpt lat="48.37906" lon="2.70882">
        <ele>135.2</ele>
        <time>2023-07-20T08:58:53Z</time>
      </trkpt>
      <trkpt lat="48.37907" lon="2.70882">
        <ele>135.2</ele>
        <time>2023-07-20T08:58:54Z</time>
      </trkpt>
      <trkpt lat="48.37908" lon="2.70882">
        <ele>135.2</ele>
        <time>2023-07-20T08:58:55Z</time>
      </trkpt>
      <trkpt lat="48.37909" lon="2.70883">
        <ele>135.2</ele>
        <time>2023-07-20T08:58:56Z</time>
      </trkpt>
      <trkpt lat="48.3791" lon="2.70884">
        <ele>135.2</ele>
        <time>2023-07-20T08:58:57Z</time>
      </trkpt>
      <trkpt lat="48.37911" lon="2.70884">
        <ele>135.2</ele>
        <time>2023-07-20T08:58:58Z</time>
      </trkpt>
      <trkpt lat="48.37911" lon="2.70885">
        <ele>135.2</ele>
        <time>2023-07-20T08:58:59Z</time>
      </trkpt>
      <trkpt lat="48.37912" lon="2.70885">
        <ele>135.2</ele>
        <time>2023-07-20T08:59:00Z</time>
      </trkpt>
      <trkpt lat="48.37913" lon="2.70886">
        <ele>135.2</ele>
        <time>2023-07-20T08:59:01Z</time>
      </trkpt>
      <trkpt lat="48.37914" lon="2.70886">
        <ele>135.2</ele>
        <time>2023-07-20T08:59:02Z</time>
      </trkpt>
      <trkpt lat="48.37915" lon="2.70888">
        <ele>135.2</ele>
        <time>2023-07-20T08:59:03Z</time>
      </trkpt>
      <trkpt lat="48.37915" lon="2.70889">
        <ele>135.2</ele>
        <time>2023-07-20T08:59:04Z</time>
      </trkpt>
      <trkpt lat="48.37916" lon="2.70889">
        <ele>135.1</ele>
        <time>2023-07-20T08:59:05Z</time>
      </trkpt>
      <trkpt lat="48.37918" lon="2.70889">
        <ele>135.1</ele>
        <time>2023-07-20T08:59:06Z</time>
      </trkpt>
      <trkpt lat="48.37918" lon="2.70889">
        <ele>135.1</ele>
        <time>2023-07-20T08:59:07Z</time>
      </trkpt>
      <trkpt lat="48.37919" lon="2.7089">
        <ele>135.1</ele>
        <time>2023-07-20T08:59:08Z</time>
      </trkpt>
      <trkpt lat="48.37921" lon="2.70891">
        <ele>135.1</ele>
        <time>2023-07-20T08:59:09Z</time>
      </trkpt>
      <trkpt lat="48.37922" lon="2.70891">
        <ele>135.1</ele>
        <time>2023-07-20T08:59:10Z</time>
      </trkpt>
      <trkpt lat="48.37923" lon="2.70893">
        <ele>135.1</ele>
        <time>2023-07-20T08:59:11Z</time>
      </trkpt>
      <trkpt lat="48.37923" lon="2.70893">
        <ele>135.1</ele>
        <time>2023-07-20T08:59:12Z</time>
      </trkpt>
      <trkpt lat="48.37925" lon="2.70894">
        <ele>135.1</ele>
        <time>2023-07-20T08:59:13Z</time>
      </trkpt>
      <trkpt lat="48.37926" lon="2.70895">
        <ele>135.1</ele>
        <time>2023-07-20T08:59:14Z</time>
      </trkpt>
      <trkpt lat="48.37926" lon="2.70895">
        <ele>135</ele>
        <time>2023-07-20T08:59:15Z</time>
      </trkpt>
      <trkpt lat="48.37927" lon="2.70896">
        <ele>135</ele>
        <time>2023-07-20T08:59:16Z</time>
      </trkpt>
      <trkpt lat="48.37928" lon="2.70896">
        <ele>135</ele>
        <time>2023-07-20T08:59:17Z</time>
      </trkpt>
      <trkpt lat="48.3793" lon="2.70897">
        <ele>135</ele>
        <time>2023-07-20T08:59:18Z</time>
      </trkpt>
      <trkpt lat="48.37931" lon="2.70898">
        <ele>135</ele>
        <time>2023-07-20T08:59:19Z</time>
      </trkpt>
      <trkpt lat="48.37931" lon="2.70899">
        <ele>135</ele>
        <time>2023-07-20T08:59:20Z</time>
      </trkpt>
      <trkpt lat="48.37933" lon="2.70899">
        <ele>135</ele>
        <time>2023-07-20T08:59:21Z</time>
      </trkpt>
      <trkpt lat="48.37934" lon="2.70901">
        <ele>135</ele>
        <time>2023-07-20T08:59:22Z</time>
      </trkpt>
      <trkpt lat="48.37935" lon="2.70903">
        <ele>135</ele>
        <time>2023-07-20T08:59:23Z</time>
      </trkpt>
      <trkpt lat="48.37936" lon="2.70903">
        <ele>135</ele>
        <time>2023-07-20T08:59:24Z</time>
      </trkpt>
      <trkpt lat="48.37937" lon="2.70903">
        <ele>134.9</ele>
        <time>2023-07-20T08:59:25Z</time>
      </trkpt>
      <trkpt lat="48.37938" lon="2.70904">
        <ele>134.9</ele>
        <time>2023-07-20T08:59:26Z</time>
      </trkpt>
      <trkpt lat="48.37938" lon="2.70905">
        <ele>134.9</ele>
        <time>2023-07-20T08:59:27Z</time>
      </trkpt>
      <trkpt lat="48.37939" lon="2.70905">
        <ele>134.9</ele>
        <time>2023-07-20T08:59:28Z</time>
      </trkpt>
      <trkpt lat="48.3794" lon="2.70906">
        <ele>134.9</ele>
        <time>2023-07-20T08:59:29Z</time>
      </trkpt>
      <trkpt lat="48.37942" lon="2.70908">
        <ele>134.9</ele>
        <time>2023-07-20T08:59:30Z</time>
      </trkpt>
      <trkpt lat="48.37943" lon="2.70909">
        <ele>134.9</ele>
        <time>2023-07-20T08:59:31Z</time>
      </trkpt>
      <trkpt lat="48.37943" lon="2.7091">
        <ele>134.9</ele>
        <time>2023-07-20T08:59:32Z</time>
      </trkpt>
      <trkpt lat="48.37943" lon="2.70911">
        <ele>134.9</ele>
        <time>2023-07-20T08:59:33Z</time>
      </trkpt>
      <trkpt lat="48.37943" lon="2.70912">
        <ele>134.9</ele>
        <time>2023-07-20T08:59:34Z</time>
      </trkpt>
      <trkpt lat="48.37944" lon="2.70913">
        <ele>134.9</ele>
        <time>2023-07-20T08:59:35Z</time>
      </trkpt>
      <trkpt lat="48.37945" lon="2.70914">
        <ele>134.9</ele>
        <time>2023-07-20T08:59:36Z</time>
      </trkpt>
      <trkpt lat="48.37946" lon="2.70915">
        <ele>134.9</ele>
        <time>2023-07-20T08:59:37Z</time>
      </trkpt>
      <trkpt lat="48.37946" lon="2.70915">
        <ele>134.9</ele>
        <time>2023-07-20T08:59:38Z</time>
      </trkpt>
      <trkpt lat="48.37948" lon="2.70917">
        <ele>134.8</ele>
        <time>2023-07-20T08:59:39Z</time>
      </trkpt>
      <trkpt lat="48.37949" lon="2.70919">
        <ele>134.8</ele>
        <time>2023-07-20T08:59:40Z</time>
      </trkpt>
      <trkpt lat="48.3795" lon="2.7092">
        <ele>134.8</ele>
        <time>2023-07-20T08:59:41Z</time>
      </trkpt>
      <trkpt lat="48.3795" lon="2.70921">
        <ele>134.8</ele>
        <time>2023-07-20T08:59:42Z</time>
      </trkpt>
      <trkpt lat="48.3795" lon="2.70922">
        <ele>134.8</ele>
        <time>2023-07-20T08:59:43Z</time>
      </trkpt>
      <trkpt lat="48.3795" lon="2.70924">
        <ele>134.8</ele>
        <time>2023-07-20T08:59:44Z</time>
      </trkpt>
      <trkpt lat="48.37951" lon="2.70924">
        <ele>134.8</ele>
        <time>2023-07-20T08:59:45Z</time>
      </trkpt>
      <trkpt lat="48.37952" lon="2.70927">
        <ele>134.8</ele>
        <time>2023-07-20T08:59:46Z</time>
      </trkpt>
      <trkpt lat="48.37953" lon="2.70928">
        <ele>134.8</ele>
        <time>2023-07-20T08:59:47Z</time>
      </trkpt>
      <trkpt lat="48.37953" lon="2.7093">
        <ele>134.8</ele>
        <time>2023-07-20T08:59:48Z</time>
      </trkpt>
      <trkpt lat="48.37954" lon="2.70931">
        <ele>134.8</ele>
        <time>2023-07-20T08:59:49Z</time>
      </trkpt>
      <trkpt lat="48.37954" lon="2.70933">
        <ele>134.8</ele>
        <time>2023-07-20T08:59:50Z</time>
      </trkpt>
      <trkpt lat="48.37955" lon="2.70933">
        <ele>134.8</ele>
        <time>2023-07-20T08:59:51Z</time>
      </trkpt>
      <trkpt lat="48.37957" lon="2.70934">
        <ele>134.8</ele>
        <time>2023-07-20T08:59:52Z</time>
      </trkpt>
      <trkpt lat="48.37958" lon="2.70935">
        <ele>134.7</ele>
        <time>2023-07-20T08:59:53Z</time>
      </trkpt>
      <trkpt lat="48.37959" lon="2.70936">
        <ele>134.7</ele>
        <time>2023-07-20T08:59:54Z</time>
      </trkpt>
      <trkpt lat="48.37959" lon="2.70937">
        <ele>134.7</ele>
        <time>2023-07-20T08:59:55Z</time>
      </trkpt>
      <trkpt lat="48.3796" lon="2.70938">
        <ele>134.7</ele>
        <time>2023-07-20T08:59:56Z</time>
      </trkpt>
      <trkpt lat="48.3796" lon="2.70938">
        <ele>134.7</ele>
        <time>2023-07-20T08:59:57Z</time>
      </trkpt>
      <trkpt lat="48.37962" lon="2.7094">
        <ele>134.7</ele>
        <time>2023-07-20T08:59:58Z</time>
      </trkpt>
      <trkpt lat="48.37963" lon="2.70941">
        <ele>134.7</ele>
        <time>2023-07-20T08:59:59Z</time>
      </trkpt>
      <trkpt lat="48.37964" lon="2.70942">
        <ele>134.7</ele>
        <time>2023-07-20T09:00:00Z</time>
      </trkpt>
      <trkpt lat="48.37965" lon="2.70944">
        <ele>134.7</ele>
        <time>2023-07-20T09:00:01Z</time>
      </trkpt>
      <trkpt lat="48.37966" lon="2.70945">
        <ele>134.6</ele>
        <time>2023-07-20T09:00:02Z</time>
      </trkpt>
      <trkpt lat="48.37966" lon="2.70945">
        <ele>134.6</ele>
        <time>2023-07-20T09:00:03Z</time>
      </trkpt>
      <trkpt lat="48.37968" lon="2.70947">
        <ele>134.6</ele>
        <time>2023-07-20T09:00:04Z</time>
      </trkpt>
      <trkpt lat="48.37968" lon="2.70948">
        <ele>134.6</ele>
        <time>2023-07-20T09:00:05Z</time>
      </trkpt>
      <trkpt lat="48.37968" lon="2.70949">
        <ele>134.6</ele>
        <time>2023-07-20T09:00:06Z</time>
      </trkpt>
      <trkpt lat="48.37969" lon="2.7095">
        <ele>134.6</ele>
        <time>2023-07-20T09:00:07Z</time>
      </trkpt>
      <trkpt lat="48.3797" lon="2.70951">
        <ele>134.6</ele>
        <time>2023-07-20T09:00:08Z</time>
      </trkpt>
      <trkpt lat="48.37971" lon="2.70952">
        <ele>134.6</ele>
        <time>2023-07-20T09:00:09Z</time>
      </trkpt>
      <trkpt lat="48.37973" lon="2.70954">
        <ele>134.5</ele>
        <time>2023-07-20T09:00:10Z</time>
      </trkpt>
      <trkpt lat="48.37974" lon="2.70955">
        <ele>134.5</ele>
        <time>2023-07-20T09:00:11Z</time>
      </trkpt>
      <trkpt lat="48.37975" lon="2.70956">
        <ele>134.5</ele>
        <time>2023-07-20T09:00:12Z</time>
      </trkpt>
      <trkpt lat="48.37976" lon="2.70957">
        <ele>134.5</ele>
        <time>2023-07-20T09:00:13Z</time>
      </trkpt>
      <trkpt lat="48.37977" lon="2.70958">
        <ele>134.5</ele>
        <time>2023-07-20T09:00:14Z</time>
      </trkpt>
      <trkpt lat="48.37978" lon="2.70958">
        <ele>134.5</ele>
        <time>2023-07-20T09:00:15Z</time>
      </trkpt>
      <trkpt lat="48.37979" lon="2.70959">
        <ele>134.5</ele>
        <time>2023-07-20T09:00:16Z</time>
      </trkpt>
      <trkpt lat="48.3798" lon="2.7096">
        <ele>134.5</ele>
        <time>2023-07-20T09:00:17Z</time>
      </trkpt>
      <trkpt lat="48.37981" lon="2.7096">
        <ele>134.4</ele>
        <time>2023-07-20T09:00:18Z</time>
      </trkpt>
      <trkpt lat="48.37982" lon="2.7096">
        <ele>134.4</ele>
        <time>2023-07-20T09:00:19Z</time>
      </trkpt>
      <trkpt lat="48.37983" lon="2.7096">
        <ele>134.4</ele>
        <time>2023-07-20T09:00:20Z</time>
      </trkpt>
      <trkpt lat="48.37984" lon="2.7096">
        <ele>134.4</ele>
        <time>2023-07-20T09:00:21Z</time>
      </trkpt>
      <trkpt lat="48.37985" lon="2.7096">
        <ele>134.4</ele>
        <time>2023-07-20T09:00:22Z</time>
      </trkpt>
      <trkpt lat="48.37986" lon="2.70961">
        <ele>134.4</ele>
        <time>2023-07-20T09:00:23Z</time>
      </trkpt>
      <trkpt lat="48.37987" lon="2.70962">
        <ele>134.4</ele>
        <time>2023-07-20T09:00:24Z</time>
      </trkpt>
      <trkpt lat="48.37988" lon="2.70962">
        <ele>134.4</ele>
        <time>2023-07-20T09:00:25Z</time>
      </trkpt>
      <trkpt lat="48.37988" lon="2.70963">
        <ele>134.4</ele>
        <time>2023-07-20T09:00:26Z</time>
      </trkpt>
      <trkpt lat="48.3799" lon="2.70963">
        <ele>134.3</ele>
        <time>2023-07-20T09:00:27Z</time>
      </trkpt>
      <trkpt lat="48.37992" lon="2.70965">
        <ele>134.3</ele>
        <time>2023-07-20T09:00:28Z</time>
      </trkpt>
      <trkpt lat="48.37992" lon="2.70967">
        <ele>134.3</ele>
        <time>2023-07-20T09:00:29Z</time>
      </trkpt>
      <trkpt lat="48.37993" lon="2.70967">
        <ele>134.3</ele>
        <time>2023-07-20T09:00:30Z</time>
      </trkpt>
      <trkpt lat="48.37994" lon="2.70968">
        <ele>134.3</ele>
        <time>2023-07-20T09:00:31Z</time>
      </trkpt>
      <trkpt lat="48.37994" lon="2.7097">
        <ele>134.3</ele>
        <time>2023-07-20T09:00:32Z</time>
      </trkpt>
      <trkpt lat="48.37995" lon="2.70971">
        <ele>134.3</ele>
        <time>2023-07-20T09:00:33Z</time>
      </trkpt>
      <trkpt lat="48.37996" lon="2.70971">
        <ele>134.2</ele>
        <time>2023-07-20T09:00:34Z</time>
      </trkpt>
      <trkpt lat="48.37997" lon="2.70971">
        <ele>134.2</ele>
        <time>2023-07-20T09:00:35Z</time>
      </trkpt>
      <trkpt lat="48.37998" lon="2.70972">
        <ele>134.2</ele>
        <time>2023-07-20T09:00:36Z</time>
      </trkpt>
      <trkpt lat="48.37999" lon="2.70972">
        <ele>134.2</ele>
        <time>2023-07-20T09:00:37Z</time>
      </trkpt>
      <trkpt lat="48.37999" lon="2.70974">
        <ele>134.2</ele>
        <time>2023-07-20T09:00:38Z</time>
      </trkpt>
      <trkpt lat="48.38001" lon="2.70975">
        <ele>134.2</ele>
        <time>2023-07-20T09:00:39Z</time>
      </trkpt>
      <trkpt lat="48.38002" lon="2.70977">
        <ele>134.1</ele>
        <time>2023-07-20T09:00:40Z</time>
      </trkpt>
      <trkpt lat="48.38002" lon="2.70977">
        <ele>134.1</ele>
        <time>2023-07-20T09:00:41Z</time>
      </trkpt>
      <trkpt lat="48.38003" lon="2.70978">
        <ele>134.1</ele>
        <time>2023-07-20T09:00:42Z</time>
      </trkpt>
      <trkpt lat="48.38004" lon="2.70979">
        <ele>134.1</ele>
        <time>2023-07-20T09:00:43Z</time>
      </trkpt>
      <trkpt lat="48.38004" lon="2.70981">
        <ele>134.1</ele>
        <time>2023-07-20T09:00:44Z</time>
      </trkpt>
      <trkpt lat="48.38005" lon="2.70982">
        <ele>134.1</ele>
        <time>2023-07-20T09:00:45Z</time>
      </trkpt>
      <trkpt lat="48.38006" lon="2.70983">
        <ele>134</ele>
        <time>2023-07-20T09:00:46Z</time>
      </trkpt>
      <trkpt lat="48.38007" lon="2.70984">
        <ele>134</ele>
        <time>2023-07-20T09:00:47Z</time>
      </trkpt>
      <trkpt lat="48.38008" lon="2.70985">
        <ele>134</ele>
        <time>2023-07-20T09:00:48Z</time>
      </trkpt>
      <trkpt lat="48.38009" lon="2.70987">
        <ele>134</ele>
        <time>2023-07-20T09:00:49Z</time>
      </trkpt>
      <trkpt lat="48.3801" lon="2.70988">
        <ele>134</ele>
        <time>2023-07-20T09:00:50Z</time>
      </trkpt>
      <trkpt lat="48.38011" lon="2.70989">
        <ele>134</ele>
        <time>2023-07-20T09:00:51Z</time>
      </trkpt>
      <trkpt lat="48.38012" lon="2.7099">
        <ele>133.9</ele>
        <time>2023-07-20T09:00:52Z</time>
      </trkpt>
      <trkpt lat="48.38012" lon="2.7099">
        <ele>133.9</ele>
        <time>2023-07-20T09:00:53Z</time>
      </trkpt>
      <trkpt lat="48.38013" lon="2.70991">
        <ele>133.9</ele>
        <time>2023-07-20T09:00:54Z</time>
      </trkpt>
      <trkpt lat="48.38014" lon="2.70992">
        <ele>133.9</ele>
        <time>2023-07-20T09:00:55Z</time>
      </trkpt>
      <trkpt lat="48.38015" lon="2.70993">
        <ele>133.9</ele>
        <time>2023-07-20T09:00:56Z</time>
      </trkpt>
      <trkpt lat="48.38015" lon="2.70994">
        <ele>133.9</ele>
        <time>2023-07-20T09:00:57Z</time>
      </trkpt>
      <trkpt lat="48.38015" lon="2.70995">
        <ele>133.9</ele>
        <time>2023-07-20T09:00:58Z</time>
      </trkpt>
      <trkpt lat="48.38016" lon="2.70996">
        <ele>133.9</ele>
        <time>2023-07-20T09:00:59Z</time>
      </trkpt>
      <trkpt lat="48.38017" lon="2.70997">
        <ele>133.8</ele>
        <time>2023-07-20T09:01:00Z</time>
      </trkpt>
      <trkpt lat="48.38017" lon="2.70997">
        <ele>133.8</ele>
        <time>2023-07-20T09:01:01Z</time>
      </trkpt>
      <trkpt lat="48.38018" lon="2.70998">
        <ele>133.8</ele>
        <time>2023-07-20T09:01:02Z</time>
      </trkpt>
      <trkpt lat="48.38019" lon="2.70999">
        <ele>133.8</ele>
        <time>2023-07-20T09:01:03Z</time>
      </trkpt>
      <trkpt lat="48.3802" lon="2.71">
        <ele>133.8</ele>
        <time>2023-07-20T09:01:04Z</time>
      </trkpt>
      <trkpt lat="48.38021" lon="2.71001">
        <ele>133.8</ele>
        <time>2023-07-20T09:01:05Z</time>
      </trkpt>
      <trkpt lat="48.38022" lon="2.71001">
        <ele>133.8</ele>
        <time>2023-07-20T09:01:06Z</time>
      </trkpt>
      <trkpt lat="48.38022" lon="2.71002">
        <ele>133.8</ele>
        <time>2023-07-20T09:01:07Z</time>
      </trkpt>
      <trkpt lat="48.38023" lon="2.71003">
        <ele>133.7</ele>
        <time>2023-07-20T09:01:08Z</time>
      </trkpt>
      <trkpt lat="48.38024" lon="2.71005">
        <ele>133.7</ele>
        <time>2023-07-20T09:01:09Z</time>
      </trkpt>
      <trkpt lat="48.38025" lon="2.71006">
        <ele>133.7</ele>
        <time>2023-07-20T09:01:10Z</time>
      </trkpt>
      <trkpt lat="48.38025" lon="2.71007">
        <ele>133.7</ele>
        <time>2023-07-20T09:01:11Z</time>
      </trkpt>
      <trkpt lat="48.38026" lon="2.71008">
        <ele>133.7</ele>
        <time>2023-07-20T09:01:12Z</time>
      </trkpt>
      <trkpt lat="48.38027" lon="2.71008">
        <ele>133.7</ele>
        <time>2023-07-20T09:01:13Z</time>
      </trkpt>
      <trkpt lat="48.38028" lon="2.71008">
        <ele>133.7</ele>
        <time>2023-07-20T09:01:14Z</time>
      </trkpt>
      <trkpt lat="48.38028" lon="2.71009">
        <ele>133.7</ele>
        <time>2023-07-20T09:01:15Z</time>
      </trkpt>
      <trkpt lat="48.38029" lon="2.71009">
        <ele>133.6</ele>
        <time>2023-07-20T09:01:16Z</time>
      </trkpt>
      <trkpt lat="48.3803" lon="2.7101">
        <ele>133.6</ele>
        <time>2023-07-20T09:01:17Z</time>
      </trkpt>
      <trkpt lat="48.38031" lon="2.7101">
        <ele>133.6</ele>
        <time>2023-07-20T09:01:18Z</time>
      </trkpt>
      <trkpt lat="48.38032" lon="2.71011">
        <ele>133.6</ele>
        <time>2023-07-20T09:01:19Z</time>
      </trkpt>
      <trkpt lat="48.38033" lon="2.71012">
        <ele>133.6</ele>
        <time>2023-07-20T09:01:20Z</time>
      </trkpt>
      <trkpt lat="48.38034" lon="2.71012">
        <ele>133.6</ele>
        <time>2023-07-20T09:01:21Z</time>
      </trkpt>
      <trkpt lat="48.38034" lon="2.71013">
        <ele>133.6</ele>
        <time>2023-07-20T09:01:22Z</time>
      </trkpt>
      <trkpt lat="48.38036" lon="2.71013">
        <ele>133.6</ele>
        <time>2023-07-20T09:01:23Z</time>
      </trkpt>
      <trkpt lat="48.38036" lon="2.71015">
        <ele>133.5</ele>
        <time>2023-07-20T09:01:24Z</time>
      </trkpt>
      <trkpt lat="48.38037" lon="2.71015">
        <ele>133.5</ele>
        <time>2023-07-20T09:01:25Z</time>
      </trkpt>
      <trkpt lat="48.38039" lon="2.71016">
        <ele>133.5</ele>
        <time>2023-07-20T09:01:26Z</time>
      </trkpt>
      <trkpt lat="48.3804" lon="2.71016">
        <ele>133.5</ele>
        <time>2023-07-20T09:01:27Z</time>
      </trkpt>
      <trkpt lat="48.38041" lon="2.71017">
        <ele>133.5</ele>
        <time>2023-07-20T09:01:28Z</time>
      </trkpt>
      <trkpt lat="48.38044" lon="2.71018">
        <ele>133.5</ele>
        <time>2023-07-20T09:01:29Z</time>
      </trkpt>
      <trkpt lat="48.38045" lon="2.71019">
        <ele>133.4</ele>
        <time>2023-07-20T09:01:30Z</time>
      </trkpt>
      <trkpt lat="48.38046" lon="2.7102">
        <ele>133.4</ele>
        <time>2023-07-20T09:01:31Z</time>
      </trkpt>
      <trkpt lat="48.38047" lon="2.71021">
        <ele>133.4</ele>
        <time>2023-07-20T09:01:32Z</time>
      </trkpt>
      <trkpt lat="48.38047" lon="2.71022">
        <ele>133.4</ele>
        <time>2023-07-20T09:01:33Z</time>
      </trkpt>
      <trkpt lat="48.38048" lon="2.71023">
        <ele>133.4</ele>
        <time>2023-07-20T09:01:34Z</time>
      </trkpt>
      <trkpt lat="48.38048" lon="2.71023">
        <ele>133.4</ele>
        <time>2023-07-20T09:01:35Z</time>
      </trkpt>
      <trkpt lat="48.38049" lon="2.71024">
        <ele>133.4</ele>
        <time>2023-07-20T09:01:36Z</time>
      </trkpt>
      <trkpt lat="48.3805" lon="2.71024">
        <ele>133.4</ele>
        <time>2023-07-20T09:01:37Z</time>
      </trkpt>
      <trkpt lat="48.38051" lon="2.71025">
        <ele>133.4</ele>
        <time>2023-07-20T09:01:38Z</time>
      </trkpt>
      <trkpt lat="48.38053" lon="2.71028">
        <ele>133.3</ele>
        <time>2023-07-20T09:01:39Z</time>
      </trkpt>
      <trkpt lat="48.38054" lon="2.71028">
        <ele>133.3</ele>
        <time>2023-07-20T09:01:40Z</time>
      </trkpt>
      <trkpt lat="48.38055" lon="2.71029">
        <ele>133.3</ele>
        <time>2023-07-20T09:01:41Z</time>
      </trkpt>
      <trkpt lat="48.38055" lon="2.71029">
        <ele>133.3</ele>
        <time>2023-07-20T09:01:42Z</time>
      </trkpt>
      <trkpt lat="48.38057" lon="2.71031">
        <ele>133.3</ele>
        <time>2023-07-20T09:01:43Z</time>
      </trkpt>
      <trkpt lat="48.38058" lon="2.71032">
        <ele>133.2</ele>
        <time>2023-07-20T09:01:44Z</time>
      </trkpt>
      <trkpt lat="48.38059" lon="2.71033">
        <ele>133.2</ele>
        <time>2023-07-20T09:01:45Z</time>
      </trkpt>
      <trkpt lat="48.3806" lon="2.71035">
        <ele>133.2</ele>
        <time>2023-07-20T09:01:46Z</time>
      </trkpt>
      <trkpt lat="48.38061" lon="2.71036">
        <ele>133.2</ele>
        <time>2023-07-20T09:01:47Z</time>
      </trkpt>
      <trkpt lat="48.38061" lon="2.71038">
        <ele>133.1</ele>
        <time>2023-07-20T09:01:48Z</time>
      </trkpt>
      <trkpt lat="48.38062" lon="2.7104">
        <ele>133.1</ele>
        <time>2023-07-20T09:01:49Z</time>
      </trkpt>
      <trkpt lat="48.38063" lon="2.71041">
        <ele>133.1</ele>
        <time>2023-07-20T09:01:50Z</time>
      </trkpt>
      <trkpt lat="48.38065" lon="2.71043">
        <ele>133.1</ele>
        <time>2023-07-20T09:01:51Z</time>
      </trkpt>
      <trkpt lat="48.38065" lon="2.71046">
        <ele>133</ele>
        <time>2023-07-20T09:01:52Z</time>
      </trkpt>
      <trkpt lat="48.38066" lon="2.71047">
        <ele>133</ele>
        <time>2023-07-20T09:01:53Z</time>
      </trkpt>
      <trkpt lat="48.38067" lon="2.71047">
        <ele>133</ele>
        <time>2023-07-20T09:01:54Z</time>
      </trkpt>
      <trkpt lat="48.38067" lon="2.71048">
        <ele>133</ele>
        <time>2023-07-20T09:01:55Z</time>
      </trkpt>
      <trkpt lat="48.38068" lon="2.7105">
        <ele>133</ele>
        <time>2023-07-20T09:01:56Z</time>
      </trkpt>
      <trkpt lat="48.3807" lon="2.71052">
        <ele>132.9</ele>
        <time>2023-07-20T09:01:57Z</time>
      </trkpt>
      <trkpt lat="48.3807" lon="2.71053">
        <ele>132.9</ele>
        <time>2023-07-20T09:01:58Z</time>
      </trkpt>
      <trkpt lat="48.38071" lon="2.71054">
        <ele>132.9</ele>
        <time>2023-07-20T09:01:59Z</time>
      </trkpt>
      <trkpt lat="48.38071" lon="2.71056">
        <ele>132.9</ele>
        <time>2023-07-20T09:02:00Z</time>
      </trkpt>
      <trkpt lat="48.38071" lon="2.71057">
        <ele>132.9</ele>
        <time>2023-07-20T09:02:01Z</time>
      </trkpt>
      <trkpt lat="48.38072" lon="2.71058">
        <ele>132.9</ele>
        <time>2023-07-20T09:02:02Z</time>
      </trkpt>
      <trkpt lat="48.38073" lon="2.7106">
        <ele>132.8</ele>
        <time>2023-07-20T09:02:03Z</time>
      </trkpt>
      <trkpt lat="48.38075" lon="2.71062">
        <ele>132.8</ele>
        <time>2023-07-20T09:02:04Z</time>
      </trkpt>
      <trkpt lat="48.38076" lon="2.71062">
        <ele>132.8</ele>
        <time>2023-07-20T09:02:05Z</time>
      </trkpt>
      <trkpt lat="48.38077" lon="2.71062">
        <ele>132.8</ele>
        <time>2023-07-20T09:02:06Z</time>
      </trkpt>
      <trkpt lat="48.38078" lon="2.71063">
        <ele>132.8</ele>
        <time>2023-07-20T09:02:07Z</time>
      </trkpt>
      <trkpt lat="48.38079" lon="2.71063">
        <ele>132.7</ele>
        <time>2023-07-20T09:02:08Z</time>
      </trkpt>
      <trkpt lat="48.3808" lon="2.71064">
        <ele>132.7</ele>
        <time>2023-07-20T09:02:09Z</time>
      </trkpt>
      <trkpt lat="48.3808" lon="2.71065">
        <ele>132.7</ele>
        <time>2023-07-20T09:02:10Z</time>
      </trkpt>
      <trkpt lat="48.38081" lon="2.71065">
        <ele>132.7</ele>
        <time>2023-07-20T09:02:11Z</time>
      </trkpt>
      <trkpt lat="48.38082" lon="2.71067">
        <ele>132.7</ele>
        <time>2023-07-20T09:02:12Z</time>
      </trkpt>
      <trkpt lat="48.38084" lon="2.71068">
        <ele>132.7</ele>
        <time>2023-07-20T09:02:13Z</time>
      </trkpt>
      <trkpt lat="48.38084" lon="2.71069">
        <ele>132.7</ele>
        <time>2023-07-20T09:02:14Z</time>
      </trkpt>
      <trkpt lat="48.38084" lon="2.7107">
        <ele>132.7</ele>
        <time>2023-07-20T09:02:15Z</time>
      </trkpt>
      <trkpt lat="48.38083" lon="2.7107">
        <ele>132.7</ele>
        <time>2023-07-20T09:02:16Z</time>
      </trkpt>
      <trkpt lat="48.38084" lon="2.71071">
        <ele>132.6</ele>
        <time>2023-07-20T09:02:17Z</time>
      </trkpt>
      <trkpt lat="48.38084" lon="2.71071">
        <ele>132.6</ele>
        <time>2023-07-20T09:02:18Z</time>
      </trkpt>
      <trkpt lat="48.38086" lon="2.71072">
        <ele>132.6</ele>
        <time>2023-07-20T09:02:19Z</time>
      </trkpt>
      <trkpt lat="48.38087" lon="2.71074">
        <ele>132.6</ele>
        <time>2023-07-20T09:02:20Z</time>
      </trkpt>
      <trkpt lat="48.38088" lon="2.71074">
        <ele>132.6</ele>
        <time>2023-07-20T09:02:21Z</time>
      </trkpt>
      <trkpt lat="48.38088" lon="2.71075">
        <ele>132.6</ele>
        <time>2023-07-20T09:02:22Z</time>
      </trkpt>
      <trkpt lat="48.3809" lon="2.71076">
        <ele>132.6</ele>
        <time>2023-07-20T09:02:23Z</time>
      </trkpt>
      <trkpt lat="48.38091" lon="2.71076">
        <ele>132.6</ele>
        <time>2023-07-20T09:02:24Z</time>
      </trkpt>
      <trkpt lat="48.38092" lon="2.71077">
        <ele>132.6</ele>
        <time>2023-07-20T09:02:25Z</time>
      </trkpt>
      <trkpt lat="48.38094" lon="2.71077">
        <ele>132.6</ele>
        <time>2023-07-20T09:02:26Z</time>
      </trkpt>
      <trkpt lat="48.38095" lon="2.71077">
        <ele>132.6</ele>
        <time>2023-07-20T09:02:27Z</time>
      </trkpt>
      <trkpt lat="48.38096" lon="2.71078">
        <ele>132.6</ele>
        <time>2023-07-20T09:02:28Z</time>
      </trkpt>
      <trkpt lat="48.38097" lon="2.71079">
        <ele>132.6</ele>
        <time>2023-07-20T09:02:29Z</time>
      </trkpt>
      <trkpt lat="48.38098" lon="2.71079">
        <ele>132.6</ele>
        <time>2023-07-20T09:02:30Z</time>
      </trkpt>
      <trkpt lat="48.38099" lon="2.7108">
        <ele>132.6</ele>
        <time>2023-07-20T09:02:31Z</time>
      </trkpt>
      <trkpt lat="48.38099" lon="2.7108">
        <ele>132.6</ele>
        <time>2023-07-20T09:02:32Z</time>
      </trkpt>
      <trkpt lat="48.381" lon="2.71081">
        <ele>132.6</ele>
        <time>2023-07-20T09:02:33Z</time>
      </trkpt>
      <trkpt lat="48.381" lon="2.71081">
        <ele>132.6</ele>
        <time>2023-07-20T09:02:34Z</time>
      </trkpt>
      <trkpt lat="48.38102" lon="2.71082">
        <ele>132.5</ele>
        <time>2023-07-20T09:02:35Z</time>
      </trkpt>
      <trkpt lat="48.38102" lon="2.71083">
        <ele>132.5</ele>
        <time>2023-07-20T09:02:36Z</time>
      </trkpt>
      <trkpt lat="48.38102" lon="2.71084">
        <ele>132.5</ele>
        <time>2023-07-20T09:02:37Z</time>
      </trkpt>
      <trkpt lat="48.38103" lon="2.71084">
        <ele>132.5</ele>
        <time>2023-07-20T09:02:38Z</time>
      </trkpt>
      <trkpt lat="48.38104" lon="2.71085">
        <ele>132.5</ele>
        <time>2023-07-20T09:02:39Z</time>
      </trkpt>
      <trkpt lat="48.38104" lon="2.71086">
        <ele>132.5</ele>
        <time>2023-07-20T09:02:40Z</time>
      </trkpt>
      <trkpt lat="48.38105" lon="2.71086">
        <ele>132.5</ele>
        <time>2023-07-20T09:02:41Z</time>
      </trkpt>
      <trkpt lat="48.38106" lon="2.71086">
        <ele>132.5</ele>
        <time>2023-07-20T09:02:42Z</time>
      </trkpt>
      <trkpt lat="48.38106" lon="2.71087">
        <ele>132.5</ele>
        <time>2023-07-20T09:02:43Z</time>
      </trkpt>
      <trkpt lat="48.38108" lon="2.71088">
        <ele>132.5</ele>
        <time>2023-07-20T09:02:44Z</time>
      </trkpt>
      <trkpt lat="48.38109" lon="2.71089">
        <ele>132.5</ele>
        <time>2023-07-20T09:02:45Z</time>
      </trkpt>
      <trkpt lat="48.3811" lon="2.71091">
        <ele>132.5</ele>
        <time>2023-07-20T09:02:46Z</time>
      </trkpt>
      <trkpt lat="48.38111" lon="2.71093">
        <ele>132.4</ele>
        <time>2023-07-20T09:02:47Z</time>
      </trkpt>
      <trkpt lat="48.38112" lon="2.71094">
        <ele>132.4</ele>
        <time>2023-07-20T09:02:48Z</time>
      </trkpt>
      <trkpt lat="48.38113" lon="2.71096">
        <ele>132.4</ele>
        <time>2023-07-20T09:02:49Z</time>
      </trkpt>
      <trkpt lat="48.38114" lon="2.71098">
        <ele>132.3</ele>
        <time>2023-07-20T09:02:50Z</time>
      </trkpt>
      <trkpt lat="48.38115" lon="2.711">
        <ele>132.3</ele>
        <time>2023-07-20T09:02:51Z</time>
      </trkpt>
      <trkpt lat="48.38116" lon="2.71101">
        <ele>132.2</ele>
        <time>2023-07-20T09:02:52Z</time>
      </trkpt>
      <trkpt lat="48.38117" lon="2.71102">
        <ele>132.2</ele>
        <time>2023-07-20T09:02:53Z</time>
      </trkpt>
      <trkpt lat="48.38116" lon="2.71104">
        <ele>132.1</ele>
        <time>2023-07-20T09:02:54Z</time>
      </trkpt>
      <trkpt lat="48.38117" lon="2.71104">
        <ele>132.1</ele>
        <time>2023-07-20T09:02:55Z</time>
      </trkpt>
      <trkpt lat="48.38117" lon="2.71104">
        <ele>132.1</ele>
        <time>2023-07-20T09:02:56Z</time>
      </trkpt>
      <trkpt lat="48.38118" lon="2.71105">
        <ele>132.1</ele>
        <time>2023-07-20T09:02:57Z</time>
      </trkpt>
      <trkpt lat="48.38118" lon="2.71105">
        <ele>132</ele>
        <time>2023-07-20T09:02:58Z</time>
      </trkpt>
      <trkpt lat="48.38119" lon="2.71107">
        <ele>132</ele>
        <time>2023-07-20T09:02:59Z</time>
      </trkpt>
      <trkpt lat="48.3812" lon="2.71107">
        <ele>131.9</ele>
        <time>2023-07-20T09:03:00Z</time>
      </trkpt>
      <trkpt lat="48.3812" lon="2.71108">
        <ele>131.9</ele>
        <time>2023-07-20T09:03:01Z</time>
      </trkpt>
      <trkpt lat="48.3812" lon="2.71109">
        <ele>131.9</ele>
        <time>2023-07-20T09:03:02Z</time>
      </trkpt>
      <trkpt lat="48.38121" lon="2.7111">
        <ele>131.8</ele>
        <time>2023-07-20T09:03:03Z</time>
      </trkpt>
      <trkpt lat="48.38122" lon="2.71112">
        <ele>131.7</ele>
        <time>2023-07-20T09:03:04Z</time>
      </trkpt>
      <trkpt lat="48.38123" lon="2.71114">
        <ele>131.6</ele>
        <time>2023-07-20T09:03:05Z</time>
      </trkpt>
      <trkpt lat="48.38124" lon="2.71116">
        <ele>131.4</ele>
        <time>2023-07-20T09:03:06Z</time>
      </trkpt>
      <trkpt lat="48.38124" lon="2.71119">
        <ele>131.3</ele>
        <time>2023-07-20T09:03:07Z</time>
      </trkpt>
      <trkpt lat="48.38124" lon="2.71119">
        <ele>131.2</ele>
        <time>2023-07-20T09:03:08Z</time>
      </trkpt>
      <trkpt lat="48.38125" lon="2.71121">
        <ele>131.2</ele>
        <time>2023-07-20T09:03:09Z</time>
      </trkpt>
      <trkpt lat="48.38126" lon="2.71123">
        <ele>131</ele>
        <time>2023-07-20T09:03:10Z</time>
      </trkpt>
      <trkpt lat="48.38126" lon="2.71123">
        <ele>130.9</ele>
        <time>2023-07-20T09:03:11Z</time>
      </trkpt>
      <trkpt lat="48.38127" lon="2.71124">
        <ele>130.9</ele>
        <time>2023-07-20T09:03:12Z</time>
      </trkpt>
      <trkpt lat="48.38127" lon="2.71124">
        <ele>130.8</ele>
        <time>2023-07-20T09:03:13Z</time>
      </trkpt>
      <trkpt lat="48.38127" lon="2.71125">
        <ele>130.8</ele>
        <time>2023-07-20T09:03:14Z</time>
      </trkpt>
      <trkpt lat="48.38129" lon="2.71125">
        <ele>130.6</ele>
        <time>2023-07-20T09:03:15Z</time>
      </trkpt>
      <trkpt lat="48.3813" lon="2.71127">
        <ele>130.5</ele>
        <time>2023-07-20T09:03:16Z</time>
      </trkpt>
      <trkpt lat="48.3813" lon="2.71128">
        <ele>130.3</ele>
        <time>2023-07-20T09:03:17Z</time>
      </trkpt>
      <trkpt lat="48.38131" lon="2.7113">
        <ele>130.2</ele>
        <time>2023-07-20T09:03:18Z</time>
      </trkpt>
      <trkpt lat="48.38132" lon="2.71131">
        <ele>130</ele>
        <time>2023-07-20T09:03:19Z</time>
      </trkpt>
      <trkpt lat="48.38133" lon="2.71133">
        <ele>129.8</ele>
        <time>2023-07-20T09:03:20Z</time>
      </trkpt>
      <trkpt lat="48.38133" lon="2.71134">
        <ele>129.7</ele>
        <time>2023-07-20T09:03:21Z</time>
      </trkpt>
      <trkpt lat="48.38133" lon="2.71136">
        <ele>129.5</ele>
        <time>2023-07-20T09:03:22Z</time>
      </trkpt>
      <trkpt lat="48.38134" lon="2.71137">
        <ele>129.4</ele>
        <time>2023-07-20T09:03:23Z</time>
      </trkpt>
      <trkpt lat="48.38135" lon="2.71138">
        <ele>129.2</ele>
        <time>2023-07-20T09:03:24Z</time>
      </trkpt>
      <trkpt lat="48.38136" lon="2.71139">
        <ele>129.1</ele>
        <time>2023-07-20T09:03:25Z</time>
      </trkpt>
      <trkpt lat="48.38136" lon="2.7114">
        <ele>129</ele>
        <time>2023-07-20T09:03:26Z</time>
      </trkpt>
      <trkpt lat="48.38137" lon="2.7114">
        <ele>128.9</ele>
        <time>2023-07-20T09:03:27Z</time>
      </trkpt>
      <trkpt lat="48.38137" lon="2.71142">
        <ele>128.7</ele>
        <time>2023-07-20T09:03:28Z</time>
      </trkpt>
      <trkpt lat="48.38137" lon="2.71143">
        <ele>128.6</ele>
        <time>2023-07-20T09:03:29Z</time>
      </trkpt>
      <trkpt lat="48.38137" lon="2.71145">
        <ele>128.4</ele>
        <time>2023-07-20T09:03:30Z</time>
      </trkpt>
      <trkpt lat="48.38137" lon="2.71146">
        <ele>128.3</ele>
        <time>2023-07-20T09:03:31Z</time>
      </trkpt>
      <trkpt lat="48.38137" lon="2.71146">
        <ele>128.2</ele>
        <time>2023-07-20T09:03:32Z</time>
      </trkpt>
      <trkpt lat="48.38137" lon="2.71147">
        <ele>128.1</ele>
        <time>2023-07-20T09:03:33Z</time>
      </trkpt>
      <trkpt lat="48.38137" lon="2.71148">
        <ele>128</ele>
        <time>2023-07-20T09:03:34Z</time>
      </trkpt>
      <trkpt lat="48.38138" lon="2.71149">
        <ele>127.9</ele>
        <time>2023-07-20T09:03:35Z</time>
      </trkpt>
      <trkpt lat="48.38138" lon="2.71149">
        <ele>127.8</ele>
        <time>2023-07-20T09:03:36Z</time>
      </trkpt>
      <trkpt lat="48.38138" lon="2.7115">
        <ele>127.7</ele>
        <time>2023-07-20T09:03:37Z</time>
      </trkpt>
      <trkpt lat="48.38138" lon="2.71151">
        <ele>127.6</ele>
        <time>2023-07-20T09:03:38Z</time>
      </trkpt>
      <trkpt lat="48.38138" lon="2.71152">
        <ele>127.5</ele>
        <time>2023-07-20T09:03:39Z</time>
      </trkpt>
      <trkpt lat="48.38139" lon="2.71154">
        <ele>127.3</ele>
        <time>2023-07-20T09:03:40Z</time>
      </trkpt>
      <trkpt lat="48.38139" lon="2.71155">
        <ele>127.2</ele>
        <time>2023-07-20T09:03:41Z</time>
      </trkpt>
      <trkpt lat="48.3814" lon="2.71155">
        <ele>127</ele>
        <time>2023-07-20T09:03:42Z</time>
      </trkpt>
      <trkpt lat="48.3814" lon="2.71155">
        <ele>126.9</ele>
        <time>2023-07-20T09:03:43Z</time>
      </trkpt>
      <trkpt lat="48.38141" lon="2.71157">
        <ele>126.6</ele>
        <time>2023-07-20T09:03:44Z</time>
      </trkpt>
      <trkpt lat="48.38142" lon="2.71158">
        <ele>126.5</ele>
        <time>2023-07-20T09:03:45Z</time>
      </trkpt>
      <trkpt lat="48.38142" lon="2.71159">
        <ele>126.4</ele>
        <time>2023-07-20T09:03:46Z</time>
      </trkpt>
      <trkpt lat="48.38142" lon="2.7116">
        <ele>126.3</ele>
        <time>2023-07-20T09:03:47Z</time>
      </trkpt>
      <trkpt lat="48.38143" lon="2.71162">
        <ele>126</ele>
        <time>2023-07-20T09:03:48Z</time>
      </trkpt>
      <trkpt lat="48.38144" lon="2.71163">
        <ele>125.8</ele>
        <time>2023-07-20T09:03:49Z</time>
      </trkpt>
      <trkpt lat="48.38144" lon="2.71164">
        <ele>125.7</ele>
        <time>2023-07-20T09:03:50Z</time>
      </trkpt>
      <trkpt lat="48.38145" lon="2.71164">
        <ele>125.6</ele>
        <time>2023-07-20T09:03:51Z</time>
      </trkpt>
      <trkpt lat="48.38146" lon="2.71166">
        <ele>125.4</ele>
        <time>2023-07-20T09:03:52Z</time>
      </trkpt>
      <trkpt lat="48.38146" lon="2.71167">
        <ele>125.2</ele>
        <time>2023-07-20T09:03:53Z</time>
      </trkpt>
      <trkpt lat="48.38146" lon="2.71168">
        <ele>125.1</ele>
        <time>2023-07-20T09:03:54Z</time>
      </trkpt>
      <trkpt lat="48.38147" lon="2.71169">
        <ele>124.9</ele>
        <time>2023-07-20T09:03:55Z</time>
      </trkpt>
      <trkpt lat="48.38148" lon="2.71169">
        <ele>124.8</ele>
        <time>2023-07-20T09:03:56Z</time>
      </trkpt>
      <trkpt lat="48.38148" lon="2.7117">
        <ele>124.6</ele>
        <time>2023-07-20T09:03:57Z</time>
      </trkpt>
      <trkpt lat="48.38149" lon="2.71172">
        <ele>124.4</ele>
        <time>2023-07-20T09:03:58Z</time>
      </trkpt>
      <trkpt lat="48.38149" lon="2.71175">
        <ele>124.1</ele>
        <time>2023-07-20T09:03:59Z</time>
      </trkpt>
      <trkpt lat="48.3815" lon="2.71175">
        <ele>123.9</ele>
        <time>2023-07-20T09:04:00Z</time>
      </trkpt>
      <trkpt lat="48.3815" lon="2.71177">
        <ele>123.8</ele>
        <time>2023-07-20T09:04:01Z</time>
      </trkpt>
      <trkpt lat="48.3815" lon="2.71179">
        <ele>123.6</ele>
        <time>2023-07-20T09:04:02Z</time>
      </trkpt>
      <trkpt lat="48.38151" lon="2.71179">
        <ele>123.4</ele>
        <time>2023-07-20T09:04:03Z</time>
      </trkpt>
      <trkpt lat="48.38151" lon="2.71181">
        <ele>123.2</ele>
        <time>2023-07-20T09:04:04Z</time>
      </trkpt>
      <trkpt lat="48.38151" lon="2.71182">
        <ele>123.1</ele>
        <time>2023-07-20T09:04:05Z</time>
      </trkpt>
      <trkpt lat="48.38152" lon="2.71183">
        <ele>122.9</ele>
        <time>2023-07-20T09:04:06Z</time>
      </trkpt>
      <trkpt lat="48.38152" lon="2.71184">
        <ele>122.8</ele>
        <time>2023-07-20T09:04:07Z</time>
      </trkpt>
      <trkpt lat="48.38152" lon="2.71185">
        <ele>122.7</ele>
        <time>2023-07-20T09:04:08Z</time>
      </trkpt>
      <trkpt lat="48.38152" lon="2.71186">
        <ele>122.6</ele>
        <time>2023-07-20T09:04:09Z</time>
      </trkpt>
      <trkpt lat="48.38152" lon="2.71186">
        <ele>122.5</ele>
        <time>2023-07-20T09:04:10Z</time>
      </trkpt>
      <trkpt lat="48.38153" lon="2.71187">
        <ele>122.4</ele>
        <time>2023-07-20T09:04:11Z</time>
      </trkpt>
      <trkpt lat="48.38153" lon="2.71187">
        <ele>122.3</ele>
        <time>2023-07-20T09:04:12Z</time>
      </trkpt>
      <trkpt lat="48.38153" lon="2.71188">
        <ele>122.2</ele>
        <time>2023-07-20T09:04:13Z</time>
      </trkpt>
      <trkpt lat="48.38153" lon="2.71189">
        <ele>122.1</ele>
        <time>2023-07-20T09:04:14Z</time>
      </trkpt>
      <trkpt lat="48.38154" lon="2.7119">
        <ele>121.9</ele>
        <time>2023-07-20T09:04:15Z</time>
      </trkpt>
      <trkpt lat="48.38155" lon="2.7119">
        <ele>121.9</ele>
        <time>2023-07-20T09:04:16Z</time>
      </trkpt>
      <trkpt lat="48.38155" lon="2.71191">
        <ele>121.8</ele>
        <time>2023-07-20T09:04:17Z</time>
      </trkpt>
      <trkpt lat="48.38155" lon="2.71193">
        <ele>121.6</ele>
        <time>2023-07-20T09:04:18Z</time>
      </trkpt>
      <trkpt lat="48.38155" lon="2.71193">
        <ele>121.5</ele>
        <time>2023-07-20T09:04:19Z</time>
      </trkpt>
      <trkpt lat="48.38155" lon="2.71194">
        <ele>121.4</ele>
        <time>2023-07-20T09:04:20Z</time>
      </trkpt>
      <trkpt lat="48.38156" lon="2.71195">
        <ele>121.3</ele>
        <time>2023-07-20T09:04:21Z</time>
      </trkpt>
      <trkpt lat="48.38156" lon="2.71195">
        <ele>121.2</ele>
        <time>2023-07-20T09:04:22Z</time>
      </trkpt>
      <trkpt lat="48.38157" lon="2.71196">
        <ele>121</ele>
        <time>2023-07-20T09:04:23Z</time>
      </trkpt>
      <trkpt lat="48.38158" lon="2.71196">
        <ele>120.8</ele>
        <time>2023-07-20T09:04:24Z</time>
      </trkpt>
      <trkpt lat="48.38159" lon="2.71197">
        <ele>120.7</ele>
        <time>2023-07-20T09:04:25Z</time>
      </trkpt>
      <trkpt lat="48.38159" lon="2.71198">
        <ele>120.6</ele>
        <time>2023-07-20T09:04:26Z</time>
      </trkpt>
      <trkpt lat="48.38159" lon="2.71199">
        <ele>120.5</ele>
        <time>2023-07-20T09:04:27Z</time>
      </trkpt>
      <trkpt lat="48.3816" lon="2.71199">
        <ele>120.4</ele>
        <time>2023-07-20T09:04:28Z</time>
      </trkpt>
      <trkpt lat="48.38161" lon="2.712">
        <ele>120.2</ele>
        <time>2023-07-20T09:04:29Z</time>
      </trkpt>
      <trkpt lat="48.38162" lon="2.71201">
        <ele>120.1</ele>
        <time>2023-07-20T09:04:30Z</time>
      </trkpt>
      <trkpt lat="48.38162" lon="2.71202">
        <ele>120</ele>
        <time>2023-07-20T09:04:31Z</time>
      </trkpt>
      <trkpt lat="48.38163" lon="2.71203">
        <ele>119.8</ele>
        <time>2023-07-20T09:04:32Z</time>
      </trkpt>
      <trkpt lat="48.38163" lon="2.71204">
        <ele>119.7</ele>
        <time>2023-07-20T09:04:33Z</time>
      </trkpt>
      <trkpt lat="48.38164" lon="2.71205">
        <ele>119.5</ele>
        <time>2023-07-20T09:04:34Z</time>
      </trkpt>
      <trkpt lat="48.38164" lon="2.71206">
        <ele>119.4</ele>
        <time>2023-07-20T09:04:35Z</time>
      </trkpt>
      <trkpt lat="48.38164" lon="2.71208">
        <ele>119.3</ele>
        <time>2023-07-20T09:04:36Z</time>
      </trkpt>
      <trkpt lat="48.38165" lon="2.7121">
        <ele>119.1</ele>
        <time>2023-07-20T09:04:37Z</time>
      </trkpt>
      <trkpt lat="48.38166" lon="2.71211">
        <ele>118.9</ele>
        <time>2023-07-20T09:04:38Z</time>
      </trkpt>
      <trkpt lat="48.38167" lon="2.71212">
        <ele>118.7</ele>
        <time>2023-07-20T09:04:39Z</time>
      </trkpt>
      <trkpt lat="48.38167" lon="2.71213">
        <ele>118.6</ele>
        <time>2023-07-20T09:04:40Z</time>
      </trkpt>
      <trkpt lat="48.38167" lon="2.71214">
        <ele>118.5</ele>
        <time>2023-07-20T09:04:41Z</time>
      </trkpt>
      <trkpt lat="48.38168" lon="2.71216">
        <ele>118.3</ele>
        <time>2023-07-20T09:04:42Z</time>
      </trkpt>
      <trkpt lat="48.38168" lon="2.71217">
        <ele>118.2</ele>
        <time>2023-07-20T09:04:43Z</time>
      </trkpt>
      <trkpt lat="48.38169" lon="2.71217">
        <ele>118.1</ele>
        <time>2023-07-20T09:04:44Z</time>
      </trkpt>
      <trkpt lat="48.38169" lon="2.71218">
        <ele>118.1</ele>
        <time>2023-07-20T09:04:45Z</time>
      </trkpt>
      <trkpt lat="48.3817" lon="2.71218">
        <ele>118</ele>
        <time>2023-07-20T09:04:46Z</time>
      </trkpt>
      <trkpt lat="48.38171" lon="2.71219">
        <ele>117.9</ele>
        <time>2023-07-20T09:04:47Z</time>
      </trkpt>
      <trkpt lat="48.38171" lon="2.7122">
        <ele>117.8</ele>
        <time>2023-07-20T09:04:48Z</time>
      </trkpt>
      <trkpt lat="48.38172" lon="2.71221">
        <ele>117.7</ele>
        <time>2023-07-20T09:04:49Z</time>
      </trkpt>
      <trkpt lat="48.38172" lon="2.71222">
        <ele>117.6</ele>
        <time>2023-07-20T09:04:50Z</time>
      </trkpt>
      <trkpt lat="48.38172" lon="2.71224">
        <ele>117.4</ele>
        <time>2023-07-20T09:04:51Z</time>
      </trkpt>
      <trkpt lat="48.38172" lon="2.71226">
        <ele>117.3</ele>
        <time>2023-07-20T09:04:52Z</time>
      </trkpt>
      <trkpt lat="48.38173" lon="2.71227">
        <ele>117.2</ele>
        <time>2023-07-20T09:04:53Z</time>
      </trkpt>
      <trkpt lat="48.38173" lon="2.71227">
        <ele>117.2</ele>
        <time>2023-07-20T09:04:54Z</time>
      </trkpt>
      <trkpt lat="48.38173" lon="2.71228">
        <ele>117.1</ele>
        <time>2023-07-20T09:04:55Z</time>
      </trkpt>
      <trkpt lat="48.38173" lon="2.71229">
        <ele>117</ele>
        <time>2023-07-20T09:04:56Z</time>
      </trkpt>
      <trkpt lat="48.38173" lon="2.71231">
        <ele>116.9</ele>
        <time>2023-07-20T09:04:57Z</time>
      </trkpt>
      <trkpt lat="48.38174" lon="2.71233">
        <ele>116.7</ele>
        <time>2023-07-20T09:04:58Z</time>
      </trkpt>
      <trkpt lat="48.38174" lon="2.71234">
        <ele>116.6</ele>
        <time>2023-07-20T09:04:59Z</time>
      </trkpt>
      <trkpt lat="48.38175" lon="2.71236">
        <ele>116.5</ele>
        <time>2023-07-20T09:05:00Z</time>
      </trkpt>
      <trkpt lat="48.38176" lon="2.71236">
        <ele>116.4</ele>
        <time>2023-07-20T09:05:01Z</time>
      </trkpt>
      <trkpt lat="48.38177" lon="2.71237">
        <ele>116.3</ele>
        <time>2023-07-20T09:05:02Z</time>
      </trkpt>
      <trkpt lat="48.38177" lon="2.71238">
        <ele>116.2</ele>
        <time>2023-07-20T09:05:03Z</time>
      </trkpt>
      <trkpt lat="48.38178" lon="2.7124">
        <ele>116.1</ele>
        <time>2023-07-20T09:05:04Z</time>
      </trkpt>
      <trkpt lat="48.38178" lon="2.71241">
        <ele>116</ele>
        <time>2023-07-20T09:05:05Z</time>
      </trkpt>
      <trkpt lat="48.38179" lon="2.71242">
        <ele>115.9</ele>
        <time>2023-07-20T09:05:06Z</time>
      </trkpt>
      <trkpt lat="48.38179" lon="2.71243">
        <ele>115.9</ele>
        <time>2023-07-20T09:05:07Z</time>
      </trkpt>
      <trkpt lat="48.38179" lon="2.71244">
        <ele>115.8</ele>
        <time>2023-07-20T09:05:08Z</time>
      </trkpt>
      <trkpt lat="48.3818" lon="2.71246">
        <ele>115.7</ele>
        <time>2023-07-20T09:05:09Z</time>
      </trkpt>
      <trkpt lat="48.3818" lon="2.71247">
        <ele>115.6</ele>
        <time>2023-07-20T09:05:10Z</time>
      </trkpt>
      <trkpt lat="48.3818" lon="2.7125">
        <ele>115.4</ele>
        <time>2023-07-20T09:05:11Z</time>
      </trkpt>
      <trkpt lat="48.38181" lon="2.71252">
        <ele>115.3</ele>
        <time>2023-07-20T09:05:12Z</time>
      </trkpt>
      <trkpt lat="48.38181" lon="2.71253">
        <ele>115.2</ele>
        <time>2023-07-20T09:05:13Z</time>
      </trkpt>
      <trkpt lat="48.38182" lon="2.71253">
        <ele>115.2</ele>
        <time>2023-07-20T09:05:14Z</time>
      </trkpt>
      <trkpt lat="48.38182" lon="2.71254">
        <ele>115.1</ele>
        <time>2023-07-20T09:05:15Z</time>
      </trkpt>
      <trkpt lat="48.38182" lon="2.71255">
        <ele>115</ele>
        <time>2023-07-20T09:05:16Z</time>
      </trkpt>
      <trkpt lat="48.38183" lon="2.71256">
        <ele>114.9</ele>
        <time>2023-07-20T09:05:17Z</time>
      </trkpt>
      <trkpt lat="48.38183" lon="2.71257">
        <ele>114.9</ele>
        <time>2023-07-20T09:05:18Z</time>
      </trkpt>
      <trkpt lat="48.38183" lon="2.71258">
        <ele>114.8</ele>
        <time>2023-07-20T09:05:19Z</time>
      </trkpt>
      <trkpt lat="48.38183" lon="2.71259">
        <ele>114.7</ele>
        <time>2023-07-20T09:05:20Z</time>
      </trkpt>
      <trkpt lat="48.38183" lon="2.7126">
        <ele>114.7</ele>
        <time>2023-07-20T09:05:21Z</time>
      </trkpt>
      <trkpt lat="48.38184" lon="2.71261">
        <ele>114.6</ele>
        <time>2023-07-20T09:05:22Z</time>
      </trkpt>
      <trkpt lat="48.38185" lon="2.71263">
        <ele>114.5</ele>
        <time>2023-07-20T09:05:23Z</time>
      </trkpt>
      <trkpt lat="48.38185" lon="2.71264">
        <ele>114.4</ele>
        <time>2023-07-20T09:05:24Z</time>
      </trkpt>
      <trkpt lat="48.38185" lon="2.71266">
        <ele>114.3</ele>
        <time>2023-07-20T09:05:25Z</time>
      </trkpt>
      <trkpt lat="48.38186" lon="2.71267">
        <ele>114.2</ele>
        <time>2023-07-20T09:05:26Z</time>
      </trkpt>
      <trkpt lat="48.38187" lon="2.71269">
        <ele>114.1</ele>
        <time>2023-07-20T09:05:27Z</time>
      </trkpt>
      <trkpt lat="48.38187" lon="2.7127">
        <ele>114</ele>
        <time>2023-07-20T09:05:28Z</time>
      </trkpt>
      <trkpt lat="48.38188" lon="2.71271">
        <ele>113.9</ele>
        <time>2023-07-20T09:05:29Z</time>
      </trkpt>
      <trkpt lat="48.38188" lon="2.71272">
        <ele>113.9</ele>
        <time>2023-07-20T09:05:30Z</time>
      </trkpt>
      <trkpt lat="48.38188" lon="2.71273">
        <ele>113.8</ele>
        <time>2023-07-20T09:05:31Z</time>
      </trkpt>
      <trkpt lat="48.38188" lon="2.71276">
        <ele>113.6</ele>
        <time>2023-07-20T09:05:32Z</time>
      </trkpt>
      <trkpt lat="48.38189" lon="2.71277">
        <ele>113.6</ele>
        <time>2023-07-20T09:05:33Z</time>
      </trkpt>
      <trkpt lat="48.38189" lon="2.71279">
        <ele>113.5</ele>
        <time>2023-07-20T09:05:34Z</time>
      </trkpt>
      <trkpt lat="48.38189" lon="2.7128">
        <ele>113.4</ele>
        <time>2023-07-20T09:05:35Z</time>
      </trkpt>
      <trkpt lat="48.38189" lon="2.71282">
        <ele>113.3</ele>
        <time>2023-07-20T09:05:36Z</time>
      </trkpt>
      <trkpt lat="48.3819" lon="2.71283">
        <ele>113.2</ele>
        <time>2023-07-20T09:05:37Z</time>
      </trkpt>
      <trkpt lat="48.38189" lon="2.71284">
        <ele>113.2</ele>
        <time>2023-07-20T09:05:38Z</time>
      </trkpt>
      <trkpt lat="48.3819" lon="2.71285">
        <ele>113.2</ele>
        <time>2023-07-20T09:05:39Z</time>
      </trkpt>
      <trkpt lat="48.3819" lon="2.71286">
        <ele>113.1</ele>
        <time>2023-07-20T09:05:40Z</time>
      </trkpt>
      <trkpt lat="48.38191" lon="2.71287">
        <ele>113</ele>
        <time>2023-07-20T09:05:41Z</time>
      </trkpt>
      <trkpt lat="48.38191" lon="2.71288">
        <ele>113</ele>
        <time>2023-07-20T09:05:42Z</time>
      </trkpt>
      <trkpt lat="48.38192" lon="2.71289">
        <ele>112.9</ele>
        <time>2023-07-20T09:05:43Z</time>
      </trkpt>
      <trkpt lat="48.38192" lon="2.7129">
        <ele>112.9</ele>
        <time>2023-07-20T09:05:44Z</time>
      </trkpt>
      <trkpt lat="48.38192" lon="2.71291">
        <ele>112.8</ele>
        <time>2023-07-20T09:05:45Z</time>
      </trkpt>
      <trkpt lat="48.38193" lon="2.71292">
        <ele>112.8</ele>
        <time>2023-07-20T09:05:46Z</time>
      </trkpt>
      <trkpt lat="48.38193" lon="2.71293">
        <ele>112.7</ele>
        <time>2023-07-20T09:05:47Z</time>
      </trkpt>
      <trkpt lat="48.38194" lon="2.71294">
        <ele>112.7</ele>
        <time>2023-07-20T09:05:48Z</time>
      </trkpt>
      <trkpt lat="48.38194" lon="2.71295">
        <ele>112.7</ele>
        <time>2023-07-20T09:05:49Z</time>
      </trkpt>
      <trkpt lat="48.38195" lon="2.71296">
        <ele>112.7</ele>
        <time>2023-07-20T09:05:50Z</time>
      </trkpt>
      <trkpt lat="48.38196" lon="2.71299">
        <ele>112.8</ele>
        <time>2023-07-20T09:05:51Z</time>
      </trkpt>
      <trkpt lat="48.38196" lon="2.713">
        <ele>112.8</ele>
        <time>2023-07-20T09:05:52Z</time>
      </trkpt>
      <trkpt lat="48.38197" lon="2.71301">
        <ele>112.8</ele>
        <time>2023-07-20T09:05:53Z</time>
      </trkpt>
      <trkpt lat="48.38197" lon="2.71302">
        <ele>112.8</ele>
        <time>2023-07-20T09:05:54Z</time>
      </trkpt>
      <trkpt lat="48.38197" lon="2.71302">
        <ele>112.8</ele>
        <time>2023-07-20T09:05:55Z</time>
      </trkpt>
      <trkpt lat="48.38198" lon="2.71303">
        <ele>112.8</ele>
        <time>2023-07-20T09:05:56Z</time>
      </trkpt>
      <trkpt lat="48.38199" lon="2.71305">
        <ele>112.8</ele>
        <time>2023-07-20T09:05:57Z</time>
      </trkpt>
      <trkpt lat="48.382" lon="2.71306">
        <ele>112.8</ele>
        <time>2023-07-20T09:05:58Z</time>
      </trkpt>
      <trkpt lat="48.382" lon="2.71307">
        <ele>112.8</ele>
        <time>2023-07-20T09:05:59Z</time>
      </trkpt>
      <trkpt lat="48.382" lon="2.71308">
        <ele>112.8</ele>
        <time>2023-07-20T09:06:00Z</time>
      </trkpt>
      <trkpt lat="48.382" lon="2.71309">
        <ele>112.9</ele>
        <time>2023-07-20T09:06:01Z</time>
      </trkpt>
      <trkpt lat="48.38201" lon="2.7131">
        <ele>112.9</ele>
        <time>2023-07-20T09:06:02Z</time>
      </trkpt>
      <trkpt lat="48.38201" lon="2.71311">
        <ele>112.9</ele>
        <time>2023-07-20T09:06:03Z</time>
      </trkpt>
      <trkpt lat="48.38202" lon="2.71312">
        <ele>112.9</ele>
        <time>2023-07-20T09:06:04Z</time>
      </trkpt>
      <trkpt lat="48.38203" lon="2.71313">
        <ele>112.9</ele>
        <time>2023-07-20T09:06:05Z</time>
      </trkpt>
      <trkpt lat="48.38204" lon="2.71315">
        <ele>113</ele>
        <time>2023-07-20T09:06:06Z</time>
      </trkpt>
      <trkpt lat="48.38204" lon="2.71317">
        <ele>113</ele>
        <time>2023-07-20T09:06:07Z</time>
      </trkpt>
      <trkpt lat="48.38204" lon="2.71318">
        <ele>113</ele>
        <time>2023-07-20T09:06:08Z</time>
      </trkpt>
      <trkpt lat="48.38205" lon="2.7132">
        <ele>113.1</ele>
        <time>2023-07-20T09:06:09Z</time>
      </trkpt>
      <trkpt lat="48.38206" lon="2.71321">
        <ele>113.1</ele>
        <time>2023-07-20T09:06:10Z</time>
      </trkpt>
      <trkpt lat="48.38207" lon="2.71322">
        <ele>113.1</ele>
        <time>2023-07-20T09:06:11Z</time>
      </trkpt>
      <trkpt lat="48.38207" lon="2.71323">
        <ele>113.1</ele>
        <time>2023-07-20T09:06:12Z</time>
      </trkpt>
      <trkpt lat="48.38207" lon="2.71324">
        <ele>113.2</ele>
        <time>2023-07-20T09:06:13Z</time>
      </trkpt>
      <trkpt lat="48.38207" lon="2.71325">
        <ele>113.2</ele>
        <time>2023-07-20T09:06:14Z</time>
      </trkpt>
      <trkpt lat="48.38207" lon="2.71326">
        <ele>113.2</ele>
        <time>2023-07-20T09:06:15Z</time>
      </trkpt>
      <trkpt lat="48.38207" lon="2.71327">
        <ele>113.3</ele>
        <time>2023-07-20T09:06:16Z</time>
      </trkpt>
      <trkpt lat="48.38207" lon="2.71328">
        <ele>113.3</ele>
        <time>2023-07-20T09:06:17Z</time>
      </trkpt>
      <trkpt lat="48.38207" lon="2.71329">
        <ele>113.3</ele>
        <time>2023-07-20T09:06:18Z</time>
      </trkpt>
      <trkpt lat="48.38207" lon="2.7133">
        <ele>113.3</ele>
        <time>2023-07-20T09:06:19Z</time>
      </trkpt>
      <trkpt lat="48.38207" lon="2.71332">
        <ele>113.4</ele>
        <time>2023-07-20T09:06:20Z</time>
      </trkpt>
      <trkpt lat="48.38208" lon="2.71333">
        <ele>113.5</ele>
        <time>2023-07-20T09:06:21Z</time>
      </trkpt>
      <trkpt lat="48.38208" lon="2.71335">
        <ele>113.5</ele>
        <time>2023-07-20T09:06:22Z</time>
      </trkpt>
      <trkpt lat="48.38208" lon="2.71336">
        <ele>113.6</ele>
        <time>2023-07-20T09:06:23Z</time>
      </trkpt>
      <trkpt lat="48.38208" lon="2.71337">
        <ele>113.6</ele>
        <time>2023-07-20T09:06:24Z</time>
      </trkpt>
      <trkpt lat="48.38209" lon="2.71339">
        <ele>113.7</ele>
        <time>2023-07-20T09:06:25Z</time>
      </trkpt>
      <trkpt lat="48.38209" lon="2.7134">
        <ele>113.7</ele>
        <time>2023-07-20T09:06:26Z</time>
      </trkpt>
      <trkpt lat="48.38209" lon="2.71341">
        <ele>113.8</ele>
        <time>2023-07-20T09:06:27Z</time>
      </trkpt>
      <trkpt lat="48.38209" lon="2.71342">
        <ele>113.8</ele>
        <time>2023-07-20T09:06:28Z</time>
      </trkpt>
      <trkpt lat="48.38209" lon="2.71341">
        <ele>113.9</ele>
        <time>2023-07-20T09:06:29Z</time>
      </trkpt>
      <trkpt lat="48.3821" lon="2.7134">
        <ele>113.9</ele>
        <time>2023-07-20T09:06:30Z</time>
      </trkpt>
      <trkpt lat="48.38211" lon="2.7134">
        <ele>114</ele>
        <time>2023-07-20T09:06:31Z</time>
      </trkpt>
      <trkpt lat="48.38211" lon="2.7134">
        <ele>114</ele>
        <time>2023-07-20T09:06:32Z</time>
      </trkpt>
      <trkpt lat="48.38211" lon="2.7134">
        <ele>114.1</ele>
        <time>2023-07-20T09:06:33Z</time>
      </trkpt>
      <trkpt lat="48.38212" lon="2.7134">
        <ele>114.1</ele>
        <time>2023-07-20T09:06:34Z</time>
      </trkpt>
      <trkpt lat="48.38212" lon="2.7134">
        <ele>114.1</ele>
        <time>2023-07-20T09:06:35Z</time>
      </trkpt>
      <trkpt lat="48.38212" lon="2.71341">
        <ele>114.1</ele>
        <time>2023-07-20T09:06:36Z</time>
      </trkpt>
      <trkpt lat="48.38213" lon="2.71342">
        <ele>114.2</ele>
        <time>2023-07-20T09:06:37Z</time>
      </trkpt>
      <trkpt lat="48.38213" lon="2.71342">
        <ele>114.3</ele>
        <time>2023-07-20T09:06:38Z</time>
      </trkpt>
      <trkpt lat="48.38214" lon="2.71343">
        <ele>114.3</ele>
        <time>2023-07-20T09:06:39Z</time>
      </trkpt>
      <trkpt lat="48.38214" lon="2.71344">
        <ele>114.4</ele>
        <time>2023-07-20T09:06:40Z</time>
      </trkpt>
      <trkpt lat="48.38215" lon="2.71345">
        <ele>114.5</ele>
        <time>2023-07-20T09:06:41Z</time>
      </trkpt>
      <trkpt lat="48.38215" lon="2.71345">
        <ele>114.5</ele>
        <time>2023-07-20T09:06:42Z</time>
      </trkpt>
      <trkpt lat="48.38216" lon="2.71346">
        <ele>114.6</ele>
        <time>2023-07-20T09:06:43Z</time>
      </trkpt>
      <trkpt lat="48.38216" lon="2.71347">
        <ele>114.7</ele>
        <time>2023-07-20T09:06:44Z</time>
      </trkpt>
      <trkpt lat="48.38218" lon="2.71349">
        <ele>114.9</ele>
        <time>2023-07-20T09:06:45Z</time>
      </trkpt>
      <trkpt lat="48.38218" lon="2.7135">
        <ele>115</ele>
        <time>2023-07-20T09:06:46Z</time>
      </trkpt>
      <trkpt lat="48.38219" lon="2.71351">
        <ele>115</ele>
        <time>2023-07-20T09:06:47Z</time>
      </trkpt>
      <trkpt lat="48.3822" lon="2.71352">
        <ele>115.2</ele>
        <time>2023-07-20T09:06:48Z</time>
      </trkpt>
      <trkpt lat="48.3822" lon="2.71353">
        <ele>115.3</ele>
        <time>2023-07-20T09:06:49Z</time>
      </trkpt>
      <trkpt lat="48.38221" lon="2.71354">
        <ele>115.4</ele>
        <time>2023-07-20T09:06:50Z</time>
      </trkpt>
      <trkpt lat="48.38221" lon="2.71355">
        <ele>115.4</ele>
        <time>2023-07-20T09:06:51Z</time>
      </trkpt>
      <trkpt lat="48.38222" lon="2.71356">
        <ele>115.5</ele>
        <time>2023-07-20T09:06:52Z</time>
      </trkpt>
      <trkpt lat="48.38222" lon="2.71357">
        <ele>115.6</ele>
        <time>2023-07-20T09:06:53Z</time>
      </trkpt>
      <trkpt lat="48.38223" lon="2.71357">
        <ele>115.7</ele>
        <time>2023-07-20T09:06:54Z</time>
      </trkpt>
      <trkpt lat="48.38224" lon="2.71358">
        <ele>115.8</ele>
        <time>2023-07-20T09:06:55Z</time>
      </trkpt>
      <trkpt lat="48.38224" lon="2.7136">
        <ele>115.9</ele>
        <time>2023-07-20T09:06:56Z</time>
      </trkpt>
      <trkpt lat="48.38225" lon="2.7136">
        <ele>116</ele>
        <time>2023-07-20T09:06:57Z</time>
      </trkpt>
      <trkpt lat="48.38225" lon="2.71361">
        <ele>116.1</ele>
        <time>2023-07-20T09:06:58Z</time>
      </trkpt>
      <trkpt lat="48.38226" lon="2.71361">
        <ele>116.2</ele>
        <time>2023-07-20T09:06:59Z</time>
      </trkpt>
      <trkpt lat="48.38227" lon="2.71361">
        <ele>116.2</ele>
        <time>2023-07-20T09:07:00Z</time>
      </trkpt>
      <trkpt lat="48.38227" lon="2.71361">
        <ele>116.3</ele>
        <time>2023-07-20T09:07:01Z</time>
      </trkpt>
      <trkpt lat="48.38227" lon="2.71362">
        <ele>116.3</ele>
        <time>2023-07-20T09:07:02Z</time>
      </trkpt>
      <trkpt lat="48.38228" lon="2.71363">
        <ele>116.4</ele>
        <time>2023-07-20T09:07:03Z</time>
      </trkpt>
      <trkpt lat="48.38229" lon="2.71364">
        <ele>116.5</ele>
        <time>2023-07-20T09:07:04Z</time>
      </trkpt>
      <trkpt lat="48.38229" lon="2.71365">
        <ele>116.6</ele>
        <time>2023-07-20T09:07:05Z</time>
      </trkpt>
      <trkpt lat="48.3823" lon="2.71366">
        <ele>116.8</ele>
        <time>2023-07-20T09:07:06Z</time>
      </trkpt>
      <trkpt lat="48.38231" lon="2.71368">
        <ele>116.9</ele>
        <time>2023-07-20T09:07:07Z</time>
      </trkpt>
      <trkpt lat="48.38232" lon="2.71369">
        <ele>117</ele>
        <time>2023-07-20T09:07:08Z</time>
      </trkpt>
      <trkpt lat="48.38232" lon="2.7137">
        <ele>117.1</ele>
        <time>2023-07-20T09:07:09Z</time>
      </trkpt>
      <trkpt lat="48.38233" lon="2.71371">
        <ele>117.2</ele>
        <time>2023-07-20T09:07:10Z</time>
      </trkpt>
      <trkpt lat="48.38234" lon="2.71372">
        <ele>117.3</ele>
        <time>2023-07-20T09:07:11Z</time>
      </trkpt>
      <trkpt lat="48.38235" lon="2.71373">
        <ele>117.4</ele>
        <time>2023-07-20T09:07:12Z</time>
      </trkpt>
      <trkpt lat="48.38235" lon="2.71376">
        <ele>117.6</ele>
        <time>2023-07-20T09:07:13Z</time>
      </trkpt>
      <trkpt lat="48.38236" lon="2.71379">
        <ele>117.7</ele>
        <time>2023-07-20T09:07:14Z</time>
      </trkpt>
      <trkpt lat="48.38237" lon="2.71381">
        <ele>117.8</ele>
        <time>2023-07-20T09:07:15Z</time>
      </trkpt>
      <trkpt lat="48.38237" lon="2.71382">
        <ele>117.9</ele>
        <time>2023-07-20T09:07:16Z</time>
      </trkpt>
      <trkpt lat="48.38236" lon="2.71382">
        <ele>117.9</ele>
        <time>2023-07-20T09:07:17Z</time>
      </trkpt>
      <trkpt lat="48.38237" lon="2.71381">
        <ele>117.9</ele>
        <time>2023-07-20T09:07:18Z</time>
      </trkpt>
      <trkpt lat="48.38237" lon="2.71381">
        <ele>117.9</ele>
        <time>2023-07-20T09:07:19Z</time>
      </trkpt>
      <trkpt lat="48.38237" lon="2.71381">
        <ele>117.9</ele>
        <time>2023-07-20T09:07:20Z</time>
      </trkpt>
      <trkpt lat="48.38239" lon="2.71381">
        <ele>118</ele>
        <time>2023-07-20T09:07:21Z</time>
      </trkpt>
      <trkpt lat="48.3824" lon="2.71381">
        <ele>118</ele>
        <time>2023-07-20T09:07:22Z</time>
      </trkpt>
      <trkpt lat="48.3824" lon="2.71379">
        <ele>118.2</ele>
        <time>2023-07-20T09:07:23Z</time>
      </trkpt>
      <trkpt lat="48.38241" lon="2.71379">
        <ele>118.2</ele>
        <time>2023-07-20T09:07:24Z</time>
      </trkpt>
      <trkpt lat="48.38242" lon="2.71379">
        <ele>118.2</ele>
        <time>2023-07-20T09:07:25Z</time>
      </trkpt>
      <trkpt lat="48.38241" lon="2.7138">
        <ele>118</ele>
        <time>2023-07-20T09:07:26Z</time>
      </trkpt>
      <trkpt lat="48.38242" lon="2.7138">
        <ele>118</ele>
        <time>2023-07-20T09:07:27Z</time>
      </trkpt>
      <trkpt lat="48.38242" lon="2.7138">
        <ele>118</ele>
        <time>2023-07-20T09:07:28Z</time>
      </trkpt>
      <trkpt lat="48.38242" lon="2.7138">
        <ele>118</ele>
        <time>2023-07-20T09:07:29Z</time>
      </trkpt>
      <trkpt lat="48.38242" lon="2.7138">
        <ele>118</ele>
        <time>2023-07-20T09:07:30Z</time>
      </trkpt>
      <trkpt lat="48.38242" lon="2.7138">
        <ele>118</ele>
        <time>2023-07-20T09:07:31Z</time>
      </trkpt>
      <trkpt lat="48.38241" lon="2.71379">
        <ele>118.1</ele>
        <time>2023-07-20T09:07:32Z</time>
      </trkpt>
      <trkpt lat="48.38241" lon="2.71377">
        <ele>118.1</ele>
        <time>2023-07-20T09:07:33Z</time>
      </trkpt>
      <trkpt lat="48.38241" lon="2.71376">
        <ele>118.1</ele>
        <time>2023-07-20T09:07:34Z</time>
      </trkpt>
      <trkpt lat="48.3824" lon="2.71375">
        <ele>118.1</ele>
        <time>2023-07-20T09:07:35Z</time>
      </trkpt>
      <trkpt lat="48.3824" lon="2.71374">
        <ele>118.3</ele>
        <time>2023-07-20T09:07:36Z</time>
      </trkpt>
      <trkpt lat="48.3824" lon="2.71374">
        <ele>118.3</ele>
        <time>2023-07-20T09:07:37Z</time>
      </trkpt>
      <trkpt lat="48.3824" lon="2.71374">
        <ele>118.3</ele>
        <time>2023-07-20T09:07:38Z</time>
      </trkpt>
      <trkpt lat="48.3824" lon="2.71374">
        <ele>118.3</ele>
        <time>2023-07-20T09:07:39Z</time>
      </trkpt>
      <trkpt lat="48.3824" lon="2.71373">
        <ele>118.3</ele>
        <time>2023-07-20T09:07:40Z</time>
      </trkpt>
      <trkpt lat="48.3824" lon="2.71373">
        <ele>118.3</ele>
        <time>2023-07-20T09:07:41Z</time>
      </trkpt>
      <trkpt lat="48.38241" lon="2.71372">
        <ele>118.3</ele>
        <time>2023-07-20T09:07:42Z</time>
      </trkpt>
      <trkpt lat="48.38241" lon="2.71373">
        <ele>118.3</ele>
        <time>2023-07-20T09:07:43Z</time>
      </trkpt>
      <trkpt lat="48.38241" lon="2.71374">
        <ele>118.3</ele>
        <time>2023-07-20T09:07:44Z</time>
      </trkpt>
      <trkpt lat="48.38241" lon="2.71374">
        <ele>118.3</ele>
        <time>2023-07-20T09:07:45Z</time>
      </trkpt>
      <trkpt lat="48.38242" lon="2.71374">
        <ele>118.3</ele>
        <time>2023-07-20T09:07:46Z</time>
      </trkpt>
      <trkpt lat="48.38242" lon="2.71374">
        <ele>118.3</ele>
        <time>2023-07-20T09:07:47Z</time>
      </trkpt>
      <trkpt lat="48.38242" lon="2.71375">
        <ele>118.3</ele>
        <time>2023-07-20T09:07:48Z</time>
      </trkpt>
      <trkpt lat="48.38242" lon="2.71376">
        <ele>118.1</ele>
        <time>2023-07-20T09:07:49Z</time>
      </trkpt>
      <trkpt lat="48.38242" lon="2.71377">
        <ele>118.1</ele>
        <time>2023-07-20T09:07:50Z</time>
      </trkpt>
      <trkpt lat="48.38242" lon="2.71376">
        <ele>118.1</ele>
        <time>2023-07-20T09:07:51Z</time>
      </trkpt>
      <trkpt lat="48.38242" lon="2.71376">
        <ele>118.1</ele>
        <time>2023-07-20T09:07:52Z</time>
      </trkpt>
      <trkpt lat="48.38241" lon="2.71376">
        <ele>118.1</ele>
        <time>2023-07-20T09:07:53Z</time>
      </trkpt>
      <trkpt lat="48.38242" lon="2.71376">
        <ele>118.1</ele>
        <time>2023-07-20T09:07:54Z</time>
      </trkpt>
      <trkpt lat="48.38243" lon="2.71376">
        <ele>118.1</ele>
        <time>2023-07-20T09:07:55Z</time>
      </trkpt>
      <trkpt lat="48.38243" lon="2.71378">
        <ele>118.1</ele>
        <time>2023-07-20T09:07:56Z</time>
      </trkpt>
      <trkpt lat="48.38243" lon="2.71378">
        <ele>118.1</ele>
        <time>2023-07-20T09:07:57Z</time>
      </trkpt>
      <trkpt lat="48.38243" lon="2.71378">
        <ele>118.1</ele>
        <time>2023-07-20T09:07:58Z</time>
      </trkpt>
      <trkpt lat="48.38243" lon="2.71376">
        <ele>118.1</ele>
        <time>2023-07-20T09:07:59Z</time>
      </trkpt>
      <trkpt lat="48.38243" lon="2.71376">
        <ele>118.1</ele>
        <time>2023-07-20T09:08:00Z</time>
      </trkpt>
      <trkpt lat="48.38243" lon="2.71376">
        <ele>118.1</ele>
        <time>2023-07-20T09:08:01Z</time>
      </trkpt>
      <trkpt lat="48.38243" lon="2.71377">
        <ele>118.1</ele>
        <time>2023-07-20T09:08:02Z</time>
      </trkpt>
      <trkpt lat="48.38242" lon="2.71376">
        <ele>118.1</ele>
        <time>2023-07-20T09:08:03Z</time>
      </trkpt>
      <trkpt lat="48.38242" lon="2.71376">
        <ele>118.1</ele>
        <time>2023-07-20T09:08:04Z</time>
      </trkpt>
      <trkpt lat="48.38242" lon="2.71376">
        <ele>118.1</ele>
        <time>2023-07-20T09:08:05Z</time>
      </trkpt>
      <trkpt lat="48.38242" lon="2.71376">
        <ele>118.1</ele>
        <time>2023-07-20T09:08:06Z</time>
      </trkpt>
      <trkpt lat="48.38243" lon="2.71376">
        <ele>118.1</ele>
        <time>2023-07-20T09:08:07Z</time>
      </trkpt>
      <trkpt lat="48.38243" lon="2.71376">
        <ele>118.1</ele>
        <time>2023-07-20T09:08:08Z</time>
      </trkpt>
      <trkpt lat="48.38242" lon="2.71376">
        <ele>118.1</ele>
        <time>2023-07-20T09:08:09Z</time>
      </trkpt>
      <trkpt lat="48.38242" lon="2.71376">
        <ele>118.1</ele>
        <time>2023-07-20T09:08:10Z</time>
      </trkpt>
      <trkpt lat="48.38242" lon="2.71377">
        <ele>118.1</ele>
        <time>2023-07-20T09:08:11Z</time>
      </trkpt>
      <trkpt lat="48.38242" lon="2.71377">
        <ele>118.1</ele>
        <time>2023-07-20T09:08:12Z</time>
      </trkpt>
      <trkpt lat="48.38243" lon="2.71377">
        <ele>118.1</ele>
        <time>2023-07-20T09:08:13Z</time>
      </trkpt>
      <trkpt lat="48.38243" lon="2.71378">
        <ele>118.1</ele>
        <time>2023-07-20T09:08:14Z</time>
      </trkpt>
      <trkpt lat="48.38244" lon="2.71378">
        <ele>118.1</ele>
        <time>2023-07-20T09:08:15Z</time>
      </trkpt>
      <trkpt lat="48.38244" lon="2.71379">
        <ele>118.1</ele>
        <time>2023-07-20T09:08:16Z</time>
      </trkpt>
      <trkpt lat="48.38244" lon="2.71379">
        <ele>118.1</ele>
        <time>2023-07-20T09:08:17Z</time>
      </trkpt>
      <trkpt lat="48.38244" lon="2.7138">
        <ele>117.9</ele>
        <time>2023-07-20T09:08:18Z</time>
      </trkpt>
      <trkpt lat="48.38245" lon="2.7138">
        <ele>117.9</ele>
        <time>2023-07-20T09:08:19Z</time>
      </trkpt>
      <trkpt lat="48.38245" lon="2.7138">
        <ele>117.9</ele>
        <time>2023-07-20T09:08:20Z</time>
      </trkpt>
      <trkpt lat="48.38245" lon="2.7138">
        <ele>117.9</ele>
        <time>2023-07-20T09:08:21Z</time>
      </trkpt>
      <trkpt lat="48.38244" lon="2.7138">
        <ele>117.9</ele>
        <time>2023-07-20T09:08:22Z</time>
      </trkpt>
      <trkpt lat="48.38244" lon="2.71381">
        <ele>117.9</ele>
        <time>2023-07-20T09:08:23Z</time>
      </trkpt>
      <trkpt lat="48.38243" lon="2.71382">
        <ele>117.9</ele>
        <time>2023-07-20T09:08:24Z</time>
      </trkpt>
      <trkpt lat="48.38243" lon="2.71382">
        <ele>117.9</ele>
        <time>2023-07-20T09:08:25Z</time>
      </trkpt>
      <trkpt lat="48.38243" lon="2.71383">
        <ele>117.9</ele>
        <time>2023-07-20T09:08:26Z</time>
      </trkpt>
      <trkpt lat="48.38242" lon="2.71383">
        <ele>117.9</ele>
        <time>2023-07-20T09:08:27Z</time>
      </trkpt>
      <trkpt lat="48.38241" lon="2.71383">
        <ele>117.9</ele>
        <time>2023-07-20T09:08:28Z</time>
      </trkpt>
      <trkpt lat="48.38241" lon="2.71382">
        <ele>117.9</ele>
        <time>2023-07-20T09:08:29Z</time>
      </trkpt>
      <trkpt lat="48.3824" lon="2.71382">
        <ele>117.9</ele>
        <time>2023-07-20T09:08:30Z</time>
      </trkpt>
      <trkpt lat="48.38239" lon="2.71382">
        <ele>117.9</ele>
        <time>2023-07-20T09:08:31Z</time>
      </trkpt>
      <trkpt lat="48.38239" lon="2.71382">
        <ele>117.9</ele>
        <time>2023-07-20T09:08:32Z</time>
      </trkpt>
      <trkpt lat="48.38238" lon="2.71382">
        <ele>117.9</ele>
        <time>2023-07-20T09:08:33Z</time>
      </trkpt>
      <trkpt lat="48.38237" lon="2.71382">
        <ele>117.9</ele>
        <time>2023-07-20T09:08:34Z</time>
      </trkpt>
      <trkpt lat="48.38237" lon="2.71382">
        <ele>117.9</ele>
        <time>2023-07-20T09:08:35Z</time>
      </trkpt>
      <trkpt lat="48.38236" lon="2.71383">
        <ele>117.9</ele>
        <time>2023-07-20T09:08:36Z</time>
      </trkpt>
      <trkpt lat="48.38236" lon="2.71383">
        <ele>117.9</ele>
        <time>2023-07-20T09:08:37Z</time>
      </trkpt>
      <trkpt lat="48.38235" lon="2.71382">
        <ele>117.9</ele>
        <time>2023-07-20T09:08:38Z</time>
      </trkpt>
      <trkpt lat="48.38235" lon="2.71381">
        <ele>117.9</ele>
        <time>2023-07-20T09:08:39Z</time>
      </trkpt>
      <trkpt lat="48.38233" lon="2.7138">
        <ele>117.8</ele>
        <time>2023-07-20T09:08:40Z</time>
      </trkpt>
      <trkpt lat="48.38232" lon="2.71381">
        <ele>117.8</ele>
        <time>2023-07-20T09:08:41Z</time>
      </trkpt>
      <trkpt lat="48.38232" lon="2.71381">
        <ele>117.8</ele>
        <time>2023-07-20T09:08:42Z</time>
      </trkpt>
      <trkpt lat="48.38231" lon="2.71381">
        <ele>117.8</ele>
        <time>2023-07-20T09:08:43Z</time>
      </trkpt>
      <trkpt lat="48.3823" lon="2.71383">
        <ele>117.8</ele>
        <time>2023-07-20T09:08:44Z</time>
      </trkpt>
      <trkpt lat="48.3823" lon="2.71383">
        <ele>117.8</ele>
        <time>2023-07-20T09:08:45Z</time>
      </trkpt>
      <trkpt lat="48.38229" lon="2.71384">
        <ele>117.7</ele>
        <time>2023-07-20T09:08:46Z</time>
      </trkpt>
      <trkpt lat="48.38228" lon="2.71385">
        <ele>117.7</ele>
        <time>2023-07-20T09:08:47Z</time>
      </trkpt>
      <trkpt lat="48.38227" lon="2.71386">
        <ele>117.6</ele>
        <time>2023-07-20T09:08:48Z</time>
      </trkpt>
      <trkpt lat="48.38227" lon="2.71388">
        <ele>117.6</ele>
        <time>2023-07-20T09:08:49Z</time>
      </trkpt>
      <trkpt lat="48.38227" lon="2.71389">
        <ele>117.5</ele>
        <time>2023-07-20T09:08:50Z</time>
      </trkpt>
      <trkpt lat="48.38226" lon="2.71389">
        <ele>117.5</ele>
        <time>2023-07-20T09:08:51Z</time>
      </trkpt>
      <trkpt lat="48.38225" lon="2.71389">
        <ele>117.5</ele>
        <time>2023-07-20T09:08:52Z</time>
      </trkpt>
      <trkpt lat="48.38223" lon="2.7139">
        <ele>117.5</ele>
        <time>2023-07-20T09:08:53Z</time>
      </trkpt>
      <trkpt lat="48.38222" lon="2.71391">
        <ele>117.5</ele>
        <time>2023-07-20T09:08:54Z</time>
      </trkpt>
      <trkpt lat="48.38221" lon="2.71391">
        <ele>117.4</ele>
        <time>2023-07-20T09:08:55Z</time>
      </trkpt>
      <trkpt lat="48.3822" lon="2.71392">
        <ele>117.4</ele>
        <time>2023-07-20T09:08:56Z</time>
      </trkpt>
      <trkpt lat="48.3822" lon="2.71393">
        <ele>117.3</ele>
        <time>2023-07-20T09:08:57Z</time>
      </trkpt>
      <trkpt lat="48.38221" lon="2.71394">
        <ele>117.3</ele>
        <time>2023-07-20T09:08:58Z</time>
      </trkpt>
      <trkpt lat="48.38221" lon="2.71396">
        <ele>117.3</ele>
        <time>2023-07-20T09:08:59Z</time>
      </trkpt>
      <trkpt lat="48.38222" lon="2.71397">
        <ele>117.2</ele>
        <time>2023-07-20T09:09:00Z</time>
      </trkpt>
      <trkpt lat="48.38222" lon="2.71399">
        <ele>117.2</ele>
        <time>2023-07-20T09:09:01Z</time>
      </trkpt>
      <trkpt lat="48.38221" lon="2.71399">
        <ele>117.2</ele>
        <time>2023-07-20T09:09:02Z</time>
      </trkpt>
      <trkpt lat="48.38221" lon="2.71401">
        <ele>117.2</ele>
        <time>2023-07-20T09:09:03Z</time>
      </trkpt>
      <trkpt lat="48.38221" lon="2.71401">
        <ele>117.1</ele>
        <time>2023-07-20T09:09:04Z</time>
      </trkpt>
      <trkpt lat="48.38222" lon="2.71403">
        <ele>117.1</ele>
        <time>2023-07-20T09:09:05Z</time>
      </trkpt>
      <trkpt lat="48.38222" lon="2.71403">
        <ele>117.1</ele>
        <time>2023-07-20T09:09:06Z</time>
      </trkpt>
      <trkpt lat="48.38222" lon="2.71404">
        <ele>117.1</ele>
        <time>2023-07-20T09:09:07Z</time>
      </trkpt>
      <trkpt lat="48.38223" lon="2.71406">
        <ele>117.1</ele>
        <time>2023-07-20T09:09:08Z</time>
      </trkpt>
      <trkpt lat="48.38223" lon="2.71408">
        <ele>117</ele>
        <time>2023-07-20T09:09:09Z</time>
      </trkpt>
      <trkpt lat="48.38224" lon="2.7141">
        <ele>116.9</ele>
        <time>2023-07-20T09:09:10Z</time>
      </trkpt>
      <trkpt lat="48.38224" lon="2.71411">
        <ele>116.9</ele>
        <time>2023-07-20T09:09:11Z</time>
      </trkpt>
      <trkpt lat="48.38224" lon="2.71412">
        <ele>116.9</ele>
        <time>2023-07-20T09:09:12Z</time>
      </trkpt>
      <trkpt lat="48.38223" lon="2.71414">
        <ele>116.8</ele>
        <time>2023-07-20T09:09:13Z</time>
      </trkpt>
      <trkpt lat="48.38223" lon="2.71415">
        <ele>116.8</ele>
        <time>2023-07-20T09:09:14Z</time>
      </trkpt>
      <trkpt lat="48.38223" lon="2.71417">
        <ele>116.8</ele>
        <time>2023-07-20T09:09:15Z</time>
      </trkpt>
      <trkpt lat="48.38222" lon="2.71419">
        <ele>116.7</ele>
        <time>2023-07-20T09:09:16Z</time>
      </trkpt>
      <trkpt lat="48.38222" lon="2.7142">
        <ele>116.7</ele>
        <time>2023-07-20T09:09:17Z</time>
      </trkpt>
      <trkpt lat="48.38223" lon="2.71422">
        <ele>116.8</ele>
        <time>2023-07-20T09:09:18Z</time>
      </trkpt>
      <trkpt lat="48.38223" lon="2.71423">
        <ele>116.7</ele>
        <time>2023-07-20T09:09:19Z</time>
      </trkpt>
      <trkpt lat="48.38223" lon="2.71425">
        <ele>116.7</ele>
        <time>2023-07-20T09:09:20Z</time>
      </trkpt>
      <trkpt lat="48.38223" lon="2.71427">
        <ele>116.7</ele>
        <time>2023-07-20T09:09:21Z</time>
      </trkpt>
      <trkpt lat="48.38223" lon="2.71427">
        <ele>116.6</ele>
        <time>2023-07-20T09:09:22Z</time>
      </trkpt>
      <trkpt lat="48.38223" lon="2.71428">
        <ele>116.6</ele>
        <time>2023-07-20T09:09:23Z</time>
      </trkpt>
      <trkpt lat="48.38223" lon="2.71429">
        <ele>116.6</ele>
        <time>2023-07-20T09:09:24Z</time>
      </trkpt>
      <trkpt lat="48.38223" lon="2.7143">
        <ele>116.6</ele>
        <time>2023-07-20T09:09:25Z</time>
      </trkpt>
      <trkpt lat="48.38223" lon="2.7143">
        <ele>116.6</ele>
        <time>2023-07-20T09:09:26Z</time>
      </trkpt>
      <trkpt lat="48.38223" lon="2.71431">
        <ele>116.6</ele>
        <time>2023-07-20T09:09:27Z</time>
      </trkpt>
      <trkpt lat="48.38223" lon="2.71431">
        <ele>116.6</ele>
        <time>2023-07-20T09:09:28Z</time>
      </trkpt>
      <trkpt lat="48.38223" lon="2.71432">
        <ele>116.5</ele>
        <time>2023-07-20T09:09:29Z</time>
      </trkpt>
      <trkpt lat="48.38223" lon="2.71434">
        <ele>116.5</ele>
        <time>2023-07-20T09:09:30Z</time>
      </trkpt>
      <trkpt lat="48.38223" lon="2.71435">
        <ele>116.5</ele>
        <time>2023-07-20T09:09:31Z</time>
      </trkpt>
      <trkpt lat="48.38224" lon="2.71437">
        <ele>116.5</ele>
        <time>2023-07-20T09:09:32Z</time>
      </trkpt>
      <trkpt lat="48.38223" lon="2.71439">
        <ele>116.5</ele>
        <time>2023-07-20T09:09:33Z</time>
      </trkpt>
      <trkpt lat="48.38223" lon="2.71441">
        <ele>116.4</ele>
        <time>2023-07-20T09:09:34Z</time>
      </trkpt>
      <trkpt lat="48.38222" lon="2.71442">
        <ele>116.4</ele>
        <time>2023-07-20T09:09:35Z</time>
      </trkpt>
      <trkpt lat="48.38221" lon="2.71443">
        <ele>116.4</ele>
        <time>2023-07-20T09:09:36Z</time>
      </trkpt>
      <trkpt lat="48.38221" lon="2.71443">
        <ele>116.4</ele>
        <time>2023-07-20T09:09:37Z</time>
      </trkpt>
      <trkpt lat="48.38219" lon="2.71444">
        <ele>116.3</ele>
        <time>2023-07-20T09:09:38Z</time>
      </trkpt>
      <trkpt lat="48.38219" lon="2.71445">
        <ele>116.3</ele>
        <time>2023-07-20T09:09:39Z</time>
      </trkpt>
      <trkpt lat="48.38218" lon="2.71446">
        <ele>116.3</ele>
        <time>2023-07-20T09:09:40Z</time>
      </trkpt>
      <trkpt lat="48.38218" lon="2.71446">
        <ele>116.3</ele>
        <time>2023-07-20T09:09:41Z</time>
      </trkpt>
      <trkpt lat="48.38217" lon="2.71448">
        <ele>116.3</ele>
        <time>2023-07-20T09:09:42Z</time>
      </trkpt>
      <trkpt lat="48.38217" lon="2.71448">
        <ele>116.2</ele>
        <time>2023-07-20T09:09:43Z</time>
      </trkpt>
      <trkpt lat="48.38217" lon="2.71449">
        <ele>116.2</ele>
        <time>2023-07-20T09:09:44Z</time>
      </trkpt>
      <trkpt lat="48.38217" lon="2.71451">
        <ele>116.2</ele>
        <time>2023-07-20T09:09:45Z</time>
      </trkpt>
      <trkpt lat="48.38217" lon="2.71452">
        <ele>116.2</ele>
        <time>2023-07-20T09:09:46Z</time>
      </trkpt>
      <trkpt lat="48.38217" lon="2.71453">
        <ele>116.2</ele>
        <time>2023-07-20T09:09:47Z</time>
      </trkpt>
      <trkpt lat="48.38217" lon="2.71454">
        <ele>116.2</ele>
        <time>2023-07-20T09:09:48Z</time>
      </trkpt>
      <trkpt lat="48.38217" lon="2.71455">
        <ele>116.2</ele>
        <time>2023-07-20T09:09:49Z</time>
      </trkpt>
      <trkpt lat="48.38217" lon="2.71456">
        <ele>116.2</ele>
        <time>2023-07-20T09:09:50Z</time>
      </trkpt>
      <trkpt lat="48.38218" lon="2.71457">
        <ele>116.2</ele>
        <time>2023-07-20T09:09:51Z</time>
      </trkpt>
      <trkpt lat="48.38218" lon="2.71459">
        <ele>116.1</ele>
        <time>2023-07-20T09:09:52Z</time>
      </trkpt>
      <trkpt lat="48.38218" lon="2.71461">
        <ele>116.1</ele>
        <time>2023-07-20T09:09:53Z</time>
      </trkpt>
      <trkpt lat="48.38217" lon="2.71463">
        <ele>116.1</ele>
        <time>2023-07-20T09:09:54Z</time>
      </trkpt>
      <trkpt lat="48.38217" lon="2.71464">
        <ele>116.1</ele>
        <time>2023-07-20T09:09:55Z</time>
      </trkpt>
      <trkpt lat="48.38217" lon="2.71465">
        <ele>116.1</ele>
        <time>2023-07-20T09:09:56Z</time>
      </trkpt>
      <trkpt lat="48.38217" lon="2.71468">
        <ele>116</ele>
        <time>2023-07-20T09:09:57Z</time>
      </trkpt>
      <trkpt lat="48.38218" lon="2.7147">
        <ele>116</ele>
        <time>2023-07-20T09:09:58Z</time>
      </trkpt>
      <trkpt lat="48.38217" lon="2.71471">
        <ele>116</ele>
        <time>2023-07-20T09:09:59Z</time>
      </trkpt>
      <trkpt lat="48.38217" lon="2.71472">
        <ele>116</ele>
        <time>2023-07-20T09:10:00Z</time>
      </trkpt>
      <trkpt lat="48.38218" lon="2.71475">
        <ele>116</ele>
        <time>2023-07-20T09:10:01Z</time>
      </trkpt>
      <trkpt lat="48.38218" lon="2.71477">
        <ele>116</ele>
        <time>2023-07-20T09:10:02Z</time>
      </trkpt>
      <trkpt lat="48.38218" lon="2.71478">
        <ele>116</ele>
        <time>2023-07-20T09:10:03Z</time>
      </trkpt>
      <trkpt lat="48.38218" lon="2.71479">
        <ele>115.9</ele>
        <time>2023-07-20T09:10:04Z</time>
      </trkpt>
      <trkpt lat="48.38218" lon="2.71481">
        <ele>115.9</ele>
        <time>2023-07-20T09:10:05Z</time>
      </trkpt>
      <trkpt lat="48.38218" lon="2.71482">
        <ele>115.9</ele>
        <time>2023-07-20T09:10:06Z</time>
      </trkpt>
      <trkpt lat="48.38217" lon="2.71483">
        <ele>115.9</ele>
        <time>2023-07-20T09:10:07Z</time>
      </trkpt>
      <trkpt lat="48.38217" lon="2.71484">
        <ele>115.9</ele>
        <time>2023-07-20T09:10:08Z</time>
      </trkpt>
      <trkpt lat="48.38217" lon="2.71487">
        <ele>115.8</ele>
        <time>2023-07-20T09:10:09Z</time>
      </trkpt>
      <trkpt lat="48.38217" lon="2.71489">
        <ele>115.8</ele>
        <time>2023-07-20T09:10:10Z</time>
      </trkpt>
      <trkpt lat="48.38217" lon="2.7149">
        <ele>115.8</ele>
        <time>2023-07-20T09:10:11Z</time>
      </trkpt>
      <trkpt lat="48.38218" lon="2.71492">
        <ele>115.7</ele>
        <time>2023-07-20T09:10:12Z</time>
      </trkpt>
      <trkpt lat="48.38219" lon="2.71495">
        <ele>115.7</ele>
        <time>2023-07-20T09:10:13Z</time>
      </trkpt>
      <trkpt lat="48.3822" lon="2.71496">
        <ele>115.7</ele>
        <time>2023-07-20T09:10:14Z</time>
      </trkpt>
      <trkpt lat="48.38221" lon="2.71499">
        <ele>115.7</ele>
        <time>2023-07-20T09:10:15Z</time>
      </trkpt>
      <trkpt lat="48.38221" lon="2.715">
        <ele>115.6</ele>
        <time>2023-07-20T09:10:16Z</time>
      </trkpt>
      <trkpt lat="48.38222" lon="2.71501">
        <ele>115.6</ele>
        <time>2023-07-20T09:10:17Z</time>
      </trkpt>
      <trkpt lat="48.38222" lon="2.71503">
        <ele>115.6</ele>
        <time>2023-07-20T09:10:18Z</time>
      </trkpt>
      <trkpt lat="48.38223" lon="2.71504">
        <ele>115.5</ele>
        <time>2023-07-20T09:10:19Z</time>
      </trkpt>
      <trkpt lat="48.38224" lon="2.71505">
        <ele>115.5</ele>
        <time>2023-07-20T09:10:20Z</time>
      </trkpt>
      <trkpt lat="48.38225" lon="2.71506">
        <ele>115.5</ele>
        <time>2023-07-20T09:10:21Z</time>
      </trkpt>
      <trkpt lat="48.38226" lon="2.71507">
        <ele>115.5</ele>
        <time>2023-07-20T09:10:22Z</time>
      </trkpt>
      <trkpt lat="48.38226" lon="2.71508">
        <ele>115.4</ele>
        <time>2023-07-20T09:10:23Z</time>
      </trkpt>
      <trkpt lat="48.38227" lon="2.7151">
        <ele>115.4</ele>
        <time>2023-07-20T09:10:24Z</time>
      </trkpt>
      <trkpt lat="48.38227" lon="2.71511">
        <ele>115.4</ele>
        <time>2023-07-20T09:10:25Z</time>
      </trkpt>
      <trkpt lat="48.38226" lon="2.71513">
        <ele>115.3</ele>
        <time>2023-07-20T09:10:26Z</time>
      </trkpt>
      <trkpt lat="48.38226" lon="2.71514">
        <ele>115.3</ele>
        <time>2023-07-20T09:10:27Z</time>
      </trkpt>
      <trkpt lat="48.38227" lon="2.71516">
        <ele>115.3</ele>
        <time>2023-07-20T09:10:28Z</time>
      </trkpt>
      <trkpt lat="48.38226" lon="2.71518">
        <ele>115.2</ele>
        <time>2023-07-20T09:10:29Z</time>
      </trkpt>
      <trkpt lat="48.38226" lon="2.71519">
        <ele>115.2</ele>
        <time>2023-07-20T09:10:30Z</time>
      </trkpt>
      <trkpt lat="48.38226" lon="2.7152">
        <ele>115.2</ele>
        <time>2023-07-20T09:10:31Z</time>
      </trkpt>
      <trkpt lat="48.38226" lon="2.71521">
        <ele>115.2</ele>
        <time>2023-07-20T09:10:32Z</time>
      </trkpt>
      <trkpt lat="48.38226" lon="2.71521">
        <ele>115.2</ele>
        <time>2023-07-20T09:10:33Z</time>
      </trkpt>
      <trkpt lat="48.38226" lon="2.71521">
        <ele>115.2</ele>
        <time>2023-07-20T09:10:34Z</time>
      </trkpt>
      <trkpt lat="48.38226" lon="2.71522">
        <ele>115.1</ele>
        <time>2023-07-20T09:10:35Z</time>
      </trkpt>
      <trkpt lat="48.38226" lon="2.71525">
        <ele>115.1</ele>
        <time>2023-07-20T09:10:36Z</time>
      </trkpt>
      <trkpt lat="48.38226" lon="2.71526">
        <ele>115</ele>
        <time>2023-07-20T09:10:37Z</time>
      </trkpt>
      <trkpt lat="48.38226" lon="2.71528">
        <ele>115</ele>
        <time>2023-07-20T09:10:38Z</time>
      </trkpt>
      <trkpt lat="48.38226" lon="2.71529">
        <ele>115</ele>
        <time>2023-07-20T09:10:39Z</time>
      </trkpt>
      <trkpt lat="48.38226" lon="2.7153">
        <ele>114.9</ele>
        <time>2023-07-20T09:10:40Z</time>
      </trkpt>
      <trkpt lat="48.38226" lon="2.7153">
        <ele>114.9</ele>
        <time>2023-07-20T09:10:41Z</time>
      </trkpt>
      <trkpt lat="48.38226" lon="2.71531">
        <ele>114.9</ele>
        <time>2023-07-20T09:10:42Z</time>
      </trkpt>
      <trkpt lat="48.38226" lon="2.71532">
        <ele>114.9</ele>
        <time>2023-07-20T09:10:43Z</time>
      </trkpt>
      <trkpt lat="48.38225" lon="2.71532">
        <ele>114.9</ele>
        <time>2023-07-20T09:10:44Z</time>
      </trkpt>
      <trkpt lat="48.38226" lon="2.71534">
        <ele>114.9</ele>
        <time>2023-07-20T09:10:45Z</time>
      </trkpt>
      <trkpt lat="48.38226" lon="2.71536">
        <ele>114.8</ele>
        <time>2023-07-20T09:10:46Z</time>
      </trkpt>
      <trkpt lat="48.38226" lon="2.71537">
        <ele>114.8</ele>
        <time>2023-07-20T09:10:47Z</time>
      </trkpt>
      <trkpt lat="48.38227" lon="2.71539">
        <ele>114.6</ele>
        <time>2023-07-20T09:10:48Z</time>
      </trkpt>
      <trkpt lat="48.38227" lon="2.7154">
        <ele>114.6</ele>
        <time>2023-07-20T09:10:49Z</time>
      </trkpt>
      <trkpt lat="48.38227" lon="2.71543">
        <ele>114.5</ele>
        <time>2023-07-20T09:10:50Z</time>
      </trkpt>
      <trkpt lat="48.38228" lon="2.71545">
        <ele>114.5</ele>
        <time>2023-07-20T09:10:51Z</time>
      </trkpt>
      <trkpt lat="48.38228" lon="2.71547">
        <ele>114.3</ele>
        <time>2023-07-20T09:10:52Z</time>
      </trkpt>
      <trkpt lat="48.38227" lon="2.71548">
        <ele>114.3</ele>
        <time>2023-07-20T09:10:53Z</time>
      </trkpt>
      <trkpt lat="48.38227" lon="2.71548">
        <ele>114.3</ele>
        <time>2023-07-20T09:10:54Z</time>
      </trkpt>
      <trkpt lat="48.38227" lon="2.71549">
        <ele>114.3</ele>
        <time>2023-07-20T09:10:55Z</time>
      </trkpt>
      <trkpt lat="48.38227" lon="2.7155">
        <ele>114.3</ele>
        <time>2023-07-20T09:10:56Z</time>
      </trkpt>
      <trkpt lat="48.38226" lon="2.7155">
        <ele>114.3</ele>
        <time>2023-07-20T09:10:57Z</time>
      </trkpt>
      <trkpt lat="48.38226" lon="2.71552">
        <ele>114.2</ele>
        <time>2023-07-20T09:10:58Z</time>
      </trkpt>
      <trkpt lat="48.38227" lon="2.71553">
        <ele>114.2</ele>
        <time>2023-07-20T09:10:59Z</time>
      </trkpt>
      <trkpt lat="48.38227" lon="2.71553">
        <ele>114.2</ele>
        <time>2023-07-20T09:11:00Z</time>
      </trkpt>
      <trkpt lat="48.38227" lon="2.71555">
        <ele>114.2</ele>
        <time>2023-07-20T09:11:01Z</time>
      </trkpt>
      <trkpt lat="48.38228" lon="2.71555">
        <ele>114.2</ele>
        <time>2023-07-20T09:11:02Z</time>
      </trkpt>
      <trkpt lat="48.38228" lon="2.71556">
        <ele>113.9</ele>
        <time>2023-07-20T09:11:03Z</time>
      </trkpt>
      <trkpt lat="48.38228" lon="2.71557">
        <ele>114</ele>
        <time>2023-07-20T09:11:04Z</time>
      </trkpt>
      <trkpt lat="48.38228" lon="2.71558">
        <ele>113.9</ele>
        <time>2023-07-20T09:11:05Z</time>
      </trkpt>
      <trkpt lat="48.38229" lon="2.71559">
        <ele>113.9</ele>
        <time>2023-07-20T09:11:06Z</time>
      </trkpt>
      <trkpt lat="48.3823" lon="2.7156">
        <ele>113.7</ele>
        <time>2023-07-20T09:11:07Z</time>
      </trkpt>
      <trkpt lat="48.3823" lon="2.71562">
        <ele>113.7</ele>
        <time>2023-07-20T09:11:08Z</time>
      </trkpt>
      <trkpt lat="48.3823" lon="2.71563">
        <ele>113.7</ele>
        <time>2023-07-20T09:11:09Z</time>
      </trkpt>
      <trkpt lat="48.3823" lon="2.71564">
        <ele>113.7</ele>
        <time>2023-07-20T09:11:10Z</time>
      </trkpt>
      <trkpt lat="48.3823" lon="2.71564">
        <ele>113.6</ele>
        <time>2023-07-20T09:11:11Z</time>
      </trkpt>
      <trkpt lat="48.3823" lon="2.71564">
        <ele>113.7</ele>
        <time>2023-07-20T09:11:12Z</time>
      </trkpt>
      <trkpt lat="48.3823" lon="2.71564">
        <ele>113.7</ele>
        <time>2023-07-20T09:11:13Z</time>
      </trkpt>
      <trkpt lat="48.38229" lon="2.71564">
        <ele>113.7</ele>
        <time>2023-07-20T09:11:14Z</time>
      </trkpt>
      <trkpt lat="48.38229" lon="2.71564">
        <ele>113.7</ele>
        <time>2023-07-20T09:11:15Z</time>
      </trkpt>
      <trkpt lat="48.38229" lon="2.71564">
        <ele>113.6</ele>
        <time>2023-07-20T09:11:16Z</time>
      </trkpt>
      <trkpt lat="48.38229" lon="2.71566">
        <ele>113.5</ele>
        <time>2023-07-20T09:11:17Z</time>
      </trkpt>
      <trkpt lat="48.38229" lon="2.71568">
        <ele>113.5</ele>
        <time>2023-07-20T09:11:18Z</time>
      </trkpt>
      <trkpt lat="48.38229" lon="2.71569">
        <ele>113.4</ele>
        <time>2023-07-20T09:11:19Z</time>
      </trkpt>
      <trkpt lat="48.38229" lon="2.7157">
        <ele>113.4</ele>
        <time>2023-07-20T09:11:20Z</time>
      </trkpt>
      <trkpt lat="48.3823" lon="2.71572">
        <ele>113.4</ele>
        <time>2023-07-20T09:11:21Z</time>
      </trkpt>
      <trkpt lat="48.38233" lon="2.71574">
        <ele>113.1</ele>
        <time>2023-07-20T09:11:22Z</time>
      </trkpt>
      <trkpt lat="48.38234" lon="2.71575">
        <ele>112.9</ele>
        <time>2023-07-20T09:11:23Z</time>
      </trkpt>
      <trkpt lat="48.38235" lon="2.71575">
        <ele>112.9</ele>
        <time>2023-07-20T09:11:24Z</time>
      </trkpt>
      <trkpt lat="48.38235" lon="2.71577">
        <ele>112.9</ele>
        <time>2023-07-20T09:11:25Z</time>
      </trkpt>
      <trkpt lat="48.38235" lon="2.71577">
        <ele>112.7</ele>
        <time>2023-07-20T09:11:26Z</time>
      </trkpt>
      <trkpt lat="48.38235" lon="2.71578">
        <ele>112.7</ele>
        <time>2023-07-20T09:11:27Z</time>
      </trkpt>
      <trkpt lat="48.38235" lon="2.71578">
        <ele>112.7</ele>
        <time>2023-07-20T09:11:28Z</time>
      </trkpt>
      <trkpt lat="48.38235" lon="2.71578">
        <ele>112.7</ele>
        <time>2023-07-20T09:11:29Z</time>
      </trkpt>
      <trkpt lat="48.38235" lon="2.71579">
        <ele>112.7</ele>
        <time>2023-07-20T09:11:30Z</time>
      </trkpt>
      <trkpt lat="48.38236" lon="2.71581">
        <ele>112.7</ele>
        <time>2023-07-20T09:11:31Z</time>
      </trkpt>
      <trkpt lat="48.38237" lon="2.71582">
        <ele>112.3</ele>
        <time>2023-07-20T09:11:32Z</time>
      </trkpt>
      <trkpt lat="48.38237" lon="2.71583">
        <ele>112.3</ele>
        <time>2023-07-20T09:11:33Z</time>
      </trkpt>
      <trkpt lat="48.38237" lon="2.71583">
        <ele>112.3</ele>
        <time>2023-07-20T09:11:34Z</time>
      </trkpt>
      <trkpt lat="48.38237" lon="2.71584">
        <ele>112.2</ele>
        <time>2023-07-20T09:11:35Z</time>
      </trkpt>
      <trkpt lat="48.38237" lon="2.71586">
        <ele>112.1</ele>
        <time>2023-07-20T09:11:36Z</time>
      </trkpt>
      <trkpt lat="48.38237" lon="2.71587">
        <ele>112.1</ele>
        <time>2023-07-20T09:11:37Z</time>
      </trkpt>
      <trkpt lat="48.38237" lon="2.71588">
        <ele>112.1</ele>
        <time>2023-07-20T09:11:38Z</time>
      </trkpt>
      <trkpt lat="48.38237" lon="2.71588">
        <ele>112.1</ele>
        <time>2023-07-20T09:11:39Z</time>
      </trkpt>
      <trkpt lat="48.38238" lon="2.7159">
        <ele>112.1</ele>
        <time>2023-07-20T09:11:40Z</time>
      </trkpt>
      <trkpt lat="48.38238" lon="2.71591">
        <ele>111.9</ele>
        <time>2023-07-20T09:11:41Z</time>
      </trkpt>
      <trkpt lat="48.38238" lon="2.71593">
        <ele>111.9</ele>
        <time>2023-07-20T09:11:42Z</time>
      </trkpt>
      <trkpt lat="48.38238" lon="2.71595">
        <ele>111.7</ele>
        <time>2023-07-20T09:11:43Z</time>
      </trkpt>
      <trkpt lat="48.38237" lon="2.71597">
        <ele>111.7</ele>
        <time>2023-07-20T09:11:44Z</time>
      </trkpt>
      <trkpt lat="48.38237" lon="2.71597">
        <ele>111.7</ele>
        <time>2023-07-20T09:11:45Z</time>
      </trkpt>
      <trkpt lat="48.38238" lon="2.71599">
        <ele>111.5</ele>
        <time>2023-07-20T09:11:46Z</time>
      </trkpt>
      <trkpt lat="48.38238" lon="2.716">
        <ele>111.5</ele>
        <time>2023-07-20T09:11:47Z</time>
      </trkpt>
      <trkpt lat="48.38238" lon="2.71603">
        <ele>111.3</ele>
        <time>2023-07-20T09:11:48Z</time>
      </trkpt>
      <trkpt lat="48.38238" lon="2.71604">
        <ele>111.3</ele>
        <time>2023-07-20T09:11:49Z</time>
      </trkpt>
      <trkpt lat="48.38238" lon="2.71605">
        <ele>111.3</ele>
        <time>2023-07-20T09:11:50Z</time>
      </trkpt>
      <trkpt lat="48.38238" lon="2.71607">
        <ele>111.3</ele>
        <time>2023-07-20T09:11:51Z</time>
      </trkpt>
      <trkpt lat="48.38237" lon="2.71608">
        <ele>111.1</ele>
        <time>2023-07-20T09:11:52Z</time>
      </trkpt>
      <trkpt lat="48.38237" lon="2.7161">
        <ele>111.1</ele>
        <time>2023-07-20T09:11:53Z</time>
      </trkpt>
      <trkpt lat="48.38237" lon="2.71613">
        <ele>110.9</ele>
        <time>2023-07-20T09:11:54Z</time>
      </trkpt>
      <trkpt lat="48.38238" lon="2.71614">
        <ele>110.9</ele>
        <time>2023-07-20T09:11:55Z</time>
      </trkpt>
      <trkpt lat="48.38239" lon="2.71614">
        <ele>110.9</ele>
        <time>2023-07-20T09:11:56Z</time>
      </trkpt>
      <trkpt lat="48.38239" lon="2.71615">
        <ele>110.9</ele>
        <time>2023-07-20T09:11:57Z</time>
      </trkpt>
      <trkpt lat="48.38238" lon="2.71617">
        <ele>110.8</ele>
        <time>2023-07-20T09:11:58Z</time>
      </trkpt>
      <trkpt lat="48.38238" lon="2.71618">
        <ele>110.7</ele>
        <time>2023-07-20T09:11:59Z</time>
      </trkpt>
      <trkpt lat="48.38238" lon="2.7162">
        <ele>110.6</ele>
        <time>2023-07-20T09:12:00Z</time>
      </trkpt>
      <trkpt lat="48.38238" lon="2.71622">
        <ele>110.6</ele>
        <time>2023-07-20T09:12:01Z</time>
      </trkpt>
      <trkpt lat="48.38238" lon="2.71623">
        <ele>110.6</ele>
        <time>2023-07-20T09:12:02Z</time>
      </trkpt>
      <trkpt lat="48.38237" lon="2.71625">
        <ele>110.4</ele>
        <time>2023-07-20T09:12:03Z</time>
      </trkpt>
      <trkpt lat="48.38238" lon="2.71626">
        <ele>110.4</ele>
        <time>2023-07-20T09:12:04Z</time>
      </trkpt>
      <trkpt lat="48.38238" lon="2.71628">
        <ele>110.3</ele>
        <time>2023-07-20T09:12:05Z</time>
      </trkpt>
      <trkpt lat="48.38238" lon="2.71629">
        <ele>110.3</ele>
        <time>2023-07-20T09:12:06Z</time>
      </trkpt>
      <trkpt lat="48.38238" lon="2.7163">
        <ele>110.3</ele>
        <time>2023-07-20T09:12:07Z</time>
      </trkpt>
      <trkpt lat="48.38238" lon="2.71632">
        <ele>110.3</ele>
        <time>2023-07-20T09:12:08Z</time>
      </trkpt>
      <trkpt lat="48.38238" lon="2.71633">
        <ele>110.2</ele>
        <time>2023-07-20T09:12:09Z</time>
      </trkpt>
      <trkpt lat="48.38238" lon="2.71634">
        <ele>110.2</ele>
        <time>2023-07-20T09:12:10Z</time>
      </trkpt>
      <trkpt lat="48.38238" lon="2.71635">
        <ele>110.2</ele>
        <time>2023-07-20T09:12:11Z</time>
      </trkpt>
      <trkpt lat="48.38239" lon="2.71636">
        <ele>110.2</ele>
        <time>2023-07-20T09:12:12Z</time>
      </trkpt>
      <trkpt lat="48.38239" lon="2.71638">
        <ele>109.9</ele>
        <time>2023-07-20T09:12:13Z</time>
      </trkpt>
      <trkpt lat="48.38241" lon="2.71639">
        <ele>109.9</ele>
        <time>2023-07-20T09:12:14Z</time>
      </trkpt>
      <trkpt lat="48.38241" lon="2.7164">
        <ele>109.9</ele>
        <time>2023-07-20T09:12:15Z</time>
      </trkpt>
      <trkpt lat="48.38242" lon="2.71641">
        <ele>109.9</ele>
        <time>2023-07-20T09:12:16Z</time>
      </trkpt>
      <trkpt lat="48.38242" lon="2.71642">
        <ele>109.9</ele>
        <time>2023-07-20T09:12:17Z</time>
      </trkpt>
      <trkpt lat="48.38243" lon="2.71644">
        <ele>109.7</ele>
        <time>2023-07-20T09:12:18Z</time>
      </trkpt>
      <trkpt lat="48.38243" lon="2.71645">
        <ele>109.7</ele>
        <time>2023-07-20T09:12:19Z</time>
      </trkpt>
      <trkpt lat="48.38244" lon="2.71646">
        <ele>109.6</ele>
        <time>2023-07-20T09:12:20Z</time>
      </trkpt>
      <trkpt lat="48.38244" lon="2.71647">
        <ele>109.6</ele>
        <time>2023-07-20T09:12:21Z</time>
      </trkpt>
      <trkpt lat="48.38245" lon="2.71647">
        <ele>109.6</ele>
        <time>2023-07-20T09:12:22Z</time>
      </trkpt>
      <trkpt lat="48.38245" lon="2.71649">
        <ele>109.5</ele>
        <time>2023-07-20T09:12:23Z</time>
      </trkpt>
      <trkpt lat="48.38246" lon="2.71651">
        <ele>109.4</ele>
        <time>2023-07-20T09:12:24Z</time>
      </trkpt>
      <trkpt lat="48.38247" lon="2.71652">
        <ele>109.4</ele>
        <time>2023-07-20T09:12:25Z</time>
      </trkpt>
      <trkpt lat="48.38248" lon="2.71652">
        <ele>109.4</ele>
        <time>2023-07-20T09:12:26Z</time>
      </trkpt>
      <trkpt lat="48.38249" lon="2.71652">
        <ele>109.2</ele>
        <time>2023-07-20T09:12:27Z</time>
      </trkpt>
      <trkpt lat="48.38249" lon="2.71653">
        <ele>109.2</ele>
        <time>2023-07-20T09:12:28Z</time>
      </trkpt>
      <trkpt lat="48.3825" lon="2.71654">
        <ele>109.2</ele>
        <time>2023-07-20T09:12:29Z</time>
      </trkpt>
      <trkpt lat="48.3825" lon="2.71655">
        <ele>109.1</ele>
        <time>2023-07-20T09:12:30Z</time>
      </trkpt>
      <trkpt lat="48.3825" lon="2.71657">
        <ele>109.1</ele>
        <time>2023-07-20T09:12:31Z</time>
      </trkpt>
      <trkpt lat="48.38251" lon="2.71659">
        <ele>108.8</ele>
        <time>2023-07-20T09:12:32Z</time>
      </trkpt>
      <trkpt lat="48.38251" lon="2.7166">
        <ele>108.7</ele>
        <time>2023-07-20T09:12:33Z</time>
      </trkpt>
      <trkpt lat="48.38252" lon="2.7166">
        <ele>108.7</ele>
        <time>2023-07-20T09:12:34Z</time>
      </trkpt>
      <trkpt lat="48.38252" lon="2.71661">
        <ele>108.7</ele>
        <time>2023-07-20T09:12:35Z</time>
      </trkpt>
      <trkpt lat="48.38252" lon="2.71663">
        <ele>108.6</ele>
        <time>2023-07-20T09:12:36Z</time>
      </trkpt>
      <trkpt lat="48.38252" lon="2.71665">
        <ele>108.6</ele>
        <time>2023-07-20T09:12:37Z</time>
      </trkpt>
      <trkpt lat="48.38252" lon="2.71666">
        <ele>108.6</ele>
        <time>2023-07-20T09:12:38Z</time>
      </trkpt>
      <trkpt lat="48.38252" lon="2.71667">
        <ele>108.6</ele>
        <time>2023-07-20T09:12:39Z</time>
      </trkpt>
      <trkpt lat="48.38252" lon="2.71668">
        <ele>108.4</ele>
        <time>2023-07-20T09:12:40Z</time>
      </trkpt>
      <trkpt lat="48.38252" lon="2.71668">
        <ele>108.4</ele>
        <time>2023-07-20T09:12:41Z</time>
      </trkpt>
      <trkpt lat="48.38253" lon="2.71668">
        <ele>108.4</ele>
        <time>2023-07-20T09:12:42Z</time>
      </trkpt>
      <trkpt lat="48.38253" lon="2.71668">
        <ele>108.4</ele>
        <time>2023-07-20T09:12:43Z</time>
      </trkpt>
      <trkpt lat="48.38254" lon="2.7167">
        <ele>108</ele>
        <time>2023-07-20T09:12:44Z</time>
      </trkpt>
      <trkpt lat="48.38255" lon="2.71672">
        <ele>107.8</ele>
        <time>2023-07-20T09:12:45Z</time>
      </trkpt>
      <trkpt lat="48.38257" lon="2.71676">
        <ele>107.2</ele>
        <time>2023-07-20T09:12:46Z</time>
      </trkpt>
      <trkpt lat="48.38258" lon="2.71676">
        <ele>107.2</ele>
        <time>2023-07-20T09:12:47Z</time>
      </trkpt>
      <trkpt lat="48.38257" lon="2.71678">
        <ele>107.2</ele>
        <time>2023-07-20T09:12:48Z</time>
      </trkpt>
      <trkpt lat="48.38257" lon="2.71679">
        <ele>107.2</ele>
        <time>2023-07-20T09:12:49Z</time>
      </trkpt>
      <trkpt lat="48.38258" lon="2.7168">
        <ele>107.1</ele>
        <time>2023-07-20T09:12:50Z</time>
      </trkpt>
      <trkpt lat="48.38258" lon="2.7168">
        <ele>107.1</ele>
        <time>2023-07-20T09:12:51Z</time>
      </trkpt>
      <trkpt lat="48.38258" lon="2.7168">
        <ele>107.1</ele>
        <time>2023-07-20T09:12:52Z</time>
      </trkpt>
      <trkpt lat="48.38258" lon="2.7168">
        <ele>107.1</ele>
        <time>2023-07-20T09:12:53Z</time>
      </trkpt>
      <trkpt lat="48.38258" lon="2.7168">
        <ele>107.1</ele>
        <time>2023-07-20T09:12:54Z</time>
      </trkpt>
      <trkpt lat="48.38258" lon="2.7168">
        <ele>107.1</ele>
        <time>2023-07-20T09:12:55Z</time>
      </trkpt>
      <trkpt lat="48.38258" lon="2.7168">
        <ele>107.1</ele>
        <time>2023-07-20T09:12:56Z</time>
      </trkpt>
      <trkpt lat="48.38258" lon="2.7168">
        <ele>107.1</ele>
        <time>2023-07-20T09:12:57Z</time>
      </trkpt>
      <trkpt lat="48.38258" lon="2.7168">
        <ele>107.1</ele>
        <time>2023-07-20T09:12:58Z</time>
      </trkpt>
      <trkpt lat="48.38257" lon="2.71679">
        <ele>107.1</ele>
        <time>2023-07-20T09:12:59Z</time>
      </trkpt>
      <trkpt lat="48.38258" lon="2.71679">
        <ele>107.1</ele>
        <time>2023-07-20T09:13:00Z</time>
      </trkpt>
      <trkpt lat="48.38258" lon="2.71679">
        <ele>107.1</ele>
        <time>2023-07-20T09:13:01Z</time>
      </trkpt>
      <trkpt lat="48.38257" lon="2.71678">
        <ele>107.1</ele>
        <time>2023-07-20T09:13:02Z</time>
      </trkpt>
      <trkpt lat="48.38256" lon="2.71677">
        <ele>107.1</ele>
        <time>2023-07-20T09:13:03Z</time>
      </trkpt>
      <trkpt lat="48.38256" lon="2.71677">
        <ele>107.6</ele>
        <time>2023-07-20T09:13:04Z</time>
      </trkpt>
      <trkpt lat="48.38255" lon="2.71677">
        <ele>107.6</ele>
        <time>2023-07-20T09:13:05Z</time>
      </trkpt>
      <trkpt lat="48.38255" lon="2.71677">
        <ele>107.6</ele>
        <time>2023-07-20T09:13:06Z</time>
      </trkpt>
      <trkpt lat="48.38255" lon="2.71676">
        <ele>107.6</ele>
        <time>2023-07-20T09:13:07Z</time>
      </trkpt>
      <trkpt lat="48.38254" lon="2.71675">
        <ele>107.8</ele>
        <time>2023-07-20T09:13:08Z</time>
      </trkpt>
      <trkpt lat="48.38254" lon="2.71673">
        <ele>107.8</ele>
        <time>2023-07-20T09:13:09Z</time>
      </trkpt>
      <trkpt lat="48.38254" lon="2.71673">
        <ele>107.8</ele>
        <time>2023-07-20T09:13:10Z</time>
      </trkpt>
      <trkpt lat="48.38253" lon="2.71673">
        <ele>108.2</ele>
        <time>2023-07-20T09:13:11Z</time>
      </trkpt>
      <trkpt lat="48.38253" lon="2.71673">
        <ele>108.2</ele>
        <time>2023-07-20T09:13:12Z</time>
      </trkpt>
      <trkpt lat="48.38253" lon="2.71673">
        <ele>108.2</ele>
        <time>2023-07-20T09:13:13Z</time>
      </trkpt>
      <trkpt lat="48.38252" lon="2.71673">
        <ele>108.2</ele>
        <time>2023-07-20T09:13:14Z</time>
      </trkpt>
      <trkpt lat="48.38252" lon="2.71674">
        <ele>108.2</ele>
        <time>2023-07-20T09:13:15Z</time>
      </trkpt>
      <trkpt lat="48.38252" lon="2.71674">
        <ele>108.2</ele>
        <time>2023-07-20T09:13:16Z</time>
      </trkpt>
      <trkpt lat="48.38251" lon="2.71676">
        <ele>108</ele>
        <time>2023-07-20T09:13:17Z</time>
      </trkpt>
      <trkpt lat="48.38251" lon="2.71677">
        <ele>108</ele>
        <time>2023-07-20T09:13:18Z</time>
      </trkpt>
      <trkpt lat="48.3825" lon="2.71678">
        <ele>108.3</ele>
        <time>2023-07-20T09:13:19Z</time>
      </trkpt>
      <trkpt lat="48.3825" lon="2.71678">
        <ele>108.3</ele>
        <time>2023-07-20T09:13:20Z</time>
      </trkpt>
      <trkpt lat="48.3825" lon="2.71679">
        <ele>108.3</ele>
        <time>2023-07-20T09:13:21Z</time>
      </trkpt>
      <trkpt lat="48.3825" lon="2.7168">
        <ele>108.1</ele>
        <time>2023-07-20T09:13:22Z</time>
      </trkpt>
      <trkpt lat="48.38251" lon="2.71682">
        <ele>107.7</ele>
        <time>2023-07-20T09:13:23Z</time>
      </trkpt>
      <trkpt lat="48.38252" lon="2.71683">
        <ele>107.7</ele>
        <time>2023-07-20T09:13:24Z</time>
      </trkpt>
      <trkpt lat="48.38253" lon="2.71684">
        <ele>107.7</ele>
        <time>2023-07-20T09:13:25Z</time>
      </trkpt>
      <trkpt lat="48.38253" lon="2.71685">
        <ele>107.5</ele>
        <time>2023-07-20T09:13:26Z</time>
      </trkpt>
      <trkpt lat="48.38254" lon="2.71686">
        <ele>107.1</ele>
        <time>2023-07-20T09:13:27Z</time>
      </trkpt>
      <trkpt lat="48.38254" lon="2.71688">
        <ele>107.1</ele>
        <time>2023-07-20T09:13:28Z</time>
      </trkpt>
      <trkpt lat="48.38254" lon="2.7169">
        <ele>106.9</ele>
        <time>2023-07-20T09:13:29Z</time>
      </trkpt>
      <trkpt lat="48.38254" lon="2.71691">
        <ele>107.3</ele>
        <time>2023-07-20T09:13:30Z</time>
      </trkpt>
      <trkpt lat="48.38254" lon="2.71692">
        <ele>106.9</ele>
        <time>2023-07-20T09:13:31Z</time>
      </trkpt>
      <trkpt lat="48.38254" lon="2.71693">
        <ele>106.9</ele>
        <time>2023-07-20T09:13:32Z</time>
      </trkpt>
      <trkpt lat="48.38254" lon="2.71693">
        <ele>106.9</ele>
        <time>2023-07-20T09:13:33Z</time>
      </trkpt>
      <trkpt lat="48.38253" lon="2.71693">
        <ele>107.1</ele>
        <time>2023-07-20T09:13:34Z</time>
      </trkpt>
      <trkpt lat="48.38253" lon="2.71694">
        <ele>107.1</ele>
        <time>2023-07-20T09:13:35Z</time>
      </trkpt>
      <trkpt lat="48.38252" lon="2.71694">
        <ele>107.1</ele>
        <time>2023-07-20T09:13:36Z</time>
      </trkpt>
      <trkpt lat="48.38252" lon="2.71695">
        <ele>107.1</ele>
        <time>2023-07-20T09:13:37Z</time>
      </trkpt>
      <trkpt lat="48.38252" lon="2.71695">
        <ele>107.1</ele>
        <time>2023-07-20T09:13:38Z</time>
      </trkpt>
      <trkpt lat="48.38252" lon="2.71695">
        <ele>107.1</ele>
        <time>2023-07-20T09:13:39Z</time>
      </trkpt>
      <trkpt lat="48.3825" lon="2.71695">
        <ele>107.5</ele>
        <time>2023-07-20T09:13:40Z</time>
      </trkpt>
      <trkpt lat="48.38249" lon="2.71695">
        <ele>107.5</ele>
        <time>2023-07-20T09:13:41Z</time>
      </trkpt>
      <trkpt lat="48.38248" lon="2.71695">
        <ele>107.5</ele>
        <time>2023-07-20T09:13:42Z</time>
      </trkpt>
      <trkpt lat="48.38248" lon="2.71696">
        <ele>107.9</ele>
        <time>2023-07-20T09:13:43Z</time>
      </trkpt>
      <trkpt lat="48.38247" lon="2.71696">
        <ele>107.9</ele>
        <time>2023-07-20T09:13:44Z</time>
      </trkpt>
      <trkpt lat="48.38246" lon="2.71696">
        <ele>107.9</ele>
        <time>2023-07-20T09:13:45Z</time>
      </trkpt>
      <trkpt lat="48.38245" lon="2.71697">
        <ele>107.7</ele>
        <time>2023-07-20T09:13:46Z</time>
      </trkpt>
      <trkpt lat="48.38245" lon="2.71698">
        <ele>107.7</ele>
        <time>2023-07-20T09:13:47Z</time>
      </trkpt>
      <trkpt lat="48.38245" lon="2.71698">
        <ele>108.1</ele>
        <time>2023-07-20T09:13:48Z</time>
      </trkpt>
      <trkpt lat="48.38244" lon="2.717">
        <ele>108.1</ele>
        <time>2023-07-20T09:13:49Z</time>
      </trkpt>
      <trkpt lat="48.38244" lon="2.71701">
        <ele>108.1</ele>
        <time>2023-07-20T09:13:50Z</time>
      </trkpt>
      <trkpt lat="48.38244" lon="2.71702">
        <ele>107.9</ele>
        <time>2023-07-20T09:13:51Z</time>
      </trkpt>
      <trkpt lat="48.38244" lon="2.71704">
        <ele>107.9</ele>
        <time>2023-07-20T09:13:52Z</time>
      </trkpt>
      <trkpt lat="48.38244" lon="2.71705">
        <ele>107.9</ele>
        <time>2023-07-20T09:13:53Z</time>
      </trkpt>
      <trkpt lat="48.38244" lon="2.71706">
        <ele>107.7</ele>
        <time>2023-07-20T09:13:54Z</time>
      </trkpt>
      <trkpt lat="48.38245" lon="2.71707">
        <ele>107.7</ele>
        <time>2023-07-20T09:13:55Z</time>
      </trkpt>
      <trkpt lat="48.38244" lon="2.71709">
        <ele>107.7</ele>
        <time>2023-07-20T09:13:56Z</time>
      </trkpt>
      <trkpt lat="48.38244" lon="2.71709">
        <ele>107.7</ele>
        <time>2023-07-20T09:13:57Z</time>
      </trkpt>
      <trkpt lat="48.38244" lon="2.71711">
        <ele>107.5</ele>
        <time>2023-07-20T09:13:58Z</time>
      </trkpt>
      <trkpt lat="48.38245" lon="2.71713">
        <ele>107.5</ele>
        <time>2023-07-20T09:13:59Z</time>
      </trkpt>
      <trkpt lat="48.38245" lon="2.71715">
        <ele>107.3</ele>
        <time>2023-07-20T09:14:00Z</time>
      </trkpt>
      <trkpt lat="48.38245" lon="2.71715">
        <ele>107</ele>
        <time>2023-07-20T09:14:01Z</time>
      </trkpt>
      <trkpt lat="48.38246" lon="2.71717">
        <ele>107</ele>
        <time>2023-07-20T09:14:02Z</time>
      </trkpt>
      <trkpt lat="48.38246" lon="2.71717">
        <ele>107</ele>
        <time>2023-07-20T09:14:03Z</time>
      </trkpt>
      <trkpt lat="48.38247" lon="2.7172">
        <ele>106.8</ele>
        <time>2023-07-20T09:14:04Z</time>
      </trkpt>
      <trkpt lat="48.38247" lon="2.7172">
        <ele>106.8</ele>
        <time>2023-07-20T09:14:05Z</time>
      </trkpt>
      <trkpt lat="48.38248" lon="2.71722">
        <ele>106.8</ele>
        <time>2023-07-20T09:14:06Z</time>
      </trkpt>
      <trkpt lat="48.38248" lon="2.71722">
        <ele>106.8</ele>
        <time>2023-07-20T09:14:07Z</time>
      </trkpt>
      <trkpt lat="48.38248" lon="2.71724">
        <ele>106.3</ele>
        <time>2023-07-20T09:14:08Z</time>
      </trkpt>
      <trkpt lat="48.38248" lon="2.71726">
        <ele>106.3</ele>
        <time>2023-07-20T09:14:09Z</time>
      </trkpt>
      <trkpt lat="48.38248" lon="2.71727">
        <ele>106.2</ele>
        <time>2023-07-20T09:14:10Z</time>
      </trkpt>
      <trkpt lat="48.38248" lon="2.71728">
        <ele>106.2</ele>
        <time>2023-07-20T09:14:11Z</time>
      </trkpt>
      <trkpt lat="48.38249" lon="2.71729">
        <ele>106.2</ele>
        <time>2023-07-20T09:14:12Z</time>
      </trkpt>
      <trkpt lat="48.3825" lon="2.71729">
        <ele>106.2</ele>
        <time>2023-07-20T09:14:13Z</time>
      </trkpt>
      <trkpt lat="48.38251" lon="2.71729">
        <ele>106.2</ele>
        <time>2023-07-20T09:14:14Z</time>
      </trkpt>
      <trkpt lat="48.38251" lon="2.71729">
        <ele>105.8</ele>
        <time>2023-07-20T09:14:15Z</time>
      </trkpt>
      <trkpt lat="48.38251" lon="2.71729">
        <ele>105.8</ele>
        <time>2023-07-20T09:14:16Z</time>
      </trkpt>
      <trkpt lat="48.38252" lon="2.71729">
        <ele>105.8</ele>
        <time>2023-07-20T09:14:17Z</time>
      </trkpt>
      <trkpt lat="48.38252" lon="2.71732">
        <ele>105.6</ele>
        <time>2023-07-20T09:14:18Z</time>
      </trkpt>
      <trkpt lat="48.38252" lon="2.71733">
        <ele>105.6</ele>
        <time>2023-07-20T09:14:19Z</time>
      </trkpt>
      <trkpt lat="48.38253" lon="2.71735">
        <ele>105.6</ele>
        <time>2023-07-20T09:14:20Z</time>
      </trkpt>
      <trkpt lat="48.38254" lon="2.71735">
        <ele>105.2</ele>
        <time>2023-07-20T09:14:21Z</time>
      </trkpt>
      <trkpt lat="48.38255" lon="2.71736">
        <ele>105.1</ele>
        <time>2023-07-20T09:14:22Z</time>
      </trkpt>
      <trkpt lat="48.38257" lon="2.71737">
        <ele>104.6</ele>
        <time>2023-07-20T09:14:23Z</time>
      </trkpt>
      <trkpt lat="48.38258" lon="2.71738">
        <ele>104.6</ele>
        <time>2023-07-20T09:14:24Z</time>
      </trkpt>
      <trkpt lat="48.38258" lon="2.71739">
        <ele>104.6</ele>
        <time>2023-07-20T09:14:25Z</time>
      </trkpt>
      <trkpt lat="48.38259" lon="2.71739">
        <ele>104.2</ele>
        <time>2023-07-20T09:14:26Z</time>
      </trkpt>
      <trkpt lat="48.38262" lon="2.71741">
        <ele>104.1</ele>
        <time>2023-07-20T09:14:27Z</time>
      </trkpt>
      <trkpt lat="48.38262" lon="2.71741">
        <ele>103.6</ele>
        <time>2023-07-20T09:14:28Z</time>
      </trkpt>
      <trkpt lat="48.38263" lon="2.71742">
        <ele>103.6</ele>
        <time>2023-07-20T09:14:29Z</time>
      </trkpt>
      <trkpt lat="48.38264" lon="2.71742">
        <ele>103.6</ele>
        <time>2023-07-20T09:14:30Z</time>
      </trkpt>
      <trkpt lat="48.38265" lon="2.71743">
        <ele>103.2</ele>
        <time>2023-07-20T09:14:31Z</time>
      </trkpt>
      <trkpt lat="48.38266" lon="2.71744">
        <ele>103.2</ele>
        <time>2023-07-20T09:14:32Z</time>
      </trkpt>
      <trkpt lat="48.38265" lon="2.71744">
        <ele>103.1</ele>
        <time>2023-07-20T09:14:33Z</time>
      </trkpt>
      <trkpt lat="48.38266" lon="2.71746">
        <ele>103.1</ele>
        <time>2023-07-20T09:14:34Z</time>
      </trkpt>
      <trkpt lat="48.38266" lon="2.71748">
        <ele>103.1</ele>
        <time>2023-07-20T09:14:35Z</time>
      </trkpt>
      <trkpt lat="48.38267" lon="2.71748">
        <ele>103.1</ele>
        <time>2023-07-20T09:14:36Z</time>
      </trkpt>
      <trkpt lat="48.38267" lon="2.7175">
        <ele>103.1</ele>
        <time>2023-07-20T09:14:37Z</time>
      </trkpt>
      <trkpt lat="48.38267" lon="2.71751">
        <ele>103.1</ele>
        <time>2023-07-20T09:14:38Z</time>
      </trkpt>
      <trkpt lat="48.38266" lon="2.71752">
        <ele>103.1</ele>
        <time>2023-07-20T09:14:39Z</time>
      </trkpt>
      <trkpt lat="48.38266" lon="2.71753">
        <ele>103.1</ele>
        <time>2023-07-20T09:14:40Z</time>
      </trkpt>
      <trkpt lat="48.38266" lon="2.71754">
        <ele>103.1</ele>
        <time>2023-07-20T09:14:41Z</time>
      </trkpt>
      <trkpt lat="48.38267" lon="2.71755">
        <ele>103.1</ele>
        <time>2023-07-20T09:14:42Z</time>
      </trkpt>
      <trkpt lat="48.38267" lon="2.71755">
        <ele>103.1</ele>
        <time>2023-07-20T09:14:43Z</time>
      </trkpt>
      <trkpt lat="48.38268" lon="2.71757">
        <ele>103.1</ele>
        <time>2023-07-20T09:14:44Z</time>
      </trkpt>
      <trkpt lat="48.38267" lon="2.71758">
        <ele>103.1</ele>
        <time>2023-07-20T09:14:45Z</time>
      </trkpt>
      <trkpt lat="48.38267" lon="2.71758">
        <ele>103.1</ele>
        <time>2023-07-20T09:14:46Z</time>
      </trkpt>
      <trkpt lat="48.38268" lon="2.71759">
        <ele>103.1</ele>
        <time>2023-07-20T09:14:47Z</time>
      </trkpt>
      <trkpt lat="48.38267" lon="2.71762">
        <ele>103.1</ele>
        <time>2023-07-20T09:14:48Z</time>
      </trkpt>
      <trkpt lat="48.38267" lon="2.71765">
        <ele>103.1</ele>
        <time>2023-07-20T09:14:49Z</time>
      </trkpt>
      <trkpt lat="48.38267" lon="2.71767">
        <ele>103.2</ele>
        <time>2023-07-20T09:14:50Z</time>
      </trkpt>
      <trkpt lat="48.38267" lon="2.7177">
        <ele>103.4</ele>
        <time>2023-07-20T09:14:51Z</time>
      </trkpt>
      <trkpt lat="48.38268" lon="2.71772">
        <ele>103.4</ele>
        <time>2023-07-20T09:14:52Z</time>
      </trkpt>
      <trkpt lat="48.38268" lon="2.71773">
        <ele>103</ele>
        <time>2023-07-20T09:14:53Z</time>
      </trkpt>
      <trkpt lat="48.38269" lon="2.71775">
        <ele>103.2</ele>
        <time>2023-07-20T09:14:54Z</time>
      </trkpt>
      <trkpt lat="48.38269" lon="2.71776">
        <ele>103.2</ele>
        <time>2023-07-20T09:14:55Z</time>
      </trkpt>
      <trkpt lat="48.38269" lon="2.71777">
        <ele>103.2</ele>
        <time>2023-07-20T09:14:56Z</time>
      </trkpt>
      <trkpt lat="48.3827" lon="2.71778">
        <ele>103.2</ele>
        <time>2023-07-20T09:14:57Z</time>
      </trkpt>
      <trkpt lat="48.3827" lon="2.7178">
        <ele>103.3</ele>
        <time>2023-07-20T09:14:58Z</time>
      </trkpt>
      <trkpt lat="48.38269" lon="2.71782">
        <ele>103.3</ele>
        <time>2023-07-20T09:14:59Z</time>
      </trkpt>
      <trkpt lat="48.38269" lon="2.71784">
        <ele>103.4</ele>
        <time>2023-07-20T09:15:00Z</time>
      </trkpt>
      <trkpt lat="48.38268" lon="2.71785">
        <ele>103.4</ele>
        <time>2023-07-20T09:15:01Z</time>
      </trkpt>
      <trkpt lat="48.38268" lon="2.71787">
        <ele>103.4</ele>
        <time>2023-07-20T09:15:02Z</time>
      </trkpt>
      <trkpt lat="48.38268" lon="2.71788">
        <ele>103.9</ele>
        <time>2023-07-20T09:15:03Z</time>
      </trkpt>
      <trkpt lat="48.38266" lon="2.71789">
        <ele>103.9</ele>
        <time>2023-07-20T09:15:04Z</time>
      </trkpt>
      <trkpt lat="48.38266" lon="2.71791">
        <ele>103.9</ele>
        <time>2023-07-20T09:15:05Z</time>
      </trkpt>
      <trkpt lat="48.38265" lon="2.71793">
        <ele>104</ele>
        <time>2023-07-20T09:15:06Z</time>
      </trkpt>
      <trkpt lat="48.38265" lon="2.71793">
        <ele>104</ele>
        <time>2023-07-20T09:15:07Z</time>
      </trkpt>
      <trkpt lat="48.38265" lon="2.71794">
        <ele>104.3</ele>
        <time>2023-07-20T09:15:08Z</time>
      </trkpt>
      <trkpt lat="48.38265" lon="2.71794">
        <ele>104.3</ele>
        <time>2023-07-20T09:15:09Z</time>
      </trkpt>
      <trkpt lat="48.38265" lon="2.71794">
        <ele>104.3</ele>
        <time>2023-07-20T09:15:10Z</time>
      </trkpt>
      <trkpt lat="48.38265" lon="2.71794">
        <ele>104.3</ele>
        <time>2023-07-20T09:15:11Z</time>
      </trkpt>
      <trkpt lat="48.38265" lon="2.71795">
        <ele>104</ele>
        <time>2023-07-20T09:15:12Z</time>
      </trkpt>
      <trkpt lat="48.38265" lon="2.71795">
        <ele>104</ele>
        <time>2023-07-20T09:15:13Z</time>
      </trkpt>
      <trkpt lat="48.38266" lon="2.71795">
        <ele>104</ele>
        <time>2023-07-20T09:15:14Z</time>
      </trkpt>
      <trkpt lat="48.38266" lon="2.71795">
        <ele>104</ele>
        <time>2023-07-20T09:15:15Z</time>
      </trkpt>
      <trkpt lat="48.38266" lon="2.71796">
        <ele>104.1</ele>
        <time>2023-07-20T09:15:16Z</time>
      </trkpt>
      <trkpt lat="48.38266" lon="2.71796">
        <ele>104.1</ele>
        <time>2023-07-20T09:15:17Z</time>
      </trkpt>
      <trkpt lat="48.38265" lon="2.71796">
        <ele>104.3</ele>
        <time>2023-07-20T09:15:18Z</time>
      </trkpt>
      <trkpt lat="48.38264" lon="2.71796">
        <ele>104.3</ele>
        <time>2023-07-20T09:15:19Z</time>
      </trkpt>
      <trkpt lat="48.38264" lon="2.71797">
        <ele>104.3</ele>
        <time>2023-07-20T09:15:20Z</time>
      </trkpt>
      <trkpt lat="48.38264" lon="2.71797">
        <ele>104.3</ele>
        <time>2023-07-20T09:15:21Z</time>
      </trkpt>
      <trkpt lat="48.38264" lon="2.71798">
        <ele>104.3</ele>
        <time>2023-07-20T09:15:22Z</time>
      </trkpt>
      <trkpt lat="48.38263" lon="2.718">
        <ele>104.3</ele>
        <time>2023-07-20T09:15:23Z</time>
      </trkpt>
      <trkpt lat="48.38264" lon="2.718">
        <ele>104.4</ele>
        <time>2023-07-20T09:15:24Z</time>
      </trkpt>
      <trkpt lat="48.38263" lon="2.71801">
        <ele>104.4</ele>
        <time>2023-07-20T09:15:25Z</time>
      </trkpt>
      <trkpt lat="48.38263" lon="2.71801">
        <ele>104.4</ele>
        <time>2023-07-20T09:15:26Z</time>
      </trkpt>
      <trkpt lat="48.38263" lon="2.71803">
        <ele>104.4</ele>
        <time>2023-07-20T09:15:27Z</time>
      </trkpt>
      <trkpt lat="48.38264" lon="2.71804">
        <ele>104.4</ele>
        <time>2023-07-20T09:15:28Z</time>
      </trkpt>
      <trkpt lat="48.38264" lon="2.71805">
        <ele>104.4</ele>
        <time>2023-07-20T09:15:29Z</time>
      </trkpt>
      <trkpt lat="48.38265" lon="2.71808">
        <ele>104.4</ele>
        <time>2023-07-20T09:15:30Z</time>
      </trkpt>
      <trkpt lat="48.38265" lon="2.71809">
        <ele>104.3</ele>
        <time>2023-07-20T09:15:31Z</time>
      </trkpt>
      <trkpt lat="48.38265" lon="2.71811">
        <ele>104.3</ele>
        <time>2023-07-20T09:15:32Z</time>
      </trkpt>
      <trkpt lat="48.38265" lon="2.71813">
        <ele>104.3</ele>
        <time>2023-07-20T09:15:33Z</time>
      </trkpt>
      <trkpt lat="48.38265" lon="2.71815">
        <ele>104.3</ele>
        <time>2023-07-20T09:15:34Z</time>
      </trkpt>
      <trkpt lat="48.38265" lon="2.71816">
        <ele>104.3</ele>
        <time>2023-07-20T09:15:35Z</time>
      </trkpt>
      <trkpt lat="48.38266" lon="2.71817">
        <ele>104</ele>
        <time>2023-07-20T09:15:36Z</time>
      </trkpt>
      <trkpt lat="48.38266" lon="2.71818">
        <ele>104</ele>
        <time>2023-07-20T09:15:37Z</time>
      </trkpt>
      <trkpt lat="48.38267" lon="2.71818">
        <ele>104</ele>
        <time>2023-07-20T09:15:38Z</time>
      </trkpt>
      <trkpt lat="48.38268" lon="2.71818">
        <ele>103.8</ele>
        <time>2023-07-20T09:15:39Z</time>
      </trkpt>
      <trkpt lat="48.38268" lon="2.71819">
        <ele>103.8</ele>
        <time>2023-07-20T09:15:40Z</time>
      </trkpt>
      <trkpt lat="48.38268" lon="2.71821">
        <ele>103.8</ele>
        <time>2023-07-20T09:15:41Z</time>
      </trkpt>
      <trkpt lat="48.38268" lon="2.71822">
        <ele>103.8</ele>
        <time>2023-07-20T09:15:42Z</time>
      </trkpt>
      <trkpt lat="48.38268" lon="2.71823">
        <ele>104</ele>
        <time>2023-07-20T09:15:43Z</time>
      </trkpt>
      <trkpt lat="48.38267" lon="2.71823">
        <ele>104</ele>
        <time>2023-07-20T09:15:44Z</time>
      </trkpt>
      <trkpt lat="48.38267" lon="2.71824">
        <ele>104</ele>
        <time>2023-07-20T09:15:45Z</time>
      </trkpt>
      <trkpt lat="48.38267" lon="2.71826">
        <ele>103.9</ele>
        <time>2023-07-20T09:15:46Z</time>
      </trkpt>
      <trkpt lat="48.38267" lon="2.71827">
        <ele>103.9</ele>
        <time>2023-07-20T09:15:47Z</time>
      </trkpt>
      <trkpt lat="48.38266" lon="2.71828">
        <ele>103.9</ele>
        <time>2023-07-20T09:15:48Z</time>
      </trkpt>
      <trkpt lat="48.38266" lon="2.7183">
        <ele>103.9</ele>
        <time>2023-07-20T09:15:49Z</time>
      </trkpt>
      <trkpt lat="48.38266" lon="2.71832">
        <ele>103.9</ele>
        <time>2023-07-20T09:15:50Z</time>
      </trkpt>
      <trkpt lat="48.38265" lon="2.71833">
        <ele>103.9</ele>
        <time>2023-07-20T09:15:51Z</time>
      </trkpt>
      <trkpt lat="48.38265" lon="2.71834">
        <ele>104.1</ele>
        <time>2023-07-20T09:15:52Z</time>
      </trkpt>
      <trkpt lat="48.38265" lon="2.71835">
        <ele>104</ele>
        <time>2023-07-20T09:15:53Z</time>
      </trkpt>
      <trkpt lat="48.38265" lon="2.71836">
        <ele>104</ele>
        <time>2023-07-20T09:15:54Z</time>
      </trkpt>
      <trkpt lat="48.38265" lon="2.71837">
        <ele>104</ele>
        <time>2023-07-20T09:15:55Z</time>
      </trkpt>
      <trkpt lat="48.38265" lon="2.71838">
        <ele>104</ele>
        <time>2023-07-20T09:15:56Z</time>
      </trkpt>
      <trkpt lat="48.38265" lon="2.71839">
        <ele>104</ele>
        <time>2023-07-20T09:15:57Z</time>
      </trkpt>
      <trkpt lat="48.38264" lon="2.71841">
        <ele>104</ele>
        <time>2023-07-20T09:15:58Z</time>
      </trkpt>
      <trkpt lat="48.38263" lon="2.71842">
        <ele>104</ele>
        <time>2023-07-20T09:15:59Z</time>
      </trkpt>
      <trkpt lat="48.38263" lon="2.71843">
        <ele>103.9</ele>
        <time>2023-07-20T09:16:00Z</time>
      </trkpt>
      <trkpt lat="48.38262" lon="2.71845">
        <ele>104.1</ele>
        <time>2023-07-20T09:16:01Z</time>
      </trkpt>
      <trkpt lat="48.38261" lon="2.71845">
        <ele>104.1</ele>
        <time>2023-07-20T09:16:02Z</time>
      </trkpt>
      <trkpt lat="48.38261" lon="2.71846">
        <ele>104.1</ele>
        <time>2023-07-20T09:16:03Z</time>
      </trkpt>
      <trkpt lat="48.3826" lon="2.71847">
        <ele>104.1</ele>
        <time>2023-07-20T09:16:04Z</time>
      </trkpt>
      <trkpt lat="48.3826" lon="2.71847">
        <ele>104</ele>
        <time>2023-07-20T09:16:05Z</time>
      </trkpt>
      <trkpt lat="48.3826" lon="2.71847">
        <ele>104</ele>
        <time>2023-07-20T09:16:06Z</time>
      </trkpt>
      <trkpt lat="48.38259" lon="2.71848">
        <ele>104.1</ele>
        <time>2023-07-20T09:16:07Z</time>
      </trkpt>
      <trkpt lat="48.38259" lon="2.71849">
        <ele>104.1</ele>
        <time>2023-07-20T09:16:08Z</time>
      </trkpt>
      <trkpt lat="48.38259" lon="2.71851">
        <ele>104.1</ele>
        <time>2023-07-20T09:16:09Z</time>
      </trkpt>
      <trkpt lat="48.38258" lon="2.71853">
        <ele>104</ele>
        <time>2023-07-20T09:16:10Z</time>
      </trkpt>
      <trkpt lat="48.38258" lon="2.71854">
        <ele>104</ele>
        <time>2023-07-20T09:16:11Z</time>
      </trkpt>
      <trkpt lat="48.38257" lon="2.71855">
        <ele>104</ele>
        <time>2023-07-20T09:16:12Z</time>
      </trkpt>
      <trkpt lat="48.38257" lon="2.71856">
        <ele>103.9</ele>
        <time>2023-07-20T09:16:13Z</time>
      </trkpt>
      <trkpt lat="48.38257" lon="2.71857">
        <ele>103.9</ele>
        <time>2023-07-20T09:16:14Z</time>
      </trkpt>
      <trkpt lat="48.38257" lon="2.71859">
        <ele>103.9</ele>
        <time>2023-07-20T09:16:15Z</time>
      </trkpt>
      <trkpt lat="48.38257" lon="2.7186">
        <ele>103.9</ele>
        <time>2023-07-20T09:16:16Z</time>
      </trkpt>
      <trkpt lat="48.38256" lon="2.71861">
        <ele>103.9</ele>
        <time>2023-07-20T09:16:17Z</time>
      </trkpt>
      <trkpt lat="48.38255" lon="2.71863">
        <ele>103.9</ele>
        <time>2023-07-20T09:16:18Z</time>
      </trkpt>
      <trkpt lat="48.38255" lon="2.71864">
        <ele>103.9</ele>
        <time>2023-07-20T09:16:19Z</time>
      </trkpt>
      <trkpt lat="48.38255" lon="2.71866">
        <ele>103.9</ele>
        <time>2023-07-20T09:16:20Z</time>
      </trkpt>
      <trkpt lat="48.38255" lon="2.71868">
        <ele>103.9</ele>
        <time>2023-07-20T09:16:21Z</time>
      </trkpt>
      <trkpt lat="48.38255" lon="2.71869">
        <ele>103.8</ele>
        <time>2023-07-20T09:16:22Z</time>
      </trkpt>
      <trkpt lat="48.38256" lon="2.71871">
        <ele>103.8</ele>
        <time>2023-07-20T09:16:23Z</time>
      </trkpt>
      <trkpt lat="48.38256" lon="2.71872">
        <ele>103.8</ele>
        <time>2023-07-20T09:16:24Z</time>
      </trkpt>
      <trkpt lat="48.38256" lon="2.71873">
        <ele>103.8</ele>
        <time>2023-07-20T09:16:25Z</time>
      </trkpt>
      <trkpt lat="48.38256" lon="2.71874">
        <ele>103.7</ele>
        <time>2023-07-20T09:16:26Z</time>
      </trkpt>
      <trkpt lat="48.38256" lon="2.71875">
        <ele>103.7</ele>
        <time>2023-07-20T09:16:27Z</time>
      </trkpt>
      <trkpt lat="48.38256" lon="2.71876">
        <ele>103.7</ele>
        <time>2023-07-20T09:16:28Z</time>
      </trkpt>
      <trkpt lat="48.38255" lon="2.71877">
        <ele>103.7</ele>
        <time>2023-07-20T09:16:29Z</time>
      </trkpt>
      <trkpt lat="48.38254" lon="2.71878">
        <ele>103.7</ele>
        <time>2023-07-20T09:16:30Z</time>
      </trkpt>
      <trkpt lat="48.38253" lon="2.7188">
        <ele>103.8</ele>
        <time>2023-07-20T09:16:31Z</time>
      </trkpt>
      <trkpt lat="48.38252" lon="2.71881">
        <ele>103.8</ele>
        <time>2023-07-20T09:16:32Z</time>
      </trkpt>
      <trkpt lat="48.38251" lon="2.71882">
        <ele>103.7</ele>
        <time>2023-07-20T09:16:33Z</time>
      </trkpt>
      <trkpt lat="48.38251" lon="2.71883">
        <ele>103.7</ele>
        <time>2023-07-20T09:16:34Z</time>
      </trkpt>
      <trkpt lat="48.38252" lon="2.71884">
        <ele>103.7</ele>
        <time>2023-07-20T09:16:35Z</time>
      </trkpt>
      <trkpt lat="48.38252" lon="2.71885">
        <ele>103.7</ele>
        <time>2023-07-20T09:16:36Z</time>
      </trkpt>
      <trkpt lat="48.38252" lon="2.71886">
        <ele>103.7</ele>
        <time>2023-07-20T09:16:37Z</time>
      </trkpt>
      <trkpt lat="48.38252" lon="2.71888">
        <ele>103.7</ele>
        <time>2023-07-20T09:16:38Z</time>
      </trkpt>
      <trkpt lat="48.38252" lon="2.71889">
        <ele>103.7</ele>
        <time>2023-07-20T09:16:39Z</time>
      </trkpt>
      <trkpt lat="48.38252" lon="2.7189">
        <ele>103.6</ele>
        <time>2023-07-20T09:16:40Z</time>
      </trkpt>
      <trkpt lat="48.38252" lon="2.71892">
        <ele>103.6</ele>
        <time>2023-07-20T09:16:41Z</time>
      </trkpt>
      <trkpt lat="48.38252" lon="2.71893">
        <ele>103.6</ele>
        <time>2023-07-20T09:16:42Z</time>
      </trkpt>
      <trkpt lat="48.38252" lon="2.71894">
        <ele>103.6</ele>
        <time>2023-07-20T09:16:43Z</time>
      </trkpt>
      <trkpt lat="48.38252" lon="2.71895">
        <ele>103.5</ele>
        <time>2023-07-20T09:16:44Z</time>
      </trkpt>
      <trkpt lat="48.38252" lon="2.71896">
        <ele>103.5</ele>
        <time>2023-07-20T09:16:45Z</time>
      </trkpt>
      <trkpt lat="48.38253" lon="2.71899">
        <ele>103.5</ele>
        <time>2023-07-20T09:16:46Z</time>
      </trkpt>
      <trkpt lat="48.38253" lon="2.71901">
        <ele>103.5</ele>
        <time>2023-07-20T09:16:47Z</time>
      </trkpt>
      <trkpt lat="48.38253" lon="2.71902">
        <ele>103.5</ele>
        <time>2023-07-20T09:16:48Z</time>
      </trkpt>
      <trkpt lat="48.38253" lon="2.71904">
        <ele>103.4</ele>
        <time>2023-07-20T09:16:49Z</time>
      </trkpt>
      <trkpt lat="48.38254" lon="2.71906">
        <ele>103.3</ele>
        <time>2023-07-20T09:16:50Z</time>
      </trkpt>
      <trkpt lat="48.38253" lon="2.71908">
        <ele>103.3</ele>
        <time>2023-07-20T09:16:51Z</time>
      </trkpt>
      <trkpt lat="48.38253" lon="2.71908">
        <ele>103.3</ele>
        <time>2023-07-20T09:16:52Z</time>
      </trkpt>
      <trkpt lat="48.38253" lon="2.71908">
        <ele>103.3</ele>
        <time>2023-07-20T09:16:53Z</time>
      </trkpt>
      <trkpt lat="48.38252" lon="2.71908">
        <ele>103.3</ele>
        <time>2023-07-20T09:16:54Z</time>
      </trkpt>
      <trkpt lat="48.38253" lon="2.71909">
        <ele>103.3</ele>
        <time>2023-07-20T09:16:55Z</time>
      </trkpt>
      <trkpt lat="48.38252" lon="2.7191">
        <ele>103.3</ele>
        <time>2023-07-20T09:16:56Z</time>
      </trkpt>
      <trkpt lat="48.38252" lon="2.7191">
        <ele>103.3</ele>
        <time>2023-07-20T09:16:57Z</time>
      </trkpt>
      <trkpt lat="48.38252" lon="2.71912">
        <ele>103.2</ele>
        <time>2023-07-20T09:16:58Z</time>
      </trkpt>
      <trkpt lat="48.38252" lon="2.71914">
        <ele>103.2</ele>
        <time>2023-07-20T09:16:59Z</time>
      </trkpt>
      <trkpt lat="48.38252" lon="2.71916">
        <ele>103.2</ele>
        <time>2023-07-20T09:17:00Z</time>
      </trkpt>
      <trkpt lat="48.38253" lon="2.71917">
        <ele>103.2</ele>
        <time>2023-07-20T09:17:01Z</time>
      </trkpt>
      <trkpt lat="48.38253" lon="2.71918">
        <ele>103.1</ele>
        <time>2023-07-20T09:17:02Z</time>
      </trkpt>
      <trkpt lat="48.38253" lon="2.71919">
        <ele>103.1</ele>
        <time>2023-07-20T09:17:03Z</time>
      </trkpt>
      <trkpt lat="48.38254" lon="2.7192">
        <ele>103.1</ele>
        <time>2023-07-20T09:17:04Z</time>
      </trkpt>
      <trkpt lat="48.38254" lon="2.71921">
        <ele>102.9</ele>
        <time>2023-07-20T09:17:05Z</time>
      </trkpt>
      <trkpt lat="48.38254" lon="2.71923">
        <ele>102.9</ele>
        <time>2023-07-20T09:17:06Z</time>
      </trkpt>
      <trkpt lat="48.38254" lon="2.71924">
        <ele>102.9</ele>
        <time>2023-07-20T09:17:07Z</time>
      </trkpt>
      <trkpt lat="48.38254" lon="2.71924">
        <ele>102.9</ele>
        <time>2023-07-20T09:17:08Z</time>
      </trkpt>
      <trkpt lat="48.38254" lon="2.71925">
        <ele>102.8</ele>
        <time>2023-07-20T09:17:09Z</time>
      </trkpt>
      <trkpt lat="48.38254" lon="2.71926">
        <ele>102.8</ele>
        <time>2023-07-20T09:17:10Z</time>
      </trkpt>
      <trkpt lat="48.38254" lon="2.71926">
        <ele>102.8</ele>
        <time>2023-07-20T09:17:11Z</time>
      </trkpt>
      <trkpt lat="48.38254" lon="2.71925">
        <ele>102.8</ele>
        <time>2023-07-20T09:17:12Z</time>
      </trkpt>
      <trkpt lat="48.38253" lon="2.71926">
        <ele>102.9</ele>
        <time>2023-07-20T09:17:13Z</time>
      </trkpt>
      <trkpt lat="48.38253" lon="2.71927">
        <ele>102.9</ele>
        <time>2023-07-20T09:17:14Z</time>
      </trkpt>
      <trkpt lat="48.38252" lon="2.71928">
        <ele>102.9</ele>
        <time>2023-07-20T09:17:15Z</time>
      </trkpt>
      <trkpt lat="48.38251" lon="2.71929">
        <ele>102.9</ele>
        <time>2023-07-20T09:17:16Z</time>
      </trkpt>
      <trkpt lat="48.38251" lon="2.7193">
        <ele>102.8</ele>
        <time>2023-07-20T09:17:17Z</time>
      </trkpt>
      <trkpt lat="48.38251" lon="2.71931">
        <ele>102.8</ele>
        <time>2023-07-20T09:17:18Z</time>
      </trkpt>
      <trkpt lat="48.38251" lon="2.71932">
        <ele>102.8</ele>
        <time>2023-07-20T09:17:19Z</time>
      </trkpt>
      <trkpt lat="48.38252" lon="2.71933">
        <ele>102.8</ele>
        <time>2023-07-20T09:17:20Z</time>
      </trkpt>
      <trkpt lat="48.38252" lon="2.71935">
        <ele>102.6</ele>
        <time>2023-07-20T09:17:21Z</time>
      </trkpt>
      <trkpt lat="48.38253" lon="2.71936">
        <ele>102.6</ele>
        <time>2023-07-20T09:17:22Z</time>
      </trkpt>
      <trkpt lat="48.38253" lon="2.71937">
        <ele>102.6</ele>
        <time>2023-07-20T09:17:23Z</time>
      </trkpt>
      <trkpt lat="48.38253" lon="2.71938">
        <ele>102.5</ele>
        <time>2023-07-20T09:17:24Z</time>
      </trkpt>
      <trkpt lat="48.38252" lon="2.71938">
        <ele>102.4</ele>
        <time>2023-07-20T09:17:25Z</time>
      </trkpt>
      <trkpt lat="48.38252" lon="2.71939">
        <ele>102.4</ele>
        <time>2023-07-20T09:17:26Z</time>
      </trkpt>
      <trkpt lat="48.38252" lon="2.71939">
        <ele>102.4</ele>
        <time>2023-07-20T09:17:27Z</time>
      </trkpt>
      <trkpt lat="48.38252" lon="2.71939">
        <ele>102.4</ele>
        <time>2023-07-20T09:17:28Z</time>
      </trkpt>
      <trkpt lat="48.38252" lon="2.71939">
        <ele>102.4</ele>
        <time>2023-07-20T09:17:29Z</time>
      </trkpt>
      <trkpt lat="48.38251" lon="2.71939">
        <ele>102.4</ele>
        <time>2023-07-20T09:17:30Z</time>
      </trkpt>
      <trkpt lat="48.38251" lon="2.71941">
        <ele>102.4</ele>
        <time>2023-07-20T09:17:31Z</time>
      </trkpt>
      <trkpt lat="48.3825" lon="2.71942">
        <ele>102.4</ele>
        <time>2023-07-20T09:17:32Z</time>
      </trkpt>
      <trkpt lat="48.38249" lon="2.71944">
        <ele>102.4</ele>
        <time>2023-07-20T09:17:33Z</time>
      </trkpt>
      <trkpt lat="48.38249" lon="2.71945">
        <ele>102.4</ele>
        <time>2023-07-20T09:17:34Z</time>
      </trkpt>
      <trkpt lat="48.38248" lon="2.71946">
        <ele>102.7</ele>
        <time>2023-07-20T09:17:35Z</time>
      </trkpt>
      <trkpt lat="48.38246" lon="2.71946">
        <ele>102.7</ele>
        <time>2023-07-20T09:17:36Z</time>
      </trkpt>
      <trkpt lat="48.38245" lon="2.71945">
        <ele>102.9</ele>
        <time>2023-07-20T09:17:37Z</time>
      </trkpt>
      <trkpt lat="48.38243" lon="2.71947">
        <ele>102.7</ele>
        <time>2023-07-20T09:17:38Z</time>
      </trkpt>
      <trkpt lat="48.38243" lon="2.71949">
        <ele>102.7</ele>
        <time>2023-07-20T09:17:39Z</time>
      </trkpt>
      <trkpt lat="48.38242" lon="2.7195">
        <ele>102.7</ele>
        <time>2023-07-20T09:17:40Z</time>
      </trkpt>
      <trkpt lat="48.38242" lon="2.71951">
        <ele>102.8</ele>
        <time>2023-07-20T09:17:41Z</time>
      </trkpt>
      <trkpt lat="48.38241" lon="2.71953">
        <ele>102.8</ele>
        <time>2023-07-20T09:17:42Z</time>
      </trkpt>
      <trkpt lat="48.38241" lon="2.71954">
        <ele>102.8</ele>
        <time>2023-07-20T09:17:43Z</time>
      </trkpt>
      <trkpt lat="48.38241" lon="2.71954">
        <ele>102.8</ele>
        <time>2023-07-20T09:17:44Z</time>
      </trkpt>
      <trkpt lat="48.3824" lon="2.71955">
        <ele>102.6</ele>
        <time>2023-07-20T09:17:45Z</time>
      </trkpt>
      <trkpt lat="48.38239" lon="2.71956">
        <ele>102.9</ele>
        <time>2023-07-20T09:17:46Z</time>
      </trkpt>
      <trkpt lat="48.38239" lon="2.71956">
        <ele>102.9</ele>
        <time>2023-07-20T09:17:47Z</time>
      </trkpt>
      <trkpt lat="48.38238" lon="2.71957">
        <ele>102.9</ele>
        <time>2023-07-20T09:17:48Z</time>
      </trkpt>
      <trkpt lat="48.38238" lon="2.71957">
        <ele>102.9</ele>
        <time>2023-07-20T09:17:49Z</time>
      </trkpt>
      <trkpt lat="48.38237" lon="2.71958">
        <ele>102.9</ele>
        <time>2023-07-20T09:17:50Z</time>
      </trkpt>
      <trkpt lat="48.38237" lon="2.71958">
        <ele>102.9</ele>
        <time>2023-07-20T09:17:51Z</time>
      </trkpt>
      <trkpt lat="48.38236" lon="2.71959">
        <ele>103.1</ele>
        <time>2023-07-20T09:17:52Z</time>
      </trkpt>
      <trkpt lat="48.38236" lon="2.7196">
        <ele>103</ele>
        <time>2023-07-20T09:17:53Z</time>
      </trkpt>
      <trkpt lat="48.38236" lon="2.71962">
        <ele>103</ele>
        <time>2023-07-20T09:17:54Z</time>
      </trkpt>
      <trkpt lat="48.38236" lon="2.71964">
        <ele>102.9</ele>
        <time>2023-07-20T09:17:55Z</time>
      </trkpt>
      <trkpt lat="48.38236" lon="2.71965">
        <ele>102.9</ele>
        <time>2023-07-20T09:17:56Z</time>
      </trkpt>
      <trkpt lat="48.38236" lon="2.71967">
        <ele>102.9</ele>
        <time>2023-07-20T09:17:57Z</time>
      </trkpt>
      <trkpt lat="48.38236" lon="2.71967">
        <ele>102.9</ele>
        <time>2023-07-20T09:17:58Z</time>
      </trkpt>
      <trkpt lat="48.38235" lon="2.71969">
        <ele>102.8</ele>
        <time>2023-07-20T09:17:59Z</time>
      </trkpt>
      <trkpt lat="48.38235" lon="2.7197">
        <ele>102.8</ele>
        <time>2023-07-20T09:18:00Z</time>
      </trkpt>
      <trkpt lat="48.38235" lon="2.7197">
        <ele>102.8</ele>
        <time>2023-07-20T09:18:01Z</time>
      </trkpt>
      <trkpt lat="48.38235" lon="2.71972">
        <ele>102.6</ele>
        <time>2023-07-20T09:18:02Z</time>
      </trkpt>
      <trkpt lat="48.38234" lon="2.71974">
        <ele>102.6</ele>
        <time>2023-07-20T09:18:03Z</time>
      </trkpt>
      <trkpt lat="48.38233" lon="2.71975">
        <ele>102.9</ele>
        <time>2023-07-20T09:18:04Z</time>
      </trkpt>
      <trkpt lat="48.38232" lon="2.71976">
        <ele>102.9</ele>
        <time>2023-07-20T09:18:05Z</time>
      </trkpt>
      <trkpt lat="48.38231" lon="2.71976">
        <ele>102.9</ele>
        <time>2023-07-20T09:18:06Z</time>
      </trkpt>
      <trkpt lat="48.38231" lon="2.71976">
        <ele>103</ele>
        <time>2023-07-20T09:18:07Z</time>
      </trkpt>
      <trkpt lat="48.38229" lon="2.71976">
        <ele>103.1</ele>
        <time>2023-07-20T09:18:08Z</time>
      </trkpt>
      <trkpt lat="48.38229" lon="2.71975">
        <ele>103.1</ele>
        <time>2023-07-20T09:18:09Z</time>
      </trkpt>
      <trkpt lat="48.38228" lon="2.71976">
        <ele>103.2</ele>
        <time>2023-07-20T09:18:10Z</time>
      </trkpt>
      <trkpt lat="48.38227" lon="2.71977">
        <ele>103.1</ele>
        <time>2023-07-20T09:18:11Z</time>
      </trkpt>
      <trkpt lat="48.38226" lon="2.71978">
        <ele>103.1</ele>
        <time>2023-07-20T09:18:12Z</time>
      </trkpt>
      <trkpt lat="48.38225" lon="2.71979">
        <ele>103.2</ele>
        <time>2023-07-20T09:18:13Z</time>
      </trkpt>
      <trkpt lat="48.38224" lon="2.71979">
        <ele>103.2</ele>
        <time>2023-07-20T09:18:14Z</time>
      </trkpt>
      <trkpt lat="48.38224" lon="2.71982">
        <ele>103.1</ele>
        <time>2023-07-20T09:18:15Z</time>
      </trkpt>
      <trkpt lat="48.38224" lon="2.71983">
        <ele>103.1</ele>
        <time>2023-07-20T09:18:16Z</time>
      </trkpt>
      <trkpt lat="48.38224" lon="2.71985">
        <ele>103</ele>
        <time>2023-07-20T09:18:17Z</time>
      </trkpt>
      <trkpt lat="48.38224" lon="2.71986">
        <ele>103</ele>
        <time>2023-07-20T09:18:18Z</time>
      </trkpt>
      <trkpt lat="48.38223" lon="2.71987">
        <ele>103</ele>
        <time>2023-07-20T09:18:19Z</time>
      </trkpt>
      <trkpt lat="48.38223" lon="2.71988">
        <ele>103</ele>
        <time>2023-07-20T09:18:20Z</time>
      </trkpt>
      <trkpt lat="48.38223" lon="2.7199">
        <ele>102.8</ele>
        <time>2023-07-20T09:18:21Z</time>
      </trkpt>
      <trkpt lat="48.38223" lon="2.7199">
        <ele>102.8</ele>
        <time>2023-07-20T09:18:22Z</time>
      </trkpt>
      <trkpt lat="48.38223" lon="2.71991">
        <ele>102.8</ele>
        <time>2023-07-20T09:18:23Z</time>
      </trkpt>
      <trkpt lat="48.38222" lon="2.71992">
        <ele>102.8</ele>
        <time>2023-07-20T09:18:24Z</time>
      </trkpt>
      <trkpt lat="48.38222" lon="2.71994">
        <ele>102.7</ele>
        <time>2023-07-20T09:18:25Z</time>
      </trkpt>
      <trkpt lat="48.38221" lon="2.71996">
        <ele>102.7</ele>
        <time>2023-07-20T09:18:26Z</time>
      </trkpt>
      <trkpt lat="48.38221" lon="2.71999">
        <ele>102.6</ele>
        <time>2023-07-20T09:18:27Z</time>
      </trkpt>
      <trkpt lat="48.38221" lon="2.72001">
        <ele>102.6</ele>
        <time>2023-07-20T09:18:28Z</time>
      </trkpt>
      <trkpt lat="48.38221" lon="2.72002">
        <ele>102.4</ele>
        <time>2023-07-20T09:18:29Z</time>
      </trkpt>
      <trkpt lat="48.38221" lon="2.72004">
        <ele>102.4</ele>
        <time>2023-07-20T09:18:30Z</time>
      </trkpt>
      <trkpt lat="48.38221" lon="2.72005">
        <ele>102.4</ele>
        <time>2023-07-20T09:18:31Z</time>
      </trkpt>
      <trkpt lat="48.38221" lon="2.72006">
        <ele>102.2</ele>
        <time>2023-07-20T09:18:32Z</time>
      </trkpt>
      <trkpt lat="48.38221" lon="2.72007">
        <ele>102.2</ele>
        <time>2023-07-20T09:18:33Z</time>
      </trkpt>
      <trkpt lat="48.38221" lon="2.72008">
        <ele>102.2</ele>
        <time>2023-07-20T09:18:34Z</time>
      </trkpt>
      <trkpt lat="48.3822" lon="2.72009">
        <ele>102.2</ele>
        <time>2023-07-20T09:18:35Z</time>
      </trkpt>
      <trkpt lat="48.3822" lon="2.72009">
        <ele>102.2</ele>
        <time>2023-07-20T09:18:36Z</time>
      </trkpt>
      <trkpt lat="48.3822" lon="2.7201">
        <ele>102.2</ele>
        <time>2023-07-20T09:18:37Z</time>
      </trkpt>
      <trkpt lat="48.3822" lon="2.72011">
        <ele>101.9</ele>
        <time>2023-07-20T09:18:38Z</time>
      </trkpt>
      <trkpt lat="48.3822" lon="2.72013">
        <ele>101.9</ele>
        <time>2023-07-20T09:18:39Z</time>
      </trkpt>
      <trkpt lat="48.38221" lon="2.72014">
        <ele>101.9</ele>
        <time>2023-07-20T09:18:40Z</time>
      </trkpt>
      <trkpt lat="48.38221" lon="2.72015">
        <ele>101.9</ele>
        <time>2023-07-20T09:18:41Z</time>
      </trkpt>
      <trkpt lat="48.38221" lon="2.72016">
        <ele>101.7</ele>
        <time>2023-07-20T09:18:42Z</time>
      </trkpt>
      <trkpt lat="48.38221" lon="2.72017">
        <ele>101.7</ele>
        <time>2023-07-20T09:18:43Z</time>
      </trkpt>
      <trkpt lat="48.38221" lon="2.72019">
        <ele>101.7</ele>
        <time>2023-07-20T09:18:44Z</time>
      </trkpt>
      <trkpt lat="48.38221" lon="2.7202">
        <ele>101.4</ele>
        <time>2023-07-20T09:18:45Z</time>
      </trkpt>
      <trkpt lat="48.38221" lon="2.72021">
        <ele>101.4</ele>
        <time>2023-07-20T09:18:46Z</time>
      </trkpt>
      <trkpt lat="48.38221" lon="2.72022">
        <ele>101.4</ele>
        <time>2023-07-20T09:18:47Z</time>
      </trkpt>
      <trkpt lat="48.38222" lon="2.72023">
        <ele>101.3</ele>
        <time>2023-07-20T09:18:48Z</time>
      </trkpt>
      <trkpt lat="48.38223" lon="2.72025">
        <ele>101</ele>
        <time>2023-07-20T09:18:49Z</time>
      </trkpt>
      <trkpt lat="48.38225" lon="2.72027">
        <ele>101</ele>
        <time>2023-07-20T09:18:50Z</time>
      </trkpt>
      <trkpt lat="48.38226" lon="2.72028">
        <ele>100.4</ele>
        <time>2023-07-20T09:18:51Z</time>
      </trkpt>
      <trkpt lat="48.38227" lon="2.72029">
        <ele>100.4</ele>
        <time>2023-07-20T09:18:52Z</time>
      </trkpt>
      <trkpt lat="48.38228" lon="2.72031">
        <ele>100.1</ele>
        <time>2023-07-20T09:18:53Z</time>
      </trkpt>
      <trkpt lat="48.38229" lon="2.72031">
        <ele>100.1</ele>
        <time>2023-07-20T09:18:54Z</time>
      </trkpt>
      <trkpt lat="48.38229" lon="2.72032">
        <ele>100.1</ele>
        <time>2023-07-20T09:18:55Z</time>
      </trkpt>
      <trkpt lat="48.3823" lon="2.72033">
        <ele>99.7</ele>
        <time>2023-07-20T09:18:56Z</time>
      </trkpt>
      <trkpt lat="48.3823" lon="2.72034">
        <ele>99.7</ele>
        <time>2023-07-20T09:18:57Z</time>
      </trkpt>
      <trkpt lat="48.38231" lon="2.72035">
        <ele>99.7</ele>
        <time>2023-07-20T09:18:58Z</time>
      </trkpt>
      <trkpt lat="48.3823" lon="2.72035">
        <ele>99.7</ele>
        <time>2023-07-20T09:18:59Z</time>
      </trkpt>
      <trkpt lat="48.38231" lon="2.72038">
        <ele>98.9</ele>
        <time>2023-07-20T09:19:00Z</time>
      </trkpt>
      <trkpt lat="48.38231" lon="2.72039">
        <ele>98.9</ele>
        <time>2023-07-20T09:19:01Z</time>
      </trkpt>
      <trkpt lat="48.38231" lon="2.7204">
        <ele>98.9</ele>
        <time>2023-07-20T09:19:02Z</time>
      </trkpt>
      <trkpt lat="48.38231" lon="2.7204">
        <ele>98.9</ele>
        <time>2023-07-20T09:19:03Z</time>
      </trkpt>
      <trkpt lat="48.38231" lon="2.72041">
        <ele>98.5</ele>
        <time>2023-07-20T09:19:04Z</time>
      </trkpt>
      <trkpt lat="48.38231" lon="2.72043">
        <ele>98.5</ele>
        <time>2023-07-20T09:19:05Z</time>
      </trkpt>
      <trkpt lat="48.3823" lon="2.72044">
        <ele>98.9</ele>
        <time>2023-07-20T09:19:06Z</time>
      </trkpt>
      <trkpt lat="48.38231" lon="2.72045">
        <ele>98.6</ele>
        <time>2023-07-20T09:19:07Z</time>
      </trkpt>
      <trkpt lat="48.38231" lon="2.72046">
        <ele>98.6</ele>
        <time>2023-07-20T09:19:08Z</time>
      </trkpt>
      <trkpt lat="48.3823" lon="2.72047">
        <ele>98.6</ele>
        <time>2023-07-20T09:19:09Z</time>
      </trkpt>
      <trkpt lat="48.38231" lon="2.72048">
        <ele>98.6</ele>
        <time>2023-07-20T09:19:10Z</time>
      </trkpt>
      <trkpt lat="48.38232" lon="2.72048">
        <ele>98.2</ele>
        <time>2023-07-20T09:19:11Z</time>
      </trkpt>
      <trkpt lat="48.38231" lon="2.72049">
        <ele>97.8</ele>
        <time>2023-07-20T09:19:12Z</time>
      </trkpt>
      <trkpt lat="48.38231" lon="2.7205">
        <ele>97.8</ele>
        <time>2023-07-20T09:19:13Z</time>
      </trkpt>
      <trkpt lat="48.38231" lon="2.7205">
        <ele>98.2</ele>
        <time>2023-07-20T09:19:14Z</time>
      </trkpt>
      <trkpt lat="48.38229" lon="2.72051">
        <ele>98.2</ele>
        <time>2023-07-20T09:19:15Z</time>
      </trkpt>
      <trkpt lat="48.38229" lon="2.72052">
        <ele>98.2</ele>
        <time>2023-07-20T09:19:16Z</time>
      </trkpt>
      <trkpt lat="48.38228" lon="2.72054">
        <ele>97.9</ele>
        <time>2023-07-20T09:19:17Z</time>
      </trkpt>
      <trkpt lat="48.38229" lon="2.72055">
        <ele>97.9</ele>
        <time>2023-07-20T09:19:18Z</time>
      </trkpt>
      <trkpt lat="48.38229" lon="2.72056">
        <ele>97.9</ele>
        <time>2023-07-20T09:19:19Z</time>
      </trkpt>
      <trkpt lat="48.38229" lon="2.72057">
        <ele>97.9</ele>
        <time>2023-07-20T09:19:20Z</time>
      </trkpt>
      <trkpt lat="48.38229" lon="2.72059">
        <ele>97.6</ele>
        <time>2023-07-20T09:19:21Z</time>
      </trkpt>
      <trkpt lat="48.38228" lon="2.7206">
        <ele>97.6</ele>
        <time>2023-07-20T09:19:22Z</time>
      </trkpt>
      <trkpt lat="48.38228" lon="2.7206">
        <ele>98</ele>
        <time>2023-07-20T09:19:23Z</time>
      </trkpt>
      <trkpt lat="48.38226" lon="2.72061">
        <ele>98</ele>
        <time>2023-07-20T09:19:24Z</time>
      </trkpt>
      <trkpt lat="48.38226" lon="2.72062">
        <ele>98</ele>
        <time>2023-07-20T09:19:25Z</time>
      </trkpt>
      <trkpt lat="48.38225" lon="2.72063">
        <ele>98.1</ele>
        <time>2023-07-20T09:19:26Z</time>
      </trkpt>
      <trkpt lat="48.38224" lon="2.72063">
        <ele>98.1</ele>
        <time>2023-07-20T09:19:27Z</time>
      </trkpt>
      <trkpt lat="48.38223" lon="2.72063">
        <ele>98</ele>
        <time>2023-07-20T09:19:28Z</time>
      </trkpt>
      <trkpt lat="48.38223" lon="2.72064">
        <ele>98</ele>
        <time>2023-07-20T09:19:29Z</time>
      </trkpt>
      <trkpt lat="48.38222" lon="2.72064">
        <ele>98</ele>
        <time>2023-07-20T09:19:30Z</time>
      </trkpt>
      <trkpt lat="48.38222" lon="2.72064">
        <ele>98.3</ele>
        <time>2023-07-20T09:19:31Z</time>
      </trkpt>
      <trkpt lat="48.38222" lon="2.72065">
        <ele>98.3</ele>
        <time>2023-07-20T09:19:32Z</time>
      </trkpt>
      <trkpt lat="48.38222" lon="2.72068">
        <ele>98.1</ele>
        <time>2023-07-20T09:19:33Z</time>
      </trkpt>
      <trkpt lat="48.38222" lon="2.72069">
        <ele>98.1</ele>
        <time>2023-07-20T09:19:34Z</time>
      </trkpt>
      <trkpt lat="48.38222" lon="2.72071">
        <ele>97.9</ele>
        <time>2023-07-20T09:19:35Z</time>
      </trkpt>
      <trkpt lat="48.38222" lon="2.72071">
        <ele>97.9</ele>
        <time>2023-07-20T09:19:36Z</time>
      </trkpt>
      <trkpt lat="48.38222" lon="2.72072">
        <ele>97.9</ele>
        <time>2023-07-20T09:19:37Z</time>
      </trkpt>
      <trkpt lat="48.38222" lon="2.72072">
        <ele>97.9</ele>
        <time>2023-07-20T09:19:38Z</time>
      </trkpt>
      <trkpt lat="48.38222" lon="2.72072">
        <ele>97.9</ele>
        <time>2023-07-20T09:19:39Z</time>
      </trkpt>
      <trkpt lat="48.38222" lon="2.72072">
        <ele>97.9</ele>
        <time>2023-07-20T09:19:40Z</time>
      </trkpt>
      <trkpt lat="48.38222" lon="2.72072">
        <ele>97.9</ele>
        <time>2023-07-20T09:19:41Z</time>
      </trkpt>
      <trkpt lat="48.38222" lon="2.72072">
        <ele>97.9</ele>
        <time>2023-07-20T09:19:42Z</time>
      </trkpt>
      <trkpt lat="48.38222" lon="2.72074">
        <ele>97.9</ele>
        <time>2023-07-20T09:19:43Z</time>
      </trkpt>
      <trkpt lat="48.38222" lon="2.72076">
        <ele>97.3</ele>
        <time>2023-07-20T09:19:44Z</time>
      </trkpt>
      <trkpt lat="48.38222" lon="2.72077">
        <ele>97.6</ele>
        <time>2023-07-20T09:19:45Z</time>
      </trkpt>
      <trkpt lat="48.38222" lon="2.72078">
        <ele>97.6</ele>
        <time>2023-07-20T09:19:46Z</time>
      </trkpt>
      <trkpt lat="48.38222" lon="2.7208">
        <ele>97.3</ele>
        <time>2023-07-20T09:19:47Z</time>
      </trkpt>
      <trkpt lat="48.38222" lon="2.72081">
        <ele>97.3</ele>
        <time>2023-07-20T09:19:48Z</time>
      </trkpt>
      <trkpt lat="48.38222" lon="2.72083">
        <ele>97</ele>
        <time>2023-07-20T09:19:49Z</time>
      </trkpt>
      <trkpt lat="48.38223" lon="2.72086">
        <ele>96.7</ele>
        <time>2023-07-20T09:19:50Z</time>
      </trkpt>
      <trkpt lat="48.38223" lon="2.72087">
        <ele>96.7</ele>
        <time>2023-07-20T09:19:51Z</time>
      </trkpt>
      <trkpt lat="48.38224" lon="2.72087">
        <ele>96.7</ele>
        <time>2023-07-20T09:19:52Z</time>
      </trkpt>
      <trkpt lat="48.38224" lon="2.72087">
        <ele>96.7</ele>
        <time>2023-07-20T09:19:53Z</time>
      </trkpt>
      <trkpt lat="48.38224" lon="2.72088">
        <ele>96.7</ele>
        <time>2023-07-20T09:19:54Z</time>
      </trkpt>
      <trkpt lat="48.38224" lon="2.72088">
        <ele>96.4</ele>
        <time>2023-07-20T09:19:55Z</time>
      </trkpt>
      <trkpt lat="48.38225" lon="2.72088">
        <ele>96.4</ele>
        <time>2023-07-20T09:19:56Z</time>
      </trkpt>
      <trkpt lat="48.38225" lon="2.72089">
        <ele>96</ele>
        <time>2023-07-20T09:19:57Z</time>
      </trkpt>
      <trkpt lat="48.38226" lon="2.72088">
        <ele>96</ele>
        <time>2023-07-20T09:19:58Z</time>
      </trkpt>
      <trkpt lat="48.38227" lon="2.72089">
        <ele>96</ele>
        <time>2023-07-20T09:19:59Z</time>
      </trkpt>
      <trkpt lat="48.38228" lon="2.72089">
        <ele>96</ele>
        <time>2023-07-20T09:20:00Z</time>
      </trkpt>
      <trkpt lat="48.38228" lon="2.7209">
        <ele>95.6</ele>
        <time>2023-07-20T09:20:01Z</time>
      </trkpt>
      <trkpt lat="48.38228" lon="2.7209">
        <ele>96</ele>
        <time>2023-07-20T09:20:02Z</time>
      </trkpt>
      <trkpt lat="48.38228" lon="2.7209">
        <ele>96</ele>
        <time>2023-07-20T09:20:03Z</time>
      </trkpt>
      <trkpt lat="48.38227" lon="2.72089">
        <ele>96</ele>
        <time>2023-07-20T09:20:04Z</time>
      </trkpt>
      <trkpt lat="48.38228" lon="2.72088">
        <ele>96</ele>
        <time>2023-07-20T09:20:05Z</time>
      </trkpt>
      <trkpt lat="48.38227" lon="2.72088">
        <ele>96</ele>
        <time>2023-07-20T09:20:06Z</time>
      </trkpt>
      <trkpt lat="48.38228" lon="2.72089">
        <ele>95.6</ele>
        <time>2023-07-20T09:20:07Z</time>
      </trkpt>
      <trkpt lat="48.38229" lon="2.72089">
        <ele>95.6</ele>
        <time>2023-07-20T09:20:08Z</time>
      </trkpt>
      <trkpt lat="48.38229" lon="2.72089">
        <ele>95.6</ele>
        <time>2023-07-20T09:20:09Z</time>
      </trkpt>
      <trkpt lat="48.38229" lon="2.7209">
        <ele>95.6</ele>
        <time>2023-07-20T09:20:10Z</time>
      </trkpt>
      <trkpt lat="48.38229" lon="2.7209">
        <ele>95.6</ele>
        <time>2023-07-20T09:20:11Z</time>
      </trkpt>
      <trkpt lat="48.3823" lon="2.7209">
        <ele>95.6</ele>
        <time>2023-07-20T09:20:12Z</time>
      </trkpt>
      <trkpt lat="48.3823" lon="2.7209">
        <ele>95.6</ele>
        <time>2023-07-20T09:20:13Z</time>
      </trkpt>
      <trkpt lat="48.3823" lon="2.72089">
        <ele>95.6</ele>
        <time>2023-07-20T09:20:14Z</time>
      </trkpt>
      <trkpt lat="48.38229" lon="2.72089">
        <ele>95.6</ele>
        <time>2023-07-20T09:20:15Z</time>
      </trkpt>
      <trkpt lat="48.3823" lon="2.72088">
        <ele>95.8</ele>
        <time>2023-07-20T09:20:16Z</time>
      </trkpt>
      <trkpt lat="48.3823" lon="2.72088">
        <ele>95.8</ele>
        <time>2023-07-20T09:20:17Z</time>
      </trkpt>
      <trkpt lat="48.3823" lon="2.72087">
        <ele>95.8</ele>
        <time>2023-07-20T09:20:18Z</time>
      </trkpt>
      <trkpt lat="48.38229" lon="2.72086">
        <ele>95.8</ele>
        <time>2023-07-20T09:20:19Z</time>
      </trkpt>
      <trkpt lat="48.38229" lon="2.72086">
        <ele>95.8</ele>
        <time>2023-07-20T09:20:20Z</time>
      </trkpt>
      <trkpt lat="48.38229" lon="2.72085">
        <ele>95.8</ele>
        <time>2023-07-20T09:20:21Z</time>
      </trkpt>
      <trkpt lat="48.38229" lon="2.72084">
        <ele>95.8</ele>
        <time>2023-07-20T09:20:22Z</time>
      </trkpt>
      <trkpt lat="48.38229" lon="2.72083">
        <ele>96.1</ele>
        <time>2023-07-20T09:20:23Z</time>
      </trkpt>
      <trkpt lat="48.38229" lon="2.72082">
        <ele>96.1</ele>
        <time>2023-07-20T09:20:24Z</time>
      </trkpt>
      <trkpt lat="48.3823" lon="2.72082">
        <ele>96.1</ele>
        <time>2023-07-20T09:20:25Z</time>
      </trkpt>
      <trkpt lat="48.38229" lon="2.72082">
        <ele>96.1</ele>
        <time>2023-07-20T09:20:26Z</time>
      </trkpt>
      <trkpt lat="48.38229" lon="2.72084">
        <ele>95.8</ele>
        <time>2023-07-20T09:20:27Z</time>
      </trkpt>
      <trkpt lat="48.38229" lon="2.72085">
        <ele>95.8</ele>
        <time>2023-07-20T09:20:28Z</time>
      </trkpt>
      <trkpt lat="48.38229" lon="2.72086">
        <ele>95.8</ele>
        <time>2023-07-20T09:20:29Z</time>
      </trkpt>
      <trkpt lat="48.38229" lon="2.72086">
        <ele>95.8</ele>
        <time>2023-07-20T09:20:30Z</time>
      </trkpt>
      <trkpt lat="48.38229" lon="2.72085">
        <ele>95.8</ele>
        <time>2023-07-20T09:20:31Z</time>
      </trkpt>
      <trkpt lat="48.38228" lon="2.72083">
        <ele>96.1</ele>
        <time>2023-07-20T09:20:32Z</time>
      </trkpt>
      <trkpt lat="48.38228" lon="2.72081">
        <ele>96.5</ele>
        <time>2023-07-20T09:20:33Z</time>
      </trkpt>
      <trkpt lat="48.38227" lon="2.7208">
        <ele>96.5</ele>
        <time>2023-07-20T09:20:34Z</time>
      </trkpt>
      <trkpt lat="48.38227" lon="2.7208">
        <ele>96.5</ele>
        <time>2023-07-20T09:20:35Z</time>
      </trkpt>
      <trkpt lat="48.38227" lon="2.72078">
        <ele>96.8</ele>
        <time>2023-07-20T09:20:36Z</time>
      </trkpt>
      <trkpt lat="48.38227" lon="2.72078">
        <ele>96.8</ele>
        <time>2023-07-20T09:20:37Z</time>
      </trkpt>
      <trkpt lat="48.38227" lon="2.72077">
        <ele>96.8</ele>
        <time>2023-07-20T09:20:38Z</time>
      </trkpt>
      <trkpt lat="48.38227" lon="2.72076">
        <ele>96.8</ele>
        <time>2023-07-20T09:20:39Z</time>
      </trkpt>
      <trkpt lat="48.38227" lon="2.72076">
        <ele>96.8</ele>
        <time>2023-07-20T09:20:40Z</time>
      </trkpt>
      <trkpt lat="48.38227" lon="2.72077">
        <ele>96.8</ele>
        <time>2023-07-20T09:20:41Z</time>
      </trkpt>
      <trkpt lat="48.38227" lon="2.72076">
        <ele>96.8</ele>
        <time>2023-07-20T09:20:42Z</time>
      </trkpt>
      <trkpt lat="48.38228" lon="2.72076">
        <ele>96.8</ele>
        <time>2023-07-20T09:20:43Z</time>
      </trkpt>
      <trkpt lat="48.38228" lon="2.72076">
        <ele>96.4</ele>
        <time>2023-07-20T09:20:44Z</time>
      </trkpt>
      <trkpt lat="48.38228" lon="2.72075">
        <ele>96.4</ele>
        <time>2023-07-20T09:20:45Z</time>
      </trkpt>
      <trkpt lat="48.38228" lon="2.72075">
        <ele>96.4</ele>
        <time>2023-07-20T09:20:46Z</time>
      </trkpt>
      <trkpt lat="48.38228" lon="2.72074">
        <ele>97</ele>
        <time>2023-07-20T09:20:47Z</time>
      </trkpt>
      <trkpt lat="48.38228" lon="2.72075">
        <ele>96.4</ele>
        <time>2023-07-20T09:20:48Z</time>
      </trkpt>
      <trkpt lat="48.38228" lon="2.72074">
        <ele>96.6</ele>
        <time>2023-07-20T09:20:49Z</time>
      </trkpt>
      <trkpt lat="48.38228" lon="2.72073">
        <ele>97</ele>
        <time>2023-07-20T09:20:50Z</time>
      </trkpt>
      <trkpt lat="48.38228" lon="2.72073">
        <ele>97</ele>
        <time>2023-07-20T09:20:51Z</time>
      </trkpt>
      <trkpt lat="48.38228" lon="2.72073">
        <ele>97</ele>
        <time>2023-07-20T09:20:52Z</time>
      </trkpt>
      <trkpt lat="48.38228" lon="2.72073">
        <ele>97</ele>
        <time>2023-07-20T09:20:53Z</time>
      </trkpt>
      <trkpt lat="48.38227" lon="2.72073">
        <ele>97</ele>
        <time>2023-07-20T09:20:54Z</time>
      </trkpt>
      <trkpt lat="48.38228" lon="2.72074">
        <ele>97</ele>
        <time>2023-07-20T09:20:55Z</time>
      </trkpt>
      <trkpt lat="48.38228" lon="2.72074">
        <ele>96.6</ele>
        <time>2023-07-20T09:20:56Z</time>
      </trkpt>
      <trkpt lat="48.38228" lon="2.72074">
        <ele>96.6</ele>
        <time>2023-07-20T09:20:57Z</time>
      </trkpt>
      <trkpt lat="48.38228" lon="2.72074">
        <ele>96.6</ele>
        <time>2023-07-20T09:20:58Z</time>
      </trkpt>
      <trkpt lat="48.38227" lon="2.72072">
        <ele>97</ele>
        <time>2023-07-20T09:20:59Z</time>
      </trkpt>
      <trkpt lat="48.38228" lon="2.72072">
        <ele>97</ele>
        <time>2023-07-20T09:21:00Z</time>
      </trkpt>
      <trkpt lat="48.38228" lon="2.72072">
        <ele>97</ele>
        <time>2023-07-20T09:21:01Z</time>
      </trkpt>
      <trkpt lat="48.38227" lon="2.72073">
        <ele>97</ele>
        <time>2023-07-20T09:21:02Z</time>
      </trkpt>
      <trkpt lat="48.38227" lon="2.72073">
        <ele>97</ele>
        <time>2023-07-20T09:21:03Z</time>
      </trkpt>
      <trkpt lat="48.38227" lon="2.72074">
        <ele>97</ele>
        <time>2023-07-20T09:21:04Z</time>
      </trkpt>
      <trkpt lat="48.38227" lon="2.72075">
        <ele>97</ele>
        <time>2023-07-20T09:21:05Z</time>
      </trkpt>
      <trkpt lat="48.38227" lon="2.72075">
        <ele>97</ele>
        <time>2023-07-20T09:21:06Z</time>
      </trkpt>
      <trkpt lat="48.38227" lon="2.72074">
        <ele>97</ele>
        <time>2023-07-20T09:21:07Z</time>
      </trkpt>
      <trkpt lat="48.38228" lon="2.72072">
        <ele>97</ele>
        <time>2023-07-20T09:21:08Z</time>
      </trkpt>
      <trkpt lat="48.38228" lon="2.72071">
        <ele>96.6</ele>
        <time>2023-07-20T09:21:09Z</time>
      </trkpt>
      <trkpt lat="48.38228" lon="2.72071">
        <ele>97</ele>
        <time>2023-07-20T09:21:10Z</time>
      </trkpt>
      <trkpt lat="48.38227" lon="2.7207">
        <ele>97.3</ele>
        <time>2023-07-20T09:21:11Z</time>
      </trkpt>
      <trkpt lat="48.38227" lon="2.7207">
        <ele>97.3</ele>
        <time>2023-07-20T09:21:12Z</time>
      </trkpt>
      <trkpt lat="48.38226" lon="2.72069">
        <ele>97.3</ele>
        <time>2023-07-20T09:21:13Z</time>
      </trkpt>
      <trkpt lat="48.38225" lon="2.72067">
        <ele>97.6</ele>
        <time>2023-07-20T09:21:14Z</time>
      </trkpt>
      <trkpt lat="48.38224" lon="2.72066">
        <ele>97.9</ele>
        <time>2023-07-20T09:21:15Z</time>
      </trkpt>
      <trkpt lat="48.38223" lon="2.72065">
        <ele>97.9</ele>
        <time>2023-07-20T09:21:16Z</time>
      </trkpt>
      <trkpt lat="48.38223" lon="2.72065">
        <ele>97.9</ele>
        <time>2023-07-20T09:21:17Z</time>
      </trkpt>
      <trkpt lat="48.38223" lon="2.72064">
        <ele>97.9</ele>
        <time>2023-07-20T09:21:18Z</time>
      </trkpt>
      <trkpt lat="48.38223" lon="2.72064">
        <ele>97.9</ele>
        <time>2023-07-20T09:21:19Z</time>
      </trkpt>
      <trkpt lat="48.38223" lon="2.72064">
        <ele>97.9</ele>
        <time>2023-07-20T09:21:20Z</time>
      </trkpt>
      <trkpt lat="48.38223" lon="2.72064">
        <ele>97.9</ele>
        <time>2023-07-20T09:21:21Z</time>
      </trkpt>
      <trkpt lat="48.38223" lon="2.72063">
        <ele>97.9</ele>
        <time>2023-07-20T09:21:22Z</time>
      </trkpt>
      <trkpt lat="48.38224" lon="2.72063">
        <ele>97.8</ele>
        <time>2023-07-20T09:21:23Z</time>
      </trkpt>
      <trkpt lat="48.38224" lon="2.72063">
        <ele>97.8</ele>
        <time>2023-07-20T09:21:24Z</time>
      </trkpt>
      <trkpt lat="48.38224" lon="2.72063">
        <ele>97.8</ele>
        <time>2023-07-20T09:21:25Z</time>
      </trkpt>
      <trkpt lat="48.38224" lon="2.72062">
        <ele>97.8</ele>
        <time>2023-07-20T09:21:26Z</time>
      </trkpt>
      <trkpt lat="48.38224" lon="2.72062">
        <ele>97.8</ele>
        <time>2023-07-20T09:21:27Z</time>
      </trkpt>
      <trkpt lat="48.38224" lon="2.72062">
        <ele>98.1</ele>
        <time>2023-07-20T09:21:28Z</time>
      </trkpt>
      <trkpt lat="48.38224" lon="2.72061">
        <ele>98.1</ele>
        <time>2023-07-20T09:21:29Z</time>
      </trkpt>
      <trkpt lat="48.38224" lon="2.72062">
        <ele>98.1</ele>
        <time>2023-07-20T09:21:30Z</time>
      </trkpt>
      <trkpt lat="48.38223" lon="2.72062">
        <ele>97.8</ele>
        <time>2023-07-20T09:21:31Z</time>
      </trkpt>
      <trkpt lat="48.38223" lon="2.72062">
        <ele>97.8</ele>
        <time>2023-07-20T09:21:32Z</time>
      </trkpt>
      <trkpt lat="48.38223" lon="2.72063">
        <ele>97.8</ele>
        <time>2023-07-20T09:21:33Z</time>
      </trkpt>
      <trkpt lat="48.38223" lon="2.72063">
        <ele>97.8</ele>
        <time>2023-07-20T09:21:34Z</time>
      </trkpt>
      <trkpt lat="48.38223" lon="2.72063">
        <ele>97.8</ele>
        <time>2023-07-20T09:21:35Z</time>
      </trkpt>
      <trkpt lat="48.38223" lon="2.72063">
        <ele>97.8</ele>
        <time>2023-07-20T09:21:36Z</time>
      </trkpt>
      <trkpt lat="48.38222" lon="2.72063">
        <ele>97.8</ele>
        <time>2023-07-20T09:21:37Z</time>
      </trkpt>
      <trkpt lat="48.38222" lon="2.72063">
        <ele>97.8</ele>
        <time>2023-07-20T09:21:38Z</time>
      </trkpt>
      <trkpt lat="48.38222" lon="2.72064">
        <ele>98.1</ele>
        <time>2023-07-20T09:21:39Z</time>
      </trkpt>
      <trkpt lat="48.38221" lon="2.72064">
        <ele>98.1</ele>
        <time>2023-07-20T09:21:40Z</time>
      </trkpt>
      <trkpt lat="48.38221" lon="2.72064">
        <ele>98.1</ele>
        <time>2023-07-20T09:21:41Z</time>
      </trkpt>
      <trkpt lat="48.38221" lon="2.72064">
        <ele>98.1</ele>
        <time>2023-07-20T09:21:42Z</time>
      </trkpt>
      <trkpt lat="48.38221" lon="2.72064">
        <ele>98.1</ele>
        <time>2023-07-20T09:21:43Z</time>
      </trkpt>
      <trkpt lat="48.3822" lon="2.72064">
        <ele>98.1</ele>
        <time>2023-07-20T09:21:44Z</time>
      </trkpt>
      <trkpt lat="48.3822" lon="2.72063">
        <ele>98.1</ele>
        <time>2023-07-20T09:21:45Z</time>
      </trkpt>
      <trkpt lat="48.3822" lon="2.72063">
        <ele>98.1</ele>
        <time>2023-07-20T09:21:46Z</time>
      </trkpt>
      <trkpt lat="48.3822" lon="2.72063">
        <ele>98.1</ele>
        <time>2023-07-20T09:21:47Z</time>
      </trkpt>
      <trkpt lat="48.3822" lon="2.72063">
        <ele>98.1</ele>
        <time>2023-07-20T09:21:48Z</time>
      </trkpt>
      <trkpt lat="48.3822" lon="2.72063">
        <ele>98.1</ele>
        <time>2023-07-20T09:21:49Z</time>
      </trkpt>
      <trkpt lat="48.38219" lon="2.72063">
        <ele>98.1</ele>
        <time>2023-07-20T09:21:50Z</time>
      </trkpt>
      <trkpt lat="48.38219" lon="2.72063">
        <ele>98.1</ele>
        <time>2023-07-20T09:21:51Z</time>
      </trkpt>
      <trkpt lat="48.38219" lon="2.72063">
        <ele>98.4</ele>
        <time>2023-07-20T09:21:52Z</time>
      </trkpt>
      <trkpt lat="48.38219" lon="2.72063">
        <ele>98.4</ele>
        <time>2023-07-20T09:21:53Z</time>
      </trkpt>
      <trkpt lat="48.38218" lon="2.72063">
        <ele>98.4</ele>
        <time>2023-07-20T09:21:54Z</time>
      </trkpt>
      <trkpt lat="48.38217" lon="2.72063">
        <ele>98.4</ele>
        <time>2023-07-20T09:21:55Z</time>
      </trkpt>
      <trkpt lat="48.38216" lon="2.72063">
        <ele>98.6</ele>
        <time>2023-07-20T09:21:56Z</time>
      </trkpt>
      <trkpt lat="48.38215" lon="2.72064">
        <ele>98.5</ele>
        <time>2023-07-20T09:21:57Z</time>
      </trkpt>
      <trkpt lat="48.38214" lon="2.72063">
        <ele>98.5</ele>
        <time>2023-07-20T09:21:58Z</time>
      </trkpt>
      <trkpt lat="48.38213" lon="2.72064">
        <ele>98.7</ele>
        <time>2023-07-20T09:21:59Z</time>
      </trkpt>
      <trkpt lat="48.38212" lon="2.72063">
        <ele>98.7</ele>
        <time>2023-07-20T09:22:00Z</time>
      </trkpt>
      <trkpt lat="48.38212" lon="2.72062">
        <ele>98.7</ele>
        <time>2023-07-20T09:22:01Z</time>
      </trkpt>
      <trkpt lat="48.3821" lon="2.72063">
        <ele>98.8</ele>
        <time>2023-07-20T09:22:02Z</time>
      </trkpt>
      <trkpt lat="48.38209" lon="2.72063">
        <ele>98.8</ele>
        <time>2023-07-20T09:22:03Z</time>
      </trkpt>
      <trkpt lat="48.38208" lon="2.72064">
        <ele>98.8</ele>
        <time>2023-07-20T09:22:04Z</time>
      </trkpt>
      <trkpt lat="48.38206" lon="2.72064">
        <ele>98.8</ele>
        <time>2023-07-20T09:22:05Z</time>
      </trkpt>
      <trkpt lat="48.38206" lon="2.72064">
        <ele>98.8</ele>
        <time>2023-07-20T09:22:06Z</time>
      </trkpt>
      <trkpt lat="48.38205" lon="2.72064">
        <ele>98.8</ele>
        <time>2023-07-20T09:22:07Z</time>
      </trkpt>
      <trkpt lat="48.38204" lon="2.72063">
        <ele>98.8</ele>
        <time>2023-07-20T09:22:08Z</time>
      </trkpt>
      <trkpt lat="48.38202" lon="2.72063">
        <ele>98.8</ele>
        <time>2023-07-20T09:22:09Z</time>
      </trkpt>
      <trkpt lat="48.38201" lon="2.72063">
        <ele>98.8</ele>
        <time>2023-07-20T09:22:10Z</time>
      </trkpt>
      <trkpt lat="48.38201" lon="2.72062">
        <ele>98.8</ele>
        <time>2023-07-20T09:22:11Z</time>
      </trkpt>
      <trkpt lat="48.38198" lon="2.72062">
        <ele>98.7</ele>
        <time>2023-07-20T09:22:12Z</time>
      </trkpt>
      <trkpt lat="48.38198" lon="2.72062">
        <ele>98.7</ele>
        <time>2023-07-20T09:22:13Z</time>
      </trkpt>
      <trkpt lat="48.38197" lon="2.72062">
        <ele>98.9</ele>
        <time>2023-07-20T09:22:14Z</time>
      </trkpt>
      <trkpt lat="48.38194" lon="2.72063">
        <ele>98.5</ele>
        <time>2023-07-20T09:22:15Z</time>
      </trkpt>
      <trkpt lat="48.38193" lon="2.72063">
        <ele>98.5</ele>
        <time>2023-07-20T09:22:16Z</time>
      </trkpt>
      <trkpt lat="48.38191" lon="2.72063">
        <ele>98.5</ele>
        <time>2023-07-20T09:22:17Z</time>
      </trkpt>
      <trkpt lat="48.3819" lon="2.72063">
        <ele>98.3</ele>
        <time>2023-07-20T09:22:18Z</time>
      </trkpt>
      <trkpt lat="48.38188" lon="2.72063">
        <ele>98.3</ele>
        <time>2023-07-20T09:22:19Z</time>
      </trkpt>
      <trkpt lat="48.38187" lon="2.72063">
        <ele>98.1</ele>
        <time>2023-07-20T09:22:20Z</time>
      </trkpt>
      <trkpt lat="48.38186" lon="2.72063">
        <ele>98.1</ele>
        <time>2023-07-20T09:22:21Z</time>
      </trkpt>
      <trkpt lat="48.38185" lon="2.72064">
        <ele>97.9</ele>
        <time>2023-07-20T09:22:22Z</time>
      </trkpt>
      <trkpt lat="48.38183" lon="2.72065">
        <ele>97.9</ele>
        <time>2023-07-20T09:22:23Z</time>
      </trkpt>
      <trkpt lat="48.38181" lon="2.72066">
        <ele>97.7</ele>
        <time>2023-07-20T09:22:24Z</time>
      </trkpt>
      <trkpt lat="48.3818" lon="2.72066">
        <ele>97.7</ele>
        <time>2023-07-20T09:22:25Z</time>
      </trkpt>
      <trkpt lat="48.38179" lon="2.72066">
        <ele>97.7</ele>
        <time>2023-07-20T09:22:26Z</time>
      </trkpt>
      <trkpt lat="48.38178" lon="2.72066">
        <ele>97.6</ele>
        <time>2023-07-20T09:22:27Z</time>
      </trkpt>
      <trkpt lat="48.38177" lon="2.72066">
        <ele>97.6</ele>
        <time>2023-07-20T09:22:28Z</time>
      </trkpt>
      <trkpt lat="48.38177" lon="2.72067">
        <ele>97.5</ele>
        <time>2023-07-20T09:22:29Z</time>
      </trkpt>
      <trkpt lat="48.38177" lon="2.72067">
        <ele>97.5</ele>
        <time>2023-07-20T09:22:30Z</time>
      </trkpt>
      <trkpt lat="48.38177" lon="2.72067">
        <ele>97.3</ele>
        <time>2023-07-20T09:22:31Z</time>
      </trkpt>
      <trkpt lat="48.38176" lon="2.72066">
        <ele>97.3</ele>
        <time>2023-07-20T09:22:32Z</time>
      </trkpt>
      <trkpt lat="48.38176" lon="2.72066">
        <ele>97.4</ele>
        <time>2023-07-20T09:22:33Z</time>
      </trkpt>
      <trkpt lat="48.38174" lon="2.72067">
        <ele>97.3</ele>
        <time>2023-07-20T09:22:34Z</time>
      </trkpt>
      <trkpt lat="48.38172" lon="2.72066">
        <ele>97.2</ele>
        <time>2023-07-20T09:22:35Z</time>
      </trkpt>
      <trkpt lat="48.38171" lon="2.72066">
        <ele>97.1</ele>
        <time>2023-07-20T09:22:36Z</time>
      </trkpt>
      <trkpt lat="48.38169" lon="2.72065">
        <ele>97.1</ele>
        <time>2023-07-20T09:22:37Z</time>
      </trkpt>
      <trkpt lat="48.38168" lon="2.72064">
        <ele>97.1</ele>
        <time>2023-07-20T09:22:38Z</time>
      </trkpt>
      <trkpt lat="48.38167" lon="2.72064">
        <ele>97</ele>
        <time>2023-07-20T09:22:39Z</time>
      </trkpt>
      <trkpt lat="48.38166" lon="2.72063">
        <ele>97</ele>
        <time>2023-07-20T09:22:40Z</time>
      </trkpt>
      <trkpt lat="48.38165" lon="2.72062">
        <ele>97</ele>
        <time>2023-07-20T09:22:41Z</time>
      </trkpt>
      <trkpt lat="48.38164" lon="2.72062">
        <ele>96.9</ele>
        <time>2023-07-20T09:22:42Z</time>
      </trkpt>
      <trkpt lat="48.38163" lon="2.72063">
        <ele>96.9</ele>
        <time>2023-07-20T09:22:43Z</time>
      </trkpt>
      <trkpt lat="48.38161" lon="2.72064">
        <ele>96.8</ele>
        <time>2023-07-20T09:22:44Z</time>
      </trkpt>
      <trkpt lat="48.3816" lon="2.72067">
        <ele>96.7</ele>
        <time>2023-07-20T09:22:45Z</time>
      </trkpt>
      <trkpt lat="48.3816" lon="2.72068">
        <ele>96.7</ele>
        <time>2023-07-20T09:22:46Z</time>
      </trkpt>
      <trkpt lat="48.3816" lon="2.7207">
        <ele>96.7</ele>
        <time>2023-07-20T09:22:47Z</time>
      </trkpt>
      <trkpt lat="48.38159" lon="2.72071">
        <ele>96.6</ele>
        <time>2023-07-20T09:22:48Z</time>
      </trkpt>
      <trkpt lat="48.38159" lon="2.72072">
        <ele>96.6</ele>
        <time>2023-07-20T09:22:49Z</time>
      </trkpt>
      <trkpt lat="48.38158" lon="2.72073">
        <ele>96.6</ele>
        <time>2023-07-20T09:22:50Z</time>
      </trkpt>
      <trkpt lat="48.38158" lon="2.72075">
        <ele>96.6</ele>
        <time>2023-07-20T09:22:51Z</time>
      </trkpt>
      <trkpt lat="48.38157" lon="2.72077">
        <ele>96.6</ele>
        <time>2023-07-20T09:22:52Z</time>
      </trkpt>
      <trkpt lat="48.38157" lon="2.72079">
        <ele>96.6</ele>
        <time>2023-07-20T09:22:53Z</time>
      </trkpt>
      <trkpt lat="48.38157" lon="2.7208">
        <ele>96.6</ele>
        <time>2023-07-20T09:22:54Z</time>
      </trkpt>
      <trkpt lat="48.38157" lon="2.72082">
        <ele>96.7</ele>
        <time>2023-07-20T09:22:55Z</time>
      </trkpt>
      <trkpt lat="48.38158" lon="2.72085">
        <ele>96.7</ele>
        <time>2023-07-20T09:22:56Z</time>
      </trkpt>
      <trkpt lat="48.38159" lon="2.72086">
        <ele>96.7</ele>
        <time>2023-07-20T09:22:57Z</time>
      </trkpt>
      <trkpt lat="48.38159" lon="2.72088">
        <ele>96.7</ele>
        <time>2023-07-20T09:22:58Z</time>
      </trkpt>
      <trkpt lat="48.38159" lon="2.7209">
        <ele>96.7</ele>
        <time>2023-07-20T09:22:59Z</time>
      </trkpt>
      <trkpt lat="48.3816" lon="2.72092">
        <ele>96.8</ele>
        <time>2023-07-20T09:23:00Z</time>
      </trkpt>
      <trkpt lat="48.3816" lon="2.72093">
        <ele>96.9</ele>
        <time>2023-07-20T09:23:01Z</time>
      </trkpt>
      <trkpt lat="48.3816" lon="2.72094">
        <ele>96.8</ele>
        <time>2023-07-20T09:23:02Z</time>
      </trkpt>
      <trkpt lat="48.38161" lon="2.72095">
        <ele>96.8</ele>
        <time>2023-07-20T09:23:03Z</time>
      </trkpt>
      <trkpt lat="48.38161" lon="2.72096">
        <ele>96.8</ele>
        <time>2023-07-20T09:23:04Z</time>
      </trkpt>
      <trkpt lat="48.38161" lon="2.72096">
        <ele>96.9</ele>
        <time>2023-07-20T09:23:05Z</time>
      </trkpt>
      <trkpt lat="48.38161" lon="2.72097">
        <ele>96.9</ele>
        <time>2023-07-20T09:23:06Z</time>
      </trkpt>
      <trkpt lat="48.38161" lon="2.72098">
        <ele>96.9</ele>
        <time>2023-07-20T09:23:07Z</time>
      </trkpt>
      <trkpt lat="48.38161" lon="2.72099">
        <ele>96.9</ele>
        <time>2023-07-20T09:23:08Z</time>
      </trkpt>
      <trkpt lat="48.38161" lon="2.721">
        <ele>96.9</ele>
        <time>2023-07-20T09:23:09Z</time>
      </trkpt>
      <trkpt lat="48.38159" lon="2.72102">
        <ele>96.9</ele>
        <time>2023-07-20T09:23:10Z</time>
      </trkpt>
      <trkpt lat="48.38158" lon="2.72103">
        <ele>96.9</ele>
        <time>2023-07-20T09:23:11Z</time>
      </trkpt>
      <trkpt lat="48.38158" lon="2.72105">
        <ele>96.9</ele>
        <time>2023-07-20T09:23:12Z</time>
      </trkpt>
      <trkpt lat="48.38157" lon="2.72105">
        <ele>96.9</ele>
        <time>2023-07-20T09:23:13Z</time>
      </trkpt>
      <trkpt lat="48.38157" lon="2.72109">
        <ele>96.9</ele>
        <time>2023-07-20T09:23:14Z</time>
      </trkpt>
      <trkpt lat="48.38155" lon="2.72112">
        <ele>96.9</ele>
        <time>2023-07-20T09:23:15Z</time>
      </trkpt>
      <trkpt lat="48.38155" lon="2.72114">
        <ele>96.9</ele>
        <time>2023-07-20T09:23:16Z</time>
      </trkpt>
      <trkpt lat="48.38154" lon="2.72118">
        <ele>96.9</ele>
        <time>2023-07-20T09:23:17Z</time>
      </trkpt>
      <trkpt lat="48.38154" lon="2.72119">
        <ele>96.8</ele>
        <time>2023-07-20T09:23:18Z</time>
      </trkpt>
      <trkpt lat="48.38153" lon="2.72122">
        <ele>96.9</ele>
        <time>2023-07-20T09:23:19Z</time>
      </trkpt>
      <trkpt lat="48.38152" lon="2.72124">
        <ele>96.9</ele>
        <time>2023-07-20T09:23:20Z</time>
      </trkpt>
      <trkpt lat="48.38152" lon="2.72125">
        <ele>96.9</ele>
        <time>2023-07-20T09:23:21Z</time>
      </trkpt>
      <trkpt lat="48.38153" lon="2.72128">
        <ele>96.9</ele>
        <time>2023-07-20T09:23:22Z</time>
      </trkpt>
      <trkpt lat="48.38152" lon="2.7213">
        <ele>96.9</ele>
        <time>2023-07-20T09:23:23Z</time>
      </trkpt>
      <trkpt lat="48.38153" lon="2.72133">
        <ele>97</ele>
        <time>2023-07-20T09:23:24Z</time>
      </trkpt>
      <trkpt lat="48.38153" lon="2.72135">
        <ele>97</ele>
        <time>2023-07-20T09:23:25Z</time>
      </trkpt>
      <trkpt lat="48.38154" lon="2.72137">
        <ele>97</ele>
        <time>2023-07-20T09:23:26Z</time>
      </trkpt>
      <trkpt lat="48.38154" lon="2.72138">
        <ele>97.1</ele>
        <time>2023-07-20T09:23:27Z</time>
      </trkpt>
      <trkpt lat="48.38154" lon="2.72139">
        <ele>97.1</ele>
        <time>2023-07-20T09:23:28Z</time>
      </trkpt>
      <trkpt lat="48.38154" lon="2.72141">
        <ele>97.1</ele>
        <time>2023-07-20T09:23:29Z</time>
      </trkpt>
      <trkpt lat="48.38153" lon="2.72144">
        <ele>97.1</ele>
        <time>2023-07-20T09:23:30Z</time>
      </trkpt>
      <trkpt lat="48.38153" lon="2.72145">
        <ele>97.1</ele>
        <time>2023-07-20T09:23:31Z</time>
      </trkpt>
      <trkpt lat="48.38152" lon="2.72146">
        <ele>97.1</ele>
        <time>2023-07-20T09:23:32Z</time>
      </trkpt>
      <trkpt lat="48.38152" lon="2.72147">
        <ele>97.1</ele>
        <time>2023-07-20T09:23:33Z</time>
      </trkpt>
      <trkpt lat="48.38151" lon="2.72149">
        <ele>97.1</ele>
        <time>2023-07-20T09:23:34Z</time>
      </trkpt>
      <trkpt lat="48.38151" lon="2.7215">
        <ele>97.1</ele>
        <time>2023-07-20T09:23:35Z</time>
      </trkpt>
      <trkpt lat="48.3815" lon="2.72153">
        <ele>97</ele>
        <time>2023-07-20T09:23:36Z</time>
      </trkpt>
      <trkpt lat="48.3815" lon="2.72155">
        <ele>97</ele>
        <time>2023-07-20T09:23:37Z</time>
      </trkpt>
      <trkpt lat="48.3815" lon="2.72156">
        <ele>97</ele>
        <time>2023-07-20T09:23:38Z</time>
      </trkpt>
      <trkpt lat="48.3815" lon="2.72158">
        <ele>97</ele>
        <time>2023-07-20T09:23:39Z</time>
      </trkpt>
      <trkpt lat="48.3815" lon="2.7216">
        <ele>97</ele>
        <time>2023-07-20T09:23:40Z</time>
      </trkpt>
      <trkpt lat="48.38149" lon="2.72163">
        <ele>96.9</ele>
        <time>2023-07-20T09:23:41Z</time>
      </trkpt>
      <trkpt lat="48.38149" lon="2.72164">
        <ele>96.9</ele>
        <time>2023-07-20T09:23:42Z</time>
      </trkpt>
      <trkpt lat="48.3815" lon="2.72165">
        <ele>96.9</ele>
        <time>2023-07-20T09:23:43Z</time>
      </trkpt>
      <trkpt lat="48.3815" lon="2.72166">
        <ele>96.9</ele>
        <time>2023-07-20T09:23:44Z</time>
      </trkpt>
      <trkpt lat="48.3815" lon="2.72167">
        <ele>96.9</ele>
        <time>2023-07-20T09:23:45Z</time>
      </trkpt>
      <trkpt lat="48.3815" lon="2.72169">
        <ele>96.9</ele>
        <time>2023-07-20T09:23:46Z</time>
      </trkpt>
      <trkpt lat="48.3815" lon="2.7217">
        <ele>96.8</ele>
        <time>2023-07-20T09:23:47Z</time>
      </trkpt>
      <trkpt lat="48.38149" lon="2.72172">
        <ele>96.8</ele>
        <time>2023-07-20T09:23:48Z</time>
      </trkpt>
      <trkpt lat="48.38148" lon="2.72173">
        <ele>96.8</ele>
        <time>2023-07-20T09:23:49Z</time>
      </trkpt>
      <trkpt lat="48.38148" lon="2.72174">
        <ele>96.7</ele>
        <time>2023-07-20T09:23:50Z</time>
      </trkpt>
      <trkpt lat="48.38148" lon="2.72176">
        <ele>96.7</ele>
        <time>2023-07-20T09:23:51Z</time>
      </trkpt>
      <trkpt lat="48.38147" lon="2.72179">
        <ele>96.6</ele>
        <time>2023-07-20T09:23:52Z</time>
      </trkpt>
      <trkpt lat="48.38147" lon="2.72181">
        <ele>96.6</ele>
        <time>2023-07-20T09:23:53Z</time>
      </trkpt>
      <trkpt lat="48.38147" lon="2.72183">
        <ele>96.5</ele>
        <time>2023-07-20T09:23:54Z</time>
      </trkpt>
      <trkpt lat="48.38147" lon="2.72184">
        <ele>96.5</ele>
        <time>2023-07-20T09:23:55Z</time>
      </trkpt>
      <trkpt lat="48.38147" lon="2.72186">
        <ele>96.5</ele>
        <time>2023-07-20T09:23:56Z</time>
      </trkpt>
      <trkpt lat="48.38146" lon="2.72187">
        <ele>96.4</ele>
        <time>2023-07-20T09:23:57Z</time>
      </trkpt>
      <trkpt lat="48.38145" lon="2.72189">
        <ele>96.4</ele>
        <time>2023-07-20T09:23:58Z</time>
      </trkpt>
      <trkpt lat="48.38144" lon="2.72191">
        <ele>96.3</ele>
        <time>2023-07-20T09:23:59Z</time>
      </trkpt>
      <trkpt lat="48.38144" lon="2.72192">
        <ele>96.3</ele>
        <time>2023-07-20T09:24:00Z</time>
      </trkpt>
      <trkpt lat="48.38143" lon="2.72194">
        <ele>96.3</ele>
        <time>2023-07-20T09:24:01Z</time>
      </trkpt>
      <trkpt lat="48.38143" lon="2.72195">
        <ele>96.1</ele>
        <time>2023-07-20T09:24:02Z</time>
      </trkpt>
      <trkpt lat="48.38143" lon="2.72197">
        <ele>96.1</ele>
        <time>2023-07-20T09:24:03Z</time>
      </trkpt>
      <trkpt lat="48.38143" lon="2.72199">
        <ele>96</ele>
        <time>2023-07-20T09:24:04Z</time>
      </trkpt>
      <trkpt lat="48.38142" lon="2.72201">
        <ele>96</ele>
        <time>2023-07-20T09:24:05Z</time>
      </trkpt>
      <trkpt lat="48.38142" lon="2.72202">
        <ele>96.1</ele>
        <time>2023-07-20T09:24:06Z</time>
      </trkpt>
      <trkpt lat="48.38142" lon="2.72204">
        <ele>95.9</ele>
        <time>2023-07-20T09:24:07Z</time>
      </trkpt>
      <trkpt lat="48.38142" lon="2.72206">
        <ele>95.9</ele>
        <time>2023-07-20T09:24:08Z</time>
      </trkpt>
      <trkpt lat="48.38142" lon="2.72208">
        <ele>95.9</ele>
        <time>2023-07-20T09:24:09Z</time>
      </trkpt>
      <trkpt lat="48.38142" lon="2.72211">
        <ele>95.8</ele>
        <time>2023-07-20T09:24:10Z</time>
      </trkpt>
      <trkpt lat="48.38142" lon="2.72212">
        <ele>95.7</ele>
        <time>2023-07-20T09:24:11Z</time>
      </trkpt>
      <trkpt lat="48.38142" lon="2.72213">
        <ele>95.7</ele>
        <time>2023-07-20T09:24:12Z</time>
      </trkpt>
      <trkpt lat="48.38142" lon="2.72215">
        <ele>95.7</ele>
        <time>2023-07-20T09:24:13Z</time>
      </trkpt>
      <trkpt lat="48.38142" lon="2.72217">
        <ele>95.5</ele>
        <time>2023-07-20T09:24:14Z</time>
      </trkpt>
      <trkpt lat="48.38142" lon="2.72218">
        <ele>95.5</ele>
        <time>2023-07-20T09:24:15Z</time>
      </trkpt>
      <trkpt lat="48.38142" lon="2.72219">
        <ele>95.6</ele>
        <time>2023-07-20T09:24:16Z</time>
      </trkpt>
      <trkpt lat="48.38142" lon="2.7222">
        <ele>95.6</ele>
        <time>2023-07-20T09:24:17Z</time>
      </trkpt>
      <trkpt lat="48.38142" lon="2.72222">
        <ele>95.5</ele>
        <time>2023-07-20T09:24:18Z</time>
      </trkpt>
      <trkpt lat="48.38142" lon="2.72223">
        <ele>95.5</ele>
        <time>2023-07-20T09:24:19Z</time>
      </trkpt>
      <trkpt lat="48.38142" lon="2.72223">
        <ele>95.5</ele>
        <time>2023-07-20T09:24:20Z</time>
      </trkpt>
      <trkpt lat="48.38143" lon="2.72225">
        <ele>95.4</ele>
        <time>2023-07-20T09:24:21Z</time>
      </trkpt>
      <trkpt lat="48.38143" lon="2.72226">
        <ele>95.3</ele>
        <time>2023-07-20T09:24:22Z</time>
      </trkpt>
      <trkpt lat="48.38143" lon="2.72228">
        <ele>95.3</ele>
        <time>2023-07-20T09:24:23Z</time>
      </trkpt>
      <trkpt lat="48.38143" lon="2.72229">
        <ele>95.3</ele>
        <time>2023-07-20T09:24:24Z</time>
      </trkpt>
      <trkpt lat="48.38143" lon="2.72229">
        <ele>95.2</ele>
        <time>2023-07-20T09:24:25Z</time>
      </trkpt>
      <trkpt lat="48.38143" lon="2.7223">
        <ele>95.2</ele>
        <time>2023-07-20T09:24:26Z</time>
      </trkpt>
      <trkpt lat="48.38143" lon="2.7223">
        <ele>95.2</ele>
        <time>2023-07-20T09:24:27Z</time>
      </trkpt>
      <trkpt lat="48.38143" lon="2.7223">
        <ele>95.2</ele>
        <time>2023-07-20T09:24:28Z</time>
      </trkpt>
      <trkpt lat="48.38143" lon="2.7223">
        <ele>95.2</ele>
        <time>2023-07-20T09:24:29Z</time>
      </trkpt>
      <trkpt lat="48.38143" lon="2.7223">
        <ele>95.2</ele>
        <time>2023-07-20T09:24:30Z</time>
      </trkpt>
      <trkpt lat="48.38143" lon="2.7223">
        <ele>95.2</ele>
        <time>2023-07-20T09:24:31Z</time>
      </trkpt>
      <trkpt lat="48.38143" lon="2.7223">
        <ele>95.2</ele>
        <time>2023-07-20T09:24:32Z</time>
      </trkpt>
      <trkpt lat="48.38143" lon="2.7223">
        <ele>95.2</ele>
        <time>2023-07-20T09:24:33Z</time>
      </trkpt>
      <trkpt lat="48.38143" lon="2.7223">
        <ele>95.2</ele>
        <time>2023-07-20T09:24:34Z</time>
      </trkpt>
      <trkpt lat="48.38143" lon="2.7223">
        <ele>95.2</ele>
        <time>2023-07-20T09:24:35Z</time>
      </trkpt>
      <trkpt lat="48.38143" lon="2.7223">
        <ele>95.2</ele>
        <time>2023-07-20T09:24:36Z</time>
      </trkpt>
      <trkpt lat="48.38143" lon="2.7223">
        <ele>95.2</ele>
        <time>2023-07-20T09:24:37Z</time>
      </trkpt>
      <trkpt lat="48.38143" lon="2.72231">
        <ele>95.2</ele>
        <time>2023-07-20T09:24:38Z</time>
      </trkpt>
      <trkpt lat="48.38143" lon="2.72232">
        <ele>95.2</ele>
        <time>2023-07-20T09:24:39Z</time>
      </trkpt>
      <trkpt lat="48.38144" lon="2.72235">
        <ele>95.1</ele>
        <time>2023-07-20T09:24:40Z</time>
      </trkpt>
      <trkpt lat="48.38143" lon="2.72236">
        <ele>95.1</ele>
        <time>2023-07-20T09:24:41Z</time>
      </trkpt>
      <trkpt lat="48.38143" lon="2.72237">
        <ele>95.1</ele>
        <time>2023-07-20T09:24:42Z</time>
      </trkpt>
      <trkpt lat="48.38143" lon="2.72238">
        <ele>95</ele>
        <time>2023-07-20T09:24:43Z</time>
      </trkpt>
      <trkpt lat="48.38143" lon="2.72238">
        <ele>95</ele>
        <time>2023-07-20T09:24:44Z</time>
      </trkpt>
      <trkpt lat="48.38143" lon="2.72238">
        <ele>95</ele>
        <time>2023-07-20T09:24:45Z</time>
      </trkpt>
      <trkpt lat="48.38143" lon="2.72239">
        <ele>95</ele>
        <time>2023-07-20T09:24:46Z</time>
      </trkpt>
      <trkpt lat="48.38143" lon="2.7224">
        <ele>94.9</ele>
        <time>2023-07-20T09:24:47Z</time>
      </trkpt>
      <trkpt lat="48.38142" lon="2.72239">
        <ele>95</ele>
        <time>2023-07-20T09:24:48Z</time>
      </trkpt>
      <trkpt lat="48.38141" lon="2.7224">
        <ele>95</ele>
        <time>2023-07-20T09:24:49Z</time>
      </trkpt>
      <trkpt lat="48.38141" lon="2.72242">
        <ele>95</ele>
        <time>2023-07-20T09:24:50Z</time>
      </trkpt>
      <trkpt lat="48.38141" lon="2.72243">
        <ele>94.9</ele>
        <time>2023-07-20T09:24:51Z</time>
      </trkpt>
      <trkpt lat="48.38141" lon="2.72246">
        <ele>94.9</ele>
        <time>2023-07-20T09:24:52Z</time>
      </trkpt>
      <trkpt lat="48.3814" lon="2.72246">
        <ele>94.9</ele>
        <time>2023-07-20T09:24:53Z</time>
      </trkpt>
      <trkpt lat="48.3814" lon="2.72248">
        <ele>94.8</ele>
        <time>2023-07-20T09:24:54Z</time>
      </trkpt>
      <trkpt lat="48.38141" lon="2.72249">
        <ele>94.8</ele>
        <time>2023-07-20T09:24:55Z</time>
      </trkpt>
      <trkpt lat="48.3814" lon="2.7225">
        <ele>94.8</ele>
        <time>2023-07-20T09:24:56Z</time>
      </trkpt>
      <trkpt lat="48.3814" lon="2.72252">
        <ele>94.7</ele>
        <time>2023-07-20T09:24:57Z</time>
      </trkpt>
      <trkpt lat="48.3814" lon="2.72253">
        <ele>94.7</ele>
        <time>2023-07-20T09:24:58Z</time>
      </trkpt>
      <trkpt lat="48.3814" lon="2.72253">
        <ele>94.7</ele>
        <time>2023-07-20T09:24:59Z</time>
      </trkpt>
      <trkpt lat="48.38139" lon="2.72255">
        <ele>94.8</ele>
        <time>2023-07-20T09:25:00Z</time>
      </trkpt>
      <trkpt lat="48.3814" lon="2.72256">
        <ele>94.6</ele>
        <time>2023-07-20T09:25:01Z</time>
      </trkpt>
      <trkpt lat="48.38139" lon="2.72257">
        <ele>94.7</ele>
        <time>2023-07-20T09:25:02Z</time>
      </trkpt>
      <trkpt lat="48.38139" lon="2.72257">
        <ele>94.7</ele>
        <time>2023-07-20T09:25:03Z</time>
      </trkpt>
      <trkpt lat="48.38138" lon="2.72257">
        <ele>94.7</ele>
        <time>2023-07-20T09:25:04Z</time>
      </trkpt>
      <trkpt lat="48.38138" lon="2.72259">
        <ele>94.7</ele>
        <time>2023-07-20T09:25:05Z</time>
      </trkpt>
      <trkpt lat="48.38137" lon="2.7226">
        <ele>94.6</ele>
        <time>2023-07-20T09:25:06Z</time>
      </trkpt>
      <trkpt lat="48.38137" lon="2.7226">
        <ele>94.6</ele>
        <time>2023-07-20T09:25:07Z</time>
      </trkpt>
      <trkpt lat="48.38137" lon="2.72261">
        <ele>94.6</ele>
        <time>2023-07-20T09:25:08Z</time>
      </trkpt>
      <trkpt lat="48.38136" lon="2.72262">
        <ele>94.6</ele>
        <time>2023-07-20T09:25:09Z</time>
      </trkpt>
      <trkpt lat="48.38136" lon="2.72263">
        <ele>94.6</ele>
        <time>2023-07-20T09:25:10Z</time>
      </trkpt>
      <trkpt lat="48.38136" lon="2.72266">
        <ele>94.5</ele>
        <time>2023-07-20T09:25:11Z</time>
      </trkpt>
      <trkpt lat="48.38136" lon="2.72267">
        <ele>94.5</ele>
        <time>2023-07-20T09:25:12Z</time>
      </trkpt>
      <trkpt lat="48.38135" lon="2.72269">
        <ele>94.5</ele>
        <time>2023-07-20T09:25:13Z</time>
      </trkpt>
      <trkpt lat="48.38135" lon="2.72271">
        <ele>94.5</ele>
        <time>2023-07-20T09:25:14Z</time>
      </trkpt>
      <trkpt lat="48.38135" lon="2.72273">
        <ele>94.4</ele>
        <time>2023-07-20T09:25:15Z</time>
      </trkpt>
      <trkpt lat="48.38135" lon="2.72273">
        <ele>94.4</ele>
        <time>2023-07-20T09:25:16Z</time>
      </trkpt>
      <trkpt lat="48.38135" lon="2.72274">
        <ele>94.4</ele>
        <time>2023-07-20T09:25:17Z</time>
      </trkpt>
      <trkpt lat="48.38135" lon="2.72273">
        <ele>94.4</ele>
        <time>2023-07-20T09:25:18Z</time>
      </trkpt>
      <trkpt lat="48.38135" lon="2.72274">
        <ele>94.4</ele>
        <time>2023-07-20T09:25:19Z</time>
      </trkpt>
      <trkpt lat="48.38135" lon="2.72274">
        <ele>94.4</ele>
        <time>2023-07-20T09:25:20Z</time>
      </trkpt>
      <trkpt lat="48.38135" lon="2.72276">
        <ele>94.4</ele>
        <time>2023-07-20T09:25:21Z</time>
      </trkpt>
      <trkpt lat="48.38135" lon="2.72277">
        <ele>94.4</ele>
        <time>2023-07-20T09:25:22Z</time>
      </trkpt>
      <trkpt lat="48.38135" lon="2.72279">
        <ele>94.4</ele>
        <time>2023-07-20T09:25:23Z</time>
      </trkpt>
      <trkpt lat="48.38135" lon="2.7228">
        <ele>94.4</ele>
        <time>2023-07-20T09:25:24Z</time>
      </trkpt>
      <trkpt lat="48.38135" lon="2.72282">
        <ele>94.3</ele>
        <time>2023-07-20T09:25:25Z</time>
      </trkpt>
      <trkpt lat="48.38135" lon="2.72284">
        <ele>94.3</ele>
        <time>2023-07-20T09:25:26Z</time>
      </trkpt>
      <trkpt lat="48.38135" lon="2.72286">
        <ele>94.3</ele>
        <time>2023-07-20T09:25:27Z</time>
      </trkpt>
      <trkpt lat="48.38135" lon="2.72288">
        <ele>94.3</ele>
        <time>2023-07-20T09:25:28Z</time>
      </trkpt>
      <trkpt lat="48.38134" lon="2.72291">
        <ele>94.3</ele>
        <time>2023-07-20T09:25:29Z</time>
      </trkpt>
      <trkpt lat="48.38134" lon="2.72293">
        <ele>94.3</ele>
        <time>2023-07-20T09:25:30Z</time>
      </trkpt>
      <trkpt lat="48.38134" lon="2.72295">
        <ele>94.3</ele>
        <time>2023-07-20T09:25:31Z</time>
      </trkpt>
      <trkpt lat="48.38134" lon="2.72296">
        <ele>94.3</ele>
        <time>2023-07-20T09:25:32Z</time>
      </trkpt>
      <trkpt lat="48.38134" lon="2.72298">
        <ele>94.3</ele>
        <time>2023-07-20T09:25:33Z</time>
      </trkpt>
      <trkpt lat="48.38133" lon="2.72298">
        <ele>94.3</ele>
        <time>2023-07-20T09:25:34Z</time>
      </trkpt>
      <trkpt lat="48.38133" lon="2.723">
        <ele>94.3</ele>
        <time>2023-07-20T09:25:35Z</time>
      </trkpt>
      <trkpt lat="48.38133" lon="2.72302">
        <ele>94.3</ele>
        <time>2023-07-20T09:25:36Z</time>
      </trkpt>
      <trkpt lat="48.38132" lon="2.72304">
        <ele>94.3</ele>
        <time>2023-07-20T09:25:37Z</time>
      </trkpt>
      <trkpt lat="48.38132" lon="2.72306">
        <ele>94.3</ele>
        <time>2023-07-20T09:25:38Z</time>
      </trkpt>
      <trkpt lat="48.38133" lon="2.72308">
        <ele>94.3</ele>
        <time>2023-07-20T09:25:39Z</time>
      </trkpt>
      <trkpt lat="48.38133" lon="2.7231">
        <ele>94.3</ele>
        <time>2023-07-20T09:25:40Z</time>
      </trkpt>
      <trkpt lat="48.38134" lon="2.72313">
        <ele>94.3</ele>
        <time>2023-07-20T09:25:41Z</time>
      </trkpt>
      <trkpt lat="48.38134" lon="2.72315">
        <ele>94.3</ele>
        <time>2023-07-20T09:25:42Z</time>
      </trkpt>
      <trkpt lat="48.38135" lon="2.72316">
        <ele>94.3</ele>
        <time>2023-07-20T09:25:43Z</time>
      </trkpt>
      <trkpt lat="48.38134" lon="2.72317">
        <ele>94.3</ele>
        <time>2023-07-20T09:25:44Z</time>
      </trkpt>
      <trkpt lat="48.38134" lon="2.72318">
        <ele>94.3</ele>
        <time>2023-07-20T09:25:45Z</time>
      </trkpt>
      <trkpt lat="48.38134" lon="2.72319">
        <ele>94.3</ele>
        <time>2023-07-20T09:25:46Z</time>
      </trkpt>
      <trkpt lat="48.38134" lon="2.72321">
        <ele>94.3</ele>
        <time>2023-07-20T09:25:47Z</time>
      </trkpt>
      <trkpt lat="48.38134" lon="2.72324">
        <ele>94.3</ele>
        <time>2023-07-20T09:25:48Z</time>
      </trkpt>
      <trkpt lat="48.38134" lon="2.72325">
        <ele>94.3</ele>
        <time>2023-07-20T09:25:49Z</time>
      </trkpt>
      <trkpt lat="48.38133" lon="2.72326">
        <ele>94.3</ele>
        <time>2023-07-20T09:25:50Z</time>
      </trkpt>
      <trkpt lat="48.38133" lon="2.72328">
        <ele>94.3</ele>
        <time>2023-07-20T09:25:51Z</time>
      </trkpt>
      <trkpt lat="48.38133" lon="2.72329">
        <ele>94.3</ele>
        <time>2023-07-20T09:25:52Z</time>
      </trkpt>
      <trkpt lat="48.38132" lon="2.72329">
        <ele>94.3</ele>
        <time>2023-07-20T09:25:53Z</time>
      </trkpt>
      <trkpt lat="48.38132" lon="2.7233">
        <ele>94.3</ele>
        <time>2023-07-20T09:25:54Z</time>
      </trkpt>
      <trkpt lat="48.38132" lon="2.72331">
        <ele>94.3</ele>
        <time>2023-07-20T09:25:55Z</time>
      </trkpt>
      <trkpt lat="48.38132" lon="2.72333">
        <ele>94.3</ele>
        <time>2023-07-20T09:25:56Z</time>
      </trkpt>
      <trkpt lat="48.38132" lon="2.72335">
        <ele>94.3</ele>
        <time>2023-07-20T09:25:57Z</time>
      </trkpt>
      <trkpt lat="48.38131" lon="2.72336">
        <ele>94.3</ele>
        <time>2023-07-20T09:25:58Z</time>
      </trkpt>
      <trkpt lat="48.38132" lon="2.72338">
        <ele>94.3</ele>
        <time>2023-07-20T09:25:59Z</time>
      </trkpt>
      <trkpt lat="48.38132" lon="2.7234">
        <ele>94.3</ele>
        <time>2023-07-20T09:26:00Z</time>
      </trkpt>
      <trkpt lat="48.38132" lon="2.72341">
        <ele>94.3</ele>
        <time>2023-07-20T09:26:01Z</time>
      </trkpt>
      <trkpt lat="48.38132" lon="2.72342">
        <ele>94.3</ele>
        <time>2023-07-20T09:26:02Z</time>
      </trkpt>
      <trkpt lat="48.38132" lon="2.72344">
        <ele>94.3</ele>
        <time>2023-07-20T09:26:03Z</time>
      </trkpt>
      <trkpt lat="48.38132" lon="2.72344">
        <ele>94.3</ele>
        <time>2023-07-20T09:26:04Z</time>
      </trkpt>
      <trkpt lat="48.38131" lon="2.72346">
        <ele>94.3</ele>
        <time>2023-07-20T09:26:05Z</time>
      </trkpt>
      <trkpt lat="48.38131" lon="2.72347">
        <ele>94.3</ele>
        <time>2023-07-20T09:26:06Z</time>
      </trkpt>
      <trkpt lat="48.38131" lon="2.72348">
        <ele>94.3</ele>
        <time>2023-07-20T09:26:07Z</time>
      </trkpt>
      <trkpt lat="48.38131" lon="2.72349">
        <ele>94.3</ele>
        <time>2023-07-20T09:26:08Z</time>
      </trkpt>
      <trkpt lat="48.3813" lon="2.7235">
        <ele>94.3</ele>
        <time>2023-07-20T09:26:09Z</time>
      </trkpt>
      <trkpt lat="48.3813" lon="2.72351">
        <ele>94.3</ele>
        <time>2023-07-20T09:26:10Z</time>
      </trkpt>
      <trkpt lat="48.3813" lon="2.72352">
        <ele>94.3</ele>
        <time>2023-07-20T09:26:11Z</time>
      </trkpt>
      <trkpt lat="48.3813" lon="2.72353">
        <ele>94.3</ele>
        <time>2023-07-20T09:26:12Z</time>
      </trkpt>
      <trkpt lat="48.38129" lon="2.72354">
        <ele>94.3</ele>
        <time>2023-07-20T09:26:13Z</time>
      </trkpt>
      <trkpt lat="48.38129" lon="2.72357">
        <ele>94.3</ele>
        <time>2023-07-20T09:26:14Z</time>
      </trkpt>
      <trkpt lat="48.38129" lon="2.72359">
        <ele>94.3</ele>
        <time>2023-07-20T09:26:15Z</time>
      </trkpt>
      <trkpt lat="48.38129" lon="2.7236">
        <ele>94.3</ele>
        <time>2023-07-20T09:26:16Z</time>
      </trkpt>
      <trkpt lat="48.3813" lon="2.72361">
        <ele>94.3</ele>
        <time>2023-07-20T09:26:17Z</time>
      </trkpt>
      <trkpt lat="48.3813" lon="2.72363">
        <ele>94.3</ele>
        <time>2023-07-20T09:26:18Z</time>
      </trkpt>
      <trkpt lat="48.3813" lon="2.72364">
        <ele>94.3</ele>
        <time>2023-07-20T09:26:19Z</time>
      </trkpt>
      <trkpt lat="48.3813" lon="2.72365">
        <ele>94.3</ele>
        <time>2023-07-20T09:26:20Z</time>
      </trkpt>
      <trkpt lat="48.38129" lon="2.72366">
        <ele>94.3</ele>
        <time>2023-07-20T09:26:21Z</time>
      </trkpt>
      <trkpt lat="48.38129" lon="2.72367">
        <ele>94.3</ele>
        <time>2023-07-20T09:26:22Z</time>
      </trkpt>
      <trkpt lat="48.38129" lon="2.72369">
        <ele>94.3</ele>
        <time>2023-07-20T09:26:23Z</time>
      </trkpt>
      <trkpt lat="48.38129" lon="2.72371">
        <ele>94.3</ele>
        <time>2023-07-20T09:26:24Z</time>
      </trkpt>
      <trkpt lat="48.38129" lon="2.72373">
        <ele>94.3</ele>
        <time>2023-07-20T09:26:25Z</time>
      </trkpt>
      <trkpt lat="48.38129" lon="2.72375">
        <ele>94.3</ele>
        <time>2023-07-20T09:26:26Z</time>
      </trkpt>
      <trkpt lat="48.38128" lon="2.72377">
        <ele>94.3</ele>
        <time>2023-07-20T09:26:27Z</time>
      </trkpt>
      <trkpt lat="48.38128" lon="2.72381">
        <ele>94.3</ele>
        <time>2023-07-20T09:26:28Z</time>
      </trkpt>
      <trkpt lat="48.38128" lon="2.72382">
        <ele>94.3</ele>
        <time>2023-07-20T09:26:29Z</time>
      </trkpt>
      <trkpt lat="48.38127" lon="2.72383">
        <ele>94.3</ele>
        <time>2023-07-20T09:26:30Z</time>
      </trkpt>
      <trkpt lat="48.38127" lon="2.72385">
        <ele>94.3</ele>
        <time>2023-07-20T09:26:31Z</time>
      </trkpt>
      <trkpt lat="48.38127" lon="2.72386">
        <ele>94.3</ele>
        <time>2023-07-20T09:26:32Z</time>
      </trkpt>
      <trkpt lat="48.38127" lon="2.72388">
        <ele>94.3</ele>
        <time>2023-07-20T09:26:33Z</time>
      </trkpt>
      <trkpt lat="48.38126" lon="2.7239">
        <ele>94.3</ele>
        <time>2023-07-20T09:26:34Z</time>
      </trkpt>
      <trkpt lat="48.38126" lon="2.72391">
        <ele>94.3</ele>
        <time>2023-07-20T09:26:35Z</time>
      </trkpt>
      <trkpt lat="48.38126" lon="2.72393">
        <ele>94.3</ele>
        <time>2023-07-20T09:26:36Z</time>
      </trkpt>
      <trkpt lat="48.38126" lon="2.72394">
        <ele>94.3</ele>
        <time>2023-07-20T09:26:37Z</time>
      </trkpt>
      <trkpt lat="48.38126" lon="2.72396">
        <ele>94.3</ele>
        <time>2023-07-20T09:26:38Z</time>
      </trkpt>
      <trkpt lat="48.38126" lon="2.72397">
        <ele>94.3</ele>
        <time>2023-07-20T09:26:39Z</time>
      </trkpt>
      <trkpt lat="48.38126" lon="2.72398">
        <ele>94.2</ele>
        <time>2023-07-20T09:26:40Z</time>
      </trkpt>
      <trkpt lat="48.38126" lon="2.724">
        <ele>94.2</ele>
        <time>2023-07-20T09:26:41Z</time>
      </trkpt>
      <trkpt lat="48.38125" lon="2.72402">
        <ele>94.2</ele>
        <time>2023-07-20T09:26:42Z</time>
      </trkpt>
      <trkpt lat="48.38125" lon="2.72406">
        <ele>94.2</ele>
        <time>2023-07-20T09:26:43Z</time>
      </trkpt>
      <trkpt lat="48.38125" lon="2.72408">
        <ele>94.2</ele>
        <time>2023-07-20T09:26:44Z</time>
      </trkpt>
      <trkpt lat="48.38125" lon="2.7241">
        <ele>94.2</ele>
        <time>2023-07-20T09:26:45Z</time>
      </trkpt>
      <trkpt lat="48.38124" lon="2.72411">
        <ele>94.2</ele>
        <time>2023-07-20T09:26:46Z</time>
      </trkpt>
      <trkpt lat="48.38124" lon="2.72413">
        <ele>94.2</ele>
        <time>2023-07-20T09:26:47Z</time>
      </trkpt>
      <trkpt lat="48.38123" lon="2.72415">
        <ele>94.2</ele>
        <time>2023-07-20T09:26:48Z</time>
      </trkpt>
      <trkpt lat="48.38123" lon="2.72416">
        <ele>94.2</ele>
        <time>2023-07-20T09:26:49Z</time>
      </trkpt>
      <trkpt lat="48.38122" lon="2.72417">
        <ele>94.2</ele>
        <time>2023-07-20T09:26:50Z</time>
      </trkpt>
      <trkpt lat="48.38122" lon="2.72421">
        <ele>94.2</ele>
        <time>2023-07-20T09:26:51Z</time>
      </trkpt>
      <trkpt lat="48.38122" lon="2.72422">
        <ele>94.2</ele>
        <time>2023-07-20T09:26:52Z</time>
      </trkpt>
      <trkpt lat="48.38122" lon="2.72423">
        <ele>94.1</ele>
        <time>2023-07-20T09:26:53Z</time>
      </trkpt>
      <trkpt lat="48.38121" lon="2.72426">
        <ele>94.1</ele>
        <time>2023-07-20T09:26:54Z</time>
      </trkpt>
      <trkpt lat="48.3812" lon="2.72427">
        <ele>94.1</ele>
        <time>2023-07-20T09:26:55Z</time>
      </trkpt>
      <trkpt lat="48.38119" lon="2.72429">
        <ele>94.1</ele>
        <time>2023-07-20T09:26:56Z</time>
      </trkpt>
      <trkpt lat="48.38119" lon="2.72431">
        <ele>94.1</ele>
        <time>2023-07-20T09:26:57Z</time>
      </trkpt>
      <trkpt lat="48.38119" lon="2.72432">
        <ele>94.1</ele>
        <time>2023-07-20T09:26:58Z</time>
      </trkpt>
      <trkpt lat="48.38119" lon="2.72435">
        <ele>94.1</ele>
        <time>2023-07-20T09:26:59Z</time>
      </trkpt>
      <trkpt lat="48.38119" lon="2.72436">
        <ele>94.1</ele>
        <time>2023-07-20T09:27:00Z</time>
      </trkpt>
      <trkpt lat="48.3812" lon="2.72438">
        <ele>94.1</ele>
        <time>2023-07-20T09:27:01Z</time>
      </trkpt>
      <trkpt lat="48.38119" lon="2.72439">
        <ele>94.1</ele>
        <time>2023-07-20T09:27:02Z</time>
      </trkpt>
      <trkpt lat="48.38119" lon="2.72441">
        <ele>94</ele>
        <time>2023-07-20T09:27:03Z</time>
      </trkpt>
      <trkpt lat="48.38119" lon="2.72442">
        <ele>94</ele>
        <time>2023-07-20T09:27:04Z</time>
      </trkpt>
      <trkpt lat="48.38119" lon="2.72445">
        <ele>94</ele>
        <time>2023-07-20T09:27:05Z</time>
      </trkpt>
      <trkpt lat="48.38119" lon="2.72446">
        <ele>94</ele>
        <time>2023-07-20T09:27:06Z</time>
      </trkpt>
      <trkpt lat="48.38119" lon="2.72448">
        <ele>94</ele>
        <time>2023-07-20T09:27:07Z</time>
      </trkpt>
      <trkpt lat="48.38119" lon="2.72449">
        <ele>93.9</ele>
        <time>2023-07-20T09:27:08Z</time>
      </trkpt>
      <trkpt lat="48.38119" lon="2.7245">
        <ele>93.9</ele>
        <time>2023-07-20T09:27:09Z</time>
      </trkpt>
      <trkpt lat="48.38118" lon="2.72451">
        <ele>93.9</ele>
        <time>2023-07-20T09:27:10Z</time>
      </trkpt>
      <trkpt lat="48.38118" lon="2.72453">
        <ele>93.9</ele>
        <time>2023-07-20T09:27:11Z</time>
      </trkpt>
      <trkpt lat="48.38118" lon="2.72456">
        <ele>93.9</ele>
        <time>2023-07-20T09:27:12Z</time>
      </trkpt>
      <trkpt lat="48.38119" lon="2.72457">
        <ele>93.9</ele>
        <time>2023-07-20T09:27:13Z</time>
      </trkpt>
      <trkpt lat="48.38119" lon="2.72458">
        <ele>93.9</ele>
        <time>2023-07-20T09:27:14Z</time>
      </trkpt>
      <trkpt lat="48.38118" lon="2.72462">
        <ele>93.8</ele>
        <time>2023-07-20T09:27:15Z</time>
      </trkpt>
      <trkpt lat="48.38118" lon="2.72464">
        <ele>93.8</ele>
        <time>2023-07-20T09:27:16Z</time>
      </trkpt>
      <trkpt lat="48.38118" lon="2.72465">
        <ele>93.8</ele>
        <time>2023-07-20T09:27:17Z</time>
      </trkpt>
      <trkpt lat="48.38118" lon="2.72466">
        <ele>93.8</ele>
        <time>2023-07-20T09:27:18Z</time>
      </trkpt>
      <trkpt lat="48.38118" lon="2.72467">
        <ele>93.8</ele>
        <time>2023-07-20T09:27:19Z</time>
      </trkpt>
      <trkpt lat="48.38118" lon="2.72468">
        <ele>93.8</ele>
        <time>2023-07-20T09:27:20Z</time>
      </trkpt>
      <trkpt lat="48.38118" lon="2.72469">
        <ele>93.8</ele>
        <time>2023-07-20T09:27:21Z</time>
      </trkpt>
      <trkpt lat="48.38117" lon="2.7247">
        <ele>93.7</ele>
        <time>2023-07-20T09:27:22Z</time>
      </trkpt>
      <trkpt lat="48.38117" lon="2.72471">
        <ele>93.7</ele>
        <time>2023-07-20T09:27:23Z</time>
      </trkpt>
      <trkpt lat="48.38116" lon="2.72473">
        <ele>93.7</ele>
        <time>2023-07-20T09:27:24Z</time>
      </trkpt>
      <trkpt lat="48.38116" lon="2.72475">
        <ele>93.7</ele>
        <time>2023-07-20T09:27:25Z</time>
      </trkpt>
      <trkpt lat="48.38116" lon="2.72476">
        <ele>93.7</ele>
        <time>2023-07-20T09:27:26Z</time>
      </trkpt>
      <trkpt lat="48.38115" lon="2.72477">
        <ele>93.7</ele>
        <time>2023-07-20T09:27:27Z</time>
      </trkpt>
      <trkpt lat="48.38115" lon="2.72478">
        <ele>93.6</ele>
        <time>2023-07-20T09:27:28Z</time>
      </trkpt>
      <trkpt lat="48.38114" lon="2.72479">
        <ele>93.6</ele>
        <time>2023-07-20T09:27:29Z</time>
      </trkpt>
      <trkpt lat="48.38114" lon="2.7248">
        <ele>93.6</ele>
        <time>2023-07-20T09:27:30Z</time>
      </trkpt>
      <trkpt lat="48.38114" lon="2.72481">
        <ele>93.6</ele>
        <time>2023-07-20T09:27:31Z</time>
      </trkpt>
      <trkpt lat="48.38114" lon="2.72482">
        <ele>93.6</ele>
        <time>2023-07-20T09:27:32Z</time>
      </trkpt>
      <trkpt lat="48.38113" lon="2.72484">
        <ele>93.6</ele>
        <time>2023-07-20T09:27:33Z</time>
      </trkpt>
      <trkpt lat="48.38113" lon="2.72487">
        <ele>93.5</ele>
        <time>2023-07-20T09:27:34Z</time>
      </trkpt>
      <trkpt lat="48.38113" lon="2.72488">
        <ele>93.5</ele>
        <time>2023-07-20T09:27:35Z</time>
      </trkpt>
      <trkpt lat="48.38114" lon="2.72489">
        <ele>93.5</ele>
        <time>2023-07-20T09:27:36Z</time>
      </trkpt>
      <trkpt lat="48.38114" lon="2.72492">
        <ele>93.4</ele>
        <time>2023-07-20T09:27:37Z</time>
      </trkpt>
      <trkpt lat="48.38113" lon="2.72495">
        <ele>93.4</ele>
        <time>2023-07-20T09:27:38Z</time>
      </trkpt>
      <trkpt lat="48.38113" lon="2.72496">
        <ele>93.3</ele>
        <time>2023-07-20T09:27:39Z</time>
      </trkpt>
      <trkpt lat="48.38113" lon="2.72498">
        <ele>93.3</ele>
        <time>2023-07-20T09:27:40Z</time>
      </trkpt>
      <trkpt lat="48.38112" lon="2.725">
        <ele>93.3</ele>
        <time>2023-07-20T09:27:41Z</time>
      </trkpt>
      <trkpt lat="48.38112" lon="2.72502">
        <ele>93.2</ele>
        <time>2023-07-20T09:27:42Z</time>
      </trkpt>
      <trkpt lat="48.38113" lon="2.72503">
        <ele>93.2</ele>
        <time>2023-07-20T09:27:43Z</time>
      </trkpt>
      <trkpt lat="48.38113" lon="2.72505">
        <ele>93.2</ele>
        <time>2023-07-20T09:27:44Z</time>
      </trkpt>
      <trkpt lat="48.38113" lon="2.72506">
        <ele>93.2</ele>
        <time>2023-07-20T09:27:45Z</time>
      </trkpt>
      <trkpt lat="48.38113" lon="2.72508">
        <ele>93.1</ele>
        <time>2023-07-20T09:27:46Z</time>
      </trkpt>
      <trkpt lat="48.38113" lon="2.72509">
        <ele>93.1</ele>
        <time>2023-07-20T09:27:47Z</time>
      </trkpt>
      <trkpt lat="48.38113" lon="2.7251">
        <ele>93.1</ele>
        <time>2023-07-20T09:27:48Z</time>
      </trkpt>
      <trkpt lat="48.38113" lon="2.72512">
        <ele>93.1</ele>
        <time>2023-07-20T09:27:49Z</time>
      </trkpt>
      <trkpt lat="48.38113" lon="2.72514">
        <ele>93</ele>
        <time>2023-07-20T09:27:50Z</time>
      </trkpt>
      <trkpt lat="48.38113" lon="2.72515">
        <ele>93</ele>
        <time>2023-07-20T09:27:51Z</time>
      </trkpt>
      <trkpt lat="48.38111" lon="2.72518">
        <ele>93</ele>
        <time>2023-07-20T09:27:52Z</time>
      </trkpt>
      <trkpt lat="48.38111" lon="2.7252">
        <ele>93</ele>
        <time>2023-07-20T09:27:53Z</time>
      </trkpt>
      <trkpt lat="48.3811" lon="2.72521">
        <ele>93</ele>
        <time>2023-07-20T09:27:54Z</time>
      </trkpt>
      <trkpt lat="48.3811" lon="2.72522">
        <ele>93</ele>
        <time>2023-07-20T09:27:55Z</time>
      </trkpt>
      <trkpt lat="48.3811" lon="2.72523">
        <ele>93</ele>
        <time>2023-07-20T09:27:56Z</time>
      </trkpt>
      <trkpt lat="48.3811" lon="2.72525">
        <ele>93</ele>
        <time>2023-07-20T09:27:58Z</time>
      </trkpt>
      <trkpt lat="48.38109" lon="2.72525">
        <ele>93</ele>
        <time>2023-07-20T09:27:59Z</time>
      </trkpt>
      <trkpt lat="48.38109" lon="2.72527">
        <ele>92.9</ele>
        <time>2023-07-20T09:28:00Z</time>
      </trkpt>
      <trkpt lat="48.38108" lon="2.72529">
        <ele>92.9</ele>
        <time>2023-07-20T09:28:01Z</time>
      </trkpt>
      <trkpt lat="48.38108" lon="2.72532">
        <ele>92.9</ele>
        <time>2023-07-20T09:28:02Z</time>
      </trkpt>
      <trkpt lat="48.38108" lon="2.72533">
        <ele>92.9</ele>
        <time>2023-07-20T09:28:03Z</time>
      </trkpt>
      <trkpt lat="48.38108" lon="2.72534">
        <ele>92.9</ele>
        <time>2023-07-20T09:28:04Z</time>
      </trkpt>
      <trkpt lat="48.38107" lon="2.72536">
        <ele>92.9</ele>
        <time>2023-07-20T09:28:05Z</time>
      </trkpt>
      <trkpt lat="48.38107" lon="2.72537">
        <ele>92.9</ele>
        <time>2023-07-20T09:28:06Z</time>
      </trkpt>
      <trkpt lat="48.38106" lon="2.72539">
        <ele>92.9</ele>
        <time>2023-07-20T09:28:07Z</time>
      </trkpt>
      <trkpt lat="48.38106" lon="2.72541">
        <ele>92.9</ele>
        <time>2023-07-20T09:28:08Z</time>
      </trkpt>
      <trkpt lat="48.38106" lon="2.72543">
        <ele>92.9</ele>
        <time>2023-07-20T09:28:09Z</time>
      </trkpt>
      <trkpt lat="48.38106" lon="2.72544">
        <ele>92.9</ele>
        <time>2023-07-20T09:28:10Z</time>
      </trkpt>
      <trkpt lat="48.38106" lon="2.72546">
        <ele>92.9</ele>
        <time>2023-07-20T09:28:11Z</time>
      </trkpt>
      <trkpt lat="48.38106" lon="2.72547">
        <ele>92.8</ele>
        <time>2023-07-20T09:28:12Z</time>
      </trkpt>
      <trkpt lat="48.38106" lon="2.7255">
        <ele>92.8</ele>
        <time>2023-07-20T09:28:13Z</time>
      </trkpt>
      <trkpt lat="48.38106" lon="2.72551">
        <ele>92.8</ele>
        <time>2023-07-20T09:28:14Z</time>
      </trkpt>
      <trkpt lat="48.38106" lon="2.72552">
        <ele>92.8</ele>
        <time>2023-07-20T09:28:15Z</time>
      </trkpt>
      <trkpt lat="48.38106" lon="2.72554">
        <ele>92.8</ele>
        <time>2023-07-20T09:28:16Z</time>
      </trkpt>
      <trkpt lat="48.38105" lon="2.72556">
        <ele>92.8</ele>
        <time>2023-07-20T09:28:17Z</time>
      </trkpt>
      <trkpt lat="48.38104" lon="2.72557">
        <ele>92.8</ele>
        <time>2023-07-20T09:28:18Z</time>
      </trkpt>
      <trkpt lat="48.38104" lon="2.72559">
        <ele>92.8</ele>
        <time>2023-07-20T09:28:19Z</time>
      </trkpt>
      <trkpt lat="48.38105" lon="2.72561">
        <ele>92.8</ele>
        <time>2023-07-20T09:28:20Z</time>
      </trkpt>
      <trkpt lat="48.38105" lon="2.72562">
        <ele>92.8</ele>
        <time>2023-07-20T09:28:21Z</time>
      </trkpt>
      <trkpt lat="48.38105" lon="2.72564">
        <ele>92.8</ele>
        <time>2023-07-20T09:28:22Z</time>
      </trkpt>
      <trkpt lat="48.38106" lon="2.72565">
        <ele>92.8</ele>
        <time>2023-07-20T09:28:23Z</time>
      </trkpt>
      <trkpt lat="48.38105" lon="2.72567">
        <ele>92.8</ele>
        <time>2023-07-20T09:28:24Z</time>
      </trkpt>
      <trkpt lat="48.38105" lon="2.72568">
        <ele>92.8</ele>
        <time>2023-07-20T09:28:25Z</time>
      </trkpt>
      <trkpt lat="48.38105" lon="2.7257">
        <ele>92.8</ele>
        <time>2023-07-20T09:28:26Z</time>
      </trkpt>
      <trkpt lat="48.38105" lon="2.72572">
        <ele>92.8</ele>
        <time>2023-07-20T09:28:27Z</time>
      </trkpt>
      <trkpt lat="48.38105" lon="2.72573">
        <ele>92.8</ele>
        <time>2023-07-20T09:28:28Z</time>
      </trkpt>
      <trkpt lat="48.38105" lon="2.72576">
        <ele>92.8</ele>
        <time>2023-07-20T09:28:29Z</time>
      </trkpt>
      <trkpt lat="48.38104" lon="2.72577">
        <ele>92.8</ele>
        <time>2023-07-20T09:28:30Z</time>
      </trkpt>
      <trkpt lat="48.38104" lon="2.72579">
        <ele>92.8</ele>
        <time>2023-07-20T09:28:31Z</time>
      </trkpt>
      <trkpt lat="48.38104" lon="2.7258">
        <ele>92.8</ele>
        <time>2023-07-20T09:28:32Z</time>
      </trkpt>
      <trkpt lat="48.38104" lon="2.72581">
        <ele>92.8</ele>
        <time>2023-07-20T09:28:33Z</time>
      </trkpt>
      <trkpt lat="48.38104" lon="2.72583">
        <ele>92.8</ele>
        <time>2023-07-20T09:28:34Z</time>
      </trkpt>
      <trkpt lat="48.38104" lon="2.72584">
        <ele>92.8</ele>
        <time>2023-07-20T09:28:35Z</time>
      </trkpt>
      <trkpt lat="48.38103" lon="2.72585">
        <ele>92.8</ele>
        <time>2023-07-20T09:28:36Z</time>
      </trkpt>
      <trkpt lat="48.38102" lon="2.72586">
        <ele>92.8</ele>
        <time>2023-07-20T09:28:37Z</time>
      </trkpt>
      <trkpt lat="48.38102" lon="2.72588">
        <ele>92.8</ele>
        <time>2023-07-20T09:28:38Z</time>
      </trkpt>
      <trkpt lat="48.38101" lon="2.72588">
        <ele>92.8</ele>
        <time>2023-07-20T09:28:39Z</time>
      </trkpt>
      <trkpt lat="48.38101" lon="2.72589">
        <ele>92.8</ele>
        <time>2023-07-20T09:28:40Z</time>
      </trkpt>
      <trkpt lat="48.38101" lon="2.72591">
        <ele>92.8</ele>
        <time>2023-07-20T09:28:41Z</time>
      </trkpt>
      <trkpt lat="48.381" lon="2.72592">
        <ele>92.8</ele>
        <time>2023-07-20T09:28:42Z</time>
      </trkpt>
      <trkpt lat="48.38101" lon="2.72594">
        <ele>92.8</ele>
        <time>2023-07-20T09:28:43Z</time>
      </trkpt>
      <trkpt lat="48.38101" lon="2.72595">
        <ele>92.8</ele>
        <time>2023-07-20T09:28:44Z</time>
      </trkpt>
      <trkpt lat="48.38101" lon="2.72597">
        <ele>92.8</ele>
        <time>2023-07-20T09:28:45Z</time>
      </trkpt>
      <trkpt lat="48.38101" lon="2.72598">
        <ele>92.8</ele>
        <time>2023-07-20T09:28:46Z</time>
      </trkpt>
      <trkpt lat="48.38101" lon="2.72601">
        <ele>92.8</ele>
        <time>2023-07-20T09:28:47Z</time>
      </trkpt>
      <trkpt lat="48.38102" lon="2.72602">
        <ele>92.8</ele>
        <time>2023-07-20T09:28:48Z</time>
      </trkpt>
      <trkpt lat="48.38102" lon="2.72604">
        <ele>92.8</ele>
        <time>2023-07-20T09:28:49Z</time>
      </trkpt>
      <trkpt lat="48.38103" lon="2.72606">
        <ele>92.8</ele>
        <time>2023-07-20T09:28:50Z</time>
      </trkpt>
      <trkpt lat="48.38103" lon="2.72607">
        <ele>92.9</ele>
        <time>2023-07-20T09:28:51Z</time>
      </trkpt>
      <trkpt lat="48.38104" lon="2.72608">
        <ele>92.9</ele>
        <time>2023-07-20T09:28:52Z</time>
      </trkpt>
      <trkpt lat="48.38103" lon="2.72609">
        <ele>92.9</ele>
        <time>2023-07-20T09:28:53Z</time>
      </trkpt>
      <trkpt lat="48.38103" lon="2.72611">
        <ele>92.9</ele>
        <time>2023-07-20T09:28:54Z</time>
      </trkpt>
      <trkpt lat="48.38103" lon="2.72612">
        <ele>92.9</ele>
        <time>2023-07-20T09:28:55Z</time>
      </trkpt>
      <trkpt lat="48.38103" lon="2.72614">
        <ele>92.9</ele>
        <time>2023-07-20T09:28:56Z</time>
      </trkpt>
      <trkpt lat="48.38103" lon="2.72615">
        <ele>92.9</ele>
        <time>2023-07-20T09:28:57Z</time>
      </trkpt>
      <trkpt lat="48.38103" lon="2.72617">
        <ele>92.9</ele>
        <time>2023-07-20T09:28:58Z</time>
      </trkpt>
      <trkpt lat="48.38103" lon="2.72619">
        <ele>92.9</ele>
        <time>2023-07-20T09:28:59Z</time>
      </trkpt>
      <trkpt lat="48.38103" lon="2.72621">
        <ele>93</ele>
        <time>2023-07-20T09:29:00Z</time>
      </trkpt>
      <trkpt lat="48.38102" lon="2.72622">
        <ele>92.9</ele>
        <time>2023-07-20T09:29:01Z</time>
      </trkpt>
      <trkpt lat="48.38102" lon="2.72623">
        <ele>92.9</ele>
        <time>2023-07-20T09:29:02Z</time>
      </trkpt>
      <trkpt lat="48.38102" lon="2.72625">
        <ele>93</ele>
        <time>2023-07-20T09:29:03Z</time>
      </trkpt>
      <trkpt lat="48.38102" lon="2.72626">
        <ele>93</ele>
        <time>2023-07-20T09:29:04Z</time>
      </trkpt>
      <trkpt lat="48.38102" lon="2.72628">
        <ele>93</ele>
        <time>2023-07-20T09:29:05Z</time>
      </trkpt>
      <trkpt lat="48.38102" lon="2.72629">
        <ele>93</ele>
        <time>2023-07-20T09:29:06Z</time>
      </trkpt>
      <trkpt lat="48.38101" lon="2.72631">
        <ele>93</ele>
        <time>2023-07-20T09:29:07Z</time>
      </trkpt>
      <trkpt lat="48.38101" lon="2.72633">
        <ele>93.1</ele>
        <time>2023-07-20T09:29:08Z</time>
      </trkpt>
      <trkpt lat="48.38102" lon="2.72634">
        <ele>93.1</ele>
        <time>2023-07-20T09:29:09Z</time>
      </trkpt>
      <trkpt lat="48.38101" lon="2.72635">
        <ele>93</ele>
        <time>2023-07-20T09:29:10Z</time>
      </trkpt>
      <trkpt lat="48.38101" lon="2.72637">
        <ele>93</ele>
        <time>2023-07-20T09:29:11Z</time>
      </trkpt>
      <trkpt lat="48.38101" lon="2.72639">
        <ele>93.1</ele>
        <time>2023-07-20T09:29:12Z</time>
      </trkpt>
      <trkpt lat="48.38101" lon="2.72641">
        <ele>93.1</ele>
        <time>2023-07-20T09:29:13Z</time>
      </trkpt>
      <trkpt lat="48.38102" lon="2.72643">
        <ele>93.1</ele>
        <time>2023-07-20T09:29:14Z</time>
      </trkpt>
      <trkpt lat="48.38102" lon="2.72644">
        <ele>93.1</ele>
        <time>2023-07-20T09:29:15Z</time>
      </trkpt>
      <trkpt lat="48.38102" lon="2.72645">
        <ele>93.1</ele>
        <time>2023-07-20T09:29:16Z</time>
      </trkpt>
      <trkpt lat="48.38102" lon="2.72645">
        <ele>93.1</ele>
        <time>2023-07-20T09:29:17Z</time>
      </trkpt>
      <trkpt lat="48.38102" lon="2.72649">
        <ele>93.2</ele>
        <time>2023-07-20T09:29:18Z</time>
      </trkpt>
      <trkpt lat="48.38102" lon="2.72653">
        <ele>93.2</ele>
        <time>2023-07-20T09:29:19Z</time>
      </trkpt>
      <trkpt lat="48.38102" lon="2.72655">
        <ele>93.2</ele>
        <time>2023-07-20T09:29:20Z</time>
      </trkpt>
      <trkpt lat="48.38102" lon="2.72656">
        <ele>93.2</ele>
        <time>2023-07-20T09:29:21Z</time>
      </trkpt>
      <trkpt lat="48.38101" lon="2.72659">
        <ele>93.3</ele>
        <time>2023-07-20T09:29:22Z</time>
      </trkpt>
      <trkpt lat="48.38101" lon="2.7266">
        <ele>93.2</ele>
        <time>2023-07-20T09:29:23Z</time>
      </trkpt>
      <trkpt lat="48.38101" lon="2.72662">
        <ele>93.2</ele>
        <time>2023-07-20T09:29:24Z</time>
      </trkpt>
      <trkpt lat="48.38101" lon="2.72663">
        <ele>93.3</ele>
        <time>2023-07-20T09:29:25Z</time>
      </trkpt>
      <trkpt lat="48.38101" lon="2.72665">
        <ele>93.3</ele>
        <time>2023-07-20T09:29:26Z</time>
      </trkpt>
      <trkpt lat="48.38101" lon="2.72668">
        <ele>93.3</ele>
        <time>2023-07-20T09:29:27Z</time>
      </trkpt>
      <trkpt lat="48.38101" lon="2.72669">
        <ele>93.3</ele>
        <time>2023-07-20T09:29:28Z</time>
      </trkpt>
      <trkpt lat="48.381" lon="2.7267">
        <ele>93.3</ele>
        <time>2023-07-20T09:29:29Z</time>
      </trkpt>
      <trkpt lat="48.38099" lon="2.72671">
        <ele>93.2</ele>
        <time>2023-07-20T09:29:30Z</time>
      </trkpt>
      <trkpt lat="48.38099" lon="2.72672">
        <ele>93.3</ele>
        <time>2023-07-20T09:29:31Z</time>
      </trkpt>
      <trkpt lat="48.38099" lon="2.72673">
        <ele>93.3</ele>
        <time>2023-07-20T09:29:32Z</time>
      </trkpt>
      <trkpt lat="48.38099" lon="2.72674">
        <ele>93.3</ele>
        <time>2023-07-20T09:29:33Z</time>
      </trkpt>
      <trkpt lat="48.38099" lon="2.72674">
        <ele>93.3</ele>
        <time>2023-07-20T09:29:34Z</time>
      </trkpt>
      <trkpt lat="48.38098" lon="2.72674">
        <ele>93.3</ele>
        <time>2023-07-20T09:29:35Z</time>
      </trkpt>
      <trkpt lat="48.38098" lon="2.72674">
        <ele>93.3</ele>
        <time>2023-07-20T09:29:36Z</time>
      </trkpt>
      <trkpt lat="48.38097" lon="2.72674">
        <ele>93.3</ele>
        <time>2023-07-20T09:29:37Z</time>
      </trkpt>
      <trkpt lat="48.38096" lon="2.72674">
        <ele>93.2</ele>
        <time>2023-07-20T09:29:38Z</time>
      </trkpt>
      <trkpt lat="48.38095" lon="2.72674">
        <ele>93.2</ele>
        <time>2023-07-20T09:29:39Z</time>
      </trkpt>
      <trkpt lat="48.38094" lon="2.72673">
        <ele>93.2</ele>
        <time>2023-07-20T09:29:40Z</time>
      </trkpt>
      <trkpt lat="48.38093" lon="2.72672">
        <ele>93.1</ele>
        <time>2023-07-20T09:29:41Z</time>
      </trkpt>
      <trkpt lat="48.38092" lon="2.72673">
        <ele>93.1</ele>
        <time>2023-07-20T09:29:42Z</time>
      </trkpt>
      <trkpt lat="48.38091" lon="2.72674">
        <ele>93.1</ele>
        <time>2023-07-20T09:29:43Z</time>
      </trkpt>
      <trkpt lat="48.3809" lon="2.72676">
        <ele>93.1</ele>
        <time>2023-07-20T09:29:44Z</time>
      </trkpt>
      <trkpt lat="48.38089" lon="2.72678">
        <ele>93.1</ele>
        <time>2023-07-20T09:29:45Z</time>
      </trkpt>
      <trkpt lat="48.38089" lon="2.72678">
        <ele>93.1</ele>
        <time>2023-07-20T09:29:46Z</time>
      </trkpt>
      <trkpt lat="48.38089" lon="2.7268">
        <ele>93.1</ele>
        <time>2023-07-20T09:29:47Z</time>
      </trkpt>
      <trkpt lat="48.38089" lon="2.7268">
        <ele>93.1</ele>
        <time>2023-07-20T09:29:48Z</time>
      </trkpt>
      <trkpt lat="48.38089" lon="2.72679">
        <ele>93.1</ele>
        <time>2023-07-20T09:29:49Z</time>
      </trkpt>
      <trkpt lat="48.38088" lon="2.72681">
        <ele>93.1</ele>
        <time>2023-07-20T09:29:50Z</time>
      </trkpt>
      <trkpt lat="48.38088" lon="2.72682">
        <ele>93.1</ele>
        <time>2023-07-20T09:29:51Z</time>
      </trkpt>
      <trkpt lat="48.38088" lon="2.72684">
        <ele>93.1</ele>
        <time>2023-07-20T09:29:52Z</time>
      </trkpt>
      <trkpt lat="48.38088" lon="2.72686">
        <ele>93.1</ele>
        <time>2023-07-20T09:29:53Z</time>
      </trkpt>
      <trkpt lat="48.38088" lon="2.72687">
        <ele>93.1</ele>
        <time>2023-07-20T09:29:54Z</time>
      </trkpt>
      <trkpt lat="48.38089" lon="2.72689">
        <ele>93.1</ele>
        <time>2023-07-20T09:29:55Z</time>
      </trkpt>
      <trkpt lat="48.38089" lon="2.72692">
        <ele>93.1</ele>
        <time>2023-07-20T09:29:56Z</time>
      </trkpt>
      <trkpt lat="48.3809" lon="2.72693">
        <ele>93.1</ele>
        <time>2023-07-20T09:29:57Z</time>
      </trkpt>
      <trkpt lat="48.38091" lon="2.72693">
        <ele>93.1</ele>
        <time>2023-07-20T09:29:58Z</time>
      </trkpt>
      <trkpt lat="48.38092" lon="2.72695">
        <ele>93.2</ele>
        <time>2023-07-20T09:29:59Z</time>
      </trkpt>
      <trkpt lat="48.38093" lon="2.72697">
        <ele>93.2</ele>
        <time>2023-07-20T09:30:00Z</time>
      </trkpt>
      <trkpt lat="48.38094" lon="2.72698">
        <ele>93.2</ele>
        <time>2023-07-20T09:30:01Z</time>
      </trkpt>
      <trkpt lat="48.38095" lon="2.72699">
        <ele>93.2</ele>
        <time>2023-07-20T09:30:02Z</time>
      </trkpt>
      <trkpt lat="48.38096" lon="2.72702">
        <ele>93.2</ele>
        <time>2023-07-20T09:30:03Z</time>
      </trkpt>
      <trkpt lat="48.38097" lon="2.72703">
        <ele>93.2</ele>
        <time>2023-07-20T09:30:04Z</time>
      </trkpt>
      <trkpt lat="48.38097" lon="2.72704">
        <ele>93.3</ele>
        <time>2023-07-20T09:30:05Z</time>
      </trkpt>
      <trkpt lat="48.38097" lon="2.72707">
        <ele>93.3</ele>
        <time>2023-07-20T09:30:06Z</time>
      </trkpt>
      <trkpt lat="48.38097" lon="2.72708">
        <ele>93.2</ele>
        <time>2023-07-20T09:30:07Z</time>
      </trkpt>
      <trkpt lat="48.38097" lon="2.72709">
        <ele>93.3</ele>
        <time>2023-07-20T09:30:08Z</time>
      </trkpt>
      <trkpt lat="48.38098" lon="2.72712">
        <ele>93.3</ele>
        <time>2023-07-20T09:30:09Z</time>
      </trkpt>
      <trkpt lat="48.38098" lon="2.72713">
        <ele>93.3</ele>
        <time>2023-07-20T09:30:10Z</time>
      </trkpt>
      <trkpt lat="48.38098" lon="2.72715">
        <ele>93.3</ele>
        <time>2023-07-20T09:30:11Z</time>
      </trkpt>
      <trkpt lat="48.38098" lon="2.72716">
        <ele>93.3</ele>
        <time>2023-07-20T09:30:12Z</time>
      </trkpt>
      <trkpt lat="48.38098" lon="2.72717">
        <ele>93.3</ele>
        <time>2023-07-20T09:30:13Z</time>
      </trkpt>
      <trkpt lat="48.38096" lon="2.72719">
        <ele>93.2</ele>
        <time>2023-07-20T09:30:14Z</time>
      </trkpt>
      <trkpt lat="48.38096" lon="2.72721">
        <ele>93.2</ele>
        <time>2023-07-20T09:30:15Z</time>
      </trkpt>
      <trkpt lat="48.38095" lon="2.72723">
        <ele>93.2</ele>
        <time>2023-07-20T09:30:16Z</time>
      </trkpt>
      <trkpt lat="48.38095" lon="2.72724">
        <ele>93.2</ele>
        <time>2023-07-20T09:30:17Z</time>
      </trkpt>
      <trkpt lat="48.38095" lon="2.72726">
        <ele>93.2</ele>
        <time>2023-07-20T09:30:18Z</time>
      </trkpt>
      <trkpt lat="48.38094" lon="2.72727">
        <ele>93.2</ele>
        <time>2023-07-20T09:30:19Z</time>
      </trkpt>
      <trkpt lat="48.38093" lon="2.72729">
        <ele>93.2</ele>
        <time>2023-07-20T09:30:20Z</time>
      </trkpt>
      <trkpt lat="48.38093" lon="2.72731">
        <ele>93.2</ele>
        <time>2023-07-20T09:30:21Z</time>
      </trkpt>
      <trkpt lat="48.38093" lon="2.72735">
        <ele>93.2</ele>
        <time>2023-07-20T09:30:22Z</time>
      </trkpt>
      <trkpt lat="48.38093" lon="2.72737">
        <ele>93.2</ele>
        <time>2023-07-20T09:30:23Z</time>
      </trkpt>
      <trkpt lat="48.38092" lon="2.7274">
        <ele>93.2</ele>
        <time>2023-07-20T09:30:24Z</time>
      </trkpt>
      <trkpt lat="48.38092" lon="2.72741">
        <ele>93.2</ele>
        <time>2023-07-20T09:30:25Z</time>
      </trkpt>
      <trkpt lat="48.38092" lon="2.72742">
        <ele>93.2</ele>
        <time>2023-07-20T09:30:26Z</time>
      </trkpt>
      <trkpt lat="48.38092" lon="2.72743">
        <ele>93.2</ele>
        <time>2023-07-20T09:30:27Z</time>
      </trkpt>
      <trkpt lat="48.38092" lon="2.72745">
        <ele>93.2</ele>
        <time>2023-07-20T09:30:28Z</time>
      </trkpt>
      <trkpt lat="48.38093" lon="2.72746">
        <ele>93.2</ele>
        <time>2023-07-20T09:30:29Z</time>
      </trkpt>
      <trkpt lat="48.38092" lon="2.72746">
        <ele>93.2</ele>
        <time>2023-07-20T09:30:30Z</time>
      </trkpt>
      <trkpt lat="48.38092" lon="2.72747">
        <ele>93.2</ele>
        <time>2023-07-20T09:30:31Z</time>
      </trkpt>
      <trkpt lat="48.38091" lon="2.7275">
        <ele>93.2</ele>
        <time>2023-07-20T09:30:32Z</time>
      </trkpt>
      <trkpt lat="48.38091" lon="2.72751">
        <ele>93.3</ele>
        <time>2023-07-20T09:30:33Z</time>
      </trkpt>
      <trkpt lat="48.38091" lon="2.72753">
        <ele>93.3</ele>
        <time>2023-07-20T09:30:34Z</time>
      </trkpt>
      <trkpt lat="48.38091" lon="2.72754">
        <ele>93.4</ele>
        <time>2023-07-20T09:30:35Z</time>
      </trkpt>
      <trkpt lat="48.38091" lon="2.72756">
        <ele>93.4</ele>
        <time>2023-07-20T09:30:36Z</time>
      </trkpt>
      <trkpt lat="48.38091" lon="2.72757">
        <ele>93.5</ele>
        <time>2023-07-20T09:30:37Z</time>
      </trkpt>
      <trkpt lat="48.38091" lon="2.72759">
        <ele>93.5</ele>
        <time>2023-07-20T09:30:38Z</time>
      </trkpt>
      <trkpt lat="48.3809" lon="2.7276">
        <ele>93.6</ele>
        <time>2023-07-20T09:30:39Z</time>
      </trkpt>
      <trkpt lat="48.38091" lon="2.72761">
        <ele>93.6</ele>
        <time>2023-07-20T09:30:40Z</time>
      </trkpt>
      <trkpt lat="48.3809" lon="2.72761">
        <ele>93.6</ele>
        <time>2023-07-20T09:30:41Z</time>
      </trkpt>
      <trkpt lat="48.3809" lon="2.72761">
        <ele>93.6</ele>
        <time>2023-07-20T09:30:42Z</time>
      </trkpt>
      <trkpt lat="48.3809" lon="2.72761">
        <ele>93.6</ele>
        <time>2023-07-20T09:30:43Z</time>
      </trkpt>
      <trkpt lat="48.3809" lon="2.72761">
        <ele>93.6</ele>
        <time>2023-07-20T09:30:44Z</time>
      </trkpt>
      <trkpt lat="48.38089" lon="2.72762">
        <ele>93.6</ele>
        <time>2023-07-20T09:30:45Z</time>
      </trkpt>
      <trkpt lat="48.38089" lon="2.72762">
        <ele>93.7</ele>
        <time>2023-07-20T09:30:46Z</time>
      </trkpt>
      <trkpt lat="48.38089" lon="2.72763">
        <ele>93.7</ele>
        <time>2023-07-20T09:30:47Z</time>
      </trkpt>
      <trkpt lat="48.38088" lon="2.72762">
        <ele>93.7</ele>
        <time>2023-07-20T09:30:48Z</time>
      </trkpt>
      <trkpt lat="48.38087" lon="2.72761">
        <ele>93.7</ele>
        <time>2023-07-20T09:30:49Z</time>
      </trkpt>
      <trkpt lat="48.38086" lon="2.72761">
        <ele>93.8</ele>
        <time>2023-07-20T09:30:50Z</time>
      </trkpt>
      <trkpt lat="48.38086" lon="2.72761">
        <ele>93.8</ele>
        <time>2023-07-20T09:30:51Z</time>
      </trkpt>
      <trkpt lat="48.38085" lon="2.72761">
        <ele>93.8</ele>
        <time>2023-07-20T09:30:52Z</time>
      </trkpt>
      <trkpt lat="48.38084" lon="2.7276">
        <ele>93.8</ele>
        <time>2023-07-20T09:30:53Z</time>
      </trkpt>
      <trkpt lat="48.38084" lon="2.7276">
        <ele>93.8</ele>
        <time>2023-07-20T09:30:54Z</time>
      </trkpt>
      <trkpt lat="48.38082" lon="2.72761">
        <ele>93.9</ele>
        <time>2023-07-20T09:30:55Z</time>
      </trkpt>
      <trkpt lat="48.38081" lon="2.72761">
        <ele>93.9</ele>
        <time>2023-07-20T09:30:56Z</time>
      </trkpt>
      <trkpt lat="48.38081" lon="2.72762">
        <ele>93.9</ele>
        <time>2023-07-20T09:30:57Z</time>
      </trkpt>
      <trkpt lat="48.3808" lon="2.72763">
        <ele>93.9</ele>
        <time>2023-07-20T09:30:58Z</time>
      </trkpt>
      <trkpt lat="48.38079" lon="2.72763">
        <ele>94</ele>
        <time>2023-07-20T09:30:59Z</time>
      </trkpt>
      <trkpt lat="48.38078" lon="2.72765">
        <ele>94</ele>
        <time>2023-07-20T09:31:00Z</time>
      </trkpt>
      <trkpt lat="48.38078" lon="2.72766">
        <ele>94</ele>
        <time>2023-07-20T09:31:01Z</time>
      </trkpt>
      <trkpt lat="48.38077" lon="2.72766">
        <ele>94</ele>
        <time>2023-07-20T09:31:02Z</time>
      </trkpt>
      <trkpt lat="48.38076" lon="2.72767">
        <ele>94</ele>
        <time>2023-07-20T09:31:03Z</time>
      </trkpt>
      <trkpt lat="48.38075" lon="2.72767">
        <ele>94</ele>
        <time>2023-07-20T09:31:04Z</time>
      </trkpt>
      <trkpt lat="48.38074" lon="2.72768">
        <ele>94</ele>
        <time>2023-07-20T09:31:05Z</time>
      </trkpt>
      <trkpt lat="48.38073" lon="2.72768">
        <ele>94</ele>
        <time>2023-07-20T09:31:06Z</time>
      </trkpt>
      <trkpt lat="48.38073" lon="2.72769">
        <ele>94</ele>
        <time>2023-07-20T09:31:07Z</time>
      </trkpt>
      <trkpt lat="48.38072" lon="2.7277">
        <ele>94</ele>
        <time>2023-07-20T09:31:08Z</time>
      </trkpt>
      <trkpt lat="48.38072" lon="2.72771">
        <ele>94</ele>
        <time>2023-07-20T09:31:09Z</time>
      </trkpt>
      <trkpt lat="48.38072" lon="2.72772">
        <ele>94</ele>
        <time>2023-07-20T09:31:10Z</time>
      </trkpt>
      <trkpt lat="48.38071" lon="2.72773">
        <ele>94</ele>
        <time>2023-07-20T09:31:11Z</time>
      </trkpt>
      <trkpt lat="48.3807" lon="2.72773">
        <ele>94</ele>
        <time>2023-07-20T09:31:12Z</time>
      </trkpt>
      <trkpt lat="48.3807" lon="2.72774">
        <ele>94</ele>
        <time>2023-07-20T09:31:13Z</time>
      </trkpt>
      <trkpt lat="48.38069" lon="2.72775">
        <ele>93.9</ele>
        <time>2023-07-20T09:31:14Z</time>
      </trkpt>
      <trkpt lat="48.38069" lon="2.72776">
        <ele>93.9</ele>
        <time>2023-07-20T09:31:15Z</time>
      </trkpt>
      <trkpt lat="48.38068" lon="2.72776">
        <ele>93.9</ele>
        <time>2023-07-20T09:31:16Z</time>
      </trkpt>
      <trkpt lat="48.38067" lon="2.72776">
        <ele>93.9</ele>
        <time>2023-07-20T09:31:17Z</time>
      </trkpt>
      <trkpt lat="48.38065" lon="2.72775">
        <ele>93.8</ele>
        <time>2023-07-20T09:31:18Z</time>
      </trkpt>
      <trkpt lat="48.38064" lon="2.72775">
        <ele>93.8</ele>
        <time>2023-07-20T09:31:19Z</time>
      </trkpt>
      <trkpt lat="48.38061" lon="2.72773">
        <ele>93.6</ele>
        <time>2023-07-20T09:31:20Z</time>
      </trkpt>
      <trkpt lat="48.38061" lon="2.72772">
        <ele>93.6</ele>
        <time>2023-07-20T09:31:21Z</time>
      </trkpt>
      <trkpt lat="48.3806" lon="2.72772">
        <ele>93.5</ele>
        <time>2023-07-20T09:31:22Z</time>
      </trkpt>
      <trkpt lat="48.38059" lon="2.72771">
        <ele>93.5</ele>
        <time>2023-07-20T09:31:23Z</time>
      </trkpt>
      <trkpt lat="48.38058" lon="2.72771">
        <ele>93.5</ele>
        <time>2023-07-20T09:31:24Z</time>
      </trkpt>
      <trkpt lat="48.38058" lon="2.7277">
        <ele>93.4</ele>
        <time>2023-07-20T09:31:25Z</time>
      </trkpt>
      <trkpt lat="48.38057" lon="2.7277">
        <ele>93.4</ele>
        <time>2023-07-20T09:31:26Z</time>
      </trkpt>
      <trkpt lat="48.38057" lon="2.7277">
        <ele>93.4</ele>
        <time>2023-07-20T09:31:27Z</time>
      </trkpt>
      <trkpt lat="48.38056" lon="2.72769">
        <ele>93.3</ele>
        <time>2023-07-20T09:31:28Z</time>
      </trkpt>
      <trkpt lat="48.38055" lon="2.72769">
        <ele>93.2</ele>
        <time>2023-07-20T09:31:29Z</time>
      </trkpt>
      <trkpt lat="48.38053" lon="2.72767">
        <ele>93.1</ele>
        <time>2023-07-20T09:31:30Z</time>
      </trkpt>
      <trkpt lat="48.38052" lon="2.72766">
        <ele>93</ele>
        <time>2023-07-20T09:31:31Z</time>
      </trkpt>
      <trkpt lat="48.38051" lon="2.72765">
        <ele>92.9</ele>
        <time>2023-07-20T09:31:32Z</time>
      </trkpt>
      <trkpt lat="48.38051" lon="2.72765">
        <ele>92.9</ele>
        <time>2023-07-20T09:31:33Z</time>
      </trkpt>
      <trkpt lat="48.3805" lon="2.72764">
        <ele>92.8</ele>
        <time>2023-07-20T09:31:34Z</time>
      </trkpt>
      <trkpt lat="48.3805" lon="2.72763">
        <ele>92.8</ele>
        <time>2023-07-20T09:31:35Z</time>
      </trkpt>
      <trkpt lat="48.38049" lon="2.72763">
        <ele>92.7</ele>
        <time>2023-07-20T09:31:36Z</time>
      </trkpt>
      <trkpt lat="48.38049" lon="2.72762">
        <ele>92.6</ele>
        <time>2023-07-20T09:31:37Z</time>
      </trkpt>
      <trkpt lat="48.38048" lon="2.72761">
        <ele>92.6</ele>
        <time>2023-07-20T09:31:38Z</time>
      </trkpt>
      <trkpt lat="48.38047" lon="2.7276">
        <ele>92.5</ele>
        <time>2023-07-20T09:31:39Z</time>
      </trkpt>
      <trkpt lat="48.38047" lon="2.7276">
        <ele>92.5</ele>
        <time>2023-07-20T09:31:40Z</time>
      </trkpt>
      <trkpt lat="48.38047" lon="2.7276">
        <ele>92.5</ele>
        <time>2023-07-20T09:31:41Z</time>
      </trkpt>
      <trkpt lat="48.38046" lon="2.72759">
        <ele>92.4</ele>
        <time>2023-07-20T09:31:42Z</time>
      </trkpt>
      <trkpt lat="48.38046" lon="2.72758">
        <ele>92.3</ele>
        <time>2023-07-20T09:31:43Z</time>
      </trkpt>
      <trkpt lat="48.38046" lon="2.72757">
        <ele>92.3</ele>
        <time>2023-07-20T09:31:44Z</time>
      </trkpt>
      <trkpt lat="48.38046" lon="2.72758">
        <ele>92.3</ele>
        <time>2023-07-20T09:31:45Z</time>
      </trkpt>
      <trkpt lat="48.38046" lon="2.72757">
        <ele>92.3</ele>
        <time>2023-07-20T09:31:46Z</time>
      </trkpt>
      <trkpt lat="48.38045" lon="2.72756">
        <ele>92.2</ele>
        <time>2023-07-20T09:31:47Z</time>
      </trkpt>
      <trkpt lat="48.38044" lon="2.72756">
        <ele>92.1</ele>
        <time>2023-07-20T09:31:48Z</time>
      </trkpt>
      <trkpt lat="48.38043" lon="2.72756">
        <ele>92.1</ele>
        <time>2023-07-20T09:31:49Z</time>
      </trkpt>
      <trkpt lat="48.38043" lon="2.72756">
        <ele>92</ele>
        <time>2023-07-20T09:31:50Z</time>
      </trkpt>
      <trkpt lat="48.38042" lon="2.72755">
        <ele>91.9</ele>
        <time>2023-07-20T09:31:51Z</time>
      </trkpt>
      <trkpt lat="48.38041" lon="2.72755">
        <ele>91.8</ele>
        <time>2023-07-20T09:31:52Z</time>
      </trkpt>
      <trkpt lat="48.3804" lon="2.72755">
        <ele>91.8</ele>
        <time>2023-07-20T09:31:53Z</time>
      </trkpt>
      <trkpt lat="48.38039" lon="2.72755">
        <ele>91.7</ele>
        <time>2023-07-20T09:31:54Z</time>
      </trkpt>
      <trkpt lat="48.38038" lon="2.72755">
        <ele>91.6</ele>
        <time>2023-07-20T09:31:55Z</time>
      </trkpt>
      <trkpt lat="48.38036" lon="2.72755">
        <ele>91.5</ele>
        <time>2023-07-20T09:31:56Z</time>
      </trkpt>
      <trkpt lat="48.38035" lon="2.72755">
        <ele>91.3</ele>
        <time>2023-07-20T09:31:57Z</time>
      </trkpt>
      <trkpt lat="48.38034" lon="2.72756">
        <ele>91.3</ele>
        <time>2023-07-20T09:31:58Z</time>
      </trkpt>
      <trkpt lat="48.38033" lon="2.72756">
        <ele>91.2</ele>
        <time>2023-07-20T09:31:59Z</time>
      </trkpt>
      <trkpt lat="48.38032" lon="2.72757">
        <ele>91.1</ele>
        <time>2023-07-20T09:32:00Z</time>
      </trkpt>
      <trkpt lat="48.3803" lon="2.72758">
        <ele>91</ele>
        <time>2023-07-20T09:32:01Z</time>
      </trkpt>
      <trkpt lat="48.38029" lon="2.7276">
        <ele>90.9</ele>
        <time>2023-07-20T09:32:02Z</time>
      </trkpt>
      <trkpt lat="48.38028" lon="2.72761">
        <ele>90.8</ele>
        <time>2023-07-20T09:32:03Z</time>
      </trkpt>
      <trkpt lat="48.38027" lon="2.72761">
        <ele>90.7</ele>
        <time>2023-07-20T09:32:04Z</time>
      </trkpt>
      <trkpt lat="48.38027" lon="2.72762">
        <ele>90.6</ele>
        <time>2023-07-20T09:32:05Z</time>
      </trkpt>
      <trkpt lat="48.38026" lon="2.72762">
        <ele>90.6</ele>
        <time>2023-07-20T09:32:06Z</time>
      </trkpt>
      <trkpt lat="48.38025" lon="2.72762">
        <ele>90.5</ele>
        <time>2023-07-20T09:32:07Z</time>
      </trkpt>
      <trkpt lat="48.38024" lon="2.72763">
        <ele>90.4</ele>
        <time>2023-07-20T09:32:08Z</time>
      </trkpt>
      <trkpt lat="48.38023" lon="2.72763">
        <ele>90.4</ele>
        <time>2023-07-20T09:32:09Z</time>
      </trkpt>
      <trkpt lat="48.38022" lon="2.72764">
        <ele>90.3</ele>
        <time>2023-07-20T09:32:10Z</time>
      </trkpt>
      <trkpt lat="48.38021" lon="2.72764">
        <ele>90.2</ele>
        <time>2023-07-20T09:32:11Z</time>
      </trkpt>
      <trkpt lat="48.38021" lon="2.72765">
        <ele>90.2</ele>
        <time>2023-07-20T09:32:12Z</time>
      </trkpt>
      <trkpt lat="48.3802" lon="2.72765">
        <ele>90.1</ele>
        <time>2023-07-20T09:32:13Z</time>
      </trkpt>
      <trkpt lat="48.38018" lon="2.72765">
        <ele>90</ele>
        <time>2023-07-20T09:32:14Z</time>
      </trkpt>
      <trkpt lat="48.38016" lon="2.72764">
        <ele>89.9</ele>
        <time>2023-07-20T09:32:15Z</time>
      </trkpt>
      <trkpt lat="48.38015" lon="2.72764">
        <ele>89.9</ele>
        <time>2023-07-20T09:32:16Z</time>
      </trkpt>
      <trkpt lat="48.38015" lon="2.72764">
        <ele>89.8</ele>
        <time>2023-07-20T09:32:17Z</time>
      </trkpt>
      <trkpt lat="48.38014" lon="2.72764">
        <ele>89.8</ele>
        <time>2023-07-20T09:32:18Z</time>
      </trkpt>
      <trkpt lat="48.38014" lon="2.72765">
        <ele>89.8</ele>
        <time>2023-07-20T09:32:19Z</time>
      </trkpt>
      <trkpt lat="48.38014" lon="2.72765">
        <ele>89.8</ele>
        <time>2023-07-20T09:32:20Z</time>
      </trkpt>
      <trkpt lat="48.38013" lon="2.72765">
        <ele>89.7</ele>
        <time>2023-07-20T09:32:21Z</time>
      </trkpt>
      <trkpt lat="48.38013" lon="2.72766">
        <ele>89.7</ele>
        <time>2023-07-20T09:32:22Z</time>
      </trkpt>
      <trkpt lat="48.38012" lon="2.72767">
        <ele>89.7</ele>
        <time>2023-07-20T09:32:23Z</time>
      </trkpt>
      <trkpt lat="48.38011" lon="2.72768">
        <ele>89.6</ele>
        <time>2023-07-20T09:32:24Z</time>
      </trkpt>
      <trkpt lat="48.3801" lon="2.72768">
        <ele>89.6</ele>
        <time>2023-07-20T09:32:25Z</time>
      </trkpt>
      <trkpt lat="48.38009" lon="2.72768">
        <ele>89.5</ele>
        <time>2023-07-20T09:32:26Z</time>
      </trkpt>
      <trkpt lat="48.38007" lon="2.72769">
        <ele>89.4</ele>
        <time>2023-07-20T09:32:27Z</time>
      </trkpt>
      <trkpt lat="48.38006" lon="2.72771">
        <ele>89.3</ele>
        <time>2023-07-20T09:32:28Z</time>
      </trkpt>
      <trkpt lat="48.38005" lon="2.72771">
        <ele>89.3</ele>
        <time>2023-07-20T09:32:29Z</time>
      </trkpt>
      <trkpt lat="48.38004" lon="2.72772">
        <ele>89.2</ele>
        <time>2023-07-20T09:32:30Z</time>
      </trkpt>
      <trkpt lat="48.38003" lon="2.72772">
        <ele>89.2</ele>
        <time>2023-07-20T09:32:31Z</time>
      </trkpt>
      <trkpt lat="48.38002" lon="2.72774">
        <ele>89.1</ele>
        <time>2023-07-20T09:32:32Z</time>
      </trkpt>
      <trkpt lat="48.38002" lon="2.72775">
        <ele>89.1</ele>
        <time>2023-07-20T09:32:33Z</time>
      </trkpt>
      <trkpt lat="48.38001" lon="2.72774">
        <ele>89.1</ele>
        <time>2023-07-20T09:32:34Z</time>
      </trkpt>
      <trkpt lat="48.38" lon="2.72775">
        <ele>89.1</ele>
        <time>2023-07-20T09:32:35Z</time>
      </trkpt>
      <trkpt lat="48.37999" lon="2.72776">
        <ele>89.1</ele>
        <time>2023-07-20T09:32:36Z</time>
      </trkpt>
      <trkpt lat="48.37997" lon="2.72778">
        <ele>89</ele>
        <time>2023-07-20T09:32:37Z</time>
      </trkpt>
      <trkpt lat="48.37996" lon="2.72779">
        <ele>89</ele>
        <time>2023-07-20T09:32:38Z</time>
      </trkpt>
      <trkpt lat="48.37996" lon="2.7278">
        <ele>89</ele>
        <time>2023-07-20T09:32:39Z</time>
      </trkpt>
      <trkpt lat="48.37996" lon="2.7278">
        <ele>89</ele>
        <time>2023-07-20T09:32:40Z</time>
      </trkpt>
      <trkpt lat="48.37996" lon="2.72781">
        <ele>89</ele>
        <time>2023-07-20T09:32:41Z</time>
      </trkpt>
      <trkpt lat="48.37996" lon="2.72781">
        <ele>89</ele>
        <time>2023-07-20T09:32:42Z</time>
      </trkpt>
      <trkpt lat="48.37996" lon="2.72781">
        <ele>89</ele>
        <time>2023-07-20T09:32:43Z</time>
      </trkpt>
      <trkpt lat="48.37996" lon="2.72781">
        <ele>89</ele>
        <time>2023-07-20T09:32:44Z</time>
      </trkpt>
      <trkpt lat="48.37996" lon="2.72781">
        <ele>89</ele>
        <time>2023-07-20T09:32:45Z</time>
      </trkpt>
      <trkpt lat="48.37996" lon="2.72781">
        <ele>89</ele>
        <time>2023-07-20T09:32:46Z</time>
      </trkpt>
      <trkpt lat="48.37996" lon="2.72782">
        <ele>89</ele>
        <time>2023-07-20T09:32:47Z</time>
      </trkpt>
      <trkpt lat="48.37996" lon="2.72782">
        <ele>89</ele>
        <time>2023-07-20T09:32:48Z</time>
      </trkpt>
      <trkpt lat="48.37995" lon="2.72782">
        <ele>89</ele>
        <time>2023-07-20T09:32:49Z</time>
      </trkpt>
      <trkpt lat="48.37994" lon="2.72782">
        <ele>89</ele>
        <time>2023-07-20T09:32:50Z</time>
      </trkpt>
      <trkpt lat="48.37994" lon="2.72782">
        <ele>89</ele>
        <time>2023-07-20T09:32:51Z</time>
      </trkpt>
      <trkpt lat="48.37993" lon="2.72783">
        <ele>89</ele>
        <time>2023-07-20T09:32:52Z</time>
      </trkpt>
      <trkpt lat="48.37993" lon="2.72784">
        <ele>89</ele>
        <time>2023-07-20T09:32:53Z</time>
      </trkpt>
      <trkpt lat="48.37992" lon="2.72786">
        <ele>89</ele>
        <time>2023-07-20T09:32:54Z</time>
      </trkpt>
      <trkpt lat="48.37991" lon="2.72788">
        <ele>88.9</ele>
        <time>2023-07-20T09:32:55Z</time>
      </trkpt>
      <trkpt lat="48.37991" lon="2.7279">
        <ele>88.9</ele>
        <time>2023-07-20T09:32:56Z</time>
      </trkpt>
      <trkpt lat="48.37991" lon="2.72791">
        <ele>88.9</ele>
        <time>2023-07-20T09:32:57Z</time>
      </trkpt>
      <trkpt lat="48.37991" lon="2.72792">
        <ele>88.9</ele>
        <time>2023-07-20T09:32:58Z</time>
      </trkpt>
      <trkpt lat="48.37992" lon="2.72793">
        <ele>88.9</ele>
        <time>2023-07-20T09:32:59Z</time>
      </trkpt>
      <trkpt lat="48.37992" lon="2.72794">
        <ele>88.9</ele>
        <time>2023-07-20T09:33:00Z</time>
      </trkpt>
      <trkpt lat="48.37992" lon="2.72795">
        <ele>88.9</ele>
        <time>2023-07-20T09:33:01Z</time>
      </trkpt>
      <trkpt lat="48.37992" lon="2.72799">
        <ele>88.8</ele>
        <time>2023-07-20T09:33:02Z</time>
      </trkpt>
      <trkpt lat="48.37992" lon="2.728">
        <ele>88.8</ele>
        <time>2023-07-20T09:33:03Z</time>
      </trkpt>
      <trkpt lat="48.37992" lon="2.72802">
        <ele>88.8</ele>
        <time>2023-07-20T09:33:04Z</time>
      </trkpt>
      <trkpt lat="48.37991" lon="2.72804">
        <ele>88.8</ele>
        <time>2023-07-20T09:33:05Z</time>
      </trkpt>
      <trkpt lat="48.37991" lon="2.72804">
        <ele>88.8</ele>
        <time>2023-07-20T09:33:06Z</time>
      </trkpt>
      <trkpt lat="48.37991" lon="2.72804">
        <ele>88.8</ele>
        <time>2023-07-20T09:33:07Z</time>
      </trkpt>
      <trkpt lat="48.37991" lon="2.72806">
        <ele>88.8</ele>
        <time>2023-07-20T09:33:08Z</time>
      </trkpt>
      <trkpt lat="48.37991" lon="2.72806">
        <ele>88.8</ele>
        <time>2023-07-20T09:33:09Z</time>
      </trkpt>
      <trkpt lat="48.37991" lon="2.72806">
        <ele>88.8</ele>
        <time>2023-07-20T09:33:10Z</time>
      </trkpt>
      <trkpt lat="48.37991" lon="2.72806">
        <ele>88.8</ele>
        <time>2023-07-20T09:33:11Z</time>
      </trkpt>
      <trkpt lat="48.3799" lon="2.72807">
        <ele>88.8</ele>
        <time>2023-07-20T09:33:12Z</time>
      </trkpt>
      <trkpt lat="48.3799" lon="2.72807">
        <ele>88.7</ele>
        <time>2023-07-20T09:33:13Z</time>
      </trkpt>
      <trkpt lat="48.37989" lon="2.72808">
        <ele>88.7</ele>
        <time>2023-07-20T09:33:14Z</time>
      </trkpt>
      <trkpt lat="48.3799" lon="2.72809">
        <ele>88.7</ele>
        <time>2023-07-20T09:33:15Z</time>
      </trkpt>
      <trkpt lat="48.37989" lon="2.72812">
        <ele>88.7</ele>
        <time>2023-07-20T09:33:16Z</time>
      </trkpt>
      <trkpt lat="48.37989" lon="2.72813">
        <ele>88.7</ele>
        <time>2023-07-20T09:33:17Z</time>
      </trkpt>
      <trkpt lat="48.37989" lon="2.72814">
        <ele>88.7</ele>
        <time>2023-07-20T09:33:18Z</time>
      </trkpt>
      <trkpt lat="48.37988" lon="2.72814">
        <ele>88.7</ele>
        <time>2023-07-20T09:33:19Z</time>
      </trkpt>
      <trkpt lat="48.37988" lon="2.72814">
        <ele>88.6</ele>
        <time>2023-07-20T09:33:20Z</time>
      </trkpt>
      <trkpt lat="48.37988" lon="2.72815">
        <ele>88.6</ele>
        <time>2023-07-20T09:33:21Z</time>
      </trkpt>
      <trkpt lat="48.37989" lon="2.72816">
        <ele>88.6</ele>
        <time>2023-07-20T09:33:22Z</time>
      </trkpt>
      <trkpt lat="48.37989" lon="2.72816">
        <ele>88.6</ele>
        <time>2023-07-20T09:33:23Z</time>
      </trkpt>
      <trkpt lat="48.37988" lon="2.72816">
        <ele>88.6</ele>
        <time>2023-07-20T09:33:24Z</time>
      </trkpt>
      <trkpt lat="48.37987" lon="2.72816">
        <ele>88.6</ele>
        <time>2023-07-20T09:33:25Z</time>
      </trkpt>
      <trkpt lat="48.37987" lon="2.72817">
        <ele>88.6</ele>
        <time>2023-07-20T09:33:26Z</time>
      </trkpt>
      <trkpt lat="48.37988" lon="2.72817">
        <ele>88.6</ele>
        <time>2023-07-20T09:33:27Z</time>
      </trkpt>
      <trkpt lat="48.37988" lon="2.72818">
        <ele>88.6</ele>
        <time>2023-07-20T09:33:28Z</time>
      </trkpt>
      <trkpt lat="48.37987" lon="2.72818">
        <ele>88.6</ele>
        <time>2023-07-20T09:33:29Z</time>
      </trkpt>
      <trkpt lat="48.37987" lon="2.72819">
        <ele>88.6</ele>
        <time>2023-07-20T09:33:30Z</time>
      </trkpt>
      <trkpt lat="48.37987" lon="2.7282">
        <ele>88.5</ele>
        <time>2023-07-20T09:33:31Z</time>
      </trkpt>
      <trkpt lat="48.37987" lon="2.7282">
        <ele>88.5</ele>
        <time>2023-07-20T09:33:32Z</time>
      </trkpt>
      <trkpt lat="48.37987" lon="2.72821">
        <ele>88.5</ele>
        <time>2023-07-20T09:33:33Z</time>
      </trkpt>
      <trkpt lat="48.37986" lon="2.72823">
        <ele>88.5</ele>
        <time>2023-07-20T09:33:34Z</time>
      </trkpt>
      <trkpt lat="48.37986" lon="2.72824">
        <ele>88.5</ele>
        <time>2023-07-20T09:33:35Z</time>
      </trkpt>
      <trkpt lat="48.37985" lon="2.72826">
        <ele>88.5</ele>
        <time>2023-07-20T09:33:36Z</time>
      </trkpt>
      <trkpt lat="48.37985" lon="2.72828">
        <ele>88.5</ele>
        <time>2023-07-20T09:33:37Z</time>
      </trkpt>
      <trkpt lat="48.37985" lon="2.72831">
        <ele>88.4</ele>
        <time>2023-07-20T09:33:38Z</time>
      </trkpt>
      <trkpt lat="48.37985" lon="2.72832">
        <ele>88.4</ele>
        <time>2023-07-20T09:33:39Z</time>
      </trkpt>
      <trkpt lat="48.37985" lon="2.72833">
        <ele>88.4</ele>
        <time>2023-07-20T09:33:40Z</time>
      </trkpt>
      <trkpt lat="48.37985" lon="2.72833">
        <ele>88.4</ele>
        <time>2023-07-20T09:33:41Z</time>
      </trkpt>
      <trkpt lat="48.37985" lon="2.72836">
        <ele>88.4</ele>
        <time>2023-07-20T09:33:42Z</time>
      </trkpt>
      <trkpt lat="48.37985" lon="2.72837">
        <ele>88.4</ele>
        <time>2023-07-20T09:33:43Z</time>
      </trkpt>
      <trkpt lat="48.37985" lon="2.72838">
        <ele>88.4</ele>
        <time>2023-07-20T09:33:44Z</time>
      </trkpt>
      <trkpt lat="48.37986" lon="2.72839">
        <ele>88.4</ele>
        <time>2023-07-20T09:33:45Z</time>
      </trkpt>
      <trkpt lat="48.37986" lon="2.72839">
        <ele>88.4</ele>
        <time>2023-07-20T09:33:46Z</time>
      </trkpt>
      <trkpt lat="48.37986" lon="2.72841">
        <ele>88.3</ele>
        <time>2023-07-20T09:33:47Z</time>
      </trkpt>
      <trkpt lat="48.37987" lon="2.72842">
        <ele>88.3</ele>
        <time>2023-07-20T09:33:48Z</time>
      </trkpt>
      <trkpt lat="48.37987" lon="2.72843">
        <ele>88.3</ele>
        <time>2023-07-20T09:33:49Z</time>
      </trkpt>
      <trkpt lat="48.37987" lon="2.72845">
        <ele>88.3</ele>
        <time>2023-07-20T09:33:50Z</time>
      </trkpt>
      <trkpt lat="48.37987" lon="2.72846">
        <ele>88.3</ele>
        <time>2023-07-20T09:33:51Z</time>
      </trkpt>
      <trkpt lat="48.37988" lon="2.72848">
        <ele>88.3</ele>
        <time>2023-07-20T09:33:52Z</time>
      </trkpt>
      <trkpt lat="48.37988" lon="2.72851">
        <ele>88.3</ele>
        <time>2023-07-20T09:33:53Z</time>
      </trkpt>
      <trkpt lat="48.37988" lon="2.72853">
        <ele>88.3</ele>
        <time>2023-07-20T09:33:54Z</time>
      </trkpt>
      <trkpt lat="48.37988" lon="2.72854">
        <ele>88.3</ele>
        <time>2023-07-20T09:33:55Z</time>
      </trkpt>
      <trkpt lat="48.37988" lon="2.72857">
        <ele>88.3</ele>
        <time>2023-07-20T09:33:56Z</time>
      </trkpt>
      <trkpt lat="48.37988" lon="2.72858">
        <ele>88.3</ele>
        <time>2023-07-20T09:33:57Z</time>
      </trkpt>
      <trkpt lat="48.37988" lon="2.72861">
        <ele>88.3</ele>
        <time>2023-07-20T09:33:58Z</time>
      </trkpt>
      <trkpt lat="48.37988" lon="2.72862">
        <ele>88.3</ele>
        <time>2023-07-20T09:33:59Z</time>
      </trkpt>
      <trkpt lat="48.37988" lon="2.72863">
        <ele>88.3</ele>
        <time>2023-07-20T09:34:00Z</time>
      </trkpt>
      <trkpt lat="48.37987" lon="2.72864">
        <ele>88.3</ele>
        <time>2023-07-20T09:34:01Z</time>
      </trkpt>
      <trkpt lat="48.37988" lon="2.72866">
        <ele>88.3</ele>
        <time>2023-07-20T09:34:02Z</time>
      </trkpt>
      <trkpt lat="48.37988" lon="2.72869">
        <ele>88.3</ele>
        <time>2023-07-20T09:34:03Z</time>
      </trkpt>
      <trkpt lat="48.37987" lon="2.7287">
        <ele>88.2</ele>
        <time>2023-07-20T09:34:04Z</time>
      </trkpt>
      <trkpt lat="48.37987" lon="2.72871">
        <ele>88.2</ele>
        <time>2023-07-20T09:34:05Z</time>
      </trkpt>
      <trkpt lat="48.37986" lon="2.72872">
        <ele>88.2</ele>
        <time>2023-07-20T09:34:06Z</time>
      </trkpt>
      <trkpt lat="48.37986" lon="2.72873">
        <ele>88.2</ele>
        <time>2023-07-20T09:34:07Z</time>
      </trkpt>
      <trkpt lat="48.37986" lon="2.72875">
        <ele>88.2</ele>
        <time>2023-07-20T09:34:08Z</time>
      </trkpt>
      <trkpt lat="48.37986" lon="2.72876">
        <ele>88.2</ele>
        <time>2023-07-20T09:34:09Z</time>
      </trkpt>
      <trkpt lat="48.37986" lon="2.72878">
        <ele>88.2</ele>
        <time>2023-07-20T09:34:10Z</time>
      </trkpt>
      <trkpt lat="48.37986" lon="2.7288">
        <ele>88.2</ele>
        <time>2023-07-20T09:34:11Z</time>
      </trkpt>
      <trkpt lat="48.37986" lon="2.72882">
        <ele>88.2</ele>
        <time>2023-07-20T09:34:12Z</time>
      </trkpt>
      <trkpt lat="48.37986" lon="2.72884">
        <ele>88.2</ele>
        <time>2023-07-20T09:34:13Z</time>
      </trkpt>
      <trkpt lat="48.37985" lon="2.72885">
        <ele>88.2</ele>
        <time>2023-07-20T09:34:14Z</time>
      </trkpt>
      <trkpt lat="48.37986" lon="2.72886">
        <ele>88.2</ele>
        <time>2023-07-20T09:34:15Z</time>
      </trkpt>
      <trkpt lat="48.37985" lon="2.72887">
        <ele>88.2</ele>
        <time>2023-07-20T09:34:16Z</time>
      </trkpt>
      <trkpt lat="48.37985" lon="2.72889">
        <ele>88.2</ele>
        <time>2023-07-20T09:34:17Z</time>
      </trkpt>
      <trkpt lat="48.37986" lon="2.72891">
        <ele>88.2</ele>
        <time>2023-07-20T09:34:18Z</time>
      </trkpt>
      <trkpt lat="48.37986" lon="2.72892">
        <ele>88.2</ele>
        <time>2023-07-20T09:34:19Z</time>
      </trkpt>
      <trkpt lat="48.37985" lon="2.72894">
        <ele>88.1</ele>
        <time>2023-07-20T09:34:20Z</time>
      </trkpt>
      <trkpt lat="48.37985" lon="2.72895">
        <ele>88.1</ele>
        <time>2023-07-20T09:34:21Z</time>
      </trkpt>
      <trkpt lat="48.37985" lon="2.72896">
        <ele>88.1</ele>
        <time>2023-07-20T09:34:22Z</time>
      </trkpt>
      <trkpt lat="48.37984" lon="2.72898">
        <ele>88.1</ele>
        <time>2023-07-20T09:34:23Z</time>
      </trkpt>
      <trkpt lat="48.37984" lon="2.72899">
        <ele>88.1</ele>
        <time>2023-07-20T09:34:24Z</time>
      </trkpt>
      <trkpt lat="48.37985" lon="2.72899">
        <ele>88.1</ele>
        <time>2023-07-20T09:34:25Z</time>
      </trkpt>
      <trkpt lat="48.37984" lon="2.72901">
        <ele>88</ele>
        <time>2023-07-20T09:34:26Z</time>
      </trkpt>
      <trkpt lat="48.37984" lon="2.72902">
        <ele>88</ele>
        <time>2023-07-20T09:34:27Z</time>
      </trkpt>
      <trkpt lat="48.37984" lon="2.72904">
        <ele>88</ele>
        <time>2023-07-20T09:34:28Z</time>
      </trkpt>
      <trkpt lat="48.37984" lon="2.72906">
        <ele>88</ele>
        <time>2023-07-20T09:34:29Z</time>
      </trkpt>
      <trkpt lat="48.37984" lon="2.72907">
        <ele>88</ele>
        <time>2023-07-20T09:34:30Z</time>
      </trkpt>
      <trkpt lat="48.37984" lon="2.72908">
        <ele>88</ele>
        <time>2023-07-20T09:34:31Z</time>
      </trkpt>
      <trkpt lat="48.37985" lon="2.72909">
        <ele>88</ele>
        <time>2023-07-20T09:34:32Z</time>
      </trkpt>
      <trkpt lat="48.37985" lon="2.72911">
        <ele>87.9</ele>
        <time>2023-07-20T09:34:33Z</time>
      </trkpt>
      <trkpt lat="48.37984" lon="2.72913">
        <ele>87.9</ele>
        <time>2023-07-20T09:34:34Z</time>
      </trkpt>
      <trkpt lat="48.37983" lon="2.72915">
        <ele>87.9</ele>
        <time>2023-07-20T09:34:35Z</time>
      </trkpt>
      <trkpt lat="48.37983" lon="2.72916">
        <ele>87.9</ele>
        <time>2023-07-20T09:34:36Z</time>
      </trkpt>
      <trkpt lat="48.37982" lon="2.72917">
        <ele>87.9</ele>
        <time>2023-07-20T09:34:37Z</time>
      </trkpt>
      <trkpt lat="48.37982" lon="2.72919">
        <ele>87.8</ele>
        <time>2023-07-20T09:34:38Z</time>
      </trkpt>
      <trkpt lat="48.37982" lon="2.7292">
        <ele>87.8</ele>
        <time>2023-07-20T09:34:39Z</time>
      </trkpt>
      <trkpt lat="48.37982" lon="2.72921">
        <ele>87.8</ele>
        <time>2023-07-20T09:34:40Z</time>
      </trkpt>
      <trkpt lat="48.37981" lon="2.72923">
        <ele>87.8</ele>
        <time>2023-07-20T09:34:41Z</time>
      </trkpt>
      <trkpt lat="48.3798" lon="2.72925">
        <ele>87.8</ele>
        <time>2023-07-20T09:34:42Z</time>
      </trkpt>
      <trkpt lat="48.3798" lon="2.72927">
        <ele>87.7</ele>
        <time>2023-07-20T09:34:43Z</time>
      </trkpt>
      <trkpt lat="48.37979" lon="2.72929">
        <ele>87.7</ele>
        <time>2023-07-20T09:34:44Z</time>
      </trkpt>
      <trkpt lat="48.37979" lon="2.7293">
        <ele>87.7</ele>
        <time>2023-07-20T09:34:45Z</time>
      </trkpt>
      <trkpt lat="48.37979" lon="2.72934">
        <ele>87.7</ele>
        <time>2023-07-20T09:34:46Z</time>
      </trkpt>
      <trkpt lat="48.3798" lon="2.72935">
        <ele>87.7</ele>
        <time>2023-07-20T09:34:47Z</time>
      </trkpt>
      <trkpt lat="48.3798" lon="2.72937">
        <ele>87.7</ele>
        <time>2023-07-20T09:34:48Z</time>
      </trkpt>
      <trkpt lat="48.3798" lon="2.72939">
        <ele>87.6</ele>
        <time>2023-07-20T09:34:49Z</time>
      </trkpt>
      <trkpt lat="48.3798" lon="2.72941">
        <ele>87.6</ele>
        <time>2023-07-20T09:34:50Z</time>
      </trkpt>
      <trkpt lat="48.3798" lon="2.72942">
        <ele>87.6</ele>
        <time>2023-07-20T09:34:51Z</time>
      </trkpt>
      <trkpt lat="48.37979" lon="2.72944">
        <ele>87.6</ele>
        <time>2023-07-20T09:34:52Z</time>
      </trkpt>
      <trkpt lat="48.3798" lon="2.72945">
        <ele>87.6</ele>
        <time>2023-07-20T09:34:53Z</time>
      </trkpt>
      <trkpt lat="48.3798" lon="2.72948">
        <ele>87.5</ele>
        <time>2023-07-20T09:34:54Z</time>
      </trkpt>
      <trkpt lat="48.3798" lon="2.7295">
        <ele>87.5</ele>
        <time>2023-07-20T09:34:55Z</time>
      </trkpt>
      <trkpt lat="48.3798" lon="2.72951">
        <ele>87.5</ele>
        <time>2023-07-20T09:34:56Z</time>
      </trkpt>
      <trkpt lat="48.3798" lon="2.72952">
        <ele>87.5</ele>
        <time>2023-07-20T09:34:57Z</time>
      </trkpt>
      <trkpt lat="48.37979" lon="2.72953">
        <ele>87.5</ele>
        <time>2023-07-20T09:34:58Z</time>
      </trkpt>
      <trkpt lat="48.37979" lon="2.72954">
        <ele>87.5</ele>
        <time>2023-07-20T09:34:59Z</time>
      </trkpt>
      <trkpt lat="48.37979" lon="2.72956">
        <ele>87.4</ele>
        <time>2023-07-20T09:35:00Z</time>
      </trkpt>
      <trkpt lat="48.37979" lon="2.72958">
        <ele>87.4</ele>
        <time>2023-07-20T09:35:01Z</time>
      </trkpt>
      <trkpt lat="48.37978" lon="2.7296">
        <ele>87.4</ele>
        <time>2023-07-20T09:35:02Z</time>
      </trkpt>
      <trkpt lat="48.37979" lon="2.7296">
        <ele>87.4</ele>
        <time>2023-07-20T09:35:04Z</time>
      </trkpt>
      <trkpt lat="48.37979" lon="2.72962">
        <ele>87.4</ele>
        <time>2023-07-20T09:35:05Z</time>
      </trkpt>
      <trkpt lat="48.37978" lon="2.72963">
        <ele>87.3</ele>
        <time>2023-07-20T09:35:06Z</time>
      </trkpt>
      <trkpt lat="48.37978" lon="2.72965">
        <ele>87.3</ele>
        <time>2023-07-20T09:35:07Z</time>
      </trkpt>
      <trkpt lat="48.37978" lon="2.72967">
        <ele>87.3</ele>
        <time>2023-07-20T09:35:08Z</time>
      </trkpt>
      <trkpt lat="48.37979" lon="2.72968">
        <ele>87.3</ele>
        <time>2023-07-20T09:35:09Z</time>
      </trkpt>
      <trkpt lat="48.37979" lon="2.72969">
        <ele>87.2</ele>
        <time>2023-07-20T09:35:10Z</time>
      </trkpt>
      <trkpt lat="48.37979" lon="2.7297">
        <ele>87.2</ele>
        <time>2023-07-20T09:35:11Z</time>
      </trkpt>
      <trkpt lat="48.37979" lon="2.72973">
        <ele>87.2</ele>
        <time>2023-07-20T09:35:12Z</time>
      </trkpt>
      <trkpt lat="48.37978" lon="2.72974">
        <ele>87.2</ele>
        <time>2023-07-20T09:35:13Z</time>
      </trkpt>
      <trkpt lat="48.37978" lon="2.72975">
        <ele>87.2</ele>
        <time>2023-07-20T09:35:14Z</time>
      </trkpt>
      <trkpt lat="48.37976" lon="2.72978">
        <ele>87.1</ele>
        <time>2023-07-20T09:35:15Z</time>
      </trkpt>
      <trkpt lat="48.37976" lon="2.72979">
        <ele>87.1</ele>
        <time>2023-07-20T09:35:16Z</time>
      </trkpt>
      <trkpt lat="48.37975" lon="2.72981">
        <ele>87</ele>
        <time>2023-07-20T09:35:17Z</time>
      </trkpt>
      <trkpt lat="48.37975" lon="2.72984">
        <ele>87</ele>
        <time>2023-07-20T09:35:18Z</time>
      </trkpt>
      <trkpt lat="48.37975" lon="2.72985">
        <ele>87</ele>
        <time>2023-07-20T09:35:19Z</time>
      </trkpt>
      <trkpt lat="48.37975" lon="2.72986">
        <ele>87</ele>
        <time>2023-07-20T09:35:20Z</time>
      </trkpt>
      <trkpt lat="48.37976" lon="2.72987">
        <ele>86.9</ele>
        <time>2023-07-20T09:35:21Z</time>
      </trkpt>
      <trkpt lat="48.37976" lon="2.72988">
        <ele>86.9</ele>
        <time>2023-07-20T09:35:22Z</time>
      </trkpt>
      <trkpt lat="48.37976" lon="2.7299">
        <ele>86.9</ele>
        <time>2023-07-20T09:35:23Z</time>
      </trkpt>
      <trkpt lat="48.37976" lon="2.72992">
        <ele>86.8</ele>
        <time>2023-07-20T09:35:24Z</time>
      </trkpt>
      <trkpt lat="48.37975" lon="2.72994">
        <ele>86.8</ele>
        <time>2023-07-20T09:35:25Z</time>
      </trkpt>
      <trkpt lat="48.37974" lon="2.72996">
        <ele>86.8</ele>
        <time>2023-07-20T09:35:26Z</time>
      </trkpt>
      <trkpt lat="48.37974" lon="2.72997">
        <ele>86.8</ele>
        <time>2023-07-20T09:35:27Z</time>
      </trkpt>
      <trkpt lat="48.37973" lon="2.72999">
        <ele>86.7</ele>
        <time>2023-07-20T09:35:28Z</time>
      </trkpt>
      <trkpt lat="48.37973" lon="2.73001">
        <ele>86.7</ele>
        <time>2023-07-20T09:35:29Z</time>
      </trkpt>
      <trkpt lat="48.37973" lon="2.73002">
        <ele>86.7</ele>
        <time>2023-07-20T09:35:30Z</time>
      </trkpt>
      <trkpt lat="48.37973" lon="2.73003">
        <ele>86.7</ele>
        <time>2023-07-20T09:35:31Z</time>
      </trkpt>
      <trkpt lat="48.37972" lon="2.73005">
        <ele>86.6</ele>
        <time>2023-07-20T09:35:32Z</time>
      </trkpt>
      <trkpt lat="48.37972" lon="2.73008">
        <ele>86.6</ele>
        <time>2023-07-20T09:35:33Z</time>
      </trkpt>
      <trkpt lat="48.37972" lon="2.7301">
        <ele>86.6</ele>
        <time>2023-07-20T09:35:34Z</time>
      </trkpt>
      <trkpt lat="48.37972" lon="2.73011">
        <ele>86.6</ele>
        <time>2023-07-20T09:35:35Z</time>
      </trkpt>
      <trkpt lat="48.37971" lon="2.73013">
        <ele>86.5</ele>
        <time>2023-07-20T09:35:36Z</time>
      </trkpt>
      <trkpt lat="48.37971" lon="2.73016">
        <ele>86.5</ele>
        <time>2023-07-20T09:35:37Z</time>
      </trkpt>
      <trkpt lat="48.3797" lon="2.73017">
        <ele>86.5</ele>
        <time>2023-07-20T09:35:38Z</time>
      </trkpt>
      <trkpt lat="48.3797" lon="2.73018">
        <ele>86.5</ele>
        <time>2023-07-20T09:35:39Z</time>
      </trkpt>
      <trkpt lat="48.3797" lon="2.73019">
        <ele>86.5</ele>
        <time>2023-07-20T09:35:40Z</time>
      </trkpt>
      <trkpt lat="48.3797" lon="2.73021">
        <ele>86.4</ele>
        <time>2023-07-20T09:35:41Z</time>
      </trkpt>
      <trkpt lat="48.3797" lon="2.73023">
        <ele>86.4</ele>
        <time>2023-07-20T09:35:42Z</time>
      </trkpt>
      <trkpt lat="48.37969" lon="2.73026">
        <ele>86.4</ele>
        <time>2023-07-20T09:35:43Z</time>
      </trkpt>
      <trkpt lat="48.37969" lon="2.73028">
        <ele>86.4</ele>
        <time>2023-07-20T09:35:44Z</time>
      </trkpt>
      <trkpt lat="48.37969" lon="2.73029">
        <ele>86.4</ele>
        <time>2023-07-20T09:35:45Z</time>
      </trkpt>
      <trkpt lat="48.37969" lon="2.73031">
        <ele>86.4</ele>
        <time>2023-07-20T09:35:46Z</time>
      </trkpt>
      <trkpt lat="48.37969" lon="2.73032">
        <ele>86.3</ele>
        <time>2023-07-20T09:35:47Z</time>
      </trkpt>
      <trkpt lat="48.37969" lon="2.73034">
        <ele>86.3</ele>
        <time>2023-07-20T09:35:48Z</time>
      </trkpt>
      <trkpt lat="48.37969" lon="2.73036">
        <ele>86.3</ele>
        <time>2023-07-20T09:35:49Z</time>
      </trkpt>
      <trkpt lat="48.37968" lon="2.73036">
        <ele>86.3</ele>
        <time>2023-07-20T09:35:50Z</time>
      </trkpt>
      <trkpt lat="48.37968" lon="2.73038">
        <ele>86.3</ele>
        <time>2023-07-20T09:35:51Z</time>
      </trkpt>
      <trkpt lat="48.37967" lon="2.73039">
        <ele>86.3</ele>
        <time>2023-07-20T09:35:52Z</time>
      </trkpt>
      <trkpt lat="48.37967" lon="2.73041">
        <ele>86.3</ele>
        <time>2023-07-20T09:35:53Z</time>
      </trkpt>
      <trkpt lat="48.37967" lon="2.73042">
        <ele>86.3</ele>
        <time>2023-07-20T09:35:54Z</time>
      </trkpt>
      <trkpt lat="48.37967" lon="2.73043">
        <ele>86.3</ele>
        <time>2023-07-20T09:35:55Z</time>
      </trkpt>
      <trkpt lat="48.37967" lon="2.73044">
        <ele>86.2</ele>
        <time>2023-07-20T09:35:56Z</time>
      </trkpt>
      <trkpt lat="48.37967" lon="2.73045">
        <ele>86.2</ele>
        <time>2023-07-20T09:35:57Z</time>
      </trkpt>
      <trkpt lat="48.37967" lon="2.73048">
        <ele>86.2</ele>
        <time>2023-07-20T09:35:58Z</time>
      </trkpt>
      <trkpt lat="48.37967" lon="2.73049">
        <ele>86.2</ele>
        <time>2023-07-20T09:35:59Z</time>
      </trkpt>
      <trkpt lat="48.37966" lon="2.73051">
        <ele>86.2</ele>
        <time>2023-07-20T09:36:00Z</time>
      </trkpt>
      <trkpt lat="48.37966" lon="2.73052">
        <ele>86.2</ele>
        <time>2023-07-20T09:36:01Z</time>
      </trkpt>
      <trkpt lat="48.37966" lon="2.73053">
        <ele>86.2</ele>
        <time>2023-07-20T09:36:02Z</time>
      </trkpt>
      <trkpt lat="48.37966" lon="2.73054">
        <ele>86.2</ele>
        <time>2023-07-20T09:36:03Z</time>
      </trkpt>
      <trkpt lat="48.37966" lon="2.73055">
        <ele>86.2</ele>
        <time>2023-07-20T09:36:04Z</time>
      </trkpt>
      <trkpt lat="48.37966" lon="2.73058">
        <ele>86.2</ele>
        <time>2023-07-20T09:36:05Z</time>
      </trkpt>
      <trkpt lat="48.37965" lon="2.73059">
        <ele>86.2</ele>
        <time>2023-07-20T09:36:06Z</time>
      </trkpt>
      <trkpt lat="48.37965" lon="2.7306">
        <ele>86.2</ele>
        <time>2023-07-20T09:36:07Z</time>
      </trkpt>
      <trkpt lat="48.37965" lon="2.73061">
        <ele>86.2</ele>
        <time>2023-07-20T09:36:08Z</time>
      </trkpt>
      <trkpt lat="48.37964" lon="2.73063">
        <ele>86.2</ele>
        <time>2023-07-20T09:36:09Z</time>
      </trkpt>
      <trkpt lat="48.37964" lon="2.73065">
        <ele>86.1</ele>
        <time>2023-07-20T09:36:10Z</time>
      </trkpt>
      <trkpt lat="48.37965" lon="2.73068">
        <ele>86.1</ele>
        <time>2023-07-20T09:36:11Z</time>
      </trkpt>
      <trkpt lat="48.37965" lon="2.73069">
        <ele>86.1</ele>
        <time>2023-07-20T09:36:12Z</time>
      </trkpt>
      <trkpt lat="48.37965" lon="2.73071">
        <ele>86.1</ele>
        <time>2023-07-20T09:36:13Z</time>
      </trkpt>
      <trkpt lat="48.37964" lon="2.73073">
        <ele>86.1</ele>
        <time>2023-07-20T09:36:14Z</time>
      </trkpt>
      <trkpt lat="48.37964" lon="2.73076">
        <ele>86.1</ele>
        <time>2023-07-20T09:36:15Z</time>
      </trkpt>
      <trkpt lat="48.37964" lon="2.73077">
        <ele>86.1</ele>
        <time>2023-07-20T09:36:16Z</time>
      </trkpt>
      <trkpt lat="48.37965" lon="2.73078">
        <ele>86.1</ele>
        <time>2023-07-20T09:36:17Z</time>
      </trkpt>
      <trkpt lat="48.37965" lon="2.7308">
        <ele>86.1</ele>
        <time>2023-07-20T09:36:18Z</time>
      </trkpt>
      <trkpt lat="48.37965" lon="2.73081">
        <ele>86.1</ele>
        <time>2023-07-20T09:36:19Z</time>
      </trkpt>
      <trkpt lat="48.37965" lon="2.73082">
        <ele>86.1</ele>
        <time>2023-07-20T09:36:20Z</time>
      </trkpt>
      <trkpt lat="48.37966" lon="2.73083">
        <ele>86.1</ele>
        <time>2023-07-20T09:36:21Z</time>
      </trkpt>
      <trkpt lat="48.37966" lon="2.73084">
        <ele>86.1</ele>
        <time>2023-07-20T09:36:22Z</time>
      </trkpt>
      <trkpt lat="48.37967" lon="2.73086">
        <ele>86.1</ele>
        <time>2023-07-20T09:36:23Z</time>
      </trkpt>
      <trkpt lat="48.37967" lon="2.73089">
        <ele>86.1</ele>
        <time>2023-07-20T09:36:24Z</time>
      </trkpt>
      <trkpt lat="48.37967" lon="2.73091">
        <ele>86.1</ele>
        <time>2023-07-20T09:36:25Z</time>
      </trkpt>
      <trkpt lat="48.37967" lon="2.73093">
        <ele>86.1</ele>
        <time>2023-07-20T09:36:26Z</time>
      </trkpt>
      <trkpt lat="48.37967" lon="2.73096">
        <ele>86.1</ele>
        <time>2023-07-20T09:36:27Z</time>
      </trkpt>
      <trkpt lat="48.37967" lon="2.73098">
        <ele>86.1</ele>
        <time>2023-07-20T09:36:28Z</time>
      </trkpt>
      <trkpt lat="48.37966" lon="2.731">
        <ele>86.1</ele>
        <time>2023-07-20T09:36:29Z</time>
      </trkpt>
      <trkpt lat="48.37966" lon="2.73101">
        <ele>86.1</ele>
        <time>2023-07-20T09:36:30Z</time>
      </trkpt>
      <trkpt lat="48.37965" lon="2.73102">
        <ele>86.1</ele>
        <time>2023-07-20T09:36:31Z</time>
      </trkpt>
      <trkpt lat="48.37965" lon="2.73103">
        <ele>86.1</ele>
        <time>2023-07-20T09:36:32Z</time>
      </trkpt>
      <trkpt lat="48.37964" lon="2.73105">
        <ele>86.1</ele>
        <time>2023-07-20T09:36:33Z</time>
      </trkpt>
      <trkpt lat="48.37964" lon="2.73106">
        <ele>86.1</ele>
        <time>2023-07-20T09:36:34Z</time>
      </trkpt>
      <trkpt lat="48.37964" lon="2.73107">
        <ele>86.1</ele>
        <time>2023-07-20T09:36:35Z</time>
      </trkpt>
      <trkpt lat="48.37964" lon="2.73108">
        <ele>86.1</ele>
        <time>2023-07-20T09:36:36Z</time>
      </trkpt>
      <trkpt lat="48.37963" lon="2.73109">
        <ele>86.1</ele>
        <time>2023-07-20T09:36:37Z</time>
      </trkpt>
      <trkpt lat="48.37963" lon="2.7311">
        <ele>86.1</ele>
        <time>2023-07-20T09:36:38Z</time>
      </trkpt>
      <trkpt lat="48.37963" lon="2.73111">
        <ele>86.1</ele>
        <time>2023-07-20T09:36:39Z</time>
      </trkpt>
      <trkpt lat="48.37963" lon="2.73112">
        <ele>86.1</ele>
        <time>2023-07-20T09:36:40Z</time>
      </trkpt>
      <trkpt lat="48.37963" lon="2.73113">
        <ele>86.1</ele>
        <time>2023-07-20T09:36:41Z</time>
      </trkpt>
      <trkpt lat="48.37963" lon="2.73114">
        <ele>86.1</ele>
        <time>2023-07-20T09:36:42Z</time>
      </trkpt>
      <trkpt lat="48.37963" lon="2.73115">
        <ele>86.1</ele>
        <time>2023-07-20T09:36:43Z</time>
      </trkpt>
      <trkpt lat="48.37962" lon="2.73117">
        <ele>86.1</ele>
        <time>2023-07-20T09:36:44Z</time>
      </trkpt>
      <trkpt lat="48.37962" lon="2.73119">
        <ele>86.1</ele>
        <time>2023-07-20T09:36:45Z</time>
      </trkpt>
      <trkpt lat="48.37961" lon="2.7312">
        <ele>86.1</ele>
        <time>2023-07-20T09:36:46Z</time>
      </trkpt>
      <trkpt lat="48.37962" lon="2.73122">
        <ele>86.1</ele>
        <time>2023-07-20T09:36:47Z</time>
      </trkpt>
      <trkpt lat="48.37961" lon="2.73123">
        <ele>86.1</ele>
        <time>2023-07-20T09:36:48Z</time>
      </trkpt>
      <trkpt lat="48.37961" lon="2.73125">
        <ele>86.1</ele>
        <time>2023-07-20T09:36:49Z</time>
      </trkpt>
      <trkpt lat="48.37961" lon="2.73127">
        <ele>86.1</ele>
        <time>2023-07-20T09:36:50Z</time>
      </trkpt>
      <trkpt lat="48.37961" lon="2.7313">
        <ele>86.1</ele>
        <time>2023-07-20T09:36:51Z</time>
      </trkpt>
      <trkpt lat="48.37961" lon="2.73131">
        <ele>86.1</ele>
        <time>2023-07-20T09:36:52Z</time>
      </trkpt>
      <trkpt lat="48.37961" lon="2.73133">
        <ele>86.1</ele>
        <time>2023-07-20T09:36:53Z</time>
      </trkpt>
      <trkpt lat="48.37961" lon="2.73135">
        <ele>86.1</ele>
        <time>2023-07-20T09:36:54Z</time>
      </trkpt>
      <trkpt lat="48.37962" lon="2.73137">
        <ele>86.1</ele>
        <time>2023-07-20T09:36:55Z</time>
      </trkpt>
      <trkpt lat="48.37962" lon="2.73139">
        <ele>86.1</ele>
        <time>2023-07-20T09:36:56Z</time>
      </trkpt>
      <trkpt lat="48.37962" lon="2.73141">
        <ele>86.1</ele>
        <time>2023-07-20T09:36:57Z</time>
      </trkpt>
      <trkpt lat="48.37961" lon="2.73142">
        <ele>86.1</ele>
        <time>2023-07-20T09:36:58Z</time>
      </trkpt>
      <trkpt lat="48.37961" lon="2.73144">
        <ele>86.1</ele>
        <time>2023-07-20T09:36:59Z</time>
      </trkpt>
      <trkpt lat="48.37961" lon="2.73146">
        <ele>86.1</ele>
        <time>2023-07-20T09:37:00Z</time>
      </trkpt>
      <trkpt lat="48.37961" lon="2.73147">
        <ele>86.1</ele>
        <time>2023-07-20T09:37:01Z</time>
      </trkpt>
      <trkpt lat="48.3796" lon="2.73149">
        <ele>86.1</ele>
        <time>2023-07-20T09:37:02Z</time>
      </trkpt>
      <trkpt lat="48.37959" lon="2.73151">
        <ele>86.1</ele>
        <time>2023-07-20T09:37:03Z</time>
      </trkpt>
      <trkpt lat="48.37958" lon="2.73152">
        <ele>86.1</ele>
        <time>2023-07-20T09:37:04Z</time>
      </trkpt>
      <trkpt lat="48.37958" lon="2.73153">
        <ele>86.1</ele>
        <time>2023-07-20T09:37:05Z</time>
      </trkpt>
      <trkpt lat="48.37958" lon="2.73154">
        <ele>86.2</ele>
        <time>2023-07-20T09:37:06Z</time>
      </trkpt>
      <trkpt lat="48.37958" lon="2.73156">
        <ele>86.2</ele>
        <time>2023-07-20T09:37:07Z</time>
      </trkpt>
      <trkpt lat="48.37957" lon="2.73157">
        <ele>86.2</ele>
        <time>2023-07-20T09:37:08Z</time>
      </trkpt>
      <trkpt lat="48.37957" lon="2.73159">
        <ele>86.2</ele>
        <time>2023-07-20T09:37:09Z</time>
      </trkpt>
      <trkpt lat="48.37956" lon="2.73162">
        <ele>86.2</ele>
        <time>2023-07-20T09:37:10Z</time>
      </trkpt>
      <trkpt lat="48.37956" lon="2.73163">
        <ele>86.2</ele>
        <time>2023-07-20T09:37:11Z</time>
      </trkpt>
      <trkpt lat="48.37956" lon="2.73164">
        <ele>86.2</ele>
        <time>2023-07-20T09:37:12Z</time>
      </trkpt>
      <trkpt lat="48.37955" lon="2.73166">
        <ele>86.2</ele>
        <time>2023-07-20T09:37:13Z</time>
      </trkpt>
      <trkpt lat="48.37955" lon="2.73167">
        <ele>86.2</ele>
        <time>2023-07-20T09:37:14Z</time>
      </trkpt>
      <trkpt lat="48.37954" lon="2.73168">
        <ele>86.3</ele>
        <time>2023-07-20T09:37:15Z</time>
      </trkpt>
      <trkpt lat="48.37955" lon="2.7317">
        <ele>86.3</ele>
        <time>2023-07-20T09:37:16Z</time>
      </trkpt>
      <trkpt lat="48.37954" lon="2.73171">
        <ele>86.3</ele>
        <time>2023-07-20T09:37:17Z</time>
      </trkpt>
      <trkpt lat="48.37954" lon="2.73173">
        <ele>86.3</ele>
        <time>2023-07-20T09:37:18Z</time>
      </trkpt>
      <trkpt lat="48.37954" lon="2.73175">
        <ele>86.3</ele>
        <time>2023-07-20T09:37:19Z</time>
      </trkpt>
      <trkpt lat="48.37954" lon="2.73178">
        <ele>86.3</ele>
        <time>2023-07-20T09:37:20Z</time>
      </trkpt>
      <trkpt lat="48.37953" lon="2.7318">
        <ele>86.4</ele>
        <time>2023-07-20T09:37:21Z</time>
      </trkpt>
      <trkpt lat="48.37953" lon="2.73181">
        <ele>86.4</ele>
        <time>2023-07-20T09:37:22Z</time>
      </trkpt>
      <trkpt lat="48.37954" lon="2.73182">
        <ele>86.4</ele>
        <time>2023-07-20T09:37:23Z</time>
      </trkpt>
      <trkpt lat="48.37953" lon="2.73183">
        <ele>86.4</ele>
        <time>2023-07-20T09:37:24Z</time>
      </trkpt>
      <trkpt lat="48.37953" lon="2.73184">
        <ele>86.4</ele>
        <time>2023-07-20T09:37:25Z</time>
      </trkpt>
      <trkpt lat="48.37953" lon="2.73187">
        <ele>86.4</ele>
        <time>2023-07-20T09:37:26Z</time>
      </trkpt>
      <trkpt lat="48.37952" lon="2.73188">
        <ele>86.4</ele>
        <time>2023-07-20T09:37:27Z</time>
      </trkpt>
      <trkpt lat="48.37951" lon="2.73191">
        <ele>86.4</ele>
        <time>2023-07-20T09:37:28Z</time>
      </trkpt>
      <trkpt lat="48.37951" lon="2.73192">
        <ele>86.5</ele>
        <time>2023-07-20T09:37:29Z</time>
      </trkpt>
      <trkpt lat="48.37952" lon="2.73194">
        <ele>86.5</ele>
        <time>2023-07-20T09:37:30Z</time>
      </trkpt>
      <trkpt lat="48.37951" lon="2.73195">
        <ele>86.5</ele>
        <time>2023-07-20T09:37:31Z</time>
      </trkpt>
      <trkpt lat="48.37951" lon="2.73196">
        <ele>86.5</ele>
        <time>2023-07-20T09:37:32Z</time>
      </trkpt>
      <trkpt lat="48.37951" lon="2.73197">
        <ele>86.5</ele>
        <time>2023-07-20T09:37:33Z</time>
      </trkpt>
      <trkpt lat="48.37951" lon="2.73198">
        <ele>86.5</ele>
        <time>2023-07-20T09:37:34Z</time>
      </trkpt>
      <trkpt lat="48.37951" lon="2.732">
        <ele>86.5</ele>
        <time>2023-07-20T09:37:35Z</time>
      </trkpt>
      <trkpt lat="48.37951" lon="2.73202">
        <ele>86.5</ele>
        <time>2023-07-20T09:37:36Z</time>
      </trkpt>
      <trkpt lat="48.3795" lon="2.73203">
        <ele>86.6</ele>
        <time>2023-07-20T09:37:37Z</time>
      </trkpt>
      <trkpt lat="48.3795" lon="2.73205">
        <ele>86.6</ele>
        <time>2023-07-20T09:37:38Z</time>
      </trkpt>
      <trkpt lat="48.3795" lon="2.73208">
        <ele>86.6</ele>
        <time>2023-07-20T09:37:39Z</time>
      </trkpt>
      <trkpt lat="48.3795" lon="2.73209">
        <ele>86.6</ele>
        <time>2023-07-20T09:37:40Z</time>
      </trkpt>
      <trkpt lat="48.3795" lon="2.73211">
        <ele>86.6</ele>
        <time>2023-07-20T09:37:41Z</time>
      </trkpt>
      <trkpt lat="48.3795" lon="2.73213">
        <ele>86.6</ele>
        <time>2023-07-20T09:37:42Z</time>
      </trkpt>
      <trkpt lat="48.3795" lon="2.73215">
        <ele>86.6</ele>
        <time>2023-07-20T09:37:43Z</time>
      </trkpt>
      <trkpt lat="48.3795" lon="2.73217">
        <ele>86.6</ele>
        <time>2023-07-20T09:37:44Z</time>
      </trkpt>
      <trkpt lat="48.37951" lon="2.73219">
        <ele>86.6</ele>
        <time>2023-07-20T09:37:45Z</time>
      </trkpt>
      <trkpt lat="48.3795" lon="2.7322">
        <ele>86.6</ele>
        <time>2023-07-20T09:37:46Z</time>
      </trkpt>
      <trkpt lat="48.3795" lon="2.73222">
        <ele>86.6</ele>
        <time>2023-07-20T09:37:47Z</time>
      </trkpt>
      <trkpt lat="48.37951" lon="2.73224">
        <ele>86.6</ele>
        <time>2023-07-20T09:37:48Z</time>
      </trkpt>
      <trkpt lat="48.37951" lon="2.73225">
        <ele>86.7</ele>
        <time>2023-07-20T09:37:49Z</time>
      </trkpt>
      <trkpt lat="48.37951" lon="2.73226">
        <ele>86.7</ele>
        <time>2023-07-20T09:37:50Z</time>
      </trkpt>
      <trkpt lat="48.37951" lon="2.7323">
        <ele>86.7</ele>
        <time>2023-07-20T09:37:51Z</time>
      </trkpt>
      <trkpt lat="48.37951" lon="2.7323">
        <ele>86.7</ele>
        <time>2023-07-20T09:37:52Z</time>
      </trkpt>
      <trkpt lat="48.37951" lon="2.73231">
        <ele>86.7</ele>
        <time>2023-07-20T09:37:53Z</time>
      </trkpt>
      <trkpt lat="48.37952" lon="2.73233">
        <ele>86.7</ele>
        <time>2023-07-20T09:37:54Z</time>
      </trkpt>
      <trkpt lat="48.37952" lon="2.73234">
        <ele>86.7</ele>
        <time>2023-07-20T09:37:55Z</time>
      </trkpt>
      <trkpt lat="48.37952" lon="2.73236">
        <ele>86.7</ele>
        <time>2023-07-20T09:37:56Z</time>
      </trkpt>
      <trkpt lat="48.37952" lon="2.73237">
        <ele>86.7</ele>
        <time>2023-07-20T09:37:57Z</time>
      </trkpt>
      <trkpt lat="48.37952" lon="2.73238">
        <ele>86.7</ele>
        <time>2023-07-20T09:37:58Z</time>
      </trkpt>
      <trkpt lat="48.37951" lon="2.7324">
        <ele>86.7</ele>
        <time>2023-07-20T09:37:59Z</time>
      </trkpt>
      <trkpt lat="48.37951" lon="2.73241">
        <ele>86.7</ele>
        <time>2023-07-20T09:38:00Z</time>
      </trkpt>
      <trkpt lat="48.37951" lon="2.73243">
        <ele>86.7</ele>
        <time>2023-07-20T09:38:01Z</time>
      </trkpt>
      <trkpt lat="48.3795" lon="2.73245">
        <ele>86.7</ele>
        <time>2023-07-20T09:38:02Z</time>
      </trkpt>
      <trkpt lat="48.3795" lon="2.73246">
        <ele>86.7</ele>
        <time>2023-07-20T09:38:03Z</time>
      </trkpt>
      <trkpt lat="48.37949" lon="2.73248">
        <ele>86.7</ele>
        <time>2023-07-20T09:38:04Z</time>
      </trkpt>
      <trkpt lat="48.37949" lon="2.73249">
        <ele>86.7</ele>
        <time>2023-07-20T09:38:05Z</time>
      </trkpt>
      <trkpt lat="48.3795" lon="2.7325">
        <ele>86.7</ele>
        <time>2023-07-20T09:38:06Z</time>
      </trkpt>
      <trkpt lat="48.37949" lon="2.73251">
        <ele>86.7</ele>
        <time>2023-07-20T09:38:07Z</time>
      </trkpt>
      <trkpt lat="48.37948" lon="2.73252">
        <ele>86.7</ele>
        <time>2023-07-20T09:38:08Z</time>
      </trkpt>
      <trkpt lat="48.37947" lon="2.73253">
        <ele>86.7</ele>
        <time>2023-07-20T09:38:09Z</time>
      </trkpt>
      <trkpt lat="48.37947" lon="2.73255">
        <ele>86.7</ele>
        <time>2023-07-20T09:38:10Z</time>
      </trkpt>
      <trkpt lat="48.37947" lon="2.73256">
        <ele>86.7</ele>
        <time>2023-07-20T09:38:11Z</time>
      </trkpt>
      <trkpt lat="48.37946" lon="2.73257">
        <ele>86.7</ele>
        <time>2023-07-20T09:38:12Z</time>
      </trkpt>
      <trkpt lat="48.37946" lon="2.73258">
        <ele>86.7</ele>
        <time>2023-07-20T09:38:13Z</time>
      </trkpt>
      <trkpt lat="48.37946" lon="2.7326">
        <ele>86.8</ele>
        <time>2023-07-20T09:38:14Z</time>
      </trkpt>
      <trkpt lat="48.37946" lon="2.73261">
        <ele>86.8</ele>
        <time>2023-07-20T09:38:15Z</time>
      </trkpt>
      <trkpt lat="48.37945" lon="2.73263">
        <ele>86.8</ele>
        <time>2023-07-20T09:38:16Z</time>
      </trkpt>
      <trkpt lat="48.37945" lon="2.73265">
        <ele>86.8</ele>
        <time>2023-07-20T09:38:17Z</time>
      </trkpt>
      <trkpt lat="48.37945" lon="2.73266">
        <ele>86.8</ele>
        <time>2023-07-20T09:38:18Z</time>
      </trkpt>
      <trkpt lat="48.37946" lon="2.73267">
        <ele>86.8</ele>
        <time>2023-07-20T09:38:19Z</time>
      </trkpt>
      <trkpt lat="48.37945" lon="2.73269">
        <ele>86.8</ele>
        <time>2023-07-20T09:38:20Z</time>
      </trkpt>
      <trkpt lat="48.37946" lon="2.73271">
        <ele>86.8</ele>
        <time>2023-07-20T09:38:21Z</time>
      </trkpt>
      <trkpt lat="48.37946" lon="2.73274">
        <ele>86.8</ele>
        <time>2023-07-20T09:38:22Z</time>
      </trkpt>
      <trkpt lat="48.37946" lon="2.73275">
        <ele>86.8</ele>
        <time>2023-07-20T09:38:23Z</time>
      </trkpt>
      <trkpt lat="48.37946" lon="2.73276">
        <ele>86.8</ele>
        <time>2023-07-20T09:38:24Z</time>
      </trkpt>
      <trkpt lat="48.37946" lon="2.73278">
        <ele>86.8</ele>
        <time>2023-07-20T09:38:25Z</time>
      </trkpt>
      <trkpt lat="48.37946" lon="2.73278">
        <ele>86.8</ele>
        <time>2023-07-20T09:38:26Z</time>
      </trkpt>
      <trkpt lat="48.37946" lon="2.73279">
        <ele>86.8</ele>
        <time>2023-07-20T09:38:27Z</time>
      </trkpt>
      <trkpt lat="48.37946" lon="2.73281">
        <ele>86.8</ele>
        <time>2023-07-20T09:38:28Z</time>
      </trkpt>
      <trkpt lat="48.37946" lon="2.73282">
        <ele>86.8</ele>
        <time>2023-07-20T09:38:29Z</time>
      </trkpt>
      <trkpt lat="48.37946" lon="2.73283">
        <ele>86.8</ele>
        <time>2023-07-20T09:38:30Z</time>
      </trkpt>
      <trkpt lat="48.37947" lon="2.73285">
        <ele>86.8</ele>
        <time>2023-07-20T09:38:31Z</time>
      </trkpt>
      <trkpt lat="48.37946" lon="2.73287">
        <ele>86.8</ele>
        <time>2023-07-20T09:38:32Z</time>
      </trkpt>
      <trkpt lat="48.37946" lon="2.73288">
        <ele>86.8</ele>
        <time>2023-07-20T09:38:33Z</time>
      </trkpt>
      <trkpt lat="48.37946" lon="2.73291">
        <ele>86.8</ele>
        <time>2023-07-20T09:38:34Z</time>
      </trkpt>
      <trkpt lat="48.37946" lon="2.73292">
        <ele>86.8</ele>
        <time>2023-07-20T09:38:35Z</time>
      </trkpt>
      <trkpt lat="48.37946" lon="2.73294">
        <ele>86.8</ele>
        <time>2023-07-20T09:38:36Z</time>
      </trkpt>
      <trkpt lat="48.37945" lon="2.73295">
        <ele>86.8</ele>
        <time>2023-07-20T09:38:37Z</time>
      </trkpt>
      <trkpt lat="48.37945" lon="2.73297">
        <ele>86.8</ele>
        <time>2023-07-20T09:38:38Z</time>
      </trkpt>
      <trkpt lat="48.37945" lon="2.73298">
        <ele>86.8</ele>
        <time>2023-07-20T09:38:39Z</time>
      </trkpt>
      <trkpt lat="48.37944" lon="2.733">
        <ele>86.8</ele>
        <time>2023-07-20T09:38:40Z</time>
      </trkpt>
      <trkpt lat="48.37944" lon="2.73301">
        <ele>86.8</ele>
        <time>2023-07-20T09:38:41Z</time>
      </trkpt>
      <trkpt lat="48.37944" lon="2.73303">
        <ele>86.8</ele>
        <time>2023-07-20T09:38:42Z</time>
      </trkpt>
      <trkpt lat="48.37944" lon="2.73304">
        <ele>86.8</ele>
        <time>2023-07-20T09:38:43Z</time>
      </trkpt>
      <trkpt lat="48.37943" lon="2.73305">
        <ele>86.8</ele>
        <time>2023-07-20T09:38:44Z</time>
      </trkpt>
      <trkpt lat="48.37943" lon="2.73306">
        <ele>86.8</ele>
        <time>2023-07-20T09:38:45Z</time>
      </trkpt>
      <trkpt lat="48.37943" lon="2.73307">
        <ele>86.8</ele>
        <time>2023-07-20T09:38:46Z</time>
      </trkpt>
      <trkpt lat="48.37942" lon="2.73309">
        <ele>86.8</ele>
        <time>2023-07-20T09:38:47Z</time>
      </trkpt>
      <trkpt lat="48.37942" lon="2.7331">
        <ele>86.8</ele>
        <time>2023-07-20T09:38:48Z</time>
      </trkpt>
      <trkpt lat="48.37942" lon="2.73311">
        <ele>86.8</ele>
        <time>2023-07-20T09:38:49Z</time>
      </trkpt>
      <trkpt lat="48.37942" lon="2.73313">
        <ele>86.8</ele>
        <time>2023-07-20T09:38:50Z</time>
      </trkpt>
      <trkpt lat="48.37942" lon="2.73316">
        <ele>86.8</ele>
        <time>2023-07-20T09:38:51Z</time>
      </trkpt>
      <trkpt lat="48.37942" lon="2.73317">
        <ele>86.8</ele>
        <time>2023-07-20T09:38:52Z</time>
      </trkpt>
      <trkpt lat="48.37942" lon="2.73318">
        <ele>86.8</ele>
        <time>2023-07-20T09:38:53Z</time>
      </trkpt>
      <trkpt lat="48.37942" lon="2.7332">
        <ele>86.8</ele>
        <time>2023-07-20T09:38:54Z</time>
      </trkpt>
      <trkpt lat="48.37942" lon="2.73321">
        <ele>86.8</ele>
        <time>2023-07-20T09:38:55Z</time>
      </trkpt>
      <trkpt lat="48.37942" lon="2.73323">
        <ele>86.8</ele>
        <time>2023-07-20T09:38:56Z</time>
      </trkpt>
      <trkpt lat="48.37942" lon="2.73324">
        <ele>86.8</ele>
        <time>2023-07-20T09:38:57Z</time>
      </trkpt>
      <trkpt lat="48.37941" lon="2.73326">
        <ele>86.8</ele>
        <time>2023-07-20T09:38:58Z</time>
      </trkpt>
      <trkpt lat="48.37941" lon="2.73327">
        <ele>86.8</ele>
        <time>2023-07-20T09:38:59Z</time>
      </trkpt>
      <trkpt lat="48.37941" lon="2.73328">
        <ele>86.8</ele>
        <time>2023-07-20T09:39:00Z</time>
      </trkpt>
      <trkpt lat="48.37942" lon="2.73331">
        <ele>86.8</ele>
        <time>2023-07-20T09:39:01Z</time>
      </trkpt>
      <trkpt lat="48.37943" lon="2.73331">
        <ele>86.8</ele>
        <time>2023-07-20T09:39:02Z</time>
      </trkpt>
      <trkpt lat="48.37943" lon="2.73331">
        <ele>86.8</ele>
        <time>2023-07-20T09:39:03Z</time>
      </trkpt>
      <trkpt lat="48.37942" lon="2.73331">
        <ele>86.8</ele>
        <time>2023-07-20T09:39:04Z</time>
      </trkpt>
      <trkpt lat="48.37942" lon="2.73331">
        <ele>86.8</ele>
        <time>2023-07-20T09:39:05Z</time>
      </trkpt>
      <trkpt lat="48.37942" lon="2.73331">
        <ele>86.8</ele>
        <time>2023-07-20T09:39:06Z</time>
      </trkpt>
      <trkpt lat="48.37942" lon="2.73332">
        <ele>86.8</ele>
        <time>2023-07-20T09:39:07Z</time>
      </trkpt>
      <trkpt lat="48.37942" lon="2.73332">
        <ele>86.8</ele>
        <time>2023-07-20T09:39:08Z</time>
      </trkpt>
      <trkpt lat="48.37942" lon="2.73332">
        <ele>86.8</ele>
        <time>2023-07-20T09:39:09Z</time>
      </trkpt>
      <trkpt lat="48.37942" lon="2.73332">
        <ele>86.8</ele>
        <time>2023-07-20T09:39:10Z</time>
      </trkpt>
      <trkpt lat="48.37943" lon="2.73333">
        <ele>86.8</ele>
        <time>2023-07-20T09:39:11Z</time>
      </trkpt>
      <trkpt lat="48.37942" lon="2.73334">
        <ele>86.8</ele>
        <time>2023-07-20T09:39:12Z</time>
      </trkpt>
      <trkpt lat="48.37942" lon="2.73335">
        <ele>86.8</ele>
        <time>2023-07-20T09:39:13Z</time>
      </trkpt>
      <trkpt lat="48.37943" lon="2.73335">
        <ele>86.8</ele>
        <time>2023-07-20T09:39:14Z</time>
      </trkpt>
      <trkpt lat="48.37943" lon="2.73336">
        <ele>86.8</ele>
        <time>2023-07-20T09:39:15Z</time>
      </trkpt>
      <trkpt lat="48.37943" lon="2.73337">
        <ele>86.8</ele>
        <time>2023-07-20T09:39:16Z</time>
      </trkpt>
      <trkpt lat="48.37942" lon="2.73339">
        <ele>86.9</ele>
        <time>2023-07-20T09:39:17Z</time>
      </trkpt>
      <trkpt lat="48.37942" lon="2.7334">
        <ele>86.9</ele>
        <time>2023-07-20T09:39:18Z</time>
      </trkpt>
      <trkpt lat="48.37942" lon="2.73339">
        <ele>86.9</ele>
        <time>2023-07-20T09:39:19Z</time>
      </trkpt>
      <trkpt lat="48.37942" lon="2.73339">
        <ele>86.9</ele>
        <time>2023-07-20T09:39:20Z</time>
      </trkpt>
      <trkpt lat="48.37942" lon="2.73339">
        <ele>86.9</ele>
        <time>2023-07-20T09:39:21Z</time>
      </trkpt>
      <trkpt lat="48.37942" lon="2.73339">
        <ele>86.9</ele>
        <time>2023-07-20T09:39:22Z</time>
      </trkpt>
      <trkpt lat="48.37942" lon="2.73339">
        <ele>86.9</ele>
        <time>2023-07-20T09:39:23Z</time>
      </trkpt>
      <trkpt lat="48.37942" lon="2.73339">
        <ele>86.9</ele>
        <time>2023-07-20T09:39:24Z</time>
      </trkpt>
      <trkpt lat="48.37942" lon="2.73339">
        <ele>86.9</ele>
        <time>2023-07-20T09:39:25Z</time>
      </trkpt>
      <trkpt lat="48.37942" lon="2.73339">
        <ele>86.9</ele>
        <time>2023-07-20T09:39:26Z</time>
      </trkpt>
      <trkpt lat="48.37942" lon="2.73339">
        <ele>86.9</ele>
        <time>2023-07-20T09:39:27Z</time>
      </trkpt>
      <trkpt lat="48.37942" lon="2.73339">
        <ele>86.9</ele>
        <time>2023-07-20T09:39:28Z</time>
      </trkpt>
      <trkpt lat="48.37942" lon="2.73339">
        <ele>86.9</ele>
        <time>2023-07-20T09:39:29Z</time>
      </trkpt>
      <trkpt lat="48.37942" lon="2.73339">
        <ele>86.9</ele>
        <time>2023-07-20T09:39:30Z</time>
      </trkpt>
      <trkpt lat="48.37942" lon="2.73339">
        <ele>86.9</ele>
        <time>2023-07-20T09:39:31Z</time>
      </trkpt>
      <trkpt lat="48.37942" lon="2.73339">
        <ele>86.9</ele>
        <time>2023-07-20T09:39:32Z</time>
      </trkpt>
      <trkpt lat="48.37942" lon="2.73339">
        <ele>86.9</ele>
        <time>2023-07-20T09:39:33Z</time>
      </trkpt>
      <trkpt lat="48.37942" lon="2.73339">
        <ele>86.9</ele>
        <time>2023-07-20T09:39:34Z</time>
      </trkpt>
      <trkpt lat="48.37942" lon="2.73338">
        <ele>86.9</ele>
        <time>2023-07-20T09:39:35Z</time>
      </trkpt>
      <trkpt lat="48.37942" lon="2.73338">
        <ele>86.9</ele>
        <time>2023-07-20T09:39:36Z</time>
      </trkpt>
      <trkpt lat="48.37942" lon="2.73338">
        <ele>86.9</ele>
        <time>2023-07-20T09:39:37Z</time>
      </trkpt>
      <trkpt lat="48.37943" lon="2.73337">
        <ele>86.9</ele>
        <time>2023-07-20T09:39:38Z</time>
      </trkpt>
      <trkpt lat="48.37943" lon="2.73338">
        <ele>86.9</ele>
        <time>2023-07-20T09:39:39Z</time>
      </trkpt>
      <trkpt lat="48.37943" lon="2.73338">
        <ele>86.9</ele>
        <time>2023-07-20T09:39:40Z</time>
      </trkpt>
      <trkpt lat="48.37943" lon="2.73338">
        <ele>86.9</ele>
        <time>2023-07-20T09:39:41Z</time>
      </trkpt>
      <trkpt lat="48.37943" lon="2.73338">
        <ele>86.9</ele>
        <time>2023-07-20T09:39:42Z</time>
      </trkpt>
      <trkpt lat="48.37943" lon="2.73338">
        <ele>86.9</ele>
        <time>2023-07-20T09:39:43Z</time>
      </trkpt>
      <trkpt lat="48.37943" lon="2.73338">
        <ele>86.9</ele>
        <time>2023-07-20T09:39:44Z</time>
      </trkpt>
      <trkpt lat="48.37943" lon="2.73339">
        <ele>86.9</ele>
        <time>2023-07-20T09:39:45Z</time>
      </trkpt>
      <trkpt lat="48.37943" lon="2.73339">
        <ele>86.9</ele>
        <time>2023-07-20T09:39:46Z</time>
      </trkpt>
      <trkpt lat="48.37943" lon="2.73339">
        <ele>86.9</ele>
        <time>2023-07-20T09:39:47Z</time>
      </trkpt>
      <trkpt lat="48.37943" lon="2.73339">
        <ele>86.9</ele>
        <time>2023-07-20T09:39:48Z</time>
      </trkpt>
      <trkpt lat="48.37944" lon="2.73339">
        <ele>86.9</ele>
        <time>2023-07-20T09:39:49Z</time>
      </trkpt>
      <trkpt lat="48.37944" lon="2.73339">
        <ele>86.9</ele>
        <time>2023-07-20T09:39:50Z</time>
      </trkpt>
      <trkpt lat="48.37944" lon="2.73339">
        <ele>86.9</ele>
        <time>2023-07-20T09:39:51Z</time>
      </trkpt>
      <trkpt lat="48.37944" lon="2.73339">
        <ele>86.9</ele>
        <time>2023-07-20T09:39:52Z</time>
      </trkpt>
      <trkpt lat="48.37944" lon="2.73339">
        <ele>86.9</ele>
        <time>2023-07-20T09:39:53Z</time>
      </trkpt>
      <trkpt lat="48.37944" lon="2.73339">
        <ele>86.9</ele>
        <time>2023-07-20T09:39:54Z</time>
      </trkpt>
      <trkpt lat="48.37944" lon="2.73339">
        <ele>86.9</ele>
        <time>2023-07-20T09:39:55Z</time>
      </trkpt>
      <trkpt lat="48.37944" lon="2.73339">
        <ele>86.9</ele>
        <time>2023-07-20T09:39:56Z</time>
      </trkpt>
      <trkpt lat="48.37944" lon="2.73339">
        <ele>86.9</ele>
        <time>2023-07-20T09:39:57Z</time>
      </trkpt>
      <trkpt lat="48.37944" lon="2.73339">
        <ele>86.9</ele>
        <time>2023-07-20T09:39:58Z</time>
      </trkpt>
      <trkpt lat="48.37944" lon="2.73339">
        <ele>86.9</ele>
        <time>2023-07-20T09:39:59Z</time>
      </trkpt>
      <trkpt lat="48.37943" lon="2.7334">
        <ele>87</ele>
        <time>2023-07-20T09:40:00Z</time>
      </trkpt>
      <trkpt lat="48.37943" lon="2.7334">
        <ele>87</ele>
        <time>2023-07-20T09:40:01Z</time>
      </trkpt>
      <trkpt lat="48.37943" lon="2.7334">
        <ele>87</ele>
        <time>2023-07-20T09:40:02Z</time>
      </trkpt>
      <trkpt lat="48.37943" lon="2.7334">
        <ele>87</ele>
        <time>2023-07-20T09:40:03Z</time>
      </trkpt>
      <trkpt lat="48.37943" lon="2.7334">
        <ele>87</ele>
        <time>2023-07-20T09:40:04Z</time>
      </trkpt>
      <trkpt lat="48.37943" lon="2.7334">
        <ele>87</ele>
        <time>2023-07-20T09:40:05Z</time>
      </trkpt>
      <trkpt lat="48.37943" lon="2.7334">
        <ele>87</ele>
        <time>2023-07-20T09:40:06Z</time>
      </trkpt>
      <trkpt lat="48.37943" lon="2.7334">
        <ele>87</ele>
        <time>2023-07-20T09:40:07Z</time>
      </trkpt>
      <trkpt lat="48.37943" lon="2.7334">
        <ele>87</ele>
        <time>2023-07-20T09:40:08Z</time>
      </trkpt>
      <trkpt lat="48.37943" lon="2.7334">
        <ele>87</ele>
        <time>2023-07-20T09:40:09Z</time>
      </trkpt>
      <trkpt lat="48.37943" lon="2.7334">
        <ele>87</ele>
        <time>2023-07-20T09:40:10Z</time>
      </trkpt>
      <trkpt lat="48.37943" lon="2.7334">
        <ele>87</ele>
        <time>2023-07-20T09:40:11Z</time>
      </trkpt>
      <trkpt lat="48.37943" lon="2.7334">
        <ele>87</ele>
        <time>2023-07-20T09:40:12Z</time>
      </trkpt>
      <trkpt lat="48.37943" lon="2.7334">
        <ele>87</ele>
        <time>2023-07-20T09:40:13Z</time>
      </trkpt>
      <trkpt lat="48.37943" lon="2.7334">
        <ele>87</ele>
        <time>2023-07-20T09:40:14Z</time>
      </trkpt>
      <trkpt lat="48.37944" lon="2.7334">
        <ele>87</ele>
        <time>2023-07-20T09:40:15Z</time>
      </trkpt>
      <trkpt lat="48.37944" lon="2.7334">
        <ele>87</ele>
        <time>2023-07-20T09:40:16Z</time>
      </trkpt>
      <trkpt lat="48.37944" lon="2.73341">
        <ele>87</ele>
        <time>2023-07-20T09:40:17Z</time>
      </trkpt>
      <trkpt lat="48.37944" lon="2.73342">
        <ele>87</ele>
        <time>2023-07-20T09:40:18Z</time>
      </trkpt>
      <trkpt lat="48.37945" lon="2.73344">
        <ele>87</ele>
        <time>2023-07-20T09:40:19Z</time>
      </trkpt>
      <trkpt lat="48.37945" lon="2.73345">
        <ele>87</ele>
        <time>2023-07-20T09:40:20Z</time>
      </trkpt>
      <trkpt lat="48.37945" lon="2.73347">
        <ele>87.1</ele>
        <time>2023-07-20T09:40:21Z</time>
      </trkpt>
      <trkpt lat="48.37946" lon="2.73348">
        <ele>87.1</ele>
        <time>2023-07-20T09:40:22Z</time>
      </trkpt>
      <trkpt lat="48.37946" lon="2.7335">
        <ele>87.1</ele>
        <time>2023-07-20T09:40:23Z</time>
      </trkpt>
      <trkpt lat="48.37947" lon="2.73353">
        <ele>87.1</ele>
        <time>2023-07-20T09:40:24Z</time>
      </trkpt>
      <trkpt lat="48.37948" lon="2.73355">
        <ele>87.1</ele>
        <time>2023-07-20T09:40:25Z</time>
      </trkpt>
      <trkpt lat="48.37948" lon="2.73357">
        <ele>87.1</ele>
        <time>2023-07-20T09:40:26Z</time>
      </trkpt>
      <trkpt lat="48.37949" lon="2.7336">
        <ele>87.1</ele>
        <time>2023-07-20T09:40:27Z</time>
      </trkpt>
      <trkpt lat="48.3795" lon="2.73361">
        <ele>87.4</ele>
        <time>2023-07-20T09:40:28Z</time>
      </trkpt>
      <trkpt lat="48.37951" lon="2.73363">
        <ele>87.4</ele>
        <time>2023-07-20T09:40:29Z</time>
      </trkpt>
      <trkpt lat="48.37951" lon="2.73364">
        <ele>87.4</ele>
        <time>2023-07-20T09:40:30Z</time>
      </trkpt>
      <trkpt lat="48.37951" lon="2.73364">
        <ele>87.4</ele>
        <time>2023-07-20T09:40:31Z</time>
      </trkpt>
      <trkpt lat="48.37951" lon="2.73364">
        <ele>87.4</ele>
        <time>2023-07-20T09:40:32Z</time>
      </trkpt>
      <trkpt lat="48.37951" lon="2.73365">
        <ele>87.4</ele>
        <time>2023-07-20T09:40:33Z</time>
      </trkpt>
      <trkpt lat="48.37951" lon="2.73366">
        <ele>87.4</ele>
        <time>2023-07-20T09:40:34Z</time>
      </trkpt>
      <trkpt lat="48.37952" lon="2.73366">
        <ele>87.4</ele>
        <time>2023-07-20T09:40:35Z</time>
      </trkpt>
      <trkpt lat="48.37951" lon="2.73367">
        <ele>87.4</ele>
        <time>2023-07-20T09:40:36Z</time>
      </trkpt>
      <trkpt lat="48.37951" lon="2.73368">
        <ele>87.4</ele>
        <time>2023-07-20T09:40:37Z</time>
      </trkpt>
      <trkpt lat="48.3795" lon="2.73368">
        <ele>87.4</ele>
        <time>2023-07-20T09:40:38Z</time>
      </trkpt>
      <trkpt lat="48.3795" lon="2.73369">
        <ele>87.4</ele>
        <time>2023-07-20T09:40:39Z</time>
      </trkpt>
      <trkpt lat="48.37951" lon="2.7337">
        <ele>87.4</ele>
        <time>2023-07-20T09:40:40Z</time>
      </trkpt>
      <trkpt lat="48.3795" lon="2.73371">
        <ele>87.5</ele>
        <time>2023-07-20T09:40:41Z</time>
      </trkpt>
      <trkpt lat="48.37949" lon="2.73372">
        <ele>87.5</ele>
        <time>2023-07-20T09:40:42Z</time>
      </trkpt>
      <trkpt lat="48.37949" lon="2.73373">
        <ele>87.5</ele>
        <time>2023-07-20T09:40:43Z</time>
      </trkpt>
      <trkpt lat="48.37948" lon="2.73374">
        <ele>87.5</ele>
        <time>2023-07-20T09:40:44Z</time>
      </trkpt>
      <trkpt lat="48.37948" lon="2.73375">
        <ele>87.5</ele>
        <time>2023-07-20T09:40:45Z</time>
      </trkpt>
      <trkpt lat="48.37947" lon="2.73375">
        <ele>87.5</ele>
        <time>2023-07-20T09:40:46Z</time>
      </trkpt>
      <trkpt lat="48.37946" lon="2.73376">
        <ele>87.4</ele>
        <time>2023-07-20T09:40:47Z</time>
      </trkpt>
      <trkpt lat="48.37945" lon="2.73376">
        <ele>87.4</ele>
        <time>2023-07-20T09:40:48Z</time>
      </trkpt>
      <trkpt lat="48.37944" lon="2.73377">
        <ele>87.4</ele>
        <time>2023-07-20T09:40:49Z</time>
      </trkpt>
      <trkpt lat="48.37943" lon="2.73378">
        <ele>87.4</ele>
        <time>2023-07-20T09:40:50Z</time>
      </trkpt>
      <trkpt lat="48.37942" lon="2.73379">
        <ele>87.4</ele>
        <time>2023-07-20T09:40:51Z</time>
      </trkpt>
      <trkpt lat="48.37941" lon="2.73379">
        <ele>87.4</ele>
        <time>2023-07-20T09:40:52Z</time>
      </trkpt>
      <trkpt lat="48.3794" lon="2.7338">
        <ele>87.4</ele>
        <time>2023-07-20T09:40:53Z</time>
      </trkpt>
      <trkpt lat="48.37939" lon="2.73382">
        <ele>87.4</ele>
        <time>2023-07-20T09:40:54Z</time>
      </trkpt>
      <trkpt lat="48.37938" lon="2.73385">
        <ele>87.4</ele>
        <time>2023-07-20T09:40:55Z</time>
      </trkpt>
      <trkpt lat="48.37938" lon="2.73386">
        <ele>87.4</ele>
        <time>2023-07-20T09:40:56Z</time>
      </trkpt>
      <trkpt lat="48.37937" lon="2.73387">
        <ele>87.4</ele>
        <time>2023-07-20T09:40:57Z</time>
      </trkpt>
      <trkpt lat="48.37938" lon="2.73388">
        <ele>87.4</ele>
        <time>2023-07-20T09:40:58Z</time>
      </trkpt>
      <trkpt lat="48.37938" lon="2.73389">
        <ele>87.4</ele>
        <time>2023-07-20T09:40:59Z</time>
      </trkpt>
      <trkpt lat="48.37938" lon="2.73389">
        <ele>87.4</ele>
        <time>2023-07-20T09:41:00Z</time>
      </trkpt>
      <trkpt lat="48.37939" lon="2.73391">
        <ele>87.4</ele>
        <time>2023-07-20T09:41:01Z</time>
      </trkpt>
      <trkpt lat="48.37939" lon="2.73394">
        <ele>87.4</ele>
        <time>2023-07-20T09:41:02Z</time>
      </trkpt>
      <trkpt lat="48.37939" lon="2.73395">
        <ele>87.3</ele>
        <time>2023-07-20T09:41:03Z</time>
      </trkpt>
      <trkpt lat="48.37939" lon="2.73397">
        <ele>87.3</ele>
        <time>2023-07-20T09:41:04Z</time>
      </trkpt>
      <trkpt lat="48.3794" lon="2.73401">
        <ele>87.3</ele>
        <time>2023-07-20T09:41:05Z</time>
      </trkpt>
      <trkpt lat="48.3794" lon="2.73402">
        <ele>87.3</ele>
        <time>2023-07-20T09:41:06Z</time>
      </trkpt>
      <trkpt lat="48.3794" lon="2.73404">
        <ele>87.3</ele>
        <time>2023-07-20T09:41:07Z</time>
      </trkpt>
      <trkpt lat="48.3794" lon="2.73405">
        <ele>87.3</ele>
        <time>2023-07-20T09:41:08Z</time>
      </trkpt>
      <trkpt lat="48.3794" lon="2.73407">
        <ele>87.3</ele>
        <time>2023-07-20T09:41:09Z</time>
      </trkpt>
      <trkpt lat="48.3794" lon="2.73409">
        <ele>87.3</ele>
        <time>2023-07-20T09:41:10Z</time>
      </trkpt>
      <trkpt lat="48.3794" lon="2.7341">
        <ele>87.3</ele>
        <time>2023-07-20T09:41:11Z</time>
      </trkpt>
      <trkpt lat="48.3794" lon="2.73411">
        <ele>87.3</ele>
        <time>2023-07-20T09:41:12Z</time>
      </trkpt>
      <trkpt lat="48.37939" lon="2.73412">
        <ele>87.3</ele>
        <time>2023-07-20T09:41:13Z</time>
      </trkpt>
      <trkpt lat="48.37939" lon="2.73414">
        <ele>87.3</ele>
        <time>2023-07-20T09:41:14Z</time>
      </trkpt>
      <trkpt lat="48.37938" lon="2.73414">
        <ele>87.3</ele>
        <time>2023-07-20T09:41:15Z</time>
      </trkpt>
      <trkpt lat="48.37938" lon="2.73415">
        <ele>87.3</ele>
        <time>2023-07-20T09:41:16Z</time>
      </trkpt>
      <trkpt lat="48.37938" lon="2.73416">
        <ele>87.3</ele>
        <time>2023-07-20T09:41:17Z</time>
      </trkpt>
      <trkpt lat="48.37937" lon="2.73417">
        <ele>87.3</ele>
        <time>2023-07-20T09:41:18Z</time>
      </trkpt>
      <trkpt lat="48.37937" lon="2.73418">
        <ele>87.3</ele>
        <time>2023-07-20T09:41:19Z</time>
      </trkpt>
      <trkpt lat="48.37937" lon="2.7342">
        <ele>87.4</ele>
        <time>2023-07-20T09:41:20Z</time>
      </trkpt>
      <trkpt lat="48.37936" lon="2.73422">
        <ele>87.4</ele>
        <time>2023-07-20T09:41:21Z</time>
      </trkpt>
      <trkpt lat="48.37936" lon="2.73423">
        <ele>87.4</ele>
        <time>2023-07-20T09:41:22Z</time>
      </trkpt>
      <trkpt lat="48.37936" lon="2.73425">
        <ele>87.4</ele>
        <time>2023-07-20T09:41:23Z</time>
      </trkpt>
      <trkpt lat="48.37935" lon="2.73427">
        <ele>87.4</ele>
        <time>2023-07-20T09:41:24Z</time>
      </trkpt>
      <trkpt lat="48.37936" lon="2.73429">
        <ele>87.4</ele>
        <time>2023-07-20T09:41:25Z</time>
      </trkpt>
      <trkpt lat="48.37936" lon="2.7343">
        <ele>87.4</ele>
        <time>2023-07-20T09:41:26Z</time>
      </trkpt>
      <trkpt lat="48.37936" lon="2.73432">
        <ele>87.4</ele>
        <time>2023-07-20T09:41:27Z</time>
      </trkpt>
      <trkpt lat="48.37937" lon="2.73434">
        <ele>87.4</ele>
        <time>2023-07-20T09:41:28Z</time>
      </trkpt>
      <trkpt lat="48.37937" lon="2.73435">
        <ele>87.4</ele>
        <time>2023-07-20T09:41:29Z</time>
      </trkpt>
      <trkpt lat="48.37936" lon="2.73436">
        <ele>87.4</ele>
        <time>2023-07-20T09:41:30Z</time>
      </trkpt>
      <trkpt lat="48.37935" lon="2.73438">
        <ele>87.4</ele>
        <time>2023-07-20T09:41:31Z</time>
      </trkpt>
      <trkpt lat="48.37935" lon="2.73439">
        <ele>87.4</ele>
        <time>2023-07-20T09:41:32Z</time>
      </trkpt>
      <trkpt lat="48.37935" lon="2.73441">
        <ele>87.4</ele>
        <time>2023-07-20T09:41:33Z</time>
      </trkpt>
      <trkpt lat="48.37935" lon="2.73442">
        <ele>87.4</ele>
        <time>2023-07-20T09:41:34Z</time>
      </trkpt>
      <trkpt lat="48.37936" lon="2.73445">
        <ele>87.4</ele>
        <time>2023-07-20T09:41:35Z</time>
      </trkpt>
      <trkpt lat="48.37936" lon="2.73447">
        <ele>87.4</ele>
        <time>2023-07-20T09:41:36Z</time>
      </trkpt>
      <trkpt lat="48.37936" lon="2.73449">
        <ele>87.4</ele>
        <time>2023-07-20T09:41:37Z</time>
      </trkpt>
      <trkpt lat="48.37936" lon="2.7345">
        <ele>87.4</ele>
        <time>2023-07-20T09:41:38Z</time>
      </trkpt>
      <trkpt lat="48.37936" lon="2.73451">
        <ele>87.4</ele>
        <time>2023-07-20T09:41:39Z</time>
      </trkpt>
      <trkpt lat="48.37934" lon="2.73453">
        <ele>87.4</ele>
        <time>2023-07-20T09:41:40Z</time>
      </trkpt>
      <trkpt lat="48.37934" lon="2.73455">
        <ele>87.4</ele>
        <time>2023-07-20T09:41:41Z</time>
      </trkpt>
      <trkpt lat="48.37934" lon="2.73456">
        <ele>87.5</ele>
        <time>2023-07-20T09:41:42Z</time>
      </trkpt>
      <trkpt lat="48.37934" lon="2.73458">
        <ele>87.5</ele>
        <time>2023-07-20T09:41:43Z</time>
      </trkpt>
      <trkpt lat="48.37933" lon="2.73459">
        <ele>87.5</ele>
        <time>2023-07-20T09:41:44Z</time>
      </trkpt>
      <trkpt lat="48.37933" lon="2.7346">
        <ele>87.5</ele>
        <time>2023-07-20T09:41:45Z</time>
      </trkpt>
      <trkpt lat="48.37932" lon="2.73462">
        <ele>87.5</ele>
        <time>2023-07-20T09:41:46Z</time>
      </trkpt>
      <trkpt lat="48.37931" lon="2.73465">
        <ele>87.5</ele>
        <time>2023-07-20T09:41:47Z</time>
      </trkpt>
      <trkpt lat="48.37931" lon="2.73466">
        <ele>87.5</ele>
        <time>2023-07-20T09:41:48Z</time>
      </trkpt>
      <trkpt lat="48.3793" lon="2.73467">
        <ele>87.5</ele>
        <time>2023-07-20T09:41:49Z</time>
      </trkpt>
      <trkpt lat="48.37929" lon="2.73469">
        <ele>87.5</ele>
        <time>2023-07-20T09:41:50Z</time>
      </trkpt>
      <trkpt lat="48.37929" lon="2.73471">
        <ele>87.5</ele>
        <time>2023-07-20T09:41:51Z</time>
      </trkpt>
      <trkpt lat="48.37928" lon="2.73472">
        <ele>87.5</ele>
        <time>2023-07-20T09:41:52Z</time>
      </trkpt>
      <trkpt lat="48.37928" lon="2.73474">
        <ele>87.5</ele>
        <time>2023-07-20T09:41:53Z</time>
      </trkpt>
      <trkpt lat="48.37927" lon="2.73475">
        <ele>87.6</ele>
        <time>2023-07-20T09:41:54Z</time>
      </trkpt>
      <trkpt lat="48.37927" lon="2.73477">
        <ele>87.6</ele>
        <time>2023-07-20T09:41:55Z</time>
      </trkpt>
      <trkpt lat="48.37927" lon="2.73479">
        <ele>87.6</ele>
        <time>2023-07-20T09:41:56Z</time>
      </trkpt>
      <trkpt lat="48.37927" lon="2.73481">
        <ele>87.6</ele>
        <time>2023-07-20T09:41:57Z</time>
      </trkpt>
      <trkpt lat="48.37927" lon="2.73483">
        <ele>87.6</ele>
        <time>2023-07-20T09:41:58Z</time>
      </trkpt>
      <trkpt lat="48.37927" lon="2.73485">
        <ele>87.6</ele>
        <time>2023-07-20T09:41:59Z</time>
      </trkpt>
      <trkpt lat="48.37927" lon="2.73486">
        <ele>87.6</ele>
        <time>2023-07-20T09:42:00Z</time>
      </trkpt>
      <trkpt lat="48.37927" lon="2.73488">
        <ele>87.6</ele>
        <time>2023-07-20T09:42:01Z</time>
      </trkpt>
      <trkpt lat="48.37927" lon="2.73489">
        <ele>87.6</ele>
        <time>2023-07-20T09:42:02Z</time>
      </trkpt>
      <trkpt lat="48.37927" lon="2.7349">
        <ele>87.6</ele>
        <time>2023-07-20T09:42:03Z</time>
      </trkpt>
      <trkpt lat="48.37926" lon="2.73491">
        <ele>87.6</ele>
        <time>2023-07-20T09:42:04Z</time>
      </trkpt>
      <trkpt lat="48.37926" lon="2.73492">
        <ele>87.6</ele>
        <time>2023-07-20T09:42:05Z</time>
      </trkpt>
      <trkpt lat="48.37927" lon="2.73493">
        <ele>87.6</ele>
        <time>2023-07-20T09:42:06Z</time>
      </trkpt>
      <trkpt lat="48.37927" lon="2.73494">
        <ele>87.6</ele>
        <time>2023-07-20T09:42:07Z</time>
      </trkpt>
      <trkpt lat="48.37928" lon="2.73494">
        <ele>87.7</ele>
        <time>2023-07-20T09:42:08Z</time>
      </trkpt>
      <trkpt lat="48.37928" lon="2.73494">
        <ele>87.7</ele>
        <time>2023-07-20T09:42:09Z</time>
      </trkpt>
      <trkpt lat="48.37928" lon="2.73495">
        <ele>87.7</ele>
        <time>2023-07-20T09:42:10Z</time>
      </trkpt>
      <trkpt lat="48.37928" lon="2.73497">
        <ele>87.7</ele>
        <time>2023-07-20T09:42:11Z</time>
      </trkpt>
      <trkpt lat="48.37928" lon="2.73499">
        <ele>87.7</ele>
        <time>2023-07-20T09:42:12Z</time>
      </trkpt>
      <trkpt lat="48.37927" lon="2.73498">
        <ele>87.7</ele>
        <time>2023-07-20T09:42:13Z</time>
      </trkpt>
      <trkpt lat="48.37926" lon="2.735">
        <ele>87.7</ele>
        <time>2023-07-20T09:42:14Z</time>
      </trkpt>
      <trkpt lat="48.37925" lon="2.73501">
        <ele>87.7</ele>
        <time>2023-07-20T09:42:15Z</time>
      </trkpt>
      <trkpt lat="48.37924" lon="2.73502">
        <ele>87.7</ele>
        <time>2023-07-20T09:42:16Z</time>
      </trkpt>
      <trkpt lat="48.37923" lon="2.73504">
        <ele>87.7</ele>
        <time>2023-07-20T09:42:17Z</time>
      </trkpt>
      <trkpt lat="48.37923" lon="2.73505">
        <ele>87.7</ele>
        <time>2023-07-20T09:42:18Z</time>
      </trkpt>
      <trkpt lat="48.37922" lon="2.73507">
        <ele>87.7</ele>
        <time>2023-07-20T09:42:19Z</time>
      </trkpt>
      <trkpt lat="48.37922" lon="2.73509">
        <ele>87.7</ele>
        <time>2023-07-20T09:42:20Z</time>
      </trkpt>
      <trkpt lat="48.37922" lon="2.73511">
        <ele>87.7</ele>
        <time>2023-07-20T09:42:21Z</time>
      </trkpt>
      <trkpt lat="48.37922" lon="2.73515">
        <ele>87.7</ele>
        <time>2023-07-20T09:42:22Z</time>
      </trkpt>
      <trkpt lat="48.37922" lon="2.73516">
        <ele>87.7</ele>
        <time>2023-07-20T09:42:23Z</time>
      </trkpt>
      <trkpt lat="48.37922" lon="2.73518">
        <ele>87.7</ele>
        <time>2023-07-20T09:42:24Z</time>
      </trkpt>
      <trkpt lat="48.37921" lon="2.7352">
        <ele>87.7</ele>
        <time>2023-07-20T09:42:25Z</time>
      </trkpt>
      <trkpt lat="48.37921" lon="2.73521">
        <ele>87.7</ele>
        <time>2023-07-20T09:42:26Z</time>
      </trkpt>
      <trkpt lat="48.37921" lon="2.73522">
        <ele>87.7</ele>
        <time>2023-07-20T09:42:27Z</time>
      </trkpt>
      <trkpt lat="48.37921" lon="2.73523">
        <ele>87.7</ele>
        <time>2023-07-20T09:42:28Z</time>
      </trkpt>
      <trkpt lat="48.3792" lon="2.73525">
        <ele>87.7</ele>
        <time>2023-07-20T09:42:29Z</time>
      </trkpt>
      <trkpt lat="48.3792" lon="2.73526">
        <ele>87.7</ele>
        <time>2023-07-20T09:42:30Z</time>
      </trkpt>
      <trkpt lat="48.3792" lon="2.73528">
        <ele>87.7</ele>
        <time>2023-07-20T09:42:31Z</time>
      </trkpt>
      <trkpt lat="48.3792" lon="2.73531">
        <ele>87.6</ele>
        <time>2023-07-20T09:42:32Z</time>
      </trkpt>
      <trkpt lat="48.3792" lon="2.73532">
        <ele>87.6</ele>
        <time>2023-07-20T09:42:33Z</time>
      </trkpt>
      <trkpt lat="48.3792" lon="2.73533">
        <ele>87.6</ele>
        <time>2023-07-20T09:42:34Z</time>
      </trkpt>
      <trkpt lat="48.37919" lon="2.73536">
        <ele>87.6</ele>
        <time>2023-07-20T09:42:35Z</time>
      </trkpt>
      <trkpt lat="48.37919" lon="2.73537">
        <ele>87.6</ele>
        <time>2023-07-20T09:42:36Z</time>
      </trkpt>
      <trkpt lat="48.37919" lon="2.73538">
        <ele>87.6</ele>
        <time>2023-07-20T09:42:37Z</time>
      </trkpt>
      <trkpt lat="48.37919" lon="2.7354">
        <ele>87.6</ele>
        <time>2023-07-20T09:42:38Z</time>
      </trkpt>
      <trkpt lat="48.37919" lon="2.73541">
        <ele>87.6</ele>
        <time>2023-07-20T09:42:39Z</time>
      </trkpt>
      <trkpt lat="48.37919" lon="2.73543">
        <ele>87.6</ele>
        <time>2023-07-20T09:42:40Z</time>
      </trkpt>
      <trkpt lat="48.37919" lon="2.73544">
        <ele>87.6</ele>
        <time>2023-07-20T09:42:41Z</time>
      </trkpt>
      <trkpt lat="48.37919" lon="2.73545">
        <ele>87.6</ele>
        <time>2023-07-20T09:42:42Z</time>
      </trkpt>
      <trkpt lat="48.37919" lon="2.73546">
        <ele>87.6</ele>
        <time>2023-07-20T09:42:43Z</time>
      </trkpt>
      <trkpt lat="48.37918" lon="2.73549">
        <ele>87.6</ele>
        <time>2023-07-20T09:42:44Z</time>
      </trkpt>
      <trkpt lat="48.37917" lon="2.73551">
        <ele>87.6</ele>
        <time>2023-07-20T09:42:45Z</time>
      </trkpt>
      <trkpt lat="48.37917" lon="2.73553">
        <ele>87.6</ele>
        <time>2023-07-20T09:42:46Z</time>
      </trkpt>
      <trkpt lat="48.37917" lon="2.73556">
        <ele>87.6</ele>
        <time>2023-07-20T09:42:47Z</time>
      </trkpt>
      <trkpt lat="48.37917" lon="2.73558">
        <ele>87.6</ele>
        <time>2023-07-20T09:42:48Z</time>
      </trkpt>
      <trkpt lat="48.37917" lon="2.73561">
        <ele>87.6</ele>
        <time>2023-07-20T09:42:49Z</time>
      </trkpt>
      <trkpt lat="48.37916" lon="2.73562">
        <ele>87.6</ele>
        <time>2023-07-20T09:42:50Z</time>
      </trkpt>
      <trkpt lat="48.37916" lon="2.73563">
        <ele>87.6</ele>
        <time>2023-07-20T09:42:51Z</time>
      </trkpt>
      <trkpt lat="48.37916" lon="2.73565">
        <ele>87.7</ele>
        <time>2023-07-20T09:42:52Z</time>
      </trkpt>
      <trkpt lat="48.37916" lon="2.73567">
        <ele>87.7</ele>
        <time>2023-07-20T09:42:53Z</time>
      </trkpt>
      <trkpt lat="48.37915" lon="2.73568">
        <ele>87.7</ele>
        <time>2023-07-20T09:42:54Z</time>
      </trkpt>
      <trkpt lat="48.37915" lon="2.73569">
        <ele>87.7</ele>
        <time>2023-07-20T09:42:55Z</time>
      </trkpt>
      <trkpt lat="48.37915" lon="2.7357">
        <ele>87.7</ele>
        <time>2023-07-20T09:42:56Z</time>
      </trkpt>
      <trkpt lat="48.37915" lon="2.73571">
        <ele>87.7</ele>
        <time>2023-07-20T09:42:57Z</time>
      </trkpt>
      <trkpt lat="48.37915" lon="2.73573">
        <ele>87.7</ele>
        <time>2023-07-20T09:42:58Z</time>
      </trkpt>
      <trkpt lat="48.37915" lon="2.73575">
        <ele>87.7</ele>
        <time>2023-07-20T09:42:59Z</time>
      </trkpt>
      <trkpt lat="48.37914" lon="2.73576">
        <ele>87.7</ele>
        <time>2023-07-20T09:43:00Z</time>
      </trkpt>
      <trkpt lat="48.37913" lon="2.73577">
        <ele>87.7</ele>
        <time>2023-07-20T09:43:01Z</time>
      </trkpt>
      <trkpt lat="48.37912" lon="2.7358">
        <ele>87.7</ele>
        <time>2023-07-20T09:43:02Z</time>
      </trkpt>
      <trkpt lat="48.37911" lon="2.73581">
        <ele>87.7</ele>
        <time>2023-07-20T09:43:03Z</time>
      </trkpt>
      <trkpt lat="48.37911" lon="2.73582">
        <ele>87.7</ele>
        <time>2023-07-20T09:43:04Z</time>
      </trkpt>
      <trkpt lat="48.3791" lon="2.73584">
        <ele>87.7</ele>
        <time>2023-07-20T09:43:05Z</time>
      </trkpt>
      <trkpt lat="48.37909" lon="2.73585">
        <ele>87.7</ele>
        <time>2023-07-20T09:43:06Z</time>
      </trkpt>
      <trkpt lat="48.37908" lon="2.73586">
        <ele>87.7</ele>
        <time>2023-07-20T09:43:07Z</time>
      </trkpt>
      <trkpt lat="48.37908" lon="2.73588">
        <ele>87.7</ele>
        <time>2023-07-20T09:43:08Z</time>
      </trkpt>
      <trkpt lat="48.37907" lon="2.73589">
        <ele>87.7</ele>
        <time>2023-07-20T09:43:09Z</time>
      </trkpt>
      <trkpt lat="48.37907" lon="2.7359">
        <ele>87.7</ele>
        <time>2023-07-20T09:43:10Z</time>
      </trkpt>
      <trkpt lat="48.37906" lon="2.73592">
        <ele>87.8</ele>
        <time>2023-07-20T09:43:11Z</time>
      </trkpt>
      <trkpt lat="48.37906" lon="2.73593">
        <ele>87.8</ele>
        <time>2023-07-20T09:43:12Z</time>
      </trkpt>
      <trkpt lat="48.37905" lon="2.73595">
        <ele>87.8</ele>
        <time>2023-07-20T09:43:13Z</time>
      </trkpt>
      <trkpt lat="48.37904" lon="2.73596">
        <ele>87.8</ele>
        <time>2023-07-20T09:43:14Z</time>
      </trkpt>
      <trkpt lat="48.37904" lon="2.73599">
        <ele>87.8</ele>
        <time>2023-07-20T09:43:15Z</time>
      </trkpt>
      <trkpt lat="48.37904" lon="2.736">
        <ele>87.8</ele>
        <time>2023-07-20T09:43:16Z</time>
      </trkpt>
      <trkpt lat="48.37904" lon="2.73601">
        <ele>87.8</ele>
        <time>2023-07-20T09:43:17Z</time>
      </trkpt>
      <trkpt lat="48.37904" lon="2.73602">
        <ele>87.8</ele>
        <time>2023-07-20T09:43:18Z</time>
      </trkpt>
      <trkpt lat="48.37904" lon="2.73607">
        <ele>87.8</ele>
        <time>2023-07-20T09:43:19Z</time>
      </trkpt>
      <trkpt lat="48.37904" lon="2.73608">
        <ele>87.8</ele>
        <time>2023-07-20T09:43:20Z</time>
      </trkpt>
      <trkpt lat="48.37902" lon="2.73612">
        <ele>87.9</ele>
        <time>2023-07-20T09:43:21Z</time>
      </trkpt>
      <trkpt lat="48.37902" lon="2.73613">
        <ele>87.9</ele>
        <time>2023-07-20T09:43:22Z</time>
      </trkpt>
      <trkpt lat="48.37902" lon="2.73616">
        <ele>87.9</ele>
        <time>2023-07-20T09:43:23Z</time>
      </trkpt>
      <trkpt lat="48.37902" lon="2.73618">
        <ele>87.9</ele>
        <time>2023-07-20T09:43:24Z</time>
      </trkpt>
      <trkpt lat="48.37901" lon="2.73621">
        <ele>87.9</ele>
        <time>2023-07-20T09:43:25Z</time>
      </trkpt>
      <trkpt lat="48.37901" lon="2.73623">
        <ele>87.9</ele>
        <time>2023-07-20T09:43:26Z</time>
      </trkpt>
      <trkpt lat="48.379" lon="2.73625">
        <ele>87.9</ele>
        <time>2023-07-20T09:43:27Z</time>
      </trkpt>
      <trkpt lat="48.379" lon="2.73626">
        <ele>87.9</ele>
        <time>2023-07-20T09:43:28Z</time>
      </trkpt>
      <trkpt lat="48.379" lon="2.73627">
        <ele>87.9</ele>
        <time>2023-07-20T09:43:29Z</time>
      </trkpt>
      <trkpt lat="48.37899" lon="2.73627">
        <ele>87.9</ele>
        <time>2023-07-20T09:43:30Z</time>
      </trkpt>
      <trkpt lat="48.37899" lon="2.73629">
        <ele>88</ele>
        <time>2023-07-20T09:43:31Z</time>
      </trkpt>
      <trkpt lat="48.37899" lon="2.73631">
        <ele>88</ele>
        <time>2023-07-20T09:43:32Z</time>
      </trkpt>
      <trkpt lat="48.37899" lon="2.73632">
        <ele>88</ele>
        <time>2023-07-20T09:43:33Z</time>
      </trkpt>
      <trkpt lat="48.37898" lon="2.73634">
        <ele>88</ele>
        <time>2023-07-20T09:43:34Z</time>
      </trkpt>
      <trkpt lat="48.37898" lon="2.73635">
        <ele>88</ele>
        <time>2023-07-20T09:43:35Z</time>
      </trkpt>
      <trkpt lat="48.37898" lon="2.73637">
        <ele>88</ele>
        <time>2023-07-20T09:43:36Z</time>
      </trkpt>
      <trkpt lat="48.37897" lon="2.73638">
        <ele>88</ele>
        <time>2023-07-20T09:43:37Z</time>
      </trkpt>
      <trkpt lat="48.37897" lon="2.73639">
        <ele>88</ele>
        <time>2023-07-20T09:43:38Z</time>
      </trkpt>
      <trkpt lat="48.37897" lon="2.73641">
        <ele>88.1</ele>
        <time>2023-07-20T09:43:39Z</time>
      </trkpt>
      <trkpt lat="48.37896" lon="2.73642">
        <ele>88.1</ele>
        <time>2023-07-20T09:43:40Z</time>
      </trkpt>
      <trkpt lat="48.37896" lon="2.73643">
        <ele>88.1</ele>
        <time>2023-07-20T09:43:41Z</time>
      </trkpt>
      <trkpt lat="48.37896" lon="2.73645">
        <ele>88.1</ele>
        <time>2023-07-20T09:43:42Z</time>
      </trkpt>
      <trkpt lat="48.37896" lon="2.73646">
        <ele>88.1</ele>
        <time>2023-07-20T09:43:43Z</time>
      </trkpt>
      <trkpt lat="48.37896" lon="2.73649">
        <ele>88.1</ele>
        <time>2023-07-20T09:43:44Z</time>
      </trkpt>
      <trkpt lat="48.37896" lon="2.7365">
        <ele>88.1</ele>
        <time>2023-07-20T09:43:45Z</time>
      </trkpt>
      <trkpt lat="48.37896" lon="2.73651">
        <ele>88.1</ele>
        <time>2023-07-20T09:43:46Z</time>
      </trkpt>
      <trkpt lat="48.37896" lon="2.73652">
        <ele>88.1</ele>
        <time>2023-07-20T09:43:47Z</time>
      </trkpt>
      <trkpt lat="48.37895" lon="2.73655">
        <ele>88.2</ele>
        <time>2023-07-20T09:43:48Z</time>
      </trkpt>
      <trkpt lat="48.37895" lon="2.73657">
        <ele>88.2</ele>
        <time>2023-07-20T09:43:49Z</time>
      </trkpt>
      <trkpt lat="48.37894" lon="2.7366">
        <ele>88.2</ele>
        <time>2023-07-20T09:43:50Z</time>
      </trkpt>
      <trkpt lat="48.37894" lon="2.73661">
        <ele>88.2</ele>
        <time>2023-07-20T09:43:51Z</time>
      </trkpt>
      <trkpt lat="48.37893" lon="2.73662">
        <ele>88.2</ele>
        <time>2023-07-20T09:43:52Z</time>
      </trkpt>
      <trkpt lat="48.37893" lon="2.73664">
        <ele>88.2</ele>
        <time>2023-07-20T09:43:53Z</time>
      </trkpt>
      <trkpt lat="48.37892" lon="2.73665">
        <ele>88.2</ele>
        <time>2023-07-20T09:43:54Z</time>
      </trkpt>
      <trkpt lat="48.37892" lon="2.73666">
        <ele>88.2</ele>
        <time>2023-07-20T09:43:55Z</time>
      </trkpt>
      <trkpt lat="48.37891" lon="2.73667">
        <ele>88.2</ele>
        <time>2023-07-20T09:43:56Z</time>
      </trkpt>
      <trkpt lat="48.3789" lon="2.73669">
        <ele>88.2</ele>
        <time>2023-07-20T09:43:57Z</time>
      </trkpt>
      <trkpt lat="48.3789" lon="2.73671">
        <ele>88.3</ele>
        <time>2023-07-20T09:43:58Z</time>
      </trkpt>
      <trkpt lat="48.3789" lon="2.73672">
        <ele>88.3</ele>
        <time>2023-07-20T09:43:59Z</time>
      </trkpt>
      <trkpt lat="48.3789" lon="2.73673">
        <ele>88.3</ele>
        <time>2023-07-20T09:44:00Z</time>
      </trkpt>
      <trkpt lat="48.37889" lon="2.73675">
        <ele>88.3</ele>
        <time>2023-07-20T09:44:01Z</time>
      </trkpt>
      <trkpt lat="48.37889" lon="2.73676">
        <ele>88.3</ele>
        <time>2023-07-20T09:44:02Z</time>
      </trkpt>
      <trkpt lat="48.37889" lon="2.73678">
        <ele>88.3</ele>
        <time>2023-07-20T09:44:03Z</time>
      </trkpt>
      <trkpt lat="48.37889" lon="2.7368">
        <ele>88.3</ele>
        <time>2023-07-20T09:44:04Z</time>
      </trkpt>
      <trkpt lat="48.37889" lon="2.73681">
        <ele>88.3</ele>
        <time>2023-07-20T09:44:05Z</time>
      </trkpt>
      <trkpt lat="48.37888" lon="2.73685">
        <ele>88.3</ele>
        <time>2023-07-20T09:44:06Z</time>
      </trkpt>
      <trkpt lat="48.37888" lon="2.73686">
        <ele>88.3</ele>
        <time>2023-07-20T09:44:07Z</time>
      </trkpt>
      <trkpt lat="48.37887" lon="2.7369">
        <ele>88.3</ele>
        <time>2023-07-20T09:44:08Z</time>
      </trkpt>
      <trkpt lat="48.37888" lon="2.73691">
        <ele>88.3</ele>
        <time>2023-07-20T09:44:09Z</time>
      </trkpt>
      <trkpt lat="48.37888" lon="2.73692">
        <ele>88.3</ele>
        <time>2023-07-20T09:44:10Z</time>
      </trkpt>
      <trkpt lat="48.37887" lon="2.73694">
        <ele>88.3</ele>
        <time>2023-07-20T09:44:11Z</time>
      </trkpt>
      <trkpt lat="48.37887" lon="2.73695">
        <ele>88.3</ele>
        <time>2023-07-20T09:44:12Z</time>
      </trkpt>
      <trkpt lat="48.37887" lon="2.73697">
        <ele>88.3</ele>
        <time>2023-07-20T09:44:13Z</time>
      </trkpt>
      <trkpt lat="48.37886" lon="2.73699">
        <ele>88.3</ele>
        <time>2023-07-20T09:44:14Z</time>
      </trkpt>
      <trkpt lat="48.37885" lon="2.73699">
        <ele>88.3</ele>
        <time>2023-07-20T09:44:15Z</time>
      </trkpt>
      <trkpt lat="48.37885" lon="2.737">
        <ele>88.3</ele>
        <time>2023-07-20T09:44:16Z</time>
      </trkpt>
      <trkpt lat="48.37885" lon="2.73701">
        <ele>88.3</ele>
        <time>2023-07-20T09:44:17Z</time>
      </trkpt>
      <trkpt lat="48.37885" lon="2.73702">
        <ele>88.3</ele>
        <time>2023-07-20T09:44:18Z</time>
      </trkpt>
      <trkpt lat="48.37884" lon="2.73703">
        <ele>88.3</ele>
        <time>2023-07-20T09:44:19Z</time>
      </trkpt>
      <trkpt lat="48.37884" lon="2.73705">
        <ele>88.3</ele>
        <time>2023-07-20T09:44:20Z</time>
      </trkpt>
      <trkpt lat="48.37884" lon="2.73706">
        <ele>88.3</ele>
        <time>2023-07-20T09:44:21Z</time>
      </trkpt>
      <trkpt lat="48.37883" lon="2.73707">
        <ele>88.3</ele>
        <time>2023-07-20T09:44:22Z</time>
      </trkpt>
      <trkpt lat="48.37883" lon="2.73709">
        <ele>88.3</ele>
        <time>2023-07-20T09:44:23Z</time>
      </trkpt>
      <trkpt lat="48.37883" lon="2.73712">
        <ele>88.3</ele>
        <time>2023-07-20T09:44:24Z</time>
      </trkpt>
      <trkpt lat="48.37883" lon="2.73713">
        <ele>88.4</ele>
        <time>2023-07-20T09:44:25Z</time>
      </trkpt>
      <trkpt lat="48.37883" lon="2.73714">
        <ele>88.4</ele>
        <time>2023-07-20T09:44:26Z</time>
      </trkpt>
      <trkpt lat="48.37883" lon="2.73716">
        <ele>88.4</ele>
        <time>2023-07-20T09:44:27Z</time>
      </trkpt>
      <trkpt lat="48.37881" lon="2.73719">
        <ele>88.4</ele>
        <time>2023-07-20T09:44:28Z</time>
      </trkpt>
      <trkpt lat="48.37881" lon="2.7372">
        <ele>88.4</ele>
        <time>2023-07-20T09:44:29Z</time>
      </trkpt>
      <trkpt lat="48.37879" lon="2.73723">
        <ele>88.4</ele>
        <time>2023-07-20T09:44:30Z</time>
      </trkpt>
      <trkpt lat="48.37879" lon="2.73724">
        <ele>88.4</ele>
        <time>2023-07-20T09:44:31Z</time>
      </trkpt>
      <trkpt lat="48.37879" lon="2.73725">
        <ele>88.4</ele>
        <time>2023-07-20T09:44:32Z</time>
      </trkpt>
      <trkpt lat="48.37879" lon="2.73726">
        <ele>88.4</ele>
        <time>2023-07-20T09:44:33Z</time>
      </trkpt>
      <trkpt lat="48.37879" lon="2.73729">
        <ele>88.4</ele>
        <time>2023-07-20T09:44:34Z</time>
      </trkpt>
      <trkpt lat="48.37879" lon="2.7373">
        <ele>88.4</ele>
        <time>2023-07-20T09:44:35Z</time>
      </trkpt>
      <trkpt lat="48.37879" lon="2.73731">
        <ele>88.4</ele>
        <time>2023-07-20T09:44:36Z</time>
      </trkpt>
      <trkpt lat="48.37878" lon="2.73735">
        <ele>88.4</ele>
        <time>2023-07-20T09:44:37Z</time>
      </trkpt>
      <trkpt lat="48.37878" lon="2.73736">
        <ele>88.4</ele>
        <time>2023-07-20T09:44:38Z</time>
      </trkpt>
      <trkpt lat="48.37877" lon="2.73738">
        <ele>88.4</ele>
        <time>2023-07-20T09:44:39Z</time>
      </trkpt>
      <trkpt lat="48.37877" lon="2.73739">
        <ele>88.3</ele>
        <time>2023-07-20T09:44:40Z</time>
      </trkpt>
      <trkpt lat="48.37876" lon="2.7374">
        <ele>88.3</ele>
        <time>2023-07-20T09:44:41Z</time>
      </trkpt>
      <trkpt lat="48.37876" lon="2.73741">
        <ele>88.3</ele>
        <time>2023-07-20T09:44:42Z</time>
      </trkpt>
      <trkpt lat="48.37875" lon="2.73743">
        <ele>88.3</ele>
        <time>2023-07-20T09:44:43Z</time>
      </trkpt>
      <trkpt lat="48.37874" lon="2.73745">
        <ele>88.3</ele>
        <time>2023-07-20T09:44:44Z</time>
      </trkpt>
      <trkpt lat="48.37874" lon="2.73746">
        <ele>88.3</ele>
        <time>2023-07-20T09:44:45Z</time>
      </trkpt>
      <trkpt lat="48.37874" lon="2.73748">
        <ele>88.3</ele>
        <time>2023-07-20T09:44:46Z</time>
      </trkpt>
      <trkpt lat="48.37873" lon="2.73749">
        <ele>88.3</ele>
        <time>2023-07-20T09:44:47Z</time>
      </trkpt>
      <trkpt lat="48.37873" lon="2.7375">
        <ele>88.3</ele>
        <time>2023-07-20T09:44:48Z</time>
      </trkpt>
      <trkpt lat="48.37872" lon="2.73751">
        <ele>88.3</ele>
        <time>2023-07-20T09:44:49Z</time>
      </trkpt>
      <trkpt lat="48.37872" lon="2.73753">
        <ele>88.3</ele>
        <time>2023-07-20T09:44:50Z</time>
      </trkpt>
      <trkpt lat="48.37872" lon="2.73755">
        <ele>88.3</ele>
        <time>2023-07-20T09:44:51Z</time>
      </trkpt>
      <trkpt lat="48.37872" lon="2.73757">
        <ele>88.3</ele>
        <time>2023-07-20T09:44:52Z</time>
      </trkpt>
      <trkpt lat="48.37872" lon="2.7376">
        <ele>88.3</ele>
        <time>2023-07-20T09:44:53Z</time>
      </trkpt>
      <trkpt lat="48.37872" lon="2.73762">
        <ele>88.3</ele>
        <time>2023-07-20T09:44:54Z</time>
      </trkpt>
      <trkpt lat="48.37873" lon="2.73765">
        <ele>88.3</ele>
        <time>2023-07-20T09:44:55Z</time>
      </trkpt>
      <trkpt lat="48.37872" lon="2.73768">
        <ele>88.3</ele>
        <time>2023-07-20T09:44:56Z</time>
      </trkpt>
      <trkpt lat="48.37872" lon="2.73769">
        <ele>88.3</ele>
        <time>2023-07-20T09:44:57Z</time>
      </trkpt>
      <trkpt lat="48.37872" lon="2.73771">
        <ele>88.3</ele>
        <time>2023-07-20T09:44:58Z</time>
      </trkpt>
      <trkpt lat="48.37872" lon="2.73774">
        <ele>88.3</ele>
        <time>2023-07-20T09:44:59Z</time>
      </trkpt>
      <trkpt lat="48.37872" lon="2.73776">
        <ele>88.3</ele>
        <time>2023-07-20T09:45:00Z</time>
      </trkpt>
      <trkpt lat="48.37871" lon="2.73777">
        <ele>88.3</ele>
        <time>2023-07-20T09:45:01Z</time>
      </trkpt>
      <trkpt lat="48.37871" lon="2.73778">
        <ele>88.3</ele>
        <time>2023-07-20T09:45:02Z</time>
      </trkpt>
      <trkpt lat="48.37871" lon="2.7378">
        <ele>88.3</ele>
        <time>2023-07-20T09:45:03Z</time>
      </trkpt>
      <trkpt lat="48.37871" lon="2.73782">
        <ele>88.3</ele>
        <time>2023-07-20T09:45:04Z</time>
      </trkpt>
      <trkpt lat="48.37871" lon="2.73783">
        <ele>88.3</ele>
        <time>2023-07-20T09:45:05Z</time>
      </trkpt>
      <trkpt lat="48.37871" lon="2.73784">
        <ele>88.3</ele>
        <time>2023-07-20T09:45:06Z</time>
      </trkpt>
      <trkpt lat="48.37871" lon="2.73785">
        <ele>88.2</ele>
        <time>2023-07-20T09:45:07Z</time>
      </trkpt>
      <trkpt lat="48.37872" lon="2.73787">
        <ele>88.2</ele>
        <time>2023-07-20T09:45:08Z</time>
      </trkpt>
      <trkpt lat="48.37872" lon="2.73788">
        <ele>88.2</ele>
        <time>2023-07-20T09:45:09Z</time>
      </trkpt>
      <trkpt lat="48.37873" lon="2.73789">
        <ele>88.2</ele>
        <time>2023-07-20T09:45:10Z</time>
      </trkpt>
      <trkpt lat="48.37873" lon="2.7379">
        <ele>88.2</ele>
        <time>2023-07-20T09:45:11Z</time>
      </trkpt>
      <trkpt lat="48.37873" lon="2.73792">
        <ele>88.2</ele>
        <time>2023-07-20T09:45:12Z</time>
      </trkpt>
      <trkpt lat="48.37873" lon="2.73794">
        <ele>88.1</ele>
        <time>2023-07-20T09:45:13Z</time>
      </trkpt>
      <trkpt lat="48.37873" lon="2.73795">
        <ele>88.1</ele>
        <time>2023-07-20T09:45:14Z</time>
      </trkpt>
      <trkpt lat="48.37874" lon="2.73796">
        <ele>88.1</ele>
        <time>2023-07-20T09:45:15Z</time>
      </trkpt>
      <trkpt lat="48.37873" lon="2.73798">
        <ele>88.1</ele>
        <time>2023-07-20T09:45:16Z</time>
      </trkpt>
      <trkpt lat="48.37873" lon="2.738">
        <ele>88.1</ele>
        <time>2023-07-20T09:45:17Z</time>
      </trkpt>
      <trkpt lat="48.37872" lon="2.73801">
        <ele>88.1</ele>
        <time>2023-07-20T09:45:18Z</time>
      </trkpt>
      <trkpt lat="48.37872" lon="2.73802">
        <ele>88.1</ele>
        <time>2023-07-20T09:45:19Z</time>
      </trkpt>
      <trkpt lat="48.37872" lon="2.73803">
        <ele>88.1</ele>
        <time>2023-07-20T09:45:20Z</time>
      </trkpt>
      <trkpt lat="48.37873" lon="2.73805">
        <ele>88.1</ele>
        <time>2023-07-20T09:45:21Z</time>
      </trkpt>
      <trkpt lat="48.37873" lon="2.73807">
        <ele>88</ele>
        <time>2023-07-20T09:45:22Z</time>
      </trkpt>
      <trkpt lat="48.37873" lon="2.73809">
        <ele>88</ele>
        <time>2023-07-20T09:45:23Z</time>
      </trkpt>
      <trkpt lat="48.37873" lon="2.73812">
        <ele>88</ele>
        <time>2023-07-20T09:45:24Z</time>
      </trkpt>
      <trkpt lat="48.37873" lon="2.73814">
        <ele>88</ele>
        <time>2023-07-20T09:45:25Z</time>
      </trkpt>
      <trkpt lat="48.37874" lon="2.73818">
        <ele>88</ele>
        <time>2023-07-20T09:45:26Z</time>
      </trkpt>
      <trkpt lat="48.37875" lon="2.73819">
        <ele>88</ele>
        <time>2023-07-20T09:45:27Z</time>
      </trkpt>
      <trkpt lat="48.37875" lon="2.7382">
        <ele>88</ele>
        <time>2023-07-20T09:45:28Z</time>
      </trkpt>
      <trkpt lat="48.37876" lon="2.73822">
        <ele>87.9</ele>
        <time>2023-07-20T09:45:29Z</time>
      </trkpt>
      <trkpt lat="48.37877" lon="2.73823">
        <ele>87.9</ele>
        <time>2023-07-20T09:45:30Z</time>
      </trkpt>
      <trkpt lat="48.37877" lon="2.73825">
        <ele>87.9</ele>
        <time>2023-07-20T09:45:31Z</time>
      </trkpt>
      <trkpt lat="48.37877" lon="2.73826">
        <ele>87.9</ele>
        <time>2023-07-20T09:45:32Z</time>
      </trkpt>
      <trkpt lat="48.37877" lon="2.73828">
        <ele>87.9</ele>
        <time>2023-07-20T09:45:33Z</time>
      </trkpt>
      <trkpt lat="48.37877" lon="2.7383">
        <ele>87.9</ele>
        <time>2023-07-20T09:45:34Z</time>
      </trkpt>
      <trkpt lat="48.37877" lon="2.73831">
        <ele>87.9</ele>
        <time>2023-07-20T09:45:35Z</time>
      </trkpt>
      <trkpt lat="48.37878" lon="2.73832">
        <ele>87.9</ele>
        <time>2023-07-20T09:45:36Z</time>
      </trkpt>
      <trkpt lat="48.37879" lon="2.73834">
        <ele>87.8</ele>
        <time>2023-07-20T09:45:37Z</time>
      </trkpt>
      <trkpt lat="48.3788" lon="2.73836">
        <ele>87.8</ele>
        <time>2023-07-20T09:45:38Z</time>
      </trkpt>
      <trkpt lat="48.3788" lon="2.73839">
        <ele>87.8</ele>
        <time>2023-07-20T09:45:39Z</time>
      </trkpt>
      <trkpt lat="48.37881" lon="2.7384">
        <ele>87.8</ele>
        <time>2023-07-20T09:45:40Z</time>
      </trkpt>
      <trkpt lat="48.3788" lon="2.73842">
        <ele>87.8</ele>
        <time>2023-07-20T09:45:41Z</time>
      </trkpt>
      <trkpt lat="48.3788" lon="2.73844">
        <ele>87.8</ele>
        <time>2023-07-20T09:45:42Z</time>
      </trkpt>
      <trkpt lat="48.3788" lon="2.73845">
        <ele>87.8</ele>
        <time>2023-07-20T09:45:43Z</time>
      </trkpt>
      <trkpt lat="48.37881" lon="2.73847">
        <ele>87.8</ele>
        <time>2023-07-20T09:45:44Z</time>
      </trkpt>
      <trkpt lat="48.37881" lon="2.73848">
        <ele>87.8</ele>
        <time>2023-07-20T09:45:45Z</time>
      </trkpt>
      <trkpt lat="48.37881" lon="2.73849">
        <ele>87.8</ele>
        <time>2023-07-20T09:45:46Z</time>
      </trkpt>
      <trkpt lat="48.37881" lon="2.7385">
        <ele>87.7</ele>
        <time>2023-07-20T09:45:47Z</time>
      </trkpt>
      <trkpt lat="48.37882" lon="2.73852">
        <ele>87.7</ele>
        <time>2023-07-20T09:45:48Z</time>
      </trkpt>
      <trkpt lat="48.37882" lon="2.73854">
        <ele>87.7</ele>
        <time>2023-07-20T09:45:49Z</time>
      </trkpt>
      <trkpt lat="48.37882" lon="2.73857">
        <ele>87.7</ele>
        <time>2023-07-20T09:45:50Z</time>
      </trkpt>
      <trkpt lat="48.37883" lon="2.7386">
        <ele>87.7</ele>
        <time>2023-07-20T09:45:51Z</time>
      </trkpt>
      <trkpt lat="48.37883" lon="2.73861">
        <ele>87.7</ele>
        <time>2023-07-20T09:45:52Z</time>
      </trkpt>
      <trkpt lat="48.37883" lon="2.73862">
        <ele>87.7</ele>
        <time>2023-07-20T09:45:53Z</time>
      </trkpt>
      <trkpt lat="48.37883" lon="2.73865">
        <ele>87.7</ele>
        <time>2023-07-20T09:45:54Z</time>
      </trkpt>
      <trkpt lat="48.37882" lon="2.73867">
        <ele>87.7</ele>
        <time>2023-07-20T09:45:55Z</time>
      </trkpt>
      <trkpt lat="48.37882" lon="2.73868">
        <ele>87.7</ele>
        <time>2023-07-20T09:45:56Z</time>
      </trkpt>
      <trkpt lat="48.37883" lon="2.73871">
        <ele>87.7</ele>
        <time>2023-07-20T09:45:57Z</time>
      </trkpt>
      <trkpt lat="48.37883" lon="2.73873">
        <ele>87.7</ele>
        <time>2023-07-20T09:45:58Z</time>
      </trkpt>
      <trkpt lat="48.37883" lon="2.73875">
        <ele>87.7</ele>
        <time>2023-07-20T09:45:59Z</time>
      </trkpt>
      <trkpt lat="48.37883" lon="2.73876">
        <ele>87.6</ele>
        <time>2023-07-20T09:46:00Z</time>
      </trkpt>
      <trkpt lat="48.37882" lon="2.73878">
        <ele>87.6</ele>
        <time>2023-07-20T09:46:01Z</time>
      </trkpt>
      <trkpt lat="48.37881" lon="2.73879">
        <ele>87.6</ele>
        <time>2023-07-20T09:46:02Z</time>
      </trkpt>
      <trkpt lat="48.37881" lon="2.73881">
        <ele>87.6</ele>
        <time>2023-07-20T09:46:03Z</time>
      </trkpt>
      <trkpt lat="48.37881" lon="2.73883">
        <ele>87.6</ele>
        <time>2023-07-20T09:46:04Z</time>
      </trkpt>
      <trkpt lat="48.37881" lon="2.73884">
        <ele>87.6</ele>
        <time>2023-07-20T09:46:05Z</time>
      </trkpt>
      <trkpt lat="48.37881" lon="2.73885">
        <ele>87.6</ele>
        <time>2023-07-20T09:46:06Z</time>
      </trkpt>
      <trkpt lat="48.37882" lon="2.73886">
        <ele>87.6</ele>
        <time>2023-07-20T09:46:07Z</time>
      </trkpt>
      <trkpt lat="48.37882" lon="2.73888">
        <ele>87.6</ele>
        <time>2023-07-20T09:46:08Z</time>
      </trkpt>
      <trkpt lat="48.37882" lon="2.73889">
        <ele>87.6</ele>
        <time>2023-07-20T09:46:09Z</time>
      </trkpt>
      <trkpt lat="48.37882" lon="2.7389">
        <ele>87.6</ele>
        <time>2023-07-20T09:46:10Z</time>
      </trkpt>
      <trkpt lat="48.37882" lon="2.73892">
        <ele>87.5</ele>
        <time>2023-07-20T09:46:11Z</time>
      </trkpt>
      <trkpt lat="48.37882" lon="2.73894">
        <ele>87.5</ele>
        <time>2023-07-20T09:46:12Z</time>
      </trkpt>
      <trkpt lat="48.37882" lon="2.73896">
        <ele>87.5</ele>
        <time>2023-07-20T09:46:13Z</time>
      </trkpt>
      <trkpt lat="48.37883" lon="2.73898">
        <ele>87.5</ele>
        <time>2023-07-20T09:46:14Z</time>
      </trkpt>
      <trkpt lat="48.37883" lon="2.73899">
        <ele>87.5</ele>
        <time>2023-07-20T09:46:15Z</time>
      </trkpt>
      <trkpt lat="48.37883" lon="2.73899">
        <ele>87.5</ele>
        <time>2023-07-20T09:46:16Z</time>
      </trkpt>
      <trkpt lat="48.37883" lon="2.739">
        <ele>87.5</ele>
        <time>2023-07-20T09:46:17Z</time>
      </trkpt>
      <trkpt lat="48.37883" lon="2.73901">
        <ele>87.5</ele>
        <time>2023-07-20T09:46:18Z</time>
      </trkpt>
      <trkpt lat="48.37883" lon="2.73903">
        <ele>87.5</ele>
        <time>2023-07-20T09:46:19Z</time>
      </trkpt>
      <trkpt lat="48.37884" lon="2.73905">
        <ele>87.5</ele>
        <time>2023-07-20T09:46:20Z</time>
      </trkpt>
      <trkpt lat="48.37884" lon="2.73906">
        <ele>87.5</ele>
        <time>2023-07-20T09:46:21Z</time>
      </trkpt>
      <trkpt lat="48.37884" lon="2.73907">
        <ele>87.5</ele>
        <time>2023-07-20T09:46:22Z</time>
      </trkpt>
      <trkpt lat="48.37884" lon="2.73909">
        <ele>87.5</ele>
        <time>2023-07-20T09:46:23Z</time>
      </trkpt>
      <trkpt lat="48.37884" lon="2.73912">
        <ele>87.5</ele>
        <time>2023-07-20T09:46:24Z</time>
      </trkpt>
      <trkpt lat="48.37885" lon="2.73913">
        <ele>87.6</ele>
        <time>2023-07-20T09:46:25Z</time>
      </trkpt>
      <trkpt lat="48.37886" lon="2.73914">
        <ele>87.6</ele>
        <time>2023-07-20T09:46:26Z</time>
      </trkpt>
      <trkpt lat="48.37886" lon="2.73916">
        <ele>87.6</ele>
        <time>2023-07-20T09:46:27Z</time>
      </trkpt>
      <trkpt lat="48.37886" lon="2.73917">
        <ele>87.6</ele>
        <time>2023-07-20T09:46:28Z</time>
      </trkpt>
      <trkpt lat="48.37886" lon="2.73919">
        <ele>87.6</ele>
        <time>2023-07-20T09:46:29Z</time>
      </trkpt>
      <trkpt lat="48.37886" lon="2.7392">
        <ele>87.6</ele>
        <time>2023-07-20T09:46:30Z</time>
      </trkpt>
      <trkpt lat="48.37886" lon="2.73922">
        <ele>87.6</ele>
        <time>2023-07-20T09:46:31Z</time>
      </trkpt>
      <trkpt lat="48.37886" lon="2.73923">
        <ele>87.6</ele>
        <time>2023-07-20T09:46:32Z</time>
      </trkpt>
      <trkpt lat="48.37885" lon="2.73926">
        <ele>87.6</ele>
        <time>2023-07-20T09:46:33Z</time>
      </trkpt>
      <trkpt lat="48.37885" lon="2.73928">
        <ele>87.6</ele>
        <time>2023-07-20T09:46:34Z</time>
      </trkpt>
      <trkpt lat="48.37885" lon="2.73929">
        <ele>87.6</ele>
        <time>2023-07-20T09:46:35Z</time>
      </trkpt>
      <trkpt lat="48.37885" lon="2.73931">
        <ele>87.6</ele>
        <time>2023-07-20T09:46:36Z</time>
      </trkpt>
      <trkpt lat="48.37885" lon="2.73934">
        <ele>87.6</ele>
        <time>2023-07-20T09:46:37Z</time>
      </trkpt>
      <trkpt lat="48.37886" lon="2.73937">
        <ele>87.6</ele>
        <time>2023-07-20T09:46:38Z</time>
      </trkpt>
      <trkpt lat="48.37886" lon="2.73938">
        <ele>87.7</ele>
        <time>2023-07-20T09:46:39Z</time>
      </trkpt>
      <trkpt lat="48.37887" lon="2.7394">
        <ele>87.7</ele>
        <time>2023-07-20T09:46:40Z</time>
      </trkpt>
      <trkpt lat="48.37887" lon="2.73942">
        <ele>87.7</ele>
        <time>2023-07-20T09:46:41Z</time>
      </trkpt>
      <trkpt lat="48.37887" lon="2.73943">
        <ele>87.7</ele>
        <time>2023-07-20T09:46:42Z</time>
      </trkpt>
      <trkpt lat="48.37887" lon="2.73944">
        <ele>87.7</ele>
        <time>2023-07-20T09:46:43Z</time>
      </trkpt>
      <trkpt lat="48.37887" lon="2.73946">
        <ele>87.7</ele>
        <time>2023-07-20T09:46:44Z</time>
      </trkpt>
      <trkpt lat="48.37887" lon="2.73947">
        <ele>87.7</ele>
        <time>2023-07-20T09:46:45Z</time>
      </trkpt>
      <trkpt lat="48.37887" lon="2.73948">
        <ele>87.7</ele>
        <time>2023-07-20T09:46:46Z</time>
      </trkpt>
      <trkpt lat="48.37888" lon="2.73949">
        <ele>87.7</ele>
        <time>2023-07-20T09:46:47Z</time>
      </trkpt>
      <trkpt lat="48.37888" lon="2.7395">
        <ele>87.7</ele>
        <time>2023-07-20T09:46:48Z</time>
      </trkpt>
      <trkpt lat="48.37888" lon="2.73951">
        <ele>87.7</ele>
        <time>2023-07-20T09:46:49Z</time>
      </trkpt>
      <trkpt lat="48.37889" lon="2.73951">
        <ele>87.7</ele>
        <time>2023-07-20T09:46:50Z</time>
      </trkpt>
      <trkpt lat="48.37889" lon="2.73953">
        <ele>87.7</ele>
        <time>2023-07-20T09:46:51Z</time>
      </trkpt>
      <trkpt lat="48.37889" lon="2.73956">
        <ele>87.7</ele>
        <time>2023-07-20T09:46:52Z</time>
      </trkpt>
      <trkpt lat="48.37889" lon="2.73958">
        <ele>87.7</ele>
        <time>2023-07-20T09:46:53Z</time>
      </trkpt>
      <trkpt lat="48.37889" lon="2.73959">
        <ele>87.8</ele>
        <time>2023-07-20T09:46:54Z</time>
      </trkpt>
      <trkpt lat="48.37889" lon="2.73961">
        <ele>87.8</ele>
        <time>2023-07-20T09:46:55Z</time>
      </trkpt>
      <trkpt lat="48.3789" lon="2.73962">
        <ele>87.8</ele>
        <time>2023-07-20T09:46:56Z</time>
      </trkpt>
      <trkpt lat="48.3789" lon="2.73964">
        <ele>87.8</ele>
        <time>2023-07-20T09:46:57Z</time>
      </trkpt>
      <trkpt lat="48.37891" lon="2.73967">
        <ele>87.8</ele>
        <time>2023-07-20T09:46:58Z</time>
      </trkpt>
      <trkpt lat="48.37891" lon="2.73968">
        <ele>87.8</ele>
        <time>2023-07-20T09:46:59Z</time>
      </trkpt>
      <trkpt lat="48.37891" lon="2.73969">
        <ele>87.8</ele>
        <time>2023-07-20T09:47:00Z</time>
      </trkpt>
      <trkpt lat="48.37892" lon="2.73973">
        <ele>87.8</ele>
        <time>2023-07-20T09:47:01Z</time>
      </trkpt>
      <trkpt lat="48.37892" lon="2.73974">
        <ele>87.9</ele>
        <time>2023-07-20T09:47:02Z</time>
      </trkpt>
      <trkpt lat="48.37892" lon="2.73975">
        <ele>87.9</ele>
        <time>2023-07-20T09:47:03Z</time>
      </trkpt>
      <trkpt lat="48.37892" lon="2.73977">
        <ele>87.9</ele>
        <time>2023-07-20T09:47:04Z</time>
      </trkpt>
      <trkpt lat="48.37892" lon="2.73979">
        <ele>87.9</ele>
        <time>2023-07-20T09:47:05Z</time>
      </trkpt>
      <trkpt lat="48.37892" lon="2.73981">
        <ele>87.9</ele>
        <time>2023-07-20T09:47:06Z</time>
      </trkpt>
      <trkpt lat="48.37891" lon="2.73984">
        <ele>87.9</ele>
        <time>2023-07-20T09:47:07Z</time>
      </trkpt>
      <trkpt lat="48.3789" lon="2.73985">
        <ele>87.9</ele>
        <time>2023-07-20T09:47:08Z</time>
      </trkpt>
      <trkpt lat="48.3789" lon="2.73986">
        <ele>87.9</ele>
        <time>2023-07-20T09:47:09Z</time>
      </trkpt>
      <trkpt lat="48.3789" lon="2.73988">
        <ele>87.9</ele>
        <time>2023-07-20T09:47:10Z</time>
      </trkpt>
      <trkpt lat="48.3789" lon="2.7399">
        <ele>88</ele>
        <time>2023-07-20T09:47:11Z</time>
      </trkpt>
      <trkpt lat="48.3789" lon="2.73994">
        <ele>88</ele>
        <time>2023-07-20T09:47:12Z</time>
      </trkpt>
      <trkpt lat="48.3789" lon="2.73995">
        <ele>88</ele>
        <time>2023-07-20T09:47:13Z</time>
      </trkpt>
      <trkpt lat="48.37889" lon="2.73997">
        <ele>88</ele>
        <time>2023-07-20T09:47:14Z</time>
      </trkpt>
      <trkpt lat="48.3789" lon="2.73998">
        <ele>88</ele>
        <time>2023-07-20T09:47:15Z</time>
      </trkpt>
      <trkpt lat="48.37889" lon="2.74">
        <ele>88</ele>
        <time>2023-07-20T09:47:16Z</time>
      </trkpt>
      <trkpt lat="48.37888" lon="2.74001">
        <ele>88</ele>
        <time>2023-07-20T09:47:17Z</time>
      </trkpt>
      <trkpt lat="48.37888" lon="2.74002">
        <ele>88</ele>
        <time>2023-07-20T09:47:18Z</time>
      </trkpt>
      <trkpt lat="48.37888" lon="2.74004">
        <ele>88</ele>
        <time>2023-07-20T09:47:19Z</time>
      </trkpt>
      <trkpt lat="48.37889" lon="2.74005">
        <ele>88</ele>
        <time>2023-07-20T09:47:20Z</time>
      </trkpt>
      <trkpt lat="48.37889" lon="2.74007">
        <ele>88</ele>
        <time>2023-07-20T09:47:21Z</time>
      </trkpt>
      <trkpt lat="48.3789" lon="2.74008">
        <ele>88</ele>
        <time>2023-07-20T09:47:22Z</time>
      </trkpt>
      <trkpt lat="48.37891" lon="2.74009">
        <ele>88</ele>
        <time>2023-07-20T09:47:23Z</time>
      </trkpt>
      <trkpt lat="48.37891" lon="2.7401">
        <ele>88</ele>
        <time>2023-07-20T09:47:24Z</time>
      </trkpt>
      <trkpt lat="48.37891" lon="2.74013">
        <ele>88</ele>
        <time>2023-07-20T09:47:25Z</time>
      </trkpt>
      <trkpt lat="48.37891" lon="2.74014">
        <ele>88</ele>
        <time>2023-07-20T09:47:26Z</time>
      </trkpt>
      <trkpt lat="48.37891" lon="2.74016">
        <ele>88</ele>
        <time>2023-07-20T09:47:27Z</time>
      </trkpt>
      <trkpt lat="48.37891" lon="2.74018">
        <ele>88</ele>
        <time>2023-07-20T09:47:28Z</time>
      </trkpt>
      <trkpt lat="48.37891" lon="2.74019">
        <ele>88</ele>
        <time>2023-07-20T09:47:29Z</time>
      </trkpt>
      <trkpt lat="48.37891" lon="2.7402">
        <ele>88</ele>
        <time>2023-07-20T09:47:30Z</time>
      </trkpt>
      <trkpt lat="48.37891" lon="2.74023">
        <ele>87.9</ele>
        <time>2023-07-20T09:47:31Z</time>
      </trkpt>
      <trkpt lat="48.37891" lon="2.74024">
        <ele>87.9</ele>
        <time>2023-07-20T09:47:32Z</time>
      </trkpt>
      <trkpt lat="48.37891" lon="2.74026">
        <ele>87.9</ele>
        <time>2023-07-20T09:47:33Z</time>
      </trkpt>
      <trkpt lat="48.37891" lon="2.74027">
        <ele>87.9</ele>
        <time>2023-07-20T09:47:34Z</time>
      </trkpt>
      <trkpt lat="48.37891" lon="2.74028">
        <ele>87.9</ele>
        <time>2023-07-20T09:47:35Z</time>
      </trkpt>
      <trkpt lat="48.3789" lon="2.7403">
        <ele>87.9</ele>
        <time>2023-07-20T09:47:36Z</time>
      </trkpt>
      <trkpt lat="48.3789" lon="2.74032">
        <ele>87.9</ele>
        <time>2023-07-20T09:47:37Z</time>
      </trkpt>
      <trkpt lat="48.37889" lon="2.74033">
        <ele>87.9</ele>
        <time>2023-07-20T09:47:38Z</time>
      </trkpt>
      <trkpt lat="48.37889" lon="2.74034">
        <ele>87.8</ele>
        <time>2023-07-20T09:47:39Z</time>
      </trkpt>
      <trkpt lat="48.37888" lon="2.74035">
        <ele>87.8</ele>
        <time>2023-07-20T09:47:40Z</time>
      </trkpt>
      <trkpt lat="48.37887" lon="2.74036">
        <ele>87.8</ele>
        <time>2023-07-20T09:47:41Z</time>
      </trkpt>
      <trkpt lat="48.37888" lon="2.74037">
        <ele>87.8</ele>
        <time>2023-07-20T09:47:42Z</time>
      </trkpt>
      <trkpt lat="48.37888" lon="2.74038">
        <ele>87.8</ele>
        <time>2023-07-20T09:47:43Z</time>
      </trkpt>
      <trkpt lat="48.37888" lon="2.7404">
        <ele>87.8</ele>
        <time>2023-07-20T09:47:44Z</time>
      </trkpt>
      <trkpt lat="48.37888" lon="2.74041">
        <ele>87.8</ele>
        <time>2023-07-20T09:47:45Z</time>
      </trkpt>
      <trkpt lat="48.37888" lon="2.74043">
        <ele>87.8</ele>
        <time>2023-07-20T09:47:46Z</time>
      </trkpt>
      <trkpt lat="48.37888" lon="2.74044">
        <ele>87.8</ele>
        <time>2023-07-20T09:47:47Z</time>
      </trkpt>
      <trkpt lat="48.37889" lon="2.74046">
        <ele>87.7</ele>
        <time>2023-07-20T09:47:48Z</time>
      </trkpt>
      <trkpt lat="48.37889" lon="2.74046">
        <ele>87.7</ele>
        <time>2023-07-20T09:47:49Z</time>
      </trkpt>
      <trkpt lat="48.37889" lon="2.74048">
        <ele>87.7</ele>
        <time>2023-07-20T09:47:50Z</time>
      </trkpt>
      <trkpt lat="48.37889" lon="2.74049">
        <ele>87.7</ele>
        <time>2023-07-20T09:47:51Z</time>
      </trkpt>
      <trkpt lat="48.3789" lon="2.7405">
        <ele>87.7</ele>
        <time>2023-07-20T09:47:52Z</time>
      </trkpt>
      <trkpt lat="48.3789" lon="2.74051">
        <ele>87.7</ele>
        <time>2023-07-20T09:47:53Z</time>
      </trkpt>
      <trkpt lat="48.3789" lon="2.74052">
        <ele>87.7</ele>
        <time>2023-07-20T09:47:54Z</time>
      </trkpt>
      <trkpt lat="48.3789" lon="2.74055">
        <ele>87.7</ele>
        <time>2023-07-20T09:47:55Z</time>
      </trkpt>
      <trkpt lat="48.3789" lon="2.74057">
        <ele>87.7</ele>
        <time>2023-07-20T09:47:56Z</time>
      </trkpt>
      <trkpt lat="48.3789" lon="2.74058">
        <ele>87.6</ele>
        <time>2023-07-20T09:47:57Z</time>
      </trkpt>
      <trkpt lat="48.37891" lon="2.74061">
        <ele>87.6</ele>
        <time>2023-07-20T09:47:58Z</time>
      </trkpt>
      <trkpt lat="48.37891" lon="2.74062">
        <ele>87.6</ele>
        <time>2023-07-20T09:47:59Z</time>
      </trkpt>
      <trkpt lat="48.37892" lon="2.74064">
        <ele>87.6</ele>
        <time>2023-07-20T09:48:00Z</time>
      </trkpt>
      <trkpt lat="48.37893" lon="2.74066">
        <ele>87.6</ele>
        <time>2023-07-20T09:48:01Z</time>
      </trkpt>
      <trkpt lat="48.37893" lon="2.74068">
        <ele>87.6</ele>
        <time>2023-07-20T09:48:02Z</time>
      </trkpt>
      <trkpt lat="48.37894" lon="2.7407">
        <ele>87.6</ele>
        <time>2023-07-20T09:48:03Z</time>
      </trkpt>
      <trkpt lat="48.37894" lon="2.74072">
        <ele>87.6</ele>
        <time>2023-07-20T09:48:04Z</time>
      </trkpt>
      <trkpt lat="48.37894" lon="2.74074">
        <ele>87.6</ele>
        <time>2023-07-20T09:48:05Z</time>
      </trkpt>
      <trkpt lat="48.37894" lon="2.74076">
        <ele>87.6</ele>
        <time>2023-07-20T09:48:06Z</time>
      </trkpt>
      <trkpt lat="48.37895" lon="2.74077">
        <ele>87.6</ele>
        <time>2023-07-20T09:48:07Z</time>
      </trkpt>
      <trkpt lat="48.37895" lon="2.7408">
        <ele>87.6</ele>
        <time>2023-07-20T09:48:08Z</time>
      </trkpt>
      <trkpt lat="48.37895" lon="2.74081">
        <ele>87.6</ele>
        <time>2023-07-20T09:48:09Z</time>
      </trkpt>
      <trkpt lat="48.37895" lon="2.74083">
        <ele>87.6</ele>
        <time>2023-07-20T09:48:10Z</time>
      </trkpt>
      <trkpt lat="48.37895" lon="2.74086">
        <ele>87.6</ele>
        <time>2023-07-20T09:48:11Z</time>
      </trkpt>
      <trkpt lat="48.37895" lon="2.74087">
        <ele>87.6</ele>
        <time>2023-07-20T09:48:12Z</time>
      </trkpt>
      <trkpt lat="48.37896" lon="2.7409">
        <ele>87.6</ele>
        <time>2023-07-20T09:48:13Z</time>
      </trkpt>
      <trkpt lat="48.37896" lon="2.74091">
        <ele>87.5</ele>
        <time>2023-07-20T09:48:14Z</time>
      </trkpt>
      <trkpt lat="48.37896" lon="2.74092">
        <ele>87.5</ele>
        <time>2023-07-20T09:48:15Z</time>
      </trkpt>
      <trkpt lat="48.37897" lon="2.74093">
        <ele>87.5</ele>
        <time>2023-07-20T09:48:16Z</time>
      </trkpt>
      <trkpt lat="48.37897" lon="2.74096">
        <ele>87.5</ele>
        <time>2023-07-20T09:48:17Z</time>
      </trkpt>
      <trkpt lat="48.37897" lon="2.74097">
        <ele>87.5</ele>
        <time>2023-07-20T09:48:18Z</time>
      </trkpt>
      <trkpt lat="48.37898" lon="2.74098">
        <ele>87.5</ele>
        <time>2023-07-20T09:48:19Z</time>
      </trkpt>
      <trkpt lat="48.37898" lon="2.741">
        <ele>87.5</ele>
        <time>2023-07-20T09:48:20Z</time>
      </trkpt>
      <trkpt lat="48.37898" lon="2.74101">
        <ele>87.5</ele>
        <time>2023-07-20T09:48:21Z</time>
      </trkpt>
      <trkpt lat="48.37899" lon="2.74103">
        <ele>87.5</ele>
        <time>2023-07-20T09:48:22Z</time>
      </trkpt>
      <trkpt lat="48.37899" lon="2.74105">
        <ele>87.4</ele>
        <time>2023-07-20T09:48:23Z</time>
      </trkpt>
      <trkpt lat="48.379" lon="2.74107">
        <ele>87.4</ele>
        <time>2023-07-20T09:48:24Z</time>
      </trkpt>
      <trkpt lat="48.379" lon="2.74109">
        <ele>87.4</ele>
        <time>2023-07-20T09:48:25Z</time>
      </trkpt>
      <trkpt lat="48.379" lon="2.7411">
        <ele>87.4</ele>
        <time>2023-07-20T09:48:26Z</time>
      </trkpt>
      <trkpt lat="48.379" lon="2.74112">
        <ele>87.4</ele>
        <time>2023-07-20T09:48:27Z</time>
      </trkpt>
      <trkpt lat="48.379" lon="2.74113">
        <ele>87.4</ele>
        <time>2023-07-20T09:48:28Z</time>
      </trkpt>
      <trkpt lat="48.379" lon="2.74116">
        <ele>87.3</ele>
        <time>2023-07-20T09:48:29Z</time>
      </trkpt>
      <trkpt lat="48.379" lon="2.74117">
        <ele>87.3</ele>
        <time>2023-07-20T09:48:30Z</time>
      </trkpt>
      <trkpt lat="48.379" lon="2.74118">
        <ele>87.3</ele>
        <time>2023-07-20T09:48:31Z</time>
      </trkpt>
      <trkpt lat="48.37901" lon="2.74121">
        <ele>87.3</ele>
        <time>2023-07-20T09:48:32Z</time>
      </trkpt>
      <trkpt lat="48.37901" lon="2.74122">
        <ele>87.3</ele>
        <time>2023-07-20T09:48:33Z</time>
      </trkpt>
      <trkpt lat="48.37902" lon="2.74124">
        <ele>87.3</ele>
        <time>2023-07-20T09:48:34Z</time>
      </trkpt>
      <trkpt lat="48.37902" lon="2.74125">
        <ele>87.3</ele>
        <time>2023-07-20T09:48:35Z</time>
      </trkpt>
      <trkpt lat="48.37902" lon="2.74127">
        <ele>87.2</ele>
        <time>2023-07-20T09:48:36Z</time>
      </trkpt>
      <trkpt lat="48.37903" lon="2.74128">
        <ele>87.2</ele>
        <time>2023-07-20T09:48:37Z</time>
      </trkpt>
      <trkpt lat="48.37903" lon="2.74129">
        <ele>87.2</ele>
        <time>2023-07-20T09:48:38Z</time>
      </trkpt>
      <trkpt lat="48.37904" lon="2.7413">
        <ele>87.2</ele>
        <time>2023-07-20T09:48:39Z</time>
      </trkpt>
      <trkpt lat="48.37904" lon="2.74131">
        <ele>87.2</ele>
        <time>2023-07-20T09:48:40Z</time>
      </trkpt>
      <trkpt lat="48.37904" lon="2.74135">
        <ele>87.2</ele>
        <time>2023-07-20T09:48:41Z</time>
      </trkpt>
      <trkpt lat="48.37904" lon="2.74137">
        <ele>87.1</ele>
        <time>2023-07-20T09:48:42Z</time>
      </trkpt>
      <trkpt lat="48.37904" lon="2.74138">
        <ele>87.1</ele>
        <time>2023-07-20T09:48:43Z</time>
      </trkpt>
      <trkpt lat="48.37904" lon="2.74141">
        <ele>87.1</ele>
        <time>2023-07-20T09:48:44Z</time>
      </trkpt>
      <trkpt lat="48.37903" lon="2.74143">
        <ele>87.1</ele>
        <time>2023-07-20T09:48:45Z</time>
      </trkpt>
      <trkpt lat="48.37903" lon="2.74147">
        <ele>87</ele>
        <time>2023-07-20T09:48:46Z</time>
      </trkpt>
      <trkpt lat="48.37903" lon="2.74148">
        <ele>87</ele>
        <time>2023-07-20T09:48:47Z</time>
      </trkpt>
      <trkpt lat="48.37903" lon="2.74149">
        <ele>87</ele>
        <time>2023-07-20T09:48:48Z</time>
      </trkpt>
      <trkpt lat="48.37903" lon="2.74151">
        <ele>87</ele>
        <time>2023-07-20T09:48:49Z</time>
      </trkpt>
      <trkpt lat="48.37904" lon="2.74153">
        <ele>86.9</ele>
        <time>2023-07-20T09:48:50Z</time>
      </trkpt>
      <trkpt lat="48.37905" lon="2.74154">
        <ele>86.9</ele>
        <time>2023-07-20T09:48:51Z</time>
      </trkpt>
      <trkpt lat="48.37906" lon="2.74156">
        <ele>86.9</ele>
        <time>2023-07-20T09:48:52Z</time>
      </trkpt>
      <trkpt lat="48.37906" lon="2.74157">
        <ele>86.9</ele>
        <time>2023-07-20T09:48:53Z</time>
      </trkpt>
      <trkpt lat="48.37905" lon="2.74159">
        <ele>86.9</ele>
        <time>2023-07-20T09:48:54Z</time>
      </trkpt>
      <trkpt lat="48.37905" lon="2.7416">
        <ele>86.9</ele>
        <time>2023-07-20T09:48:55Z</time>
      </trkpt>
      <trkpt lat="48.37906" lon="2.74161">
        <ele>86.9</ele>
        <time>2023-07-20T09:48:56Z</time>
      </trkpt>
      <trkpt lat="48.37906" lon="2.74161">
        <ele>86.8</ele>
        <time>2023-07-20T09:48:57Z</time>
      </trkpt>
      <trkpt lat="48.37906" lon="2.74162">
        <ele>86.8</ele>
        <time>2023-07-20T09:48:58Z</time>
      </trkpt>
      <trkpt lat="48.37906" lon="2.74163">
        <ele>86.8</ele>
        <time>2023-07-20T09:48:59Z</time>
      </trkpt>
      <trkpt lat="48.37906" lon="2.74165">
        <ele>86.8</ele>
        <time>2023-07-20T09:49:00Z</time>
      </trkpt>
      <trkpt lat="48.37906" lon="2.74167">
        <ele>86.8</ele>
        <time>2023-07-20T09:49:01Z</time>
      </trkpt>
      <trkpt lat="48.37907" lon="2.74169">
        <ele>86.8</ele>
        <time>2023-07-20T09:49:02Z</time>
      </trkpt>
      <trkpt lat="48.37906" lon="2.74169">
        <ele>86.7</ele>
        <time>2023-07-20T09:49:03Z</time>
      </trkpt>
      <trkpt lat="48.37906" lon="2.74171">
        <ele>86.7</ele>
        <time>2023-07-20T09:49:04Z</time>
      </trkpt>
      <trkpt lat="48.37906" lon="2.74172">
        <ele>86.7</ele>
        <time>2023-07-20T09:49:05Z</time>
      </trkpt>
      <trkpt lat="48.37905" lon="2.74174">
        <ele>86.7</ele>
        <time>2023-07-20T09:49:06Z</time>
      </trkpt>
      <trkpt lat="48.37906" lon="2.74177">
        <ele>86.7</ele>
        <time>2023-07-20T09:49:07Z</time>
      </trkpt>
      <trkpt lat="48.37905" lon="2.74178">
        <ele>86.6</ele>
        <time>2023-07-20T09:49:08Z</time>
      </trkpt>
      <trkpt lat="48.37906" lon="2.7418">
        <ele>86.6</ele>
        <time>2023-07-20T09:49:09Z</time>
      </trkpt>
      <trkpt lat="48.37906" lon="2.74182">
        <ele>86.6</ele>
        <time>2023-07-20T09:49:10Z</time>
      </trkpt>
      <trkpt lat="48.37906" lon="2.74185">
        <ele>86.6</ele>
        <time>2023-07-20T09:49:11Z</time>
      </trkpt>
      <trkpt lat="48.37905" lon="2.74186">
        <ele>86.6</ele>
        <time>2023-07-20T09:49:12Z</time>
      </trkpt>
      <trkpt lat="48.37905" lon="2.74188">
        <ele>86.6</ele>
        <time>2023-07-20T09:49:13Z</time>
      </trkpt>
      <trkpt lat="48.37905" lon="2.74189">
        <ele>86.5</ele>
        <time>2023-07-20T09:49:14Z</time>
      </trkpt>
      <trkpt lat="48.37906" lon="2.74191">
        <ele>86.5</ele>
        <time>2023-07-20T09:49:16Z</time>
      </trkpt>
      <trkpt lat="48.37906" lon="2.74192">
        <ele>86.5</ele>
        <time>2023-07-20T09:49:17Z</time>
      </trkpt>
      <trkpt lat="48.37906" lon="2.74193">
        <ele>86.5</ele>
        <time>2023-07-20T09:49:18Z</time>
      </trkpt>
      <trkpt lat="48.37906" lon="2.74195">
        <ele>86.5</ele>
        <time>2023-07-20T09:49:19Z</time>
      </trkpt>
      <trkpt lat="48.37906" lon="2.74197">
        <ele>86.5</ele>
        <time>2023-07-20T09:49:20Z</time>
      </trkpt>
      <trkpt lat="48.37906" lon="2.74199">
        <ele>86.5</ele>
        <time>2023-07-20T09:49:21Z</time>
      </trkpt>
      <trkpt lat="48.37906" lon="2.74201">
        <ele>86.5</ele>
        <time>2023-07-20T09:49:22Z</time>
      </trkpt>
      <trkpt lat="48.37907" lon="2.74202">
        <ele>86.5</ele>
        <time>2023-07-20T09:49:23Z</time>
      </trkpt>
      <trkpt lat="48.37907" lon="2.74202">
        <ele>86.4</ele>
        <time>2023-07-20T09:49:24Z</time>
      </trkpt>
      <trkpt lat="48.37907" lon="2.74203">
        <ele>86.4</ele>
        <time>2023-07-20T09:49:25Z</time>
      </trkpt>
      <trkpt lat="48.37907" lon="2.74205">
        <ele>86.4</ele>
        <time>2023-07-20T09:49:26Z</time>
      </trkpt>
      <trkpt lat="48.37906" lon="2.74207">
        <ele>86.4</ele>
        <time>2023-07-20T09:49:27Z</time>
      </trkpt>
      <trkpt lat="48.37905" lon="2.74209">
        <ele>86.4</ele>
        <time>2023-07-20T09:49:28Z</time>
      </trkpt>
      <trkpt lat="48.37904" lon="2.7421">
        <ele>86.4</ele>
        <time>2023-07-20T09:49:29Z</time>
      </trkpt>
      <trkpt lat="48.37904" lon="2.74211">
        <ele>86.4</ele>
        <time>2023-07-20T09:49:30Z</time>
      </trkpt>
      <trkpt lat="48.37903" lon="2.74213">
        <ele>86.3</ele>
        <time>2023-07-20T09:49:31Z</time>
      </trkpt>
      <trkpt lat="48.37904" lon="2.74215">
        <ele>86.3</ele>
        <time>2023-07-20T09:49:32Z</time>
      </trkpt>
      <trkpt lat="48.37904" lon="2.74217">
        <ele>86.3</ele>
        <time>2023-07-20T09:49:33Z</time>
      </trkpt>
      <trkpt lat="48.37904" lon="2.7422">
        <ele>86.3</ele>
        <time>2023-07-20T09:49:34Z</time>
      </trkpt>
      <trkpt lat="48.37904" lon="2.74224">
        <ele>86.3</ele>
        <time>2023-07-20T09:49:35Z</time>
      </trkpt>
      <trkpt lat="48.37904" lon="2.74225">
        <ele>86.3</ele>
        <time>2023-07-20T09:49:36Z</time>
      </trkpt>
      <trkpt lat="48.37903" lon="2.74227">
        <ele>86.2</ele>
        <time>2023-07-20T09:49:37Z</time>
      </trkpt>
      <trkpt lat="48.37903" lon="2.74231">
        <ele>86.2</ele>
        <time>2023-07-20T09:49:38Z</time>
      </trkpt>
      <trkpt lat="48.37903" lon="2.74232">
        <ele>86.2</ele>
        <time>2023-07-20T09:49:39Z</time>
      </trkpt>
      <trkpt lat="48.37904" lon="2.74234">
        <ele>86.2</ele>
        <time>2023-07-20T09:49:40Z</time>
      </trkpt>
      <trkpt lat="48.37904" lon="2.74235">
        <ele>86.2</ele>
        <time>2023-07-20T09:49:41Z</time>
      </trkpt>
      <trkpt lat="48.37904" lon="2.74236">
        <ele>86.2</ele>
        <time>2023-07-20T09:49:42Z</time>
      </trkpt>
      <trkpt lat="48.37905" lon="2.7424">
        <ele>86.1</ele>
        <time>2023-07-20T09:49:43Z</time>
      </trkpt>
      <trkpt lat="48.37905" lon="2.74242">
        <ele>86.1</ele>
        <time>2023-07-20T09:49:44Z</time>
      </trkpt>
      <trkpt lat="48.37906" lon="2.74245">
        <ele>86.1</ele>
        <time>2023-07-20T09:49:45Z</time>
      </trkpt>
      <trkpt lat="48.37906" lon="2.74246">
        <ele>86.1</ele>
        <time>2023-07-20T09:49:46Z</time>
      </trkpt>
      <trkpt lat="48.37906" lon="2.74248">
        <ele>86.1</ele>
        <time>2023-07-20T09:49:47Z</time>
      </trkpt>
      <trkpt lat="48.37906" lon="2.7425">
        <ele>86.1</ele>
        <time>2023-07-20T09:49:48Z</time>
      </trkpt>
      <trkpt lat="48.37906" lon="2.74253">
        <ele>86.1</ele>
        <time>2023-07-20T09:49:49Z</time>
      </trkpt>
      <trkpt lat="48.37906" lon="2.74254">
        <ele>86.1</ele>
        <time>2023-07-20T09:49:50Z</time>
      </trkpt>
      <trkpt lat="48.37906" lon="2.74256">
        <ele>86.1</ele>
        <time>2023-07-20T09:49:51Z</time>
      </trkpt>
      <trkpt lat="48.37905" lon="2.74257">
        <ele>86</ele>
        <time>2023-07-20T09:49:52Z</time>
      </trkpt>
      <trkpt lat="48.37906" lon="2.74259">
        <ele>86</ele>
        <time>2023-07-20T09:49:53Z</time>
      </trkpt>
      <trkpt lat="48.37905" lon="2.74261">
        <ele>86</ele>
        <time>2023-07-20T09:49:54Z</time>
      </trkpt>
      <trkpt lat="48.37906" lon="2.74262">
        <ele>86</ele>
        <time>2023-07-20T09:49:55Z</time>
      </trkpt>
      <trkpt lat="48.37905" lon="2.74266">
        <ele>86</ele>
        <time>2023-07-20T09:49:56Z</time>
      </trkpt>
      <trkpt lat="48.37905" lon="2.74267">
        <ele>86</ele>
        <time>2023-07-20T09:49:57Z</time>
      </trkpt>
      <trkpt lat="48.37905" lon="2.74268">
        <ele>86</ele>
        <time>2023-07-20T09:49:58Z</time>
      </trkpt>
      <trkpt lat="48.37905" lon="2.74269">
        <ele>86</ele>
        <time>2023-07-20T09:49:59Z</time>
      </trkpt>
      <trkpt lat="48.37904" lon="2.7427">
        <ele>86</ele>
        <time>2023-07-20T09:50:00Z</time>
      </trkpt>
      <trkpt lat="48.37904" lon="2.74272">
        <ele>86</ele>
        <time>2023-07-20T09:50:01Z</time>
      </trkpt>
      <trkpt lat="48.37904" lon="2.74274">
        <ele>86</ele>
        <time>2023-07-20T09:50:02Z</time>
      </trkpt>
      <trkpt lat="48.37905" lon="2.74275">
        <ele>86</ele>
        <time>2023-07-20T09:50:03Z</time>
      </trkpt>
      <trkpt lat="48.37905" lon="2.74276">
        <ele>86</ele>
        <time>2023-07-20T09:50:04Z</time>
      </trkpt>
      <trkpt lat="48.37905" lon="2.74276">
        <ele>86</ele>
        <time>2023-07-20T09:50:05Z</time>
      </trkpt>
      <trkpt lat="48.37905" lon="2.74277">
        <ele>86</ele>
        <time>2023-07-20T09:50:06Z</time>
      </trkpt>
      <trkpt lat="48.37905" lon="2.74278">
        <ele>86</ele>
        <time>2023-07-20T09:50:07Z</time>
      </trkpt>
      <trkpt lat="48.37905" lon="2.7428">
        <ele>86</ele>
        <time>2023-07-20T09:50:08Z</time>
      </trkpt>
      <trkpt lat="48.37905" lon="2.7428">
        <ele>86</ele>
        <time>2023-07-20T09:50:09Z</time>
      </trkpt>
      <trkpt lat="48.37904" lon="2.74281">
        <ele>86</ele>
        <time>2023-07-20T09:50:10Z</time>
      </trkpt>
      <trkpt lat="48.37904" lon="2.74282">
        <ele>86</ele>
        <time>2023-07-20T09:50:11Z</time>
      </trkpt>
      <trkpt lat="48.37904" lon="2.74283">
        <ele>86</ele>
        <time>2023-07-20T09:50:12Z</time>
      </trkpt>
      <trkpt lat="48.37905" lon="2.74284">
        <ele>86</ele>
        <time>2023-07-20T09:50:13Z</time>
      </trkpt>
      <trkpt lat="48.37905" lon="2.74285">
        <ele>86</ele>
        <time>2023-07-20T09:50:14Z</time>
      </trkpt>
      <trkpt lat="48.37905" lon="2.74285">
        <ele>86</ele>
        <time>2023-07-20T09:50:15Z</time>
      </trkpt>
      <trkpt lat="48.37904" lon="2.74286">
        <ele>86</ele>
        <time>2023-07-20T09:50:16Z</time>
      </trkpt>
      <trkpt lat="48.37904" lon="2.74286">
        <ele>86</ele>
        <time>2023-07-20T09:50:17Z</time>
      </trkpt>
      <trkpt lat="48.37904" lon="2.74287">
        <ele>86</ele>
        <time>2023-07-20T09:50:18Z</time>
      </trkpt>
      <trkpt lat="48.37904" lon="2.74288">
        <ele>86</ele>
        <time>2023-07-20T09:50:19Z</time>
      </trkpt>
      <trkpt lat="48.37906" lon="2.7429">
        <ele>86</ele>
        <time>2023-07-20T09:50:20Z</time>
      </trkpt>
      <trkpt lat="48.37907" lon="2.74291">
        <ele>86</ele>
        <time>2023-07-20T09:50:21Z</time>
      </trkpt>
      <trkpt lat="48.37907" lon="2.74291">
        <ele>86</ele>
        <time>2023-07-20T09:50:22Z</time>
      </trkpt>
      <trkpt lat="48.37908" lon="2.74291">
        <ele>86</ele>
        <time>2023-07-20T09:50:23Z</time>
      </trkpt>
      <trkpt lat="48.37908" lon="2.74291">
        <ele>86</ele>
        <time>2023-07-20T09:50:24Z</time>
      </trkpt>
      <trkpt lat="48.37908" lon="2.74291">
        <ele>86</ele>
        <time>2023-07-20T09:50:25Z</time>
      </trkpt>
      <trkpt lat="48.37908" lon="2.74291">
        <ele>86</ele>
        <time>2023-07-20T09:50:26Z</time>
      </trkpt>
      <trkpt lat="48.37908" lon="2.74291">
        <ele>86</ele>
        <time>2023-07-20T09:50:27Z</time>
      </trkpt>
      <trkpt lat="48.37908" lon="2.74291">
        <ele>86</ele>
        <time>2023-07-20T09:50:28Z</time>
      </trkpt>
      <trkpt lat="48.37908" lon="2.74291">
        <ele>86</ele>
        <time>2023-07-20T09:50:29Z</time>
      </trkpt>
      <trkpt lat="48.37908" lon="2.74291">
        <ele>86</ele>
        <time>2023-07-20T09:50:30Z</time>
      </trkpt>
      <trkpt lat="48.37908" lon="2.74291">
        <ele>86</ele>
        <time>2023-07-20T09:50:31Z</time>
      </trkpt>
      <trkpt lat="48.37908" lon="2.74291">
        <ele>86</ele>
        <time>2023-07-20T09:50:32Z</time>
      </trkpt>
      <trkpt lat="48.37908" lon="2.74291">
        <ele>86</ele>
        <time>2023-07-20T09:50:33Z</time>
      </trkpt>
      <trkpt lat="48.37908" lon="2.74291">
        <ele>86</ele>
        <time>2023-07-20T09:50:34Z</time>
      </trkpt>
      <trkpt lat="48.37908" lon="2.74291">
        <ele>86</ele>
        <time>2023-07-20T09:50:35Z</time>
      </trkpt>
      <trkpt lat="48.37908" lon="2.74291">
        <ele>86</ele>
        <time>2023-07-20T09:50:36Z</time>
      </trkpt>
      <trkpt lat="48.37908" lon="2.74291">
        <ele>86</ele>
        <time>2023-07-20T09:50:37Z</time>
      </trkpt>
      <trkpt lat="48.37908" lon="2.74291">
        <ele>86</ele>
        <time>2023-07-20T09:50:38Z</time>
      </trkpt>
      <trkpt lat="48.37908" lon="2.74291">
        <ele>86</ele>
        <time>2023-07-20T09:50:39Z</time>
      </trkpt>
      <trkpt lat="48.37908" lon="2.74291">
        <ele>86</ele>
        <time>2023-07-20T09:50:40Z</time>
      </trkpt>
      <trkpt lat="48.37908" lon="2.74292">
        <ele>86</ele>
        <time>2023-07-20T09:50:41Z</time>
      </trkpt>
      <trkpt lat="48.37908" lon="2.74291">
        <ele>86</ele>
        <time>2023-07-20T09:50:42Z</time>
      </trkpt>
      <trkpt lat="48.37908" lon="2.74291">
        <ele>86</ele>
        <time>2023-07-20T09:50:43Z</time>
      </trkpt>
      <trkpt lat="48.37908" lon="2.74291">
        <ele>86</ele>
        <time>2023-07-20T09:50:44Z</time>
      </trkpt>
      <trkpt lat="48.37909" lon="2.74292">
        <ele>86</ele>
        <time>2023-07-20T09:50:45Z</time>
      </trkpt>
      <trkpt lat="48.37909" lon="2.74291">
        <ele>86</ele>
        <time>2023-07-20T09:50:46Z</time>
      </trkpt>
      <trkpt lat="48.37909" lon="2.74291">
        <ele>86</ele>
        <time>2023-07-20T09:50:47Z</time>
      </trkpt>
      <trkpt lat="48.37909" lon="2.74291">
        <ele>86</ele>
        <time>2023-07-20T09:50:48Z</time>
      </trkpt>
      <trkpt lat="48.37909" lon="2.7429">
        <ele>86</ele>
        <time>2023-07-20T09:50:49Z</time>
      </trkpt>
      <trkpt lat="48.37908" lon="2.74289">
        <ele>86</ele>
        <time>2023-07-20T09:50:50Z</time>
      </trkpt>
      <trkpt lat="48.37909" lon="2.74289">
        <ele>86</ele>
        <time>2023-07-20T09:50:51Z</time>
      </trkpt>
      <trkpt lat="48.37909" lon="2.74289">
        <ele>86</ele>
        <time>2023-07-20T09:50:52Z</time>
      </trkpt>
      <trkpt lat="48.37909" lon="2.74289">
        <ele>86</ele>
        <time>2023-07-20T09:50:53Z</time>
      </trkpt>
      <trkpt lat="48.37909" lon="2.7429">
        <ele>86</ele>
        <time>2023-07-20T09:50:54Z</time>
      </trkpt>
      <trkpt lat="48.37909" lon="2.7429">
        <ele>86</ele>
        <time>2023-07-20T09:50:55Z</time>
      </trkpt>
      <trkpt lat="48.37909" lon="2.7429">
        <ele>86</ele>
        <time>2023-07-20T09:50:56Z</time>
      </trkpt>
      <trkpt lat="48.37909" lon="2.7429">
        <ele>86</ele>
        <time>2023-07-20T09:50:57Z</time>
      </trkpt>
      <trkpt lat="48.37909" lon="2.7429">
        <ele>86</ele>
        <time>2023-07-20T09:50:58Z</time>
      </trkpt>
      <trkpt lat="48.37909" lon="2.7429">
        <ele>86</ele>
        <time>2023-07-20T09:50:59Z</time>
      </trkpt>
      <trkpt lat="48.37909" lon="2.7429">
        <ele>86</ele>
        <time>2023-07-20T09:51:00Z</time>
      </trkpt>
      <trkpt lat="48.37909" lon="2.7429">
        <ele>86</ele>
        <time>2023-07-20T09:51:01Z</time>
      </trkpt>
      <trkpt lat="48.37909" lon="2.7429">
        <ele>86</ele>
        <time>2023-07-20T09:51:02Z</time>
      </trkpt>
      <trkpt lat="48.37909" lon="2.7429">
        <ele>86</ele>
        <time>2023-07-20T09:51:03Z</time>
      </trkpt>
      <trkpt lat="48.37909" lon="2.7429">
        <ele>86</ele>
        <time>2023-07-20T09:51:04Z</time>
      </trkpt>
      <trkpt lat="48.37909" lon="2.7429">
        <ele>86</ele>
        <time>2023-07-20T09:51:05Z</time>
      </trkpt>
      <trkpt lat="48.37909" lon="2.7429">
        <ele>86</ele>
        <time>2023-07-20T09:51:06Z</time>
      </trkpt>
      <trkpt lat="48.37909" lon="2.74291">
        <ele>86</ele>
        <time>2023-07-20T09:51:07Z</time>
      </trkpt>
      <trkpt lat="48.37909" lon="2.74291">
        <ele>86</ele>
        <time>2023-07-20T09:51:09Z</time>
      </trkpt>
      <trkpt lat="48.3791" lon="2.74291">
        <ele>86</ele>
        <time>2023-07-20T09:51:10Z</time>
      </trkpt>
      <trkpt lat="48.3791" lon="2.74291">
        <ele>86</ele>
        <time>2023-07-20T09:51:11Z</time>
      </trkpt>
      <trkpt lat="48.3791" lon="2.74291">
        <ele>86</ele>
        <time>2023-07-20T09:51:12Z</time>
      </trkpt>
      <trkpt lat="48.3791" lon="2.74291">
        <ele>86</ele>
        <time>2023-07-20T09:51:13Z</time>
      </trkpt>
      <trkpt lat="48.3791" lon="2.74291">
        <ele>86</ele>
        <time>2023-07-20T09:51:14Z</time>
      </trkpt>
      <trkpt lat="48.3791" lon="2.74292">
        <ele>86</ele>
        <time>2023-07-20T09:51:15Z</time>
      </trkpt>
      <trkpt lat="48.3791" lon="2.74292">
        <ele>86</ele>
        <time>2023-07-20T09:51:16Z</time>
      </trkpt>
      <trkpt lat="48.3791" lon="2.74292">
        <ele>86</ele>
        <time>2023-07-20T09:51:17Z</time>
      </trkpt>
      <trkpt lat="48.37911" lon="2.74293">
        <ele>86</ele>
        <time>2023-07-20T09:51:18Z</time>
      </trkpt>
      <trkpt lat="48.37911" lon="2.74296">
        <ele>86</ele>
        <time>2023-07-20T09:51:19Z</time>
      </trkpt>
      <trkpt lat="48.37912" lon="2.74298">
        <ele>86</ele>
        <time>2023-07-20T09:51:20Z</time>
      </trkpt>
      <trkpt lat="48.37912" lon="2.74298">
        <ele>86.1</ele>
        <time>2023-07-20T09:51:21Z</time>
      </trkpt>
      <trkpt lat="48.37912" lon="2.743">
        <ele>86.2</ele>
        <time>2023-07-20T09:51:22Z</time>
      </trkpt>
      <trkpt lat="48.37912" lon="2.74302">
        <ele>86.3</ele>
        <time>2023-07-20T09:51:23Z</time>
      </trkpt>
      <trkpt lat="48.37912" lon="2.74303">
        <ele>86.3</ele>
        <time>2023-07-20T09:51:24Z</time>
      </trkpt>
      <trkpt lat="48.37912" lon="2.74305">
        <ele>86.4</ele>
        <time>2023-07-20T09:51:25Z</time>
      </trkpt>
      <trkpt lat="48.37912" lon="2.74306">
        <ele>86.4</ele>
        <time>2023-07-20T09:51:26Z</time>
      </trkpt>
      <trkpt lat="48.37912" lon="2.74307">
        <ele>86.5</ele>
        <time>2023-07-20T09:51:27Z</time>
      </trkpt>
      <trkpt lat="48.37912" lon="2.74309">
        <ele>86.5</ele>
        <time>2023-07-20T09:51:28Z</time>
      </trkpt>
      <trkpt lat="48.37912" lon="2.7431">
        <ele>86.6</ele>
        <time>2023-07-20T09:51:29Z</time>
      </trkpt>
      <trkpt lat="48.37912" lon="2.74312">
        <ele>86.7</ele>
        <time>2023-07-20T09:51:30Z</time>
      </trkpt>
      <trkpt lat="48.37912" lon="2.74313">
        <ele>86.7</ele>
        <time>2023-07-20T09:51:31Z</time>
      </trkpt>
      <trkpt lat="48.37912" lon="2.74314">
        <ele>86.7</ele>
        <time>2023-07-20T09:51:32Z</time>
      </trkpt>
      <trkpt lat="48.37912" lon="2.74315">
        <ele>86.8</ele>
        <time>2023-07-20T09:51:33Z</time>
      </trkpt>
      <trkpt lat="48.37912" lon="2.74316">
        <ele>86.8</ele>
        <time>2023-07-20T09:51:34Z</time>
      </trkpt>
      <trkpt lat="48.37912" lon="2.74317">
        <ele>86.9</ele>
        <time>2023-07-20T09:51:35Z</time>
      </trkpt>
      <trkpt lat="48.37911" lon="2.74318">
        <ele>86.9</ele>
        <time>2023-07-20T09:51:36Z</time>
      </trkpt>
      <trkpt lat="48.37911" lon="2.74319">
        <ele>86.9</ele>
        <time>2023-07-20T09:51:37Z</time>
      </trkpt>
      <trkpt lat="48.37911" lon="2.74319">
        <ele>87</ele>
        <time>2023-07-20T09:51:38Z</time>
      </trkpt>
      <trkpt lat="48.37912" lon="2.74319">
        <ele>87</ele>
        <time>2023-07-20T09:51:39Z</time>
      </trkpt>
      <trkpt lat="48.37912" lon="2.74319">
        <ele>87.1</ele>
        <time>2023-07-20T09:51:40Z</time>
      </trkpt>
      <trkpt lat="48.37912" lon="2.7432">
        <ele>87.1</ele>
        <time>2023-07-20T09:51:41Z</time>
      </trkpt>
      <trkpt lat="48.37912" lon="2.7432">
        <ele>87.1</ele>
        <time>2023-07-20T09:51:42Z</time>
      </trkpt>
      <trkpt lat="48.37912" lon="2.7432">
        <ele>87.1</ele>
        <time>2023-07-20T09:51:43Z</time>
      </trkpt>
      <trkpt lat="48.37912" lon="2.7432">
        <ele>87.1</ele>
        <time>2023-07-20T09:51:44Z</time>
      </trkpt>
      <trkpt lat="48.37912" lon="2.7432">
        <ele>87.1</ele>
        <time>2023-07-20T09:51:45Z</time>
      </trkpt>
      <trkpt lat="48.37912" lon="2.7432">
        <ele>87.1</ele>
        <time>2023-07-20T09:51:46Z</time>
      </trkpt>
      <trkpt lat="48.37912" lon="2.7432">
        <ele>87.1</ele>
        <time>2023-07-20T09:51:47Z</time>
      </trkpt>
      <trkpt lat="48.37912" lon="2.7432">
        <ele>87.1</ele>
        <time>2023-07-20T09:51:48Z</time>
      </trkpt>
      <trkpt lat="48.37912" lon="2.7432">
        <ele>87.1</ele>
        <time>2023-07-20T09:51:49Z</time>
      </trkpt>
      <trkpt lat="48.37912" lon="2.7432">
        <ele>87.1</ele>
        <time>2023-07-20T09:51:50Z</time>
      </trkpt>
      <trkpt lat="48.37912" lon="2.7432">
        <ele>87.1</ele>
        <time>2023-07-20T09:51:51Z</time>
      </trkpt>
      <trkpt lat="48.37912" lon="2.7432">
        <ele>87.1</ele>
        <time>2023-07-20T09:51:52Z</time>
      </trkpt>
      <trkpt lat="48.37912" lon="2.7432">
        <ele>87.1</ele>
        <time>2023-07-20T09:51:53Z</time>
      </trkpt>
      <trkpt lat="48.37912" lon="2.7432">
        <ele>87.1</ele>
        <time>2023-07-20T09:51:54Z</time>
      </trkpt>
      <trkpt lat="48.37912" lon="2.7432">
        <ele>87.1</ele>
        <time>2023-07-20T09:51:55Z</time>
      </trkpt>
      <trkpt lat="48.37912" lon="2.7432">
        <ele>87.1</ele>
        <time>2023-07-20T09:51:56Z</time>
      </trkpt>
      <trkpt lat="48.37912" lon="2.7432">
        <ele>87.1</ele>
        <time>2023-07-20T09:51:57Z</time>
      </trkpt>
      <trkpt lat="48.37912" lon="2.7432">
        <ele>87.1</ele>
        <time>2023-07-20T09:51:58Z</time>
      </trkpt>
      <trkpt lat="48.37912" lon="2.7432">
        <ele>87.1</ele>
        <time>2023-07-20T09:51:59Z</time>
      </trkpt>
      <trkpt lat="48.37913" lon="2.74319">
        <ele>87.2</ele>
        <time>2023-07-20T09:52:00Z</time>
      </trkpt>
      <trkpt lat="48.37913" lon="2.74319">
        <ele>87.2</ele>
        <time>2023-07-20T09:52:01Z</time>
      </trkpt>
      <trkpt lat="48.37912" lon="2.74319">
        <ele>87.2</ele>
        <time>2023-07-20T09:52:02Z</time>
      </trkpt>
      <trkpt lat="48.37912" lon="2.74318">
        <ele>87.2</ele>
        <time>2023-07-20T09:52:03Z</time>
      </trkpt>
      <trkpt lat="48.37912" lon="2.74318">
        <ele>87.2</ele>
        <time>2023-07-20T09:52:04Z</time>
      </trkpt>
      <trkpt lat="48.37912" lon="2.74317">
        <ele>87.3</ele>
        <time>2023-07-20T09:52:05Z</time>
      </trkpt>
      <trkpt lat="48.37911" lon="2.74318">
        <ele>87.3</ele>
        <time>2023-07-20T09:52:06Z</time>
      </trkpt>
      <trkpt lat="48.37912" lon="2.74319">
        <ele>87.4</ele>
        <time>2023-07-20T09:52:07Z</time>
      </trkpt>
      <trkpt lat="48.37911" lon="2.7432">
        <ele>87.4</ele>
        <time>2023-07-20T09:52:08Z</time>
      </trkpt>
      <trkpt lat="48.3791" lon="2.74321">
        <ele>87.5</ele>
        <time>2023-07-20T09:52:09Z</time>
      </trkpt>
      <trkpt lat="48.3791" lon="2.74322">
        <ele>87.5</ele>
        <time>2023-07-20T09:52:10Z</time>
      </trkpt>
      <trkpt lat="48.37909" lon="2.74322">
        <ele>87.5</ele>
        <time>2023-07-20T09:52:11Z</time>
      </trkpt>
      <trkpt lat="48.37909" lon="2.74323">
        <ele>87.6</ele>
        <time>2023-07-20T09:52:12Z</time>
      </trkpt>
      <trkpt lat="48.37908" lon="2.74324">
        <ele>87.6</ele>
        <time>2023-07-20T09:52:13Z</time>
      </trkpt>
      <trkpt lat="48.37908" lon="2.74326">
        <ele>87.7</ele>
        <time>2023-07-20T09:52:14Z</time>
      </trkpt>
      <trkpt lat="48.37908" lon="2.74328">
        <ele>87.8</ele>
        <time>2023-07-20T09:52:15Z</time>
      </trkpt>
      <trkpt lat="48.37908" lon="2.74329">
        <ele>87.8</ele>
        <time>2023-07-20T09:52:16Z</time>
      </trkpt>
      <trkpt lat="48.37908" lon="2.74332">
        <ele>87.9</ele>
        <time>2023-07-20T09:52:17Z</time>
      </trkpt>
      <trkpt lat="48.37908" lon="2.74334">
        <ele>88</ele>
        <time>2023-07-20T09:52:18Z</time>
      </trkpt>
      <trkpt lat="48.37907" lon="2.74335">
        <ele>88</ele>
        <time>2023-07-20T09:52:19Z</time>
      </trkpt>
      <trkpt lat="48.37907" lon="2.74338">
        <ele>88.1</ele>
        <time>2023-07-20T09:52:20Z</time>
      </trkpt>
      <trkpt lat="48.37907" lon="2.74339">
        <ele>88.2</ele>
        <time>2023-07-20T09:52:21Z</time>
      </trkpt>
      <trkpt lat="48.37907" lon="2.74341">
        <ele>88.3</ele>
        <time>2023-07-20T09:52:22Z</time>
      </trkpt>
      <trkpt lat="48.37907" lon="2.74343">
        <ele>88.3</ele>
        <time>2023-07-20T09:52:23Z</time>
      </trkpt>
      <trkpt lat="48.37907" lon="2.74344">
        <ele>88.4</ele>
        <time>2023-07-20T09:52:24Z</time>
      </trkpt>
      <trkpt lat="48.37906" lon="2.74345">
        <ele>88.4</ele>
        <time>2023-07-20T09:52:25Z</time>
      </trkpt>
      <trkpt lat="48.37906" lon="2.74346">
        <ele>88.5</ele>
        <time>2023-07-20T09:52:26Z</time>
      </trkpt>
      <trkpt lat="48.37905" lon="2.74346">
        <ele>88.5</ele>
        <time>2023-07-20T09:52:27Z</time>
      </trkpt>
      <trkpt lat="48.37905" lon="2.74347">
        <ele>88.6</ele>
        <time>2023-07-20T09:52:28Z</time>
      </trkpt>
      <trkpt lat="48.37904" lon="2.74348">
        <ele>88.6</ele>
        <time>2023-07-20T09:52:29Z</time>
      </trkpt>
      <trkpt lat="48.37904" lon="2.74348">
        <ele>88.6</ele>
        <time>2023-07-20T09:52:30Z</time>
      </trkpt>
      <trkpt lat="48.37903" lon="2.74351">
        <ele>88.7</ele>
        <time>2023-07-20T09:52:31Z</time>
      </trkpt>
      <trkpt lat="48.37903" lon="2.74353">
        <ele>88.8</ele>
        <time>2023-07-20T09:52:32Z</time>
      </trkpt>
      <trkpt lat="48.37902" lon="2.74355">
        <ele>88.9</ele>
        <time>2023-07-20T09:52:33Z</time>
      </trkpt>
      <trkpt lat="48.37902" lon="2.74356">
        <ele>88.9</ele>
        <time>2023-07-20T09:52:34Z</time>
      </trkpt>
      <trkpt lat="48.37903" lon="2.74358">
        <ele>89</ele>
        <time>2023-07-20T09:52:35Z</time>
      </trkpt>
      <trkpt lat="48.37902" lon="2.7436">
        <ele>89</ele>
        <time>2023-07-20T09:52:36Z</time>
      </trkpt>
      <trkpt lat="48.37902" lon="2.74361">
        <ele>89.1</ele>
        <time>2023-07-20T09:52:37Z</time>
      </trkpt>
      <trkpt lat="48.37902" lon="2.74362">
        <ele>89.2</ele>
        <time>2023-07-20T09:52:38Z</time>
      </trkpt>
      <trkpt lat="48.37901" lon="2.74364">
        <ele>89.2</ele>
        <time>2023-07-20T09:52:39Z</time>
      </trkpt>
      <trkpt lat="48.37901" lon="2.74365">
        <ele>89.2</ele>
        <time>2023-07-20T09:52:40Z</time>
      </trkpt>
      <trkpt lat="48.37901" lon="2.74366">
        <ele>89.3</ele>
        <time>2023-07-20T09:52:41Z</time>
      </trkpt>
      <trkpt lat="48.37901" lon="2.74367">
        <ele>89.3</ele>
        <time>2023-07-20T09:52:42Z</time>
      </trkpt>
      <trkpt lat="48.379" lon="2.74368">
        <ele>89.4</ele>
        <time>2023-07-20T09:52:43Z</time>
      </trkpt>
      <trkpt lat="48.37899" lon="2.74368">
        <ele>89.4</ele>
        <time>2023-07-20T09:52:44Z</time>
      </trkpt>
      <trkpt lat="48.37898" lon="2.74369">
        <ele>89.4</ele>
        <time>2023-07-20T09:52:45Z</time>
      </trkpt>
      <trkpt lat="48.37897" lon="2.7437">
        <ele>89.4</ele>
        <time>2023-07-20T09:52:46Z</time>
      </trkpt>
      <trkpt lat="48.37896" lon="2.74372">
        <ele>89.4</ele>
        <time>2023-07-20T09:52:47Z</time>
      </trkpt>
      <trkpt lat="48.37896" lon="2.74373">
        <ele>89.4</ele>
        <time>2023-07-20T09:52:48Z</time>
      </trkpt>
      <trkpt lat="48.37896" lon="2.74375">
        <ele>89.4</ele>
        <time>2023-07-20T09:52:49Z</time>
      </trkpt>
      <trkpt lat="48.37895" lon="2.74377">
        <ele>89.5</ele>
        <time>2023-07-20T09:52:50Z</time>
      </trkpt>
      <trkpt lat="48.37895" lon="2.74377">
        <ele>89.5</ele>
        <time>2023-07-20T09:52:51Z</time>
      </trkpt>
      <trkpt lat="48.37892" lon="2.74376">
        <ele>89.5</ele>
        <time>2023-07-20T09:52:52Z</time>
      </trkpt>
      <trkpt lat="48.37892" lon="2.74377">
        <ele>89.5</ele>
        <time>2023-07-20T09:52:53Z</time>
      </trkpt>
      <trkpt lat="48.37891" lon="2.74377">
        <ele>89.5</ele>
        <time>2023-07-20T09:52:54Z</time>
      </trkpt>
      <trkpt lat="48.3789" lon="2.74377">
        <ele>89.5</ele>
        <time>2023-07-20T09:52:55Z</time>
      </trkpt>
      <trkpt lat="48.37889" lon="2.74378">
        <ele>89.5</ele>
        <time>2023-07-20T09:52:56Z</time>
      </trkpt>
      <trkpt lat="48.37888" lon="2.74379">
        <ele>89.6</ele>
        <time>2023-07-20T09:52:57Z</time>
      </trkpt>
      <trkpt lat="48.37887" lon="2.74379">
        <ele>89.6</ele>
        <time>2023-07-20T09:52:58Z</time>
      </trkpt>
      <trkpt lat="48.37886" lon="2.7438">
        <ele>89.6</ele>
        <time>2023-07-20T09:52:59Z</time>
      </trkpt>
      <trkpt lat="48.37886" lon="2.74381">
        <ele>89.6</ele>
        <time>2023-07-20T09:53:00Z</time>
      </trkpt>
      <trkpt lat="48.37885" lon="2.74382">
        <ele>89.6</ele>
        <time>2023-07-20T09:53:01Z</time>
      </trkpt>
      <trkpt lat="48.37884" lon="2.74382">
        <ele>89.7</ele>
        <time>2023-07-20T09:53:02Z</time>
      </trkpt>
      <trkpt lat="48.37883" lon="2.74383">
        <ele>89.7</ele>
        <time>2023-07-20T09:53:03Z</time>
      </trkpt>
      <trkpt lat="48.37882" lon="2.74383">
        <ele>89.7</ele>
        <time>2023-07-20T09:53:04Z</time>
      </trkpt>
      <trkpt lat="48.3788" lon="2.74383">
        <ele>89.7</ele>
        <time>2023-07-20T09:53:05Z</time>
      </trkpt>
      <trkpt lat="48.3788" lon="2.74384">
        <ele>89.8</ele>
        <time>2023-07-20T09:53:06Z</time>
      </trkpt>
      <trkpt lat="48.3788" lon="2.74384">
        <ele>89.8</ele>
        <time>2023-07-20T09:53:07Z</time>
      </trkpt>
      <trkpt lat="48.3788" lon="2.74384">
        <ele>89.8</ele>
        <time>2023-07-20T09:53:08Z</time>
      </trkpt>
      <trkpt lat="48.37879" lon="2.74384">
        <ele>89.8</ele>
        <time>2023-07-20T09:53:09Z</time>
      </trkpt>
      <trkpt lat="48.37878" lon="2.74384">
        <ele>89.8</ele>
        <time>2023-07-20T09:53:10Z</time>
      </trkpt>
      <trkpt lat="48.37878" lon="2.74385">
        <ele>89.8</ele>
        <time>2023-07-20T09:53:11Z</time>
      </trkpt>
      <trkpt lat="48.37877" lon="2.74387">
        <ele>89.8</ele>
        <time>2023-07-20T09:53:12Z</time>
      </trkpt>
      <trkpt lat="48.37877" lon="2.74388">
        <ele>89.8</ele>
        <time>2023-07-20T09:53:13Z</time>
      </trkpt>
      <trkpt lat="48.37876" lon="2.74389">
        <ele>89.9</ele>
        <time>2023-07-20T09:53:14Z</time>
      </trkpt>
      <trkpt lat="48.37876" lon="2.7439">
        <ele>89.9</ele>
        <time>2023-07-20T09:53:15Z</time>
      </trkpt>
      <trkpt lat="48.37875" lon="2.74391">
        <ele>89.9</ele>
        <time>2023-07-20T09:53:16Z</time>
      </trkpt>
      <trkpt lat="48.37875" lon="2.74391">
        <ele>89.9</ele>
        <time>2023-07-20T09:53:17Z</time>
      </trkpt>
      <trkpt lat="48.37875" lon="2.74392">
        <ele>89.9</ele>
        <time>2023-07-20T09:53:18Z</time>
      </trkpt>
      <trkpt lat="48.37873" lon="2.74392">
        <ele>89.9</ele>
        <time>2023-07-20T09:53:19Z</time>
      </trkpt>
      <trkpt lat="48.37872" lon="2.74393">
        <ele>90</ele>
        <time>2023-07-20T09:53:20Z</time>
      </trkpt>
      <trkpt lat="48.37872" lon="2.74393">
        <ele>90</ele>
        <time>2023-07-20T09:53:21Z</time>
      </trkpt>
      <trkpt lat="48.37871" lon="2.74394">
        <ele>90</ele>
        <time>2023-07-20T09:53:22Z</time>
      </trkpt>
      <trkpt lat="48.3787" lon="2.74394">
        <ele>90</ele>
        <time>2023-07-20T09:53:23Z</time>
      </trkpt>
      <trkpt lat="48.37869" lon="2.74395">
        <ele>90</ele>
        <time>2023-07-20T09:53:24Z</time>
      </trkpt>
      <trkpt lat="48.37868" lon="2.74396">
        <ele>90</ele>
        <time>2023-07-20T09:53:25Z</time>
      </trkpt>
      <trkpt lat="48.37868" lon="2.74397">
        <ele>90.1</ele>
        <time>2023-07-20T09:53:26Z</time>
      </trkpt>
      <trkpt lat="48.37867" lon="2.74398">
        <ele>90.1</ele>
        <time>2023-07-20T09:53:27Z</time>
      </trkpt>
      <trkpt lat="48.37867" lon="2.74398">
        <ele>90.1</ele>
        <time>2023-07-20T09:53:28Z</time>
      </trkpt>
      <trkpt lat="48.37866" lon="2.744">
        <ele>90.1</ele>
        <time>2023-07-20T09:53:29Z</time>
      </trkpt>
      <trkpt lat="48.37865" lon="2.74399">
        <ele>90.1</ele>
        <time>2023-07-20T09:53:30Z</time>
      </trkpt>
      <trkpt lat="48.37865" lon="2.74399">
        <ele>90.1</ele>
        <time>2023-07-20T09:53:31Z</time>
      </trkpt>
      <trkpt lat="48.37864" lon="2.744">
        <ele>90.1</ele>
        <time>2023-07-20T09:53:32Z</time>
      </trkpt>
      <trkpt lat="48.37863" lon="2.74402">
        <ele>90.2</ele>
        <time>2023-07-20T09:53:33Z</time>
      </trkpt>
      <trkpt lat="48.37861" lon="2.74403">
        <ele>90.2</ele>
        <time>2023-07-20T09:53:34Z</time>
      </trkpt>
      <trkpt lat="48.3786" lon="2.74404">
        <ele>90.2</ele>
        <time>2023-07-20T09:53:35Z</time>
      </trkpt>
      <trkpt lat="48.37859" lon="2.74405">
        <ele>90.2</ele>
        <time>2023-07-20T09:53:36Z</time>
      </trkpt>
      <trkpt lat="48.37858" lon="2.74406">
        <ele>90.2</ele>
        <time>2023-07-20T09:53:37Z</time>
      </trkpt>
      <trkpt lat="48.37858" lon="2.74407">
        <ele>90.2</ele>
        <time>2023-07-20T09:53:38Z</time>
      </trkpt>
      <trkpt lat="48.37857" lon="2.74407">
        <ele>90.2</ele>
        <time>2023-07-20T09:53:39Z</time>
      </trkpt>
      <trkpt lat="48.37856" lon="2.74408">
        <ele>90.3</ele>
        <time>2023-07-20T09:53:40Z</time>
      </trkpt>
      <trkpt lat="48.37855" lon="2.74411">
        <ele>90.3</ele>
        <time>2023-07-20T09:53:41Z</time>
      </trkpt>
      <trkpt lat="48.37853" lon="2.74413">
        <ele>90.3</ele>
        <time>2023-07-20T09:53:42Z</time>
      </trkpt>
      <trkpt lat="48.37852" lon="2.74413">
        <ele>90.3</ele>
        <time>2023-07-20T09:53:43Z</time>
      </trkpt>
      <trkpt lat="48.37852" lon="2.74414">
        <ele>90.3</ele>
        <time>2023-07-20T09:53:44Z</time>
      </trkpt>
      <trkpt lat="48.37851" lon="2.74415">
        <ele>90.3</ele>
        <time>2023-07-20T09:53:45Z</time>
      </trkpt>
      <trkpt lat="48.37849" lon="2.74416">
        <ele>90.4</ele>
        <time>2023-07-20T09:53:46Z</time>
      </trkpt>
      <trkpt lat="48.37848" lon="2.74417">
        <ele>90.4</ele>
        <time>2023-07-20T09:53:47Z</time>
      </trkpt>
      <trkpt lat="48.37846" lon="2.74418">
        <ele>90.4</ele>
        <time>2023-07-20T09:53:48Z</time>
      </trkpt>
      <trkpt lat="48.37845" lon="2.74418">
        <ele>90.4</ele>
        <time>2023-07-20T09:53:49Z</time>
      </trkpt>
      <trkpt lat="48.37843" lon="2.74418">
        <ele>90.4</ele>
        <time>2023-07-20T09:53:50Z</time>
      </trkpt>
      <trkpt lat="48.37842" lon="2.74418">
        <ele>90.4</ele>
        <time>2023-07-20T09:53:51Z</time>
      </trkpt>
      <trkpt lat="48.37841" lon="2.74418">
        <ele>90.4</ele>
        <time>2023-07-20T09:53:52Z</time>
      </trkpt>
      <trkpt lat="48.3784" lon="2.74419">
        <ele>90.5</ele>
        <time>2023-07-20T09:53:53Z</time>
      </trkpt>
      <trkpt lat="48.37839" lon="2.7442">
        <ele>90.5</ele>
        <time>2023-07-20T09:53:54Z</time>
      </trkpt>
      <trkpt lat="48.37838" lon="2.7442">
        <ele>90.5</ele>
        <time>2023-07-20T09:53:55Z</time>
      </trkpt>
      <trkpt lat="48.37837" lon="2.74422">
        <ele>90.5</ele>
        <time>2023-07-20T09:53:56Z</time>
      </trkpt>
      <trkpt lat="48.37836" lon="2.74422">
        <ele>90.5</ele>
        <time>2023-07-20T09:53:57Z</time>
      </trkpt>
      <trkpt lat="48.37834" lon="2.74424">
        <ele>90.5</ele>
        <time>2023-07-20T09:53:58Z</time>
      </trkpt>
      <trkpt lat="48.37834" lon="2.74425">
        <ele>90.5</ele>
        <time>2023-07-20T09:53:59Z</time>
      </trkpt>
      <trkpt lat="48.37832" lon="2.74426">
        <ele>90.5</ele>
        <time>2023-07-20T09:54:00Z</time>
      </trkpt>
      <trkpt lat="48.3783" lon="2.74428">
        <ele>90.5</ele>
        <time>2023-07-20T09:54:01Z</time>
      </trkpt>
      <trkpt lat="48.3783" lon="2.74429">
        <ele>90.5</ele>
        <time>2023-07-20T09:54:02Z</time>
      </trkpt>
      <trkpt lat="48.37829" lon="2.7443">
        <ele>90.6</ele>
        <time>2023-07-20T09:54:03Z</time>
      </trkpt>
      <trkpt lat="48.37828" lon="2.7443">
        <ele>90.6</ele>
        <time>2023-07-20T09:54:04Z</time>
      </trkpt>
      <trkpt lat="48.37827" lon="2.74431">
        <ele>90.6</ele>
        <time>2023-07-20T09:54:05Z</time>
      </trkpt>
      <trkpt lat="48.37827" lon="2.74432">
        <ele>90.6</ele>
        <time>2023-07-20T09:54:06Z</time>
      </trkpt>
      <trkpt lat="48.37827" lon="2.74432">
        <ele>90.6</ele>
        <time>2023-07-20T09:54:07Z</time>
      </trkpt>
      <trkpt lat="48.37826" lon="2.74432">
        <ele>90.6</ele>
        <time>2023-07-20T09:54:08Z</time>
      </trkpt>
      <trkpt lat="48.37826" lon="2.74433">
        <ele>90.6</ele>
        <time>2023-07-20T09:54:09Z</time>
      </trkpt>
      <trkpt lat="48.37825" lon="2.74434">
        <ele>90.6</ele>
        <time>2023-07-20T09:54:10Z</time>
      </trkpt>
      <trkpt lat="48.37825" lon="2.74435">
        <ele>90.6</ele>
        <time>2023-07-20T09:54:11Z</time>
      </trkpt>
      <trkpt lat="48.37824" lon="2.74435">
        <ele>90.6</ele>
        <time>2023-07-20T09:54:12Z</time>
      </trkpt>
      <trkpt lat="48.37823" lon="2.74436">
        <ele>90.6</ele>
        <time>2023-07-20T09:54:13Z</time>
      </trkpt>
      <trkpt lat="48.37822" lon="2.74436">
        <ele>90.6</ele>
        <time>2023-07-20T09:54:14Z</time>
      </trkpt>
      <trkpt lat="48.3782" lon="2.74437">
        <ele>90.6</ele>
        <time>2023-07-20T09:54:15Z</time>
      </trkpt>
      <trkpt lat="48.3782" lon="2.74438">
        <ele>90.6</ele>
        <time>2023-07-20T09:54:16Z</time>
      </trkpt>
      <trkpt lat="48.37819" lon="2.74438">
        <ele>90.6</ele>
        <time>2023-07-20T09:54:17Z</time>
      </trkpt>
      <trkpt lat="48.37818" lon="2.74439">
        <ele>90.6</ele>
        <time>2023-07-20T09:54:18Z</time>
      </trkpt>
      <trkpt lat="48.37817" lon="2.7444">
        <ele>90.6</ele>
        <time>2023-07-20T09:54:19Z</time>
      </trkpt>
      <trkpt lat="48.37817" lon="2.74441">
        <ele>90.6</ele>
        <time>2023-07-20T09:54:20Z</time>
      </trkpt>
      <trkpt lat="48.37817" lon="2.74442">
        <ele>90.6</ele>
        <time>2023-07-20T09:54:21Z</time>
      </trkpt>
      <trkpt lat="48.37817" lon="2.74443">
        <ele>90.7</ele>
        <time>2023-07-20T09:54:22Z</time>
      </trkpt>
      <trkpt lat="48.37816" lon="2.74443">
        <ele>90.7</ele>
        <time>2023-07-20T09:54:23Z</time>
      </trkpt>
      <trkpt lat="48.37816" lon="2.74445">
        <ele>90.7</ele>
        <time>2023-07-20T09:54:24Z</time>
      </trkpt>
      <trkpt lat="48.37815" lon="2.74447">
        <ele>90.7</ele>
        <time>2023-07-20T09:54:25Z</time>
      </trkpt>
      <trkpt lat="48.37815" lon="2.74447">
        <ele>90.7</ele>
        <time>2023-07-20T09:54:26Z</time>
      </trkpt>
      <trkpt lat="48.37814" lon="2.74449">
        <ele>90.7</ele>
        <time>2023-07-20T09:54:27Z</time>
      </trkpt>
      <trkpt lat="48.37813" lon="2.7445">
        <ele>90.7</ele>
        <time>2023-07-20T09:54:28Z</time>
      </trkpt>
      <trkpt lat="48.37812" lon="2.7445">
        <ele>90.7</ele>
        <time>2023-07-20T09:54:29Z</time>
      </trkpt>
      <trkpt lat="48.37811" lon="2.74451">
        <ele>90.7</ele>
        <time>2023-07-20T09:54:30Z</time>
      </trkpt>
      <trkpt lat="48.3781" lon="2.74452">
        <ele>90.7</ele>
        <time>2023-07-20T09:54:31Z</time>
      </trkpt>
      <trkpt lat="48.37809" lon="2.74453">
        <ele>90.7</ele>
        <time>2023-07-20T09:54:32Z</time>
      </trkpt>
      <trkpt lat="48.37807" lon="2.74454">
        <ele>90.7</ele>
        <time>2023-07-20T09:54:33Z</time>
      </trkpt>
      <trkpt lat="48.37806" lon="2.74456">
        <ele>90.7</ele>
        <time>2023-07-20T09:54:34Z</time>
      </trkpt>
      <trkpt lat="48.37805" lon="2.74456">
        <ele>90.7</ele>
        <time>2023-07-20T09:54:35Z</time>
      </trkpt>
      <trkpt lat="48.37804" lon="2.74457">
        <ele>90.7</ele>
        <time>2023-07-20T09:54:36Z</time>
      </trkpt>
      <trkpt lat="48.37803" lon="2.74458">
        <ele>90.7</ele>
        <time>2023-07-20T09:54:37Z</time>
      </trkpt>
      <trkpt lat="48.37803" lon="2.7446">
        <ele>90.7</ele>
        <time>2023-07-20T09:54:38Z</time>
      </trkpt>
      <trkpt lat="48.37802" lon="2.74461">
        <ele>90.8</ele>
        <time>2023-07-20T09:54:39Z</time>
      </trkpt>
      <trkpt lat="48.37801" lon="2.74462">
        <ele>90.8</ele>
        <time>2023-07-20T09:54:40Z</time>
      </trkpt>
      <trkpt lat="48.378" lon="2.74463">
        <ele>90.8</ele>
        <time>2023-07-20T09:54:41Z</time>
      </trkpt>
      <trkpt lat="48.378" lon="2.74464">
        <ele>90.8</ele>
        <time>2023-07-20T09:54:42Z</time>
      </trkpt>
      <trkpt lat="48.37799" lon="2.74465">
        <ele>90.8</ele>
        <time>2023-07-20T09:54:43Z</time>
      </trkpt>
      <trkpt lat="48.37798" lon="2.74465">
        <ele>90.8</ele>
        <time>2023-07-20T09:54:44Z</time>
      </trkpt>
      <trkpt lat="48.37797" lon="2.74465">
        <ele>90.8</ele>
        <time>2023-07-20T09:54:45Z</time>
      </trkpt>
      <trkpt lat="48.37797" lon="2.74466">
        <ele>90.8</ele>
        <time>2023-07-20T09:54:46Z</time>
      </trkpt>
      <trkpt lat="48.37796" lon="2.74467">
        <ele>90.8</ele>
        <time>2023-07-20T09:54:47Z</time>
      </trkpt>
      <trkpt lat="48.37795" lon="2.74468">
        <ele>90.8</ele>
        <time>2023-07-20T09:54:48Z</time>
      </trkpt>
      <trkpt lat="48.37793" lon="2.74469">
        <ele>90.8</ele>
        <time>2023-07-20T09:54:49Z</time>
      </trkpt>
      <trkpt lat="48.37792" lon="2.7447">
        <ele>90.8</ele>
        <time>2023-07-20T09:54:50Z</time>
      </trkpt>
      <trkpt lat="48.37791" lon="2.74471">
        <ele>90.8</ele>
        <time>2023-07-20T09:54:51Z</time>
      </trkpt>
      <trkpt lat="48.37789" lon="2.74472">
        <ele>90.8</ele>
        <time>2023-07-20T09:54:52Z</time>
      </trkpt>
      <trkpt lat="48.37789" lon="2.74472">
        <ele>90.8</ele>
        <time>2023-07-20T09:54:53Z</time>
      </trkpt>
      <trkpt lat="48.37788" lon="2.74473">
        <ele>90.8</ele>
        <time>2023-07-20T09:54:54Z</time>
      </trkpt>
      <trkpt lat="48.37787" lon="2.74475">
        <ele>90.8</ele>
        <time>2023-07-20T09:54:55Z</time>
      </trkpt>
      <trkpt lat="48.37786" lon="2.74475">
        <ele>90.8</ele>
        <time>2023-07-20T09:54:56Z</time>
      </trkpt>
      <trkpt lat="48.37784" lon="2.74477">
        <ele>90.9</ele>
        <time>2023-07-20T09:54:57Z</time>
      </trkpt>
      <trkpt lat="48.37783" lon="2.74479">
        <ele>90.9</ele>
        <time>2023-07-20T09:54:58Z</time>
      </trkpt>
      <trkpt lat="48.37782" lon="2.74479">
        <ele>90.9</ele>
        <time>2023-07-20T09:54:59Z</time>
      </trkpt>
      <trkpt lat="48.37781" lon="2.7448">
        <ele>90.9</ele>
        <time>2023-07-20T09:55:00Z</time>
      </trkpt>
      <trkpt lat="48.37779" lon="2.74481">
        <ele>90.9</ele>
        <time>2023-07-20T09:55:01Z</time>
      </trkpt>
      <trkpt lat="48.37778" lon="2.74481">
        <ele>90.9</ele>
        <time>2023-07-20T09:55:02Z</time>
      </trkpt>
      <trkpt lat="48.37777" lon="2.74481">
        <ele>90.9</ele>
        <time>2023-07-20T09:55:03Z</time>
      </trkpt>
      <trkpt lat="48.37776" lon="2.74484">
        <ele>90.9</ele>
        <time>2023-07-20T09:55:04Z</time>
      </trkpt>
      <trkpt lat="48.37775" lon="2.74484">
        <ele>90.9</ele>
        <time>2023-07-20T09:55:05Z</time>
      </trkpt>
      <trkpt lat="48.37774" lon="2.74485">
        <ele>90.9</ele>
        <time>2023-07-20T09:55:06Z</time>
      </trkpt>
      <trkpt lat="48.37773" lon="2.74486">
        <ele>90.9</ele>
        <time>2023-07-20T09:55:07Z</time>
      </trkpt>
      <trkpt lat="48.37772" lon="2.74488">
        <ele>90.9</ele>
        <time>2023-07-20T09:55:08Z</time>
      </trkpt>
      <trkpt lat="48.37771" lon="2.74488">
        <ele>90.9</ele>
        <time>2023-07-20T09:55:09Z</time>
      </trkpt>
      <trkpt lat="48.3777" lon="2.7449">
        <ele>90.9</ele>
        <time>2023-07-20T09:55:10Z</time>
      </trkpt>
      <trkpt lat="48.3777" lon="2.74491">
        <ele>90.9</ele>
        <time>2023-07-20T09:55:11Z</time>
      </trkpt>
      <trkpt lat="48.37768" lon="2.74493">
        <ele>90.9</ele>
        <time>2023-07-20T09:55:12Z</time>
      </trkpt>
      <trkpt lat="48.37767" lon="2.74493">
        <ele>91</ele>
        <time>2023-07-20T09:55:13Z</time>
      </trkpt>
      <trkpt lat="48.37767" lon="2.74494">
        <ele>91</ele>
        <time>2023-07-20T09:55:14Z</time>
      </trkpt>
      <trkpt lat="48.37766" lon="2.74494">
        <ele>91</ele>
        <time>2023-07-20T09:55:15Z</time>
      </trkpt>
      <trkpt lat="48.37766" lon="2.74494">
        <ele>91</ele>
        <time>2023-07-20T09:55:16Z</time>
      </trkpt>
      <trkpt lat="48.37765" lon="2.74494">
        <ele>91</ele>
        <time>2023-07-20T09:55:17Z</time>
      </trkpt>
      <trkpt lat="48.37763" lon="2.74495">
        <ele>91</ele>
        <time>2023-07-20T09:55:18Z</time>
      </trkpt>
      <trkpt lat="48.37763" lon="2.74496">
        <ele>91</ele>
        <time>2023-07-20T09:55:19Z</time>
      </trkpt>
      <trkpt lat="48.37762" lon="2.74496">
        <ele>91</ele>
        <time>2023-07-20T09:55:20Z</time>
      </trkpt>
      <trkpt lat="48.37761" lon="2.74496">
        <ele>91</ele>
        <time>2023-07-20T09:55:21Z</time>
      </trkpt>
      <trkpt lat="48.3776" lon="2.74497">
        <ele>91</ele>
        <time>2023-07-20T09:55:22Z</time>
      </trkpt>
      <trkpt lat="48.37759" lon="2.74499">
        <ele>91</ele>
        <time>2023-07-20T09:55:23Z</time>
      </trkpt>
      <trkpt lat="48.37758" lon="2.74501">
        <ele>91</ele>
        <time>2023-07-20T09:55:24Z</time>
      </trkpt>
      <trkpt lat="48.37756" lon="2.74502">
        <ele>91</ele>
        <time>2023-07-20T09:55:25Z</time>
      </trkpt>
      <trkpt lat="48.37755" lon="2.74503">
        <ele>91</ele>
        <time>2023-07-20T09:55:26Z</time>
      </trkpt>
      <trkpt lat="48.37754" lon="2.74504">
        <ele>91.1</ele>
        <time>2023-07-20T09:55:27Z</time>
      </trkpt>
      <trkpt lat="48.37753" lon="2.74505">
        <ele>91.1</ele>
        <time>2023-07-20T09:55:28Z</time>
      </trkpt>
      <trkpt lat="48.37753" lon="2.74505">
        <ele>91.1</ele>
        <time>2023-07-20T09:55:29Z</time>
      </trkpt>
      <trkpt lat="48.37752" lon="2.74506">
        <ele>91.1</ele>
        <time>2023-07-20T09:55:30Z</time>
      </trkpt>
      <trkpt lat="48.3775" lon="2.74507">
        <ele>91.1</ele>
        <time>2023-07-20T09:55:31Z</time>
      </trkpt>
      <trkpt lat="48.37749" lon="2.74507">
        <ele>91.1</ele>
        <time>2023-07-20T09:55:32Z</time>
      </trkpt>
      <trkpt lat="48.37748" lon="2.74508">
        <ele>91.1</ele>
        <time>2023-07-20T09:55:33Z</time>
      </trkpt>
      <trkpt lat="48.37746" lon="2.7451">
        <ele>91.1</ele>
        <time>2023-07-20T09:55:34Z</time>
      </trkpt>
      <trkpt lat="48.37745" lon="2.74511">
        <ele>91.1</ele>
        <time>2023-07-20T09:55:35Z</time>
      </trkpt>
      <trkpt lat="48.37744" lon="2.74511">
        <ele>91.1</ele>
        <time>2023-07-20T09:55:36Z</time>
      </trkpt>
      <trkpt lat="48.37743" lon="2.74513">
        <ele>91.1</ele>
        <time>2023-07-20T09:55:37Z</time>
      </trkpt>
      <trkpt lat="48.37742" lon="2.74514">
        <ele>91.1</ele>
        <time>2023-07-20T09:55:38Z</time>
      </trkpt>
      <trkpt lat="48.37741" lon="2.74515">
        <ele>91.1</ele>
        <time>2023-07-20T09:55:39Z</time>
      </trkpt>
      <trkpt lat="48.3774" lon="2.74515">
        <ele>91.1</ele>
        <time>2023-07-20T09:55:40Z</time>
      </trkpt>
      <trkpt lat="48.3774" lon="2.74516">
        <ele>91.1</ele>
        <time>2023-07-20T09:55:41Z</time>
      </trkpt>
      <trkpt lat="48.37739" lon="2.74517">
        <ele>91.1</ele>
        <time>2023-07-20T09:55:42Z</time>
      </trkpt>
      <trkpt lat="48.37739" lon="2.74518">
        <ele>91.1</ele>
        <time>2023-07-20T09:55:43Z</time>
      </trkpt>
      <trkpt lat="48.37738" lon="2.74518">
        <ele>91.1</ele>
        <time>2023-07-20T09:55:44Z</time>
      </trkpt>
      <trkpt lat="48.37737" lon="2.74518">
        <ele>91.1</ele>
        <time>2023-07-20T09:55:45Z</time>
      </trkpt>
      <trkpt lat="48.37736" lon="2.7452">
        <ele>91.1</ele>
        <time>2023-07-20T09:55:46Z</time>
      </trkpt>
      <trkpt lat="48.37735" lon="2.74521">
        <ele>91.1</ele>
        <time>2023-07-20T09:55:47Z</time>
      </trkpt>
      <trkpt lat="48.37734" lon="2.74522">
        <ele>91.1</ele>
        <time>2023-07-20T09:55:48Z</time>
      </trkpt>
      <trkpt lat="48.37733" lon="2.74522">
        <ele>91.1</ele>
        <time>2023-07-20T09:55:49Z</time>
      </trkpt>
      <trkpt lat="48.37732" lon="2.74523">
        <ele>91.1</ele>
        <time>2023-07-20T09:55:50Z</time>
      </trkpt>
      <trkpt lat="48.37731" lon="2.74524">
        <ele>91.1</ele>
        <time>2023-07-20T09:55:51Z</time>
      </trkpt>
      <trkpt lat="48.3773" lon="2.74524">
        <ele>91.1</ele>
        <time>2023-07-20T09:55:52Z</time>
      </trkpt>
      <trkpt lat="48.37728" lon="2.74524">
        <ele>91.1</ele>
        <time>2023-07-20T09:55:53Z</time>
      </trkpt>
      <trkpt lat="48.37728" lon="2.74523">
        <ele>91.1</ele>
        <time>2023-07-20T09:55:54Z</time>
      </trkpt>
      <trkpt lat="48.37727" lon="2.74524">
        <ele>91.1</ele>
        <time>2023-07-20T09:55:55Z</time>
      </trkpt>
      <trkpt lat="48.37727" lon="2.74525">
        <ele>91.1</ele>
        <time>2023-07-20T09:55:56Z</time>
      </trkpt>
      <trkpt lat="48.37726" lon="2.74526">
        <ele>91.1</ele>
        <time>2023-07-20T09:55:57Z</time>
      </trkpt>
      <trkpt lat="48.37724" lon="2.74527">
        <ele>91.1</ele>
        <time>2023-07-20T09:55:58Z</time>
      </trkpt>
      <trkpt lat="48.37723" lon="2.74527">
        <ele>91.1</ele>
        <time>2023-07-20T09:55:59Z</time>
      </trkpt>
      <trkpt lat="48.37722" lon="2.74527">
        <ele>91.1</ele>
        <time>2023-07-20T09:56:00Z</time>
      </trkpt>
      <trkpt lat="48.37721" lon="2.74527">
        <ele>91.1</ele>
        <time>2023-07-20T09:56:01Z</time>
      </trkpt>
      <trkpt lat="48.37719" lon="2.74529">
        <ele>91.1</ele>
        <time>2023-07-20T09:56:02Z</time>
      </trkpt>
      <trkpt lat="48.37718" lon="2.7453">
        <ele>91.1</ele>
        <time>2023-07-20T09:56:03Z</time>
      </trkpt>
      <trkpt lat="48.37717" lon="2.7453">
        <ele>91.1</ele>
        <time>2023-07-20T09:56:04Z</time>
      </trkpt>
      <trkpt lat="48.37716" lon="2.74531">
        <ele>91.1</ele>
        <time>2023-07-20T09:56:05Z</time>
      </trkpt>
      <trkpt lat="48.37716" lon="2.74532">
        <ele>91.1</ele>
        <time>2023-07-20T09:56:06Z</time>
      </trkpt>
      <trkpt lat="48.37715" lon="2.74533">
        <ele>91.2</ele>
        <time>2023-07-20T09:56:07Z</time>
      </trkpt>
      <trkpt lat="48.37714" lon="2.74533">
        <ele>91.2</ele>
        <time>2023-07-20T09:56:08Z</time>
      </trkpt>
      <trkpt lat="48.37712" lon="2.74534">
        <ele>91.2</ele>
        <time>2023-07-20T09:56:09Z</time>
      </trkpt>
      <trkpt lat="48.37711" lon="2.74534">
        <ele>91.2</ele>
        <time>2023-07-20T09:56:10Z</time>
      </trkpt>
      <trkpt lat="48.3771" lon="2.74535">
        <ele>91.2</ele>
        <time>2023-07-20T09:56:11Z</time>
      </trkpt>
      <trkpt lat="48.37709" lon="2.74537">
        <ele>91.2</ele>
        <time>2023-07-20T09:56:12Z</time>
      </trkpt>
      <trkpt lat="48.37708" lon="2.74538">
        <ele>91.2</ele>
        <time>2023-07-20T09:56:13Z</time>
      </trkpt>
      <trkpt lat="48.37706" lon="2.74541">
        <ele>91.2</ele>
        <time>2023-07-20T09:56:14Z</time>
      </trkpt>
      <trkpt lat="48.37705" lon="2.74542">
        <ele>91.2</ele>
        <time>2023-07-20T09:56:15Z</time>
      </trkpt>
      <trkpt lat="48.37704" lon="2.74543">
        <ele>91.2</ele>
        <time>2023-07-20T09:56:16Z</time>
      </trkpt>
      <trkpt lat="48.37703" lon="2.74544">
        <ele>91.2</ele>
        <time>2023-07-20T09:56:17Z</time>
      </trkpt>
      <trkpt lat="48.37702" lon="2.74545">
        <ele>91.2</ele>
        <time>2023-07-20T09:56:18Z</time>
      </trkpt>
      <trkpt lat="48.37702" lon="2.74545">
        <ele>91.2</ele>
        <time>2023-07-20T09:56:19Z</time>
      </trkpt>
      <trkpt lat="48.377" lon="2.74545">
        <ele>91.2</ele>
        <time>2023-07-20T09:56:20Z</time>
      </trkpt>
      <trkpt lat="48.37699" lon="2.74545">
        <ele>91.2</ele>
        <time>2023-07-20T09:56:21Z</time>
      </trkpt>
      <trkpt lat="48.37698" lon="2.74546">
        <ele>91.2</ele>
        <time>2023-07-20T09:56:22Z</time>
      </trkpt>
      <trkpt lat="48.37698" lon="2.74546">
        <ele>91.2</ele>
        <time>2023-07-20T09:56:23Z</time>
      </trkpt>
      <trkpt lat="48.37697" lon="2.74546">
        <ele>91.2</ele>
        <time>2023-07-20T09:56:24Z</time>
      </trkpt>
      <trkpt lat="48.37696" lon="2.74547">
        <ele>91.2</ele>
        <time>2023-07-20T09:56:25Z</time>
      </trkpt>
      <trkpt lat="48.37694" lon="2.74548">
        <ele>91.2</ele>
        <time>2023-07-20T09:56:26Z</time>
      </trkpt>
      <trkpt lat="48.37694" lon="2.74549">
        <ele>91.2</ele>
        <time>2023-07-20T09:56:27Z</time>
      </trkpt>
      <trkpt lat="48.37693" lon="2.74551">
        <ele>91.2</ele>
        <time>2023-07-20T09:56:28Z</time>
      </trkpt>
      <trkpt lat="48.37691" lon="2.74553">
        <ele>91.2</ele>
        <time>2023-07-20T09:56:29Z</time>
      </trkpt>
      <trkpt lat="48.3769" lon="2.74554">
        <ele>91.2</ele>
        <time>2023-07-20T09:56:30Z</time>
      </trkpt>
      <trkpt lat="48.3769" lon="2.74554">
        <ele>91.2</ele>
        <time>2023-07-20T09:56:31Z</time>
      </trkpt>
      <trkpt lat="48.37688" lon="2.74557">
        <ele>91.2</ele>
        <time>2023-07-20T09:56:32Z</time>
      </trkpt>
      <trkpt lat="48.37688" lon="2.74558">
        <ele>91.2</ele>
        <time>2023-07-20T09:56:33Z</time>
      </trkpt>
      <trkpt lat="48.37687" lon="2.74559">
        <ele>91.2</ele>
        <time>2023-07-20T09:56:34Z</time>
      </trkpt>
      <trkpt lat="48.37687" lon="2.74559">
        <ele>91.2</ele>
        <time>2023-07-20T09:56:35Z</time>
      </trkpt>
      <trkpt lat="48.37687" lon="2.74558">
        <ele>91.2</ele>
        <time>2023-07-20T09:56:36Z</time>
      </trkpt>
      <trkpt lat="48.37686" lon="2.74559">
        <ele>91.2</ele>
        <time>2023-07-20T09:56:37Z</time>
      </trkpt>
      <trkpt lat="48.37685" lon="2.7456">
        <ele>91.2</ele>
        <time>2023-07-20T09:56:38Z</time>
      </trkpt>
      <trkpt lat="48.37684" lon="2.7456">
        <ele>91.2</ele>
        <time>2023-07-20T09:56:39Z</time>
      </trkpt>
      <trkpt lat="48.37683" lon="2.7456">
        <ele>91.2</ele>
        <time>2023-07-20T09:56:40Z</time>
      </trkpt>
      <trkpt lat="48.37682" lon="2.7456">
        <ele>91.2</ele>
        <time>2023-07-20T09:56:41Z</time>
      </trkpt>
      <trkpt lat="48.3768" lon="2.74561">
        <ele>91.2</ele>
        <time>2023-07-20T09:56:42Z</time>
      </trkpt>
      <trkpt lat="48.37679" lon="2.74563">
        <ele>91.2</ele>
        <time>2023-07-20T09:56:43Z</time>
      </trkpt>
      <trkpt lat="48.37678" lon="2.74564">
        <ele>91.2</ele>
        <time>2023-07-20T09:56:44Z</time>
      </trkpt>
      <trkpt lat="48.37677" lon="2.74565">
        <ele>91.2</ele>
        <time>2023-07-20T09:56:45Z</time>
      </trkpt>
      <trkpt lat="48.37676" lon="2.74565">
        <ele>91.2</ele>
        <time>2023-07-20T09:56:46Z</time>
      </trkpt>
      <trkpt lat="48.37675" lon="2.74565">
        <ele>91.2</ele>
        <time>2023-07-20T09:56:47Z</time>
      </trkpt>
      <trkpt lat="48.37675" lon="2.74566">
        <ele>91.2</ele>
        <time>2023-07-20T09:56:48Z</time>
      </trkpt>
      <trkpt lat="48.37674" lon="2.74567">
        <ele>91.2</ele>
        <time>2023-07-20T09:56:49Z</time>
      </trkpt>
      <trkpt lat="48.37673" lon="2.74567">
        <ele>91.2</ele>
        <time>2023-07-20T09:56:50Z</time>
      </trkpt>
      <trkpt lat="48.37673" lon="2.74568">
        <ele>91.2</ele>
        <time>2023-07-20T09:56:51Z</time>
      </trkpt>
      <trkpt lat="48.37672" lon="2.74569">
        <ele>91.2</ele>
        <time>2023-07-20T09:56:52Z</time>
      </trkpt>
      <trkpt lat="48.37671" lon="2.7457">
        <ele>91.2</ele>
        <time>2023-07-20T09:56:53Z</time>
      </trkpt>
      <trkpt lat="48.37669" lon="2.74569">
        <ele>91.2</ele>
        <time>2023-07-20T09:56:54Z</time>
      </trkpt>
      <trkpt lat="48.37668" lon="2.7457">
        <ele>91.2</ele>
        <time>2023-07-20T09:56:55Z</time>
      </trkpt>
      <trkpt lat="48.37666" lon="2.74572">
        <ele>91.2</ele>
        <time>2023-07-20T09:56:56Z</time>
      </trkpt>
      <trkpt lat="48.37665" lon="2.74572">
        <ele>91.2</ele>
        <time>2023-07-20T09:56:57Z</time>
      </trkpt>
      <trkpt lat="48.37664" lon="2.74572">
        <ele>91.2</ele>
        <time>2023-07-20T09:56:58Z</time>
      </trkpt>
      <trkpt lat="48.37663" lon="2.74573">
        <ele>91.2</ele>
        <time>2023-07-20T09:56:59Z</time>
      </trkpt>
      <trkpt lat="48.37662" lon="2.74575">
        <ele>91.2</ele>
        <time>2023-07-20T09:57:00Z</time>
      </trkpt>
      <trkpt lat="48.3766" lon="2.74576">
        <ele>91.2</ele>
        <time>2023-07-20T09:57:01Z</time>
      </trkpt>
      <trkpt lat="48.37659" lon="2.74577">
        <ele>91.1</ele>
        <time>2023-07-20T09:57:02Z</time>
      </trkpt>
      <trkpt lat="48.37658" lon="2.74578">
        <ele>91.1</ele>
        <time>2023-07-20T09:57:03Z</time>
      </trkpt>
      <trkpt lat="48.37657" lon="2.74578">
        <ele>91.1</ele>
        <time>2023-07-20T09:57:04Z</time>
      </trkpt>
      <trkpt lat="48.37656" lon="2.74579">
        <ele>91.1</ele>
        <time>2023-07-20T09:57:05Z</time>
      </trkpt>
      <trkpt lat="48.37656" lon="2.7458">
        <ele>91.1</ele>
        <time>2023-07-20T09:57:06Z</time>
      </trkpt>
      <trkpt lat="48.37655" lon="2.74581">
        <ele>91.1</ele>
        <time>2023-07-20T09:57:07Z</time>
      </trkpt>
      <trkpt lat="48.37654" lon="2.74581">
        <ele>91.1</ele>
        <time>2023-07-20T09:57:08Z</time>
      </trkpt>
      <trkpt lat="48.37652" lon="2.74582">
        <ele>91.1</ele>
        <time>2023-07-20T09:57:09Z</time>
      </trkpt>
      <trkpt lat="48.37651" lon="2.74583">
        <ele>91.1</ele>
        <time>2023-07-20T09:57:10Z</time>
      </trkpt>
      <trkpt lat="48.37651" lon="2.74585">
        <ele>91</ele>
        <time>2023-07-20T09:57:11Z</time>
      </trkpt>
      <trkpt lat="48.3765" lon="2.74586">
        <ele>91</ele>
        <time>2023-07-20T09:57:12Z</time>
      </trkpt>
      <trkpt lat="48.3765" lon="2.74587">
        <ele>91</ele>
        <time>2023-07-20T09:57:13Z</time>
      </trkpt>
      <trkpt lat="48.37649" lon="2.74587">
        <ele>91</ele>
        <time>2023-07-20T09:57:14Z</time>
      </trkpt>
      <trkpt lat="48.37648" lon="2.7459">
        <ele>91</ele>
        <time>2023-07-20T09:57:15Z</time>
      </trkpt>
      <trkpt lat="48.37647" lon="2.74591">
        <ele>91</ele>
        <time>2023-07-20T09:57:16Z</time>
      </trkpt>
      <trkpt lat="48.37646" lon="2.74591">
        <ele>91</ele>
        <time>2023-07-20T09:57:17Z</time>
      </trkpt>
      <trkpt lat="48.37645" lon="2.74591">
        <ele>91</ele>
        <time>2023-07-20T09:57:18Z</time>
      </trkpt>
      <trkpt lat="48.37644" lon="2.74592">
        <ele>91</ele>
        <time>2023-07-20T09:57:19Z</time>
      </trkpt>
      <trkpt lat="48.37643" lon="2.74593">
        <ele>90.9</ele>
        <time>2023-07-20T09:57:20Z</time>
      </trkpt>
      <trkpt lat="48.37643" lon="2.74593">
        <ele>90.9</ele>
        <time>2023-07-20T09:57:21Z</time>
      </trkpt>
      <trkpt lat="48.37642" lon="2.74594">
        <ele>90.9</ele>
        <time>2023-07-20T09:57:22Z</time>
      </trkpt>
      <trkpt lat="48.37642" lon="2.74595">
        <ele>90.9</ele>
        <time>2023-07-20T09:57:23Z</time>
      </trkpt>
      <trkpt lat="48.37641" lon="2.74595">
        <ele>90.9</ele>
        <time>2023-07-20T09:57:24Z</time>
      </trkpt>
      <trkpt lat="48.3764" lon="2.74596">
        <ele>90.9</ele>
        <time>2023-07-20T09:57:25Z</time>
      </trkpt>
      <trkpt lat="48.37638" lon="2.74597">
        <ele>90.9</ele>
        <time>2023-07-20T09:57:26Z</time>
      </trkpt>
      <trkpt lat="48.37637" lon="2.74598">
        <ele>90.9</ele>
        <time>2023-07-20T09:57:27Z</time>
      </trkpt>
      <trkpt lat="48.37636" lon="2.74599">
        <ele>90.9</ele>
        <time>2023-07-20T09:57:28Z</time>
      </trkpt>
      <trkpt lat="48.37635" lon="2.746">
        <ele>90.9</ele>
        <time>2023-07-20T09:57:29Z</time>
      </trkpt>
      <trkpt lat="48.37633" lon="2.74601">
        <ele>90.9</ele>
        <time>2023-07-20T09:57:30Z</time>
      </trkpt>
      <trkpt lat="48.37632" lon="2.74602">
        <ele>90.9</ele>
        <time>2023-07-20T09:57:31Z</time>
      </trkpt>
      <trkpt lat="48.37632" lon="2.74602">
        <ele>90.9</ele>
        <time>2023-07-20T09:57:32Z</time>
      </trkpt>
      <trkpt lat="48.3763" lon="2.74604">
        <ele>90.9</ele>
        <time>2023-07-20T09:57:33Z</time>
      </trkpt>
      <trkpt lat="48.37629" lon="2.74604">
        <ele>90.8</ele>
        <time>2023-07-20T09:57:34Z</time>
      </trkpt>
      <trkpt lat="48.37628" lon="2.74604">
        <ele>90.8</ele>
        <time>2023-07-20T09:57:35Z</time>
      </trkpt>
      <trkpt lat="48.37627" lon="2.74606">
        <ele>90.8</ele>
        <time>2023-07-20T09:57:36Z</time>
      </trkpt>
      <trkpt lat="48.37626" lon="2.74606">
        <ele>90.8</ele>
        <time>2023-07-20T09:57:37Z</time>
      </trkpt>
      <trkpt lat="48.37625" lon="2.74607">
        <ele>90.8</ele>
        <time>2023-07-20T09:57:38Z</time>
      </trkpt>
      <trkpt lat="48.37624" lon="2.74608">
        <ele>90.8</ele>
        <time>2023-07-20T09:57:39Z</time>
      </trkpt>
      <trkpt lat="48.37623" lon="2.74609">
        <ele>90.8</ele>
        <time>2023-07-20T09:57:40Z</time>
      </trkpt>
      <trkpt lat="48.37622" lon="2.74609">
        <ele>90.8</ele>
        <time>2023-07-20T09:57:41Z</time>
      </trkpt>
      <trkpt lat="48.37621" lon="2.7461">
        <ele>90.8</ele>
        <time>2023-07-20T09:57:42Z</time>
      </trkpt>
      <trkpt lat="48.3762" lon="2.7461">
        <ele>90.8</ele>
        <time>2023-07-20T09:57:43Z</time>
      </trkpt>
      <trkpt lat="48.37619" lon="2.74612">
        <ele>90.8</ele>
        <time>2023-07-20T09:57:44Z</time>
      </trkpt>
      <trkpt lat="48.37618" lon="2.74612">
        <ele>90.8</ele>
        <time>2023-07-20T09:57:45Z</time>
      </trkpt>
      <trkpt lat="48.37617" lon="2.74612">
        <ele>90.8</ele>
        <time>2023-07-20T09:57:46Z</time>
      </trkpt>
      <trkpt lat="48.37616" lon="2.74613">
        <ele>90.8</ele>
        <time>2023-07-20T09:57:47Z</time>
      </trkpt>
      <trkpt lat="48.37615" lon="2.74613">
        <ele>90.8</ele>
        <time>2023-07-20T09:57:48Z</time>
      </trkpt>
      <trkpt lat="48.37614" lon="2.74615">
        <ele>90.8</ele>
        <time>2023-07-20T09:57:49Z</time>
      </trkpt>
      <trkpt lat="48.37613" lon="2.74616">
        <ele>90.8</ele>
        <time>2023-07-20T09:57:50Z</time>
      </trkpt>
      <trkpt lat="48.37612" lon="2.74617">
        <ele>90.8</ele>
        <time>2023-07-20T09:57:51Z</time>
      </trkpt>
      <trkpt lat="48.37611" lon="2.74617">
        <ele>90.8</ele>
        <time>2023-07-20T09:57:52Z</time>
      </trkpt>
      <trkpt lat="48.37609" lon="2.74618">
        <ele>90.8</ele>
        <time>2023-07-20T09:57:53Z</time>
      </trkpt>
      <trkpt lat="48.37608" lon="2.74618">
        <ele>90.7</ele>
        <time>2023-07-20T09:57:54Z</time>
      </trkpt>
      <trkpt lat="48.37606" lon="2.74618">
        <ele>90.7</ele>
        <time>2023-07-20T09:57:55Z</time>
      </trkpt>
      <trkpt lat="48.37605" lon="2.74619">
        <ele>90.7</ele>
        <time>2023-07-20T09:57:56Z</time>
      </trkpt>
      <trkpt lat="48.37604" lon="2.7462">
        <ele>90.7</ele>
        <time>2023-07-20T09:57:57Z</time>
      </trkpt>
      <trkpt lat="48.37603" lon="2.74622">
        <ele>90.7</ele>
        <time>2023-07-20T09:57:58Z</time>
      </trkpt>
      <trkpt lat="48.37603" lon="2.74621">
        <ele>90.7</ele>
        <time>2023-07-20T09:57:59Z</time>
      </trkpt>
      <trkpt lat="48.37603" lon="2.74622">
        <ele>90.7</ele>
        <time>2023-07-20T09:58:00Z</time>
      </trkpt>
      <trkpt lat="48.37602" lon="2.74623">
        <ele>90.6</ele>
        <time>2023-07-20T09:58:01Z</time>
      </trkpt>
      <trkpt lat="48.376" lon="2.74624">
        <ele>90.6</ele>
        <time>2023-07-20T09:58:02Z</time>
      </trkpt>
      <trkpt lat="48.376" lon="2.74625">
        <ele>90.6</ele>
        <time>2023-07-20T09:58:03Z</time>
      </trkpt>
      <trkpt lat="48.376" lon="2.74626">
        <ele>90.6</ele>
        <time>2023-07-20T09:58:04Z</time>
      </trkpt>
      <trkpt lat="48.37599" lon="2.74627">
        <ele>90.6</ele>
        <time>2023-07-20T09:58:05Z</time>
      </trkpt>
      <trkpt lat="48.37598" lon="2.74629">
        <ele>90.6</ele>
        <time>2023-07-20T09:58:06Z</time>
      </trkpt>
      <trkpt lat="48.37597" lon="2.7463">
        <ele>90.5</ele>
        <time>2023-07-20T09:58:07Z</time>
      </trkpt>
      <trkpt lat="48.37595" lon="2.74632">
        <ele>90.5</ele>
        <time>2023-07-20T09:58:08Z</time>
      </trkpt>
      <trkpt lat="48.37595" lon="2.74633">
        <ele>90.5</ele>
        <time>2023-07-20T09:58:09Z</time>
      </trkpt>
      <trkpt lat="48.37593" lon="2.74637">
        <ele>90.5</ele>
        <time>2023-07-20T09:58:10Z</time>
      </trkpt>
      <trkpt lat="48.37592" lon="2.74638">
        <ele>90.5</ele>
        <time>2023-07-20T09:58:11Z</time>
      </trkpt>
      <trkpt lat="48.37592" lon="2.74639">
        <ele>90.4</ele>
        <time>2023-07-20T09:58:12Z</time>
      </trkpt>
      <trkpt lat="48.3759" lon="2.7464">
        <ele>90.4</ele>
        <time>2023-07-20T09:58:13Z</time>
      </trkpt>
      <trkpt lat="48.37589" lon="2.74641">
        <ele>90.4</ele>
        <time>2023-07-20T09:58:14Z</time>
      </trkpt>
      <trkpt lat="48.37589" lon="2.74641">
        <ele>90.4</ele>
        <time>2023-07-20T09:58:15Z</time>
      </trkpt>
      <trkpt lat="48.37589" lon="2.74641">
        <ele>90.4</ele>
        <time>2023-07-20T09:58:16Z</time>
      </trkpt>
      <trkpt lat="48.37588" lon="2.74642">
        <ele>90.4</ele>
        <time>2023-07-20T09:58:17Z</time>
      </trkpt>
      <trkpt lat="48.37587" lon="2.74643">
        <ele>90.4</ele>
        <time>2023-07-20T09:58:18Z</time>
      </trkpt>
      <trkpt lat="48.37586" lon="2.74644">
        <ele>90.3</ele>
        <time>2023-07-20T09:58:19Z</time>
      </trkpt>
      <trkpt lat="48.37586" lon="2.74645">
        <ele>90.3</ele>
        <time>2023-07-20T09:58:20Z</time>
      </trkpt>
      <trkpt lat="48.37585" lon="2.74646">
        <ele>90.3</ele>
        <time>2023-07-20T09:58:21Z</time>
      </trkpt>
      <trkpt lat="48.37584" lon="2.74647">
        <ele>90.3</ele>
        <time>2023-07-20T09:58:22Z</time>
      </trkpt>
      <trkpt lat="48.37583" lon="2.74648">
        <ele>90.3</ele>
        <time>2023-07-20T09:58:23Z</time>
      </trkpt>
      <trkpt lat="48.37582" lon="2.74649">
        <ele>90.3</ele>
        <time>2023-07-20T09:58:24Z</time>
      </trkpt>
      <trkpt lat="48.37581" lon="2.74649">
        <ele>90.2</ele>
        <time>2023-07-20T09:58:25Z</time>
      </trkpt>
      <trkpt lat="48.3758" lon="2.7465">
        <ele>90.2</ele>
        <time>2023-07-20T09:58:26Z</time>
      </trkpt>
      <trkpt lat="48.3758" lon="2.74651">
        <ele>90.2</ele>
        <time>2023-07-20T09:58:27Z</time>
      </trkpt>
      <trkpt lat="48.37579" lon="2.74652">
        <ele>90.2</ele>
        <time>2023-07-20T09:58:28Z</time>
      </trkpt>
      <trkpt lat="48.37579" lon="2.74653">
        <ele>90.2</ele>
        <time>2023-07-20T09:58:29Z</time>
      </trkpt>
      <trkpt lat="48.37578" lon="2.74655">
        <ele>90.2</ele>
        <time>2023-07-20T09:58:30Z</time>
      </trkpt>
      <trkpt lat="48.37577" lon="2.74656">
        <ele>90.2</ele>
        <time>2023-07-20T09:58:31Z</time>
      </trkpt>
      <trkpt lat="48.37575" lon="2.74658">
        <ele>90.2</ele>
        <time>2023-07-20T09:58:32Z</time>
      </trkpt>
      <trkpt lat="48.37575" lon="2.74658">
        <ele>90.2</ele>
        <time>2023-07-20T09:58:33Z</time>
      </trkpt>
      <trkpt lat="48.37574" lon="2.74659">
        <ele>90.1</ele>
        <time>2023-07-20T09:58:34Z</time>
      </trkpt>
      <trkpt lat="48.37573" lon="2.7466">
        <ele>90.1</ele>
        <time>2023-07-20T09:58:35Z</time>
      </trkpt>
      <trkpt lat="48.37572" lon="2.74662">
        <ele>90.1</ele>
        <time>2023-07-20T09:58:36Z</time>
      </trkpt>
      <trkpt lat="48.37569" lon="2.74661">
        <ele>90.1</ele>
        <time>2023-07-20T09:58:37Z</time>
      </trkpt>
      <trkpt lat="48.37566" lon="2.74661">
        <ele>90</ele>
        <time>2023-07-20T09:58:38Z</time>
      </trkpt>
      <trkpt lat="48.37565" lon="2.74662">
        <ele>90</ele>
        <time>2023-07-20T09:58:39Z</time>
      </trkpt>
      <trkpt lat="48.37564" lon="2.74663">
        <ele>90</ele>
        <time>2023-07-20T09:58:40Z</time>
      </trkpt>
      <trkpt lat="48.37563" lon="2.74664">
        <ele>90</ele>
        <time>2023-07-20T09:58:41Z</time>
      </trkpt>
      <trkpt lat="48.37562" lon="2.74664">
        <ele>90</ele>
        <time>2023-07-20T09:58:42Z</time>
      </trkpt>
      <trkpt lat="48.37561" lon="2.74665">
        <ele>90</ele>
        <time>2023-07-20T09:58:44Z</time>
      </trkpt>
      <trkpt lat="48.3756" lon="2.74667">
        <ele>89.9</ele>
        <time>2023-07-20T09:58:45Z</time>
      </trkpt>
      <trkpt lat="48.37559" lon="2.74667">
        <ele>89.9</ele>
        <time>2023-07-20T09:58:46Z</time>
      </trkpt>
      <trkpt lat="48.37558" lon="2.74667">
        <ele>89.9</ele>
        <time>2023-07-20T09:58:47Z</time>
      </trkpt>
      <trkpt lat="48.37556" lon="2.74669">
        <ele>89.9</ele>
        <time>2023-07-20T09:58:48Z</time>
      </trkpt>
      <trkpt lat="48.37555" lon="2.74671">
        <ele>89.9</ele>
        <time>2023-07-20T09:58:49Z</time>
      </trkpt>
      <trkpt lat="48.37554" lon="2.74672">
        <ele>89.8</ele>
        <time>2023-07-20T09:58:50Z</time>
      </trkpt>
      <trkpt lat="48.37553" lon="2.74673">
        <ele>89.8</ele>
        <time>2023-07-20T09:58:51Z</time>
      </trkpt>
      <trkpt lat="48.37552" lon="2.74673">
        <ele>89.8</ele>
        <time>2023-07-20T09:58:52Z</time>
      </trkpt>
      <trkpt lat="48.37551" lon="2.74673">
        <ele>89.8</ele>
        <time>2023-07-20T09:58:53Z</time>
      </trkpt>
      <trkpt lat="48.3755" lon="2.74674">
        <ele>89.8</ele>
        <time>2023-07-20T09:58:54Z</time>
      </trkpt>
      <trkpt lat="48.37549" lon="2.74674">
        <ele>89.8</ele>
        <time>2023-07-20T09:58:55Z</time>
      </trkpt>
      <trkpt lat="48.37548" lon="2.74674">
        <ele>89.8</ele>
        <time>2023-07-20T09:58:56Z</time>
      </trkpt>
      <trkpt lat="48.37547" lon="2.74674">
        <ele>89.8</ele>
        <time>2023-07-20T09:58:57Z</time>
      </trkpt>
      <trkpt lat="48.37547" lon="2.74675">
        <ele>89.7</ele>
        <time>2023-07-20T09:58:58Z</time>
      </trkpt>
      <trkpt lat="48.37546" lon="2.74675">
        <ele>89.7</ele>
        <time>2023-07-20T09:58:59Z</time>
      </trkpt>
      <trkpt lat="48.37545" lon="2.74675">
        <ele>89.7</ele>
        <time>2023-07-20T09:59:00Z</time>
      </trkpt>
      <trkpt lat="48.37544" lon="2.74677">
        <ele>89.7</ele>
        <time>2023-07-20T09:59:01Z</time>
      </trkpt>
      <trkpt lat="48.37544" lon="2.74678">
        <ele>89.7</ele>
        <time>2023-07-20T09:59:02Z</time>
      </trkpt>
      <trkpt lat="48.37543" lon="2.74678">
        <ele>89.7</ele>
        <time>2023-07-20T09:59:03Z</time>
      </trkpt>
      <trkpt lat="48.37543" lon="2.74679">
        <ele>89.7</ele>
        <time>2023-07-20T09:59:04Z</time>
      </trkpt>
      <trkpt lat="48.37542" lon="2.74679">
        <ele>89.7</ele>
        <time>2023-07-20T09:59:05Z</time>
      </trkpt>
      <trkpt lat="48.37542" lon="2.7468">
        <ele>89.7</ele>
        <time>2023-07-20T09:59:06Z</time>
      </trkpt>
      <trkpt lat="48.37541" lon="2.74681">
        <ele>89.6</ele>
        <time>2023-07-20T09:59:07Z</time>
      </trkpt>
      <trkpt lat="48.3754" lon="2.74682">
        <ele>89.6</ele>
        <time>2023-07-20T09:59:08Z</time>
      </trkpt>
      <trkpt lat="48.3754" lon="2.74683">
        <ele>89.6</ele>
        <time>2023-07-20T09:59:09Z</time>
      </trkpt>
      <trkpt lat="48.3754" lon="2.74684">
        <ele>89.6</ele>
        <time>2023-07-20T09:59:10Z</time>
      </trkpt>
      <trkpt lat="48.3754" lon="2.74685">
        <ele>89.6</ele>
        <time>2023-07-20T09:59:11Z</time>
      </trkpt>
      <trkpt lat="48.3754" lon="2.74687">
        <ele>89.6</ele>
        <time>2023-07-20T09:59:12Z</time>
      </trkpt>
      <trkpt lat="48.37539" lon="2.74689">
        <ele>89.6</ele>
        <time>2023-07-20T09:59:13Z</time>
      </trkpt>
      <trkpt lat="48.37539" lon="2.7469">
        <ele>89.6</ele>
        <time>2023-07-20T09:59:14Z</time>
      </trkpt>
      <trkpt lat="48.37537" lon="2.7469">
        <ele>89.6</ele>
        <time>2023-07-20T09:59:15Z</time>
      </trkpt>
      <trkpt lat="48.37537" lon="2.74691">
        <ele>89.5</ele>
        <time>2023-07-20T09:59:16Z</time>
      </trkpt>
      <trkpt lat="48.37534" lon="2.74692">
        <ele>89.5</ele>
        <time>2023-07-20T09:59:17Z</time>
      </trkpt>
      <trkpt lat="48.37534" lon="2.74694">
        <ele>89.5</ele>
        <time>2023-07-20T09:59:18Z</time>
      </trkpt>
      <trkpt lat="48.37533" lon="2.74695">
        <ele>89.5</ele>
        <time>2023-07-20T09:59:19Z</time>
      </trkpt>
      <trkpt lat="48.37532" lon="2.74696">
        <ele>89.5</ele>
        <time>2023-07-20T09:59:20Z</time>
      </trkpt>
      <trkpt lat="48.3753" lon="2.74698">
        <ele>89.5</ele>
        <time>2023-07-20T09:59:21Z</time>
      </trkpt>
      <trkpt lat="48.37529" lon="2.74699">
        <ele>89.5</ele>
        <time>2023-07-20T09:59:22Z</time>
      </trkpt>
      <trkpt lat="48.37529" lon="2.747">
        <ele>89.5</ele>
        <time>2023-07-20T09:59:23Z</time>
      </trkpt>
      <trkpt lat="48.37528" lon="2.74701">
        <ele>89.5</ele>
        <time>2023-07-20T09:59:24Z</time>
      </trkpt>
      <trkpt lat="48.37527" lon="2.74702">
        <ele>89.5</ele>
        <time>2023-07-20T09:59:25Z</time>
      </trkpt>
      <trkpt lat="48.37526" lon="2.74703">
        <ele>89.5</ele>
        <time>2023-07-20T09:59:26Z</time>
      </trkpt>
      <trkpt lat="48.37525" lon="2.74704">
        <ele>89.5</ele>
        <time>2023-07-20T09:59:27Z</time>
      </trkpt>
      <trkpt lat="48.37524" lon="2.74705">
        <ele>89.5</ele>
        <time>2023-07-20T09:59:28Z</time>
      </trkpt>
      <trkpt lat="48.37524" lon="2.74705">
        <ele>89.5</ele>
        <time>2023-07-20T09:59:29Z</time>
      </trkpt>
      <trkpt lat="48.37523" lon="2.74706">
        <ele>89.5</ele>
        <time>2023-07-20T09:59:30Z</time>
      </trkpt>
      <trkpt lat="48.37523" lon="2.74706">
        <ele>89.5</ele>
        <time>2023-07-20T09:59:31Z</time>
      </trkpt>
      <trkpt lat="48.37523" lon="2.74707">
        <ele>89.5</ele>
        <time>2023-07-20T09:59:32Z</time>
      </trkpt>
      <trkpt lat="48.37523" lon="2.74707">
        <ele>89.5</ele>
        <time>2023-07-20T09:59:33Z</time>
      </trkpt>
      <trkpt lat="48.37523" lon="2.74707">
        <ele>89.5</ele>
        <time>2023-07-20T09:59:34Z</time>
      </trkpt>
      <trkpt lat="48.37522" lon="2.74707">
        <ele>89.5</ele>
        <time>2023-07-20T09:59:35Z</time>
      </trkpt>
      <trkpt lat="48.37521" lon="2.74708">
        <ele>89.5</ele>
        <time>2023-07-20T09:59:36Z</time>
      </trkpt>
      <trkpt lat="48.37519" lon="2.74707">
        <ele>89.5</ele>
        <time>2023-07-20T09:59:37Z</time>
      </trkpt>
      <trkpt lat="48.37519" lon="2.74707">
        <ele>89.5</ele>
        <time>2023-07-20T09:59:38Z</time>
      </trkpt>
      <trkpt lat="48.37518" lon="2.74709">
        <ele>89.5</ele>
        <time>2023-07-20T09:59:39Z</time>
      </trkpt>
      <trkpt lat="48.37517" lon="2.74709">
        <ele>89.5</ele>
        <time>2023-07-20T09:59:40Z</time>
      </trkpt>
      <trkpt lat="48.37517" lon="2.7471">
        <ele>89.5</ele>
        <time>2023-07-20T09:59:41Z</time>
      </trkpt>
      <trkpt lat="48.37516" lon="2.7471">
        <ele>89.5</ele>
        <time>2023-07-20T09:59:42Z</time>
      </trkpt>
      <trkpt lat="48.37515" lon="2.74711">
        <ele>89.5</ele>
        <time>2023-07-20T09:59:43Z</time>
      </trkpt>
      <trkpt lat="48.37514" lon="2.74712">
        <ele>89.5</ele>
        <time>2023-07-20T09:59:44Z</time>
      </trkpt>
      <trkpt lat="48.37513" lon="2.74714">
        <ele>89.6</ele>
        <time>2023-07-20T09:59:45Z</time>
      </trkpt>
      <trkpt lat="48.37512" lon="2.74714">
        <ele>89.6</ele>
        <time>2023-07-20T09:59:46Z</time>
      </trkpt>
      <trkpt lat="48.37511" lon="2.74715">
        <ele>89.6</ele>
        <time>2023-07-20T09:59:47Z</time>
      </trkpt>
      <trkpt lat="48.3751" lon="2.74717">
        <ele>89.6</ele>
        <time>2023-07-20T09:59:48Z</time>
      </trkpt>
      <trkpt lat="48.37509" lon="2.74718">
        <ele>89.6</ele>
        <time>2023-07-20T09:59:49Z</time>
      </trkpt>
      <trkpt lat="48.37509" lon="2.74719">
        <ele>89.6</ele>
        <time>2023-07-20T09:59:50Z</time>
      </trkpt>
      <trkpt lat="48.37508" lon="2.7472">
        <ele>89.6</ele>
        <time>2023-07-20T09:59:51Z</time>
      </trkpt>
      <trkpt lat="48.37507" lon="2.7472">
        <ele>89.6</ele>
        <time>2023-07-20T09:59:52Z</time>
      </trkpt>
      <trkpt lat="48.37507" lon="2.74721">
        <ele>89.6</ele>
        <time>2023-07-20T09:59:53Z</time>
      </trkpt>
      <trkpt lat="48.37507" lon="2.74721">
        <ele>89.6</ele>
        <time>2023-07-20T09:59:54Z</time>
      </trkpt>
      <trkpt lat="48.37506" lon="2.74722">
        <ele>89.6</ele>
        <time>2023-07-20T09:59:55Z</time>
      </trkpt>
      <trkpt lat="48.37505" lon="2.74721">
        <ele>89.6</ele>
        <time>2023-07-20T09:59:56Z</time>
      </trkpt>
      <trkpt lat="48.37504" lon="2.74722">
        <ele>89.6</ele>
        <time>2023-07-20T09:59:57Z</time>
      </trkpt>
      <trkpt lat="48.37503" lon="2.74723">
        <ele>89.6</ele>
        <time>2023-07-20T09:59:58Z</time>
      </trkpt>
      <trkpt lat="48.37503" lon="2.74724">
        <ele>89.6</ele>
        <time>2023-07-20T09:59:59Z</time>
      </trkpt>
      <trkpt lat="48.37503" lon="2.74725">
        <ele>89.6</ele>
        <time>2023-07-20T10:00:00Z</time>
      </trkpt>
      <trkpt lat="48.37502" lon="2.74725">
        <ele>89.6</ele>
        <time>2023-07-20T10:00:01Z</time>
      </trkpt>
      <trkpt lat="48.37502" lon="2.74726">
        <ele>89.6</ele>
        <time>2023-07-20T10:00:02Z</time>
      </trkpt>
      <trkpt lat="48.37501" lon="2.74726">
        <ele>89.6</ele>
        <time>2023-07-20T10:00:03Z</time>
      </trkpt>
      <trkpt lat="48.37501" lon="2.74726">
        <ele>89.6</ele>
        <time>2023-07-20T10:00:04Z</time>
      </trkpt>
      <trkpt lat="48.37498" lon="2.74728">
        <ele>89.6</ele>
        <time>2023-07-20T10:00:05Z</time>
      </trkpt>
      <trkpt lat="48.37497" lon="2.74729">
        <ele>89.6</ele>
        <time>2023-07-20T10:00:06Z</time>
      </trkpt>
      <trkpt lat="48.37496" lon="2.7473">
        <ele>89.6</ele>
        <time>2023-07-20T10:00:07Z</time>
      </trkpt>
      <trkpt lat="48.37495" lon="2.74731">
        <ele>89.6</ele>
        <time>2023-07-20T10:00:08Z</time>
      </trkpt>
      <trkpt lat="48.37493" lon="2.74733">
        <ele>89.6</ele>
        <time>2023-07-20T10:00:09Z</time>
      </trkpt>
      <trkpt lat="48.37493" lon="2.74734">
        <ele>89.5</ele>
        <time>2023-07-20T10:00:10Z</time>
      </trkpt>
      <trkpt lat="48.3749" lon="2.74737">
        <ele>89.5</ele>
        <time>2023-07-20T10:00:11Z</time>
      </trkpt>
      <trkpt lat="48.3749" lon="2.74739">
        <ele>89.5</ele>
        <time>2023-07-20T10:00:12Z</time>
      </trkpt>
      <trkpt lat="48.37488" lon="2.7474">
        <ele>89.4</ele>
        <time>2023-07-20T10:00:13Z</time>
      </trkpt>
      <trkpt lat="48.37487" lon="2.74741">
        <ele>89.4</ele>
        <time>2023-07-20T10:00:14Z</time>
      </trkpt>
      <trkpt lat="48.37486" lon="2.74742">
        <ele>89.4</ele>
        <time>2023-07-20T10:00:15Z</time>
      </trkpt>
      <trkpt lat="48.37484" lon="2.74744">
        <ele>89.4</ele>
        <time>2023-07-20T10:00:16Z</time>
      </trkpt>
      <trkpt lat="48.37483" lon="2.74744">
        <ele>89.3</ele>
        <time>2023-07-20T10:00:17Z</time>
      </trkpt>
      <trkpt lat="48.37483" lon="2.74745">
        <ele>89.3</ele>
        <time>2023-07-20T10:00:18Z</time>
      </trkpt>
      <trkpt lat="48.37482" lon="2.74747">
        <ele>89.3</ele>
        <time>2023-07-20T10:00:19Z</time>
      </trkpt>
      <trkpt lat="48.37481" lon="2.74749">
        <ele>89.2</ele>
        <time>2023-07-20T10:00:20Z</time>
      </trkpt>
      <trkpt lat="48.3748" lon="2.7475">
        <ele>89.2</ele>
        <time>2023-07-20T10:00:21Z</time>
      </trkpt>
      <trkpt lat="48.37479" lon="2.74752">
        <ele>89.2</ele>
        <time>2023-07-20T10:00:22Z</time>
      </trkpt>
      <trkpt lat="48.37479" lon="2.74753">
        <ele>89.2</ele>
        <time>2023-07-20T10:00:23Z</time>
      </trkpt>
      <trkpt lat="48.37478" lon="2.74754">
        <ele>89.1</ele>
        <time>2023-07-20T10:00:24Z</time>
      </trkpt>
      <trkpt lat="48.37477" lon="2.74755">
        <ele>89.1</ele>
        <time>2023-07-20T10:00:25Z</time>
      </trkpt>
      <trkpt lat="48.37476" lon="2.74756">
        <ele>89.1</ele>
        <time>2023-07-20T10:00:26Z</time>
      </trkpt>
      <trkpt lat="48.37475" lon="2.74757">
        <ele>89.1</ele>
        <time>2023-07-20T10:00:27Z</time>
      </trkpt>
      <trkpt lat="48.37474" lon="2.74758">
        <ele>89</ele>
        <time>2023-07-20T10:00:28Z</time>
      </trkpt>
      <trkpt lat="48.37474" lon="2.74758">
        <ele>89</ele>
        <time>2023-07-20T10:00:29Z</time>
      </trkpt>
      <trkpt lat="48.37473" lon="2.74758">
        <ele>89</ele>
        <time>2023-07-20T10:00:30Z</time>
      </trkpt>
      <trkpt lat="48.37471" lon="2.74759">
        <ele>89</ele>
        <time>2023-07-20T10:00:31Z</time>
      </trkpt>
      <trkpt lat="48.3747" lon="2.7476">
        <ele>88.9</ele>
        <time>2023-07-20T10:00:32Z</time>
      </trkpt>
      <trkpt lat="48.37469" lon="2.7476">
        <ele>88.9</ele>
        <time>2023-07-20T10:00:33Z</time>
      </trkpt>
      <trkpt lat="48.37468" lon="2.74761">
        <ele>88.9</ele>
        <time>2023-07-20T10:00:34Z</time>
      </trkpt>
      <trkpt lat="48.37467" lon="2.74762">
        <ele>88.9</ele>
        <time>2023-07-20T10:00:35Z</time>
      </trkpt>
      <trkpt lat="48.37467" lon="2.74763">
        <ele>88.9</ele>
        <time>2023-07-20T10:00:36Z</time>
      </trkpt>
      <trkpt lat="48.37466" lon="2.74764">
        <ele>88.9</ele>
        <time>2023-07-20T10:00:37Z</time>
      </trkpt>
      <trkpt lat="48.37466" lon="2.74765">
        <ele>88.8</ele>
        <time>2023-07-20T10:00:38Z</time>
      </trkpt>
      <trkpt lat="48.37465" lon="2.74767">
        <ele>88.8</ele>
        <time>2023-07-20T10:00:39Z</time>
      </trkpt>
      <trkpt lat="48.37464" lon="2.74769">
        <ele>88.8</ele>
        <time>2023-07-20T10:00:40Z</time>
      </trkpt>
      <trkpt lat="48.37463" lon="2.7477">
        <ele>88.8</ele>
        <time>2023-07-20T10:00:41Z</time>
      </trkpt>
      <trkpt lat="48.37463" lon="2.74771">
        <ele>88.8</ele>
        <time>2023-07-20T10:00:42Z</time>
      </trkpt>
      <trkpt lat="48.37461" lon="2.74773">
        <ele>88.8</ele>
        <time>2023-07-20T10:00:43Z</time>
      </trkpt>
      <trkpt lat="48.37461" lon="2.74774">
        <ele>88.7</ele>
        <time>2023-07-20T10:00:44Z</time>
      </trkpt>
      <trkpt lat="48.3746" lon="2.74775">
        <ele>88.7</ele>
        <time>2023-07-20T10:00:45Z</time>
      </trkpt>
      <trkpt lat="48.37458" lon="2.74776">
        <ele>88.7</ele>
        <time>2023-07-20T10:00:46Z</time>
      </trkpt>
      <trkpt lat="48.37457" lon="2.74776">
        <ele>88.7</ele>
        <time>2023-07-20T10:00:47Z</time>
      </trkpt>
      <trkpt lat="48.37457" lon="2.74777">
        <ele>88.7</ele>
        <time>2023-07-20T10:00:48Z</time>
      </trkpt>
      <trkpt lat="48.37455" lon="2.74777">
        <ele>88.7</ele>
        <time>2023-07-20T10:00:49Z</time>
      </trkpt>
      <trkpt lat="48.37453" lon="2.74779">
        <ele>88.6</ele>
        <time>2023-07-20T10:00:50Z</time>
      </trkpt>
      <trkpt lat="48.37452" lon="2.74781">
        <ele>88.6</ele>
        <time>2023-07-20T10:00:51Z</time>
      </trkpt>
      <trkpt lat="48.37451" lon="2.74781">
        <ele>88.6</ele>
        <time>2023-07-20T10:00:52Z</time>
      </trkpt>
      <trkpt lat="48.3745" lon="2.74782">
        <ele>88.6</ele>
        <time>2023-07-20T10:00:53Z</time>
      </trkpt>
      <trkpt lat="48.37449" lon="2.74783">
        <ele>88.6</ele>
        <time>2023-07-20T10:00:54Z</time>
      </trkpt>
      <trkpt lat="48.37447" lon="2.74784">
        <ele>88.6</ele>
        <time>2023-07-20T10:00:55Z</time>
      </trkpt>
      <trkpt lat="48.37445" lon="2.74786">
        <ele>88.5</ele>
        <time>2023-07-20T10:00:56Z</time>
      </trkpt>
      <trkpt lat="48.37445" lon="2.74787">
        <ele>88.5</ele>
        <time>2023-07-20T10:00:57Z</time>
      </trkpt>
      <trkpt lat="48.37444" lon="2.74787">
        <ele>88.5</ele>
        <time>2023-07-20T10:00:58Z</time>
      </trkpt>
      <trkpt lat="48.37443" lon="2.74788">
        <ele>88.5</ele>
        <time>2023-07-20T10:00:59Z</time>
      </trkpt>
      <trkpt lat="48.37441" lon="2.74789">
        <ele>88.5</ele>
        <time>2023-07-20T10:01:00Z</time>
      </trkpt>
      <trkpt lat="48.37439" lon="2.74789">
        <ele>88.4</ele>
        <time>2023-07-20T10:01:01Z</time>
      </trkpt>
      <trkpt lat="48.37437" lon="2.74788">
        <ele>88.4</ele>
        <time>2023-07-20T10:01:02Z</time>
      </trkpt>
      <trkpt lat="48.37436" lon="2.74788">
        <ele>88.3</ele>
        <time>2023-07-20T10:01:03Z</time>
      </trkpt>
      <trkpt lat="48.37435" lon="2.74788">
        <ele>88.3</ele>
        <time>2023-07-20T10:01:04Z</time>
      </trkpt>
      <trkpt lat="48.37433" lon="2.74788">
        <ele>88.3</ele>
        <time>2023-07-20T10:01:05Z</time>
      </trkpt>
      <trkpt lat="48.37432" lon="2.74788">
        <ele>88.3</ele>
        <time>2023-07-20T10:01:06Z</time>
      </trkpt>
      <trkpt lat="48.37431" lon="2.7479">
        <ele>88.2</ele>
        <time>2023-07-20T10:01:07Z</time>
      </trkpt>
      <trkpt lat="48.37431" lon="2.74791">
        <ele>88.2</ele>
        <time>2023-07-20T10:01:08Z</time>
      </trkpt>
      <trkpt lat="48.3743" lon="2.74791">
        <ele>88.2</ele>
        <time>2023-07-20T10:01:09Z</time>
      </trkpt>
      <trkpt lat="48.37429" lon="2.74792">
        <ele>88.2</ele>
        <time>2023-07-20T10:01:10Z</time>
      </trkpt>
      <trkpt lat="48.37428" lon="2.74793">
        <ele>88.1</ele>
        <time>2023-07-20T10:01:11Z</time>
      </trkpt>
      <trkpt lat="48.37427" lon="2.74794">
        <ele>88.1</ele>
        <time>2023-07-20T10:01:12Z</time>
      </trkpt>
      <trkpt lat="48.37426" lon="2.74795">
        <ele>88.1</ele>
        <time>2023-07-20T10:01:13Z</time>
      </trkpt>
      <trkpt lat="48.37426" lon="2.74796">
        <ele>88.1</ele>
        <time>2023-07-20T10:01:14Z</time>
      </trkpt>
      <trkpt lat="48.37425" lon="2.74798">
        <ele>88.1</ele>
        <time>2023-07-20T10:01:15Z</time>
      </trkpt>
      <trkpt lat="48.37425" lon="2.74798">
        <ele>88</ele>
        <time>2023-07-20T10:01:16Z</time>
      </trkpt>
      <trkpt lat="48.37424" lon="2.748">
        <ele>88</ele>
        <time>2023-07-20T10:01:17Z</time>
      </trkpt>
      <trkpt lat="48.37422" lon="2.74801">
        <ele>88</ele>
        <time>2023-07-20T10:01:18Z</time>
      </trkpt>
      <trkpt lat="48.37421" lon="2.74802">
        <ele>88</ele>
        <time>2023-07-20T10:01:19Z</time>
      </trkpt>
      <trkpt lat="48.3742" lon="2.74803">
        <ele>87.9</ele>
        <time>2023-07-20T10:01:20Z</time>
      </trkpt>
      <trkpt lat="48.3742" lon="2.74803">
        <ele>87.9</ele>
        <time>2023-07-20T10:01:21Z</time>
      </trkpt>
      <trkpt lat="48.37419" lon="2.74804">
        <ele>87.9</ele>
        <time>2023-07-20T10:01:22Z</time>
      </trkpt>
      <trkpt lat="48.37418" lon="2.74805">
        <ele>87.9</ele>
        <time>2023-07-20T10:01:23Z</time>
      </trkpt>
      <trkpt lat="48.37416" lon="2.74805">
        <ele>87.9</ele>
        <time>2023-07-20T10:01:24Z</time>
      </trkpt>
      <trkpt lat="48.37415" lon="2.74805">
        <ele>87.9</ele>
        <time>2023-07-20T10:01:25Z</time>
      </trkpt>
      <trkpt lat="48.37415" lon="2.74805">
        <ele>87.9</ele>
        <time>2023-07-20T10:01:26Z</time>
      </trkpt>
      <trkpt lat="48.37414" lon="2.74804">
        <ele>87.9</ele>
        <time>2023-07-20T10:01:27Z</time>
      </trkpt>
      <trkpt lat="48.37413" lon="2.74804">
        <ele>87.9</ele>
        <time>2023-07-20T10:01:28Z</time>
      </trkpt>
      <trkpt lat="48.37411" lon="2.74805">
        <ele>87.8</ele>
        <time>2023-07-20T10:01:29Z</time>
      </trkpt>
      <trkpt lat="48.3741" lon="2.74805">
        <ele>87.8</ele>
        <time>2023-07-20T10:01:30Z</time>
      </trkpt>
      <trkpt lat="48.3741" lon="2.74805">
        <ele>87.8</ele>
        <time>2023-07-20T10:01:31Z</time>
      </trkpt>
      <trkpt lat="48.37409" lon="2.74805">
        <ele>87.8</ele>
        <time>2023-07-20T10:01:32Z</time>
      </trkpt>
      <trkpt lat="48.37407" lon="2.74804">
        <ele>87.8</ele>
        <time>2023-07-20T10:01:33Z</time>
      </trkpt>
      <trkpt lat="48.37406" lon="2.74805">
        <ele>87.8</ele>
        <time>2023-07-20T10:01:34Z</time>
      </trkpt>
      <trkpt lat="48.37405" lon="2.74804">
        <ele>87.8</ele>
        <time>2023-07-20T10:01:35Z</time>
      </trkpt>
      <trkpt lat="48.37405" lon="2.74805">
        <ele>87.8</ele>
        <time>2023-07-20T10:01:36Z</time>
      </trkpt>
      <trkpt lat="48.37404" lon="2.74805">
        <ele>87.8</ele>
        <time>2023-07-20T10:01:37Z</time>
      </trkpt>
      <trkpt lat="48.37404" lon="2.74806">
        <ele>87.8</ele>
        <time>2023-07-20T10:01:38Z</time>
      </trkpt>
      <trkpt lat="48.37403" lon="2.74806">
        <ele>87.8</ele>
        <time>2023-07-20T10:01:39Z</time>
      </trkpt>
      <trkpt lat="48.37402" lon="2.74806">
        <ele>87.8</ele>
        <time>2023-07-20T10:01:40Z</time>
      </trkpt>
      <trkpt lat="48.37401" lon="2.74807">
        <ele>87.8</ele>
        <time>2023-07-20T10:01:41Z</time>
      </trkpt>
      <trkpt lat="48.374" lon="2.74808">
        <ele>87.8</ele>
        <time>2023-07-20T10:01:42Z</time>
      </trkpt>
      <trkpt lat="48.374" lon="2.7481">
        <ele>87.8</ele>
        <time>2023-07-20T10:01:43Z</time>
      </trkpt>
      <trkpt lat="48.37399" lon="2.74812">
        <ele>87.8</ele>
        <time>2023-07-20T10:01:44Z</time>
      </trkpt>
      <trkpt lat="48.37398" lon="2.74813">
        <ele>87.8</ele>
        <time>2023-07-20T10:01:45Z</time>
      </trkpt>
      <trkpt lat="48.37398" lon="2.74814">
        <ele>87.8</ele>
        <time>2023-07-20T10:01:46Z</time>
      </trkpt>
      <trkpt lat="48.37397" lon="2.74817">
        <ele>87.8</ele>
        <time>2023-07-20T10:01:47Z</time>
      </trkpt>
      <trkpt lat="48.37396" lon="2.74818">
        <ele>87.8</ele>
        <time>2023-07-20T10:01:48Z</time>
      </trkpt>
      <trkpt lat="48.37395" lon="2.74819">
        <ele>87.8</ele>
        <time>2023-07-20T10:01:49Z</time>
      </trkpt>
      <trkpt lat="48.37393" lon="2.74822">
        <ele>87.9</ele>
        <time>2023-07-20T10:01:50Z</time>
      </trkpt>
      <trkpt lat="48.37392" lon="2.74824">
        <ele>87.9</ele>
        <time>2023-07-20T10:01:51Z</time>
      </trkpt>
      <trkpt lat="48.37392" lon="2.74825">
        <ele>87.9</ele>
        <time>2023-07-20T10:01:52Z</time>
      </trkpt>
      <trkpt lat="48.3739" lon="2.74827">
        <ele>87.9</ele>
        <time>2023-07-20T10:01:53Z</time>
      </trkpt>
      <trkpt lat="48.37389" lon="2.74828">
        <ele>87.9</ele>
        <time>2023-07-20T10:01:54Z</time>
      </trkpt>
      <trkpt lat="48.37389" lon="2.74829">
        <ele>87.9</ele>
        <time>2023-07-20T10:01:55Z</time>
      </trkpt>
      <trkpt lat="48.37388" lon="2.7483">
        <ele>87.9</ele>
        <time>2023-07-20T10:01:56Z</time>
      </trkpt>
      <trkpt lat="48.37387" lon="2.7483">
        <ele>87.9</ele>
        <time>2023-07-20T10:01:57Z</time>
      </trkpt>
      <trkpt lat="48.37386" lon="2.74831">
        <ele>87.9</ele>
        <time>2023-07-20T10:01:58Z</time>
      </trkpt>
      <trkpt lat="48.37385" lon="2.74831">
        <ele>87.9</ele>
        <time>2023-07-20T10:01:59Z</time>
      </trkpt>
      <trkpt lat="48.37384" lon="2.74832">
        <ele>87.9</ele>
        <time>2023-07-20T10:02:00Z</time>
      </trkpt>
      <trkpt lat="48.37383" lon="2.74833">
        <ele>87.9</ele>
        <time>2023-07-20T10:02:01Z</time>
      </trkpt>
      <trkpt lat="48.37382" lon="2.74834">
        <ele>87.9</ele>
        <time>2023-07-20T10:02:02Z</time>
      </trkpt>
      <trkpt lat="48.37381" lon="2.74834">
        <ele>87.9</ele>
        <time>2023-07-20T10:02:03Z</time>
      </trkpt>
      <trkpt lat="48.37379" lon="2.74835">
        <ele>87.9</ele>
        <time>2023-07-20T10:02:04Z</time>
      </trkpt>
      <trkpt lat="48.37377" lon="2.74837">
        <ele>87.9</ele>
        <time>2023-07-20T10:02:05Z</time>
      </trkpt>
      <trkpt lat="48.37376" lon="2.74837">
        <ele>87.9</ele>
        <time>2023-07-20T10:02:06Z</time>
      </trkpt>
      <trkpt lat="48.37377" lon="2.74839">
        <ele>87.9</ele>
        <time>2023-07-20T10:02:07Z</time>
      </trkpt>
      <trkpt lat="48.37376" lon="2.74841">
        <ele>87.9</ele>
        <time>2023-07-20T10:02:08Z</time>
      </trkpt>
      <trkpt lat="48.37375" lon="2.74841">
        <ele>87.9</ele>
        <time>2023-07-20T10:02:09Z</time>
      </trkpt>
      <trkpt lat="48.37374" lon="2.74843">
        <ele>87.9</ele>
        <time>2023-07-20T10:02:10Z</time>
      </trkpt>
      <trkpt lat="48.37372" lon="2.74843">
        <ele>87.9</ele>
        <time>2023-07-20T10:02:11Z</time>
      </trkpt>
      <trkpt lat="48.37371" lon="2.74844">
        <ele>87.9</ele>
        <time>2023-07-20T10:02:12Z</time>
      </trkpt>
      <trkpt lat="48.3737" lon="2.74846">
        <ele>87.9</ele>
        <time>2023-07-20T10:02:13Z</time>
      </trkpt>
      <trkpt lat="48.37368" lon="2.74847">
        <ele>87.9</ele>
        <time>2023-07-20T10:02:14Z</time>
      </trkpt>
      <trkpt lat="48.37367" lon="2.74848">
        <ele>87.9</ele>
        <time>2023-07-20T10:02:15Z</time>
      </trkpt>
      <trkpt lat="48.37366" lon="2.74848">
        <ele>87.9</ele>
        <time>2023-07-20T10:02:16Z</time>
      </trkpt>
      <trkpt lat="48.37364" lon="2.7485">
        <ele>87.9</ele>
        <time>2023-07-20T10:02:17Z</time>
      </trkpt>
      <trkpt lat="48.37364" lon="2.74852">
        <ele>87.9</ele>
        <time>2023-07-20T10:02:18Z</time>
      </trkpt>
      <trkpt lat="48.37363" lon="2.74853">
        <ele>87.9</ele>
        <time>2023-07-20T10:02:19Z</time>
      </trkpt>
      <trkpt lat="48.37362" lon="2.74853">
        <ele>87.9</ele>
        <time>2023-07-20T10:02:20Z</time>
      </trkpt>
      <trkpt lat="48.37362" lon="2.74853">
        <ele>87.9</ele>
        <time>2023-07-20T10:02:21Z</time>
      </trkpt>
      <trkpt lat="48.37361" lon="2.74853">
        <ele>87.9</ele>
        <time>2023-07-20T10:02:22Z</time>
      </trkpt>
      <trkpt lat="48.3736" lon="2.74853">
        <ele>87.9</ele>
        <time>2023-07-20T10:02:23Z</time>
      </trkpt>
      <trkpt lat="48.3736" lon="2.74853">
        <ele>87.9</ele>
        <time>2023-07-20T10:02:24Z</time>
      </trkpt>
      <trkpt lat="48.37359" lon="2.74854">
        <ele>87.9</ele>
        <time>2023-07-20T10:02:25Z</time>
      </trkpt>
      <trkpt lat="48.37358" lon="2.74854">
        <ele>87.9</ele>
        <time>2023-07-20T10:02:26Z</time>
      </trkpt>
      <trkpt lat="48.37357" lon="2.74854">
        <ele>87.9</ele>
        <time>2023-07-20T10:02:27Z</time>
      </trkpt>
      <trkpt lat="48.37355" lon="2.74855">
        <ele>88</ele>
        <time>2023-07-20T10:02:28Z</time>
      </trkpt>
      <trkpt lat="48.37353" lon="2.74856">
        <ele>88</ele>
        <time>2023-07-20T10:02:29Z</time>
      </trkpt>
      <trkpt lat="48.37353" lon="2.74857">
        <ele>88</ele>
        <time>2023-07-20T10:02:30Z</time>
      </trkpt>
      <trkpt lat="48.37352" lon="2.74857">
        <ele>88</ele>
        <time>2023-07-20T10:02:31Z</time>
      </trkpt>
      <trkpt lat="48.37351" lon="2.74858">
        <ele>88</ele>
        <time>2023-07-20T10:02:32Z</time>
      </trkpt>
      <trkpt lat="48.37349" lon="2.74859">
        <ele>88</ele>
        <time>2023-07-20T10:02:33Z</time>
      </trkpt>
      <trkpt lat="48.37348" lon="2.74859">
        <ele>88</ele>
        <time>2023-07-20T10:02:34Z</time>
      </trkpt>
      <trkpt lat="48.37347" lon="2.7486">
        <ele>88</ele>
        <time>2023-07-20T10:02:35Z</time>
      </trkpt>
      <trkpt lat="48.37347" lon="2.74862">
        <ele>88</ele>
        <time>2023-07-20T10:02:36Z</time>
      </trkpt>
      <trkpt lat="48.37346" lon="2.74862">
        <ele>88</ele>
        <time>2023-07-20T10:02:37Z</time>
      </trkpt>
      <trkpt lat="48.37346" lon="2.74863">
        <ele>88</ele>
        <time>2023-07-20T10:02:38Z</time>
      </trkpt>
      <trkpt lat="48.37344" lon="2.74864">
        <ele>88</ele>
        <time>2023-07-20T10:02:39Z</time>
      </trkpt>
      <trkpt lat="48.37343" lon="2.74866">
        <ele>88</ele>
        <time>2023-07-20T10:02:40Z</time>
      </trkpt>
      <trkpt lat="48.37341" lon="2.74867">
        <ele>88</ele>
        <time>2023-07-20T10:02:41Z</time>
      </trkpt>
      <trkpt lat="48.3734" lon="2.74868">
        <ele>88.1</ele>
        <time>2023-07-20T10:02:42Z</time>
      </trkpt>
      <trkpt lat="48.37339" lon="2.74868">
        <ele>88.1</ele>
        <time>2023-07-20T10:02:43Z</time>
      </trkpt>
      <trkpt lat="48.37338" lon="2.7487">
        <ele>88.1</ele>
        <time>2023-07-20T10:02:44Z</time>
      </trkpt>
      <trkpt lat="48.37337" lon="2.74871">
        <ele>88.1</ele>
        <time>2023-07-20T10:02:45Z</time>
      </trkpt>
      <trkpt lat="48.37336" lon="2.74871">
        <ele>88.1</ele>
        <time>2023-07-20T10:02:46Z</time>
      </trkpt>
      <trkpt lat="48.37335" lon="2.74872">
        <ele>88.1</ele>
        <time>2023-07-20T10:02:47Z</time>
      </trkpt>
      <trkpt lat="48.37335" lon="2.74872">
        <ele>88.1</ele>
        <time>2023-07-20T10:02:48Z</time>
      </trkpt>
      <trkpt lat="48.37335" lon="2.74872">
        <ele>88.1</ele>
        <time>2023-07-20T10:02:49Z</time>
      </trkpt>
      <trkpt lat="48.37334" lon="2.74873">
        <ele>88.1</ele>
        <time>2023-07-20T10:02:50Z</time>
      </trkpt>
      <trkpt lat="48.37332" lon="2.74873">
        <ele>88.2</ele>
        <time>2023-07-20T10:02:51Z</time>
      </trkpt>
      <trkpt lat="48.37332" lon="2.74873">
        <ele>88.2</ele>
        <time>2023-07-20T10:02:52Z</time>
      </trkpt>
      <trkpt lat="48.3733" lon="2.74874">
        <ele>88.2</ele>
        <time>2023-07-20T10:02:53Z</time>
      </trkpt>
      <trkpt lat="48.3733" lon="2.74874">
        <ele>88.2</ele>
        <time>2023-07-20T10:02:54Z</time>
      </trkpt>
      <trkpt lat="48.37329" lon="2.74874">
        <ele>88.2</ele>
        <time>2023-07-20T10:02:55Z</time>
      </trkpt>
      <trkpt lat="48.37328" lon="2.74876">
        <ele>88.2</ele>
        <time>2023-07-20T10:02:56Z</time>
      </trkpt>
      <trkpt lat="48.37325" lon="2.74879">
        <ele>88.3</ele>
        <time>2023-07-20T10:02:57Z</time>
      </trkpt>
      <trkpt lat="48.37324" lon="2.7488">
        <ele>88.3</ele>
        <time>2023-07-20T10:02:58Z</time>
      </trkpt>
      <trkpt lat="48.37323" lon="2.7488">
        <ele>88.3</ele>
        <time>2023-07-20T10:02:59Z</time>
      </trkpt>
      <trkpt lat="48.37321" lon="2.74882">
        <ele>88.3</ele>
        <time>2023-07-20T10:03:00Z</time>
      </trkpt>
      <trkpt lat="48.37321" lon="2.74882">
        <ele>88.3</ele>
        <time>2023-07-20T10:03:01Z</time>
      </trkpt>
      <trkpt lat="48.3732" lon="2.74883">
        <ele>88.4</ele>
        <time>2023-07-20T10:03:02Z</time>
      </trkpt>
      <trkpt lat="48.37319" lon="2.74884">
        <ele>88.4</ele>
        <time>2023-07-20T10:03:03Z</time>
      </trkpt>
      <trkpt lat="48.37319" lon="2.74884">
        <ele>88.4</ele>
        <time>2023-07-20T10:03:04Z</time>
      </trkpt>
      <trkpt lat="48.37318" lon="2.74884">
        <ele>88.4</ele>
        <time>2023-07-20T10:03:05Z</time>
      </trkpt>
      <trkpt lat="48.37319" lon="2.74885">
        <ele>88.4</ele>
        <time>2023-07-20T10:03:06Z</time>
      </trkpt>
      <trkpt lat="48.37318" lon="2.74886">
        <ele>88.4</ele>
        <time>2023-07-20T10:03:07Z</time>
      </trkpt>
      <trkpt lat="48.37317" lon="2.74887">
        <ele>88.4</ele>
        <time>2023-07-20T10:03:08Z</time>
      </trkpt>
      <trkpt lat="48.37316" lon="2.74888">
        <ele>88.4</ele>
        <time>2023-07-20T10:03:09Z</time>
      </trkpt>
      <trkpt lat="48.37316" lon="2.74888">
        <ele>88.4</ele>
        <time>2023-07-20T10:03:10Z</time>
      </trkpt>
      <trkpt lat="48.37315" lon="2.74889">
        <ele>88.4</ele>
        <time>2023-07-20T10:03:11Z</time>
      </trkpt>
      <trkpt lat="48.37314" lon="2.74891">
        <ele>88.4</ele>
        <time>2023-07-20T10:03:12Z</time>
      </trkpt>
      <trkpt lat="48.37314" lon="2.74894">
        <ele>88.4</ele>
        <time>2023-07-20T10:03:13Z</time>
      </trkpt>
      <trkpt lat="48.37312" lon="2.74895">
        <ele>88.4</ele>
        <time>2023-07-20T10:03:14Z</time>
      </trkpt>
      <trkpt lat="48.37311" lon="2.74896">
        <ele>88.5</ele>
        <time>2023-07-20T10:03:15Z</time>
      </trkpt>
      <trkpt lat="48.3731" lon="2.74898">
        <ele>88.5</ele>
        <time>2023-07-20T10:03:16Z</time>
      </trkpt>
      <trkpt lat="48.37309" lon="2.74899">
        <ele>88.5</ele>
        <time>2023-07-20T10:03:17Z</time>
      </trkpt>
      <trkpt lat="48.37308" lon="2.749">
        <ele>88.5</ele>
        <time>2023-07-20T10:03:18Z</time>
      </trkpt>
      <trkpt lat="48.37309" lon="2.749">
        <ele>88.5</ele>
        <time>2023-07-20T10:03:19Z</time>
      </trkpt>
      <trkpt lat="48.37309" lon="2.74902">
        <ele>88.5</ele>
        <time>2023-07-20T10:03:20Z</time>
      </trkpt>
      <trkpt lat="48.37307" lon="2.74903">
        <ele>88.5</ele>
        <time>2023-07-20T10:03:21Z</time>
      </trkpt>
      <trkpt lat="48.37306" lon="2.74904">
        <ele>88.5</ele>
        <time>2023-07-20T10:03:22Z</time>
      </trkpt>
      <trkpt lat="48.37305" lon="2.74905">
        <ele>88.5</ele>
        <time>2023-07-20T10:03:23Z</time>
      </trkpt>
      <trkpt lat="48.37305" lon="2.74906">
        <ele>88.5</ele>
        <time>2023-07-20T10:03:24Z</time>
      </trkpt>
      <trkpt lat="48.37303" lon="2.74907">
        <ele>88.6</ele>
        <time>2023-07-20T10:03:25Z</time>
      </trkpt>
      <trkpt lat="48.37302" lon="2.74908">
        <ele>88.6</ele>
        <time>2023-07-20T10:03:26Z</time>
      </trkpt>
      <trkpt lat="48.37301" lon="2.74909">
        <ele>88.6</ele>
        <time>2023-07-20T10:03:28Z</time>
      </trkpt>
      <trkpt lat="48.373" lon="2.7491">
        <ele>88.6</ele>
        <time>2023-07-20T10:03:29Z</time>
      </trkpt>
      <trkpt lat="48.37298" lon="2.74911">
        <ele>88.6</ele>
        <time>2023-07-20T10:03:30Z</time>
      </trkpt>
      <trkpt lat="48.37297" lon="2.74913">
        <ele>88.7</ele>
        <time>2023-07-20T10:03:31Z</time>
      </trkpt>
      <trkpt lat="48.37296" lon="2.74914">
        <ele>88.7</ele>
        <time>2023-07-20T10:03:32Z</time>
      </trkpt>
      <trkpt lat="48.37296" lon="2.74914">
        <ele>88.7</ele>
        <time>2023-07-20T10:03:33Z</time>
      </trkpt>
      <trkpt lat="48.37294" lon="2.74914">
        <ele>88.7</ele>
        <time>2023-07-20T10:03:34Z</time>
      </trkpt>
      <trkpt lat="48.37293" lon="2.74914">
        <ele>88.7</ele>
        <time>2023-07-20T10:03:35Z</time>
      </trkpt>
      <trkpt lat="48.37292" lon="2.74914">
        <ele>88.7</ele>
        <time>2023-07-20T10:03:36Z</time>
      </trkpt>
      <trkpt lat="48.37292" lon="2.74915">
        <ele>88.7</ele>
        <time>2023-07-20T10:03:37Z</time>
      </trkpt>
      <trkpt lat="48.37292" lon="2.74915">
        <ele>88.8</ele>
        <time>2023-07-20T10:03:38Z</time>
      </trkpt>
      <trkpt lat="48.37291" lon="2.74916">
        <ele>88.8</ele>
        <time>2023-07-20T10:03:39Z</time>
      </trkpt>
      <trkpt lat="48.3729" lon="2.74917">
        <ele>88.8</ele>
        <time>2023-07-20T10:03:40Z</time>
      </trkpt>
      <trkpt lat="48.3729" lon="2.74918">
        <ele>88.8</ele>
        <time>2023-07-20T10:03:41Z</time>
      </trkpt>
      <trkpt lat="48.3729" lon="2.74919">
        <ele>88.8</ele>
        <time>2023-07-20T10:03:42Z</time>
      </trkpt>
      <trkpt lat="48.37289" lon="2.74919">
        <ele>88.8</ele>
        <time>2023-07-20T10:03:43Z</time>
      </trkpt>
      <trkpt lat="48.37288" lon="2.7492">
        <ele>88.9</ele>
        <time>2023-07-20T10:03:44Z</time>
      </trkpt>
      <trkpt lat="48.37288" lon="2.7492">
        <ele>88.9</ele>
        <time>2023-07-20T10:03:45Z</time>
      </trkpt>
      <trkpt lat="48.37287" lon="2.7492">
        <ele>88.9</ele>
        <time>2023-07-20T10:03:46Z</time>
      </trkpt>
      <trkpt lat="48.37287" lon="2.7492">
        <ele>88.9</ele>
        <time>2023-07-20T10:03:47Z</time>
      </trkpt>
      <trkpt lat="48.37287" lon="2.7492">
        <ele>88.9</ele>
        <time>2023-07-20T10:03:48Z</time>
      </trkpt>
      <trkpt lat="48.37286" lon="2.7492">
        <ele>88.9</ele>
        <time>2023-07-20T10:03:49Z</time>
      </trkpt>
      <trkpt lat="48.37286" lon="2.74921">
        <ele>88.9</ele>
        <time>2023-07-20T10:03:50Z</time>
      </trkpt>
      <trkpt lat="48.37286" lon="2.74921">
        <ele>88.9</ele>
        <time>2023-07-20T10:03:51Z</time>
      </trkpt>
      <trkpt lat="48.37285" lon="2.74922">
        <ele>88.9</ele>
        <time>2023-07-20T10:03:52Z</time>
      </trkpt>
      <trkpt lat="48.37286" lon="2.74923">
        <ele>89</ele>
        <time>2023-07-20T10:03:53Z</time>
      </trkpt>
      <trkpt lat="48.37286" lon="2.74923">
        <ele>89</ele>
        <time>2023-07-20T10:03:54Z</time>
      </trkpt>
      <trkpt lat="48.37286" lon="2.74924">
        <ele>89</ele>
        <time>2023-07-20T10:03:55Z</time>
      </trkpt>
      <trkpt lat="48.37286" lon="2.74924">
        <ele>89</ele>
        <time>2023-07-20T10:03:56Z</time>
      </trkpt>
      <trkpt lat="48.37285" lon="2.74924">
        <ele>89</ele>
        <time>2023-07-20T10:03:57Z</time>
      </trkpt>
      <trkpt lat="48.37285" lon="2.74924">
        <ele>89</ele>
        <time>2023-07-20T10:03:58Z</time>
      </trkpt>
      <trkpt lat="48.37285" lon="2.74924">
        <ele>89</ele>
        <time>2023-07-20T10:03:59Z</time>
      </trkpt>
      <trkpt lat="48.37286" lon="2.74924">
        <ele>89</ele>
        <time>2023-07-20T10:04:00Z</time>
      </trkpt>
      <trkpt lat="48.37286" lon="2.74924">
        <ele>89</ele>
        <time>2023-07-20T10:04:01Z</time>
      </trkpt>
      <trkpt lat="48.37286" lon="2.74924">
        <ele>89</ele>
        <time>2023-07-20T10:04:02Z</time>
      </trkpt>
      <trkpt lat="48.37286" lon="2.74924">
        <ele>89</ele>
        <time>2023-07-20T10:04:03Z</time>
      </trkpt>
      <trkpt lat="48.37286" lon="2.74924">
        <ele>89</ele>
        <time>2023-07-20T10:04:04Z</time>
      </trkpt>
      <trkpt lat="48.37286" lon="2.74925">
        <ele>89</ele>
        <time>2023-07-20T10:04:05Z</time>
      </trkpt>
      <trkpt lat="48.37286" lon="2.74925">
        <ele>89</ele>
        <time>2023-07-20T10:04:06Z</time>
      </trkpt>
      <trkpt lat="48.37286" lon="2.74925">
        <ele>89</ele>
        <time>2023-07-20T10:04:07Z</time>
      </trkpt>
      <trkpt lat="48.37286" lon="2.74925">
        <ele>89</ele>
        <time>2023-07-20T10:04:08Z</time>
      </trkpt>
      <trkpt lat="48.37286" lon="2.74925">
        <ele>89</ele>
        <time>2023-07-20T10:04:09Z</time>
      </trkpt>
      <trkpt lat="48.37286" lon="2.74925">
        <ele>89</ele>
        <time>2023-07-20T10:04:10Z</time>
      </trkpt>
      <trkpt lat="48.37286" lon="2.74925">
        <ele>89</ele>
        <time>2023-07-20T10:04:11Z</time>
      </trkpt>
      <trkpt lat="48.37286" lon="2.74925">
        <ele>89</ele>
        <time>2023-07-20T10:04:12Z</time>
      </trkpt>
    </trkseg>
  </trk>
</gpx>